<?xml version="1.0" encoding="ISO-8859-1"?>
<gpx xmlns="http://www.topografix.com/GPX/1/1" 
version="1.1" creator="Sports Tracker" 
xmlns:xsi="http://www.w3.org/2001/XMLSchema-instance" 
xsi:schemaLocation="http://www.topografix.com/GPX/1/1 
http://www.topografix.com/GPX/1/1/gpx.xsd 
http://www.garmin.com/xmlschemas/GpxExtensions/v3 
http://www.garmin.com/xmlschemas/GpxExtensionsv3.xsd 
http://www.garmin.com/xmlschemas/TrackPointExtension/v1 
http://www.garmin.com/xmlschemas/TrackPointExtensionv1.xsd" 
xmlns:gpxtpx="http://www.garmin.com/xmlschemas/TrackPointExtension/v1" 
xmlns:gpxx="http://www.garmin.com/xmlschemas/GpxExtensions/v3">
<metadata>
<name><![CDATA[23.07.2013 12.50]]></name>
<desc><![CDATA[Cycling]]></desc>
<author><name><![CDATA[Joe Average]]></name></author>
<link href="www.sports-tracker.com">
<text>Sports Tracker</text>
</link>
<time>2013-07-23T12:50:43.69</time>
</metadata>
<trk>
<name><![CDATA[23.07.2013 12.50]]></name>
<trkseg>
<trkpt lat="48.884795" lon="20.135088">
<ele>1989.0</ele>
<desc>Speed 3.9 km/h Distance 0.00 km</desc>
<time>2013-07-23T12:50:51.53</time>
<name>1</name>
<sym>Crossing</sym>
</trkpt>
<trkpt lat="48.884810" lon="20.135120">
<ele>1991.0</ele>
<desc>Speed 2.7 km/h Distance 0.00 km</desc>
<time>2013-07-23T12:51:02.53</time>
<name>2</name>
<sym>Dot</sym>
</trkpt>
<trkpt lat="48.884802" lon="20.135120">
<ele>1988.0</ele>
<desc>Speed 3.4 km/h Distance 0.00 km</desc>
<time>2013-07-23T12:51:13.51</time>
<name>3</name>
<sym>Dot</sym>
</trkpt>
<trkpt lat="48.884812" lon="20.135112">
<ele>1989.0</ele>
<desc>Speed 2.3 km/h Distance 0.01 km</desc>
<time>2013-07-23T12:51:27.51</time>
<name>4</name>
<sym>Dot</sym>
</trkpt>
<trkpt lat="48.884817" lon="20.135110">
<ele>1988.5</ele>
<desc>Speed 2.8 km/h Distance 0.01 km</desc>
<time>2013-07-23T12:51:28.51</time>
<name>5</name>
<sym>Dot</sym>
</trkpt>
<trkpt lat="48.884805" lon="20.135077">
<ele>1991.5</ele>
<desc>Speed 3.1 km/h Distance 0.01 km</desc>
<time>2013-07-23T12:52:03.69</time>
<name>6</name>
<sym>Dot</sym>
</trkpt>
<trkpt lat="48.884812" lon="20.135077">
<ele>1991.5</ele>
<desc>Speed 3.1 km/h Distance 0.01 km</desc>
<time>2013-07-23T12:52:04.52</time>
<name>7</name>
<sym>Dot</sym>
</trkpt>
<trkpt lat="48.884817" lon="20.135070">
<ele>1990.0</ele>
<desc>Speed 2.2 km/h Distance 0.01 km</desc>
<time>2013-07-23T12:52:13.52</time>
<name>8</name>
<sym>Dot</sym>
</trkpt>
<trkpt lat="48.884818" lon="20.135075">
<ele>1991.0</ele>
<desc>Speed 3.0 km/h Distance 0.01 km</desc>
<time>2013-07-23T12:52:23.52</time>
<name>9</name>
<sym>Dot</sym>
</trkpt>
<trkpt lat="48.884805" lon="20.135073">
<ele>1990.5</ele>
<desc>Speed 2.8 km/h Distance 0.01 km</desc>
<time>2013-07-23T12:52:55.51</time>
<name>10</name>
<sym>Dot</sym>
</trkpt>
<trkpt lat="48.884820" lon="20.135082">
<ele>1990.0</ele>
<desc>Speed 2.2 km/h Distance 0.01 km</desc>
<time>2013-07-23T12:53:18.51</time>
<name>11</name>
<sym>Dot</sym>
</trkpt>
<trkpt lat="48.884842" lon="20.135077">
<ele>1988.5</ele>
<desc>Speed 2.2 km/h Distance 0.02 km</desc>
<time>2013-07-23T12:53:43.50</time>
<name>12</name>
<sym>Dot</sym>
</trkpt>
<trkpt lat="48.884848" lon="20.135070">
<ele>1988.5</ele>
<desc>Speed 3.7 km/h Distance 0.02 km</desc>
<time>2013-07-23T12:53:44.49</time>
<name>13</name>
<sym>Dot</sym>
</trkpt>
<trkpt lat="48.884853" lon="20.135068">
<ele>1988.5</ele>
<desc>Speed 2.2 km/h Distance 0.02 km</desc>
<time>2013-07-23T12:53:45.49</time>
<name>14</name>
<sym>Dot</sym>
</trkpt>
<trkpt lat="48.884865" lon="20.135057">
<ele>1988.5</ele>
<desc>Speed 5.8 km/h Distance 0.02 km</desc>
<time>2013-07-23T12:53:46.48</time>
<name>15</name>
<sym>Dot</sym>
</trkpt>
<trkpt lat="48.884875" lon="20.135047">
<ele>1988.0</ele>
<desc>Speed 4.4 km/h Distance 0.02 km</desc>
<time>2013-07-23T12:53:47.47</time>
<name>16</name>
<sym>Dot</sym>
</trkpt>
<trkpt lat="48.884882" lon="20.135032">
<ele>1988.0</ele>
<desc>Speed 4.6 km/h Distance 0.02 km</desc>
<time>2013-07-23T12:53:48.46</time>
<name>17</name>
<sym>Dot</sym>
</trkpt>
<trkpt lat="48.884885" lon="20.135012">
<ele>1988.0</ele>
<desc>Speed 6.1 km/h Distance 0.02 km</desc>
<time>2013-07-23T12:53:49.46</time>
<name>18</name>
<sym>Dot</sym>
</trkpt>
<trkpt lat="48.884888" lon="20.134988">
<ele>1988.5</ele>
<desc>Speed 6.9 km/h Distance 0.02 km</desc>
<time>2013-07-23T12:53:50.46</time>
<name>19</name>
<sym>Dot</sym>
</trkpt>
<trkpt lat="48.884892" lon="20.134968">
<ele>1988.5</ele>
<desc>Speed 5.8 km/h Distance 0.03 km</desc>
<time>2013-07-23T12:53:51.54</time>
<name>20</name>
<sym>Dot</sym>
</trkpt>
<trkpt lat="48.884897" lon="20.134955">
<ele>1988.5</ele>
<desc>Speed 4.5 km/h Distance 0.03 km</desc>
<time>2013-07-23T12:53:52.44</time>
<name>21</name>
<sym>Dot</sym>
</trkpt>
<trkpt lat="48.884902" lon="20.134928">
<ele>1988.5</ele>
<desc>Speed 7.9 km/h Distance 0.03 km</desc>
<time>2013-07-23T12:53:53.43</time>
<name>22</name>
<sym>Dot</sym>
</trkpt>
<trkpt lat="48.884907" lon="20.134900">
<ele>1988.5</ele>
<desc>Speed 8.3 km/h Distance 0.03 km</desc>
<time>2013-07-23T12:53:54.43</time>
<name>23</name>
<sym>Dot</sym>
</trkpt>
<trkpt lat="48.884915" lon="20.134865">
<ele>1988.5</ele>
<desc>Speed 10.3 km/h Distance 0.03 km</desc>
<time>2013-07-23T12:53:55.43</time>
<name>24</name>
<sym>Dot</sym>
</trkpt>
<trkpt lat="48.884922" lon="20.134833">
<ele>1988.5</ele>
<desc>Speed 9.1 km/h Distance 0.04 km</desc>
<time>2013-07-23T12:53:56.42</time>
<name>25</name>
<sym>Dot</sym>
</trkpt>
<trkpt lat="48.884928" lon="20.134805">
<ele>1989.0</ele>
<desc>Speed 8.1 km/h Distance 0.04 km</desc>
<time>2013-07-23T12:53:57.42</time>
<name>26</name>
<sym>Dot</sym>
</trkpt>
<trkpt lat="48.884933" lon="20.134780">
<ele>1989.0</ele>
<desc>Speed 7.4 km/h Distance 0.04 km</desc>
<time>2013-07-23T12:53:58.42</time>
<name>27</name>
<sym>Dot</sym>
</trkpt>
<trkpt lat="48.884938" lon="20.134752">
<ele>1989.0</ele>
<desc>Speed 7.8 km/h Distance 0.04 km</desc>
<time>2013-07-23T12:53:59.42</time>
<name>28</name>
<sym>Dot</sym>
</trkpt>
<trkpt lat="48.884945" lon="20.134728">
<ele>1989.0</ele>
<desc>Speed 7.0 km/h Distance 0.05 km</desc>
<time>2013-07-23T12:54:00.46</time>
<name>29</name>
<sym>Dot</sym>
</trkpt>
<trkpt lat="48.884950" lon="20.134703">
<ele>1989.5</ele>
<desc>Speed 6.7 km/h Distance 0.05 km</desc>
<time>2013-07-23T12:54:01.41</time>
<name>30</name>
<sym>Dot</sym>
</trkpt>
<trkpt lat="48.884953" lon="20.134682">
<ele>1989.5</ele>
<desc>Speed 6.0 km/h Distance 0.05 km</desc>
<time>2013-07-23T12:54:02.41</time>
<name>31</name>
<sym>Dot</sym>
</trkpt>
<trkpt lat="48.884953" lon="20.134653">
<ele>1989.5</ele>
<desc>Speed 7.7 km/h Distance 0.05 km</desc>
<time>2013-07-23T12:54:03.41</time>
<name>32</name>
<sym>Dot</sym>
</trkpt>
<trkpt lat="48.884952" lon="20.134625">
<ele>1989.5</ele>
<desc>Speed 7.1 km/h Distance 0.05 km</desc>
<time>2013-07-23T12:54:04.40</time>
<name>33</name>
<sym>Dot</sym>
</trkpt>
<trkpt lat="48.884950" lon="20.134597">
<ele>1990.0</ele>
<desc>Speed 7.3 km/h Distance 0.05 km</desc>
<time>2013-07-23T12:54:05.39</time>
<name>34</name>
<sym>Dot</sym>
</trkpt>
<trkpt lat="48.884943" lon="20.134603">
<ele>1989.5</ele>
<desc>Speed 3.2 km/h Distance 0.06 km</desc>
<time>2013-07-23T12:54:06.39</time>
<name>35</name>
<sym>Dot</sym>
</trkpt>
<trkpt lat="48.884935" lon="20.134582">
<ele>1990.0</ele>
<desc>Speed 6.4 km/h Distance 0.06 km</desc>
<time>2013-07-23T12:54:07.39</time>
<name>36</name>
<sym>Dot</sym>
</trkpt>
<trkpt lat="48.884928" lon="20.134565">
<ele>1990.0</ele>
<desc>Speed 5.5 km/h Distance 0.06 km</desc>
<time>2013-07-23T12:54:08.39</time>
<name>37</name>
<sym>Dot</sym>
</trkpt>
<trkpt lat="48.884920" lon="20.134548">
<ele>1990.0</ele>
<desc>Speed 3.4 km/h Distance 0.06 km</desc>
<time>2013-07-23T12:54:09.38</time>
<name>38</name>
<sym>Dot</sym>
</trkpt>
<trkpt lat="48.884913" lon="20.134528">
<ele>1989.5</ele>
<desc>Speed 4.3 km/h Distance 0.06 km</desc>
<time>2013-07-23T12:54:10.38</time>
<name>39</name>
<sym>Dot</sym>
</trkpt>
<trkpt lat="48.884902" lon="20.134542">
<ele>1990.5</ele>
<desc>Speed 6.0 km/h Distance 0.06 km</desc>
<time>2013-07-23T12:54:11.37</time>
<name>40</name>
<sym>Dot</sym>
</trkpt>
<trkpt lat="48.884912" lon="20.134520">
<ele>1990.0</ele>
<desc>Speed 6.0 km/h Distance 0.07 km</desc>
<time>2013-07-23T12:54:12.38</time>
<name>41</name>
<sym>Dot</sym>
</trkpt>
<trkpt lat="48.884910" lon="20.134505">
<ele>1989.5</ele>
<desc>Speed 2.2 km/h Distance 0.07 km</desc>
<time>2013-07-23T12:54:14.37</time>
<name>42</name>
<sym>Dot</sym>
</trkpt>
<trkpt lat="48.884922" lon="20.134503">
<ele>1988.5</ele>
<desc>Speed 2.2 km/h Distance 0.07 km</desc>
<time>2013-07-23T12:54:40.36</time>
<name>43</name>
<sym>Dot</sym>
</trkpt>
<trkpt lat="48.884927" lon="20.134493">
<ele>1989.0</ele>
<desc>Speed 3.1 km/h Distance 0.07 km</desc>
<time>2013-07-23T12:54:41.36</time>
<name>44</name>
<sym>Dot</sym>
</trkpt>
<trkpt lat="48.884927" lon="20.134482">
<ele>1989.0</ele>
<desc>Speed 3.6 km/h Distance 0.07 km</desc>
<time>2013-07-23T12:54:42.35</time>
<name>45</name>
<sym>Dot</sym>
</trkpt>
<trkpt lat="48.884928" lon="20.134473">
<ele>1989.0</ele>
<desc>Speed 2.9 km/h Distance 0.07 km</desc>
<time>2013-07-23T12:54:43.35</time>
<name>46</name>
<sym>Dot</sym>
</trkpt>
<trkpt lat="48.884928" lon="20.134467">
<ele>1989.0</ele>
<desc>Speed 2.3 km/h Distance 0.07 km</desc>
<time>2013-07-23T12:54:44.36</time>
<name>47</name>
<sym>Dot</sym>
</trkpt>
<trkpt lat="48.884933" lon="20.134453">
<ele>1989.0</ele>
<desc>Speed 2.2 km/h Distance 0.07 km</desc>
<time>2013-07-23T12:54:46.35</time>
<name>48</name>
<sym>Dot</sym>
</trkpt>
<trkpt lat="48.884932" lon="20.134432">
<ele>1989.0</ele>
<desc>Speed 2.3 km/h Distance 0.07 km</desc>
<time>2013-07-23T12:54:49.35</time>
<name>49</name>
<sym>Dot</sym>
</trkpt>
<trkpt lat="48.884928" lon="20.134393">
<ele>1991.0</ele>
<desc>Speed 2.2 km/h Distance 0.08 km</desc>
<time>2013-07-23T12:54:56.34</time>
<name>50</name>
<sym>Dot</sym>
</trkpt>
<trkpt lat="48.884927" lon="20.134375">
<ele>1990.0</ele>
<desc>Speed 3.6 km/h Distance 0.08 km</desc>
<time>2013-07-23T12:54:58.34</time>
<name>51</name>
<sym>Dot</sym>
</trkpt>
<trkpt lat="48.884928" lon="20.134358">
<ele>1990.0</ele>
<desc>Speed 2.3 km/h Distance 0.08 km</desc>
<time>2013-07-23T12:55:00.37</time>
<name>52</name>
<sym>Dot</sym>
</trkpt>
<trkpt lat="48.884927" lon="20.134350">
<ele>1989.5</ele>
<desc>Speed 2.2 km/h Distance 0.08 km</desc>
<time>2013-07-23T12:55:01.34</time>
<name>53</name>
<sym>Dot</sym>
</trkpt>
<trkpt lat="48.884925" lon="20.134340">
<ele>1989.5</ele>
<desc>Speed 2.7 km/h Distance 0.08 km</desc>
<time>2013-07-23T12:55:02.33</time>
<name>54</name>
<sym>Dot</sym>
</trkpt>
<trkpt lat="48.884923" lon="20.134322">
<ele>1990.0</ele>
<desc>Speed 3.0 km/h Distance 0.08 km</desc>
<time>2013-07-23T12:55:04.33</time>
<name>55</name>
<sym>Dot</sym>
</trkpt>
<trkpt lat="48.884922" lon="20.134312">
<ele>1990.0</ele>
<desc>Speed 2.7 km/h Distance 0.08 km</desc>
<time>2013-07-23T12:55:05.33</time>
<name>56</name>
<sym>Dot</sym>
</trkpt>
<trkpt lat="48.884925" lon="20.134303">
<ele>1989.0</ele>
<desc>Speed 2.5 km/h Distance 0.08 km</desc>
<time>2013-07-23T12:55:06.33</time>
<name>57</name>
<sym>Dot</sym>
</trkpt>
<trkpt lat="48.884923" lon="20.134293">
<ele>1988.5</ele>
<desc>Speed 2.9 km/h Distance 0.08 km</desc>
<time>2013-07-23T12:55:07.33</time>
<name>58</name>
<sym>Dot</sym>
</trkpt>
<trkpt lat="48.884927" lon="20.134283">
<ele>1988.5</ele>
<desc>Speed 2.9 km/h Distance 0.08 km</desc>
<time>2013-07-23T12:55:08.33</time>
<name>59</name>
<sym>Dot</sym>
</trkpt>
<trkpt lat="48.884927" lon="20.134265">
<ele>1987.5</ele>
<desc>Speed 4.2 km/h Distance 0.09 km</desc>
<time>2013-07-23T12:55:09.32</time>
<name>60</name>
<sym>Dot</sym>
</trkpt>
<trkpt lat="48.884927" lon="20.134247">
<ele>1986.5</ele>
<desc>Speed 4.1 km/h Distance 0.09 km</desc>
<time>2013-07-23T12:55:10.32</time>
<name>61</name>
<sym>Dot</sym>
</trkpt>
<trkpt lat="48.884928" lon="20.134232">
<ele>1986.0</ele>
<desc>Speed 3.4 km/h Distance 0.09 km</desc>
<time>2013-07-23T12:55:11.31</time>
<name>62</name>
<sym>Dot</sym>
</trkpt>
<trkpt lat="48.884930" lon="20.134223">
<ele>1985.0</ele>
<desc>Speed 2.2 km/h Distance 0.09 km</desc>
<time>2013-07-23T12:55:12.32</time>
<name>63</name>
<sym>Dot</sym>
</trkpt>
<trkpt lat="48.884938" lon="20.134202">
<ele>1982.5</ele>
<desc>Speed 3.0 km/h Distance 0.09 km</desc>
<time>2013-07-23T12:55:22.30</time>
<name>64</name>
<sym>Dot</sym>
</trkpt>
<trkpt lat="48.884943" lon="20.134192">
<ele>1982.5</ele>
<desc>Speed 3.3 km/h Distance 0.09 km</desc>
<time>2013-07-23T12:55:23.29</time>
<name>65</name>
<sym>Dot</sym>
</trkpt>
<trkpt lat="48.884945" lon="20.134182">
<ele>1982.5</ele>
<desc>Speed 2.5 km/h Distance 0.09 km</desc>
<time>2013-07-23T12:55:24.35</time>
<name>66</name>
<sym>Dot</sym>
</trkpt>
<trkpt lat="48.884945" lon="20.134167">
<ele>1982.5</ele>
<desc>Speed 3.7 km/h Distance 0.09 km</desc>
<time>2013-07-23T12:55:25.28</time>
<name>67</name>
<sym>Dot</sym>
</trkpt>
<trkpt lat="48.884943" lon="20.134155">
<ele>1982.0</ele>
<desc>Speed 3.1 km/h Distance 0.09 km</desc>
<time>2013-07-23T12:55:26.27</time>
<name>68</name>
<sym>Dot</sym>
</trkpt>
<trkpt lat="48.884943" lon="20.134147">
<ele>1982.5</ele>
<desc>Speed 2.2 km/h Distance 0.10 km</desc>
<time>2013-07-23T12:55:27.27</time>
<name>69</name>
<sym>Dot</sym>
</trkpt>
<trkpt lat="48.884940" lon="20.134137">
<ele>1982.0</ele>
<desc>Speed 2.4 km/h Distance 0.10 km</desc>
<time>2013-07-23T12:55:28.26</time>
<name>70</name>
<sym>Dot</sym>
</trkpt>
<trkpt lat="48.884938" lon="20.134128">
<ele>1981.5</ele>
<desc>Speed 2.2 km/h Distance 0.10 km</desc>
<time>2013-07-23T12:55:29.26</time>
<name>71</name>
<sym>Dot</sym>
</trkpt>
<trkpt lat="48.884938" lon="20.134120">
<ele>1981.5</ele>
<desc>Speed 2.2 km/h Distance 0.10 km</desc>
<time>2013-07-23T12:55:30.25</time>
<name>72</name>
<sym>Dot</sym>
</trkpt>
<trkpt lat="48.884942" lon="20.134107">
<ele>1982.0</ele>
<desc>Speed 2.6 km/h Distance 0.10 km</desc>
<time>2013-07-23T12:55:32.25</time>
<name>73</name>
<sym>Dot</sym>
</trkpt>
<trkpt lat="48.884943" lon="20.134070">
<ele>1981.5</ele>
<desc>Speed 3.4 km/h Distance 0.10 km</desc>
<time>2013-07-23T12:55:36.24</time>
<name>74</name>
<sym>Dot</sym>
</trkpt>
<trkpt lat="48.884940" lon="20.134057">
<ele>1981.0</ele>
<desc>Speed 4.1 km/h Distance 0.10 km</desc>
<time>2013-07-23T12:55:37.23</time>
<name>75</name>
<sym>Dot</sym>
</trkpt>
<trkpt lat="48.884943" lon="20.134048">
<ele>1982.5</ele>
<desc>Speed 2.2 km/h Distance 0.10 km</desc>
<time>2013-07-23T12:55:38.23</time>
<name>76</name>
<sym>Dot</sym>
</trkpt>
<trkpt lat="48.884953" lon="20.134032">
<ele>1981.5</ele>
<desc>Speed 3.0 km/h Distance 0.10 km</desc>
<time>2013-07-23T12:55:40.31</time>
<name>77</name>
<sym>Dot</sym>
</trkpt>
<trkpt lat="48.884962" lon="20.134025">
<ele>1982.5</ele>
<desc>Speed 3.6 km/h Distance 0.11 km</desc>
<time>2013-07-23T12:55:41.21</time>
<name>78</name>
<sym>Dot</sym>
</trkpt>
<trkpt lat="48.884968" lon="20.134000">
<ele>1981.0</ele>
<desc>Speed 2.7 km/h Distance 0.11 km</desc>
<time>2013-07-23T12:55:44.21</time>
<name>79</name>
<sym>Dot</sym>
</trkpt>
<trkpt lat="48.884972" lon="20.133985">
<ele>1981.0</ele>
<desc>Speed 2.4 km/h Distance 0.11 km</desc>
<time>2013-07-23T12:55:46.21</time>
<name>80</name>
<sym>Dot</sym>
</trkpt>
<trkpt lat="48.884973" lon="20.133965">
<ele>1981.0</ele>
<desc>Speed 2.8 km/h Distance 0.11 km</desc>
<time>2013-07-23T12:55:48.20</time>
<name>81</name>
<sym>Dot</sym>
</trkpt>
<trkpt lat="48.884975" lon="20.133953">
<ele>1980.5</ele>
<desc>Speed 2.9 km/h Distance 0.11 km</desc>
<time>2013-07-23T12:55:49.20</time>
<name>82</name>
<sym>Dot</sym>
</trkpt>
<trkpt lat="48.884980" lon="20.133940">
<ele>1979.5</ele>
<desc>Speed 3.6 km/h Distance 0.11 km</desc>
<time>2013-07-23T12:55:50.20</time>
<name>83</name>
<sym>Dot</sym>
</trkpt>
<trkpt lat="48.884985" lon="20.133930">
<ele>1979.0</ele>
<desc>Speed 2.9 km/h Distance 0.11 km</desc>
<time>2013-07-23T12:55:51.28</time>
<name>84</name>
<sym>Dot</sym>
</trkpt>
<trkpt lat="48.884987" lon="20.133913">
<ele>1979.0</ele>
<desc>Speed 4.1 km/h Distance 0.11 km</desc>
<time>2013-07-23T12:55:52.19</time>
<name>85</name>
<sym>Dot</sym>
</trkpt>
<trkpt lat="48.884988" lon="20.133897">
<ele>1979.0</ele>
<desc>Speed 3.1 km/h Distance 0.12 km</desc>
<time>2013-07-23T12:55:54.18</time>
<name>86</name>
<sym>Dot</sym>
</trkpt>
<trkpt lat="48.884988" lon="20.133885">
<ele>1979.0</ele>
<desc>Speed 3.0 km/h Distance 0.12 km</desc>
<time>2013-07-23T12:55:55.18</time>
<name>87</name>
<sym>Dot</sym>
</trkpt>
<trkpt lat="48.884988" lon="20.133875">
<ele>1979.5</ele>
<desc>Speed 2.6 km/h Distance 0.12 km</desc>
<time>2013-07-23T12:55:56.16</time>
<name>88</name>
<sym>Dot</sym>
</trkpt>
<trkpt lat="48.884990" lon="20.133867">
<ele>1980.0</ele>
<desc>Speed 2.7 km/h Distance 0.12 km</desc>
<time>2013-07-23T12:55:57.17</time>
<name>89</name>
<sym>Dot</sym>
</trkpt>
<trkpt lat="48.884992" lon="20.133857">
<ele>1979.5</ele>
<desc>Speed 2.2 km/h Distance 0.12 km</desc>
<time>2013-07-23T12:55:58.16</time>
<name>90</name>
<sym>Dot</sym>
</trkpt>
<trkpt lat="48.884985" lon="20.133840">
<ele>1979.0</ele>
<desc>Speed 3.2 km/h Distance 0.12 km</desc>
<time>2013-07-23T12:56:00.15</time>
<name>91</name>
<sym>Dot</sym>
</trkpt>
<trkpt lat="48.884983" lon="20.133827">
<ele>1979.0</ele>
<desc>Speed 3.1 km/h Distance 0.12 km</desc>
<time>2013-07-23T12:56:01.15</time>
<name>92</name>
<sym>Dot</sym>
</trkpt>
<trkpt lat="48.884987" lon="20.133812">
<ele>1979.0</ele>
<desc>Speed 4.0 km/h Distance 0.12 km</desc>
<time>2013-07-23T12:56:02.14</time>
<name>93</name>
<sym>Dot</sym>
</trkpt>
<trkpt lat="48.884993" lon="20.133797">
<ele>1978.5</ele>
<desc>Speed 3.8 km/h Distance 0.12 km</desc>
<time>2013-07-23T12:56:03.14</time>
<name>94</name>
<sym>Dot</sym>
</trkpt>
<trkpt lat="48.884998" lon="20.133782">
<ele>1978.5</ele>
<desc>Speed 4.0 km/h Distance 0.12 km</desc>
<time>2013-07-23T12:56:04.14</time>
<name>95</name>
<sym>Dot</sym>
</trkpt>
<trkpt lat="48.885002" lon="20.133767">
<ele>1978.0</ele>
<desc>Speed 3.4 km/h Distance 0.13 km</desc>
<time>2013-07-23T12:56:05.13</time>
<name>96</name>
<sym>Dot</sym>
</trkpt>
<trkpt lat="48.885005" lon="20.133755">
<ele>1978.0</ele>
<desc>Speed 3.0 km/h Distance 0.13 km</desc>
<time>2013-07-23T12:56:06.13</time>
<name>97</name>
<sym>Dot</sym>
</trkpt>
<trkpt lat="48.885008" lon="20.133742">
<ele>1977.5</ele>
<desc>Speed 3.6 km/h Distance 0.13 km</desc>
<time>2013-07-23T12:56:07.21</time>
<name>98</name>
<sym>Dot</sym>
</trkpt>
<trkpt lat="48.885012" lon="20.133727">
<ele>1977.0</ele>
<desc>Speed 3.9 km/h Distance 0.13 km</desc>
<time>2013-07-23T12:56:08.12</time>
<name>99</name>
<sym>Dot</sym>
</trkpt>
<trkpt lat="48.885017" lon="20.133712">
<ele>1976.5</ele>
<desc>Speed 4.5 km/h Distance 0.13 km</desc>
<time>2013-07-23T12:56:09.12</time>
<name>100</name>
<sym>Dot</sym>
</trkpt>
<trkpt lat="48.885022" lon="20.133695">
<ele>1976.5</ele>
<desc>Speed 5.2 km/h Distance 0.13 km</desc>
<time>2013-07-23T12:56:10.10</time>
<name>101</name>
<sym>Dot</sym>
</trkpt>
<trkpt lat="48.885025" lon="20.133682">
<ele>1976.5</ele>
<desc>Speed 3.9 km/h Distance 0.13 km</desc>
<time>2013-07-23T12:56:11.10</time>
<name>102</name>
<sym>Dot</sym>
</trkpt>
<trkpt lat="48.885028" lon="20.133670">
<ele>1976.5</ele>
<desc>Speed 3.6 km/h Distance 0.13 km</desc>
<time>2013-07-23T12:56:12.09</time>
<name>103</name>
<sym>Dot</sym>
</trkpt>
<trkpt lat="48.885030" lon="20.133657">
<ele>1976.5</ele>
<desc>Speed 3.3 km/h Distance 0.13 km</desc>
<time>2013-07-23T12:56:13.83</time>
<name>104</name>
<sym>Dot</sym>
</trkpt>
<trkpt lat="48.885038" lon="20.133638">
<ele>1975.5</ele>
<desc>Speed 3.1 km/h Distance 0.14 km</desc>
<time>2013-07-23T12:56:15.43</time>
<name>105</name>
<sym>Dot</sym>
</trkpt>
<trkpt lat="48.885042" lon="20.133630">
<ele>1975.5</ele>
<desc>Speed 2.8 km/h Distance 0.14 km</desc>
<time>2013-07-23T12:56:16.07</time>
<name>106</name>
<sym>Dot</sym>
</trkpt>
<trkpt lat="48.885047" lon="20.133622">
<ele>1975.5</ele>
<desc>Speed 3.1 km/h Distance 0.14 km</desc>
<time>2013-07-23T12:56:17.07</time>
<name>107</name>
<sym>Dot</sym>
</trkpt>
<trkpt lat="48.885052" lon="20.133615">
<ele>1975.5</ele>
<desc>Speed 2.8 km/h Distance 0.14 km</desc>
<time>2013-07-23T12:56:18.06</time>
<name>108</name>
<sym>Dot</sym>
</trkpt>
<trkpt lat="48.885057" lon="20.133608">
<ele>1975.5</ele>
<desc>Speed 3.3 km/h Distance 0.14 km</desc>
<time>2013-07-23T12:56:19.05</time>
<name>109</name>
<sym>Dot</sym>
</trkpt>
<trkpt lat="48.885062" lon="20.133603">
<ele>1975.0</ele>
<desc>Speed 2.7 km/h Distance 0.14 km</desc>
<time>2013-07-23T12:56:20.04</time>
<name>110</name>
<sym>Dot</sym>
</trkpt>
<trkpt lat="48.885067" lon="20.133597">
<ele>1975.0</ele>
<desc>Speed 2.8 km/h Distance 0.14 km</desc>
<time>2013-07-23T12:56:21.21</time>
<name>111</name>
<sym>Dot</sym>
</trkpt>
<trkpt lat="48.885075" lon="20.133588">
<ele>1974.0</ele>
<desc>Speed 4.0 km/h Distance 0.14 km</desc>
<time>2013-07-23T12:56:22.12</time>
<name>112</name>
<sym>Dot</sym>
</trkpt>
<trkpt lat="48.885080" lon="20.133582">
<ele>1973.5</ele>
<desc>Speed 3.4 km/h Distance 0.14 km</desc>
<time>2013-07-23T12:56:23.03</time>
<name>113</name>
<sym>Dot</sym>
</trkpt>
<trkpt lat="48.885085" lon="20.133570">
<ele>1972.5</ele>
<desc>Speed 3.5 km/h Distance 0.14 km</desc>
<time>2013-07-23T12:56:24.02</time>
<name>114</name>
<sym>Dot</sym>
</trkpt>
<trkpt lat="48.885083" lon="20.133557">
<ele>1972.0</ele>
<desc>Speed 3.1 km/h Distance 0.14 km</desc>
<time>2013-07-23T12:56:25.02</time>
<name>115</name>
<sym>Dot</sym>
</trkpt>
<trkpt lat="48.885080" lon="20.133550">
<ele>1971.5</ele>
<desc>Speed 2.2 km/h Distance 0.15 km</desc>
<time>2013-07-23T12:56:26.02</time>
<name>116</name>
<sym>Dot</sym>
</trkpt>
<trkpt lat="48.885083" lon="20.133542">
<ele>1971.5</ele>
<desc>Speed 3.1 km/h Distance 0.15 km</desc>
<time>2013-07-23T12:56:27.02</time>
<name>117</name>
<sym>Dot</sym>
</trkpt>
<trkpt lat="48.885087" lon="20.133528">
<ele>1971.5</ele>
<desc>Speed 3.9 km/h Distance 0.15 km</desc>
<time>2013-07-23T12:56:28.02</time>
<name>118</name>
<sym>Dot</sym>
</trkpt>
<trkpt lat="48.885092" lon="20.133515">
<ele>1971.0</ele>
<desc>Speed 3.9 km/h Distance 0.15 km</desc>
<time>2013-07-23T12:56:29.02</time>
<name>119</name>
<sym>Dot</sym>
</trkpt>
<trkpt lat="48.885097" lon="20.133503">
<ele>1970.5</ele>
<desc>Speed 4.1 km/h Distance 0.15 km</desc>
<time>2013-07-23T12:56:30.01</time>
<name>120</name>
<sym>Dot</sym>
</trkpt>
<trkpt lat="48.885100" lon="20.133490">
<ele>1970.0</ele>
<desc>Speed 3.6 km/h Distance 0.15 km</desc>
<time>2013-07-23T12:56:31.08</time>
<name>121</name>
<sym>Dot</sym>
</trkpt>
<trkpt lat="48.885107" lon="20.133480">
<ele>1970.0</ele>
<desc>Speed 3.5 km/h Distance 0.15 km</desc>
<time>2013-07-23T12:56:32.00</time>
<name>122</name>
<sym>Dot</sym>
</trkpt>
<trkpt lat="48.885112" lon="20.133468">
<ele>1969.5</ele>
<desc>Speed 3.7 km/h Distance 0.15 km</desc>
<time>2013-07-23T12:56:33.00</time>
<name>123</name>
<sym>Dot</sym>
</trkpt>
<trkpt lat="48.885117" lon="20.133457">
<ele>1969.0</ele>
<desc>Speed 4.0 km/h Distance 0.15 km</desc>
<time>2013-07-23T12:56:33.99</time>
<name>124</name>
<sym>Dot</sym>
</trkpt>
<trkpt lat="48.885120" lon="20.133450">
<ele>1968.5</ele>
<desc>Speed 2.4 km/h Distance 0.15 km</desc>
<time>2013-07-23T12:56:34.99</time>
<name>125</name>
<sym>Dot</sym>
</trkpt>
<trkpt lat="48.885125" lon="20.133443">
<ele>1968.0</ele>
<desc>Speed 3.1 km/h Distance 0.15 km</desc>
<time>2013-07-23T12:56:35.99</time>
<name>126</name>
<sym>Dot</sym>
</trkpt>
<trkpt lat="48.885133" lon="20.133437">
<ele>1968.0</ele>
<desc>Speed 4.0 km/h Distance 0.16 km</desc>
<time>2013-07-23T12:56:36.98</time>
<name>127</name>
<sym>Dot</sym>
</trkpt>
<trkpt lat="48.885140" lon="20.133433">
<ele>1968.0</ele>
<desc>Speed 3.1 km/h Distance 0.16 km</desc>
<time>2013-07-23T12:56:37.97</time>
<name>128</name>
<sym>Dot</sym>
</trkpt>
<trkpt lat="48.885147" lon="20.133428">
<ele>1967.5</ele>
<desc>Speed 3.6 km/h Distance 0.16 km</desc>
<time>2013-07-23T12:56:38.97</time>
<name>129</name>
<sym>Dot</sym>
</trkpt>
<trkpt lat="48.885155" lon="20.133420">
<ele>1967.0</ele>
<desc>Speed 4.0 km/h Distance 0.16 km</desc>
<time>2013-07-23T12:56:39.97</time>
<name>130</name>
<sym>Dot</sym>
</trkpt>
<trkpt lat="48.885162" lon="20.133405">
<ele>1967.0</ele>
<desc>Speed 4.5 km/h Distance 0.16 km</desc>
<time>2013-07-23T12:56:40.97</time>
<name>131</name>
<sym>Dot</sym>
</trkpt>
<trkpt lat="48.885167" lon="20.133392">
<ele>1967.0</ele>
<desc>Speed 4.0 km/h Distance 0.16 km</desc>
<time>2013-07-23T12:56:41.97</time>
<name>132</name>
<sym>Dot</sym>
</trkpt>
<trkpt lat="48.885168" lon="20.133382">
<ele>1966.5</ele>
<desc>Speed 3.1 km/h Distance 0.16 km</desc>
<time>2013-07-23T12:56:42.97</time>
<name>133</name>
<sym>Dot</sym>
</trkpt>
<trkpt lat="48.885187" lon="20.133363">
<ele>1965.5</ele>
<desc>Speed 4.2 km/h Distance 0.16 km</desc>
<time>2013-07-23T12:56:49.96</time>
<name>134</name>
<sym>Dot</sym>
</trkpt>
<trkpt lat="48.885197" lon="20.133338">
<ele>1965.5</ele>
<desc>Speed 7.8 km/h Distance 0.17 km</desc>
<time>2013-07-23T12:56:50.96</time>
<name>135</name>
<sym>Dot</sym>
</trkpt>
<trkpt lat="48.885213" lon="20.133307">
<ele>1965.5</ele>
<desc>Speed 10.7 km/h Distance 0.17 km</desc>
<time>2013-07-23T12:56:51.96</time>
<name>136</name>
<sym>Dot</sym>
</trkpt>
<trkpt lat="48.885232" lon="20.133263">
<ele>1965.5</ele>
<desc>Speed 13.3 km/h Distance 0.17 km</desc>
<time>2013-07-23T12:56:52.95</time>
<name>137</name>
<sym>Dot</sym>
</trkpt>
<trkpt lat="48.885240" lon="20.133220">
<ele>1965.0</ele>
<desc>Speed 11.9 km/h Distance 0.18 km</desc>
<time>2013-07-23T12:56:53.94</time>
<name>138</name>
<sym>Dot</sym>
</trkpt>
<trkpt lat="48.885245" lon="20.133163">
<ele>1965.0</ele>
<desc>Speed 14.9 km/h Distance 0.18 km</desc>
<time>2013-07-23T12:56:54.93</time>
<name>139</name>
<sym>Dot</sym>
</trkpt>
<trkpt lat="48.885253" lon="20.133102">
<ele>1965.0</ele>
<desc>Speed 16.9 km/h Distance 0.18 km</desc>
<time>2013-07-23T12:56:55.93</time>
<name>140</name>
<sym>Dot</sym>
</trkpt>
<trkpt lat="48.885265" lon="20.133037">
<ele>1965.0</ele>
<desc>Speed 17.7 km/h Distance 0.19 km</desc>
<time>2013-07-23T12:56:56.93</time>
<name>141</name>
<sym>Dot</sym>
</trkpt>
<trkpt lat="48.885278" lon="20.132965">
<ele>1964.5</ele>
<desc>Speed 20.1 km/h Distance 0.20 km</desc>
<time>2013-07-23T12:56:57.92</time>
<name>142</name>
<sym>Dot</sym>
</trkpt>
<trkpt lat="48.885292" lon="20.132883">
<ele>1963.5</ele>
<desc>Speed 21.9 km/h Distance 0.20 km</desc>
<time>2013-07-23T12:56:58.92</time>
<name>143</name>
<sym>Dot</sym>
</trkpt>
<trkpt lat="48.885307" lon="20.132802">
<ele>1963.0</ele>
<desc>Speed 22.4 km/h Distance 0.21 km</desc>
<time>2013-07-23T12:56:59.98</time>
<name>144</name>
<sym>Dot</sym>
</trkpt>
<trkpt lat="48.885318" lon="20.132715">
<ele>1962.5</ele>
<desc>Speed 23.0 km/h Distance 0.21 km</desc>
<time>2013-07-23T12:57:00.91</time>
<name>145</name>
<sym>Dot</sym>
</trkpt>
<trkpt lat="48.885330" lon="20.132630">
<ele>1962.0</ele>
<desc>Speed 23.0 km/h Distance 0.22 km</desc>
<time>2013-07-23T12:57:01.90</time>
<name>146</name>
<sym>Dot</sym>
</trkpt>
<trkpt lat="48.885340" lon="20.132547">
<ele>1961.5</ele>
<desc>Speed 22.4 km/h Distance 0.23 km</desc>
<time>2013-07-23T12:57:02.89</time>
<name>147</name>
<sym>Dot</sym>
</trkpt>
<trkpt lat="48.885353" lon="20.132470">
<ele>1961.5</ele>
<desc>Speed 20.8 km/h Distance 0.23 km</desc>
<time>2013-07-23T12:57:03.89</time>
<name>148</name>
<sym>Dot</sym>
</trkpt>
<trkpt lat="48.885367" lon="20.132398">
<ele>1961.5</ele>
<desc>Speed 19.5 km/h Distance 0.24 km</desc>
<time>2013-07-23T12:57:04.89</time>
<name>149</name>
<sym>Dot</sym>
</trkpt>
<trkpt lat="48.885377" lon="20.132333">
<ele>1961.5</ele>
<desc>Speed 17.6 km/h Distance 0.24 km</desc>
<time>2013-07-23T12:57:05.89</time>
<name>150</name>
<sym>Dot</sym>
</trkpt>
<trkpt lat="48.885385" lon="20.132270">
<ele>1961.0</ele>
<desc>Speed 17.0 km/h Distance 0.25 km</desc>
<time>2013-07-23T12:57:06.88</time>
<name>151</name>
<sym>Dot</sym>
</trkpt>
<trkpt lat="48.885392" lon="20.132210">
<ele>1960.5</ele>
<desc>Speed 15.9 km/h Distance 0.25 km</desc>
<time>2013-07-23T12:57:07.88</time>
<name>152</name>
<sym>Dot</sym>
</trkpt>
<trkpt lat="48.885398" lon="20.132152">
<ele>1960.0</ele>
<desc>Speed 15.3 km/h Distance 0.26 km</desc>
<time>2013-07-23T12:57:08.88</time>
<name>153</name>
<sym>Dot</sym>
</trkpt>
<trkpt lat="48.885405" lon="20.132097">
<ele>1960.0</ele>
<desc>Speed 14.4 km/h Distance 0.26 km</desc>
<time>2013-07-23T12:57:09.87</time>
<name>154</name>
<sym>Dot</sym>
</trkpt>
<trkpt lat="48.885412" lon="20.132038">
<ele>1960.0</ele>
<desc>Speed 15.2 km/h Distance 0.26 km</desc>
<time>2013-07-23T12:57:10.87</time>
<name>155</name>
<sym>Dot</sym>
</trkpt>
<trkpt lat="48.885415" lon="20.131977">
<ele>1960.0</ele>
<desc>Speed 15.9 km/h Distance 0.27 km</desc>
<time>2013-07-23T12:57:11.86</time>
<name>156</name>
<sym>Dot</sym>
</trkpt>
<trkpt lat="48.885415" lon="20.131915">
<ele>1960.0</ele>
<desc>Speed 15.8 km/h Distance 0.27 km</desc>
<time>2013-07-23T12:57:12.86</time>
<name>157</name>
<sym>Dot</sym>
</trkpt>
<trkpt lat="48.885412" lon="20.131857">
<ele>1960.5</ele>
<desc>Speed 14.4 km/h Distance 0.28 km</desc>
<time>2013-07-23T12:57:13.86</time>
<name>158</name>
<sym>Dot</sym>
</trkpt>
<trkpt lat="48.885407" lon="20.131803">
<ele>1960.5</ele>
<desc>Speed 13.2 km/h Distance 0.28 km</desc>
<time>2013-07-23T12:57:14.85</time>
<name>159</name>
<sym>Dot</sym>
</trkpt>
<trkpt lat="48.885405" lon="20.131755">
<ele>1961.0</ele>
<desc>Speed 12.5 km/h Distance 0.29 km</desc>
<time>2013-07-23T12:57:15.85</time>
<name>160</name>
<sym>Dot</sym>
</trkpt>
<trkpt lat="48.885405" lon="20.131703">
<ele>1961.0</ele>
<desc>Speed 13.6 km/h Distance 0.29 km</desc>
<time>2013-07-23T12:57:16.84</time>
<name>161</name>
<sym>Dot</sym>
</trkpt>
<trkpt lat="48.885407" lon="20.131648">
<ele>1960.5</ele>
<desc>Speed 14.5 km/h Distance 0.29 km</desc>
<time>2013-07-23T12:57:17.84</time>
<name>162</name>
<sym>Dot</sym>
</trkpt>
<trkpt lat="48.885412" lon="20.131595">
<ele>1960.5</ele>
<desc>Speed 14.1 km/h Distance 0.30 km</desc>
<time>2013-07-23T12:57:18.83</time>
<name>163</name>
<sym>Dot</sym>
</trkpt>
<trkpt lat="48.885413" lon="20.131543">
<ele>1961.0</ele>
<desc>Speed 13.6 km/h Distance 0.30 km</desc>
<time>2013-07-23T12:57:19.82</time>
<name>164</name>
<sym>Dot</sym>
</trkpt>
<trkpt lat="48.885417" lon="20.131492">
<ele>1961.0</ele>
<desc>Speed 13.6 km/h Distance 0.31 km</desc>
<time>2013-07-23T12:57:20.82</time>
<name>165</name>
<sym>Dot</sym>
</trkpt>
<trkpt lat="48.885418" lon="20.131442">
<ele>1960.5</ele>
<desc>Speed 13.4 km/h Distance 0.31 km</desc>
<time>2013-07-23T12:57:21.82</time>
<name>166</name>
<sym>Dot</sym>
</trkpt>
<trkpt lat="48.885422" lon="20.131390">
<ele>1960.5</ele>
<desc>Speed 13.6 km/h Distance 0.31 km</desc>
<time>2013-07-23T12:57:22.81</time>
<name>167</name>
<sym>Dot</sym>
</trkpt>
<trkpt lat="48.885425" lon="20.131343">
<ele>1960.0</ele>
<desc>Speed 12.3 km/h Distance 0.32 km</desc>
<time>2013-07-23T12:57:23.94</time>
<name>168</name>
<sym>Dot</sym>
</trkpt>
<trkpt lat="48.885427" lon="20.131310">
<ele>1960.0</ele>
<desc>Speed 8.9 km/h Distance 0.32 km</desc>
<time>2013-07-23T12:57:24.80</time>
<name>169</name>
<sym>Dot</sym>
</trkpt>
<trkpt lat="48.885438" lon="20.131320">
<ele>1960.0</ele>
<desc>Speed 5.8 km/h Distance 0.32 km</desc>
<time>2013-07-23T12:57:25.79</time>
<name>170</name>
<sym>Dot</sym>
</trkpt>
<trkpt lat="48.885440" lon="20.131298">
<ele>1960.0</ele>
<desc>Speed 3.6 km/h Distance 0.32 km</desc>
<time>2013-07-23T12:57:30.79</time>
<name>171</name>
<sym>Dot</sym>
</trkpt>
<trkpt lat="48.885440" lon="20.131285">
<ele>1959.5</ele>
<desc>Speed 3.5 km/h Distance 0.32 km</desc>
<time>2013-07-23T12:57:31.79</time>
<name>172</name>
<sym>Dot</sym>
</trkpt>
<trkpt lat="48.885440" lon="20.131272">
<ele>1959.5</ele>
<desc>Speed 3.5 km/h Distance 0.32 km</desc>
<time>2013-07-23T12:57:32.78</time>
<name>173</name>
<sym>Dot</sym>
</trkpt>
<trkpt lat="48.885440" lon="20.131260">
<ele>1959.5</ele>
<desc>Speed 2.9 km/h Distance 0.32 km</desc>
<time>2013-07-23T12:57:33.78</time>
<name>174</name>
<sym>Dot</sym>
</trkpt>
<trkpt lat="48.885440" lon="20.131243">
<ele>1959.5</ele>
<desc>Speed 4.4 km/h Distance 0.33 km</desc>
<time>2013-07-23T12:57:34.77</time>
<name>175</name>
<sym>Dot</sym>
</trkpt>
<trkpt lat="48.885442" lon="20.131230">
<ele>1959.5</ele>
<desc>Speed 3.6 km/h Distance 0.33 km</desc>
<time>2013-07-23T12:57:35.77</time>
<name>176</name>
<sym>Dot</sym>
</trkpt>
<trkpt lat="48.885440" lon="20.131217">
<ele>1959.5</ele>
<desc>Speed 3.2 km/h Distance 0.33 km</desc>
<time>2013-07-23T12:57:36.77</time>
<name>177</name>
<sym>Dot</sym>
</trkpt>
<trkpt lat="48.885438" lon="20.131198">
<ele>1959.0</ele>
<desc>Speed 5.0 km/h Distance 0.33 km</desc>
<time>2013-07-23T12:57:37.76</time>
<name>178</name>
<sym>Dot</sym>
</trkpt>
<trkpt lat="48.885435" lon="20.131180">
<ele>1959.0</ele>
<desc>Speed 5.0 km/h Distance 0.33 km</desc>
<time>2013-07-23T12:57:38.76</time>
<name>179</name>
<sym>Dot</sym>
</trkpt>
<trkpt lat="48.885437" lon="20.131167">
<ele>1959.0</ele>
<desc>Speed 3.1 km/h Distance 0.33 km</desc>
<time>2013-07-23T12:57:39.76</time>
<name>180</name>
<sym>Dot</sym>
</trkpt>
<trkpt lat="48.885427" lon="20.131162">
<ele>1958.5</ele>
<desc>Speed 2.4 km/h Distance 0.33 km</desc>
<time>2013-07-23T12:57:47.76</time>
<name>181</name>
<sym>Dot</sym>
</trkpt>
<trkpt lat="48.885413" lon="20.131113">
<ele>1955.5</ele>
<desc>Speed 2.7 km/h Distance 0.34 km</desc>
<time>2013-07-23T12:58:33.76</time>
<name>182</name>
<sym>Dot</sym>
</trkpt>
<trkpt lat="48.885413" lon="20.131097">
<ele>1956.0</ele>
<desc>Speed 4.5 km/h Distance 0.34 km</desc>
<time>2013-07-23T12:58:34.76</time>
<name>183</name>
<sym>Dot</sym>
</trkpt>
<trkpt lat="48.885413" lon="20.131067">
<ele>1955.5</ele>
<desc>Speed 7.8 km/h Distance 0.34 km</desc>
<time>2013-07-23T12:58:35.75</time>
<name>184</name>
<sym>Dot</sym>
</trkpt>
<trkpt lat="48.885415" lon="20.131038">
<ele>1955.0</ele>
<desc>Speed 7.9 km/h Distance 0.34 km</desc>
<time>2013-07-23T12:58:36.75</time>
<name>185</name>
<sym>Dot</sym>
</trkpt>
<trkpt lat="48.885422" lon="20.131018">
<ele>1955.0</ele>
<desc>Speed 5.9 km/h Distance 0.34 km</desc>
<time>2013-07-23T12:58:37.75</time>
<name>186</name>
<sym>Dot</sym>
</trkpt>
<trkpt lat="48.885428" lon="20.130995">
<ele>1955.0</ele>
<desc>Speed 6.9 km/h Distance 0.35 km</desc>
<time>2013-07-23T12:58:38.74</time>
<name>187</name>
<sym>Dot</sym>
</trkpt>
<trkpt lat="48.885432" lon="20.130975">
<ele>1955.0</ele>
<desc>Speed 5.7 km/h Distance 0.35 km</desc>
<time>2013-07-23T12:58:39.74</time>
<name>188</name>
<sym>Dot</sym>
</trkpt>
<trkpt lat="48.885432" lon="20.130953">
<ele>1954.0</ele>
<desc>Speed 5.5 km/h Distance 0.35 km</desc>
<time>2013-07-23T12:58:40.76</time>
<name>189</name>
<sym>Dot</sym>
</trkpt>
<trkpt lat="48.885432" lon="20.130933">
<ele>1953.5</ele>
<desc>Speed 5.5 km/h Distance 0.35 km</desc>
<time>2013-07-23T12:58:41.73</time>
<name>190</name>
<sym>Dot</sym>
</trkpt>
<trkpt lat="48.885433" lon="20.130912">
<ele>1953.5</ele>
<desc>Speed 5.6 km/h Distance 0.35 km</desc>
<time>2013-07-23T12:58:42.73</time>
<name>191</name>
<sym>Dot</sym>
</trkpt>
<trkpt lat="48.885437" lon="20.130888">
<ele>1953.5</ele>
<desc>Speed 5.8 km/h Distance 0.35 km</desc>
<time>2013-07-23T12:58:43.72</time>
<name>192</name>
<sym>Dot</sym>
</trkpt>
<trkpt lat="48.885437" lon="20.130862">
<ele>1953.5</ele>
<desc>Speed 7.0 km/h Distance 0.36 km</desc>
<time>2013-07-23T12:58:44.73</time>
<name>193</name>
<sym>Dot</sym>
</trkpt>
<trkpt lat="48.885437" lon="20.130833">
<ele>1953.0</ele>
<desc>Speed 7.2 km/h Distance 0.36 km</desc>
<time>2013-07-23T12:58:45.71</time>
<name>194</name>
<sym>Dot</sym>
</trkpt>
<trkpt lat="48.885437" lon="20.130803">
<ele>1953.0</ele>
<desc>Speed 7.5 km/h Distance 0.36 km</desc>
<time>2013-07-23T12:58:46.70</time>
<name>195</name>
<sym>Dot</sym>
</trkpt>
<trkpt lat="48.885435" lon="20.130772">
<ele>1952.5</ele>
<desc>Speed 7.9 km/h Distance 0.36 km</desc>
<time>2013-07-23T12:58:47.70</time>
<name>196</name>
<sym>Dot</sym>
</trkpt>
<trkpt lat="48.885435" lon="20.130730">
<ele>1952.5</ele>
<desc>Speed 11.0 km/h Distance 0.36 km</desc>
<time>2013-07-23T12:58:48.69</time>
<name>197</name>
<sym>Dot</sym>
</trkpt>
<trkpt lat="48.885427" lon="20.130682">
<ele>1952.0</ele>
<desc>Speed 12.9 km/h Distance 0.37 km</desc>
<time>2013-07-23T12:58:49.69</time>
<name>198</name>
<sym>Dot</sym>
</trkpt>
<trkpt lat="48.885423" lon="20.130652">
<ele>1952.0</ele>
<desc>Speed 8.1 km/h Distance 0.37 km</desc>
<time>2013-07-23T12:58:50.69</time>
<name>199</name>
<sym>Dot</sym>
</trkpt>
<trkpt lat="48.885427" lon="20.130632">
<ele>1952.0</ele>
<desc>Speed 5.1 km/h Distance 0.37 km</desc>
<time>2013-07-23T12:58:51.69</time>
<name>200</name>
<sym>Dot</sym>
</trkpt>
<trkpt lat="48.885430" lon="20.130608">
<ele>1951.5</ele>
<desc>Speed 6.2 km/h Distance 0.37 km</desc>
<time>2013-07-23T12:58:52.68</time>
<name>201</name>
<sym>Dot</sym>
</trkpt>
<trkpt lat="48.885432" lon="20.130582">
<ele>1951.5</ele>
<desc>Speed 6.7 km/h Distance 0.38 km</desc>
<time>2013-07-23T12:58:53.68</time>
<name>202</name>
<sym>Dot</sym>
</trkpt>
<trkpt lat="48.885432" lon="20.130547">
<ele>1951.0</ele>
<desc>Speed 9.0 km/h Distance 0.38 km</desc>
<time>2013-07-23T12:58:54.83</time>
<name>203</name>
<sym>Dot</sym>
</trkpt>
<trkpt lat="48.885432" lon="20.130510">
<ele>1951.0</ele>
<desc>Speed 9.6 km/h Distance 0.38 km</desc>
<time>2013-07-23T12:58:55.94</time>
<name>204</name>
<sym>Dot</sym>
</trkpt>
<trkpt lat="48.885433" lon="20.130482">
<ele>1951.0</ele>
<desc>Speed 7.5 km/h Distance 0.38 km</desc>
<time>2013-07-23T12:58:56.67</time>
<name>205</name>
<sym>Dot</sym>
</trkpt>
<trkpt lat="48.885437" lon="20.130453">
<ele>1950.5</ele>
<desc>Speed 7.6 km/h Distance 0.39 km</desc>
<time>2013-07-23T12:58:57.66</time>
<name>206</name>
<sym>Dot</sym>
</trkpt>
<trkpt lat="48.885440" lon="20.130428">
<ele>1950.5</ele>
<desc>Speed 6.7 km/h Distance 0.39 km</desc>
<time>2013-07-23T12:58:58.65</time>
<name>207</name>
<sym>Dot</sym>
</trkpt>
<trkpt lat="48.885443" lon="20.130398">
<ele>1950.0</ele>
<desc>Speed 8.1 km/h Distance 0.39 km</desc>
<time>2013-07-23T12:58:59.65</time>
<name>208</name>
<sym>Dot</sym>
</trkpt>
<trkpt lat="48.885443" lon="20.130367">
<ele>1950.0</ele>
<desc>Speed 8.5 km/h Distance 0.39 km</desc>
<time>2013-07-23T12:59:00.64</time>
<name>209</name>
<sym>Dot</sym>
</trkpt>
<trkpt lat="48.885443" lon="20.130335">
<ele>1950.0</ele>
<desc>Speed 7.9 km/h Distance 0.39 km</desc>
<time>2013-07-23T12:59:01.82</time>
<name>210</name>
<sym>Dot</sym>
</trkpt>
<trkpt lat="48.885445" lon="20.130313">
<ele>1950.0</ele>
<desc>Speed 5.9 km/h Distance 0.40 km</desc>
<time>2013-07-23T12:59:02.63</time>
<name>211</name>
<sym>Dot</sym>
</trkpt>
<trkpt lat="48.885450" lon="20.130293">
<ele>1949.5</ele>
<desc>Speed 5.3 km/h Distance 0.40 km</desc>
<time>2013-07-23T12:59:03.64</time>
<name>212</name>
<sym>Dot</sym>
</trkpt>
<trkpt lat="48.885455" lon="20.130275">
<ele>1949.0</ele>
<desc>Speed 4.8 km/h Distance 0.40 km</desc>
<time>2013-07-23T12:59:04.62</time>
<name>213</name>
<sym>Dot</sym>
</trkpt>
<trkpt lat="48.885457" lon="20.130260">
<ele>1949.0</ele>
<desc>Speed 3.6 km/h Distance 0.40 km</desc>
<time>2013-07-23T12:59:05.62</time>
<name>214</name>
<sym>Dot</sym>
</trkpt>
<trkpt lat="48.885458" lon="20.130253">
<ele>1949.0</ele>
<desc>Speed 2.2 km/h Distance 0.40 km</desc>
<time>2013-07-23T12:59:06.62</time>
<name>215</name>
<sym>Dot</sym>
</trkpt>
<trkpt lat="48.885463" lon="20.130227">
<ele>1947.0</ele>
<desc>Speed 2.2 km/h Distance 0.40 km</desc>
<time>2013-07-23T12:59:10.61</time>
<name>216</name>
<sym>Dot</sym>
</trkpt>
<trkpt lat="48.885460" lon="20.130217">
<ele>1946.5</ele>
<desc>Speed 2.2 km/h Distance 0.40 km</desc>
<time>2013-07-23T12:59:11.61</time>
<name>217</name>
<sym>Dot</sym>
</trkpt>
<trkpt lat="48.885453" lon="20.130198">
<ele>1946.5</ele>
<desc>Speed 5.4 km/h Distance 0.40 km</desc>
<time>2013-07-23T12:59:12.61</time>
<name>218</name>
<sym>Dot</sym>
</trkpt>
<trkpt lat="48.885447" lon="20.130185">
<ele>1946.5</ele>
<desc>Speed 5.4 km/h Distance 0.41 km</desc>
<time>2013-07-23T12:59:13.61</time>
<name>219</name>
<sym>Dot</sym>
</trkpt>
<trkpt lat="48.885440" lon="20.130172">
<ele>1946.0</ele>
<desc>Speed 4.4 km/h Distance 0.41 km</desc>
<time>2013-07-23T12:59:14.60</time>
<name>220</name>
<sym>Dot</sym>
</trkpt>
<trkpt lat="48.885433" lon="20.130160">
<ele>1946.0</ele>
<desc>Speed 3.8 km/h Distance 0.41 km</desc>
<time>2013-07-23T12:59:15.60</time>
<name>221</name>
<sym>Dot</sym>
</trkpt>
<trkpt lat="48.885428" lon="20.130143">
<ele>1946.0</ele>
<desc>Speed 4.5 km/h Distance 0.41 km</desc>
<time>2013-07-23T12:59:16.59</time>
<name>222</name>
<sym>Dot</sym>
</trkpt>
<trkpt lat="48.885430" lon="20.130130">
<ele>1945.0</ele>
<desc>Speed 2.9 km/h Distance 0.41 km</desc>
<time>2013-07-23T12:59:17.58</time>
<name>223</name>
<sym>Dot</sym>
</trkpt>
<trkpt lat="48.885430" lon="20.130118">
<ele>1945.0</ele>
<desc>Speed 2.9 km/h Distance 0.41 km</desc>
<time>2013-07-23T12:59:18.57</time>
<name>224</name>
<sym>Dot</sym>
</trkpt>
<trkpt lat="48.885425" lon="20.130098">
<ele>1944.5</ele>
<desc>Speed 5.9 km/h Distance 0.41 km</desc>
<time>2013-07-23T12:59:19.57</time>
<name>225</name>
<sym>Dot</sym>
</trkpt>
<trkpt lat="48.885425" lon="20.130082">
<ele>1944.5</ele>
<desc>Speed 4.1 km/h Distance 0.41 km</desc>
<time>2013-07-23T12:59:20.57</time>
<name>226</name>
<sym>Dot</sym>
</trkpt>
<trkpt lat="48.885423" lon="20.130065">
<ele>1944.0</ele>
<desc>Speed 4.9 km/h Distance 0.42 km</desc>
<time>2013-07-23T12:59:21.57</time>
<name>227</name>
<sym>Dot</sym>
</trkpt>
<trkpt lat="48.885423" lon="20.130048">
<ele>1944.0</ele>
<desc>Speed 4.9 km/h Distance 0.42 km</desc>
<time>2013-07-23T12:59:22.56</time>
<name>228</name>
<sym>Dot</sym>
</trkpt>
<trkpt lat="48.885427" lon="20.130030">
<ele>1945.0</ele>
<desc>Speed 5.0 km/h Distance 0.42 km</desc>
<time>2013-07-23T12:59:23.55</time>
<name>229</name>
<sym>Dot</sym>
</trkpt>
<trkpt lat="48.885433" lon="20.130008">
<ele>1945.0</ele>
<desc>Speed 6.0 km/h Distance 0.42 km</desc>
<time>2013-07-23T12:59:24.54</time>
<name>230</name>
<sym>Dot</sym>
</trkpt>
<trkpt lat="48.885438" lon="20.129990">
<ele>1944.5</ele>
<desc>Speed 5.6 km/h Distance 0.42 km</desc>
<time>2013-07-23T12:59:25.55</time>
<name>231</name>
<sym>Dot</sym>
</trkpt>
<trkpt lat="48.885442" lon="20.129965">
<ele>1944.5</ele>
<desc>Speed 6.3 km/h Distance 0.42 km</desc>
<time>2013-07-23T12:59:26.53</time>
<name>232</name>
<sym>Dot</sym>
</trkpt>
<trkpt lat="48.885442" lon="20.129937">
<ele>1944.0</ele>
<desc>Speed 7.4 km/h Distance 0.43 km</desc>
<time>2013-07-23T12:59:27.52</time>
<name>233</name>
<sym>Dot</sym>
</trkpt>
<trkpt lat="48.885442" lon="20.129905">
<ele>1944.5</ele>
<desc>Speed 8.0 km/h Distance 0.43 km</desc>
<time>2013-07-23T12:59:28.52</time>
<name>234</name>
<sym>Dot</sym>
</trkpt>
<trkpt lat="48.885445" lon="20.129868">
<ele>1944.0</ele>
<desc>Speed 9.3 km/h Distance 0.43 km</desc>
<time>2013-07-23T12:59:29.52</time>
<name>235</name>
<sym>Dot</sym>
</trkpt>
<trkpt lat="48.885447" lon="20.129828">
<ele>1943.5</ele>
<desc>Speed 10.0 km/h Distance 0.43 km</desc>
<time>2013-07-23T12:59:30.52</time>
<name>236</name>
<sym>Dot</sym>
</trkpt>
<trkpt lat="48.885453" lon="20.129792">
<ele>1943.5</ele>
<desc>Speed 10.1 km/h Distance 0.44 km</desc>
<time>2013-07-23T12:59:31.52</time>
<name>237</name>
<sym>Dot</sym>
</trkpt>
<trkpt lat="48.885460" lon="20.129762">
<ele>1943.5</ele>
<desc>Speed 8.1 km/h Distance 0.44 km</desc>
<time>2013-07-23T12:59:32.52</time>
<name>238</name>
<sym>Dot</sym>
</trkpt>
<trkpt lat="48.885467" lon="20.129740">
<ele>1943.5</ele>
<desc>Speed 5.9 km/h Distance 0.44 km</desc>
<time>2013-07-23T12:59:33.51</time>
<name>239</name>
<sym>Dot</sym>
</trkpt>
<trkpt lat="48.885488" lon="20.129730">
<ele>1942.5</ele>
<desc>Speed 2.7 km/h Distance 0.44 km</desc>
<time>2013-07-23T12:59:37.51</time>
<name>240</name>
<sym>Dot</sym>
</trkpt>
<trkpt lat="48.885500" lon="20.129720">
<ele>1942.0</ele>
<desc>Speed 4.9 km/h Distance 0.44 km</desc>
<time>2013-07-23T12:59:38.51</time>
<name>241</name>
<sym>Dot</sym>
</trkpt>
<trkpt lat="48.885513" lon="20.129712">
<ele>1942.5</ele>
<desc>Speed 5.2 km/h Distance 0.45 km</desc>
<time>2013-07-23T12:59:39.51</time>
<name>242</name>
<sym>Dot</sym>
</trkpt>
<trkpt lat="48.885522" lon="20.129697">
<ele>1942.5</ele>
<desc>Speed 5.5 km/h Distance 0.45 km</desc>
<time>2013-07-23T12:59:40.49</time>
<name>243</name>
<sym>Dot</sym>
</trkpt>
<trkpt lat="48.885532" lon="20.129673">
<ele>1941.5</ele>
<desc>Speed 7.2 km/h Distance 0.45 km</desc>
<time>2013-07-23T12:59:41.49</time>
<name>244</name>
<sym>Dot</sym>
</trkpt>
<trkpt lat="48.885543" lon="20.129650">
<ele>1941.5</ele>
<desc>Speed 7.5 km/h Distance 0.45 km</desc>
<time>2013-07-23T12:59:42.48</time>
<name>245</name>
<sym>Dot</sym>
</trkpt>
<trkpt lat="48.885557" lon="20.129618">
<ele>1940.5</ele>
<desc>Speed 10.1 km/h Distance 0.45 km</desc>
<time>2013-07-23T12:59:43.48</time>
<name>246</name>
<sym>Dot</sym>
</trkpt>
<trkpt lat="48.885572" lon="20.129588">
<ele>1940.5</ele>
<desc>Speed 9.9 km/h Distance 0.46 km</desc>
<time>2013-07-23T12:59:44.47</time>
<name>247</name>
<sym>Dot</sym>
</trkpt>
<trkpt lat="48.885592" lon="20.129560">
<ele>1940.0</ele>
<desc>Speed 10.5 km/h Distance 0.46 km</desc>
<time>2013-07-23T12:59:45.47</time>
<name>248</name>
<sym>Dot</sym>
</trkpt>
<trkpt lat="48.885608" lon="20.129530">
<ele>1940.0</ele>
<desc>Speed 10.0 km/h Distance 0.46 km</desc>
<time>2013-07-23T12:59:46.47</time>
<name>249</name>
<sym>Dot</sym>
</trkpt>
<trkpt lat="48.885620" lon="20.129502">
<ele>1940.0</ele>
<desc>Speed 8.9 km/h Distance 0.47 km</desc>
<time>2013-07-23T12:59:47.47</time>
<name>250</name>
<sym>Dot</sym>
</trkpt>
<trkpt lat="48.885630" lon="20.129473">
<ele>1939.5</ele>
<desc>Speed 8.6 km/h Distance 0.47 km</desc>
<time>2013-07-23T12:59:48.94</time>
<name>251</name>
<sym>Dot</sym>
</trkpt>
<trkpt lat="48.885633" lon="20.129417">
<ele>1939.5</ele>
<desc>Speed 9.5 km/h Distance 0.47 km</desc>
<time>2013-07-23T12:59:50.46</time>
<name>252</name>
<sym>Dot</sym>
</trkpt>
<trkpt lat="48.885637" lon="20.129395">
<ele>1941.0</ele>
<desc>Speed 5.2 km/h Distance 0.47 km</desc>
<time>2013-07-23T12:59:52.46</time>
<name>253</name>
<sym>Dot</sym>
</trkpt>
<trkpt lat="48.885633" lon="20.129373">
<ele>1941.0</ele>
<desc>Speed 6.3 km/h Distance 0.47 km</desc>
<time>2013-07-23T12:59:53.58</time>
<name>254</name>
<sym>Dot</sym>
</trkpt>
<trkpt lat="48.885633" lon="20.129350">
<ele>1941.5</ele>
<desc>Speed 7.5 km/h Distance 0.48 km</desc>
<time>2013-07-23T12:59:54.44</time>
<name>255</name>
<sym>Dot</sym>
</trkpt>
<trkpt lat="48.885640" lon="20.129325">
<ele>1941.5</ele>
<desc>Speed 7.8 km/h Distance 0.48 km</desc>
<time>2013-07-23T12:59:55.44</time>
<name>256</name>
<sym>Dot</sym>
</trkpt>
<trkpt lat="48.885650" lon="20.129290">
<ele>1941.5</ele>
<desc>Speed 10.6 km/h Distance 0.48 km</desc>
<time>2013-07-23T12:59:56.44</time>
<name>257</name>
<sym>Dot</sym>
</trkpt>
<trkpt lat="48.885658" lon="20.129253">
<ele>1941.5</ele>
<desc>Speed 10.4 km/h Distance 0.48 km</desc>
<time>2013-07-23T12:59:57.43</time>
<name>258</name>
<sym>Dot</sym>
</trkpt>
<trkpt lat="48.885670" lon="20.129215">
<ele>1941.5</ele>
<desc>Speed 10.8 km/h Distance 0.49 km</desc>
<time>2013-07-23T12:59:58.43</time>
<name>259</name>
<sym>Dot</sym>
</trkpt>
<trkpt lat="48.885680" lon="20.129187">
<ele>1942.5</ele>
<desc>Speed 9.6 km/h Distance 0.49 km</desc>
<time>2013-07-23T12:59:59.42</time>
<name>260</name>
<sym>Dot</sym>
</trkpt>
<trkpt lat="48.885690" lon="20.129158">
<ele>1943.0</ele>
<desc>Speed 8.7 km/h Distance 0.49 km</desc>
<time>2013-07-23T13:00:00.41</time>
<name>261</name>
<sym>Dot</sym>
</trkpt>
<trkpt lat="48.885702" lon="20.129123">
<ele>1943.0</ele>
<desc>Speed 10.9 km/h Distance 0.49 km</desc>
<time>2013-07-23T13:00:01.41</time>
<name>262</name>
<sym>Dot</sym>
</trkpt>
<trkpt lat="48.885713" lon="20.129083">
<ele>1943.0</ele>
<desc>Speed 12.4 km/h Distance 0.50 km</desc>
<time>2013-07-23T13:00:02.40</time>
<name>263</name>
<sym>Dot</sym>
</trkpt>
<trkpt lat="48.885732" lon="20.129038">
<ele>1943.0</ele>
<desc>Speed 14.2 km/h Distance 0.50 km</desc>
<time>2013-07-23T13:00:03.40</time>
<name>264</name>
<sym>Dot</sym>
</trkpt>
<trkpt lat="48.885748" lon="20.129003">
<ele>1943.5</ele>
<desc>Speed 12.6 km/h Distance 0.51 km</desc>
<time>2013-07-23T13:00:04.48</time>
<name>265</name>
<sym>Dot</sym>
</trkpt>
<trkpt lat="48.885762" lon="20.128975">
<ele>1943.5</ele>
<desc>Speed 9.1 km/h Distance 0.51 km</desc>
<time>2013-07-23T13:00:05.39</time>
<name>266</name>
<sym>Dot</sym>
</trkpt>
<trkpt lat="48.885768" lon="20.128947">
<ele>1943.5</ele>
<desc>Speed 7.8 km/h Distance 0.51 km</desc>
<time>2013-07-23T13:00:06.39</time>
<name>267</name>
<sym>Dot</sym>
</trkpt>
<trkpt lat="48.885775" lon="20.128927">
<ele>1944.5</ele>
<desc>Speed 6.7 km/h Distance 0.51 km</desc>
<time>2013-07-23T13:00:07.39</time>
<name>268</name>
<sym>Dot</sym>
</trkpt>
<trkpt lat="48.885785" lon="20.128900">
<ele>1944.0</ele>
<desc>Speed 8.1 km/h Distance 0.51 km</desc>
<time>2013-07-23T13:00:08.38</time>
<name>269</name>
<sym>Dot</sym>
</trkpt>
<trkpt lat="48.885797" lon="20.128868">
<ele>1944.0</ele>
<desc>Speed 9.6 km/h Distance 0.52 km</desc>
<time>2013-07-23T13:00:09.50</time>
<name>270</name>
<sym>Dot</sym>
</trkpt>
<trkpt lat="48.885810" lon="20.128832">
<ele>1943.5</ele>
<desc>Speed 10.1 km/h Distance 0.52 km</desc>
<time>2013-07-23T13:00:10.38</time>
<name>271</name>
<sym>Dot</sym>
</trkpt>
<trkpt lat="48.885820" lon="20.128793">
<ele>1943.5</ele>
<desc>Speed 11.1 km/h Distance 0.52 km</desc>
<time>2013-07-23T13:00:11.37</time>
<name>272</name>
<sym>Dot</sym>
</trkpt>
<trkpt lat="48.885830" lon="20.128745">
<ele>1943.0</ele>
<desc>Speed 12.3 km/h Distance 0.53 km</desc>
<time>2013-07-23T13:00:12.36</time>
<name>273</name>
<sym>Dot</sym>
</trkpt>
<trkpt lat="48.885838" lon="20.128705">
<ele>1942.5</ele>
<desc>Speed 10.9 km/h Distance 0.53 km</desc>
<time>2013-07-23T13:00:13.43</time>
<name>274</name>
<sym>Dot</sym>
</trkpt>
<trkpt lat="48.885845" lon="20.128672">
<ele>1942.0</ele>
<desc>Speed 9.0 km/h Distance 0.53 km</desc>
<time>2013-07-23T13:00:14.35</time>
<name>275</name>
<sym>Dot</sym>
</trkpt>
<trkpt lat="48.885850" lon="20.128640">
<ele>1942.0</ele>
<desc>Speed 9.6 km/h Distance 0.53 km</desc>
<time>2013-07-23T13:00:15.35</time>
<name>276</name>
<sym>Dot</sym>
</trkpt>
<trkpt lat="48.885855" lon="20.128597">
<ele>1942.0</ele>
<desc>Speed 11.3 km/h Distance 0.54 km</desc>
<time>2013-07-23T13:00:16.34</time>
<name>277</name>
<sym>Dot</sym>
</trkpt>
<trkpt lat="48.885858" lon="20.128550">
<ele>1942.0</ele>
<desc>Speed 11.9 km/h Distance 0.54 km</desc>
<time>2013-07-23T13:00:17.34</time>
<name>278</name>
<sym>Dot</sym>
</trkpt>
<trkpt lat="48.885867" lon="20.128507">
<ele>1941.5</ele>
<desc>Speed 12.2 km/h Distance 0.54 km</desc>
<time>2013-07-23T13:00:18.33</time>
<name>279</name>
<sym>Dot</sym>
</trkpt>
<trkpt lat="48.885875" lon="20.128463">
<ele>1941.5</ele>
<desc>Speed 12.2 km/h Distance 0.55 km</desc>
<time>2013-07-23T13:00:19.33</time>
<name>280</name>
<sym>Dot</sym>
</trkpt>
<trkpt lat="48.885883" lon="20.128425">
<ele>1942.5</ele>
<desc>Speed 10.2 km/h Distance 0.55 km</desc>
<time>2013-07-23T13:00:20.33</time>
<name>281</name>
<sym>Dot</sym>
</trkpt>
<trkpt lat="48.885892" lon="20.128373">
<ele>1942.0</ele>
<desc>Speed 13.9 km/h Distance 0.55 km</desc>
<time>2013-07-23T13:00:21.33</time>
<name>282</name>
<sym>Dot</sym>
</trkpt>
<trkpt lat="48.885903" lon="20.128322">
<ele>1941.5</ele>
<desc>Speed 14.0 km/h Distance 0.56 km</desc>
<time>2013-07-23T13:00:22.32</time>
<name>283</name>
<sym>Dot</sym>
</trkpt>
<trkpt lat="48.885915" lon="20.128268">
<ele>1941.0</ele>
<desc>Speed 14.1 km/h Distance 0.56 km</desc>
<time>2013-07-23T13:00:23.32</time>
<name>284</name>
<sym>Dot</sym>
</trkpt>
<trkpt lat="48.885923" lon="20.128218">
<ele>1941.0</ele>
<desc>Speed 13.6 km/h Distance 0.57 km</desc>
<time>2013-07-23T13:00:24.31</time>
<name>285</name>
<sym>Dot</sym>
</trkpt>
<trkpt lat="48.885933" lon="20.128167">
<ele>1940.0</ele>
<desc>Speed 13.9 km/h Distance 0.57 km</desc>
<time>2013-07-23T13:00:25.30</time>
<name>286</name>
<sym>Dot</sym>
</trkpt>
<trkpt lat="48.885942" lon="20.128112">
<ele>1939.5</ele>
<desc>Speed 14.4 km/h Distance 0.57 km</desc>
<time>2013-07-23T13:00:26.32</time>
<name>287</name>
<sym>Dot</sym>
</trkpt>
<trkpt lat="48.885952" lon="20.128058">
<ele>1939.5</ele>
<desc>Speed 13.6 km/h Distance 0.58 km</desc>
<time>2013-07-23T13:00:27.29</time>
<name>288</name>
<sym>Dot</sym>
</trkpt>
<trkpt lat="48.885967" lon="20.127928">
<ele>1938.5</ele>
<desc>Speed 16.7 km/h Distance 0.59 km</desc>
<time>2013-07-23T13:00:29.29</time>
<name>289</name>
<sym>Dot</sym>
</trkpt>
<trkpt lat="48.885978" lon="20.127868">
<ele>1938.0</ele>
<desc>Speed 15.5 km/h Distance 0.59 km</desc>
<time>2013-07-23T13:00:30.27</time>
<name>290</name>
<sym>Dot</sym>
</trkpt>
<trkpt lat="48.885983" lon="20.127800">
<ele>1937.0</ele>
<desc>Speed 17.1 km/h Distance 0.60 km</desc>
<time>2013-07-23T13:00:31.27</time>
<name>291</name>
<sym>Dot</sym>
</trkpt>
<trkpt lat="48.885990" lon="20.127732">
<ele>1936.5</ele>
<desc>Speed 17.2 km/h Distance 0.60 km</desc>
<time>2013-07-23T13:00:32.27</time>
<name>292</name>
<sym>Dot</sym>
</trkpt>
<trkpt lat="48.886003" lon="20.127667">
<ele>1936.0</ele>
<desc>Speed 17.5 km/h Distance 0.61 km</desc>
<time>2013-07-23T13:00:33.26</time>
<name>293</name>
<sym>Dot</sym>
</trkpt>
<trkpt lat="48.886015" lon="20.127600">
<ele>1935.5</ele>
<desc>Speed 17.9 km/h Distance 0.61 km</desc>
<time>2013-07-23T13:00:34.25</time>
<name>294</name>
<sym>Dot</sym>
</trkpt>
<trkpt lat="48.886022" lon="20.127528">
<ele>1934.5</ele>
<desc>Speed 18.8 km/h Distance 0.62 km</desc>
<time>2013-07-23T13:00:35.25</time>
<name>295</name>
<sym>Dot</sym>
</trkpt>
<trkpt lat="48.886030" lon="20.127457">
<ele>1933.5</ele>
<desc>Speed 18.4 km/h Distance 0.62 km</desc>
<time>2013-07-23T13:00:36.24</time>
<name>296</name>
<sym>Dot</sym>
</trkpt>
<trkpt lat="48.886042" lon="20.127388">
<ele>1932.5</ele>
<desc>Speed 17.2 km/h Distance 0.63 km</desc>
<time>2013-07-23T13:00:37.23</time>
<name>297</name>
<sym>Dot</sym>
</trkpt>
<trkpt lat="48.886050" lon="20.127318">
<ele>1931.5</ele>
<desc>Speed 17.6 km/h Distance 0.63 km</desc>
<time>2013-07-23T13:00:38.22</time>
<name>298</name>
<sym>Dot</sym>
</trkpt>
<trkpt lat="48.886060" lon="20.127253">
<ele>1931.5</ele>
<desc>Speed 17.6 km/h Distance 0.64 km</desc>
<time>2013-07-23T13:00:39.22</time>
<name>299</name>
<sym>Dot</sym>
</trkpt>
<trkpt lat="48.886070" lon="20.127187">
<ele>1931.0</ele>
<desc>Speed 18.0 km/h Distance 0.64 km</desc>
<time>2013-07-23T13:00:40.22</time>
<name>300</name>
<sym>Dot</sym>
</trkpt>
<trkpt lat="48.886077" lon="20.127120">
<ele>1930.5</ele>
<desc>Speed 17.6 km/h Distance 0.65 km</desc>
<time>2013-07-23T13:00:41.22</time>
<name>301</name>
<sym>Dot</sym>
</trkpt>
<trkpt lat="48.886082" lon="20.127055">
<ele>1930.0</ele>
<desc>Speed 16.5 km/h Distance 0.65 km</desc>
<time>2013-07-23T13:00:42.22</time>
<name>302</name>
<sym>Dot</sym>
</trkpt>
<trkpt lat="48.886085" lon="20.126985">
<ele>1929.0</ele>
<desc>Speed 17.1 km/h Distance 0.66 km</desc>
<time>2013-07-23T13:00:43.21</time>
<name>303</name>
<sym>Dot</sym>
</trkpt>
<trkpt lat="48.886090" lon="20.126918">
<ele>1928.5</ele>
<desc>Speed 16.7 km/h Distance 0.66 km</desc>
<time>2013-07-23T13:00:44.20</time>
<name>304</name>
<sym>Dot</sym>
</trkpt>
<trkpt lat="48.886097" lon="20.126848">
<ele>1928.0</ele>
<desc>Speed 17.6 km/h Distance 0.67 km</desc>
<time>2013-07-23T13:00:45.20</time>
<name>305</name>
<sym>Dot</sym>
</trkpt>
<trkpt lat="48.886102" lon="20.126782">
<ele>1927.0</ele>
<desc>Speed 16.4 km/h Distance 0.67 km</desc>
<time>2013-07-23T13:00:46.19</time>
<name>306</name>
<sym>Dot</sym>
</trkpt>
<trkpt lat="48.886105" lon="20.126708">
<ele>1926.0</ele>
<desc>Speed 18.3 km/h Distance 0.68 km</desc>
<time>2013-07-23T13:00:47.19</time>
<name>307</name>
<sym>Dot</sym>
</trkpt>
<trkpt lat="48.886108" lon="20.126642">
<ele>1926.0</ele>
<desc>Speed 17.6 km/h Distance 0.68 km</desc>
<time>2013-07-23T13:00:48.20</time>
<name>308</name>
<sym>Dot</sym>
</trkpt>
<trkpt lat="48.886112" lon="20.126567">
<ele>1925.5</ele>
<desc>Speed 18.9 km/h Distance 0.69 km</desc>
<time>2013-07-23T13:00:49.19</time>
<name>309</name>
<sym>Dot</sym>
</trkpt>
<trkpt lat="48.886120" lon="20.126487">
<ele>1925.0</ele>
<desc>Speed 21.2 km/h Distance 0.70 km</desc>
<time>2013-07-23T13:00:50.34</time>
<name>310</name>
<sym>Dot</sym>
</trkpt>
<trkpt lat="48.886122" lon="20.126408">
<ele>1924.5</ele>
<desc>Speed 20.5 km/h Distance 0.70 km</desc>
<time>2013-07-23T13:00:51.18</time>
<name>311</name>
<sym>Dot</sym>
</trkpt>
<trkpt lat="48.886118" lon="20.126332">
<ele>1924.0</ele>
<desc>Speed 20.3 km/h Distance 0.71 km</desc>
<time>2013-07-23T13:00:52.17</time>
<name>312</name>
<sym>Dot</sym>
</trkpt>
<trkpt lat="48.886117" lon="20.126252">
<ele>1923.5</ele>
<desc>Speed 20.7 km/h Distance 0.71 km</desc>
<time>2013-07-23T13:00:53.17</time>
<name>313</name>
<sym>Dot</sym>
</trkpt>
<trkpt lat="48.886113" lon="20.126168">
<ele>1922.5</ele>
<desc>Speed 22.4 km/h Distance 0.72 km</desc>
<time>2013-07-23T13:00:54.17</time>
<name>314</name>
<sym>Dot</sym>
</trkpt>
<trkpt lat="48.886113" lon="20.126083">
<ele>1922.0</ele>
<desc>Speed 22.5 km/h Distance 0.72 km</desc>
<time>2013-07-23T13:00:55.17</time>
<name>315</name>
<sym>Dot</sym>
</trkpt>
<trkpt lat="48.886117" lon="20.126005">
<ele>1921.5</ele>
<desc>Speed 20.2 km/h Distance 0.73 km</desc>
<time>2013-07-23T13:00:56.16</time>
<name>316</name>
<sym>Dot</sym>
</trkpt>
<trkpt lat="48.886120" lon="20.125940">
<ele>1920.5</ele>
<desc>Speed 16.2 km/h Distance 0.74 km</desc>
<time>2013-07-23T13:00:57.16</time>
<name>317</name>
<sym>Dot</sym>
</trkpt>
<trkpt lat="48.886135" lon="20.125870">
<ele>1921.0</ele>
<desc>Speed 11.9 km/h Distance 0.74 km</desc>
<time>2013-07-23T13:00:59.16</time>
<name>318</name>
<sym>Dot</sym>
</trkpt>
<trkpt lat="48.886140" lon="20.125737">
<ele>1918.5</ele>
<desc>Speed 14.9 km/h Distance 0.75 km</desc>
<time>2013-07-23T13:01:01.16</time>
<name>319</name>
<sym>Dot</sym>
</trkpt>
<trkpt lat="48.886145" lon="20.125677">
<ele>1918.0</ele>
<desc>Speed 16.1 km/h Distance 0.75 km</desc>
<time>2013-07-23T13:01:02.15</time>
<name>320</name>
<sym>Dot</sym>
</trkpt>
<trkpt lat="48.886150" lon="20.125632">
<ele>1918.0</ele>
<desc>Speed 12.3 km/h Distance 0.76 km</desc>
<time>2013-07-23T13:01:03.15</time>
<name>321</name>
<sym>Dot</sym>
</trkpt>
<trkpt lat="48.886152" lon="20.125588">
<ele>1918.0</ele>
<desc>Speed 11.6 km/h Distance 0.76 km</desc>
<time>2013-07-23T13:01:04.14</time>
<name>322</name>
<sym>Dot</sym>
</trkpt>
<trkpt lat="48.886153" lon="20.125543">
<ele>1918.0</ele>
<desc>Speed 12.0 km/h Distance 0.76 km</desc>
<time>2013-07-23T13:01:05.14</time>
<name>323</name>
<sym>Dot</sym>
</trkpt>
<trkpt lat="48.886157" lon="20.125497">
<ele>1918.0</ele>
<desc>Speed 12.6 km/h Distance 0.77 km</desc>
<time>2013-07-23T13:01:06.14</time>
<name>324</name>
<sym>Dot</sym>
</trkpt>
<trkpt lat="48.886158" lon="20.125433">
<ele>1917.5</ele>
<desc>Speed 17.6 km/h Distance 0.77 km</desc>
<time>2013-07-23T13:01:07.13</time>
<name>325</name>
<sym>Dot</sym>
</trkpt>
<trkpt lat="48.886162" lon="20.125380">
<ele>1917.5</ele>
<desc>Speed 14.5 km/h Distance 0.78 km</desc>
<time>2013-07-23T13:01:08.12</time>
<name>326</name>
<sym>Dot</sym>
</trkpt>
<trkpt lat="48.886165" lon="20.125328">
<ele>1917.5</ele>
<desc>Speed 14.0 km/h Distance 0.78 km</desc>
<time>2013-07-23T13:01:09.11</time>
<name>327</name>
<sym>Dot</sym>
</trkpt>
<trkpt lat="48.886168" lon="20.125280">
<ele>1918.0</ele>
<desc>Speed 13.3 km/h Distance 0.78 km</desc>
<time>2013-07-23T13:01:10.16</time>
<name>328</name>
<sym>Dot</sym>
</trkpt>
<trkpt lat="48.886177" lon="20.125237">
<ele>1919.0</ele>
<desc>Speed 12.3 km/h Distance 0.79 km</desc>
<time>2013-07-23T13:01:11.10</time>
<name>329</name>
<sym>Dot</sym>
</trkpt>
<trkpt lat="48.886188" lon="20.125197">
<ele>1919.0</ele>
<desc>Speed 12.3 km/h Distance 0.79 km</desc>
<time>2013-07-23T13:01:12.10</time>
<name>330</name>
<sym>Dot</sym>
</trkpt>
<trkpt lat="48.886198" lon="20.125153">
<ele>1919.5</ele>
<desc>Speed 12.1 km/h Distance 0.79 km</desc>
<time>2013-07-23T13:01:13.09</time>
<name>331</name>
<sym>Dot</sym>
</trkpt>
<trkpt lat="48.886208" lon="20.125113">
<ele>1920.0</ele>
<desc>Speed 11.3 km/h Distance 0.80 km</desc>
<time>2013-07-23T13:01:14.09</time>
<name>332</name>
<sym>Dot</sym>
</trkpt>
<trkpt lat="48.886218" lon="20.125075">
<ele>1920.0</ele>
<desc>Speed 10.8 km/h Distance 0.80 km</desc>
<time>2013-07-23T13:01:15.09</time>
<name>333</name>
<sym>Dot</sym>
</trkpt>
<trkpt lat="48.886225" lon="20.125043">
<ele>1920.0</ele>
<desc>Speed 9.1 km/h Distance 0.80 km</desc>
<time>2013-07-23T13:01:16.08</time>
<name>334</name>
<sym>Dot</sym>
</trkpt>
<trkpt lat="48.886233" lon="20.125012">
<ele>1920.5</ele>
<desc>Speed 8.8 km/h Distance 0.80 km</desc>
<time>2013-07-23T13:01:17.07</time>
<name>335</name>
<sym>Dot</sym>
</trkpt>
<trkpt lat="48.886238" lon="20.124967">
<ele>1919.5</ele>
<desc>Speed 11.6 km/h Distance 0.81 km</desc>
<time>2013-07-23T13:01:18.07</time>
<name>336</name>
<sym>Dot</sym>
</trkpt>
<trkpt lat="48.886247" lon="20.124928">
<ele>1919.0</ele>
<desc>Speed 10.8 km/h Distance 0.81 km</desc>
<time>2013-07-23T13:01:19.06</time>
<name>337</name>
<sym>Dot</sym>
</trkpt>
<trkpt lat="48.886257" lon="20.124892">
<ele>1919.0</ele>
<desc>Speed 10.6 km/h Distance 0.81 km</desc>
<time>2013-07-23T13:01:20.05</time>
<name>338</name>
<sym>Dot</sym>
</trkpt>
<trkpt lat="48.886265" lon="20.124860">
<ele>1919.0</ele>
<desc>Speed 9.0 km/h Distance 0.82 km</desc>
<time>2013-07-23T13:01:21.06</time>
<name>339</name>
<sym>Dot</sym>
</trkpt>
<trkpt lat="48.886273" lon="20.124833">
<ele>1919.5</ele>
<desc>Speed 7.7 km/h Distance 0.82 km</desc>
<time>2013-07-23T13:01:22.04</time>
<name>340</name>
<sym>Dot</sym>
</trkpt>
<trkpt lat="48.886280" lon="20.124810">
<ele>1919.5</ele>
<desc>Speed 6.7 km/h Distance 0.82 km</desc>
<time>2013-07-23T13:01:23.03</time>
<name>341</name>
<sym>Dot</sym>
</trkpt>
<trkpt lat="48.886283" lon="20.124783">
<ele>1919.5</ele>
<desc>Speed 7.3 km/h Distance 0.82 km</desc>
<time>2013-07-23T13:01:24.03</time>
<name>342</name>
<sym>Dot</sym>
</trkpt>
<trkpt lat="48.886287" lon="20.124750">
<ele>1919.5</ele>
<desc>Speed 8.8 km/h Distance 0.83 km</desc>
<time>2013-07-23T13:01:25.02</time>
<name>343</name>
<sym>Dot</sym>
</trkpt>
<trkpt lat="48.886287" lon="20.124717">
<ele>1919.5</ele>
<desc>Speed 9.0 km/h Distance 0.83 km</desc>
<time>2013-07-23T13:01:26.01</time>
<name>344</name>
<sym>Dot</sym>
</trkpt>
<trkpt lat="48.886283" lon="20.124683">
<ele>1920.0</ele>
<desc>Speed 8.5 km/h Distance 0.83 km</desc>
<time>2013-07-23T13:01:27.01</time>
<name>345</name>
<sym>Dot</sym>
</trkpt>
<trkpt lat="48.886278" lon="20.124657">
<ele>1920.0</ele>
<desc>Speed 7.2 km/h Distance 0.83 km</desc>
<time>2013-07-23T13:01:28.00</time>
<name>346</name>
<sym>Dot</sym>
</trkpt>
<trkpt lat="48.886275" lon="20.124632">
<ele>1920.5</ele>
<desc>Speed 7.1 km/h Distance 0.83 km</desc>
<time>2013-07-23T13:01:29.00</time>
<name>347</name>
<sym>Dot</sym>
</trkpt>
<trkpt lat="48.886272" lon="20.124600">
<ele>1920.0</ele>
<desc>Speed 8.3 km/h Distance 0.84 km</desc>
<time>2013-07-23T13:01:29.99</time>
<name>348</name>
<sym>Dot</sym>
</trkpt>
<trkpt lat="48.886267" lon="20.124570">
<ele>1920.0</ele>
<desc>Speed 7.9 km/h Distance 0.84 km</desc>
<time>2013-07-23T13:01:30.99</time>
<name>349</name>
<sym>Dot</sym>
</trkpt>
<trkpt lat="48.886260" lon="20.124538">
<ele>1920.0</ele>
<desc>Speed 8.1 km/h Distance 0.84 km</desc>
<time>2013-07-23T13:01:31.99</time>
<name>350</name>
<sym>Dot</sym>
</trkpt>
<trkpt lat="48.886255" lon="20.124508">
<ele>1920.0</ele>
<desc>Speed 7.7 km/h Distance 0.84 km</desc>
<time>2013-07-23T13:01:32.98</time>
<name>351</name>
<sym>Dot</sym>
</trkpt>
<trkpt lat="48.886252" lon="20.124478">
<ele>1920.0</ele>
<desc>Speed 7.7 km/h Distance 0.85 km</desc>
<time>2013-07-23T13:01:33.98</time>
<name>352</name>
<sym>Dot</sym>
</trkpt>
<trkpt lat="48.886248" lon="20.124448">
<ele>1920.0</ele>
<desc>Speed 8.1 km/h Distance 0.85 km</desc>
<time>2013-07-23T13:01:34.97</time>
<name>353</name>
<sym>Dot</sym>
</trkpt>
<trkpt lat="48.886243" lon="20.124412">
<ele>1920.5</ele>
<desc>Speed 8.8 km/h Distance 0.85 km</desc>
<time>2013-07-23T13:01:35.97</time>
<name>354</name>
<sym>Dot</sym>
</trkpt>
<trkpt lat="48.886240" lon="20.124378">
<ele>1920.5</ele>
<desc>Speed 9.0 km/h Distance 0.85 km</desc>
<time>2013-07-23T13:01:36.97</time>
<name>355</name>
<sym>Dot</sym>
</trkpt>
<trkpt lat="48.886237" lon="20.124343">
<ele>1920.0</ele>
<desc>Speed 9.6 km/h Distance 0.86 km</desc>
<time>2013-07-23T13:01:37.97</time>
<name>356</name>
<sym>Dot</sym>
</trkpt>
<trkpt lat="48.886235" lon="20.124310">
<ele>1920.5</ele>
<desc>Speed 9.1 km/h Distance 0.86 km</desc>
<time>2013-07-23T13:01:38.97</time>
<name>357</name>
<sym>Dot</sym>
</trkpt>
<trkpt lat="48.886232" lon="20.124268">
<ele>1920.5</ele>
<desc>Speed 10.6 km/h Distance 0.86 km</desc>
<time>2013-07-23T13:01:39.96</time>
<name>358</name>
<sym>Dot</sym>
</trkpt>
<trkpt lat="48.886230" lon="20.124227">
<ele>1920.5</ele>
<desc>Speed 10.7 km/h Distance 0.86 km</desc>
<time>2013-07-23T13:01:41.04</time>
<name>359</name>
<sym>Dot</sym>
</trkpt>
<trkpt lat="48.886227" lon="20.124183">
<ele>1920.5</ele>
<desc>Speed 11.1 km/h Distance 0.87 km</desc>
<time>2013-07-23T13:01:41.95</time>
<name>360</name>
<sym>Dot</sym>
</trkpt>
<trkpt lat="48.886227" lon="20.124143">
<ele>1921.0</ele>
<desc>Speed 10.3 km/h Distance 0.87 km</desc>
<time>2013-07-23T13:01:42.94</time>
<name>361</name>
<sym>Dot</sym>
</trkpt>
<trkpt lat="48.886228" lon="20.124103">
<ele>1921.0</ele>
<desc>Speed 10.4 km/h Distance 0.87 km</desc>
<time>2013-07-23T13:01:43.94</time>
<name>362</name>
<sym>Dot</sym>
</trkpt>
<trkpt lat="48.886228" lon="20.124065">
<ele>1921.0</ele>
<desc>Speed 9.9 km/h Distance 0.88 km</desc>
<time>2013-07-23T13:01:44.93</time>
<name>363</name>
<sym>Dot</sym>
</trkpt>
<trkpt lat="48.886228" lon="20.124027">
<ele>1921.0</ele>
<desc>Speed 9.6 km/h Distance 0.88 km</desc>
<time>2013-07-23T13:01:45.93</time>
<name>364</name>
<sym>Dot</sym>
</trkpt>
<trkpt lat="48.886230" lon="20.123990">
<ele>1921.0</ele>
<desc>Speed 9.9 km/h Distance 0.88 km</desc>
<time>2013-07-23T13:01:46.93</time>
<name>365</name>
<sym>Dot</sym>
</trkpt>
<trkpt lat="48.886232" lon="20.123957">
<ele>1921.5</ele>
<desc>Speed 8.9 km/h Distance 0.88 km</desc>
<time>2013-07-23T13:01:47.94</time>
<name>366</name>
<sym>Dot</sym>
</trkpt>
<trkpt lat="48.886232" lon="20.123925">
<ele>1922.0</ele>
<desc>Speed 8.3 km/h Distance 0.89 km</desc>
<time>2013-07-23T13:01:48.93</time>
<name>367</name>
<sym>Dot</sym>
</trkpt>
<trkpt lat="48.886232" lon="20.123892">
<ele>1922.0</ele>
<desc>Speed 8.5 km/h Distance 0.89 km</desc>
<time>2013-07-23T13:01:49.93</time>
<name>368</name>
<sym>Dot</sym>
</trkpt>
<trkpt lat="48.886230" lon="20.123862">
<ele>1922.0</ele>
<desc>Speed 7.6 km/h Distance 0.89 km</desc>
<time>2013-07-23T13:01:50.92</time>
<name>369</name>
<sym>Dot</sym>
</trkpt>
<trkpt lat="48.886227" lon="20.123833">
<ele>1922.0</ele>
<desc>Speed 7.8 km/h Distance 0.89 km</desc>
<time>2013-07-23T13:01:51.92</time>
<name>370</name>
<sym>Dot</sym>
</trkpt>
<trkpt lat="48.886225" lon="20.123805">
<ele>1922.0</ele>
<desc>Speed 7.6 km/h Distance 0.90 km</desc>
<time>2013-07-23T13:01:52.92</time>
<name>371</name>
<sym>Dot</sym>
</trkpt>
<trkpt lat="48.886222" lon="20.123773">
<ele>1922.0</ele>
<desc>Speed 8.7 km/h Distance 0.90 km</desc>
<time>2013-07-23T13:01:53.94</time>
<name>372</name>
<sym>Dot</sym>
</trkpt>
<trkpt lat="48.886222" lon="20.123743">
<ele>1922.5</ele>
<desc>Speed 7.8 km/h Distance 0.90 km</desc>
<time>2013-07-23T13:01:54.91</time>
<name>373</name>
<sym>Dot</sym>
</trkpt>
<trkpt lat="48.886223" lon="20.123712">
<ele>1923.0</ele>
<desc>Speed 8.6 km/h Distance 0.90 km</desc>
<time>2013-07-23T13:01:55.91</time>
<name>374</name>
<sym>Dot</sym>
</trkpt>
<trkpt lat="48.886225" lon="20.123682">
<ele>1923.5</ele>
<desc>Speed 8.4 km/h Distance 0.90 km</desc>
<time>2013-07-23T13:01:56.90</time>
<name>375</name>
<sym>Dot</sym>
</trkpt>
<trkpt lat="48.886225" lon="20.123652">
<ele>1923.5</ele>
<desc>Speed 8.1 km/h Distance 0.91 km</desc>
<time>2013-07-23T13:01:57.90</time>
<name>376</name>
<sym>Dot</sym>
</trkpt>
<trkpt lat="48.886225" lon="20.123620">
<ele>1924.0</ele>
<desc>Speed 8.5 km/h Distance 0.91 km</desc>
<time>2013-07-23T13:01:58.90</time>
<name>377</name>
<sym>Dot</sym>
</trkpt>
<trkpt lat="48.886227" lon="20.123592">
<ele>1924.5</ele>
<desc>Speed 7.8 km/h Distance 0.91 km</desc>
<time>2013-07-23T13:01:59.91</time>
<name>378</name>
<sym>Dot</sym>
</trkpt>
<trkpt lat="48.886228" lon="20.123558">
<ele>1924.0</ele>
<desc>Speed 8.5 km/h Distance 0.91 km</desc>
<time>2013-07-23T13:02:00.90</time>
<name>379</name>
<sym>Dot</sym>
</trkpt>
<trkpt lat="48.886230" lon="20.123530">
<ele>1924.5</ele>
<desc>Speed 7.3 km/h Distance 0.92 km</desc>
<time>2013-07-23T13:02:01.89</time>
<name>380</name>
<sym>Dot</sym>
</trkpt>
<trkpt lat="48.886230" lon="20.123505">
<ele>1924.5</ele>
<desc>Speed 6.8 km/h Distance 0.92 km</desc>
<time>2013-07-23T13:02:02.89</time>
<name>381</name>
<sym>Dot</sym>
</trkpt>
<trkpt lat="48.886230" lon="20.123485">
<ele>1924.5</ele>
<desc>Speed 5.2 km/h Distance 0.92 km</desc>
<time>2013-07-23T13:02:03.89</time>
<name>382</name>
<sym>Dot</sym>
</trkpt>
<trkpt lat="48.886232" lon="20.123485">
<ele>1924.5</ele>
<desc>Speed 2.4 km/h Distance 0.92 km</desc>
<time>2013-07-23T13:02:08.88</time>
<name>383</name>
<sym>Dot</sym>
</trkpt>
<trkpt lat="48.886238" lon="20.123497">
<ele>1926.0</ele>
<desc>Speed 3.7 km/h Distance 0.92 km</desc>
<time>2013-07-23T13:02:13.27</time>
<name>384</name>
<sym>Dot</sym>
</trkpt>
<trkpt lat="48.886253" lon="20.123485">
<ele>1925.0</ele>
<desc>Speed 3.6 km/h Distance 0.92 km</desc>
<time>2013-07-23T13:02:24.88</time>
<name>385</name>
<sym>Dot</sym>
</trkpt>
<trkpt lat="48.886247" lon="20.123507">
<ele>1924.5</ele>
<desc>Speed 6.2 km/h Distance 0.92 km</desc>
<time>2013-07-23T13:02:25.87</time>
<name>386</name>
<sym>Dot</sym>
</trkpt>
<trkpt lat="48.886262" lon="20.123452">
<ele>1921.0</ele>
<desc>Speed 4.4 km/h Distance 0.93 km</desc>
<time>2013-07-23T13:03:31.86</time>
<name>387</name>
<sym>Dot</sym>
</trkpt>
<trkpt lat="48.886262" lon="20.123430">
<ele>1921.0</ele>
<desc>Speed 5.8 km/h Distance 0.93 km</desc>
<time>2013-07-23T13:03:32.85</time>
<name>388</name>
<sym>Dot</sym>
</trkpt>
<trkpt lat="48.886260" lon="20.123405">
<ele>1921.0</ele>
<desc>Speed 6.4 km/h Distance 0.93 km</desc>
<time>2013-07-23T13:03:33.85</time>
<name>389</name>
<sym>Dot</sym>
</trkpt>
<trkpt lat="48.886260" lon="20.123375">
<ele>1921.0</ele>
<desc>Speed 8.1 km/h Distance 0.93 km</desc>
<time>2013-07-23T13:03:34.85</time>
<name>390</name>
<sym>Dot</sym>
</trkpt>
<trkpt lat="48.886258" lon="20.123343">
<ele>1921.0</ele>
<desc>Speed 8.3 km/h Distance 0.94 km</desc>
<time>2013-07-23T13:03:35.84</time>
<name>391</name>
<sym>Dot</sym>
</trkpt>
<trkpt lat="48.886258" lon="20.123310">
<ele>1921.0</ele>
<desc>Speed 8.5 km/h Distance 0.94 km</desc>
<time>2013-07-23T13:03:36.84</time>
<name>392</name>
<sym>Dot</sym>
</trkpt>
<trkpt lat="48.886258" lon="20.123277">
<ele>1921.0</ele>
<desc>Speed 8.7 km/h Distance 0.94 km</desc>
<time>2013-07-23T13:03:37.86</time>
<name>393</name>
<sym>Dot</sym>
</trkpt>
<trkpt lat="48.886258" lon="20.123242">
<ele>1921.0</ele>
<desc>Speed 8.7 km/h Distance 0.94 km</desc>
<time>2013-07-23T13:03:38.83</time>
<name>394</name>
<sym>Dot</sym>
</trkpt>
<trkpt lat="48.886258" lon="20.123203">
<ele>1920.5</ele>
<desc>Speed 10.0 km/h Distance 0.95 km</desc>
<time>2013-07-23T13:03:39.83</time>
<name>395</name>
<sym>Dot</sym>
</trkpt>
<trkpt lat="48.886258" lon="20.123170">
<ele>1921.0</ele>
<desc>Speed 8.3 km/h Distance 0.95 km</desc>
<time>2013-07-23T13:03:40.82</time>
<name>396</name>
<sym>Dot</sym>
</trkpt>
<trkpt lat="48.886257" lon="20.123133">
<ele>1921.0</ele>
<desc>Speed 9.0 km/h Distance 0.95 km</desc>
<time>2013-07-23T13:03:41.82</time>
<name>397</name>
<sym>Dot</sym>
</trkpt>
<trkpt lat="48.886258" lon="20.123098">
<ele>1921.0</ele>
<desc>Speed 9.0 km/h Distance 0.95 km</desc>
<time>2013-07-23T13:03:42.81</time>
<name>398</name>
<sym>Dot</sym>
</trkpt>
<trkpt lat="48.886262" lon="20.123065">
<ele>1921.5</ele>
<desc>Speed 9.3 km/h Distance 0.96 km</desc>
<time>2013-07-23T13:03:43.81</time>
<name>399</name>
<sym>Dot</sym>
</trkpt>
<trkpt lat="48.886262" lon="20.123028">
<ele>1921.5</ele>
<desc>Speed 9.4 km/h Distance 0.96 km</desc>
<time>2013-07-23T13:03:44.80</time>
<name>400</name>
<sym>Dot</sym>
</trkpt>
<trkpt lat="48.886263" lon="20.122993">
<ele>1922.0</ele>
<desc>Speed 9.2 km/h Distance 0.96 km</desc>
<time>2013-07-23T13:03:45.79</time>
<name>401</name>
<sym>Dot</sym>
</trkpt>
<trkpt lat="48.886263" lon="20.122958">
<ele>1923.0</ele>
<desc>Speed 9.1 km/h Distance 0.96 km</desc>
<time>2013-07-23T13:03:46.79</time>
<name>402</name>
<sym>Dot</sym>
</trkpt>
<trkpt lat="48.886263" lon="20.122922">
<ele>1922.5</ele>
<desc>Speed 9.2 km/h Distance 0.97 km</desc>
<time>2013-07-23T13:03:47.79</time>
<name>403</name>
<sym>Dot</sym>
</trkpt>
<trkpt lat="48.886265" lon="20.122887">
<ele>1923.0</ele>
<desc>Speed 9.6 km/h Distance 0.97 km</desc>
<time>2013-07-23T13:03:48.78</time>
<name>404</name>
<sym>Dot</sym>
</trkpt>
<trkpt lat="48.886265" lon="20.122848">
<ele>1923.0</ele>
<desc>Speed 10.0 km/h Distance 0.97 km</desc>
<time>2013-07-23T13:03:49.78</time>
<name>405</name>
<sym>Dot</sym>
</trkpt>
<trkpt lat="48.886265" lon="20.122810">
<ele>1923.5</ele>
<desc>Speed 9.6 km/h Distance 0.97 km</desc>
<time>2013-07-23T13:03:50.78</time>
<name>406</name>
<sym>Dot</sym>
</trkpt>
<trkpt lat="48.886268" lon="20.122772">
<ele>1923.5</ele>
<desc>Speed 9.9 km/h Distance 0.98 km</desc>
<time>2013-07-23T13:03:51.79</time>
<name>407</name>
<sym>Dot</sym>
</trkpt>
<trkpt lat="48.886268" lon="20.122732">
<ele>1923.5</ele>
<desc>Speed 10.5 km/h Distance 0.98 km</desc>
<time>2013-07-23T13:03:52.77</time>
<name>408</name>
<sym>Dot</sym>
</trkpt>
<trkpt lat="48.886270" lon="20.122690">
<ele>1923.0</ele>
<desc>Speed 10.2 km/h Distance 0.98 km</desc>
<time>2013-07-23T13:03:53.77</time>
<name>409</name>
<sym>Dot</sym>
</trkpt>
<trkpt lat="48.886270" lon="20.122652">
<ele>1923.0</ele>
<desc>Speed 9.8 km/h Distance 0.99 km</desc>
<time>2013-07-23T13:03:54.76</time>
<name>410</name>
<sym>Dot</sym>
</trkpt>
<trkpt lat="48.886272" lon="20.122617">
<ele>1923.0</ele>
<desc>Speed 9.6 km/h Distance 0.99 km</desc>
<time>2013-07-23T13:03:55.76</time>
<name>411</name>
<sym>Dot</sym>
</trkpt>
<trkpt lat="48.886275" lon="20.122577">
<ele>1923.5</ele>
<desc>Speed 10.2 km/h Distance 0.99 km</desc>
<time>2013-07-23T13:03:56.75</time>
<name>412</name>
<sym>Dot</sym>
</trkpt>
<trkpt lat="48.886277" lon="20.122535">
<ele>1923.5</ele>
<desc>Speed 10.8 km/h Distance 1.00 km</desc>
<time>2013-07-23T13:03:57.75</time>
<name>413</name>
<sym>Dot</sym>
</trkpt>
<trkpt lat="48.886278" lon="20.122497">
<ele>1923.5</ele>
<desc>Speed 10.1 km/h Distance 1.00 km</desc>
<time>2013-07-23T13:03:58.75</time>
<name>414</name>
<sym>Dot</sym>
</trkpt>
<trkpt lat="48.886285" lon="20.122377">
<ele>1923.5</ele>
<desc>Speed 9.9 km/h Distance 1.01 km</desc>
<time>2013-07-23T13:04:03.51</time>
<name>415</name>
<sym>Dot</sym>
</trkpt>
<trkpt lat="48.886285" lon="20.122340">
<ele>1923.5</ele>
<desc>Speed 9.9 km/h Distance 1.01 km</desc>
<time>2013-07-23T13:04:04.54</time>
<name>416</name>
<sym>Dot</sym>
</trkpt>
<trkpt lat="48.886290" lon="20.122308">
<ele>1924.5</ele>
<desc>Speed 8.7 km/h Distance 1.01 km</desc>
<time>2013-07-23T13:04:05.50</time>
<name>417</name>
<sym>Dot</sym>
</trkpt>
<trkpt lat="48.886295" lon="20.122277">
<ele>1925.0</ele>
<desc>Speed 8.7 km/h Distance 1.01 km</desc>
<time>2013-07-23T13:04:06.49</time>
<name>418</name>
<sym>Dot</sym>
</trkpt>
<trkpt lat="48.886302" lon="20.122247">
<ele>1925.0</ele>
<desc>Speed 8.2 km/h Distance 1.02 km</desc>
<time>2013-07-23T13:04:07.50</time>
<name>419</name>
<sym>Dot</sym>
</trkpt>
<trkpt lat="48.886305" lon="20.122222">
<ele>1925.5</ele>
<desc>Speed 7.1 km/h Distance 1.02 km</desc>
<time>2013-07-23T13:04:08.49</time>
<name>420</name>
<sym>Dot</sym>
</trkpt>
<trkpt lat="48.886305" lon="20.122198">
<ele>1925.5</ele>
<desc>Speed 5.8 km/h Distance 1.02 km</desc>
<time>2013-07-23T13:04:09.49</time>
<name>421</name>
<sym>Dot</sym>
</trkpt>
<trkpt lat="48.886305" lon="20.122177">
<ele>1925.5</ele>
<desc>Speed 5.9 km/h Distance 1.02 km</desc>
<time>2013-07-23T13:04:10.59</time>
<name>422</name>
<sym>Dot</sym>
</trkpt>
<trkpt lat="48.886303" lon="20.122157">
<ele>1925.5</ele>
<desc>Speed 5.5 km/h Distance 1.02 km</desc>
<time>2013-07-23T13:04:11.51</time>
<name>423</name>
<sym>Dot</sym>
</trkpt>
<trkpt lat="48.886302" lon="20.122140">
<ele>1925.5</ele>
<desc>Speed 4.5 km/h Distance 1.02 km</desc>
<time>2013-07-23T13:04:12.46</time>
<name>424</name>
<sym>Dot</sym>
</trkpt>
<trkpt lat="48.886285" lon="20.122140">
<ele>1919.0</ele>
<desc>Speed 6.7 km/h Distance 1.03 km</desc>
<time>2013-07-23T13:05:06.45</time>
<name>425</name>
<sym>Dot</sym>
</trkpt>
<trkpt lat="48.886310" lon="20.122125">
<ele>1922.0</ele>
<desc>Speed 2.2 km/h Distance 1.03 km</desc>
<time>2013-07-23T13:05:45.45</time>
<name>426</name>
<sym>Dot</sym>
</trkpt>
<trkpt lat="48.886313" lon="20.122108">
<ele>1922.5</ele>
<desc>Speed 3.3 km/h Distance 1.03 km</desc>
<time>2013-07-23T13:05:49.45</time>
<name>427</name>
<sym>Dot</sym>
</trkpt>
<trkpt lat="48.886317" lon="20.122095">
<ele>1923.0</ele>
<desc>Speed 3.9 km/h Distance 1.03 km</desc>
<time>2013-07-23T13:05:50.45</time>
<name>428</name>
<sym>Dot</sym>
</trkpt>
<trkpt lat="48.886318" lon="20.122073">
<ele>1923.0</ele>
<desc>Speed 6.2 km/h Distance 1.03 km</desc>
<time>2013-07-23T13:05:51.44</time>
<name>429</name>
<sym>Dot</sym>
</trkpt>
<trkpt lat="48.886320" lon="20.122045">
<ele>1923.0</ele>
<desc>Speed 7.5 km/h Distance 1.04 km</desc>
<time>2013-07-23T13:05:52.43</time>
<name>430</name>
<sym>Dot</sym>
</trkpt>
<trkpt lat="48.886320" lon="20.122018">
<ele>1923.5</ele>
<desc>Speed 7.7 km/h Distance 1.04 km</desc>
<time>2013-07-23T13:05:53.43</time>
<name>431</name>
<sym>Dot</sym>
</trkpt>
<trkpt lat="48.886322" lon="20.121988">
<ele>1923.5</ele>
<desc>Speed 8.1 km/h Distance 1.04 km</desc>
<time>2013-07-23T13:05:54.42</time>
<name>432</name>
<sym>Dot</sym>
</trkpt>
<trkpt lat="48.886325" lon="20.121962">
<ele>1924.0</ele>
<desc>Speed 7.8 km/h Distance 1.04 km</desc>
<time>2013-07-23T13:05:55.42</time>
<name>433</name>
<sym>Dot</sym>
</trkpt>
<trkpt lat="48.886325" lon="20.121932">
<ele>1924.0</ele>
<desc>Speed 8.2 km/h Distance 1.04 km</desc>
<time>2013-07-23T13:05:56.42</time>
<name>434</name>
<sym>Dot</sym>
</trkpt>
<trkpt lat="48.886327" lon="20.121905">
<ele>1924.0</ele>
<desc>Speed 7.1 km/h Distance 1.05 km</desc>
<time>2013-07-23T13:05:57.41</time>
<name>435</name>
<sym>Dot</sym>
</trkpt>
<trkpt lat="48.886327" lon="20.121878">
<ele>1924.5</ele>
<desc>Speed 7.1 km/h Distance 1.05 km</desc>
<time>2013-07-23T13:05:58.42</time>
<name>436</name>
<sym>Dot</sym>
</trkpt>
<trkpt lat="48.886327" lon="20.121855">
<ele>1925.5</ele>
<desc>Speed 6.5 km/h Distance 1.05 km</desc>
<time>2013-07-23T13:05:59.40</time>
<name>437</name>
<sym>Dot</sym>
</trkpt>
<trkpt lat="48.886327" lon="20.121832">
<ele>1925.0</ele>
<desc>Speed 6.4 km/h Distance 1.05 km</desc>
<time>2013-07-23T13:06:00.40</time>
<name>438</name>
<sym>Dot</sym>
</trkpt>
<trkpt lat="48.886328" lon="20.121813">
<ele>1925.5</ele>
<desc>Speed 4.9 km/h Distance 1.05 km</desc>
<time>2013-07-23T13:06:01.40</time>
<name>439</name>
<sym>Dot</sym>
</trkpt>
<trkpt lat="48.886330" lon="20.121792">
<ele>1926.0</ele>
<desc>Speed 5.8 km/h Distance 1.05 km</desc>
<time>2013-07-23T13:06:02.39</time>
<name>440</name>
<sym>Dot</sym>
</trkpt>
<trkpt lat="48.886337" lon="20.121768">
<ele>1926.5</ele>
<desc>Speed 6.9 km/h Distance 1.06 km</desc>
<time>2013-07-23T13:06:03.38</time>
<name>441</name>
<sym>Dot</sym>
</trkpt>
<trkpt lat="48.886340" lon="20.121743">
<ele>1926.5</ele>
<desc>Speed 6.7 km/h Distance 1.06 km</desc>
<time>2013-07-23T13:06:04.38</time>
<name>442</name>
<sym>Dot</sym>
</trkpt>
<trkpt lat="48.886345" lon="20.121718">
<ele>1927.0</ele>
<desc>Speed 7.2 km/h Distance 1.06 km</desc>
<time>2013-07-23T13:06:05.38</time>
<name>443</name>
<sym>Dot</sym>
</trkpt>
<trkpt lat="48.886348" lon="20.121692">
<ele>1927.5</ele>
<desc>Speed 7.3 km/h Distance 1.06 km</desc>
<time>2013-07-23T13:06:06.38</time>
<name>444</name>
<sym>Dot</sym>
</trkpt>
<trkpt lat="48.886353" lon="20.121662">
<ele>1928.0</ele>
<desc>Speed 8.0 km/h Distance 1.06 km</desc>
<time>2013-07-23T13:06:07.38</time>
<name>445</name>
<sym>Dot</sym>
</trkpt>
<trkpt lat="48.886357" lon="20.121635">
<ele>1928.0</ele>
<desc>Speed 7.4 km/h Distance 1.07 km</desc>
<time>2013-07-23T13:06:08.50</time>
<name>446</name>
<sym>Dot</sym>
</trkpt>
<trkpt lat="48.886360" lon="20.121608">
<ele>1928.5</ele>
<desc>Speed 7.3 km/h Distance 1.07 km</desc>
<time>2013-07-23T13:06:09.37</time>
<name>447</name>
<sym>Dot</sym>
</trkpt>
<trkpt lat="48.886363" lon="20.121578">
<ele>1929.0</ele>
<desc>Speed 8.0 km/h Distance 1.07 km</desc>
<time>2013-07-23T13:06:10.37</time>
<name>448</name>
<sym>Dot</sym>
</trkpt>
<trkpt lat="48.886363" lon="20.121550">
<ele>1929.0</ele>
<desc>Speed 7.5 km/h Distance 1.07 km</desc>
<time>2013-07-23T13:06:11.37</time>
<name>449</name>
<sym>Dot</sym>
</trkpt>
<trkpt lat="48.886368" lon="20.121522">
<ele>1929.0</ele>
<desc>Speed 7.5 km/h Distance 1.07 km</desc>
<time>2013-07-23T13:06:12.36</time>
<name>450</name>
<sym>Dot</sym>
</trkpt>
<trkpt lat="48.886373" lon="20.121493">
<ele>1929.5</ele>
<desc>Speed 8.0 km/h Distance 1.08 km</desc>
<time>2013-07-23T13:06:13.36</time>
<name>451</name>
<sym>Dot</sym>
</trkpt>
<trkpt lat="48.886377" lon="20.121467">
<ele>1929.5</ele>
<desc>Speed 7.5 km/h Distance 1.08 km</desc>
<time>2013-07-23T13:06:14.35</time>
<name>452</name>
<sym>Dot</sym>
</trkpt>
<trkpt lat="48.886377" lon="20.121438">
<ele>1929.0</ele>
<desc>Speed 6.8 km/h Distance 1.08 km</desc>
<time>2013-07-23T13:06:15.34</time>
<name>453</name>
<sym>Dot</sym>
</trkpt>
<trkpt lat="48.886378" lon="20.121415">
<ele>1929.0</ele>
<desc>Speed 6.3 km/h Distance 1.08 km</desc>
<time>2013-07-23T13:06:16.34</time>
<name>454</name>
<sym>Dot</sym>
</trkpt>
<trkpt lat="48.886382" lon="20.121393">
<ele>1929.0</ele>
<desc>Speed 5.9 km/h Distance 1.08 km</desc>
<time>2013-07-23T13:06:17.33</time>
<name>455</name>
<sym>Dot</sym>
</trkpt>
<trkpt lat="48.886385" lon="20.121373">
<ele>1929.5</ele>
<desc>Speed 5.4 km/h Distance 1.09 km</desc>
<time>2013-07-23T13:06:18.33</time>
<name>456</name>
<sym>Dot</sym>
</trkpt>
<trkpt lat="48.886390" lon="20.121355">
<ele>1929.5</ele>
<desc>Speed 5.2 km/h Distance 1.09 km</desc>
<time>2013-07-23T13:06:19.32</time>
<name>457</name>
<sym>Dot</sym>
</trkpt>
<trkpt lat="48.886393" lon="20.121335">
<ele>1929.0</ele>
<desc>Speed 4.6 km/h Distance 1.09 km</desc>
<time>2013-07-23T13:06:20.32</time>
<name>458</name>
<sym>Dot</sym>
</trkpt>
<trkpt lat="48.886397" lon="20.121318">
<ele>1929.0</ele>
<desc>Speed 4.8 km/h Distance 1.09 km</desc>
<time>2013-07-23T13:06:21.31</time>
<name>459</name>
<sym>Dot</sym>
</trkpt>
<trkpt lat="48.886407" lon="20.121302">
<ele>1929.0</ele>
<desc>Speed 6.0 km/h Distance 1.09 km</desc>
<time>2013-07-23T13:06:22.31</time>
<name>460</name>
<sym>Dot</sym>
</trkpt>
<trkpt lat="48.886417" lon="20.121285">
<ele>1928.5</ele>
<desc>Speed 5.7 km/h Distance 1.09 km</desc>
<time>2013-07-23T13:06:23.30</time>
<name>461</name>
<sym>Dot</sym>
</trkpt>
<trkpt lat="48.886422" lon="20.121258">
<ele>1927.5</ele>
<desc>Speed 7.1 km/h Distance 1.09 km</desc>
<time>2013-07-23T13:06:24.29</time>
<name>462</name>
<sym>Dot</sym>
</trkpt>
<trkpt lat="48.886423" lon="20.121232">
<ele>1926.5</ele>
<desc>Speed 5.9 km/h Distance 1.10 km</desc>
<time>2013-07-23T13:06:25.29</time>
<name>463</name>
<sym>Dot</sym>
</trkpt>
<trkpt lat="48.886422" lon="20.121213">
<ele>1926.0</ele>
<desc>Speed 4.9 km/h Distance 1.10 km</desc>
<time>2013-07-23T13:06:26.28</time>
<name>464</name>
<sym>Dot</sym>
</trkpt>
<trkpt lat="48.886418" lon="20.121197">
<ele>1925.5</ele>
<desc>Speed 4.8 km/h Distance 1.10 km</desc>
<time>2013-07-23T13:06:27.28</time>
<name>465</name>
<sym>Dot</sym>
</trkpt>
<trkpt lat="48.886420" lon="20.121183">
<ele>1925.5</ele>
<desc>Speed 4.0 km/h Distance 1.10 km</desc>
<time>2013-07-23T13:06:28.28</time>
<name>466</name>
<sym>Dot</sym>
</trkpt>
<trkpt lat="48.886417" lon="20.121168">
<ele>1925.5</ele>
<desc>Speed 4.4 km/h Distance 1.10 km</desc>
<time>2013-07-23T13:06:29.27</time>
<name>467</name>
<sym>Dot</sym>
</trkpt>
<trkpt lat="48.886410" lon="20.121143">
<ele>1925.0</ele>
<desc>Speed 7.8 km/h Distance 1.10 km</desc>
<time>2013-07-23T13:06:30.26</time>
<name>468</name>
<sym>Dot</sym>
</trkpt>
<trkpt lat="48.886408" lon="20.121108">
<ele>1924.5</ele>
<desc>Speed 9.2 km/h Distance 1.11 km</desc>
<time>2013-07-23T13:06:31.26</time>
<name>469</name>
<sym>Dot</sym>
</trkpt>
<trkpt lat="48.886407" lon="20.121072">
<ele>1924.0</ele>
<desc>Speed 9.7 km/h Distance 1.11 km</desc>
<time>2013-07-23T13:06:32.26</time>
<name>470</name>
<sym>Dot</sym>
</trkpt>
<trkpt lat="48.886403" lon="20.121042">
<ele>1923.5</ele>
<desc>Speed 8.2 km/h Distance 1.11 km</desc>
<time>2013-07-23T13:06:33.26</time>
<name>471</name>
<sym>Dot</sym>
</trkpt>
<trkpt lat="48.886395" lon="20.121017">
<ele>1923.5</ele>
<desc>Speed 7.7 km/h Distance 1.11 km</desc>
<time>2013-07-23T13:06:34.25</time>
<name>472</name>
<sym>Dot</sym>
</trkpt>
<trkpt lat="48.886388" lon="20.120993">
<ele>1923.0</ele>
<desc>Speed 6.7 km/h Distance 1.11 km</desc>
<time>2013-07-23T13:06:35.25</time>
<name>473</name>
<sym>Dot</sym>
</trkpt>
<trkpt lat="48.886383" lon="20.120975">
<ele>1923.0</ele>
<desc>Speed 5.0 km/h Distance 1.12 km</desc>
<time>2013-07-23T13:06:36.24</time>
<name>474</name>
<sym>Dot</sym>
</trkpt>
<trkpt lat="48.886378" lon="20.120958">
<ele>1923.0</ele>
<desc>Speed 4.8 km/h Distance 1.12 km</desc>
<time>2013-07-23T13:06:37.24</time>
<name>475</name>
<sym>Dot</sym>
</trkpt>
<trkpt lat="48.886380" lon="20.120942">
<ele>1923.0</ele>
<desc>Speed 4.5 km/h Distance 1.12 km</desc>
<time>2013-07-23T13:06:38.23</time>
<name>476</name>
<sym>Dot</sym>
</trkpt>
<trkpt lat="48.886378" lon="20.120873">
<ele>1923.0</ele>
<desc>Speed 5.8 km/h Distance 1.12 km</desc>
<time>2013-07-23T13:06:40.22</time>
<name>477</name>
<sym>Dot</sym>
</trkpt>
<trkpt lat="48.886378" lon="20.120850">
<ele>1922.5</ele>
<desc>Speed 6.3 km/h Distance 1.13 km</desc>
<time>2013-07-23T13:06:41.21</time>
<name>478</name>
<sym>Dot</sym>
</trkpt>
<trkpt lat="48.886377" lon="20.120838">
<ele>1921.5</ele>
<desc>Speed 2.4 km/h Distance 1.13 km</desc>
<time>2013-07-23T13:06:42.21</time>
<name>479</name>
<sym>Dot</sym>
</trkpt>
<trkpt lat="48.886377" lon="20.120818">
<ele>1920.0</ele>
<desc>Speed 4.9 km/h Distance 1.13 km</desc>
<time>2013-07-23T13:07:06.25</time>
<name>480</name>
<sym>Dot</sym>
</trkpt>
<trkpt lat="48.886375" lon="20.120800">
<ele>1919.5</ele>
<desc>Speed 4.8 km/h Distance 1.13 km</desc>
<time>2013-07-23T13:07:07.20</time>
<name>481</name>
<sym>Dot</sym>
</trkpt>
<trkpt lat="48.886380" lon="20.120780">
<ele>1919.5</ele>
<desc>Speed 5.7 km/h Distance 1.13 km</desc>
<time>2013-07-23T13:07:08.19</time>
<name>482</name>
<sym>Dot</sym>
</trkpt>
<trkpt lat="48.886377" lon="20.120757">
<ele>1919.5</ele>
<desc>Speed 6.5 km/h Distance 1.13 km</desc>
<time>2013-07-23T13:07:09.19</time>
<name>483</name>
<sym>Dot</sym>
</trkpt>
<trkpt lat="48.886372" lon="20.120732">
<ele>1919.0</ele>
<desc>Speed 7.2 km/h Distance 1.13 km</desc>
<time>2013-07-23T13:07:10.19</time>
<name>484</name>
<sym>Dot</sym>
</trkpt>
<trkpt lat="48.886365" lon="20.120713">
<ele>1918.5</ele>
<desc>Speed 5.0 km/h Distance 1.14 km</desc>
<time>2013-07-23T13:07:11.18</time>
<name>485</name>
<sym>Dot</sym>
</trkpt>
<trkpt lat="48.886360" lon="20.120705">
<ele>1918.0</ele>
<desc>Speed 3.2 km/h Distance 1.14 km</desc>
<time>2013-07-23T13:07:12.18</time>
<name>486</name>
<sym>Dot</sym>
</trkpt>
<trkpt lat="48.886357" lon="20.120700">
<ele>1917.5</ele>
<desc>Speed 2.5 km/h Distance 1.14 km</desc>
<time>2013-07-23T13:07:15.18</time>
<name>487</name>
<sym>Dot</sym>
</trkpt>
<trkpt lat="48.886352" lon="20.120692">
<ele>1917.5</ele>
<desc>Speed 3.6 km/h Distance 1.14 km</desc>
<time>2013-07-23T13:07:16.18</time>
<name>488</name>
<sym>Dot</sym>
</trkpt>
<trkpt lat="48.886345" lon="20.120682">
<ele>1917.5</ele>
<desc>Speed 4.2 km/h Distance 1.14 km</desc>
<time>2013-07-23T13:07:17.22</time>
<name>489</name>
<sym>Dot</sym>
</trkpt>
<trkpt lat="48.886330" lon="20.120650">
<ele>1917.5</ele>
<desc>Speed 7.5 km/h Distance 1.14 km</desc>
<time>2013-07-23T13:07:20.17</time>
<name>490</name>
<sym>Dot</sym>
</trkpt>
<trkpt lat="48.886318" lon="20.120628">
<ele>1917.5</ele>
<desc>Speed 7.1 km/h Distance 1.14 km</desc>
<time>2013-07-23T13:07:21.16</time>
<name>491</name>
<sym>Dot</sym>
</trkpt>
<trkpt lat="48.886307" lon="20.120600">
<ele>1917.0</ele>
<desc>Speed 9.2 km/h Distance 1.15 km</desc>
<time>2013-07-23T13:07:22.16</time>
<name>492</name>
<sym>Dot</sym>
</trkpt>
<trkpt lat="48.886298" lon="20.120567">
<ele>1916.5</ele>
<desc>Speed 8.9 km/h Distance 1.15 km</desc>
<time>2013-07-23T13:07:23.15</time>
<name>493</name>
<sym>Dot</sym>
</trkpt>
<trkpt lat="48.886293" lon="20.120528">
<ele>1916.0</ele>
<desc>Speed 10.1 km/h Distance 1.15 km</desc>
<time>2013-07-23T13:07:24.15</time>
<name>494</name>
<sym>Dot</sym>
</trkpt>
<trkpt lat="48.886287" lon="20.120492">
<ele>1916.0</ele>
<desc>Speed 10.0 km/h Distance 1.15 km</desc>
<time>2013-07-23T13:07:25.15</time>
<name>495</name>
<sym>Dot</sym>
</trkpt>
<trkpt lat="48.886280" lon="20.120448">
<ele>1916.0</ele>
<desc>Speed 11.2 km/h Distance 1.16 km</desc>
<time>2013-07-23T13:07:26.15</time>
<name>496</name>
<sym>Dot</sym>
</trkpt>
<trkpt lat="48.886272" lon="20.120407">
<ele>1916.0</ele>
<desc>Speed 11.6 km/h Distance 1.16 km</desc>
<time>2013-07-23T13:07:27.14</time>
<name>497</name>
<sym>Dot</sym>
</trkpt>
<trkpt lat="48.886257" lon="20.120360">
<ele>1915.5</ele>
<desc>Speed 13.7 km/h Distance 1.17 km</desc>
<time>2013-07-23T13:07:28.14</time>
<name>498</name>
<sym>Dot</sym>
</trkpt>
<trkpt lat="48.886240" lon="20.120313">
<ele>1915.5</ele>
<desc>Speed 14.3 km/h Distance 1.17 km</desc>
<time>2013-07-23T13:07:29.14</time>
<name>499</name>
<sym>Dot</sym>
</trkpt>
<trkpt lat="48.886222" lon="20.120263">
<ele>1915.5</ele>
<desc>Speed 15.3 km/h Distance 1.17 km</desc>
<time>2013-07-23T13:07:30.14</time>
<name>500</name>
<sym>Dot</sym>
</trkpt>
<trkpt lat="48.886207" lon="20.120213">
<ele>1915.0</ele>
<desc>Speed 14.6 km/h Distance 1.18 km</desc>
<time>2013-07-23T13:07:31.13</time>
<name>501</name>
<sym>Dot</sym>
</trkpt>
<trkpt lat="48.886192" lon="20.120170">
<ele>1915.0</ele>
<desc>Speed 13.4 km/h Distance 1.18 km</desc>
<time>2013-07-23T13:07:32.13</time>
<name>502</name>
<sym>Dot</sym>
</trkpt>
<trkpt lat="48.886180" lon="20.120125">
<ele>1915.5</ele>
<desc>Speed 13.5 km/h Distance 1.18 km</desc>
<time>2013-07-23T13:07:33.13</time>
<name>503</name>
<sym>Dot</sym>
</trkpt>
<trkpt lat="48.886170" lon="20.120077">
<ele>1916.0</ele>
<desc>Speed 14.2 km/h Distance 1.19 km</desc>
<time>2013-07-23T13:07:34.14</time>
<name>504</name>
<sym>Dot</sym>
</trkpt>
<trkpt lat="48.886155" lon="20.120023">
<ele>1916.0</ele>
<desc>Speed 15.5 km/h Distance 1.19 km</desc>
<time>2013-07-23T13:07:35.13</time>
<name>505</name>
<sym>Dot</sym>
</trkpt>
<trkpt lat="48.886143" lon="20.119970">
<ele>1915.5</ele>
<desc>Speed 15.8 km/h Distance 1.20 km</desc>
<time>2013-07-23T13:07:36.12</time>
<name>506</name>
<sym>Dot</sym>
</trkpt>
<trkpt lat="48.886128" lon="20.119913">
<ele>1915.5</ele>
<desc>Speed 16.9 km/h Distance 1.20 km</desc>
<time>2013-07-23T13:07:37.12</time>
<name>507</name>
<sym>Dot</sym>
</trkpt>
<trkpt lat="48.886110" lon="20.119865">
<ele>1915.0</ele>
<desc>Speed 14.6 km/h Distance 1.20 km</desc>
<time>2013-07-23T13:07:38.11</time>
<name>508</name>
<sym>Dot</sym>
</trkpt>
<trkpt lat="48.886092" lon="20.119817">
<ele>1914.5</ele>
<desc>Speed 14.7 km/h Distance 1.21 km</desc>
<time>2013-07-23T13:07:39.10</time>
<name>509</name>
<sym>Dot</sym>
</trkpt>
<trkpt lat="48.886075" lon="20.119762">
<ele>1913.5</ele>
<desc>Speed 16.0 km/h Distance 1.21 km</desc>
<time>2013-07-23T13:07:40.10</time>
<name>510</name>
<sym>Dot</sym>
</trkpt>
<trkpt lat="48.886060" lon="20.119710">
<ele>1913.5</ele>
<desc>Speed 14.5 km/h Distance 1.22 km</desc>
<time>2013-07-23T13:07:41.10</time>
<name>511</name>
<sym>Dot</sym>
</trkpt>
<trkpt lat="48.886052" lon="20.119665">
<ele>1913.5</ele>
<desc>Speed 12.6 km/h Distance 1.22 km</desc>
<time>2013-07-23T13:07:42.10</time>
<name>512</name>
<sym>Dot</sym>
</trkpt>
<trkpt lat="48.886045" lon="20.119620">
<ele>1913.5</ele>
<desc>Speed 11.6 km/h Distance 1.22 km</desc>
<time>2013-07-23T13:07:43.10</time>
<name>513</name>
<sym>Dot</sym>
</trkpt>
<trkpt lat="48.886043" lon="20.119577">
<ele>1913.5</ele>
<desc>Speed 11.8 km/h Distance 1.23 km</desc>
<time>2013-07-23T13:07:44.09</time>
<name>514</name>
<sym>Dot</sym>
</trkpt>
<trkpt lat="48.886037" lon="20.119533">
<ele>1913.5</ele>
<desc>Speed 11.7 km/h Distance 1.23 km</desc>
<time>2013-07-23T13:07:45.09</time>
<name>515</name>
<sym>Dot</sym>
</trkpt>
<trkpt lat="48.886028" lon="20.119488">
<ele>1913.5</ele>
<desc>Speed 12.2 km/h Distance 1.23 km</desc>
<time>2013-07-23T13:07:46.09</time>
<name>516</name>
<sym>Dot</sym>
</trkpt>
<trkpt lat="48.886020" lon="20.119442">
<ele>1913.5</ele>
<desc>Speed 12.9 km/h Distance 1.24 km</desc>
<time>2013-07-23T13:07:47.26</time>
<name>517</name>
<sym>Dot</sym>
</trkpt>
<trkpt lat="48.886012" lon="20.119393">
<ele>1913.5</ele>
<desc>Speed 12.7 km/h Distance 1.24 km</desc>
<time>2013-07-23T13:07:48.08</time>
<name>518</name>
<sym>Dot</sym>
</trkpt>
<trkpt lat="48.886005" lon="20.119343">
<ele>1914.0</ele>
<desc>Speed 13.4 km/h Distance 1.25 km</desc>
<time>2013-07-23T13:07:49.08</time>
<name>519</name>
<sym>Dot</sym>
</trkpt>
<trkpt lat="48.885995" lon="20.119295">
<ele>1914.5</ele>
<desc>Speed 12.9 km/h Distance 1.25 km</desc>
<time>2013-07-23T13:07:50.09</time>
<name>520</name>
<sym>Dot</sym>
</trkpt>
<trkpt lat="48.885987" lon="20.119245">
<ele>1914.5</ele>
<desc>Speed 13.3 km/h Distance 1.25 km</desc>
<time>2013-07-23T13:07:51.08</time>
<name>521</name>
<sym>Dot</sym>
</trkpt>
<trkpt lat="48.885977" lon="20.119195">
<ele>1914.0</ele>
<desc>Speed 13.4 km/h Distance 1.26 km</desc>
<time>2013-07-23T13:07:52.18</time>
<name>522</name>
<sym>Dot</sym>
</trkpt>
<trkpt lat="48.885970" lon="20.119145">
<ele>1914.0</ele>
<desc>Speed 13.1 km/h Distance 1.26 km</desc>
<time>2013-07-23T13:07:53.07</time>
<name>523</name>
<sym>Dot</sym>
</trkpt>
<trkpt lat="48.885963" lon="20.119093">
<ele>1914.0</ele>
<desc>Speed 13.8 km/h Distance 1.26 km</desc>
<time>2013-07-23T13:07:54.06</time>
<name>524</name>
<sym>Dot</sym>
</trkpt>
<trkpt lat="48.885960" lon="20.119035">
<ele>1913.5</ele>
<desc>Speed 14.9 km/h Distance 1.27 km</desc>
<time>2013-07-23T13:07:55.06</time>
<name>525</name>
<sym>Dot</sym>
</trkpt>
<trkpt lat="48.885953" lon="20.118977">
<ele>1913.5</ele>
<desc>Speed 15.3 km/h Distance 1.27 km</desc>
<time>2013-07-23T13:07:56.06</time>
<name>526</name>
<sym>Dot</sym>
</trkpt>
<trkpt lat="48.885943" lon="20.118923">
<ele>1913.5</ele>
<desc>Speed 14.5 km/h Distance 1.28 km</desc>
<time>2013-07-23T13:07:57.11</time>
<name>527</name>
<sym>Dot</sym>
</trkpt>
<trkpt lat="48.885937" lon="20.118870">
<ele>1913.0</ele>
<desc>Speed 14.1 km/h Distance 1.28 km</desc>
<time>2013-07-23T13:07:58.05</time>
<name>528</name>
<sym>Dot</sym>
</trkpt>
<trkpt lat="48.885928" lon="20.118817">
<ele>1913.0</ele>
<desc>Speed 14.3 km/h Distance 1.28 km</desc>
<time>2013-07-23T13:07:59.04</time>
<name>529</name>
<sym>Dot</sym>
</trkpt>
<trkpt lat="48.885920" lon="20.118765">
<ele>1912.0</ele>
<desc>Speed 13.2 km/h Distance 1.29 km</desc>
<time>2013-07-23T13:08:00.04</time>
<name>530</name>
<sym>Dot</sym>
</trkpt>
<trkpt lat="48.885918" lon="20.118718">
<ele>1911.0</ele>
<desc>Speed 12.0 km/h Distance 1.29 km</desc>
<time>2013-07-23T13:08:01.03</time>
<name>531</name>
<sym>Dot</sym>
</trkpt>
<trkpt lat="48.885918" lon="20.118682">
<ele>1911.0</ele>
<desc>Speed 9.2 km/h Distance 1.29 km</desc>
<time>2013-07-23T13:08:02.03</time>
<name>532</name>
<sym>Dot</sym>
</trkpt>
<trkpt lat="48.885920" lon="20.118655">
<ele>1911.0</ele>
<desc>Speed 6.9 km/h Distance 1.30 km</desc>
<time>2013-07-23T13:08:03.03</time>
<name>533</name>
<sym>Dot</sym>
</trkpt>
<trkpt lat="48.885922" lon="20.118635">
<ele>1910.5</ele>
<desc>Speed 5.5 km/h Distance 1.30 km</desc>
<time>2013-07-23T13:08:04.02</time>
<name>534</name>
<sym>Dot</sym>
</trkpt>
<trkpt lat="48.885925" lon="20.118608">
<ele>1910.5</ele>
<desc>Speed 6.8 km/h Distance 1.30 km</desc>
<time>2013-07-23T13:08:05.02</time>
<name>535</name>
<sym>Dot</sym>
</trkpt>
<trkpt lat="48.885927" lon="20.118590">
<ele>1910.0</ele>
<desc>Speed 5.3 km/h Distance 1.30 km</desc>
<time>2013-07-23T13:08:06.02</time>
<name>536</name>
<sym>Dot</sym>
</trkpt>
<trkpt lat="48.885930" lon="20.118563">
<ele>1909.5</ele>
<desc>Speed 5.8 km/h Distance 1.30 km</desc>
<time>2013-07-23T13:08:07.06</time>
<name>537</name>
<sym>Dot</sym>
</trkpt>
<trkpt lat="48.885933" lon="20.118538">
<ele>1909.5</ele>
<desc>Speed 5.6 km/h Distance 1.31 km</desc>
<time>2013-07-23T13:08:08.01</time>
<name>538</name>
<sym>Dot</sym>
</trkpt>
<trkpt lat="48.885935" lon="20.118515">
<ele>1909.0</ele>
<desc>Speed 5.5 km/h Distance 1.31 km</desc>
<time>2013-07-23T13:08:09.01</time>
<name>539</name>
<sym>Dot</sym>
</trkpt>
<trkpt lat="48.885940" lon="20.118495">
<ele>1909.0</ele>
<desc>Speed 5.3 km/h Distance 1.31 km</desc>
<time>2013-07-23T13:08:10.01</time>
<name>540</name>
<sym>Dot</sym>
</trkpt>
<trkpt lat="48.885942" lon="20.118475">
<ele>1909.0</ele>
<desc>Speed 5.4 km/h Distance 1.31 km</desc>
<time>2013-07-23T13:08:11.01</time>
<name>541</name>
<sym>Dot</sym>
</trkpt>
<trkpt lat="48.885940" lon="20.118455">
<ele>1908.5</ele>
<desc>Speed 5.6 km/h Distance 1.31 km</desc>
<time>2013-07-23T13:08:12.01</time>
<name>542</name>
<sym>Dot</sym>
</trkpt>
<trkpt lat="48.885937" lon="20.118440">
<ele>1908.5</ele>
<desc>Speed 3.7 km/h Distance 1.31 km</desc>
<time>2013-07-23T13:08:13.00</time>
<name>543</name>
<sym>Dot</sym>
</trkpt>
<trkpt lat="48.885937" lon="20.118430">
<ele>1908.5</ele>
<desc>Speed 2.6 km/h Distance 1.31 km</desc>
<time>2013-07-23T13:08:14.00</time>
<name>544</name>
<sym>Dot</sym>
</trkpt>
<trkpt lat="48.885928" lon="20.118405">
<ele>1908.0</ele>
<desc>Speed 3.1 km/h Distance 1.32 km</desc>
<time>2013-07-23T13:08:18.02</time>
<name>545</name>
<sym>Dot</sym>
</trkpt>
<trkpt lat="48.885927" lon="20.118383">
<ele>1907.5</ele>
<desc>Speed 4.5 km/h Distance 1.32 km</desc>
<time>2013-07-23T13:08:18.99</time>
<name>546</name>
<sym>Dot</sym>
</trkpt>
<trkpt lat="48.885922" lon="20.118367">
<ele>1907.0</ele>
<desc>Speed 4.3 km/h Distance 1.32 km</desc>
<time>2013-07-23T13:08:19.99</time>
<name>547</name>
<sym>Dot</sym>
</trkpt>
<trkpt lat="48.885913" lon="20.118353">
<ele>1907.0</ele>
<desc>Speed 4.6 km/h Distance 1.32 km</desc>
<time>2013-07-23T13:08:20.99</time>
<name>548</name>
<sym>Dot</sym>
</trkpt>
<trkpt lat="48.885912" lon="20.118337">
<ele>1906.5</ele>
<desc>Speed 4.2 km/h Distance 1.32 km</desc>
<time>2013-07-23T13:08:21.99</time>
<name>549</name>
<sym>Dot</sym>
</trkpt>
<trkpt lat="48.885907" lon="20.118317">
<ele>1906.0</ele>
<desc>Speed 4.9 km/h Distance 1.32 km</desc>
<time>2013-07-23T13:08:22.98</time>
<name>550</name>
<sym>Dot</sym>
</trkpt>
<trkpt lat="48.885905" lon="20.118297">
<ele>1906.0</ele>
<desc>Speed 5.4 km/h Distance 1.32 km</desc>
<time>2013-07-23T13:08:24.02</time>
<name>551</name>
<sym>Dot</sym>
</trkpt>
<trkpt lat="48.885905" lon="20.118273">
<ele>1905.0</ele>
<desc>Speed 6.7 km/h Distance 1.33 km</desc>
<time>2013-07-23T13:08:24.98</time>
<name>552</name>
<sym>Dot</sym>
</trkpt>
<trkpt lat="48.885912" lon="20.118245">
<ele>1904.0</ele>
<desc>Speed 7.4 km/h Distance 1.33 km</desc>
<time>2013-07-23T13:08:25.98</time>
<name>553</name>
<sym>Dot</sym>
</trkpt>
<trkpt lat="48.885918" lon="20.118237">
<ele>1904.0</ele>
<desc>Speed 2.2 km/h Distance 1.33 km</desc>
<time>2013-07-23T13:08:26.97</time>
<name>554</name>
<sym>Dot</sym>
</trkpt>
<trkpt lat="48.885900" lon="20.118168">
<ele>1906.0</ele>
<desc>Speed 10.4 km/h Distance 1.33 km</desc>
<time>2013-07-23T13:08:31.97</time>
<name>555</name>
<sym>Dot</sym>
</trkpt>
<trkpt lat="48.885893" lon="20.118128">
<ele>1906.0</ele>
<desc>Speed 11.2 km/h Distance 1.34 km</desc>
<time>2013-07-23T13:08:32.97</time>
<name>556</name>
<sym>Dot</sym>
</trkpt>
<trkpt lat="48.885887" lon="20.118088">
<ele>1906.0</ele>
<desc>Speed 11.3 km/h Distance 1.34 km</desc>
<time>2013-07-23T13:08:33.96</time>
<name>557</name>
<sym>Dot</sym>
</trkpt>
<trkpt lat="48.885875" lon="20.118042">
<ele>1906.0</ele>
<desc>Speed 13.3 km/h Distance 1.34 km</desc>
<time>2013-07-23T13:08:34.96</time>
<name>558</name>
<sym>Dot</sym>
</trkpt>
<trkpt lat="48.885865" lon="20.117993">
<ele>1905.5</ele>
<desc>Speed 14.0 km/h Distance 1.35 km</desc>
<time>2013-07-23T13:08:36.12</time>
<name>559</name>
<sym>Dot</sym>
</trkpt>
<trkpt lat="48.885853" lon="20.117943">
<ele>1905.5</ele>
<desc>Speed 14.1 km/h Distance 1.35 km</desc>
<time>2013-07-23T13:08:36.95</time>
<name>560</name>
<sym>Dot</sym>
</trkpt>
<trkpt lat="48.885845" lon="20.117893">
<ele>1905.5</ele>
<desc>Speed 14.7 km/h Distance 1.36 km</desc>
<time>2013-07-23T13:08:37.94</time>
<name>561</name>
<sym>Dot</sym>
</trkpt>
<trkpt lat="48.885832" lon="20.117837">
<ele>1905.5</ele>
<desc>Speed 15.8 km/h Distance 1.36 km</desc>
<time>2013-07-23T13:08:38.94</time>
<name>562</name>
<sym>Dot</sym>
</trkpt>
<trkpt lat="48.885818" lon="20.117775">
<ele>1905.5</ele>
<desc>Speed 17.0 km/h Distance 1.36 km</desc>
<time>2013-07-23T13:08:39.94</time>
<name>563</name>
<sym>Dot</sym>
</trkpt>
<trkpt lat="48.885805" lon="20.117718">
<ele>1905.5</ele>
<desc>Speed 16.0 km/h Distance 1.37 km</desc>
<time>2013-07-23T13:08:40.94</time>
<name>564</name>
<sym>Dot</sym>
</trkpt>
<trkpt lat="48.885797" lon="20.117660">
<ele>1905.0</ele>
<desc>Speed 15.8 km/h Distance 1.37 km</desc>
<time>2013-07-23T13:08:41.94</time>
<name>565</name>
<sym>Dot</sym>
</trkpt>
<trkpt lat="48.885787" lon="20.117598">
<ele>1905.0</ele>
<desc>Speed 16.4 km/h Distance 1.38 km</desc>
<time>2013-07-23T13:08:42.93</time>
<name>566</name>
<sym>Dot</sym>
</trkpt>
<trkpt lat="48.885770" lon="20.117542">
<ele>1905.0</ele>
<desc>Speed 16.7 km/h Distance 1.38 km</desc>
<time>2013-07-23T13:08:43.93</time>
<name>567</name>
<sym>Dot</sym>
</trkpt>
<trkpt lat="48.885767" lon="20.117493">
<ele>1903.0</ele>
<desc>Speed 5.7 km/h Distance 1.39 km</desc>
<time>2013-07-23T13:08:45.93</time>
<name>568</name>
<sym>Dot</sym>
</trkpt>
<trkpt lat="48.885762" lon="20.117473">
<ele>1902.5</ele>
<desc>Speed 5.8 km/h Distance 1.39 km</desc>
<time>2013-07-23T13:08:46.93</time>
<name>569</name>
<sym>Dot</sym>
</trkpt>
<trkpt lat="48.885758" lon="20.117450">
<ele>1902.5</ele>
<desc>Speed 6.4 km/h Distance 1.39 km</desc>
<time>2013-07-23T13:08:47.92</time>
<name>570</name>
<sym>Dot</sym>
</trkpt>
<trkpt lat="48.885752" lon="20.117417">
<ele>1902.5</ele>
<desc>Speed 9.0 km/h Distance 1.39 km</desc>
<time>2013-07-23T13:08:48.92</time>
<name>571</name>
<sym>Dot</sym>
</trkpt>
<trkpt lat="48.885750" lon="20.117377">
<ele>1902.0</ele>
<desc>Speed 10.7 km/h Distance 1.39 km</desc>
<time>2013-07-23T13:08:49.91</time>
<name>572</name>
<sym>Dot</sym>
</trkpt>
<trkpt lat="48.885747" lon="20.117333">
<ele>1901.5</ele>
<desc>Speed 11.7 km/h Distance 1.40 km</desc>
<time>2013-07-23T13:08:50.91</time>
<name>573</name>
<sym>Dot</sym>
</trkpt>
<trkpt lat="48.885742" lon="20.117283">
<ele>1901.5</ele>
<desc>Speed 13.2 km/h Distance 1.40 km</desc>
<time>2013-07-23T13:08:51.91</time>
<name>574</name>
<sym>Dot</sym>
</trkpt>
<trkpt lat="48.885735" lon="20.117228">
<ele>1901.0</ele>
<desc>Speed 14.4 km/h Distance 1.41 km</desc>
<time>2013-07-23T13:08:52.91</time>
<name>575</name>
<sym>Dot</sym>
</trkpt>
<trkpt lat="48.885730" lon="20.117172">
<ele>1901.0</ele>
<desc>Speed 15.3 km/h Distance 1.41 km</desc>
<time>2013-07-23T13:08:53.90</time>
<name>576</name>
<sym>Dot</sym>
</trkpt>
<trkpt lat="48.885725" lon="20.117107">
<ele>1900.0</ele>
<desc>Speed 17.3 km/h Distance 1.41 km</desc>
<time>2013-07-23T13:08:54.90</time>
<name>577</name>
<sym>Dot</sym>
</trkpt>
<trkpt lat="48.885717" lon="20.117038">
<ele>1899.5</ele>
<desc>Speed 18.3 km/h Distance 1.42 km</desc>
<time>2013-07-23T13:08:56.03</time>
<name>578</name>
<sym>Dot</sym>
</trkpt>
<trkpt lat="48.885708" lon="20.116967">
<ele>1898.5</ele>
<desc>Speed 19.2 km/h Distance 1.43 km</desc>
<time>2013-07-23T13:08:56.88</time>
<name>579</name>
<sym>Dot</sym>
</trkpt>
<trkpt lat="48.885700" lon="20.116893">
<ele>1898.5</ele>
<desc>Speed 20.1 km/h Distance 1.43 km</desc>
<time>2013-07-23T13:08:57.88</time>
<name>580</name>
<sym>Dot</sym>
</trkpt>
<trkpt lat="48.885685" lon="20.116822">
<ele>1898.0</ele>
<desc>Speed 19.8 km/h Distance 1.44 km</desc>
<time>2013-07-23T13:08:58.88</time>
<name>581</name>
<sym>Dot</sym>
</trkpt>
<trkpt lat="48.885675" lon="20.116757">
<ele>1897.5</ele>
<desc>Speed 17.8 km/h Distance 1.44 km</desc>
<time>2013-07-23T13:08:59.88</time>
<name>582</name>
<sym>Dot</sym>
</trkpt>
<trkpt lat="48.885678" lon="20.116685">
<ele>1896.0</ele>
<desc>Speed 19.2 km/h Distance 1.45 km</desc>
<time>2013-07-23T13:09:00.87</time>
<name>583</name>
<sym>Dot</sym>
</trkpt>
<trkpt lat="48.885683" lon="20.116612">
<ele>1895.5</ele>
<desc>Speed 19.7 km/h Distance 1.45 km</desc>
<time>2013-07-23T13:09:01.87</time>
<name>584</name>
<sym>Dot</sym>
</trkpt>
<trkpt lat="48.885690" lon="20.116535">
<ele>1895.5</ele>
<desc>Speed 20.6 km/h Distance 1.46 km</desc>
<time>2013-07-23T13:09:02.87</time>
<name>585</name>
<sym>Dot</sym>
</trkpt>
<trkpt lat="48.885695" lon="20.116458">
<ele>1895.0</ele>
<desc>Speed 20.6 km/h Distance 1.46 km</desc>
<time>2013-07-23T13:09:03.94</time>
<name>586</name>
<sym>Dot</sym>
</trkpt>
<trkpt lat="48.885695" lon="20.116385">
<ele>1895.0</ele>
<desc>Speed 19.2 km/h Distance 1.47 km</desc>
<time>2013-07-23T13:09:04.95</time>
<name>587</name>
<sym>Dot</sym>
</trkpt>
<trkpt lat="48.885695" lon="20.116317">
<ele>1894.5</ele>
<desc>Speed 18.8 km/h Distance 1.47 km</desc>
<time>2013-07-23T13:09:05.86</time>
<name>588</name>
<sym>Dot</sym>
</trkpt>
<trkpt lat="48.885695" lon="20.116247">
<ele>1894.0</ele>
<desc>Speed 18.5 km/h Distance 1.48 km</desc>
<time>2013-07-23T13:09:06.86</time>
<name>589</name>
<sym>Dot</sym>
</trkpt>
<trkpt lat="48.885695" lon="20.116180">
<ele>1894.0</ele>
<desc>Speed 17.6 km/h Distance 1.48 km</desc>
<time>2013-07-23T13:09:07.85</time>
<name>590</name>
<sym>Dot</sym>
</trkpt>
<trkpt lat="48.885683" lon="20.116112">
<ele>1893.5</ele>
<desc>Speed 18.4 km/h Distance 1.49 km</desc>
<time>2013-07-23T13:09:08.85</time>
<name>591</name>
<sym>Dot</sym>
</trkpt>
<trkpt lat="48.885673" lon="20.116048">
<ele>1893.0</ele>
<desc>Speed 17.2 km/h Distance 1.49 km</desc>
<time>2013-07-23T13:09:09.95</time>
<name>592</name>
<sym>Dot</sym>
</trkpt>
<trkpt lat="48.885668" lon="20.115982">
<ele>1892.5</ele>
<desc>Speed 17.4 km/h Distance 1.50 km</desc>
<time>2013-07-23T13:09:10.84</time>
<name>593</name>
<sym>Dot</sym>
</trkpt>
<trkpt lat="48.885660" lon="20.115917">
<ele>1892.5</ele>
<desc>Speed 17.5 km/h Distance 1.50 km</desc>
<time>2013-07-23T13:09:11.83</time>
<name>594</name>
<sym>Dot</sym>
</trkpt>
<trkpt lat="48.885658" lon="20.115850">
<ele>1892.5</ele>
<desc>Speed 17.5 km/h Distance 1.51 km</desc>
<time>2013-07-23T13:09:12.83</time>
<name>595</name>
<sym>Dot</sym>
</trkpt>
<trkpt lat="48.885667" lon="20.115783">
<ele>1892.5</ele>
<desc>Speed 18.3 km/h Distance 1.51 km</desc>
<time>2013-07-23T13:09:13.82</time>
<name>596</name>
<sym>Dot</sym>
</trkpt>
<trkpt lat="48.885672" lon="20.115713">
<ele>1892.0</ele>
<desc>Speed 18.5 km/h Distance 1.52 km</desc>
<time>2013-07-23T13:09:14.82</time>
<name>597</name>
<sym>Dot</sym>
</trkpt>
<trkpt lat="48.885677" lon="20.115648">
<ele>1892.0</ele>
<desc>Speed 17.1 km/h Distance 1.52 km</desc>
<time>2013-07-23T13:09:15.81</time>
<name>598</name>
<sym>Dot</sym>
</trkpt>
<trkpt lat="48.885685" lon="20.115582">
<ele>1891.5</ele>
<desc>Speed 17.8 km/h Distance 1.53 km</desc>
<time>2013-07-23T13:09:16.81</time>
<name>599</name>
<sym>Dot</sym>
</trkpt>
<trkpt lat="48.885687" lon="20.115513">
<ele>1891.0</ele>
<desc>Speed 17.8 km/h Distance 1.53 km</desc>
<time>2013-07-23T13:09:17.80</time>
<name>600</name>
<sym>Dot</sym>
</trkpt>
<trkpt lat="48.885687" lon="20.115447">
<ele>1890.5</ele>
<desc>Speed 17.4 km/h Distance 1.54 km</desc>
<time>2013-07-23T13:09:18.80</time>
<name>601</name>
<sym>Dot</sym>
</trkpt>
<trkpt lat="48.885688" lon="20.115377">
<ele>1890.0</ele>
<desc>Speed 18.3 km/h Distance 1.54 km</desc>
<time>2013-07-23T13:09:19.79</time>
<name>602</name>
<sym>Dot</sym>
</trkpt>
<trkpt lat="48.885690" lon="20.115308">
<ele>1890.0</ele>
<desc>Speed 17.8 km/h Distance 1.55 km</desc>
<time>2013-07-23T13:09:20.78</time>
<name>603</name>
<sym>Dot</sym>
</trkpt>
<trkpt lat="48.885700" lon="20.115242">
<ele>1889.5</ele>
<desc>Speed 18.0 km/h Distance 1.55 km</desc>
<time>2013-07-23T13:09:21.79</time>
<name>604</name>
<sym>Dot</sym>
</trkpt>
<trkpt lat="48.885705" lon="20.115170">
<ele>1889.5</ele>
<desc>Speed 18.9 km/h Distance 1.56 km</desc>
<time>2013-07-23T13:09:22.78</time>
<name>605</name>
<sym>Dot</sym>
</trkpt>
<trkpt lat="48.885708" lon="20.115100">
<ele>1889.0</ele>
<desc>Speed 18.5 km/h Distance 1.56 km</desc>
<time>2013-07-23T13:09:23.79</time>
<name>606</name>
<sym>Dot</sym>
</trkpt>
<trkpt lat="48.885717" lon="20.115035">
<ele>1889.0</ele>
<desc>Speed 17.8 km/h Distance 1.57 km</desc>
<time>2013-07-23T13:09:24.78</time>
<name>607</name>
<sym>Dot</sym>
</trkpt>
<trkpt lat="48.885722" lon="20.114973">
<ele>1888.5</ele>
<desc>Speed 16.5 km/h Distance 1.57 km</desc>
<time>2013-07-23T13:09:25.78</time>
<name>608</name>
<sym>Dot</sym>
</trkpt>
<trkpt lat="48.885727" lon="20.114910">
<ele>1888.0</ele>
<desc>Speed 16.7 km/h Distance 1.58 km</desc>
<time>2013-07-23T13:09:26.78</time>
<name>609</name>
<sym>Dot</sym>
</trkpt>
<trkpt lat="48.885728" lon="20.114850">
<ele>1888.0</ele>
<desc>Speed 15.9 km/h Distance 1.58 km</desc>
<time>2013-07-23T13:09:27.77</time>
<name>610</name>
<sym>Dot</sym>
</trkpt>
<trkpt lat="48.885735" lon="20.114795">
<ele>1887.5</ele>
<desc>Speed 15.1 km/h Distance 1.59 km</desc>
<time>2013-07-23T13:09:28.77</time>
<name>611</name>
<sym>Dot</sym>
</trkpt>
<trkpt lat="48.885740" lon="20.114742">
<ele>1887.5</ele>
<desc>Speed 14.1 km/h Distance 1.59 km</desc>
<time>2013-07-23T13:09:29.77</time>
<name>612</name>
<sym>Dot</sym>
</trkpt>
<trkpt lat="48.885743" lon="20.114693">
<ele>1887.5</ele>
<desc>Speed 13.2 km/h Distance 1.59 km</desc>
<time>2013-07-23T13:09:30.76</time>
<name>613</name>
<sym>Dot</sym>
</trkpt>
<trkpt lat="48.885750" lon="20.114645">
<ele>1887.5</ele>
<desc>Speed 13.0 km/h Distance 1.60 km</desc>
<time>2013-07-23T13:09:31.76</time>
<name>614</name>
<sym>Dot</sym>
</trkpt>
<trkpt lat="48.885755" lon="20.114595">
<ele>1887.5</ele>
<desc>Speed 13.6 km/h Distance 1.60 km</desc>
<time>2013-07-23T13:09:32.75</time>
<name>615</name>
<sym>Dot</sym>
</trkpt>
<trkpt lat="48.885763" lon="20.114543">
<ele>1887.5</ele>
<desc>Speed 13.9 km/h Distance 1.60 km</desc>
<time>2013-07-23T13:09:33.75</time>
<name>616</name>
<sym>Dot</sym>
</trkpt>
<trkpt lat="48.885773" lon="20.114490">
<ele>1887.5</ele>
<desc>Speed 14.7 km/h Distance 1.61 km</desc>
<time>2013-07-23T13:09:34.74</time>
<name>617</name>
<sym>Dot</sym>
</trkpt>
<trkpt lat="48.885783" lon="20.114435">
<ele>1887.5</ele>
<desc>Speed 14.4 km/h Distance 1.61 km</desc>
<time>2013-07-23T13:09:35.74</time>
<name>618</name>
<sym>Dot</sym>
</trkpt>
<trkpt lat="48.885788" lon="20.114382">
<ele>1887.0</ele>
<desc>Speed 14.2 km/h Distance 1.62 km</desc>
<time>2013-07-23T13:09:36.74</time>
<name>619</name>
<sym>Dot</sym>
</trkpt>
<trkpt lat="48.885793" lon="20.114325">
<ele>1886.5</ele>
<desc>Speed 14.8 km/h Distance 1.62 km</desc>
<time>2013-07-23T13:09:37.73</time>
<name>620</name>
<sym>Dot</sym>
</trkpt>
<trkpt lat="48.885800" lon="20.114268">
<ele>1886.0</ele>
<desc>Speed 14.3 km/h Distance 1.63 km</desc>
<time>2013-07-23T13:09:38.73</time>
<name>621</name>
<sym>Dot</sym>
</trkpt>
<trkpt lat="48.885808" lon="20.114217">
<ele>1886.0</ele>
<desc>Speed 14.4 km/h Distance 1.63 km</desc>
<time>2013-07-23T13:09:39.72</time>
<name>622</name>
<sym>Dot</sym>
</trkpt>
<trkpt lat="48.885813" lon="20.114143">
<ele>1884.0</ele>
<desc>Speed 19.2 km/h Distance 1.63 km</desc>
<time>2013-07-23T13:09:40.71</time>
<name>623</name>
<sym>Dot</sym>
</trkpt>
<trkpt lat="48.885822" lon="20.114098">
<ele>1884.0</ele>
<desc>Speed 12.6 km/h Distance 1.64 km</desc>
<time>2013-07-23T13:09:41.71</time>
<name>624</name>
<sym>Dot</sym>
</trkpt>
<trkpt lat="48.885828" lon="20.114050">
<ele>1884.0</ele>
<desc>Speed 13.4 km/h Distance 1.64 km</desc>
<time>2013-07-23T13:09:42.70</time>
<name>625</name>
<sym>Dot</sym>
</trkpt>
<trkpt lat="48.885840" lon="20.114005">
<ele>1884.0</ele>
<desc>Speed 12.7 km/h Distance 1.65 km</desc>
<time>2013-07-23T13:09:43.69</time>
<name>626</name>
<sym>Dot</sym>
</trkpt>
<trkpt lat="48.885850" lon="20.113950">
<ele>1883.5</ele>
<desc>Speed 14.4 km/h Distance 1.65 km</desc>
<time>2013-07-23T13:09:44.69</time>
<name>627</name>
<sym>Dot</sym>
</trkpt>
<trkpt lat="48.885855" lon="20.113905">
<ele>1883.5</ele>
<desc>Speed 12.3 km/h Distance 1.65 km</desc>
<time>2013-07-23T13:09:45.68</time>
<name>628</name>
<sym>Dot</sym>
</trkpt>
<trkpt lat="48.885857" lon="20.113845">
<ele>1884.0</ele>
<desc>Speed 14.3 km/h Distance 1.66 km</desc>
<time>2013-07-23T13:09:46.68</time>
<name>629</name>
<sym>Dot</sym>
</trkpt>
<trkpt lat="48.885862" lon="20.113798">
<ele>1884.0</ele>
<desc>Speed 12.0 km/h Distance 1.66 km</desc>
<time>2013-07-23T13:09:47.67</time>
<name>630</name>
<sym>Dot</sym>
</trkpt>
<trkpt lat="48.885872" lon="20.113760">
<ele>1883.0</ele>
<desc>Speed 10.0 km/h Distance 1.66 km</desc>
<time>2013-07-23T13:09:48.67</time>
<name>631</name>
<sym>Dot</sym>
</trkpt>
<trkpt lat="48.885882" lon="20.113718">
<ele>1882.5</ele>
<desc>Speed 10.7 km/h Distance 1.67 km</desc>
<time>2013-07-23T13:09:49.67</time>
<name>632</name>
<sym>Dot</sym>
</trkpt>
<trkpt lat="48.885890" lon="20.113672">
<ele>1882.0</ele>
<desc>Speed 11.7 km/h Distance 1.67 km</desc>
<time>2013-07-23T13:09:50.66</time>
<name>633</name>
<sym>Dot</sym>
</trkpt>
<trkpt lat="48.885893" lon="20.113618">
<ele>1882.0</ele>
<desc>Speed 13.1 km/h Distance 1.67 km</desc>
<time>2013-07-23T13:09:51.65</time>
<name>634</name>
<sym>Dot</sym>
</trkpt>
<trkpt lat="48.885900" lon="20.113578">
<ele>1881.5</ele>
<desc>Speed 9.8 km/h Distance 1.68 km</desc>
<time>2013-07-23T13:09:52.65</time>
<name>635</name>
<sym>Dot</sym>
</trkpt>
<trkpt lat="48.885910" lon="20.113538">
<ele>1881.5</ele>
<desc>Speed 10.2 km/h Distance 1.68 km</desc>
<time>2013-07-23T13:09:53.64</time>
<name>636</name>
<sym>Dot</sym>
</trkpt>
<trkpt lat="48.885922" lon="20.113502">
<ele>1881.5</ele>
<desc>Speed 10.9 km/h Distance 1.68 km</desc>
<time>2013-07-23T13:09:54.64</time>
<name>637</name>
<sym>Dot</sym>
</trkpt>
<trkpt lat="48.885932" lon="20.113462">
<ele>1881.0</ele>
<desc>Speed 11.1 km/h Distance 1.69 km</desc>
<time>2013-07-23T13:09:55.64</time>
<name>638</name>
<sym>Dot</sym>
</trkpt>
<trkpt lat="48.885937" lon="20.113425">
<ele>1881.0</ele>
<desc>Speed 10.3 km/h Distance 1.69 km</desc>
<time>2013-07-23T13:09:56.64</time>
<name>639</name>
<sym>Dot</sym>
</trkpt>
<trkpt lat="48.885945" lon="20.113392">
<ele>1881.0</ele>
<desc>Speed 10.0 km/h Distance 1.69 km</desc>
<time>2013-07-23T13:09:57.63</time>
<name>640</name>
<sym>Dot</sym>
</trkpt>
<trkpt lat="48.885955" lon="20.113350">
<ele>1880.5</ele>
<desc>Speed 11.8 km/h Distance 1.70 km</desc>
<time>2013-07-23T13:09:58.63</time>
<name>641</name>
<sym>Dot</sym>
</trkpt>
<trkpt lat="48.885968" lon="20.113308">
<ele>1880.0</ele>
<desc>Speed 13.0 km/h Distance 1.70 km</desc>
<time>2013-07-23T13:09:59.62</time>
<name>642</name>
<sym>Dot</sym>
</trkpt>
<trkpt lat="48.885980" lon="20.113267">
<ele>1880.0</ele>
<desc>Speed 11.8 km/h Distance 1.70 km</desc>
<time>2013-07-23T13:10:00.61</time>
<name>643</name>
<sym>Dot</sym>
</trkpt>
<trkpt lat="48.885993" lon="20.113223">
<ele>1879.5</ele>
<desc>Speed 12.6 km/h Distance 1.71 km</desc>
<time>2013-07-23T13:10:01.61</time>
<name>644</name>
<sym>Dot</sym>
</trkpt>
<trkpt lat="48.886008" lon="20.113183">
<ele>1879.5</ele>
<desc>Speed 12.2 km/h Distance 1.71 km</desc>
<time>2013-07-23T13:10:02.61</time>
<name>645</name>
<sym>Dot</sym>
</trkpt>
<trkpt lat="48.886017" lon="20.113143">
<ele>1879.0</ele>
<desc>Speed 11.7 km/h Distance 1.71 km</desc>
<time>2013-07-23T13:10:03.60</time>
<name>646</name>
<sym>Dot</sym>
</trkpt>
<trkpt lat="48.886032" lon="20.113098">
<ele>1879.0</ele>
<desc>Speed 10.8 km/h Distance 1.72 km</desc>
<time>2013-07-23T13:10:05.61</time>
<name>647</name>
<sym>Dot</sym>
</trkpt>
<trkpt lat="48.886043" lon="20.113057">
<ele>1879.0</ele>
<desc>Speed 12.1 km/h Distance 1.72 km</desc>
<time>2013-07-23T13:10:06.59</time>
<name>648</name>
<sym>Dot</sym>
</trkpt>
<trkpt lat="48.886052" lon="20.113013">
<ele>1879.0</ele>
<desc>Speed 12.1 km/h Distance 1.72 km</desc>
<time>2013-07-23T13:10:07.59</time>
<name>649</name>
<sym>Dot</sym>
</trkpt>
<trkpt lat="48.886055" lon="20.112978">
<ele>1878.5</ele>
<desc>Speed 9.6 km/h Distance 1.72 km</desc>
<time>2013-07-23T13:10:08.59</time>
<name>650</name>
<sym>Dot</sym>
</trkpt>
<trkpt lat="48.886067" lon="20.112942">
<ele>1878.5</ele>
<desc>Speed 10.8 km/h Distance 1.73 km</desc>
<time>2013-07-23T13:10:09.59</time>
<name>651</name>
<sym>Dot</sym>
</trkpt>
<trkpt lat="48.886075" lon="20.112902">
<ele>1878.5</ele>
<desc>Speed 11.8 km/h Distance 1.73 km</desc>
<time>2013-07-23T13:10:10.78</time>
<name>652</name>
<sym>Dot</sym>
</trkpt>
<trkpt lat="48.886082" lon="20.112862">
<ele>1878.5</ele>
<desc>Speed 11.1 km/h Distance 1.73 km</desc>
<time>2013-07-23T13:10:11.57</time>
<name>653</name>
<sym>Dot</sym>
</trkpt>
<trkpt lat="48.886092" lon="20.112825">
<ele>1878.0</ele>
<desc>Speed 10.7 km/h Distance 1.74 km</desc>
<time>2013-07-23T13:10:12.57</time>
<name>654</name>
<sym>Dot</sym>
</trkpt>
<trkpt lat="48.886102" lon="20.112790">
<ele>1878.0</ele>
<desc>Speed 10.6 km/h Distance 1.74 km</desc>
<time>2013-07-23T13:10:13.57</time>
<name>655</name>
<sym>Dot</sym>
</trkpt>
<trkpt lat="48.886110" lon="20.112753">
<ele>1878.0</ele>
<desc>Speed 10.1 km/h Distance 1.74 km</desc>
<time>2013-07-23T13:10:14.57</time>
<name>656</name>
<sym>Dot</sym>
</trkpt>
<trkpt lat="48.886118" lon="20.112713">
<ele>1876.5</ele>
<desc>Speed 10.5 km/h Distance 1.75 km</desc>
<time>2013-07-23T13:10:15.56</time>
<name>657</name>
<sym>Dot</sym>
</trkpt>
<trkpt lat="48.886125" lon="20.112683">
<ele>1876.5</ele>
<desc>Speed 7.8 km/h Distance 1.75 km</desc>
<time>2013-07-23T13:10:16.55</time>
<name>658</name>
<sym>Dot</sym>
</trkpt>
<trkpt lat="48.886130" lon="20.112653">
<ele>1876.0</ele>
<desc>Speed 7.3 km/h Distance 1.75 km</desc>
<time>2013-07-23T13:10:17.55</time>
<name>659</name>
<sym>Dot</sym>
</trkpt>
<trkpt lat="48.886137" lon="20.112627">
<ele>1875.5</ele>
<desc>Speed 7.0 km/h Distance 1.75 km</desc>
<time>2013-07-23T13:10:18.54</time>
<name>660</name>
<sym>Dot</sym>
</trkpt>
<trkpt lat="48.886143" lon="20.112598">
<ele>1876.0</ele>
<desc>Speed 8.2 km/h Distance 1.75 km</desc>
<time>2013-07-23T13:10:19.54</time>
<name>661</name>
<sym>Dot</sym>
</trkpt>
<trkpt lat="48.886147" lon="20.112573">
<ele>1876.0</ele>
<desc>Speed 7.0 km/h Distance 1.76 km</desc>
<time>2013-07-23T13:10:20.53</time>
<name>662</name>
<sym>Dot</sym>
</trkpt>
<trkpt lat="48.886152" lon="20.112548">
<ele>1876.0</ele>
<desc>Speed 7.0 km/h Distance 1.76 km</desc>
<time>2013-07-23T13:10:21.53</time>
<name>663</name>
<sym>Dot</sym>
</trkpt>
<trkpt lat="48.886158" lon="20.112525">
<ele>1875.5</ele>
<desc>Speed 6.8 km/h Distance 1.76 km</desc>
<time>2013-07-23T13:10:22.52</time>
<name>664</name>
<sym>Dot</sym>
</trkpt>
<trkpt lat="48.886167" lon="20.112510">
<ele>1877.0</ele>
<desc>Speed 5.1 km/h Distance 1.76 km</desc>
<time>2013-07-23T13:10:23.52</time>
<name>665</name>
<sym>Dot</sym>
</trkpt>
<trkpt lat="48.886173" lon="20.112485">
<ele>1876.5</ele>
<desc>Speed 6.7 km/h Distance 1.76 km</desc>
<time>2013-07-23T13:10:24.51</time>
<name>666</name>
<sym>Dot</sym>
</trkpt>
<trkpt lat="48.886178" lon="20.112457">
<ele>1876.5</ele>
<desc>Speed 7.4 km/h Distance 1.77 km</desc>
<time>2013-07-23T13:10:25.51</time>
<name>667</name>
<sym>Dot</sym>
</trkpt>
<trkpt lat="48.886185" lon="20.112430">
<ele>1876.0</ele>
<desc>Speed 7.5 km/h Distance 1.77 km</desc>
<time>2013-07-23T13:10:26.51</time>
<name>668</name>
<sym>Dot</sym>
</trkpt>
<trkpt lat="48.886192" lon="20.112420">
<ele>1877.5</ele>
<desc>Speed 4.3 km/h Distance 1.77 km</desc>
<time>2013-07-23T13:10:27.50</time>
<name>669</name>
<sym>Dot</sym>
</trkpt>
<trkpt lat="48.886197" lon="20.112407">
<ele>1878.5</ele>
<desc>Speed 5.7 km/h Distance 1.77 km</desc>
<time>2013-07-23T13:10:28.50</time>
<name>670</name>
<sym>Dot</sym>
</trkpt>
<trkpt lat="48.886203" lon="20.112383">
<ele>1878.0</ele>
<desc>Speed 5.8 km/h Distance 1.77 km</desc>
<time>2013-07-23T13:10:29.49</time>
<name>671</name>
<sym>Dot</sym>
</trkpt>
<trkpt lat="48.886205" lon="20.112355">
<ele>1878.0</ele>
<desc>Speed 6.9 km/h Distance 1.77 km</desc>
<time>2013-07-23T13:10:30.49</time>
<name>672</name>
<sym>Dot</sym>
</trkpt>
<trkpt lat="48.886208" lon="20.112332">
<ele>1878.0</ele>
<desc>Speed 6.6 km/h Distance 1.78 km</desc>
<time>2013-07-23T13:10:31.48</time>
<name>673</name>
<sym>Dot</sym>
</trkpt>
<trkpt lat="48.886213" lon="20.112317">
<ele>1879.5</ele>
<desc>Speed 6.7 km/h Distance 1.78 km</desc>
<time>2013-07-23T13:10:32.48</time>
<name>674</name>
<sym>Dot</sym>
</trkpt>
<trkpt lat="48.886217" lon="20.112295">
<ele>1879.5</ele>
<desc>Speed 6.0 km/h Distance 1.78 km</desc>
<time>2013-07-23T13:10:33.47</time>
<name>675</name>
<sym>Dot</sym>
</trkpt>
<trkpt lat="48.886222" lon="20.112277">
<ele>1879.5</ele>
<desc>Speed 5.7 km/h Distance 1.78 km</desc>
<time>2013-07-23T13:10:34.46</time>
<name>676</name>
<sym>Dot</sym>
</trkpt>
<trkpt lat="48.886230" lon="20.112257">
<ele>1879.5</ele>
<desc>Speed 6.3 km/h Distance 1.78 km</desc>
<time>2013-07-23T13:10:35.46</time>
<name>677</name>
<sym>Dot</sym>
</trkpt>
<trkpt lat="48.886237" lon="20.112242">
<ele>1880.0</ele>
<desc>Speed 6.3 km/h Distance 1.78 km</desc>
<time>2013-07-23T13:10:36.45</time>
<name>678</name>
<sym>Dot</sym>
</trkpt>
<trkpt lat="48.886243" lon="20.112222">
<ele>1880.0</ele>
<desc>Speed 5.9 km/h Distance 1.78 km</desc>
<time>2013-07-23T13:10:37.45</time>
<name>679</name>
<sym>Dot</sym>
</trkpt>
<trkpt lat="48.886252" lon="20.112200">
<ele>1880.0</ele>
<desc>Speed 6.8 km/h Distance 1.79 km</desc>
<time>2013-07-23T13:10:38.45</time>
<name>680</name>
<sym>Dot</sym>
</trkpt>
<trkpt lat="48.886260" lon="20.112180">
<ele>1879.5</ele>
<desc>Speed 6.2 km/h Distance 1.79 km</desc>
<time>2013-07-23T13:10:39.45</time>
<name>681</name>
<sym>Dot</sym>
</trkpt>
<trkpt lat="48.886267" lon="20.112160">
<ele>1879.5</ele>
<desc>Speed 5.7 km/h Distance 1.79 km</desc>
<time>2013-07-23T13:10:40.44</time>
<name>682</name>
<sym>Dot</sym>
</trkpt>
<trkpt lat="48.886270" lon="20.112138">
<ele>1880.5</ele>
<desc>Speed 5.4 km/h Distance 1.79 km</desc>
<time>2013-07-23T13:10:41.43</time>
<name>683</name>
<sym>Dot</sym>
</trkpt>
<trkpt lat="48.886278" lon="20.112117">
<ele>1880.0</ele>
<desc>Speed 6.4 km/h Distance 1.79 km</desc>
<time>2013-07-23T13:10:42.43</time>
<name>684</name>
<sym>Dot</sym>
</trkpt>
<trkpt lat="48.886283" lon="20.112158">
<ele>1880.0</ele>
<desc>Speed 11.0 km/h Distance 1.80 km</desc>
<time>2013-07-23T13:10:43.43</time>
<name>685</name>
<sym>Dot</sym>
</trkpt>
<trkpt lat="48.886288" lon="20.112130">
<ele>1880.0</ele>
<desc>Speed 4.3 km/h Distance 1.80 km</desc>
<time>2013-07-23T13:10:45.43</time>
<name>686</name>
<sym>Dot</sym>
</trkpt>
<trkpt lat="48.886292" lon="20.112105">
<ele>1880.0</ele>
<desc>Speed 6.3 km/h Distance 1.80 km</desc>
<time>2013-07-23T13:10:46.43</time>
<name>687</name>
<sym>Dot</sym>
</trkpt>
<trkpt lat="48.886297" lon="20.112083">
<ele>1879.5</ele>
<desc>Speed 4.5 km/h Distance 1.80 km</desc>
<time>2013-07-23T13:10:47.42</time>
<name>688</name>
<sym>Dot</sym>
</trkpt>
<trkpt lat="48.886298" lon="20.112063">
<ele>1879.5</ele>
<desc>Speed 4.9 km/h Distance 1.80 km</desc>
<time>2013-07-23T13:10:48.42</time>
<name>689</name>
<sym>Dot</sym>
</trkpt>
<trkpt lat="48.886302" lon="20.112042">
<ele>1879.5</ele>
<desc>Speed 5.7 km/h Distance 1.80 km</desc>
<time>2013-07-23T13:10:49.42</time>
<name>690</name>
<sym>Dot</sym>
</trkpt>
<trkpt lat="48.886307" lon="20.112018">
<ele>1879.5</ele>
<desc>Speed 5.7 km/h Distance 1.81 km</desc>
<time>2013-07-23T13:10:50.42</time>
<name>691</name>
<sym>Dot</sym>
</trkpt>
<trkpt lat="48.886312" lon="20.111997">
<ele>1879.5</ele>
<desc>Speed 5.4 km/h Distance 1.81 km</desc>
<time>2013-07-23T13:10:51.42</time>
<name>692</name>
<sym>Dot</sym>
</trkpt>
<trkpt lat="48.886315" lon="20.111972">
<ele>1879.5</ele>
<desc>Speed 5.4 km/h Distance 1.81 km</desc>
<time>2013-07-23T13:10:52.41</time>
<name>693</name>
<sym>Dot</sym>
</trkpt>
<trkpt lat="48.886318" lon="20.111952">
<ele>1879.5</ele>
<desc>Speed 5.2 km/h Distance 1.81 km</desc>
<time>2013-07-23T13:10:53.40</time>
<name>694</name>
<sym>Dot</sym>
</trkpt>
<trkpt lat="48.886320" lon="20.111938">
<ele>1880.0</ele>
<desc>Speed 3.4 km/h Distance 1.81 km</desc>
<time>2013-07-23T13:10:54.40</time>
<name>695</name>
<sym>Dot</sym>
</trkpt>
<trkpt lat="48.886325" lon="20.111920">
<ele>1880.0</ele>
<desc>Speed 5.1 km/h Distance 1.81 km</desc>
<time>2013-07-23T13:10:55.40</time>
<name>696</name>
<sym>Dot</sym>
</trkpt>
<trkpt lat="48.886328" lon="20.111903">
<ele>1880.0</ele>
<desc>Speed 4.8 km/h Distance 1.82 km</desc>
<time>2013-07-23T13:10:56.40</time>
<name>697</name>
<sym>Dot</sym>
</trkpt>
<trkpt lat="48.886333" lon="20.111888">
<ele>1880.0</ele>
<desc>Speed 4.3 km/h Distance 1.82 km</desc>
<time>2013-07-23T13:10:57.40</time>
<name>698</name>
<sym>Dot</sym>
</trkpt>
<trkpt lat="48.886338" lon="20.111868">
<ele>1880.0</ele>
<desc>Speed 5.5 km/h Distance 1.82 km</desc>
<time>2013-07-23T13:10:58.40</time>
<name>699</name>
<sym>Dot</sym>
</trkpt>
<trkpt lat="48.886345" lon="20.111855">
<ele>1880.0</ele>
<desc>Speed 4.1 km/h Distance 1.82 km</desc>
<time>2013-07-23T13:10:59.39</time>
<name>700</name>
<sym>Dot</sym>
</trkpt>
<trkpt lat="48.886352" lon="20.111847">
<ele>1880.0</ele>
<desc>Speed 3.8 km/h Distance 1.82 km</desc>
<time>2013-07-23T13:11:00.38</time>
<name>701</name>
<sym>Dot</sym>
</trkpt>
<trkpt lat="48.886358" lon="20.111840">
<ele>1880.0</ele>
<desc>Speed 2.7 km/h Distance 1.82 km</desc>
<time>2013-07-23T13:11:01.38</time>
<name>702</name>
<sym>Dot</sym>
</trkpt>
<trkpt lat="48.886358" lon="20.111818">
<ele>1880.5</ele>
<desc>Speed 3.2 km/h Distance 1.82 km</desc>
<time>2013-07-23T13:11:26.46</time>
<name>703</name>
<sym>Dot</sym>
</trkpt>
<trkpt lat="48.886357" lon="20.111810">
<ele>1880.5</ele>
<desc>Speed 2.4 km/h Distance 1.82 km</desc>
<time>2013-07-23T13:11:27.37</time>
<name>704</name>
<sym>Dot</sym>
</trkpt>
<trkpt lat="48.886355" lon="20.111790">
<ele>1880.5</ele>
<desc>Speed 3.1 km/h Distance 1.83 km</desc>
<time>2013-07-23T13:11:29.37</time>
<name>705</name>
<sym>Dot</sym>
</trkpt>
<trkpt lat="48.886365" lon="20.111742">
<ele>1881.5</ele>
<desc>Speed 2.9 km/h Distance 1.83 km</desc>
<time>2013-07-23T13:11:54.36</time>
<name>706</name>
<sym>Dot</sym>
</trkpt>
<trkpt lat="48.886373" lon="20.111730">
<ele>1881.5</ele>
<desc>Speed 4.2 km/h Distance 1.83 km</desc>
<time>2013-07-23T13:11:55.35</time>
<name>707</name>
<sym>Dot</sym>
</trkpt>
<trkpt lat="48.886380" lon="20.111718">
<ele>1881.5</ele>
<desc>Speed 3.9 km/h Distance 1.83 km</desc>
<time>2013-07-23T13:11:56.35</time>
<name>708</name>
<sym>Dot</sym>
</trkpt>
<trkpt lat="48.886383" lon="20.111710">
<ele>1881.5</ele>
<desc>Speed 2.7 km/h Distance 1.83 km</desc>
<time>2013-07-23T13:11:57.35</time>
<name>709</name>
<sym>Dot</sym>
</trkpt>
<trkpt lat="48.886390" lon="20.111698">
<ele>1881.5</ele>
<desc>Speed 4.0 km/h Distance 1.83 km</desc>
<time>2013-07-23T13:11:58.35</time>
<name>710</name>
<sym>Dot</sym>
</trkpt>
<trkpt lat="48.886397" lon="20.111685">
<ele>1881.5</ele>
<desc>Speed 4.9 km/h Distance 1.83 km</desc>
<time>2013-07-23T13:11:59.37</time>
<name>711</name>
<sym>Dot</sym>
</trkpt>
<trkpt lat="48.886402" lon="20.111670">
<ele>1882.0</ele>
<desc>Speed 4.2 km/h Distance 1.84 km</desc>
<time>2013-07-23T13:12:00.34</time>
<name>712</name>
<sym>Dot</sym>
</trkpt>
<trkpt lat="48.886405" lon="20.111657">
<ele>1881.5</ele>
<desc>Speed 3.6 km/h Distance 1.84 km</desc>
<time>2013-07-23T13:12:01.34</time>
<name>713</name>
<sym>Dot</sym>
</trkpt>
<trkpt lat="48.886408" lon="20.111643">
<ele>1881.0</ele>
<desc>Speed 3.7 km/h Distance 1.84 km</desc>
<time>2013-07-23T13:12:02.33</time>
<name>714</name>
<sym>Dot</sym>
</trkpt>
<trkpt lat="48.886413" lon="20.111625">
<ele>1881.0</ele>
<desc>Speed 5.3 km/h Distance 1.84 km</desc>
<time>2013-07-23T13:12:03.33</time>
<name>715</name>
<sym>Dot</sym>
</trkpt>
<trkpt lat="48.886420" lon="20.111607">
<ele>1881.0</ele>
<desc>Speed 5.4 km/h Distance 1.84 km</desc>
<time>2013-07-23T13:12:04.39</time>
<name>716</name>
<sym>Dot</sym>
</trkpt>
<trkpt lat="48.886427" lon="20.111590">
<ele>1880.5</ele>
<desc>Speed 4.8 km/h Distance 1.84 km</desc>
<time>2013-07-23T13:12:05.31</time>
<name>717</name>
<sym>Dot</sym>
</trkpt>
<trkpt lat="48.886432" lon="20.111580">
<ele>1880.5</ele>
<desc>Speed 2.7 km/h Distance 1.84 km</desc>
<time>2013-07-23T13:12:06.31</time>
<name>718</name>
<sym>Dot</sym>
</trkpt>
<trkpt lat="48.886440" lon="20.111565">
<ele>1880.5</ele>
<desc>Speed 5.0 km/h Distance 1.84 km</desc>
<time>2013-07-23T13:12:07.31</time>
<name>719</name>
<sym>Dot</sym>
</trkpt>
<trkpt lat="48.886453" lon="20.111542">
<ele>1879.0</ele>
<desc>Speed 7.7 km/h Distance 1.85 km</desc>
<time>2013-07-23T13:12:08.33</time>
<name>720</name>
<sym>Dot</sym>
</trkpt>
<trkpt lat="48.886462" lon="20.111533">
<ele>1879.0</ele>
<desc>Speed 3.6 km/h Distance 1.85 km</desc>
<time>2013-07-23T13:12:09.31</time>
<name>721</name>
<sym>Dot</sym>
</trkpt>
<trkpt lat="48.886468" lon="20.111528">
<ele>1879.5</ele>
<desc>Speed 2.3 km/h Distance 1.85 km</desc>
<time>2013-07-23T13:12:10.30</time>
<name>722</name>
<sym>Dot</sym>
</trkpt>
<trkpt lat="48.886475" lon="20.111517">
<ele>1879.5</ele>
<desc>Speed 3.7 km/h Distance 1.85 km</desc>
<time>2013-07-23T13:12:11.30</time>
<name>723</name>
<sym>Dot</sym>
</trkpt>
<trkpt lat="48.886483" lon="20.111508">
<ele>1879.5</ele>
<desc>Speed 3.7 km/h Distance 1.85 km</desc>
<time>2013-07-23T13:12:12.30</time>
<name>724</name>
<sym>Dot</sym>
</trkpt>
<trkpt lat="48.886492" lon="20.111497">
<ele>1879.5</ele>
<desc>Speed 4.5 km/h Distance 1.85 km</desc>
<time>2013-07-23T13:12:13.29</time>
<name>725</name>
<sym>Dot</sym>
</trkpt>
<trkpt lat="48.886498" lon="20.111487">
<ele>1880.0</ele>
<desc>Speed 3.5 km/h Distance 1.85 km</desc>
<time>2013-07-23T13:12:14.29</time>
<name>726</name>
<sym>Dot</sym>
</trkpt>
<trkpt lat="48.886505" lon="20.111475">
<ele>1879.5</ele>
<desc>Speed 3.9 km/h Distance 1.85 km</desc>
<time>2013-07-23T13:12:15.29</time>
<name>727</name>
<sym>Dot</sym>
</trkpt>
<trkpt lat="48.886513" lon="20.111463">
<ele>1879.5</ele>
<desc>Speed 4.4 km/h Distance 1.86 km</desc>
<time>2013-07-23T13:12:16.29</time>
<name>728</name>
<sym>Dot</sym>
</trkpt>
<trkpt lat="48.886522" lon="20.111450">
<ele>1880.0</ele>
<desc>Speed 4.9 km/h Distance 1.86 km</desc>
<time>2013-07-23T13:12:17.28</time>
<name>729</name>
<sym>Dot</sym>
</trkpt>
<trkpt lat="48.886528" lon="20.111430">
<ele>1879.0</ele>
<desc>Speed 6.2 km/h Distance 1.86 km</desc>
<time>2013-07-23T13:12:18.28</time>
<name>730</name>
<sym>Dot</sym>
</trkpt>
<trkpt lat="48.886535" lon="20.111417">
<ele>1879.5</ele>
<desc>Speed 4.8 km/h Distance 1.86 km</desc>
<time>2013-07-23T13:12:19.28</time>
<name>731</name>
<sym>Dot</sym>
</trkpt>
<trkpt lat="48.886537" lon="20.111407">
<ele>1879.5</ele>
<desc>Speed 3.3 km/h Distance 1.86 km</desc>
<time>2013-07-23T13:12:20.28</time>
<name>732</name>
<sym>Dot</sym>
</trkpt>
<trkpt lat="48.886540" lon="20.111398">
<ele>1880.0</ele>
<desc>Speed 3.1 km/h Distance 1.86 km</desc>
<time>2013-07-23T13:12:21.28</time>
<name>733</name>
<sym>Dot</sym>
</trkpt>
<trkpt lat="48.886548" lon="20.111385">
<ele>1880.5</ele>
<desc>Speed 4.4 km/h Distance 1.86 km</desc>
<time>2013-07-23T13:12:22.38</time>
<name>734</name>
<sym>Dot</sym>
</trkpt>
<trkpt lat="48.886555" lon="20.111372">
<ele>1880.5</ele>
<desc>Speed 4.6 km/h Distance 1.86 km</desc>
<time>2013-07-23T13:12:23.26</time>
<name>735</name>
<sym>Dot</sym>
</trkpt>
<trkpt lat="48.886562" lon="20.111360">
<ele>1880.0</ele>
<desc>Speed 4.1 km/h Distance 1.86 km</desc>
<time>2013-07-23T13:12:24.25</time>
<name>736</name>
<sym>Dot</sym>
</trkpt>
<trkpt lat="48.886567" lon="20.111350">
<ele>1880.0</ele>
<desc>Speed 3.6 km/h Distance 1.87 km</desc>
<time>2013-07-23T13:12:25.25</time>
<name>737</name>
<sym>Dot</sym>
</trkpt>
<trkpt lat="48.886573" lon="20.111337">
<ele>1880.5</ele>
<desc>Speed 4.2 km/h Distance 1.87 km</desc>
<time>2013-07-23T13:12:26.25</time>
<name>738</name>
<sym>Dot</sym>
</trkpt>
<trkpt lat="48.886580" lon="20.111325">
<ele>1881.0</ele>
<desc>Speed 5.0 km/h Distance 1.87 km</desc>
<time>2013-07-23T13:12:27.36</time>
<name>739</name>
<sym>Dot</sym>
</trkpt>
<trkpt lat="48.886588" lon="20.111312">
<ele>1881.0</ele>
<desc>Speed 4.9 km/h Distance 1.87 km</desc>
<time>2013-07-23T13:12:28.25</time>
<name>740</name>
<sym>Dot</sym>
</trkpt>
<trkpt lat="48.886597" lon="20.111298">
<ele>1881.0</ele>
<desc>Speed 5.8 km/h Distance 1.87 km</desc>
<time>2013-07-23T13:12:29.25</time>
<name>741</name>
<sym>Dot</sym>
</trkpt>
<trkpt lat="48.886600" lon="20.111292">
<ele>1881.5</ele>
<desc>Speed 3.5 km/h Distance 1.87 km</desc>
<time>2013-07-23T13:12:30.25</time>
<name>742</name>
<sym>Dot</sym>
</trkpt>
<trkpt lat="48.886608" lon="20.111278">
<ele>1881.5</ele>
<desc>Speed 4.9 km/h Distance 1.87 km</desc>
<time>2013-07-23T13:12:31.24</time>
<name>743</name>
<sym>Dot</sym>
</trkpt>
<trkpt lat="48.886617" lon="20.111263">
<ele>1882.0</ele>
<desc>Speed 5.5 km/h Distance 1.87 km</desc>
<time>2013-07-23T13:12:32.26</time>
<name>744</name>
<sym>Dot</sym>
</trkpt>
<trkpt lat="48.886623" lon="20.111252">
<ele>1882.5</ele>
<desc>Speed 5.1 km/h Distance 1.88 km</desc>
<time>2013-07-23T13:12:33.23</time>
<name>745</name>
<sym>Dot</sym>
</trkpt>
<trkpt lat="48.886630" lon="20.111242">
<ele>1882.5</ele>
<desc>Speed 4.5 km/h Distance 1.88 km</desc>
<time>2013-07-23T13:12:34.22</time>
<name>746</name>
<sym>Dot</sym>
</trkpt>
<trkpt lat="48.886648" lon="20.111205">
<ele>1882.5</ele>
<desc>Speed 5.6 km/h Distance 1.88 km</desc>
<time>2013-07-23T13:12:38.64</time>
<name>747</name>
<sym>Dot</sym>
</trkpt>
<trkpt lat="48.886653" lon="20.111188">
<ele>1882.5</ele>
<desc>Speed 4.9 km/h Distance 1.88 km</desc>
<time>2013-07-23T13:12:39.50</time>
<name>748</name>
<sym>Dot</sym>
</trkpt>
<trkpt lat="48.886657" lon="20.111175">
<ele>1882.0</ele>
<desc>Speed 4.5 km/h Distance 1.88 km</desc>
<time>2013-07-23T13:12:40.49</time>
<name>749</name>
<sym>Dot</sym>
</trkpt>
<trkpt lat="48.886660" lon="20.111168">
<ele>1882.5</ele>
<desc>Speed 3.2 km/h Distance 1.88 km</desc>
<time>2013-07-23T13:12:41.57</time>
<name>750</name>
<sym>Dot</sym>
</trkpt>
<trkpt lat="48.886667" lon="20.111152">
<ele>1882.5</ele>
<desc>Speed 5.7 km/h Distance 1.88 km</desc>
<time>2013-07-23T13:12:42.52</time>
<name>751</name>
<sym>Dot</sym>
</trkpt>
<trkpt lat="48.886672" lon="20.111137">
<ele>1882.5</ele>
<desc>Speed 4.8 km/h Distance 1.89 km</desc>
<time>2013-07-23T13:12:43.48</time>
<name>752</name>
<sym>Dot</sym>
</trkpt>
<trkpt lat="48.886675" lon="20.111122">
<ele>1882.0</ele>
<desc>Speed 4.5 km/h Distance 1.89 km</desc>
<time>2013-07-23T13:12:44.48</time>
<name>753</name>
<sym>Dot</sym>
</trkpt>
<trkpt lat="48.886678" lon="20.111110">
<ele>1882.0</ele>
<desc>Speed 3.7 km/h Distance 1.89 km</desc>
<time>2013-07-23T13:12:45.47</time>
<name>754</name>
<sym>Dot</sym>
</trkpt>
<trkpt lat="48.886688" lon="20.111093">
<ele>1881.5</ele>
<desc>Speed 5.5 km/h Distance 1.89 km</desc>
<time>2013-07-23T13:12:46.47</time>
<name>755</name>
<sym>Dot</sym>
</trkpt>
<trkpt lat="48.886693" lon="20.111082">
<ele>1881.5</ele>
<desc>Speed 4.0 km/h Distance 1.89 km</desc>
<time>2013-07-23T13:12:47.46</time>
<name>756</name>
<sym>Dot</sym>
</trkpt>
<trkpt lat="48.886700" lon="20.111070">
<ele>1881.0</ele>
<desc>Speed 4.4 km/h Distance 1.89 km</desc>
<time>2013-07-23T13:12:48.45</time>
<name>757</name>
<sym>Dot</sym>
</trkpt>
<trkpt lat="48.886705" lon="20.111058">
<ele>1881.5</ele>
<desc>Speed 3.9 km/h Distance 1.89 km</desc>
<time>2013-07-23T13:12:49.45</time>
<name>758</name>
<sym>Dot</sym>
</trkpt>
<trkpt lat="48.886713" lon="20.111050">
<ele>1881.5</ele>
<desc>Speed 4.5 km/h Distance 1.89 km</desc>
<time>2013-07-23T13:12:50.45</time>
<name>759</name>
<sym>Dot</sym>
</trkpt>
<trkpt lat="48.886720" lon="20.111043">
<ele>1881.5</ele>
<desc>Speed 3.7 km/h Distance 1.89 km</desc>
<time>2013-07-23T13:12:51.44</time>
<name>760</name>
<sym>Dot</sym>
</trkpt>
<trkpt lat="48.886725" lon="20.111040">
<ele>1882.0</ele>
<desc>Speed 2.4 km/h Distance 1.89 km</desc>
<time>2013-07-23T13:12:52.44</time>
<name>761</name>
<sym>Dot</sym>
</trkpt>
<trkpt lat="48.886732" lon="20.111030">
<ele>1882.0</ele>
<desc>Speed 3.5 km/h Distance 1.90 km</desc>
<time>2013-07-23T13:12:53.44</time>
<name>762</name>
<sym>Dot</sym>
</trkpt>
<trkpt lat="48.886738" lon="20.111025">
<ele>1882.5</ele>
<desc>Speed 3.6 km/h Distance 1.90 km</desc>
<time>2013-07-23T13:12:54.54</time>
<name>763</name>
<sym>Dot</sym>
</trkpt>
<trkpt lat="48.886742" lon="20.111013">
<ele>1882.5</ele>
<desc>Speed 3.7 km/h Distance 1.90 km</desc>
<time>2013-07-23T13:12:55.42</time>
<name>764</name>
<sym>Dot</sym>
</trkpt>
<trkpt lat="48.886745" lon="20.111007">
<ele>1883.0</ele>
<desc>Speed 2.4 km/h Distance 1.90 km</desc>
<time>2013-07-23T13:12:56.42</time>
<name>765</name>
<sym>Dot</sym>
</trkpt>
<trkpt lat="48.886748" lon="20.110995">
<ele>1883.0</ele>
<desc>Speed 3.7 km/h Distance 1.90 km</desc>
<time>2013-07-23T13:12:57.42</time>
<name>766</name>
<sym>Dot</sym>
</trkpt>
<trkpt lat="48.886752" lon="20.110982">
<ele>1883.0</ele>
<desc>Speed 4.1 km/h Distance 1.90 km</desc>
<time>2013-07-23T13:12:58.41</time>
<name>767</name>
<sym>Dot</sym>
</trkpt>
<trkpt lat="48.886755" lon="20.110972">
<ele>1883.5</ele>
<desc>Speed 3.4 km/h Distance 1.90 km</desc>
<time>2013-07-23T13:12:59.41</time>
<name>768</name>
<sym>Dot</sym>
</trkpt>
<trkpt lat="48.886758" lon="20.110963">
<ele>1883.5</ele>
<desc>Speed 2.6 km/h Distance 1.90 km</desc>
<time>2013-07-23T13:13:00.41</time>
<name>769</name>
<sym>Dot</sym>
</trkpt>
<trkpt lat="48.886763" lon="20.110947">
<ele>1883.5</ele>
<desc>Speed 4.6 km/h Distance 1.90 km</desc>
<time>2013-07-23T13:13:01.41</time>
<name>770</name>
<sym>Dot</sym>
</trkpt>
<trkpt lat="48.886765" lon="20.110937">
<ele>1883.5</ele>
<desc>Speed 2.8 km/h Distance 1.90 km</desc>
<time>2013-07-23T13:13:02.41</time>
<name>771</name>
<sym>Dot</sym>
</trkpt>
<trkpt lat="48.886770" lon="20.110922">
<ele>1883.0</ele>
<desc>Speed 2.6 km/h Distance 1.91 km</desc>
<time>2013-07-23T13:13:04.41</time>
<name>772</name>
<sym>Dot</sym>
</trkpt>
<trkpt lat="48.886778" lon="20.110910">
<ele>1883.5</ele>
<desc>Speed 2.8 km/h Distance 1.91 km</desc>
<time>2013-07-23T13:13:06.40</time>
<name>773</name>
<sym>Dot</sym>
</trkpt>
<trkpt lat="48.886785" lon="20.110898">
<ele>1883.5</ele>
<desc>Speed 4.0 km/h Distance 1.91 km</desc>
<time>2013-07-23T13:13:07.40</time>
<name>774</name>
<sym>Dot</sym>
</trkpt>
<trkpt lat="48.886795" lon="20.110867">
<ele>1884.0</ele>
<desc>Speed 5.3 km/h Distance 1.91 km</desc>
<time>2013-07-23T13:13:10.40</time>
<name>775</name>
<sym>Dot</sym>
</trkpt>
<trkpt lat="48.886800" lon="20.110855">
<ele>1884.0</ele>
<desc>Speed 3.6 km/h Distance 1.91 km</desc>
<time>2013-07-23T13:13:11.40</time>
<name>776</name>
<sym>Dot</sym>
</trkpt>
<trkpt lat="48.886803" lon="20.110840">
<ele>1884.0</ele>
<desc>Speed 2.8 km/h Distance 1.91 km</desc>
<time>2013-07-23T13:13:13.39</time>
<name>777</name>
<sym>Dot</sym>
</trkpt>
<trkpt lat="48.886805" lon="20.110828">
<ele>1884.0</ele>
<desc>Speed 3.0 km/h Distance 1.91 km</desc>
<time>2013-07-23T13:13:14.39</time>
<name>778</name>
<sym>Dot</sym>
</trkpt>
<trkpt lat="48.886790" lon="20.110845">
<ele>1886.0</ele>
<desc>Speed 3.6 km/h Distance 1.92 km</desc>
<time>2013-07-23T13:14:04.38</time>
<name>779</name>
<sym>Dot</sym>
</trkpt>
<trkpt lat="48.886788" lon="20.110850">
<ele>1887.5</ele>
<desc>Speed 2.5 km/h Distance 1.92 km</desc>
<time>2013-07-23T13:15:13.38</time>
<name>780</name>
<sym>Dot</sym>
</trkpt>
<trkpt lat="48.886793" lon="20.110840">
<ele>1887.5</ele>
<desc>Speed 3.2 km/h Distance 1.92 km</desc>
<time>2013-07-23T13:15:14.37</time>
<name>781</name>
<sym>Dot</sym>
</trkpt>
<trkpt lat="48.886803" lon="20.110825">
<ele>1887.5</ele>
<desc>Speed 2.8 km/h Distance 1.92 km</desc>
<time>2013-07-23T13:15:16.37</time>
<name>782</name>
<sym>Dot</sym>
</trkpt>
<trkpt lat="48.886817" lon="20.110833">
<ele>1887.5</ele>
<desc>Speed 2.2 km/h Distance 1.92 km</desc>
<time>2013-07-23T13:15:20.36</time>
<name>783</name>
<sym>Dot</sym>
</trkpt>
<trkpt lat="48.886818" lon="20.110833">
<ele>1888.0</ele>
<desc>Speed 3.3 km/h Distance 1.92 km</desc>
<time>2013-07-23T13:15:58.35</time>
<name>784</name>
<sym>Dot</sym>
</trkpt>
<trkpt lat="48.886823" lon="20.110832">
<ele>1888.0</ele>
<desc>Speed 2.9 km/h Distance 1.92 km</desc>
<time>2013-07-23T13:16:06.35</time>
<name>785</name>
<sym>Dot</sym>
</trkpt>
<trkpt lat="48.886817" lon="20.110830">
<ele>1888.0</ele>
<desc>Speed 2.7 km/h Distance 1.92 km</desc>
<time>2013-07-23T13:16:07.34</time>
<name>786</name>
<sym>Dot</sym>
</trkpt>
<trkpt lat="48.886798" lon="20.110828">
<ele>1891.0</ele>
<desc>Speed 2.3 km/h Distance 1.92 km</desc>
<time>2013-07-23T13:16:23.34</time>
<name>787</name>
<sym>Dot</sym>
</trkpt>
<trkpt lat="48.886815" lon="20.110832">
<ele>1890.5</ele>
<desc>Speed 3.9 km/h Distance 1.93 km</desc>
<time>2013-07-23T13:16:42.34</time>
<name>788</name>
<sym>Dot</sym>
</trkpt>
<trkpt lat="48.886807" lon="20.110832">
<ele>1890.5</ele>
<desc>Speed 2.9 km/h Distance 1.93 km</desc>
<time>2013-07-23T13:16:43.33</time>
<name>789</name>
<sym>Dot</sym>
</trkpt>
<trkpt lat="48.886817" lon="20.110827">
<ele>1889.0</ele>
<desc>Speed 2.4 km/h Distance 1.93 km</desc>
<time>2013-07-23T13:16:56.32</time>
<name>790</name>
<sym>Dot</sym>
</trkpt>
<trkpt lat="48.886823" lon="20.110815">
<ele>1889.0</ele>
<desc>Speed 3.9 km/h Distance 1.93 km</desc>
<time>2013-07-23T13:16:57.32</time>
<name>791</name>
<sym>Dot</sym>
</trkpt>
<trkpt lat="48.886827" lon="20.110800">
<ele>1889.0</ele>
<desc>Speed 4.1 km/h Distance 1.93 km</desc>
<time>2013-07-23T13:16:58.31</time>
<name>792</name>
<sym>Dot</sym>
</trkpt>
<trkpt lat="48.886832" lon="20.110787">
<ele>1889.0</ele>
<desc>Speed 3.5 km/h Distance 1.93 km</desc>
<time>2013-07-23T13:16:59.31</time>
<name>793</name>
<sym>Dot</sym>
</trkpt>
<trkpt lat="48.886838" lon="20.110772">
<ele>1889.0</ele>
<desc>Speed 4.4 km/h Distance 1.93 km</desc>
<time>2013-07-23T13:17:00.31</time>
<name>794</name>
<sym>Dot</sym>
</trkpt>
<trkpt lat="48.886845" lon="20.110760">
<ele>1890.0</ele>
<desc>Speed 3.5 km/h Distance 1.93 km</desc>
<time>2013-07-23T13:17:01.30</time>
<name>795</name>
<sym>Dot</sym>
</trkpt>
<trkpt lat="48.886850" lon="20.110743">
<ele>1890.0</ele>
<desc>Speed 4.6 km/h Distance 1.93 km</desc>
<time>2013-07-23T13:17:02.29</time>
<name>796</name>
<sym>Dot</sym>
</trkpt>
<trkpt lat="48.886857" lon="20.110728">
<ele>1890.0</ele>
<desc>Speed 4.1 km/h Distance 1.94 km</desc>
<time>2013-07-23T13:17:03.29</time>
<name>797</name>
<sym>Dot</sym>
</trkpt>
<trkpt lat="48.886860" lon="20.110720">
<ele>1890.5</ele>
<desc>Speed 2.9 km/h Distance 1.94 km</desc>
<time>2013-07-23T13:17:04.29</time>
<name>798</name>
<sym>Dot</sym>
</trkpt>
<trkpt lat="48.886863" lon="20.110700">
<ele>1890.0</ele>
<desc>Speed 3.4 km/h Distance 1.94 km</desc>
<time>2013-07-23T13:17:10.29</time>
<name>799</name>
<sym>Dot</sym>
</trkpt>
<trkpt lat="48.886868" lon="20.110688">
<ele>1890.0</ele>
<desc>Speed 3.9 km/h Distance 1.94 km</desc>
<time>2013-07-23T13:17:11.28</time>
<name>800</name>
<sym>Dot</sym>
</trkpt>
<trkpt lat="48.886870" lon="20.110680">
<ele>1890.0</ele>
<desc>Speed 2.5 km/h Distance 1.94 km</desc>
<time>2013-07-23T13:17:12.30</time>
<name>801</name>
<sym>Dot</sym>
</trkpt>
<trkpt lat="48.886875" lon="20.110668">
<ele>1890.0</ele>
<desc>Speed 3.4 km/h Distance 1.94 km</desc>
<time>2013-07-23T13:17:13.27</time>
<name>802</name>
<sym>Dot</sym>
</trkpt>
<trkpt lat="48.886882" lon="20.110657">
<ele>1890.0</ele>
<desc>Speed 4.1 km/h Distance 1.94 km</desc>
<time>2013-07-23T13:17:14.29</time>
<name>803</name>
<sym>Dot</sym>
</trkpt>
<trkpt lat="48.886887" lon="20.110647">
<ele>1890.0</ele>
<desc>Speed 3.4 km/h Distance 1.94 km</desc>
<time>2013-07-23T13:17:15.26</time>
<name>804</name>
<sym>Dot</sym>
</trkpt>
<trkpt lat="48.886888" lon="20.110638">
<ele>1890.0</ele>
<desc>Speed 2.4 km/h Distance 1.94 km</desc>
<time>2013-07-23T13:17:16.26</time>
<name>805</name>
<sym>Dot</sym>
</trkpt>
<trkpt lat="48.886893" lon="20.110627">
<ele>1890.0</ele>
<desc>Speed 3.7 km/h Distance 1.94 km</desc>
<time>2013-07-23T13:17:17.26</time>
<name>806</name>
<sym>Dot</sym>
</trkpt>
<trkpt lat="48.886900" lon="20.110610">
<ele>1889.5</ele>
<desc>Speed 5.0 km/h Distance 1.95 km</desc>
<time>2013-07-23T13:17:18.25</time>
<name>807</name>
<sym>Dot</sym>
</trkpt>
<trkpt lat="48.886905" lon="20.110597">
<ele>1889.5</ele>
<desc>Speed 4.1 km/h Distance 1.95 km</desc>
<time>2013-07-23T13:17:19.25</time>
<name>808</name>
<sym>Dot</sym>
</trkpt>
<trkpt lat="48.886907" lon="20.110585">
<ele>1889.5</ele>
<desc>Speed 3.3 km/h Distance 1.95 km</desc>
<time>2013-07-23T13:17:20.24</time>
<name>809</name>
<sym>Dot</sym>
</trkpt>
<trkpt lat="48.886908" lon="20.110573">
<ele>1889.5</ele>
<desc>Speed 3.0 km/h Distance 1.95 km</desc>
<time>2013-07-23T13:17:21.24</time>
<name>810</name>
<sym>Dot</sym>
</trkpt>
<trkpt lat="48.886912" lon="20.110558">
<ele>1889.5</ele>
<desc>Speed 4.3 km/h Distance 1.95 km</desc>
<time>2013-07-23T13:17:22.24</time>
<name>811</name>
<sym>Dot</sym>
</trkpt>
<trkpt lat="48.886918" lon="20.110547">
<ele>1889.5</ele>
<desc>Speed 3.9 km/h Distance 1.95 km</desc>
<time>2013-07-23T13:17:23.23</time>
<name>812</name>
<sym>Dot</sym>
</trkpt>
<trkpt lat="48.886922" lon="20.110538">
<ele>1889.0</ele>
<desc>Speed 2.5 km/h Distance 1.95 km</desc>
<time>2013-07-23T13:17:24.22</time>
<name>813</name>
<sym>Dot</sym>
</trkpt>
<trkpt lat="48.886925" lon="20.110530">
<ele>1889.0</ele>
<desc>Speed 2.4 km/h Distance 1.95 km</desc>
<time>2013-07-23T13:17:25.22</time>
<name>814</name>
<sym>Dot</sym>
</trkpt>
<trkpt lat="48.886928" lon="20.110518">
<ele>1889.0</ele>
<desc>Speed 3.3 km/h Distance 1.95 km</desc>
<time>2013-07-23T13:17:26.21</time>
<name>815</name>
<sym>Dot</sym>
</trkpt>
<trkpt lat="48.886937" lon="20.110503">
<ele>1889.0</ele>
<desc>Speed 4.6 km/h Distance 1.95 km</desc>
<time>2013-07-23T13:17:27.23</time>
<name>816</name>
<sym>Dot</sym>
</trkpt>
<trkpt lat="48.886942" lon="20.110490">
<ele>1889.0</ele>
<desc>Speed 4.0 km/h Distance 1.96 km</desc>
<time>2013-07-23T13:17:28.20</time>
<name>817</name>
<sym>Dot</sym>
</trkpt>
<trkpt lat="48.886943" lon="20.110478">
<ele>1889.0</ele>
<desc>Speed 3.2 km/h Distance 1.96 km</desc>
<time>2013-07-23T13:17:29.19</time>
<name>818</name>
<sym>Dot</sym>
</trkpt>
<trkpt lat="48.886950" lon="20.110468">
<ele>1889.0</ele>
<desc>Speed 3.7 km/h Distance 1.96 km</desc>
<time>2013-07-23T13:17:30.19</time>
<name>819</name>
<sym>Dot</sym>
</trkpt>
<trkpt lat="48.886955" lon="20.110460">
<ele>1889.0</ele>
<desc>Speed 2.5 km/h Distance 1.96 km</desc>
<time>2013-07-23T13:17:31.19</time>
<name>820</name>
<sym>Dot</sym>
</trkpt>
<trkpt lat="48.886967" lon="20.110447">
<ele>1889.0</ele>
<desc>Speed 3.8 km/h Distance 1.96 km</desc>
<time>2013-07-23T13:17:33.19</time>
<name>821</name>
<sym>Dot</sym>
</trkpt>
<trkpt lat="48.886975" lon="20.110437">
<ele>1889.0</ele>
<desc>Speed 4.5 km/h Distance 1.96 km</desc>
<time>2013-07-23T13:17:34.18</time>
<name>822</name>
<sym>Dot</sym>
</trkpt>
<trkpt lat="48.886980" lon="20.110427">
<ele>1889.0</ele>
<desc>Speed 3.2 km/h Distance 1.96 km</desc>
<time>2013-07-23T13:17:35.18</time>
<name>823</name>
<sym>Dot</sym>
</trkpt>
<trkpt lat="48.886983" lon="20.110417">
<ele>1889.0</ele>
<desc>Speed 3.1 km/h Distance 1.96 km</desc>
<time>2013-07-23T13:17:36.17</time>
<name>824</name>
<sym>Dot</sym>
</trkpt>
<trkpt lat="48.886987" lon="20.110398">
<ele>1889.0</ele>
<desc>Speed 4.8 km/h Distance 1.96 km</desc>
<time>2013-07-23T13:17:37.16</time>
<name>825</name>
<sym>Dot</sym>
</trkpt>
<trkpt lat="48.886988" lon="20.110383">
<ele>1889.0</ele>
<desc>Speed 3.9 km/h Distance 1.97 km</desc>
<time>2013-07-23T13:17:38.16</time>
<name>826</name>
<sym>Dot</sym>
</trkpt>
<trkpt lat="48.886988" lon="20.110373">
<ele>1889.5</ele>
<desc>Speed 2.9 km/h Distance 1.97 km</desc>
<time>2013-07-23T13:17:40.15</time>
<name>827</name>
<sym>Dot</sym>
</trkpt>
<trkpt lat="48.886992" lon="20.110362">
<ele>1889.5</ele>
<desc>Speed 3.3 km/h Distance 1.97 km</desc>
<time>2013-07-23T13:17:41.15</time>
<name>828</name>
<sym>Dot</sym>
</trkpt>
<trkpt lat="48.887000" lon="20.110337">
<ele>1889.5</ele>
<desc>Speed 3.6 km/h Distance 1.97 km</desc>
<time>2013-07-23T13:17:44.14</time>
<name>829</name>
<sym>Dot</sym>
</trkpt>
<trkpt lat="48.887007" lon="20.110325">
<ele>1889.5</ele>
<desc>Speed 4.4 km/h Distance 1.97 km</desc>
<time>2013-07-23T13:17:45.14</time>
<name>830</name>
<sym>Dot</sym>
</trkpt>
<trkpt lat="48.887013" lon="20.110315">
<ele>1889.5</ele>
<desc>Speed 3.5 km/h Distance 1.97 km</desc>
<time>2013-07-23T13:17:46.14</time>
<name>831</name>
<sym>Dot</sym>
</trkpt>
<trkpt lat="48.887017" lon="20.110305">
<ele>1889.5</ele>
<desc>Speed 3.3 km/h Distance 1.97 km</desc>
<time>2013-07-23T13:17:47.13</time>
<name>832</name>
<sym>Dot</sym>
</trkpt>
<trkpt lat="48.887018" lon="20.110297">
<ele>1889.5</ele>
<desc>Speed 2.2 km/h Distance 1.97 km</desc>
<time>2013-07-23T13:17:48.13</time>
<name>833</name>
<sym>Dot</sym>
</trkpt>
<trkpt lat="48.887023" lon="20.110285">
<ele>1890.0</ele>
<desc>Speed 4.0 km/h Distance 1.97 km</desc>
<time>2013-07-23T13:17:49.13</time>
<name>834</name>
<sym>Dot</sym>
</trkpt>
<trkpt lat="48.887023" lon="20.110277">
<ele>1890.0</ele>
<desc>Speed 2.4 km/h Distance 1.97 km</desc>
<time>2013-07-23T13:17:50.13</time>
<name>835</name>
<sym>Dot</sym>
</trkpt>
<trkpt lat="48.887027" lon="20.110268">
<ele>1890.0</ele>
<desc>Speed 2.3 km/h Distance 1.98 km</desc>
<time>2013-07-23T13:17:51.13</time>
<name>836</name>
<sym>Dot</sym>
</trkpt>
<trkpt lat="48.887033" lon="20.110258">
<ele>1890.0</ele>
<desc>Speed 2.2 km/h Distance 1.98 km</desc>
<time>2013-07-23T13:17:53.13</time>
<name>837</name>
<sym>Dot</sym>
</trkpt>
<trkpt lat="48.887042" lon="20.110245">
<ele>1890.0</ele>
<desc>Speed 4.8 km/h Distance 1.98 km</desc>
<time>2013-07-23T13:17:54.12</time>
<name>838</name>
<sym>Dot</sym>
</trkpt>
<trkpt lat="48.887050" lon="20.110232">
<ele>1890.0</ele>
<desc>Speed 2.9 km/h Distance 1.98 km</desc>
<time>2013-07-23T13:17:56.12</time>
<name>839</name>
<sym>Dot</sym>
</trkpt>
<trkpt lat="48.887060" lon="20.110220">
<ele>1890.0</ele>
<desc>Speed 4.8 km/h Distance 1.98 km</desc>
<time>2013-07-23T13:17:57.11</time>
<name>840</name>
<sym>Dot</sym>
</trkpt>
<trkpt lat="48.887067" lon="20.110208">
<ele>1890.0</ele>
<desc>Speed 3.9 km/h Distance 1.98 km</desc>
<time>2013-07-23T13:17:58.11</time>
<name>841</name>
<sym>Dot</sym>
</trkpt>
<trkpt lat="48.887070" lon="20.110202">
<ele>1890.0</ele>
<desc>Speed 2.4 km/h Distance 1.98 km</desc>
<time>2013-07-23T13:17:59.11</time>
<name>842</name>
<sym>Dot</sym>
</trkpt>
<trkpt lat="48.887073" lon="20.110193">
<ele>1890.0</ele>
<desc>Speed 2.8 km/h Distance 1.98 km</desc>
<time>2013-07-23T13:18:00.11</time>
<name>843</name>
<sym>Dot</sym>
</trkpt>
<trkpt lat="48.887080" lon="20.110180">
<ele>1890.0</ele>
<desc>Speed 4.4 km/h Distance 1.98 km</desc>
<time>2013-07-23T13:18:01.11</time>
<name>844</name>
<sym>Dot</sym>
</trkpt>
<trkpt lat="48.887087" lon="20.110170">
<ele>1890.0</ele>
<desc>Speed 3.6 km/h Distance 1.99 km</desc>
<time>2013-07-23T13:18:02.11</time>
<name>845</name>
<sym>Dot</sym>
</trkpt>
<trkpt lat="48.887088" lon="20.110162">
<ele>1890.5</ele>
<desc>Speed 2.4 km/h Distance 1.99 km</desc>
<time>2013-07-23T13:18:03.11</time>
<name>846</name>
<sym>Dot</sym>
</trkpt>
<trkpt lat="48.887092" lon="20.110155">
<ele>1890.5</ele>
<desc>Speed 2.7 km/h Distance 1.99 km</desc>
<time>2013-07-23T13:18:04.11</time>
<name>847</name>
<sym>Dot</sym>
</trkpt>
<trkpt lat="48.887098" lon="20.110162">
<ele>1891.0</ele>
<desc>Speed 3.2 km/h Distance 1.99 km</desc>
<time>2013-07-23T13:18:13.11</time>
<name>848</name>
<sym>Dot</sym>
</trkpt>
<trkpt lat="48.887093" lon="20.110165">
<ele>1891.0</ele>
<desc>Speed 2.2 km/h Distance 1.99 km</desc>
<time>2013-07-23T13:18:15.09</time>
<name>849</name>
<sym>Dot</sym>
</trkpt>
<trkpt lat="48.887118" lon="20.110155">
<ele>1891.5</ele>
<desc>Speed 4.3 km/h Distance 1.99 km</desc>
<time>2013-07-23T13:18:33.09</time>
<name>850</name>
<sym>Dot</sym>
</trkpt>
<trkpt lat="48.887125" lon="20.110145">
<ele>1891.5</ele>
<desc>Speed 4.0 km/h Distance 1.99 km</desc>
<time>2013-07-23T13:18:34.09</time>
<name>851</name>
<sym>Dot</sym>
</trkpt>
<trkpt lat="48.887132" lon="20.110132">
<ele>1891.5</ele>
<desc>Speed 3.9 km/h Distance 1.99 km</desc>
<time>2013-07-23T13:18:35.09</time>
<name>852</name>
<sym>Dot</sym>
</trkpt>
<trkpt lat="48.887137" lon="20.110122">
<ele>1892.0</ele>
<desc>Speed 3.4 km/h Distance 1.99 km</desc>
<time>2013-07-23T13:18:36.08</time>
<name>853</name>
<sym>Dot</sym>
</trkpt>
<trkpt lat="48.887143" lon="20.110108">
<ele>1892.0</ele>
<desc>Speed 4.5 km/h Distance 2.00 km</desc>
<time>2013-07-23T13:18:37.18</time>
<name>854</name>
<sym>Dot</sym>
</trkpt>
<trkpt lat="48.887148" lon="20.110098">
<ele>1892.0</ele>
<desc>Speed 3.6 km/h Distance 2.00 km</desc>
<time>2013-07-23T13:18:38.08</time>
<name>855</name>
<sym>Dot</sym>
</trkpt>
<trkpt lat="48.887153" lon="20.110090">
<ele>1892.0</ele>
<desc>Speed 2.7 km/h Distance 2.00 km</desc>
<time>2013-07-23T13:18:39.07</time>
<name>856</name>
<sym>Dot</sym>
</trkpt>
<trkpt lat="48.887158" lon="20.110082">
<ele>1892.0</ele>
<desc>Speed 2.7 km/h Distance 2.00 km</desc>
<time>2013-07-23T13:18:40.06</time>
<name>857</name>
<sym>Dot</sym>
</trkpt>
<trkpt lat="48.887165" lon="20.110072">
<ele>1892.0</ele>
<desc>Speed 4.1 km/h Distance 2.00 km</desc>
<time>2013-07-23T13:18:41.06</time>
<name>858</name>
<sym>Dot</sym>
</trkpt>
<trkpt lat="48.887172" lon="20.110060">
<ele>1892.5</ele>
<desc>Speed 4.0 km/h Distance 2.00 km</desc>
<time>2013-07-23T13:18:42.06</time>
<name>859</name>
<sym>Dot</sym>
</trkpt>
<trkpt lat="48.887177" lon="20.110050">
<ele>1892.5</ele>
<desc>Speed 3.6 km/h Distance 2.00 km</desc>
<time>2013-07-23T13:18:43.06</time>
<name>860</name>
<sym>Dot</sym>
</trkpt>
<trkpt lat="48.887185" lon="20.110033">
<ele>1892.5</ele>
<desc>Speed 4.9 km/h Distance 2.00 km</desc>
<time>2013-07-23T13:18:45.06</time>
<name>861</name>
<sym>Dot</sym>
</trkpt>
<trkpt lat="48.887193" lon="20.110030">
<ele>1894.5</ele>
<desc>Speed 3.3 km/h Distance 2.00 km</desc>
<time>2013-07-23T13:18:47.06</time>
<name>862</name>
<sym>Dot</sym>
</trkpt>
<trkpt lat="48.887198" lon="20.110018">
<ele>1894.5</ele>
<desc>Speed 3.7 km/h Distance 2.00 km</desc>
<time>2013-07-23T13:18:48.05</time>
<name>863</name>
<sym>Dot</sym>
</trkpt>
<trkpt lat="48.887205" lon="20.110003">
<ele>1895.0</ele>
<desc>Speed 4.5 km/h Distance 2.01 km</desc>
<time>2013-07-23T13:18:49.05</time>
<name>864</name>
<sym>Dot</sym>
</trkpt>
<trkpt lat="48.887210" lon="20.109993">
<ele>1895.0</ele>
<desc>Speed 3.9 km/h Distance 2.01 km</desc>
<time>2013-07-23T13:18:50.04</time>
<name>865</name>
<sym>Dot</sym>
</trkpt>
<trkpt lat="48.887215" lon="20.109982">
<ele>1895.0</ele>
<desc>Speed 3.6 km/h Distance 2.01 km</desc>
<time>2013-07-23T13:18:51.04</time>
<name>866</name>
<sym>Dot</sym>
</trkpt>
<trkpt lat="48.887220" lon="20.109970">
<ele>1895.5</ele>
<desc>Speed 4.0 km/h Distance 2.01 km</desc>
<time>2013-07-23T13:18:52.04</time>
<name>867</name>
<sym>Dot</sym>
</trkpt>
<trkpt lat="48.887223" lon="20.109960">
<ele>1895.5</ele>
<desc>Speed 3.1 km/h Distance 2.01 km</desc>
<time>2013-07-23T13:18:53.04</time>
<name>868</name>
<sym>Dot</sym>
</trkpt>
<trkpt lat="48.887232" lon="20.109950">
<ele>1896.0</ele>
<desc>Speed 4.5 km/h Distance 2.01 km</desc>
<time>2013-07-23T13:18:54.04</time>
<name>869</name>
<sym>Dot</sym>
</trkpt>
<trkpt lat="48.887237" lon="20.109937">
<ele>1896.0</ele>
<desc>Speed 4.5 km/h Distance 2.01 km</desc>
<time>2013-07-23T13:18:55.13</time>
<name>870</name>
<sym>Dot</sym>
</trkpt>
<trkpt lat="48.887242" lon="20.109927">
<ele>1896.0</ele>
<desc>Speed 3.7 km/h Distance 2.01 km</desc>
<time>2013-07-23T13:18:56.03</time>
<name>871</name>
<sym>Dot</sym>
</trkpt>
<trkpt lat="48.887250" lon="20.109908">
<ele>1896.0</ele>
<desc>Speed 4.3 km/h Distance 2.01 km</desc>
<time>2013-07-23T13:18:58.03</time>
<name>872</name>
<sym>Dot</sym>
</trkpt>
<trkpt lat="48.887253" lon="20.109898">
<ele>1896.0</ele>
<desc>Speed 3.5 km/h Distance 2.02 km</desc>
<time>2013-07-23T13:18:59.02</time>
<name>873</name>
<sym>Dot</sym>
</trkpt>
<trkpt lat="48.887257" lon="20.109888">
<ele>1896.0</ele>
<desc>Speed 2.9 km/h Distance 2.02 km</desc>
<time>2013-07-23T13:19:00.02</time>
<name>874</name>
<sym>Dot</sym>
</trkpt>
<trkpt lat="48.887262" lon="20.109878">
<ele>1896.0</ele>
<desc>Speed 3.1 km/h Distance 2.02 km</desc>
<time>2013-07-23T13:19:01.06</time>
<name>875</name>
<sym>Dot</sym>
</trkpt>
<trkpt lat="48.887267" lon="20.109865">
<ele>1896.0</ele>
<desc>Speed 4.0 km/h Distance 2.02 km</desc>
<time>2013-07-23T13:19:02.01</time>
<name>876</name>
<sym>Dot</sym>
</trkpt>
<trkpt lat="48.887273" lon="20.109853">
<ele>1896.0</ele>
<desc>Speed 4.5 km/h Distance 2.02 km</desc>
<time>2013-07-23T13:19:03.00</time>
<name>877</name>
<sym>Dot</sym>
</trkpt>
<trkpt lat="48.887277" lon="20.109842">
<ele>1896.0</ele>
<desc>Speed 3.3 km/h Distance 2.02 km</desc>
<time>2013-07-23T13:19:03.99</time>
<name>878</name>
<sym>Dot</sym>
</trkpt>
<trkpt lat="48.887280" lon="20.109835">
<ele>1896.0</ele>
<desc>Speed 2.4 km/h Distance 2.02 km</desc>
<time>2013-07-23T13:19:04.99</time>
<name>879</name>
<sym>Dot</sym>
</trkpt>
<trkpt lat="48.887285" lon="20.109822">
<ele>1895.5</ele>
<desc>Speed 4.4 km/h Distance 2.02 km</desc>
<time>2013-07-23T13:19:05.99</time>
<name>880</name>
<sym>Dot</sym>
</trkpt>
<trkpt lat="48.887290" lon="20.109808">
<ele>1895.5</ele>
<desc>Speed 4.1 km/h Distance 2.02 km</desc>
<time>2013-07-23T13:19:06.99</time>
<name>881</name>
<sym>Dot</sym>
</trkpt>
<trkpt lat="48.887293" lon="20.109800">
<ele>1895.5</ele>
<desc>Speed 2.4 km/h Distance 2.02 km</desc>
<time>2013-07-23T13:19:07.99</time>
<name>882</name>
<sym>Dot</sym>
</trkpt>
<trkpt lat="48.887300" lon="20.109783">
<ele>1895.5</ele>
<desc>Speed 2.7 km/h Distance 2.03 km</desc>
<time>2013-07-23T13:19:09.99</time>
<name>883</name>
<sym>Dot</sym>
</trkpt>
<trkpt lat="48.887310" lon="20.109775">
<ele>1895.5</ele>
<desc>Speed 3.1 km/h Distance 2.03 km</desc>
<time>2013-07-23T13:19:12.99</time>
<name>884</name>
<sym>Dot</sym>
</trkpt>
<trkpt lat="48.887318" lon="20.109760">
<ele>1895.5</ele>
<desc>Speed 4.0 km/h Distance 2.03 km</desc>
<time>2013-07-23T13:19:14.99</time>
<name>885</name>
<sym>Dot</sym>
</trkpt>
<trkpt lat="48.887323" lon="20.109743">
<ele>1895.5</ele>
<desc>Speed 4.8 km/h Distance 2.03 km</desc>
<time>2013-07-23T13:19:15.98</time>
<name>886</name>
<sym>Dot</sym>
</trkpt>
<trkpt lat="48.887328" lon="20.109732">
<ele>1895.0</ele>
<desc>Speed 4.0 km/h Distance 2.03 km</desc>
<time>2013-07-23T13:19:16.98</time>
<name>887</name>
<sym>Dot</sym>
</trkpt>
<trkpt lat="48.887332" lon="20.109722">
<ele>1895.5</ele>
<desc>Speed 3.0 km/h Distance 2.03 km</desc>
<time>2013-07-23T13:19:17.98</time>
<name>888</name>
<sym>Dot</sym>
</trkpt>
<trkpt lat="48.887335" lon="20.109712">
<ele>1895.5</ele>
<desc>Speed 3.1 km/h Distance 2.03 km</desc>
<time>2013-07-23T13:19:18.98</time>
<name>889</name>
<sym>Dot</sym>
</trkpt>
<trkpt lat="48.887338" lon="20.109697">
<ele>1895.0</ele>
<desc>Speed 4.2 km/h Distance 2.03 km</desc>
<time>2013-07-23T13:19:19.98</time>
<name>890</name>
<sym>Dot</sym>
</trkpt>
<trkpt lat="48.887343" lon="20.109690">
<ele>1895.5</ele>
<desc>Speed 2.7 km/h Distance 2.03 km</desc>
<time>2013-07-23T13:19:20.98</time>
<name>891</name>
<sym>Dot</sym>
</trkpt>
<trkpt lat="48.887347" lon="20.109680">
<ele>1895.5</ele>
<desc>Speed 3.3 km/h Distance 2.03 km</desc>
<time>2013-07-23T13:19:22.06</time>
<name>892</name>
<sym>Dot</sym>
</trkpt>
<trkpt lat="48.887352" lon="20.109670">
<ele>1895.5</ele>
<desc>Speed 3.7 km/h Distance 2.04 km</desc>
<time>2013-07-23T13:19:22.97</time>
<name>893</name>
<sym>Dot</sym>
</trkpt>
<trkpt lat="48.887358" lon="20.109665">
<ele>1896.0</ele>
<desc>Speed 3.1 km/h Distance 2.04 km</desc>
<time>2013-07-23T13:19:23.96</time>
<name>894</name>
<sym>Dot</sym>
</trkpt>
<trkpt lat="48.887362" lon="20.109660">
<ele>1896.0</ele>
<desc>Speed 2.2 km/h Distance 2.04 km</desc>
<time>2013-07-23T13:19:24.96</time>
<name>895</name>
<sym>Dot</sym>
</trkpt>
<trkpt lat="48.887363" lon="20.109653">
<ele>1896.5</ele>
<desc>Speed 2.7 km/h Distance 2.04 km</desc>
<time>2013-07-23T13:19:25.96</time>
<name>896</name>
<sym>Dot</sym>
</trkpt>
<trkpt lat="48.887367" lon="20.109643">
<ele>1896.5</ele>
<desc>Speed 2.9 km/h Distance 2.04 km</desc>
<time>2013-07-23T13:19:26.96</time>
<name>897</name>
<sym>Dot</sym>
</trkpt>
<trkpt lat="48.887373" lon="20.109622">
<ele>1896.5</ele>
<desc>Speed 4.9 km/h Distance 2.04 km</desc>
<time>2013-07-23T13:19:28.95</time>
<name>898</name>
<sym>Dot</sym>
</trkpt>
<trkpt lat="48.887377" lon="20.109618">
<ele>1897.5</ele>
<desc>Speed 2.6 km/h Distance 2.04 km</desc>
<time>2013-07-23T13:19:29.95</time>
<name>899</name>
<sym>Dot</sym>
</trkpt>
<trkpt lat="48.887385" lon="20.109607">
<ele>1898.0</ele>
<desc>Speed 3.9 km/h Distance 2.04 km</desc>
<time>2013-07-23T13:19:31.95</time>
<name>900</name>
<sym>Dot</sym>
</trkpt>
<trkpt lat="48.887393" lon="20.109595">
<ele>1898.0</ele>
<desc>Speed 3.5 km/h Distance 2.04 km</desc>
<time>2013-07-23T13:19:33.95</time>
<name>901</name>
<sym>Dot</sym>
</trkpt>
<trkpt lat="48.887398" lon="20.109588">
<ele>1898.5</ele>
<desc>Speed 2.6 km/h Distance 2.04 km</desc>
<time>2013-07-23T13:19:35.94</time>
<name>902</name>
<sym>Dot</sym>
</trkpt>
<trkpt lat="48.887413" lon="20.109600">
<ele>1902.5</ele>
<desc>Speed 2.9 km/h Distance 2.05 km</desc>
<time>2013-07-23T13:20:18.93</time>
<name>903</name>
<sym>Dot</sym>
</trkpt>
<trkpt lat="48.887420" lon="20.109592">
<ele>1902.5</ele>
<desc>Speed 3.1 km/h Distance 2.05 km</desc>
<time>2013-07-23T13:20:19.93</time>
<name>904</name>
<sym>Dot</sym>
</trkpt>
<trkpt lat="48.887423" lon="20.109580">
<ele>1902.5</ele>
<desc>Speed 3.7 km/h Distance 2.05 km</desc>
<time>2013-07-23T13:20:20.92</time>
<name>905</name>
<sym>Dot</sym>
</trkpt>
<trkpt lat="48.887433" lon="20.109567">
<ele>1902.5</ele>
<desc>Speed 4.6 km/h Distance 2.05 km</desc>
<time>2013-07-23T13:20:21.92</time>
<name>906</name>
<sym>Dot</sym>
</trkpt>
<trkpt lat="48.887442" lon="20.109552">
<ele>1902.0</ele>
<desc>Speed 5.3 km/h Distance 2.05 km</desc>
<time>2013-07-23T13:20:23.00</time>
<name>907</name>
<sym>Dot</sym>
</trkpt>
<trkpt lat="48.887448" lon="20.109538">
<ele>1902.0</ele>
<desc>Speed 4.5 km/h Distance 2.05 km</desc>
<time>2013-07-23T13:20:23.90</time>
<name>908</name>
<sym>Dot</sym>
</trkpt>
<trkpt lat="48.887455" lon="20.109527">
<ele>1902.0</ele>
<desc>Speed 3.9 km/h Distance 2.05 km</desc>
<time>2013-07-23T13:20:24.90</time>
<name>909</name>
<sym>Dot</sym>
</trkpt>
<trkpt lat="48.887462" lon="20.109517">
<ele>1902.5</ele>
<desc>Speed 4.1 km/h Distance 2.05 km</desc>
<time>2013-07-23T13:20:25.90</time>
<name>910</name>
<sym>Dot</sym>
</trkpt>
<trkpt lat="48.887470" lon="20.109507">
<ele>1902.5</ele>
<desc>Speed 4.9 km/h Distance 2.06 km</desc>
<time>2013-07-23T13:20:26.90</time>
<name>911</name>
<sym>Dot</sym>
</trkpt>
<trkpt lat="48.887478" lon="20.109493">
<ele>1902.5</ele>
<desc>Speed 4.6 km/h Distance 2.06 km</desc>
<time>2013-07-23T13:20:27.90</time>
<name>912</name>
<sym>Dot</sym>
</trkpt>
<trkpt lat="48.887485" lon="20.109483">
<ele>1902.5</ele>
<desc>Speed 3.7 km/h Distance 2.06 km</desc>
<time>2013-07-23T13:20:28.89</time>
<name>913</name>
<sym>Dot</sym>
</trkpt>
<trkpt lat="48.887490" lon="20.109475">
<ele>1902.5</ele>
<desc>Speed 3.0 km/h Distance 2.06 km</desc>
<time>2013-07-23T13:20:29.88</time>
<name>914</name>
<sym>Dot</sym>
</trkpt>
<trkpt lat="48.887495" lon="20.109465">
<ele>1903.0</ele>
<desc>Speed 3.4 km/h Distance 2.06 km</desc>
<time>2013-07-23T13:20:30.88</time>
<name>915</name>
<sym>Dot</sym>
</trkpt>
<trkpt lat="48.887502" lon="20.109453">
<ele>1903.5</ele>
<desc>Speed 4.4 km/h Distance 2.06 km</desc>
<time>2013-07-23T13:20:31.97</time>
<name>916</name>
<sym>Dot</sym>
</trkpt>
<trkpt lat="48.887505" lon="20.109440">
<ele>1903.5</ele>
<desc>Speed 4.0 km/h Distance 2.06 km</desc>
<time>2013-07-23T13:20:32.87</time>
<name>917</name>
<sym>Dot</sym>
</trkpt>
<trkpt lat="48.887508" lon="20.109428">
<ele>1904.0</ele>
<desc>Speed 3.3 km/h Distance 2.06 km</desc>
<time>2013-07-23T13:20:33.87</time>
<name>918</name>
<sym>Dot</sym>
</trkpt>
<trkpt lat="48.887512" lon="20.109418">
<ele>1904.0</ele>
<desc>Speed 2.9 km/h Distance 2.06 km</desc>
<time>2013-07-23T13:20:34.87</time>
<name>919</name>
<sym>Dot</sym>
</trkpt>
<trkpt lat="48.887517" lon="20.109407">
<ele>1905.0</ele>
<desc>Speed 4.0 km/h Distance 2.06 km</desc>
<time>2013-07-23T13:20:35.87</time>
<name>920</name>
<sym>Dot</sym>
</trkpt>
<trkpt lat="48.887525" lon="20.109400">
<ele>1905.0</ele>
<desc>Speed 3.7 km/h Distance 2.07 km</desc>
<time>2013-07-23T13:20:36.86</time>
<name>921</name>
<sym>Dot</sym>
</trkpt>
<trkpt lat="48.887530" lon="20.109393">
<ele>1905.0</ele>
<desc>Speed 2.8 km/h Distance 2.07 km</desc>
<time>2013-07-23T13:20:37.85</time>
<name>922</name>
<sym>Dot</sym>
</trkpt>
<trkpt lat="48.887535" lon="20.109383">
<ele>1905.5</ele>
<desc>Speed 3.7 km/h Distance 2.07 km</desc>
<time>2013-07-23T13:20:38.84</time>
<name>923</name>
<sym>Dot</sym>
</trkpt>
<trkpt lat="48.887542" lon="20.109365">
<ele>1905.5</ele>
<desc>Speed 5.4 km/h Distance 2.07 km</desc>
<time>2013-07-23T13:20:39.83</time>
<name>924</name>
<sym>Dot</sym>
</trkpt>
<trkpt lat="48.887548" lon="20.109350">
<ele>1905.5</ele>
<desc>Speed 4.8 km/h Distance 2.07 km</desc>
<time>2013-07-23T13:20:40.83</time>
<name>925</name>
<sym>Dot</sym>
</trkpt>
<trkpt lat="48.887553" lon="20.109335">
<ele>1905.5</ele>
<desc>Speed 4.5 km/h Distance 2.07 km</desc>
<time>2013-07-23T13:20:41.83</time>
<name>926</name>
<sym>Dot</sym>
</trkpt>
<trkpt lat="48.887557" lon="20.109325">
<ele>1905.5</ele>
<desc>Speed 3.0 km/h Distance 2.07 km</desc>
<time>2013-07-23T13:20:42.83</time>
<name>927</name>
<sym>Dot</sym>
</trkpt>
<trkpt lat="48.887563" lon="20.109315">
<ele>1905.5</ele>
<desc>Speed 3.6 km/h Distance 2.07 km</desc>
<time>2013-07-23T13:20:43.82</time>
<name>928</name>
<sym>Dot</sym>
</trkpt>
<trkpt lat="48.887568" lon="20.109302">
<ele>1905.5</ele>
<desc>Speed 3.8 km/h Distance 2.07 km</desc>
<time>2013-07-23T13:20:44.81</time>
<name>929</name>
<sym>Dot</sym>
</trkpt>
<trkpt lat="48.887573" lon="20.109290">
<ele>1905.5</ele>
<desc>Speed 3.2 km/h Distance 2.07 km</desc>
<time>2013-07-23T13:20:45.81</time>
<name>930</name>
<sym>Dot</sym>
</trkpt>
<trkpt lat="48.887580" lon="20.109278">
<ele>1905.5</ele>
<desc>Speed 3.8 km/h Distance 2.08 km</desc>
<time>2013-07-23T13:20:46.81</time>
<name>931</name>
<sym>Dot</sym>
</trkpt>
<trkpt lat="48.887588" lon="20.109267">
<ele>1906.0</ele>
<desc>Speed 4.1 km/h Distance 2.08 km</desc>
<time>2013-07-23T13:20:47.89</time>
<name>932</name>
<sym>Dot</sym>
</trkpt>
<trkpt lat="48.887593" lon="20.109257">
<ele>1906.0</ele>
<desc>Speed 3.6 km/h Distance 2.08 km</desc>
<time>2013-07-23T13:20:48.81</time>
<name>933</name>
<sym>Dot</sym>
</trkpt>
<trkpt lat="48.887598" lon="20.109245">
<ele>1906.0</ele>
<desc>Speed 3.2 km/h Distance 2.08 km</desc>
<time>2013-07-23T13:20:49.81</time>
<name>934</name>
<sym>Dot</sym>
</trkpt>
<trkpt lat="48.887605" lon="20.109233">
<ele>1906.0</ele>
<desc>Speed 3.7 km/h Distance 2.08 km</desc>
<time>2013-07-23T13:20:50.82</time>
<name>935</name>
<sym>Dot</sym>
</trkpt>
<trkpt lat="48.887610" lon="20.109218">
<ele>1906.0</ele>
<desc>Speed 4.9 km/h Distance 2.08 km</desc>
<time>2013-07-23T13:20:51.84</time>
<name>936</name>
<sym>Dot</sym>
</trkpt>
<trkpt lat="48.887617" lon="20.109200">
<ele>1906.5</ele>
<desc>Speed 5.5 km/h Distance 2.08 km</desc>
<time>2013-07-23T13:20:52.81</time>
<name>937</name>
<sym>Dot</sym>
</trkpt>
<trkpt lat="48.887623" lon="20.109183">
<ele>1906.5</ele>
<desc>Speed 4.9 km/h Distance 2.08 km</desc>
<time>2013-07-23T13:20:53.80</time>
<name>938</name>
<sym>Dot</sym>
</trkpt>
<trkpt lat="48.887627" lon="20.109172">
<ele>1906.5</ele>
<desc>Speed 3.5 km/h Distance 2.09 km</desc>
<time>2013-07-23T13:20:54.79</time>
<name>939</name>
<sym>Dot</sym>
</trkpt>
<trkpt lat="48.887635" lon="20.109157">
<ele>1907.0</ele>
<desc>Speed 4.9 km/h Distance 2.09 km</desc>
<time>2013-07-23T13:20:55.78</time>
<name>940</name>
<sym>Dot</sym>
</trkpt>
<trkpt lat="48.887643" lon="20.109143">
<ele>1907.0</ele>
<desc>Speed 5.1 km/h Distance 2.09 km</desc>
<time>2013-07-23T13:20:56.83</time>
<name>941</name>
<sym>Dot</sym>
</trkpt>
<trkpt lat="48.887648" lon="20.109133">
<ele>1907.0</ele>
<desc>Speed 3.6 km/h Distance 2.09 km</desc>
<time>2013-07-23T13:20:57.78</time>
<name>942</name>
<sym>Dot</sym>
</trkpt>
<trkpt lat="48.887655" lon="20.109125">
<ele>1907.0</ele>
<desc>Speed 3.3 km/h Distance 2.09 km</desc>
<time>2013-07-23T13:20:58.77</time>
<name>943</name>
<sym>Dot</sym>
</trkpt>
<trkpt lat="48.887665" lon="20.109117">
<ele>1907.0</ele>
<desc>Speed 4.4 km/h Distance 2.09 km</desc>
<time>2013-07-23T13:20:59.77</time>
<name>944</name>
<sym>Dot</sym>
</trkpt>
<trkpt lat="48.887672" lon="20.109103">
<ele>1907.0</ele>
<desc>Speed 4.6 km/h Distance 2.09 km</desc>
<time>2013-07-23T13:21:00.77</time>
<name>945</name>
<sym>Dot</sym>
</trkpt>
<trkpt lat="48.887678" lon="20.109093">
<ele>1907.0</ele>
<desc>Speed 3.6 km/h Distance 2.09 km</desc>
<time>2013-07-23T13:21:01.76</time>
<name>946</name>
<sym>Dot</sym>
</trkpt>
<trkpt lat="48.887687" lon="20.109075">
<ele>1907.5</ele>
<desc>Speed 3.8 km/h Distance 2.10 km</desc>
<time>2013-07-23T13:21:03.76</time>
<name>947</name>
<sym>Dot</sym>
</trkpt>
<trkpt lat="48.887695" lon="20.109062">
<ele>1907.5</ele>
<desc>Speed 5.0 km/h Distance 2.10 km</desc>
<time>2013-07-23T13:21:04.80</time>
<name>948</name>
<sym>Dot</sym>
</trkpt>
<trkpt lat="48.887702" lon="20.109047">
<ele>1907.0</ele>
<desc>Speed 4.5 km/h Distance 2.10 km</desc>
<time>2013-07-23T13:21:05.75</time>
<name>949</name>
<sym>Dot</sym>
</trkpt>
<trkpt lat="48.887708" lon="20.109040">
<ele>1907.5</ele>
<desc>Speed 3.1 km/h Distance 2.10 km</desc>
<time>2013-07-23T13:21:06.75</time>
<name>950</name>
<sym>Dot</sym>
</trkpt>
<trkpt lat="48.887718" lon="20.109032">
<ele>1907.5</ele>
<desc>Speed 4.4 km/h Distance 2.10 km</desc>
<time>2013-07-23T13:21:07.74</time>
<name>951</name>
<sym>Dot</sym>
</trkpt>
<trkpt lat="48.887725" lon="20.109005">
<ele>1907.5</ele>
<desc>Speed 4.9 km/h Distance 2.10 km</desc>
<time>2013-07-23T13:21:15.74</time>
<name>952</name>
<sym>Dot</sym>
</trkpt>
<trkpt lat="48.887735" lon="20.109000">
<ele>1908.5</ele>
<desc>Speed 4.0 km/h Distance 2.10 km</desc>
<time>2013-07-23T13:21:16.73</time>
<name>953</name>
<sym>Dot</sym>
</trkpt>
<trkpt lat="48.887742" lon="20.108982">
<ele>1908.5</ele>
<desc>Speed 5.4 km/h Distance 2.10 km</desc>
<time>2013-07-23T13:21:17.73</time>
<name>954</name>
<sym>Dot</sym>
</trkpt>
<trkpt lat="48.887747" lon="20.108962">
<ele>1908.5</ele>
<desc>Speed 5.5 km/h Distance 2.11 km</desc>
<time>2013-07-23T13:21:18.72</time>
<name>955</name>
<sym>Dot</sym>
</trkpt>
<trkpt lat="48.887757" lon="20.108947">
<ele>1908.5</ele>
<desc>Speed 4.8 km/h Distance 2.11 km</desc>
<time>2013-07-23T13:21:19.71</time>
<name>956</name>
<sym>Dot</sym>
</trkpt>
<trkpt lat="48.887763" lon="20.108938">
<ele>1909.0</ele>
<desc>Speed 3.4 km/h Distance 2.11 km</desc>
<time>2013-07-23T13:21:20.70</time>
<name>957</name>
<sym>Dot</sym>
</trkpt>
<trkpt lat="48.887773" lon="20.108917">
<ele>1909.0</ele>
<desc>Speed 6.4 km/h Distance 2.11 km</desc>
<time>2013-07-23T13:21:21.70</time>
<name>958</name>
<sym>Dot</sym>
</trkpt>
<trkpt lat="48.887783" lon="20.108902">
<ele>1909.0</ele>
<desc>Speed 5.2 km/h Distance 2.11 km</desc>
<time>2013-07-23T13:21:22.69</time>
<name>959</name>
<sym>Dot</sym>
</trkpt>
<trkpt lat="48.887793" lon="20.108888">
<ele>1909.0</ele>
<desc>Speed 5.2 km/h Distance 2.11 km</desc>
<time>2013-07-23T13:21:23.69</time>
<name>960</name>
<sym>Dot</sym>
</trkpt>
<trkpt lat="48.887807" lon="20.108875">
<ele>1908.5</ele>
<desc>Speed 6.2 km/h Distance 2.12 km</desc>
<time>2013-07-23T13:21:24.68</time>
<name>961</name>
<sym>Dot</sym>
</trkpt>
<trkpt lat="48.887817" lon="20.108853">
<ele>1908.5</ele>
<desc>Speed 6.6 km/h Distance 2.12 km</desc>
<time>2013-07-23T13:21:25.75</time>
<name>962</name>
<sym>Dot</sym>
</trkpt>
<trkpt lat="48.887827" lon="20.108832">
<ele>1908.5</ele>
<desc>Speed 7.2 km/h Distance 2.12 km</desc>
<time>2013-07-23T13:21:26.68</time>
<name>963</name>
<sym>Dot</sym>
</trkpt>
<trkpt lat="48.887837" lon="20.108815">
<ele>1908.5</ele>
<desc>Speed 6.2 km/h Distance 2.12 km</desc>
<time>2013-07-23T13:21:27.67</time>
<name>964</name>
<sym>Dot</sym>
</trkpt>
<trkpt lat="48.887845" lon="20.108800">
<ele>1909.0</ele>
<desc>Speed 5.3 km/h Distance 2.12 km</desc>
<time>2013-07-23T13:21:28.67</time>
<name>965</name>
<sym>Dot</sym>
</trkpt>
<trkpt lat="48.887855" lon="20.108783">
<ele>1909.0</ele>
<desc>Speed 5.9 km/h Distance 2.12 km</desc>
<time>2013-07-23T13:21:29.66</time>
<name>966</name>
<sym>Dot</sym>
</trkpt>
<trkpt lat="48.887865" lon="20.108767">
<ele>1909.0</ele>
<desc>Speed 6.0 km/h Distance 2.13 km</desc>
<time>2013-07-23T13:21:30.65</time>
<name>967</name>
<sym>Dot</sym>
</trkpt>
<trkpt lat="48.887873" lon="20.108752">
<ele>1909.0</ele>
<desc>Speed 5.4 km/h Distance 2.13 km</desc>
<time>2013-07-23T13:21:31.65</time>
<name>968</name>
<sym>Dot</sym>
</trkpt>
<trkpt lat="48.887885" lon="20.108740">
<ele>1909.0</ele>
<desc>Speed 5.4 km/h Distance 2.13 km</desc>
<time>2013-07-23T13:21:32.65</time>
<name>969</name>
<sym>Dot</sym>
</trkpt>
<trkpt lat="48.887897" lon="20.108725">
<ele>1909.0</ele>
<desc>Speed 5.9 km/h Distance 2.13 km</desc>
<time>2013-07-23T13:21:33.65</time>
<name>970</name>
<sym>Dot</sym>
</trkpt>
<trkpt lat="48.887907" lon="20.108708">
<ele>1909.5</ele>
<desc>Speed 6.3 km/h Distance 2.13 km</desc>
<time>2013-07-23T13:21:34.65</time>
<name>971</name>
<sym>Dot</sym>
</trkpt>
<trkpt lat="48.887918" lon="20.108687">
<ele>1909.5</ele>
<desc>Speed 7.2 km/h Distance 2.13 km</desc>
<time>2013-07-23T13:21:35.64</time>
<name>972</name>
<sym>Dot</sym>
</trkpt>
<trkpt lat="48.887928" lon="20.108670">
<ele>1909.5</ele>
<desc>Speed 6.7 km/h Distance 2.14 km</desc>
<time>2013-07-23T13:21:36.63</time>
<name>973</name>
<sym>Dot</sym>
</trkpt>
<trkpt lat="48.887938" lon="20.108655">
<ele>1909.5</ele>
<desc>Speed 6.6 km/h Distance 2.14 km</desc>
<time>2013-07-23T13:21:37.63</time>
<name>974</name>
<sym>Dot</sym>
</trkpt>
<trkpt lat="48.887950" lon="20.108638">
<ele>1910.0</ele>
<desc>Speed 6.1 km/h Distance 2.14 km</desc>
<time>2013-07-23T13:21:38.63</time>
<name>975</name>
<sym>Dot</sym>
</trkpt>
<trkpt lat="48.887960" lon="20.108617">
<ele>1910.0</ele>
<desc>Speed 7.2 km/h Distance 2.14 km</desc>
<time>2013-07-23T13:21:39.63</time>
<name>976</name>
<sym>Dot</sym>
</trkpt>
<trkpt lat="48.887970" lon="20.108603">
<ele>1910.0</ele>
<desc>Speed 5.5 km/h Distance 2.14 km</desc>
<time>2013-07-23T13:21:40.63</time>
<name>977</name>
<sym>Dot</sym>
</trkpt>
<trkpt lat="48.887978" lon="20.108583">
<ele>1910.0</ele>
<desc>Speed 6.4 km/h Distance 2.14 km</desc>
<time>2013-07-23T13:21:41.62</time>
<name>978</name>
<sym>Dot</sym>
</trkpt>
<trkpt lat="48.887992" lon="20.108562">
<ele>1910.0</ele>
<desc>Speed 7.7 km/h Distance 2.15 km</desc>
<time>2013-07-23T13:21:42.61</time>
<name>979</name>
<sym>Dot</sym>
</trkpt>
<trkpt lat="48.888002" lon="20.108543">
<ele>1910.0</ele>
<desc>Speed 7.5 km/h Distance 2.15 km</desc>
<time>2013-07-23T13:21:43.61</time>
<name>980</name>
<sym>Dot</sym>
</trkpt>
<trkpt lat="48.888012" lon="20.108522">
<ele>1910.0</ele>
<desc>Speed 6.7 km/h Distance 2.15 km</desc>
<time>2013-07-23T13:21:44.61</time>
<name>981</name>
<sym>Dot</sym>
</trkpt>
<trkpt lat="48.888022" lon="20.108500">
<ele>1910.0</ele>
<desc>Speed 6.9 km/h Distance 2.15 km</desc>
<time>2013-07-23T13:21:45.60</time>
<name>982</name>
<sym>Dot</sym>
</trkpt>
<trkpt lat="48.888033" lon="20.108480">
<ele>1910.0</ele>
<desc>Speed 7.3 km/h Distance 2.15 km</desc>
<time>2013-07-23T13:21:46.60</time>
<name>983</name>
<sym>Dot</sym>
</trkpt>
<trkpt lat="48.888043" lon="20.108462">
<ele>1910.0</ele>
<desc>Speed 6.4 km/h Distance 2.16 km</desc>
<time>2013-07-23T13:21:47.59</time>
<name>984</name>
<sym>Dot</sym>
</trkpt>
<trkpt lat="48.888055" lon="20.108443">
<ele>1910.5</ele>
<desc>Speed 6.6 km/h Distance 2.16 km</desc>
<time>2013-07-23T13:21:48.58</time>
<name>985</name>
<sym>Dot</sym>
</trkpt>
<trkpt lat="48.888065" lon="20.108418">
<ele>1910.5</ele>
<desc>Speed 7.9 km/h Distance 2.16 km</desc>
<time>2013-07-23T13:21:49.57</time>
<name>986</name>
<sym>Dot</sym>
</trkpt>
<trkpt lat="48.888073" lon="20.108395">
<ele>1910.5</ele>
<desc>Speed 7.2 km/h Distance 2.16 km</desc>
<time>2013-07-23T13:21:50.57</time>
<name>987</name>
<sym>Dot</sym>
</trkpt>
<trkpt lat="48.888083" lon="20.108375">
<ele>1910.5</ele>
<desc>Speed 7.0 km/h Distance 2.16 km</desc>
<time>2013-07-23T13:21:51.56</time>
<name>988</name>
<sym>Dot</sym>
</trkpt>
<trkpt lat="48.888097" lon="20.108350">
<ele>1910.5</ele>
<desc>Speed 8.6 km/h Distance 2.17 km</desc>
<time>2013-07-23T13:21:52.56</time>
<name>989</name>
<sym>Dot</sym>
</trkpt>
<trkpt lat="48.888108" lon="20.108330">
<ele>1910.5</ele>
<desc>Speed 7.1 km/h Distance 2.17 km</desc>
<time>2013-07-23T13:21:53.55</time>
<name>990</name>
<sym>Dot</sym>
</trkpt>
<trkpt lat="48.888118" lon="20.108312">
<ele>1911.0</ele>
<desc>Speed 6.4 km/h Distance 2.17 km</desc>
<time>2013-07-23T13:21:54.54</time>
<name>991</name>
<sym>Dot</sym>
</trkpt>
<trkpt lat="48.888128" lon="20.108292">
<ele>1911.0</ele>
<desc>Speed 6.6 km/h Distance 2.17 km</desc>
<time>2013-07-23T13:21:55.54</time>
<name>992</name>
<sym>Dot</sym>
</trkpt>
<trkpt lat="48.888140" lon="20.108277">
<ele>1911.0</ele>
<desc>Speed 5.6 km/h Distance 2.17 km</desc>
<time>2013-07-23T13:21:56.54</time>
<name>993</name>
<sym>Dot</sym>
</trkpt>
<trkpt lat="48.888150" lon="20.108257">
<ele>1911.0</ele>
<desc>Speed 6.5 km/h Distance 2.18 km</desc>
<time>2013-07-23T13:21:57.54</time>
<name>994</name>
<sym>Dot</sym>
</trkpt>
<trkpt lat="48.888158" lon="20.108237">
<ele>1911.0</ele>
<desc>Speed 6.2 km/h Distance 2.18 km</desc>
<time>2013-07-23T13:21:58.53</time>
<name>995</name>
<sym>Dot</sym>
</trkpt>
<trkpt lat="48.888172" lon="20.108222">
<ele>1911.5</ele>
<desc>Speed 6.2 km/h Distance 2.18 km</desc>
<time>2013-07-23T13:21:59.53</time>
<name>996</name>
<sym>Dot</sym>
</trkpt>
<trkpt lat="48.888182" lon="20.108200">
<ele>1911.5</ele>
<desc>Speed 6.8 km/h Distance 2.18 km</desc>
<time>2013-07-23T13:22:00.53</time>
<name>997</name>
<sym>Dot</sym>
</trkpt>
<trkpt lat="48.888192" lon="20.108178">
<ele>1911.5</ele>
<desc>Speed 7.1 km/h Distance 2.18 km</desc>
<time>2013-07-23T13:22:01.52</time>
<name>998</name>
<sym>Dot</sym>
</trkpt>
<trkpt lat="48.888200" lon="20.108165">
<ele>1912.0</ele>
<desc>Speed 6.3 km/h Distance 2.18 km</desc>
<time>2013-07-23T13:22:02.51</time>
<name>999</name>
<sym>Dot</sym>
</trkpt>
<trkpt lat="48.888212" lon="20.108142">
<ele>1912.0</ele>
<desc>Speed 7.7 km/h Distance 2.19 km</desc>
<time>2013-07-23T13:22:03.51</time>
<name>1000</name>
<sym>Dot</sym>
</trkpt>
<trkpt lat="48.888223" lon="20.108120">
<ele>1912.0</ele>
<desc>Speed 7.7 km/h Distance 2.19 km</desc>
<time>2013-07-23T13:22:04.50</time>
<name>1001</name>
<sym>Dot</sym>
</trkpt>
<trkpt lat="48.888233" lon="20.108097">
<ele>1911.5</ele>
<desc>Speed 7.3 km/h Distance 2.19 km</desc>
<time>2013-07-23T13:22:05.49</time>
<name>1002</name>
<sym>Dot</sym>
</trkpt>
<trkpt lat="48.888238" lon="20.108077">
<ele>1911.5</ele>
<desc>Speed 6.1 km/h Distance 2.19 km</desc>
<time>2013-07-23T13:22:06.49</time>
<name>1003</name>
<sym>Dot</sym>
</trkpt>
<trkpt lat="48.888243" lon="20.108063">
<ele>1912.0</ele>
<desc>Speed 5.2 km/h Distance 2.19 km</desc>
<time>2013-07-23T13:22:07.49</time>
<name>1004</name>
<sym>Dot</sym>
</trkpt>
<trkpt lat="48.888247" lon="20.108055">
<ele>1912.0</ele>
<desc>Speed 2.6 km/h Distance 2.19 km</desc>
<time>2013-07-23T13:22:08.47</time>
<name>1005</name>
<sym>Dot</sym>
</trkpt>
<trkpt lat="48.888253" lon="20.108040">
<ele>1911.5</ele>
<desc>Speed 5.0 km/h Distance 2.20 km</desc>
<time>2013-07-23T13:22:10.47</time>
<name>1006</name>
<sym>Dot</sym>
</trkpt>
<trkpt lat="48.888258" lon="20.108023">
<ele>1911.5</ele>
<desc>Speed 4.8 km/h Distance 2.20 km</desc>
<time>2013-07-23T13:22:11.47</time>
<name>1007</name>
<sym>Dot</sym>
</trkpt>
<trkpt lat="48.888262" lon="20.108005">
<ele>1911.5</ele>
<desc>Speed 5.4 km/h Distance 2.20 km</desc>
<time>2013-07-23T13:22:12.46</time>
<name>1008</name>
<sym>Dot</sym>
</trkpt>
<trkpt lat="48.888268" lon="20.107985">
<ele>1911.5</ele>
<desc>Speed 5.9 km/h Distance 2.20 km</desc>
<time>2013-07-23T13:22:13.45</time>
<name>1009</name>
<sym>Dot</sym>
</trkpt>
<trkpt lat="48.888275" lon="20.107970">
<ele>1911.5</ele>
<desc>Speed 5.3 km/h Distance 2.20 km</desc>
<time>2013-07-23T13:22:14.45</time>
<name>1010</name>
<sym>Dot</sym>
</trkpt>
<trkpt lat="48.888280" lon="20.107948">
<ele>1911.5</ele>
<desc>Speed 6.0 km/h Distance 2.20 km</desc>
<time>2013-07-23T13:22:15.45</time>
<name>1011</name>
<sym>Dot</sym>
</trkpt>
<trkpt lat="48.888287" lon="20.107927">
<ele>1911.5</ele>
<desc>Speed 6.1 km/h Distance 2.20 km</desc>
<time>2013-07-23T13:22:16.45</time>
<name>1012</name>
<sym>Dot</sym>
</trkpt>
<trkpt lat="48.888293" lon="20.107903">
<ele>1911.0</ele>
<desc>Speed 6.8 km/h Distance 2.21 km</desc>
<time>2013-07-23T13:22:17.44</time>
<name>1013</name>
<sym>Dot</sym>
</trkpt>
<trkpt lat="48.888305" lon="20.107877">
<ele>1911.0</ele>
<desc>Speed 8.4 km/h Distance 2.21 km</desc>
<time>2013-07-23T13:22:18.44</time>
<name>1014</name>
<sym>Dot</sym>
</trkpt>
<trkpt lat="48.888320" lon="20.107850">
<ele>1911.0</ele>
<desc>Speed 8.9 km/h Distance 2.21 km</desc>
<time>2013-07-23T13:22:19.43</time>
<name>1015</name>
<sym>Dot</sym>
</trkpt>
<trkpt lat="48.888327" lon="20.107825">
<ele>1911.0</ele>
<desc>Speed 7.1 km/h Distance 2.21 km</desc>
<time>2013-07-23T13:22:20.42</time>
<name>1016</name>
<sym>Dot</sym>
</trkpt>
<trkpt lat="48.888333" lon="20.107803">
<ele>1911.5</ele>
<desc>Speed 6.2 km/h Distance 2.21 km</desc>
<time>2013-07-23T13:22:21.43</time>
<name>1017</name>
<sym>Dot</sym>
</trkpt>
<trkpt lat="48.888340" lon="20.107783">
<ele>1911.5</ele>
<desc>Speed 6.3 km/h Distance 2.22 km</desc>
<time>2013-07-23T13:22:22.42</time>
<name>1018</name>
<sym>Dot</sym>
</trkpt>
<trkpt lat="48.888348" lon="20.107778">
<ele>1911.5</ele>
<desc>Speed 3.3 km/h Distance 2.22 km</desc>
<time>2013-07-23T13:22:23.42</time>
<name>1019</name>
<sym>Dot</sym>
</trkpt>
<trkpt lat="48.888355" lon="20.107760">
<ele>1911.5</ele>
<desc>Speed 5.6 km/h Distance 2.22 km</desc>
<time>2013-07-23T13:22:24.42</time>
<name>1020</name>
<sym>Dot</sym>
</trkpt>
<trkpt lat="48.888360" lon="20.107735">
<ele>1912.0</ele>
<desc>Speed 6.7 km/h Distance 2.22 km</desc>
<time>2013-07-23T13:22:25.41</time>
<name>1021</name>
<sym>Dot</sym>
</trkpt>
<trkpt lat="48.888365" lon="20.107713">
<ele>1912.0</ele>
<desc>Speed 6.7 km/h Distance 2.22 km</desc>
<time>2013-07-23T13:22:26.41</time>
<name>1022</name>
<sym>Dot</sym>
</trkpt>
<trkpt lat="48.888370" lon="20.107692">
<ele>1911.5</ele>
<desc>Speed 6.1 km/h Distance 2.22 km</desc>
<time>2013-07-23T13:22:27.40</time>
<name>1023</name>
<sym>Dot</sym>
</trkpt>
<trkpt lat="48.888372" lon="20.107667">
<ele>1911.5</ele>
<desc>Speed 7.1 km/h Distance 2.23 km</desc>
<time>2013-07-23T13:22:28.40</time>
<name>1024</name>
<sym>Dot</sym>
</trkpt>
<trkpt lat="48.888385" lon="20.107652">
<ele>1912.5</ele>
<desc>Speed 6.2 km/h Distance 2.23 km</desc>
<time>2013-07-23T13:22:29.39</time>
<name>1025</name>
<sym>Dot</sym>
</trkpt>
<trkpt lat="48.888390" lon="20.107633">
<ele>1912.5</ele>
<desc>Speed 5.7 km/h Distance 2.23 km</desc>
<time>2013-07-23T13:22:30.39</time>
<name>1026</name>
<sym>Dot</sym>
</trkpt>
<trkpt lat="48.888398" lon="20.107612">
<ele>1912.0</ele>
<desc>Speed 6.3 km/h Distance 2.23 km</desc>
<time>2013-07-23T13:22:31.38</time>
<name>1027</name>
<sym>Dot</sym>
</trkpt>
<trkpt lat="48.888403" lon="20.107592">
<ele>1912.0</ele>
<desc>Speed 5.7 km/h Distance 2.23 km</desc>
<time>2013-07-23T13:22:32.38</time>
<name>1028</name>
<sym>Dot</sym>
</trkpt>
<trkpt lat="48.888410" lon="20.107567">
<ele>1912.0</ele>
<desc>Speed 6.8 km/h Distance 2.23 km</desc>
<time>2013-07-23T13:22:33.37</time>
<name>1029</name>
<sym>Dot</sym>
</trkpt>
<trkpt lat="48.888417" lon="20.107535">
<ele>1912.0</ele>
<desc>Speed 8.5 km/h Distance 2.24 km</desc>
<time>2013-07-23T13:22:34.39</time>
<name>1030</name>
<sym>Dot</sym>
</trkpt>
<trkpt lat="48.888425" lon="20.107512">
<ele>1912.0</ele>
<desc>Speed 6.8 km/h Distance 2.24 km</desc>
<time>2013-07-23T13:22:35.36</time>
<name>1031</name>
<sym>Dot</sym>
</trkpt>
<trkpt lat="48.888430" lon="20.107487">
<ele>1912.0</ele>
<desc>Speed 7.2 km/h Distance 2.24 km</desc>
<time>2013-07-23T13:22:36.36</time>
<name>1032</name>
<sym>Dot</sym>
</trkpt>
<trkpt lat="48.888437" lon="20.107458">
<ele>1912.0</ele>
<desc>Speed 7.3 km/h Distance 2.24 km</desc>
<time>2013-07-23T13:22:37.35</time>
<name>1033</name>
<sym>Dot</sym>
</trkpt>
<trkpt lat="48.888442" lon="20.107435">
<ele>1912.0</ele>
<desc>Speed 6.7 km/h Distance 2.24 km</desc>
<time>2013-07-23T13:22:38.35</time>
<name>1034</name>
<sym>Dot</sym>
</trkpt>
<trkpt lat="48.888443" lon="20.107410">
<ele>1911.5</ele>
<desc>Speed 5.1 km/h Distance 2.25 km</desc>
<time>2013-07-23T13:22:39.34</time>
<name>1035</name>
<sym>Dot</sym>
</trkpt>
<trkpt lat="48.888442" lon="20.107390">
<ele>1910.5</ele>
<desc>Speed 3.8 km/h Distance 2.25 km</desc>
<time>2013-07-23T13:22:40.34</time>
<name>1036</name>
<sym>Dot</sym>
</trkpt>
<trkpt lat="48.888442" lon="20.107373">
<ele>1910.5</ele>
<desc>Speed 4.2 km/h Distance 2.25 km</desc>
<time>2013-07-23T13:22:41.34</time>
<name>1037</name>
<sym>Dot</sym>
</trkpt>
<trkpt lat="48.888442" lon="20.107355">
<ele>1910.5</ele>
<desc>Speed 4.5 km/h Distance 2.25 km</desc>
<time>2013-07-23T13:22:42.34</time>
<name>1038</name>
<sym>Dot</sym>
</trkpt>
<trkpt lat="48.888447" lon="20.107338">
<ele>1911.0</ele>
<desc>Speed 5.1 km/h Distance 2.25 km</desc>
<time>2013-07-23T13:22:43.34</time>
<name>1039</name>
<sym>Dot</sym>
</trkpt>
<trkpt lat="48.888450" lon="20.107317">
<ele>1911.0</ele>
<desc>Speed 5.8 km/h Distance 2.25 km</desc>
<time>2013-07-23T13:22:44.33</time>
<name>1040</name>
<sym>Dot</sym>
</trkpt>
<trkpt lat="48.888455" lon="20.107298">
<ele>1911.0</ele>
<desc>Speed 5.4 km/h Distance 2.26 km</desc>
<time>2013-07-23T13:22:45.33</time>
<name>1041</name>
<sym>Dot</sym>
</trkpt>
<trkpt lat="48.888462" lon="20.107277">
<ele>1910.5</ele>
<desc>Speed 6.0 km/h Distance 2.26 km</desc>
<time>2013-07-23T13:22:46.33</time>
<name>1042</name>
<sym>Dot</sym>
</trkpt>
<trkpt lat="48.888467" lon="20.107257">
<ele>1910.5</ele>
<desc>Speed 6.1 km/h Distance 2.26 km</desc>
<time>2013-07-23T13:22:47.32</time>
<name>1043</name>
<sym>Dot</sym>
</trkpt>
<trkpt lat="48.888472" lon="20.107238">
<ele>1910.5</ele>
<desc>Speed 5.5 km/h Distance 2.26 km</desc>
<time>2013-07-23T13:22:48.32</time>
<name>1044</name>
<sym>Dot</sym>
</trkpt>
<trkpt lat="48.888477" lon="20.107222">
<ele>1910.5</ele>
<desc>Speed 5.4 km/h Distance 2.26 km</desc>
<time>2013-07-23T13:22:49.32</time>
<name>1045</name>
<sym>Dot</sym>
</trkpt>
<trkpt lat="48.888480" lon="20.107207">
<ele>1910.5</ele>
<desc>Speed 4.0 km/h Distance 2.26 km</desc>
<time>2013-07-23T13:22:50.31</time>
<name>1046</name>
<sym>Dot</sym>
</trkpt>
<trkpt lat="48.888485" lon="20.107180">
<ele>1910.5</ele>
<desc>Speed 7.9 km/h Distance 2.26 km</desc>
<time>2013-07-23T13:22:51.31</time>
<name>1047</name>
<sym>Dot</sym>
</trkpt>
<trkpt lat="48.888487" lon="20.107163">
<ele>1910.5</ele>
<desc>Speed 4.9 km/h Distance 2.27 km</desc>
<time>2013-07-23T13:22:52.31</time>
<name>1048</name>
<sym>Dot</sym>
</trkpt>
<trkpt lat="48.888487" lon="20.107147">
<ele>1910.5</ele>
<desc>Speed 4.8 km/h Distance 2.27 km</desc>
<time>2013-07-23T13:22:53.31</time>
<name>1049</name>
<sym>Dot</sym>
</trkpt>
<trkpt lat="48.888493" lon="20.107137">
<ele>1911.5</ele>
<desc>Speed 4.1 km/h Distance 2.27 km</desc>
<time>2013-07-23T13:22:54.30</time>
<name>1050</name>
<sym>Dot</sym>
</trkpt>
<trkpt lat="48.888502" lon="20.107118">
<ele>1911.5</ele>
<desc>Speed 5.8 km/h Distance 2.27 km</desc>
<time>2013-07-23T13:22:55.30</time>
<name>1051</name>
<sym>Dot</sym>
</trkpt>
<trkpt lat="48.888505" lon="20.107098">
<ele>1911.5</ele>
<desc>Speed 5.3 km/h Distance 2.27 km</desc>
<time>2013-07-23T13:22:56.50</time>
<name>1052</name>
<sym>Dot</sym>
</trkpt>
<trkpt lat="48.888512" lon="20.107082">
<ele>1911.5</ele>
<desc>Speed 5.3 km/h Distance 2.27 km</desc>
<time>2013-07-23T13:22:57.29</time>
<name>1053</name>
<sym>Dot</sym>
</trkpt>
<trkpt lat="48.888518" lon="20.107068">
<ele>1912.0</ele>
<desc>Speed 5.0 km/h Distance 2.27 km</desc>
<time>2013-07-23T13:22:58.28</time>
<name>1054</name>
<sym>Dot</sym>
</trkpt>
<trkpt lat="48.888525" lon="20.107050">
<ele>1912.0</ele>
<desc>Speed 5.4 km/h Distance 2.28 km</desc>
<time>2013-07-23T13:22:59.28</time>
<name>1055</name>
<sym>Dot</sym>
</trkpt>
<trkpt lat="48.888528" lon="20.107032">
<ele>1912.0</ele>
<desc>Speed 5.0 km/h Distance 2.28 km</desc>
<time>2013-07-23T13:23:00.28</time>
<name>1056</name>
<sym>Dot</sym>
</trkpt>
<trkpt lat="48.888530" lon="20.107015">
<ele>1912.0</ele>
<desc>Speed 5.0 km/h Distance 2.28 km</desc>
<time>2013-07-23T13:23:01.27</time>
<name>1057</name>
<sym>Dot</sym>
</trkpt>
<trkpt lat="48.888533" lon="20.107000">
<ele>1912.0</ele>
<desc>Speed 4.3 km/h Distance 2.28 km</desc>
<time>2013-07-23T13:23:02.26</time>
<name>1058</name>
<sym>Dot</sym>
</trkpt>
<trkpt lat="48.888538" lon="20.106985">
<ele>1912.0</ele>
<desc>Speed 5.3 km/h Distance 2.28 km</desc>
<time>2013-07-23T13:23:03.25</time>
<name>1059</name>
<sym>Dot</sym>
</trkpt>
<trkpt lat="48.888543" lon="20.106967">
<ele>1912.5</ele>
<desc>Speed 5.7 km/h Distance 2.28 km</desc>
<time>2013-07-23T13:23:04.24</time>
<name>1060</name>
<sym>Dot</sym>
</trkpt>
<trkpt lat="48.888547" lon="20.106950">
<ele>1912.5</ele>
<desc>Speed 5.1 km/h Distance 2.28 km</desc>
<time>2013-07-23T13:23:05.24</time>
<name>1061</name>
<sym>Dot</sym>
</trkpt>
<trkpt lat="48.888548" lon="20.106933">
<ele>1912.5</ele>
<desc>Speed 5.4 km/h Distance 2.28 km</desc>
<time>2013-07-23T13:23:06.24</time>
<name>1062</name>
<sym>Dot</sym>
</trkpt>
<trkpt lat="48.888552" lon="20.106912">
<ele>1912.5</ele>
<desc>Speed 5.5 km/h Distance 2.29 km</desc>
<time>2013-07-23T13:23:07.23</time>
<name>1063</name>
<sym>Dot</sym>
</trkpt>
<trkpt lat="48.888555" lon="20.106897">
<ele>1912.5</ele>
<desc>Speed 4.5 km/h Distance 2.29 km</desc>
<time>2013-07-23T13:23:08.22</time>
<name>1064</name>
<sym>Dot</sym>
</trkpt>
<trkpt lat="48.888558" lon="20.106878">
<ele>1912.5</ele>
<desc>Speed 5.4 km/h Distance 2.29 km</desc>
<time>2013-07-23T13:23:09.22</time>
<name>1065</name>
<sym>Dot</sym>
</trkpt>
<trkpt lat="48.888565" lon="20.106858">
<ele>1912.5</ele>
<desc>Speed 5.4 km/h Distance 2.29 km</desc>
<time>2013-07-23T13:23:10.21</time>
<name>1066</name>
<sym>Dot</sym>
</trkpt>
<trkpt lat="48.888570" lon="20.106843">
<ele>1913.0</ele>
<desc>Speed 4.4 km/h Distance 2.29 km</desc>
<time>2013-07-23T13:23:11.21</time>
<name>1067</name>
<sym>Dot</sym>
</trkpt>
<trkpt lat="48.888575" lon="20.106827">
<ele>1913.5</ele>
<desc>Speed 5.3 km/h Distance 2.29 km</desc>
<time>2013-07-23T13:23:12.20</time>
<name>1068</name>
<sym>Dot</sym>
</trkpt>
<trkpt lat="48.888580" lon="20.106808">
<ele>1913.5</ele>
<desc>Speed 5.2 km/h Distance 2.29 km</desc>
<time>2013-07-23T13:23:13.20</time>
<name>1069</name>
<sym>Dot</sym>
</trkpt>
<trkpt lat="48.888587" lon="20.106787">
<ele>1913.5</ele>
<desc>Speed 6.4 km/h Distance 2.30 km</desc>
<time>2013-07-23T13:23:14.19</time>
<name>1070</name>
<sym>Dot</sym>
</trkpt>
<trkpt lat="48.888590" lon="20.106772">
<ele>1914.0</ele>
<desc>Speed 4.5 km/h Distance 2.30 km</desc>
<time>2013-07-23T13:23:15.19</time>
<name>1071</name>
<sym>Dot</sym>
</trkpt>
<trkpt lat="48.888595" lon="20.106758">
<ele>1914.5</ele>
<desc>Speed 4.4 km/h Distance 2.30 km</desc>
<time>2013-07-23T13:23:16.18</time>
<name>1072</name>
<sym>Dot</sym>
</trkpt>
<trkpt lat="48.888598" lon="20.106740">
<ele>1914.5</ele>
<desc>Speed 5.3 km/h Distance 2.30 km</desc>
<time>2013-07-23T13:23:17.17</time>
<name>1073</name>
<sym>Dot</sym>
</trkpt>
<trkpt lat="48.888600" lon="20.106718">
<ele>1914.5</ele>
<desc>Speed 5.9 km/h Distance 2.30 km</desc>
<time>2013-07-23T13:23:18.17</time>
<name>1074</name>
<sym>Dot</sym>
</trkpt>
<trkpt lat="48.888602" lon="20.106700">
<ele>1914.5</ele>
<desc>Speed 4.8 km/h Distance 2.30 km</desc>
<time>2013-07-23T13:23:19.17</time>
<name>1075</name>
<sym>Dot</sym>
</trkpt>
<trkpt lat="48.888602" lon="20.106688">
<ele>1914.5</ele>
<desc>Speed 3.6 km/h Distance 2.30 km</desc>
<time>2013-07-23T13:23:20.16</time>
<name>1076</name>
<sym>Dot</sym>
</trkpt>
<trkpt lat="48.888602" lon="20.106680">
<ele>1915.0</ele>
<desc>Speed 3.3 km/h Distance 2.30 km</desc>
<time>2013-07-23T13:23:21.16</time>
<name>1077</name>
<sym>Dot</sym>
</trkpt>
<trkpt lat="48.888605" lon="20.106668">
<ele>1915.0</ele>
<desc>Speed 4.0 km/h Distance 2.30 km</desc>
<time>2013-07-23T13:23:22.15</time>
<name>1078</name>
<sym>Dot</sym>
</trkpt>
<trkpt lat="48.888612" lon="20.106638">
<ele>1915.0</ele>
<desc>Speed 8.4 km/h Distance 2.31 km</desc>
<time>2013-07-23T13:23:23.14</time>
<name>1079</name>
<sym>Dot</sym>
</trkpt>
<trkpt lat="48.888618" lon="20.106627">
<ele>1915.5</ele>
<desc>Speed 4.6 km/h Distance 2.31 km</desc>
<time>2013-07-23T13:23:24.13</time>
<name>1080</name>
<sym>Dot</sym>
</trkpt>
<trkpt lat="48.888628" lon="20.106615">
<ele>1915.5</ele>
<desc>Speed 4.4 km/h Distance 2.31 km</desc>
<time>2013-07-23T13:23:25.61</time>
<name>1081</name>
<sym>Dot</sym>
</trkpt>
<trkpt lat="48.888637" lon="20.106602">
<ele>1915.5</ele>
<desc>Speed 4.9 km/h Distance 2.31 km</desc>
<time>2013-07-23T13:23:26.13</time>
<name>1082</name>
<sym>Dot</sym>
</trkpt>
<trkpt lat="48.888642" lon="20.106582">
<ele>1915.5</ele>
<desc>Speed 5.9 km/h Distance 2.31 km</desc>
<time>2013-07-23T13:23:27.12</time>
<name>1083</name>
<sym>Dot</sym>
</trkpt>
<trkpt lat="48.888645" lon="20.106565">
<ele>1916.0</ele>
<desc>Speed 4.6 km/h Distance 2.31 km</desc>
<time>2013-07-23T13:23:28.12</time>
<name>1084</name>
<sym>Dot</sym>
</trkpt>
<trkpt lat="48.888648" lon="20.106548">
<ele>1916.5</ele>
<desc>Speed 4.9 km/h Distance 2.32 km</desc>
<time>2013-07-23T13:23:29.14</time>
<name>1085</name>
<sym>Dot</sym>
</trkpt>
<trkpt lat="48.888650" lon="20.106530">
<ele>1917.0</ele>
<desc>Speed 5.1 km/h Distance 2.32 km</desc>
<time>2013-07-23T13:23:30.14</time>
<name>1086</name>
<sym>Dot</sym>
</trkpt>
<trkpt lat="48.888655" lon="20.106512">
<ele>1917.0</ele>
<desc>Speed 4.8 km/h Distance 2.32 km</desc>
<time>2013-07-23T13:23:31.11</time>
<name>1087</name>
<sym>Dot</sym>
</trkpt>
<trkpt lat="48.888658" lon="20.106500">
<ele>1917.0</ele>
<desc>Speed 3.4 km/h Distance 2.32 km</desc>
<time>2013-07-23T13:23:32.11</time>
<name>1088</name>
<sym>Dot</sym>
</trkpt>
<trkpt lat="48.888662" lon="20.106487">
<ele>1917.0</ele>
<desc>Speed 3.6 km/h Distance 2.32 km</desc>
<time>2013-07-23T13:23:33.10</time>
<name>1089</name>
<sym>Dot</sym>
</trkpt>
<trkpt lat="48.888667" lon="20.106473">
<ele>1917.5</ele>
<desc>Speed 4.5 km/h Distance 2.32 km</desc>
<time>2013-07-23T13:23:34.09</time>
<name>1090</name>
<sym>Dot</sym>
</trkpt>
<trkpt lat="48.888670" lon="20.106455">
<ele>1917.5</ele>
<desc>Speed 4.9 km/h Distance 2.32 km</desc>
<time>2013-07-23T13:23:35.09</time>
<name>1091</name>
<sym>Dot</sym>
</trkpt>
<trkpt lat="48.888673" lon="20.106462">
<ele>1918.5</ele>
<desc>Speed 2.4 km/h Distance 2.32 km</desc>
<time>2013-07-23T13:24:06.09</time>
<name>1092</name>
<sym>Dot</sym>
</trkpt>
<trkpt lat="48.888663" lon="20.106465">
<ele>1919.0</ele>
<desc>Speed 2.2 km/h Distance 2.32 km</desc>
<time>2013-07-23T13:24:20.09</time>
<name>1093</name>
<sym>Dot</sym>
</trkpt>
<trkpt lat="48.888688" lon="20.106450">
<ele>1918.5</ele>
<desc>Speed 4.4 km/h Distance 2.33 km</desc>
<time>2013-07-23T13:25:16.08</time>
<name>1094</name>
<sym>Dot</sym>
</trkpt>
<trkpt lat="48.888698" lon="20.106432">
<ele>1918.5</ele>
<desc>Speed 6.3 km/h Distance 2.33 km</desc>
<time>2013-07-23T13:25:17.07</time>
<name>1095</name>
<sym>Dot</sym>
</trkpt>
<trkpt lat="48.888707" lon="20.106408">
<ele>1918.5</ele>
<desc>Speed 7.0 km/h Distance 2.33 km</desc>
<time>2013-07-23T13:25:18.07</time>
<name>1096</name>
<sym>Dot</sym>
</trkpt>
<trkpt lat="48.888715" lon="20.106387">
<ele>1918.5</ele>
<desc>Speed 6.4 km/h Distance 2.33 km</desc>
<time>2013-07-23T13:25:19.07</time>
<name>1097</name>
<sym>Dot</sym>
</trkpt>
<trkpt lat="48.888720" lon="20.106365">
<ele>1918.5</ele>
<desc>Speed 6.3 km/h Distance 2.33 km</desc>
<time>2013-07-23T13:25:20.07</time>
<name>1098</name>
<sym>Dot</sym>
</trkpt>
<trkpt lat="48.888725" lon="20.106338">
<ele>1918.5</ele>
<desc>Speed 7.4 km/h Distance 2.34 km</desc>
<time>2013-07-23T13:25:21.07</time>
<name>1099</name>
<sym>Dot</sym>
</trkpt>
<trkpt lat="48.888728" lon="20.106313">
<ele>1918.5</ele>
<desc>Speed 6.7 km/h Distance 2.34 km</desc>
<time>2013-07-23T13:25:22.06</time>
<name>1100</name>
<sym>Dot</sym>
</trkpt>
<trkpt lat="48.888727" lon="20.106285">
<ele>1918.5</ele>
<desc>Speed 7.7 km/h Distance 2.34 km</desc>
<time>2013-07-23T13:25:23.05</time>
<name>1101</name>
<sym>Dot</sym>
</trkpt>
<trkpt lat="48.888725" lon="20.106255">
<ele>1918.5</ele>
<desc>Speed 8.4 km/h Distance 2.34 km</desc>
<time>2013-07-23T13:25:24.04</time>
<name>1102</name>
<sym>Dot</sym>
</trkpt>
<trkpt lat="48.888720" lon="20.106217">
<ele>1918.5</ele>
<desc>Speed 9.9 km/h Distance 2.35 km</desc>
<time>2013-07-23T13:25:25.04</time>
<name>1103</name>
<sym>Dot</sym>
</trkpt>
<trkpt lat="48.888718" lon="20.106183">
<ele>1918.0</ele>
<desc>Speed 8.3 km/h Distance 2.35 km</desc>
<time>2013-07-23T13:25:26.04</time>
<name>1104</name>
<sym>Dot</sym>
</trkpt>
<trkpt lat="48.888718" lon="20.106157">
<ele>1918.0</ele>
<desc>Speed 7.1 km/h Distance 2.35 km</desc>
<time>2013-07-23T13:25:27.03</time>
<name>1105</name>
<sym>Dot</sym>
</trkpt>
<trkpt lat="48.888725" lon="20.106133">
<ele>1918.0</ele>
<desc>Speed 7.4 km/h Distance 2.35 km</desc>
<time>2013-07-23T13:25:28.03</time>
<name>1106</name>
<sym>Dot</sym>
</trkpt>
<trkpt lat="48.888730" lon="20.106105">
<ele>1918.0</ele>
<desc>Speed 8.1 km/h Distance 2.35 km</desc>
<time>2013-07-23T13:25:29.02</time>
<name>1107</name>
<sym>Dot</sym>
</trkpt>
<trkpt lat="48.888730" lon="20.106080">
<ele>1918.0</ele>
<desc>Speed 7.0 km/h Distance 2.36 km</desc>
<time>2013-07-23T13:25:30.01</time>
<name>1108</name>
<sym>Dot</sym>
</trkpt>
<trkpt lat="48.888732" lon="20.106055">
<ele>1918.0</ele>
<desc>Speed 7.2 km/h Distance 2.36 km</desc>
<time>2013-07-23T13:25:31.01</time>
<name>1109</name>
<sym>Dot</sym>
</trkpt>
<trkpt lat="48.888742" lon="20.106023">
<ele>1918.0</ele>
<desc>Speed 9.2 km/h Distance 2.36 km</desc>
<time>2013-07-23T13:25:32.00</time>
<name>1110</name>
<sym>Dot</sym>
</trkpt>
<trkpt lat="48.888752" lon="20.105990">
<ele>1918.0</ele>
<desc>Speed 10.0 km/h Distance 2.36 km</desc>
<time>2013-07-23T13:25:33.00</time>
<name>1111</name>
<sym>Dot</sym>
</trkpt>
<trkpt lat="48.888757" lon="20.105955">
<ele>1918.0</ele>
<desc>Speed 9.6 km/h Distance 2.37 km</desc>
<time>2013-07-23T13:25:33.99</time>
<name>1112</name>
<sym>Dot</sym>
</trkpt>
<trkpt lat="48.888760" lon="20.105922">
<ele>1918.0</ele>
<desc>Speed 8.6 km/h Distance 2.37 km</desc>
<time>2013-07-23T13:25:34.98</time>
<name>1113</name>
<sym>Dot</sym>
</trkpt>
<trkpt lat="48.888763" lon="20.105895">
<ele>1918.0</ele>
<desc>Speed 7.3 km/h Distance 2.37 km</desc>
<time>2013-07-23T13:25:35.97</time>
<name>1114</name>
<sym>Dot</sym>
</trkpt>
<trkpt lat="48.888765" lon="20.105867">
<ele>1918.0</ele>
<desc>Speed 6.8 km/h Distance 2.37 km</desc>
<time>2013-07-23T13:25:36.97</time>
<name>1115</name>
<sym>Dot</sym>
</trkpt>
<trkpt lat="48.888770" lon="20.105847">
<ele>1918.0</ele>
<desc>Speed 5.0 km/h Distance 2.37 km</desc>
<time>2013-07-23T13:25:37.96</time>
<name>1116</name>
<sym>Dot</sym>
</trkpt>
<trkpt lat="48.888773" lon="20.105828">
<ele>1918.5</ele>
<desc>Speed 4.9 km/h Distance 2.38 km</desc>
<time>2013-07-23T13:25:38.96</time>
<name>1117</name>
<sym>Dot</sym>
</trkpt>
<trkpt lat="48.888777" lon="20.105812">
<ele>1918.5</ele>
<desc>Speed 4.8 km/h Distance 2.38 km</desc>
<time>2013-07-23T13:25:39.95</time>
<name>1118</name>
<sym>Dot</sym>
</trkpt>
<trkpt lat="48.888785" lon="20.105792">
<ele>1918.5</ele>
<desc>Speed 6.3 km/h Distance 2.38 km</desc>
<time>2013-07-23T13:25:40.94</time>
<name>1119</name>
<sym>Dot</sym>
</trkpt>
<trkpt lat="48.888792" lon="20.105770">
<ele>1918.5</ele>
<desc>Speed 6.4 km/h Distance 2.38 km</desc>
<time>2013-07-23T13:25:41.94</time>
<name>1120</name>
<sym>Dot</sym>
</trkpt>
<trkpt lat="48.888798" lon="20.105747">
<ele>1919.0</ele>
<desc>Speed 6.8 km/h Distance 2.38 km</desc>
<time>2013-07-23T13:25:42.94</time>
<name>1121</name>
<sym>Dot</sym>
</trkpt>
<trkpt lat="48.888803" lon="20.105723">
<ele>1919.0</ele>
<desc>Speed 6.8 km/h Distance 2.38 km</desc>
<time>2013-07-23T13:25:43.94</time>
<name>1122</name>
<sym>Dot</sym>
</trkpt>
<trkpt lat="48.888810" lon="20.105698">
<ele>1919.0</ele>
<desc>Speed 7.2 km/h Distance 2.39 km</desc>
<time>2013-07-23T13:25:44.94</time>
<name>1123</name>
<sym>Dot</sym>
</trkpt>
<trkpt lat="48.888817" lon="20.105670">
<ele>1919.0</ele>
<desc>Speed 8.1 km/h Distance 2.39 km</desc>
<time>2013-07-23T13:25:45.93</time>
<name>1124</name>
<sym>Dot</sym>
</trkpt>
<trkpt lat="48.888825" lon="20.105648">
<ele>1919.0</ele>
<desc>Speed 6.7 km/h Distance 2.39 km</desc>
<time>2013-07-23T13:25:46.93</time>
<name>1125</name>
<sym>Dot</sym>
</trkpt>
<trkpt lat="48.888830" lon="20.105628">
<ele>1919.0</ele>
<desc>Speed 5.7 km/h Distance 2.39 km</desc>
<time>2013-07-23T13:25:47.92</time>
<name>1126</name>
<sym>Dot</sym>
</trkpt>
<trkpt lat="48.888830" lon="20.105613">
<ele>1919.0</ele>
<desc>Speed 4.5 km/h Distance 2.39 km</desc>
<time>2013-07-23T13:25:48.92</time>
<name>1127</name>
<sym>Dot</sym>
</trkpt>
<trkpt lat="48.888827" lon="20.105598">
<ele>1918.5</ele>
<desc>Speed 4.9 km/h Distance 2.39 km</desc>
<time>2013-07-23T13:25:49.94</time>
<name>1128</name>
<sym>Dot</sym>
</trkpt>
<trkpt lat="48.888825" lon="20.105578">
<ele>1918.5</ele>
<desc>Speed 6.1 km/h Distance 2.39 km</desc>
<time>2013-07-23T13:25:50.91</time>
<name>1129</name>
<sym>Dot</sym>
</trkpt>
<trkpt lat="48.888827" lon="20.105560">
<ele>1918.5</ele>
<desc>Speed 5.4 km/h Distance 2.40 km</desc>
<time>2013-07-23T13:25:51.92</time>
<name>1130</name>
<sym>Dot</sym>
</trkpt>
<trkpt lat="48.888825" lon="20.105543">
<ele>1918.5</ele>
<desc>Speed 4.6 km/h Distance 2.40 km</desc>
<time>2013-07-23T13:25:52.91</time>
<name>1131</name>
<sym>Dot</sym>
</trkpt>
<trkpt lat="48.888823" lon="20.105523">
<ele>1918.5</ele>
<desc>Speed 5.8 km/h Distance 2.40 km</desc>
<time>2013-07-23T13:25:53.91</time>
<name>1132</name>
<sym>Dot</sym>
</trkpt>
<trkpt lat="48.888818" lon="20.105505">
<ele>1918.5</ele>
<desc>Speed 5.5 km/h Distance 2.40 km</desc>
<time>2013-07-23T13:25:54.91</time>
<name>1133</name>
<sym>Dot</sym>
</trkpt>
<trkpt lat="48.888813" lon="20.105488">
<ele>1918.0</ele>
<desc>Speed 5.0 km/h Distance 2.40 km</desc>
<time>2013-07-23T13:25:55.91</time>
<name>1134</name>
<sym>Dot</sym>
</trkpt>
<trkpt lat="48.888805" lon="20.105472">
<ele>1918.0</ele>
<desc>Speed 5.8 km/h Distance 2.40 km</desc>
<time>2013-07-23T13:25:56.90</time>
<name>1135</name>
<sym>Dot</sym>
</trkpt>
<trkpt lat="48.888790" lon="20.105458">
<ele>1917.5</ele>
<desc>Speed 6.8 km/h Distance 2.41 km</desc>
<time>2013-07-23T13:25:57.89</time>
<name>1136</name>
<sym>Dot</sym>
</trkpt>
<trkpt lat="48.888782" lon="20.105448">
<ele>1917.5</ele>
<desc>Speed 4.1 km/h Distance 2.41 km</desc>
<time>2013-07-23T13:25:58.89</time>
<name>1137</name>
<sym>Dot</sym>
</trkpt>
<trkpt lat="48.888770" lon="20.105427">
<ele>1917.5</ele>
<desc>Speed 6.4 km/h Distance 2.41 km</desc>
<time>2013-07-23T13:25:59.89</time>
<name>1138</name>
<sym>Dot</sym>
</trkpt>
<trkpt lat="48.888757" lon="20.105397">
<ele>1917.0</ele>
<desc>Speed 8.7 km/h Distance 2.41 km</desc>
<time>2013-07-23T13:26:00.89</time>
<name>1139</name>
<sym>Dot</sym>
</trkpt>
<trkpt lat="48.888742" lon="20.105357">
<ele>1917.0</ele>
<desc>Speed 11.7 km/h Distance 2.41 km</desc>
<time>2013-07-23T13:26:01.88</time>
<name>1140</name>
<sym>Dot</sym>
</trkpt>
<trkpt lat="48.888728" lon="20.105312">
<ele>1916.0</ele>
<desc>Speed 12.2 km/h Distance 2.42 km</desc>
<time>2013-07-23T13:26:02.88</time>
<name>1141</name>
<sym>Dot</sym>
</trkpt>
<trkpt lat="48.888718" lon="20.105268">
<ele>1915.5</ele>
<desc>Speed 12.0 km/h Distance 2.42 km</desc>
<time>2013-07-23T13:26:03.88</time>
<name>1142</name>
<sym>Dot</sym>
</trkpt>
<trkpt lat="48.888707" lon="20.105223">
<ele>1915.5</ele>
<desc>Speed 12.9 km/h Distance 2.42 km</desc>
<time>2013-07-23T13:26:04.87</time>
<name>1143</name>
<sym>Dot</sym>
</trkpt>
<trkpt lat="48.888695" lon="20.105178">
<ele>1915.5</ele>
<desc>Speed 12.6 km/h Distance 2.43 km</desc>
<time>2013-07-23T13:26:05.87</time>
<name>1144</name>
<sym>Dot</sym>
</trkpt>
<trkpt lat="48.888685" lon="20.105135">
<ele>1915.5</ele>
<desc>Speed 11.8 km/h Distance 2.43 km</desc>
<time>2013-07-23T13:26:06.86</time>
<name>1145</name>
<sym>Dot</sym>
</trkpt>
<trkpt lat="48.888677" lon="20.105095">
<ele>1915.5</ele>
<desc>Speed 11.0 km/h Distance 2.43 km</desc>
<time>2013-07-23T13:26:07.85</time>
<name>1146</name>
<sym>Dot</sym>
</trkpt>
<trkpt lat="48.888668" lon="20.105063">
<ele>1915.0</ele>
<desc>Speed 8.8 km/h Distance 2.44 km</desc>
<time>2013-07-23T13:26:08.84</time>
<name>1147</name>
<sym>Dot</sym>
</trkpt>
<trkpt lat="48.888662" lon="20.105038">
<ele>1915.0</ele>
<desc>Speed 6.8 km/h Distance 2.44 km</desc>
<time>2013-07-23T13:26:09.84</time>
<name>1148</name>
<sym>Dot</sym>
</trkpt>
<trkpt lat="48.888655" lon="20.105015">
<ele>1914.5</ele>
<desc>Speed 6.8 km/h Distance 2.44 km</desc>
<time>2013-07-23T13:26:10.84</time>
<name>1149</name>
<sym>Dot</sym>
</trkpt>
<trkpt lat="48.888652" lon="20.104990">
<ele>1914.5</ele>
<desc>Speed 6.4 km/h Distance 2.44 km</desc>
<time>2013-07-23T13:26:11.84</time>
<name>1150</name>
<sym>Dot</sym>
</trkpt>
<trkpt lat="48.888650" lon="20.104975">
<ele>1914.5</ele>
<desc>Speed 4.4 km/h Distance 2.44 km</desc>
<time>2013-07-23T13:26:12.84</time>
<name>1151</name>
<sym>Dot</sym>
</trkpt>
<trkpt lat="48.888648" lon="20.104958">
<ele>1914.5</ele>
<desc>Speed 4.4 km/h Distance 2.45 km</desc>
<time>2013-07-23T13:26:13.83</time>
<name>1152</name>
<sym>Dot</sym>
</trkpt>
<trkpt lat="48.888653" lon="20.104928">
<ele>1913.0</ele>
<desc>Speed 4.4 km/h Distance 2.45 km</desc>
<time>2013-07-23T13:26:16.82</time>
<name>1153</name>
<sym>Dot</sym>
</trkpt>
<trkpt lat="48.888657" lon="20.104907">
<ele>1912.0</ele>
<desc>Speed 5.6 km/h Distance 2.45 km</desc>
<time>2013-07-23T13:26:17.82</time>
<name>1154</name>
<sym>Dot</sym>
</trkpt>
<trkpt lat="48.888658" lon="20.104910">
<ele>1912.5</ele>
<desc>Speed 5.4 km/h Distance 2.45 km</desc>
<time>2013-07-23T13:26:20.82</time>
<name>1155</name>
<sym>Dot</sym>
</trkpt>
<trkpt lat="48.888658" lon="20.104870">
<ele>1911.0</ele>
<desc>Speed 2.5 km/h Distance 2.45 km</desc>
<time>2013-07-23T13:26:29.81</time>
<name>1156</name>
<sym>Dot</sym>
</trkpt>
<trkpt lat="48.888657" lon="20.104848">
<ele>1910.5</ele>
<desc>Speed 3.4 km/h Distance 2.45 km</desc>
<time>2013-07-23T13:26:31.81</time>
<name>1157</name>
<sym>Dot</sym>
</trkpt>
<trkpt lat="48.888655" lon="20.104823">
<ele>1909.0</ele>
<desc>Speed 3.3 km/h Distance 2.46 km</desc>
<time>2013-07-23T13:26:36.80</time>
<name>1158</name>
<sym>Dot</sym>
</trkpt>
<trkpt lat="48.888653" lon="20.104813">
<ele>1908.5</ele>
<desc>Speed 2.3 km/h Distance 2.46 km</desc>
<time>2013-07-23T13:26:37.79</time>
<name>1159</name>
<sym>Dot</sym>
</trkpt>
<trkpt lat="48.888652" lon="20.104805">
<ele>1908.5</ele>
<desc>Speed 2.4 km/h Distance 2.46 km</desc>
<time>2013-07-23T13:26:38.79</time>
<name>1160</name>
<sym>Dot</sym>
</trkpt>
<trkpt lat="48.888653" lon="20.104797">
<ele>1908.0</ele>
<desc>Speed 2.2 km/h Distance 2.46 km</desc>
<time>2013-07-23T13:26:39.79</time>
<name>1161</name>
<sym>Dot</sym>
</trkpt>
<trkpt lat="48.888657" lon="20.104785">
<ele>1908.0</ele>
<desc>Speed 3.2 km/h Distance 2.46 km</desc>
<time>2013-07-23T13:26:40.78</time>
<name>1162</name>
<sym>Dot</sym>
</trkpt>
<trkpt lat="48.888658" lon="20.104770">
<ele>1907.5</ele>
<desc>Speed 3.6 km/h Distance 2.46 km</desc>
<time>2013-07-23T13:26:41.77</time>
<name>1163</name>
<sym>Dot</sym>
</trkpt>
<trkpt lat="48.888660" lon="20.104757">
<ele>1907.5</ele>
<desc>Speed 3.6 km/h Distance 2.46 km</desc>
<time>2013-07-23T13:26:42.76</time>
<name>1164</name>
<sym>Dot</sym>
</trkpt>
<trkpt lat="48.888662" lon="20.104740">
<ele>1907.0</ele>
<desc>Speed 4.9 km/h Distance 2.46 km</desc>
<time>2013-07-23T13:26:43.76</time>
<name>1165</name>
<sym>Dot</sym>
</trkpt>
<trkpt lat="48.888662" lon="20.104727">
<ele>1906.5</ele>
<desc>Speed 3.7 km/h Distance 2.46 km</desc>
<time>2013-07-23T13:26:44.76</time>
<name>1166</name>
<sym>Dot</sym>
</trkpt>
<trkpt lat="48.888667" lon="20.104720">
<ele>1906.0</ele>
<desc>Speed 2.7 km/h Distance 2.46 km</desc>
<time>2013-07-23T13:26:46.76</time>
<name>1167</name>
<sym>Dot</sym>
</trkpt>
<trkpt lat="48.888670" lon="20.104708">
<ele>1906.0</ele>
<desc>Speed 3.5 km/h Distance 2.46 km</desc>
<time>2013-07-23T13:26:47.76</time>
<name>1168</name>
<sym>Dot</sym>
</trkpt>
<trkpt lat="48.888668" lon="20.104697">
<ele>1905.5</ele>
<desc>Speed 3.0 km/h Distance 2.47 km</desc>
<time>2013-07-23T13:26:48.75</time>
<name>1169</name>
<sym>Dot</sym>
</trkpt>
<trkpt lat="48.888662" lon="20.104683">
<ele>1905.0</ele>
<desc>Speed 4.5 km/h Distance 2.47 km</desc>
<time>2013-07-23T13:26:49.74</time>
<name>1170</name>
<sym>Dot</sym>
</trkpt>
<trkpt lat="48.888655" lon="20.104670">
<ele>1904.5</ele>
<desc>Speed 4.1 km/h Distance 2.47 km</desc>
<time>2013-07-23T13:26:50.74</time>
<name>1171</name>
<sym>Dot</sym>
</trkpt>
<trkpt lat="48.888650" lon="20.104658">
<ele>1904.0</ele>
<desc>Speed 3.6 km/h Distance 2.47 km</desc>
<time>2013-07-23T13:26:51.74</time>
<name>1172</name>
<sym>Dot</sym>
</trkpt>
<trkpt lat="48.888603" lon="20.104580">
<ele>1903.0</ele>
<desc>Speed 9.6 km/h Distance 2.48 km</desc>
<time>2013-07-23T13:26:57.73</time>
<name>1173</name>
<sym>Dot</sym>
</trkpt>
<trkpt lat="48.888590" lon="20.104553">
<ele>1903.0</ele>
<desc>Speed 9.4 km/h Distance 2.48 km</desc>
<time>2013-07-23T13:26:58.73</time>
<name>1174</name>
<sym>Dot</sym>
</trkpt>
<trkpt lat="48.888578" lon="20.104530">
<ele>1903.0</ele>
<desc>Speed 7.7 km/h Distance 2.48 km</desc>
<time>2013-07-23T13:26:59.73</time>
<name>1175</name>
<sym>Dot</sym>
</trkpt>
<trkpt lat="48.888570" lon="20.104500">
<ele>1903.0</ele>
<desc>Speed 9.0 km/h Distance 2.48 km</desc>
<time>2013-07-23T13:27:00.88</time>
<name>1176</name>
<sym>Dot</sym>
</trkpt>
<trkpt lat="48.888562" lon="20.104465">
<ele>1903.0</ele>
<desc>Speed 9.8 km/h Distance 2.49 km</desc>
<time>2013-07-23T13:27:02.26</time>
<name>1177</name>
<sym>Dot</sym>
</trkpt>
<trkpt lat="48.888543" lon="20.104392">
<ele>1902.5</ele>
<desc>Speed 9.5 km/h Distance 2.49 km</desc>
<time>2013-07-23T13:27:03.70</time>
<name>1178</name>
<sym>Dot</sym>
</trkpt>
<trkpt lat="48.888533" lon="20.104365">
<ele>1901.5</ele>
<desc>Speed 8.0 km/h Distance 2.49 km</desc>
<time>2013-07-23T13:27:04.71</time>
<name>1179</name>
<sym>Dot</sym>
</trkpt>
<trkpt lat="48.888520" lon="20.104347">
<ele>1901.5</ele>
<desc>Speed 7.0 km/h Distance 2.50 km</desc>
<time>2013-07-23T13:27:05.70</time>
<name>1180</name>
<sym>Dot</sym>
</trkpt>
<trkpt lat="48.888508" lon="20.104328">
<ele>1901.5</ele>
<desc>Speed 6.8 km/h Distance 2.50 km</desc>
<time>2013-07-23T13:27:06.70</time>
<name>1181</name>
<sym>Dot</sym>
</trkpt>
<trkpt lat="48.888497" lon="20.104303">
<ele>1901.5</ele>
<desc>Speed 7.9 km/h Distance 2.50 km</desc>
<time>2013-07-23T13:27:07.69</time>
<name>1182</name>
<sym>Dot</sym>
</trkpt>
<trkpt lat="48.888487" lon="20.104277">
<ele>1901.5</ele>
<desc>Speed 7.9 km/h Distance 2.50 km</desc>
<time>2013-07-23T13:27:08.69</time>
<name>1183</name>
<sym>Dot</sym>
</trkpt>
<trkpt lat="48.888462" lon="20.104257">
<ele>1901.5</ele>
<desc>Speed 11.3 km/h Distance 2.51 km</desc>
<time>2013-07-23T13:27:09.68</time>
<name>1184</name>
<sym>Dot</sym>
</trkpt>
<trkpt lat="48.888457" lon="20.104223">
<ele>1901.5</ele>
<desc>Speed 9.3 km/h Distance 2.51 km</desc>
<time>2013-07-23T13:27:10.69</time>
<name>1185</name>
<sym>Dot</sym>
</trkpt>
<trkpt lat="48.888448" lon="20.104190">
<ele>1901.0</ele>
<desc>Speed 9.2 km/h Distance 2.51 km</desc>
<time>2013-07-23T13:27:11.68</time>
<name>1186</name>
<sym>Dot</sym>
</trkpt>
<trkpt lat="48.888435" lon="20.104152">
<ele>1900.5</ele>
<desc>Speed 11.4 km/h Distance 2.51 km</desc>
<time>2013-07-23T13:27:12.67</time>
<name>1187</name>
<sym>Dot</sym>
</trkpt>
<trkpt lat="48.888418" lon="20.104110">
<ele>1900.0</ele>
<desc>Speed 13.0 km/h Distance 2.52 km</desc>
<time>2013-07-23T13:27:13.67</time>
<name>1188</name>
<sym>Dot</sym>
</trkpt>
<trkpt lat="48.888400" lon="20.104065">
<ele>1900.0</ele>
<desc>Speed 13.6 km/h Distance 2.52 km</desc>
<time>2013-07-23T13:27:14.66</time>
<name>1189</name>
<sym>Dot</sym>
</trkpt>
<trkpt lat="48.888412" lon="20.104005">
<ele>1898.5</ele>
<desc>Speed 17.0 km/h Distance 2.53 km</desc>
<time>2013-07-23T13:27:15.65</time>
<name>1190</name>
<sym>Dot</sym>
</trkpt>
<trkpt lat="48.888417" lon="20.103962">
<ele>1898.0</ele>
<desc>Speed 11.4 km/h Distance 2.53 km</desc>
<time>2013-07-23T13:27:16.65</time>
<name>1191</name>
<sym>Dot</sym>
</trkpt>
<trkpt lat="48.888427" lon="20.103925">
<ele>1898.0</ele>
<desc>Speed 10.3 km/h Distance 2.53 km</desc>
<time>2013-07-23T13:27:17.65</time>
<name>1192</name>
<sym>Dot</sym>
</trkpt>
<trkpt lat="48.888433" lon="20.103885">
<ele>1898.0</ele>
<desc>Speed 10.6 km/h Distance 2.54 km</desc>
<time>2013-07-23T13:27:18.64</time>
<name>1193</name>
<sym>Dot</sym>
</trkpt>
<trkpt lat="48.888438" lon="20.103843">
<ele>1897.5</ele>
<desc>Speed 11.4 km/h Distance 2.54 km</desc>
<time>2013-07-23T13:27:19.64</time>
<name>1194</name>
<sym>Dot</sym>
</trkpt>
<trkpt lat="48.888442" lon="20.103807">
<ele>1897.5</ele>
<desc>Speed 9.9 km/h Distance 2.54 km</desc>
<time>2013-07-23T13:27:20.64</time>
<name>1195</name>
<sym>Dot</sym>
</trkpt>
<trkpt lat="48.888445" lon="20.103787">
<ele>1897.0</ele>
<desc>Speed 5.6 km/h Distance 2.54 km</desc>
<time>2013-07-23T13:27:21.62</time>
<name>1196</name>
<sym>Dot</sym>
</trkpt>
<trkpt lat="48.888443" lon="20.103775">
<ele>1897.0</ele>
<desc>Speed 2.9 km/h Distance 2.54 km</desc>
<time>2013-07-23T13:27:22.62</time>
<name>1197</name>
<sym>Dot</sym>
</trkpt>
<trkpt lat="48.888480" lon="20.103707">
<ele>1888.5</ele>
<desc>Speed 4.5 km/h Distance 2.55 km</desc>
<time>2013-07-23T13:28:07.91</time>
<name>1198</name>
<sym>Dot</sym>
</trkpt>
<trkpt lat="48.888482" lon="20.103683">
<ele>1888.0</ele>
<desc>Speed 6.3 km/h Distance 2.55 km</desc>
<time>2013-07-23T13:28:08.60</time>
<name>1199</name>
<sym>Dot</sym>
</trkpt>
<trkpt lat="48.888488" lon="20.103658">
<ele>1887.5</ele>
<desc>Speed 7.0 km/h Distance 2.55 km</desc>
<time>2013-07-23T13:28:09.60</time>
<name>1200</name>
<sym>Dot</sym>
</trkpt>
<trkpt lat="48.888498" lon="20.103635">
<ele>1886.5</ele>
<desc>Speed 7.5 km/h Distance 2.56 km</desc>
<time>2013-07-23T13:28:10.59</time>
<name>1201</name>
<sym>Dot</sym>
</trkpt>
<trkpt lat="48.888513" lon="20.103620">
<ele>1885.5</ele>
<desc>Speed 7.2 km/h Distance 2.56 km</desc>
<time>2013-07-23T13:28:11.58</time>
<name>1202</name>
<sym>Dot</sym>
</trkpt>
<trkpt lat="48.888523" lon="20.103605">
<ele>1885.0</ele>
<desc>Speed 5.8 km/h Distance 2.56 km</desc>
<time>2013-07-23T13:28:12.58</time>
<name>1203</name>
<sym>Dot</sym>
</trkpt>
<trkpt lat="48.888532" lon="20.103583">
<ele>1884.0</ele>
<desc>Speed 6.8 km/h Distance 2.56 km</desc>
<time>2013-07-23T13:28:13.58</time>
<name>1204</name>
<sym>Dot</sym>
</trkpt>
<trkpt lat="48.888540" lon="20.103565">
<ele>1883.5</ele>
<desc>Speed 5.9 km/h Distance 2.56 km</desc>
<time>2013-07-23T13:28:14.77</time>
<name>1205</name>
<sym>Dot</sym>
</trkpt>
<trkpt lat="48.888548" lon="20.103542">
<ele>1883.0</ele>
<desc>Speed 7.1 km/h Distance 2.56 km</desc>
<time>2013-07-23T13:28:15.57</time>
<name>1206</name>
<sym>Dot</sym>
</trkpt>
<trkpt lat="48.888558" lon="20.103520">
<ele>1882.5</ele>
<desc>Speed 6.7 km/h Distance 2.57 km</desc>
<time>2013-07-23T13:28:16.59</time>
<name>1207</name>
<sym>Dot</sym>
</trkpt>
<trkpt lat="48.888565" lon="20.103512">
<ele>1882.5</ele>
<desc>Speed 2.4 km/h Distance 2.57 km</desc>
<time>2013-07-23T13:28:17.55</time>
<name>1208</name>
<sym>Dot</sym>
</trkpt>
<trkpt lat="48.888573" lon="20.103502">
<ele>1882.0</ele>
<desc>Speed 4.2 km/h Distance 2.57 km</desc>
<time>2013-07-23T13:28:18.55</time>
<name>1209</name>
<sym>Dot</sym>
</trkpt>
<trkpt lat="48.888582" lon="20.103493">
<ele>1882.0</ele>
<desc>Speed 3.9 km/h Distance 2.57 km</desc>
<time>2013-07-23T13:28:19.55</time>
<name>1210</name>
<sym>Dot</sym>
</trkpt>
<trkpt lat="48.888583" lon="20.103483">
<ele>1882.0</ele>
<desc>Speed 3.1 km/h Distance 2.57 km</desc>
<time>2013-07-23T13:28:20.55</time>
<name>1211</name>
<sym>Dot</sym>
</trkpt>
<trkpt lat="48.888580" lon="20.103462">
<ele>1882.0</ele>
<desc>Speed 5.7 km/h Distance 2.57 km</desc>
<time>2013-07-23T13:28:21.54</time>
<name>1212</name>
<sym>Dot</sym>
</trkpt>
<trkpt lat="48.888575" lon="20.103443">
<ele>1882.0</ele>
<desc>Speed 6.1 km/h Distance 2.57 km</desc>
<time>2013-07-23T13:28:22.58</time>
<name>1213</name>
<sym>Dot</sym>
</trkpt>
<trkpt lat="48.888563" lon="20.103432">
<ele>1881.5</ele>
<desc>Speed 5.3 km/h Distance 2.58 km</desc>
<time>2013-07-23T13:28:23.54</time>
<name>1214</name>
<sym>Dot</sym>
</trkpt>
<trkpt lat="48.888552" lon="20.103422">
<ele>1881.5</ele>
<desc>Speed 5.3 km/h Distance 2.58 km</desc>
<time>2013-07-23T13:28:24.53</time>
<name>1215</name>
<sym>Dot</sym>
</trkpt>
<trkpt lat="48.888537" lon="20.103403">
<ele>1881.0</ele>
<desc>Speed 5.0 km/h Distance 2.58 km</desc>
<time>2013-07-23T13:28:25.52</time>
<name>1216</name>
<sym>Dot</sym>
</trkpt>
<trkpt lat="48.888527" lon="20.103395">
<ele>1881.0</ele>
<desc>Speed 5.9 km/h Distance 2.58 km</desc>
<time>2013-07-23T13:28:26.52</time>
<name>1217</name>
<sym>Dot</sym>
</trkpt>
<trkpt lat="48.888508" lon="20.103382">
<ele>1881.0</ele>
<desc>Speed 8.1 km/h Distance 2.58 km</desc>
<time>2013-07-23T13:28:27.51</time>
<name>1218</name>
<sym>Dot</sym>
</trkpt>
<trkpt lat="48.888492" lon="20.103358">
<ele>1881.0</ele>
<desc>Speed 8.6 km/h Distance 2.59 km</desc>
<time>2013-07-23T13:28:28.50</time>
<name>1219</name>
<sym>Dot</sym>
</trkpt>
<trkpt lat="48.888470" lon="20.103332">
<ele>1881.0</ele>
<desc>Speed 10.7 km/h Distance 2.59 km</desc>
<time>2013-07-23T13:28:29.50</time>
<name>1220</name>
<sym>Dot</sym>
</trkpt>
<trkpt lat="48.888452" lon="20.103305">
<ele>1881.0</ele>
<desc>Speed 9.9 km/h Distance 2.59 km</desc>
<time>2013-07-23T13:28:30.50</time>
<name>1221</name>
<sym>Dot</sym>
</trkpt>
<trkpt lat="48.888437" lon="20.103278">
<ele>1880.5</ele>
<desc>Speed 9.2 km/h Distance 2.59 km</desc>
<time>2013-07-23T13:28:31.49</time>
<name>1222</name>
<sym>Dot</sym>
</trkpt>
<trkpt lat="48.888422" lon="20.103252">
<ele>1880.0</ele>
<desc>Speed 8.7 km/h Distance 2.60 km</desc>
<time>2013-07-23T13:28:32.50</time>
<name>1223</name>
<sym>Dot</sym>
</trkpt>
<trkpt lat="48.888405" lon="20.103227">
<ele>1879.5</ele>
<desc>Speed 9.6 km/h Distance 2.60 km</desc>
<time>2013-07-23T13:28:33.49</time>
<name>1224</name>
<sym>Dot</sym>
</trkpt>
<trkpt lat="48.888388" lon="20.103202">
<ele>1879.0</ele>
<desc>Speed 9.9 km/h Distance 2.60 km</desc>
<time>2013-07-23T13:28:34.49</time>
<name>1225</name>
<sym>Dot</sym>
</trkpt>
<trkpt lat="48.888372" lon="20.103178">
<ele>1879.0</ele>
<desc>Speed 8.7 km/h Distance 2.60 km</desc>
<time>2013-07-23T13:28:35.49</time>
<name>1226</name>
<sym>Dot</sym>
</trkpt>
<trkpt lat="48.888363" lon="20.103160">
<ele>1879.0</ele>
<desc>Speed 6.6 km/h Distance 2.61 km</desc>
<time>2013-07-23T13:28:36.51</time>
<name>1227</name>
<sym>Dot</sym>
</trkpt>
<trkpt lat="48.888363" lon="20.103140">
<ele>1878.5</ele>
<desc>Speed 6.2 km/h Distance 2.61 km</desc>
<time>2013-07-23T13:28:37.48</time>
<name>1228</name>
<sym>Dot</sym>
</trkpt>
<trkpt lat="48.888365" lon="20.103118">
<ele>1878.5</ele>
<desc>Speed 6.3 km/h Distance 2.61 km</desc>
<time>2013-07-23T13:28:38.47</time>
<name>1229</name>
<sym>Dot</sym>
</trkpt>
<trkpt lat="48.888368" lon="20.103098">
<ele>1878.0</ele>
<desc>Speed 5.4 km/h Distance 2.61 km</desc>
<time>2013-07-23T13:28:39.47</time>
<name>1230</name>
<sym>Dot</sym>
</trkpt>
<trkpt lat="48.888377" lon="20.103078">
<ele>1878.0</ele>
<desc>Speed 6.6 km/h Distance 2.61 km</desc>
<time>2013-07-23T13:28:40.47</time>
<name>1231</name>
<sym>Dot</sym>
</trkpt>
<trkpt lat="48.888383" lon="20.103053">
<ele>1877.5</ele>
<desc>Speed 6.6 km/h Distance 2.61 km</desc>
<time>2013-07-23T13:28:41.46</time>
<name>1232</name>
<sym>Dot</sym>
</trkpt>
<trkpt lat="48.888388" lon="20.103030">
<ele>1877.0</ele>
<desc>Speed 6.3 km/h Distance 2.62 km</desc>
<time>2013-07-23T13:28:42.46</time>
<name>1233</name>
<sym>Dot</sym>
</trkpt>
<trkpt lat="48.888393" lon="20.103010">
<ele>1876.5</ele>
<desc>Speed 5.3 km/h Distance 2.62 km</desc>
<time>2013-07-23T13:28:43.69</time>
<name>1234</name>
<sym>Dot</sym>
</trkpt>
<trkpt lat="48.888398" lon="20.102993">
<ele>1876.0</ele>
<desc>Speed 4.5 km/h Distance 2.62 km</desc>
<time>2013-07-23T13:28:44.45</time>
<name>1235</name>
<sym>Dot</sym>
</trkpt>
<trkpt lat="48.888402" lon="20.102983">
<ele>1876.0</ele>
<desc>Speed 3.3 km/h Distance 2.62 km</desc>
<time>2013-07-23T13:28:45.45</time>
<name>1236</name>
<sym>Dot</sym>
</trkpt>
<trkpt lat="48.888408" lon="20.102973">
<ele>1875.5</ele>
<desc>Speed 3.0 km/h Distance 2.62 km</desc>
<time>2013-07-23T13:28:46.44</time>
<name>1237</name>
<sym>Dot</sym>
</trkpt>
<trkpt lat="48.888412" lon="20.102942">
<ele>1874.0</ele>
<desc>Speed 2.3 km/h Distance 2.62 km</desc>
<time>2013-07-23T13:28:52.44</time>
<name>1238</name>
<sym>Dot</sym>
</trkpt>
<trkpt lat="48.888408" lon="20.102933">
<ele>1874.0</ele>
<desc>Speed 2.2 km/h Distance 2.62 km</desc>
<time>2013-07-23T13:28:53.44</time>
<name>1239</name>
<sym>Dot</sym>
</trkpt>
<trkpt lat="48.888407" lon="20.102923">
<ele>1873.5</ele>
<desc>Speed 2.4 km/h Distance 2.62 km</desc>
<time>2013-07-23T13:28:54.43</time>
<name>1240</name>
<sym>Dot</sym>
</trkpt>
<trkpt lat="48.888407" lon="20.102907">
<ele>1873.5</ele>
<desc>Speed 4.6 km/h Distance 2.63 km</desc>
<time>2013-07-23T13:28:55.43</time>
<name>1241</name>
<sym>Dot</sym>
</trkpt>
<trkpt lat="48.888407" lon="20.102890">
<ele>1873.0</ele>
<desc>Speed 4.6 km/h Distance 2.63 km</desc>
<time>2013-07-23T13:28:56.42</time>
<name>1242</name>
<sym>Dot</sym>
</trkpt>
<trkpt lat="48.888407" lon="20.102877">
<ele>1874.5</ele>
<desc>Speed 5.3 km/h Distance 2.63 km</desc>
<time>2013-07-23T13:28:58.42</time>
<name>1243</name>
<sym>Dot</sym>
</trkpt>
<trkpt lat="48.888405" lon="20.102850">
<ele>1874.0</ele>
<desc>Speed 6.8 km/h Distance 2.63 km</desc>
<time>2013-07-23T13:28:59.42</time>
<name>1244</name>
<sym>Dot</sym>
</trkpt>
<trkpt lat="48.888400" lon="20.102825">
<ele>1873.0</ele>
<desc>Speed 6.3 km/h Distance 2.63 km</desc>
<time>2013-07-23T13:29:00.42</time>
<name>1245</name>
<sym>Dot</sym>
</trkpt>
<trkpt lat="48.888398" lon="20.102803">
<ele>1872.5</ele>
<desc>Speed 5.8 km/h Distance 2.63 km</desc>
<time>2013-07-23T13:29:01.41</time>
<name>1246</name>
<sym>Dot</sym>
</trkpt>
<trkpt lat="48.888397" lon="20.102780">
<ele>1872.0</ele>
<desc>Speed 6.1 km/h Distance 2.63 km</desc>
<time>2013-07-23T13:29:02.41</time>
<name>1247</name>
<sym>Dot</sym>
</trkpt>
<trkpt lat="48.888398" lon="20.102755">
<ele>1871.5</ele>
<desc>Speed 6.4 km/h Distance 2.64 km</desc>
<time>2013-07-23T13:29:03.41</time>
<name>1248</name>
<sym>Dot</sym>
</trkpt>
<trkpt lat="48.888400" lon="20.102718">
<ele>1870.5</ele>
<desc>Speed 8.3 km/h Distance 2.64 km</desc>
<time>2013-07-23T13:29:04.40</time>
<name>1249</name>
<sym>Dot</sym>
</trkpt>
<trkpt lat="48.888398" lon="20.102687">
<ele>1869.0</ele>
<desc>Speed 7.1 km/h Distance 2.64 km</desc>
<time>2013-07-23T13:29:05.40</time>
<name>1250</name>
<sym>Dot</sym>
</trkpt>
<trkpt lat="48.888392" lon="20.102663">
<ele>1868.5</ele>
<desc>Speed 5.7 km/h Distance 2.64 km</desc>
<time>2013-07-23T13:29:06.39</time>
<name>1251</name>
<sym>Dot</sym>
</trkpt>
<trkpt lat="48.888390" lon="20.102643">
<ele>1868.0</ele>
<desc>Speed 5.2 km/h Distance 2.65 km</desc>
<time>2013-07-23T13:29:07.39</time>
<name>1252</name>
<sym>Dot</sym>
</trkpt>
<trkpt lat="48.888390" lon="20.102622">
<ele>1867.5</ele>
<desc>Speed 5.7 km/h Distance 2.65 km</desc>
<time>2013-07-23T13:29:08.38</time>
<name>1253</name>
<sym>Dot</sym>
</trkpt>
<trkpt lat="48.888395" lon="20.102592">
<ele>1867.5</ele>
<desc>Speed 8.4 km/h Distance 2.65 km</desc>
<time>2013-07-23T13:29:09.38</time>
<name>1254</name>
<sym>Dot</sym>
</trkpt>
<trkpt lat="48.888398" lon="20.102560">
<ele>1867.5</ele>
<desc>Speed 8.5 km/h Distance 2.65 km</desc>
<time>2013-07-23T13:29:10.38</time>
<name>1255</name>
<sym>Dot</sym>
</trkpt>
<trkpt lat="48.888397" lon="20.102532">
<ele>1867.0</ele>
<desc>Speed 7.8 km/h Distance 2.65 km</desc>
<time>2013-07-23T13:29:11.37</time>
<name>1256</name>
<sym>Dot</sym>
</trkpt>
<trkpt lat="48.888390" lon="20.102500">
<ele>1866.5</ele>
<desc>Speed 8.2 km/h Distance 2.66 km</desc>
<time>2013-07-23T13:29:12.37</time>
<name>1257</name>
<sym>Dot</sym>
</trkpt>
<trkpt lat="48.888385" lon="20.102475">
<ele>1865.5</ele>
<desc>Speed 7.1 km/h Distance 2.66 km</desc>
<time>2013-07-23T13:29:13.36</time>
<name>1258</name>
<sym>Dot</sym>
</trkpt>
<trkpt lat="48.888380" lon="20.102457">
<ele>1866.5</ele>
<desc>Speed 5.5 km/h Distance 2.66 km</desc>
<time>2013-07-23T13:29:14.41</time>
<name>1259</name>
<sym>Dot</sym>
</trkpt>
<trkpt lat="48.888372" lon="20.102433">
<ele>1866.0</ele>
<desc>Speed 6.9 km/h Distance 2.66 km</desc>
<time>2013-07-23T13:29:15.35</time>
<name>1260</name>
<sym>Dot</sym>
</trkpt>
<trkpt lat="48.888367" lon="20.102407">
<ele>1865.5</ele>
<desc>Speed 6.4 km/h Distance 2.66 km</desc>
<time>2013-07-23T13:29:16.34</time>
<name>1261</name>
<sym>Dot</sym>
</trkpt>
<trkpt lat="48.888357" lon="20.102373">
<ele>1864.0</ele>
<desc>Speed 8.2 km/h Distance 2.67 km</desc>
<time>2013-07-23T13:29:17.34</time>
<name>1262</name>
<sym>Dot</sym>
</trkpt>
<trkpt lat="48.888353" lon="20.102343">
<ele>1863.5</ele>
<desc>Speed 8.1 km/h Distance 2.67 km</desc>
<time>2013-07-23T13:29:18.34</time>
<name>1263</name>
<sym>Dot</sym>
</trkpt>
<trkpt lat="48.888345" lon="20.102312">
<ele>1862.5</ele>
<desc>Speed 7.8 km/h Distance 2.67 km</desc>
<time>2013-07-23T13:29:19.33</time>
<name>1264</name>
<sym>Dot</sym>
</trkpt>
<trkpt lat="48.888342" lon="20.102277">
<ele>1861.0</ele>
<desc>Speed 8.2 km/h Distance 2.67 km</desc>
<time>2013-07-23T13:29:20.33</time>
<name>1265</name>
<sym>Dot</sym>
</trkpt>
<trkpt lat="48.888337" lon="20.102242">
<ele>1859.5</ele>
<desc>Speed 8.4 km/h Distance 2.68 km</desc>
<time>2013-07-23T13:29:21.32</time>
<name>1266</name>
<sym>Dot</sym>
</trkpt>
<trkpt lat="48.888338" lon="20.102208">
<ele>1858.5</ele>
<desc>Speed 8.5 km/h Distance 2.68 km</desc>
<time>2013-07-23T13:29:22.32</time>
<name>1267</name>
<sym>Dot</sym>
</trkpt>
<trkpt lat="48.888337" lon="20.102178">
<ele>1858.0</ele>
<desc>Speed 7.6 km/h Distance 2.68 km</desc>
<time>2013-07-23T13:29:23.32</time>
<name>1268</name>
<sym>Dot</sym>
</trkpt>
<trkpt lat="48.888330" lon="20.102150">
<ele>1857.0</ele>
<desc>Speed 7.3 km/h Distance 2.68 km</desc>
<time>2013-07-23T13:29:24.31</time>
<name>1269</name>
<sym>Dot</sym>
</trkpt>
<trkpt lat="48.888320" lon="20.102125">
<ele>1855.5</ele>
<desc>Speed 6.7 km/h Distance 2.68 km</desc>
<time>2013-07-23T13:29:25.31</time>
<name>1270</name>
<sym>Dot</sym>
</trkpt>
<trkpt lat="48.888313" lon="20.102100">
<ele>1855.0</ele>
<desc>Speed 6.3 km/h Distance 2.69 km</desc>
<time>2013-07-23T13:29:26.31</time>
<name>1271</name>
<sym>Dot</sym>
</trkpt>
<trkpt lat="48.888310" lon="20.102073">
<ele>1854.0</ele>
<desc>Speed 7.1 km/h Distance 2.69 km</desc>
<time>2013-07-23T13:29:27.30</time>
<name>1272</name>
<sym>Dot</sym>
</trkpt>
<trkpt lat="48.888307" lon="20.102053">
<ele>1854.5</ele>
<desc>Speed 5.1 km/h Distance 2.69 km</desc>
<time>2013-07-23T13:29:28.45</time>
<name>1273</name>
<sym>Dot</sym>
</trkpt>
<trkpt lat="48.888305" lon="20.102033">
<ele>1854.0</ele>
<desc>Speed 5.5 km/h Distance 2.69 km</desc>
<time>2013-07-23T13:29:29.29</time>
<name>1274</name>
<sym>Dot</sym>
</trkpt>
<trkpt lat="48.888305" lon="20.102012">
<ele>1853.5</ele>
<desc>Speed 5.4 km/h Distance 2.69 km</desc>
<time>2013-07-23T13:29:30.29</time>
<name>1275</name>
<sym>Dot</sym>
</trkpt>
<trkpt lat="48.888307" lon="20.101987">
<ele>1853.0</ele>
<desc>Speed 5.8 km/h Distance 2.70 km</desc>
<time>2013-07-23T13:29:31.49</time>
<name>1276</name>
<sym>Dot</sym>
</trkpt>
<trkpt lat="48.888310" lon="20.101958">
<ele>1853.0</ele>
<desc>Speed 6.9 km/h Distance 2.70 km</desc>
<time>2013-07-23T13:29:32.28</time>
<name>1277</name>
<sym>Dot</sym>
</trkpt>
<trkpt lat="48.888310" lon="20.101935">
<ele>1853.5</ele>
<desc>Speed 5.8 km/h Distance 2.70 km</desc>
<time>2013-07-23T13:29:33.28</time>
<name>1278</name>
<sym>Dot</sym>
</trkpt>
<trkpt lat="48.888308" lon="20.101920">
<ele>1853.5</ele>
<desc>Speed 4.1 km/h Distance 2.70 km</desc>
<time>2013-07-23T13:29:34.27</time>
<name>1279</name>
<sym>Dot</sym>
</trkpt>
<trkpt lat="48.888305" lon="20.101903">
<ele>1853.5</ele>
<desc>Speed 3.9 km/h Distance 2.70 km</desc>
<time>2013-07-23T13:29:35.27</time>
<name>1280</name>
<sym>Dot</sym>
</trkpt>
<trkpt lat="48.888307" lon="20.101883">
<ele>1853.0</ele>
<desc>Speed 5.1 km/h Distance 2.70 km</desc>
<time>2013-07-23T13:29:36.27</time>
<name>1281</name>
<sym>Dot</sym>
</trkpt>
<trkpt lat="48.888312" lon="20.101860">
<ele>1852.5</ele>
<desc>Speed 6.8 km/h Distance 2.70 km</desc>
<time>2013-07-23T13:29:37.27</time>
<name>1282</name>
<sym>Dot</sym>
</trkpt>
<trkpt lat="48.888312" lon="20.101830">
<ele>1852.5</ele>
<desc>Speed 7.8 km/h Distance 2.71 km</desc>
<time>2013-07-23T13:29:38.27</time>
<name>1283</name>
<sym>Dot</sym>
</trkpt>
<trkpt lat="48.888310" lon="20.101792">
<ele>1852.0</ele>
<desc>Speed 9.9 km/h Distance 2.71 km</desc>
<time>2013-07-23T13:29:39.27</time>
<name>1284</name>
<sym>Dot</sym>
</trkpt>
<trkpt lat="48.888313" lon="20.101753">
<ele>1851.5</ele>
<desc>Speed 9.9 km/h Distance 2.71 km</desc>
<time>2013-07-23T13:29:40.26</time>
<name>1285</name>
<sym>Dot</sym>
</trkpt>
<trkpt lat="48.888317" lon="20.101712">
<ele>1851.0</ele>
<desc>Speed 10.8 km/h Distance 2.72 km</desc>
<time>2013-07-23T13:29:41.25</time>
<name>1286</name>
<sym>Dot</sym>
</trkpt>
<trkpt lat="48.888318" lon="20.101663">
<ele>1850.5</ele>
<desc>Speed 12.2 km/h Distance 2.72 km</desc>
<time>2013-07-23T13:29:42.24</time>
<name>1287</name>
<sym>Dot</sym>
</trkpt>
<trkpt lat="48.888313" lon="20.101613">
<ele>1849.5</ele>
<desc>Speed 12.7 km/h Distance 2.72 km</desc>
<time>2013-07-23T13:29:43.24</time>
<name>1288</name>
<sym>Dot</sym>
</trkpt>
<trkpt lat="48.888308" lon="20.101573">
<ele>1848.5</ele>
<desc>Speed 10.8 km/h Distance 2.73 km</desc>
<time>2013-07-23T13:29:44.44</time>
<name>1289</name>
<sym>Dot</sym>
</trkpt>
<trkpt lat="48.888300" lon="20.101543">
<ele>1848.0</ele>
<desc>Speed 8.1 km/h Distance 2.73 km</desc>
<time>2013-07-23T13:29:45.23</time>
<name>1290</name>
<sym>Dot</sym>
</trkpt>
<trkpt lat="48.888293" lon="20.101510">
<ele>1847.5</ele>
<desc>Speed 9.0 km/h Distance 2.73 km</desc>
<time>2013-07-23T13:29:46.22</time>
<name>1291</name>
<sym>Dot</sym>
</trkpt>
<trkpt lat="48.888282" lon="20.101475">
<ele>1847.0</ele>
<desc>Speed 10.1 km/h Distance 2.73 km</desc>
<time>2013-07-23T13:29:47.22</time>
<name>1292</name>
<sym>Dot</sym>
</trkpt>
<trkpt lat="48.888273" lon="20.101473">
<ele>1846.0</ele>
<desc>Speed 3.7 km/h Distance 2.73 km</desc>
<time>2013-07-23T13:29:48.23</time>
<name>1293</name>
<sym>Dot</sym>
</trkpt>
<trkpt lat="48.888270" lon="20.101463">
<ele>1846.0</ele>
<desc>Speed 2.8 km/h Distance 2.74 km</desc>
<time>2013-07-23T13:29:49.22</time>
<name>1294</name>
<sym>Dot</sym>
</trkpt>
<trkpt lat="48.888255" lon="20.101398">
<ele>1841.5</ele>
<desc>Speed 9.2 km/h Distance 2.74 km</desc>
<time>2013-07-23T13:32:04.21</time>
<name>1295</name>
<sym>Dot</sym>
</trkpt>
<trkpt lat="48.888255" lon="20.101368">
<ele>1841.5</ele>
<desc>Speed 8.1 km/h Distance 2.74 km</desc>
<time>2013-07-23T13:32:05.20</time>
<name>1296</name>
<sym>Dot</sym>
</trkpt>
<trkpt lat="48.888253" lon="20.101337">
<ele>1841.5</ele>
<desc>Speed 8.7 km/h Distance 2.74 km</desc>
<time>2013-07-23T13:32:06.20</time>
<name>1297</name>
<sym>Dot</sym>
</trkpt>
<trkpt lat="48.888247" lon="20.101298">
<ele>1841.5</ele>
<desc>Speed 10.3 km/h Distance 2.75 km</desc>
<time>2013-07-23T13:32:07.20</time>
<name>1298</name>
<sym>Dot</sym>
</trkpt>
<trkpt lat="48.888245" lon="20.101260">
<ele>1841.5</ele>
<desc>Speed 10.0 km/h Distance 2.75 km</desc>
<time>2013-07-23T13:32:08.20</time>
<name>1299</name>
<sym>Dot</sym>
</trkpt>
<trkpt lat="48.888243" lon="20.101227">
<ele>1840.5</ele>
<desc>Speed 8.3 km/h Distance 2.75 km</desc>
<time>2013-07-23T13:32:09.19</time>
<name>1300</name>
<sym>Dot</sym>
</trkpt>
<trkpt lat="48.888242" lon="20.101210">
<ele>1840.5</ele>
<desc>Speed 4.8 km/h Distance 2.75 km</desc>
<time>2013-07-23T13:32:10.18</time>
<name>1301</name>
<sym>Dot</sym>
</trkpt>
<trkpt lat="48.888245" lon="20.101198">
<ele>1840.5</ele>
<desc>Speed 2.8 km/h Distance 2.76 km</desc>
<time>2013-07-23T13:32:11.17</time>
<name>1302</name>
<sym>Dot</sym>
</trkpt>
<trkpt lat="48.888247" lon="20.101185">
<ele>1840.0</ele>
<desc>Speed 2.5 km/h Distance 2.76 km</desc>
<time>2013-07-23T13:32:13.17</time>
<name>1303</name>
<sym>Dot</sym>
</trkpt>
<trkpt lat="48.888248" lon="20.101167">
<ele>1840.0</ele>
<desc>Speed 5.0 km/h Distance 2.76 km</desc>
<time>2013-07-23T13:32:14.17</time>
<name>1304</name>
<sym>Dot</sym>
</trkpt>
<trkpt lat="48.888248" lon="20.101152">
<ele>1839.5</ele>
<desc>Speed 3.6 km/h Distance 2.76 km</desc>
<time>2013-07-23T13:32:15.16</time>
<name>1305</name>
<sym>Dot</sym>
</trkpt>
<trkpt lat="48.888248" lon="20.101140">
<ele>1839.0</ele>
<desc>Speed 2.4 km/h Distance 2.76 km</desc>
<time>2013-07-23T13:32:16.17</time>
<name>1306</name>
<sym>Dot</sym>
</trkpt>
<trkpt lat="48.888245" lon="20.101125">
<ele>1837.5</ele>
<desc>Speed 2.2 km/h Distance 2.76 km</desc>
<time>2013-07-23T13:32:20.15</time>
<name>1307</name>
<sym>Dot</sym>
</trkpt>
<trkpt lat="48.888243" lon="20.101113">
<ele>1838.0</ele>
<desc>Speed 2.2 km/h Distance 2.76 km</desc>
<time>2013-07-23T13:32:22.14</time>
<name>1308</name>
<sym>Dot</sym>
</trkpt>
<trkpt lat="48.888233" lon="20.101092">
<ele>1837.5</ele>
<desc>Speed 7.1 km/h Distance 2.76 km</desc>
<time>2013-07-23T13:32:23.19</time>
<name>1309</name>
<sym>Dot</sym>
</trkpt>
<trkpt lat="48.888218" lon="20.101067">
<ele>1837.0</ele>
<desc>Speed 9.0 km/h Distance 2.77 km</desc>
<time>2013-07-23T13:32:24.12</time>
<name>1310</name>
<sym>Dot</sym>
</trkpt>
<trkpt lat="48.888238" lon="20.101032">
<ele>1839.0</ele>
<desc>Speed 12.1 km/h Distance 2.77 km</desc>
<time>2013-07-23T13:32:25.17</time>
<name>1311</name>
<sym>Dot</sym>
</trkpt>
<trkpt lat="48.888232" lon="20.100998">
<ele>1838.5</ele>
<desc>Speed 9.6 km/h Distance 2.77 km</desc>
<time>2013-07-23T13:32:26.16</time>
<name>1312</name>
<sym>Dot</sym>
</trkpt>
<trkpt lat="48.888227" lon="20.100963">
<ele>1838.5</ele>
<desc>Speed 9.5 km/h Distance 2.77 km</desc>
<time>2013-07-23T13:32:27.11</time>
<name>1313</name>
<sym>Dot</sym>
</trkpt>
<trkpt lat="48.888223" lon="20.100928">
<ele>1838.0</ele>
<desc>Speed 9.5 km/h Distance 2.78 km</desc>
<time>2013-07-23T13:32:28.11</time>
<name>1314</name>
<sym>Dot</sym>
</trkpt>
<trkpt lat="48.888218" lon="20.100897">
<ele>1838.0</ele>
<desc>Speed 8.3 km/h Distance 2.78 km</desc>
<time>2013-07-23T13:32:29.11</time>
<name>1315</name>
<sym>Dot</sym>
</trkpt>
<trkpt lat="48.888218" lon="20.100882">
<ele>1838.0</ele>
<desc>Speed 4.2 km/h Distance 2.78 km</desc>
<time>2013-07-23T13:32:30.10</time>
<name>1316</name>
<sym>Dot</sym>
</trkpt>
<trkpt lat="48.888223" lon="20.100872">
<ele>1838.0</ele>
<desc>Speed 2.6 km/h Distance 2.78 km</desc>
<time>2013-07-23T13:32:32.10</time>
<name>1317</name>
<sym>Dot</sym>
</trkpt>
<trkpt lat="48.888227" lon="20.100857">
<ele>1837.5</ele>
<desc>Speed 4.4 km/h Distance 2.78 km</desc>
<time>2013-07-23T13:32:33.09</time>
<name>1318</name>
<sym>Dot</sym>
</trkpt>
<trkpt lat="48.888235" lon="20.100840">
<ele>1839.0</ele>
<desc>Speed 2.9 km/h Distance 2.78 km</desc>
<time>2013-07-23T13:32:36.09</time>
<name>1319</name>
<sym>Dot</sym>
</trkpt>
<trkpt lat="48.888242" lon="20.100825">
<ele>1838.5</ele>
<desc>Speed 4.5 km/h Distance 2.79 km</desc>
<time>2013-07-23T13:32:37.09</time>
<name>1320</name>
<sym>Dot</sym>
</trkpt>
<trkpt lat="48.888245" lon="20.100815">
<ele>1838.5</ele>
<desc>Speed 3.0 km/h Distance 2.79 km</desc>
<time>2013-07-23T13:32:38.09</time>
<name>1321</name>
<sym>Dot</sym>
</trkpt>
<trkpt lat="48.888250" lon="20.100807">
<ele>1838.5</ele>
<desc>Speed 2.9 km/h Distance 2.79 km</desc>
<time>2013-07-23T13:32:39.09</time>
<name>1322</name>
<sym>Dot</sym>
</trkpt>
<trkpt lat="48.888248" lon="20.100798">
<ele>1838.5</ele>
<desc>Speed 2.2 km/h Distance 2.79 km</desc>
<time>2013-07-23T13:32:40.09</time>
<name>1323</name>
<sym>Dot</sym>
</trkpt>
<trkpt lat="48.888247" lon="20.100783">
<ele>1838.5</ele>
<desc>Speed 4.0 km/h Distance 2.79 km</desc>
<time>2013-07-23T13:32:41.08</time>
<name>1324</name>
<sym>Dot</sym>
</trkpt>
<trkpt lat="48.888245" lon="20.100772">
<ele>1838.5</ele>
<desc>Speed 3.3 km/h Distance 2.79 km</desc>
<time>2013-07-23T13:32:42.08</time>
<name>1325</name>
<sym>Dot</sym>
</trkpt>
<trkpt lat="48.888238" lon="20.100752">
<ele>1838.0</ele>
<desc>Speed 5.9 km/h Distance 2.79 km</desc>
<time>2013-07-23T13:32:43.10</time>
<name>1326</name>
<sym>Dot</sym>
</trkpt>
<trkpt lat="48.888233" lon="20.100728">
<ele>1838.0</ele>
<desc>Speed 6.4 km/h Distance 2.79 km</desc>
<time>2013-07-23T13:32:44.07</time>
<name>1327</name>
<sym>Dot</sym>
</trkpt>
<trkpt lat="48.888227" lon="20.100705">
<ele>1838.0</ele>
<desc>Speed 6.0 km/h Distance 2.80 km</desc>
<time>2013-07-23T13:32:45.06</time>
<name>1328</name>
<sym>Dot</sym>
</trkpt>
<trkpt lat="48.888220" lon="20.100693">
<ele>1837.5</ele>
<desc>Speed 3.9 km/h Distance 2.80 km</desc>
<time>2013-07-23T13:32:46.05</time>
<name>1329</name>
<sym>Dot</sym>
</trkpt>
<trkpt lat="48.888213" lon="20.100680">
<ele>1837.0</ele>
<desc>Speed 4.4 km/h Distance 2.80 km</desc>
<time>2013-07-23T13:32:47.05</time>
<name>1330</name>
<sym>Dot</sym>
</trkpt>
<trkpt lat="48.888197" lon="20.100672">
<ele>1836.5</ele>
<desc>Speed 4.6 km/h Distance 2.80 km</desc>
<time>2013-07-23T13:32:48.06</time>
<name>1331</name>
<sym>Dot</sym>
</trkpt>
<trkpt lat="48.888203" lon="20.100655">
<ele>1836.5</ele>
<desc>Speed 2.4 km/h Distance 2.80 km</desc>
<time>2013-07-23T13:32:55.04</time>
<name>1332</name>
<sym>Dot</sym>
</trkpt>
<trkpt lat="48.888200" lon="20.100647">
<ele>1836.0</ele>
<desc>Speed 3.1 km/h Distance 2.80 km</desc>
<time>2013-07-23T13:32:56.04</time>
<name>1333</name>
<sym>Dot</sym>
</trkpt>
<trkpt lat="48.888202" lon="20.100635">
<ele>1836.0</ele>
<desc>Speed 2.6 km/h Distance 2.80 km</desc>
<time>2013-07-23T13:32:57.04</time>
<name>1334</name>
<sym>Dot</sym>
</trkpt>
<trkpt lat="48.888202" lon="20.100623">
<ele>1835.5</ele>
<desc>Speed 3.1 km/h Distance 2.80 km</desc>
<time>2013-07-23T13:32:58.03</time>
<name>1335</name>
<sym>Dot</sym>
</trkpt>
<trkpt lat="48.888202" lon="20.100615">
<ele>1835.5</ele>
<desc>Speed 2.4 km/h Distance 2.80 km</desc>
<time>2013-07-23T13:32:59.03</time>
<name>1336</name>
<sym>Dot</sym>
</trkpt>
<trkpt lat="48.888208" lon="20.100600">
<ele>1835.0</ele>
<desc>Speed 2.7 km/h Distance 2.81 km</desc>
<time>2013-07-23T13:33:01.03</time>
<name>1337</name>
<sym>Dot</sym>
</trkpt>
<trkpt lat="48.888210" lon="20.100592">
<ele>1834.5</ele>
<desc>Speed 2.3 km/h Distance 2.81 km</desc>
<time>2013-07-23T13:33:02.03</time>
<name>1338</name>
<sym>Dot</sym>
</trkpt>
<trkpt lat="48.888212" lon="20.100577">
<ele>1834.0</ele>
<desc>Speed 2.2 km/h Distance 2.81 km</desc>
<time>2013-07-23T13:33:04.02</time>
<name>1339</name>
<sym>Dot</sym>
</trkpt>
<trkpt lat="48.888210" lon="20.100565">
<ele>1833.0</ele>
<desc>Speed 3.1 km/h Distance 2.81 km</desc>
<time>2013-07-23T13:33:05.02</time>
<name>1340</name>
<sym>Dot</sym>
</trkpt>
<trkpt lat="48.888210" lon="20.100548">
<ele>1833.0</ele>
<desc>Speed 3.9 km/h Distance 2.81 km</desc>
<time>2013-07-23T13:33:06.03</time>
<name>1341</name>
<sym>Dot</sym>
</trkpt>
<trkpt lat="48.888207" lon="20.100535">
<ele>1832.5</ele>
<desc>Speed 3.9 km/h Distance 2.81 km</desc>
<time>2013-07-23T13:33:07.01</time>
<name>1342</name>
<sym>Dot</sym>
</trkpt>
<trkpt lat="48.888205" lon="20.100523">
<ele>1832.5</ele>
<desc>Speed 3.1 km/h Distance 2.81 km</desc>
<time>2013-07-23T13:33:08.01</time>
<name>1343</name>
<sym>Dot</sym>
</trkpt>
<trkpt lat="48.888207" lon="20.100512">
<ele>1832.5</ele>
<desc>Speed 3.1 km/h Distance 2.81 km</desc>
<time>2013-07-23T13:33:09.01</time>
<name>1344</name>
<sym>Dot</sym>
</trkpt>
<trkpt lat="48.888210" lon="20.100498">
<ele>1832.5</ele>
<desc>Speed 3.3 km/h Distance 2.81 km</desc>
<time>2013-07-23T13:33:10.08</time>
<name>1345</name>
<sym>Dot</sym>
</trkpt>
<trkpt lat="48.888215" lon="20.100485">
<ele>1832.5</ele>
<desc>Speed 3.3 km/h Distance 2.81 km</desc>
<time>2013-07-23T13:33:11.00</time>
<name>1346</name>
<sym>Dot</sym>
</trkpt>
<trkpt lat="48.888213" lon="20.100472">
<ele>1832.5</ele>
<desc>Speed 2.9 km/h Distance 2.82 km</desc>
<time>2013-07-23T13:33:11.99</time>
<name>1347</name>
<sym>Dot</sym>
</trkpt>
<trkpt lat="48.888208" lon="20.100458">
<ele>1831.5</ele>
<desc>Speed 4.0 km/h Distance 2.82 km</desc>
<time>2013-07-23T13:33:12.99</time>
<name>1348</name>
<sym>Dot</sym>
</trkpt>
<trkpt lat="48.888202" lon="20.100450">
<ele>1831.5</ele>
<desc>Speed 3.0 km/h Distance 2.82 km</desc>
<time>2013-07-23T13:33:13.99</time>
<name>1349</name>
<sym>Dot</sym>
</trkpt>
<trkpt lat="48.888192" lon="20.100442">
<ele>1831.0</ele>
<desc>Speed 4.1 km/h Distance 2.82 km</desc>
<time>2013-07-23T13:33:14.99</time>
<name>1350</name>
<sym>Dot</sym>
</trkpt>
<trkpt lat="48.888182" lon="20.100435">
<ele>1830.5</ele>
<desc>Speed 3.6 km/h Distance 2.82 km</desc>
<time>2013-07-23T13:33:15.98</time>
<name>1351</name>
<sym>Dot</sym>
</trkpt>
<trkpt lat="48.888172" lon="20.100430">
<ele>1830.5</ele>
<desc>Speed 3.5 km/h Distance 2.82 km</desc>
<time>2013-07-23T13:33:16.98</time>
<name>1352</name>
<sym>Dot</sym>
</trkpt>
<trkpt lat="48.888165" lon="20.100427">
<ele>1830.0</ele>
<desc>Speed 2.2 km/h Distance 2.82 km</desc>
<time>2013-07-23T13:33:17.97</time>
<name>1353</name>
<sym>Dot</sym>
</trkpt>
<trkpt lat="48.888148" lon="20.100400">
<ele>1828.5</ele>
<desc>Speed 4.0 km/h Distance 2.82 km</desc>
<time>2013-07-23T13:33:24.97</time>
<name>1354</name>
<sym>Dot</sym>
</trkpt>
<trkpt lat="48.888147" lon="20.100375">
<ele>1828.5</ele>
<desc>Speed 6.6 km/h Distance 2.83 km</desc>
<time>2013-07-23T13:33:25.97</time>
<name>1355</name>
<sym>Dot</sym>
</trkpt>
<trkpt lat="48.888148" lon="20.100352">
<ele>1828.0</ele>
<desc>Speed 6.3 km/h Distance 2.83 km</desc>
<time>2013-07-23T13:33:26.97</time>
<name>1356</name>
<sym>Dot</sym>
</trkpt>
<trkpt lat="48.888152" lon="20.100330">
<ele>1827.5</ele>
<desc>Speed 5.4 km/h Distance 2.83 km</desc>
<time>2013-07-23T13:33:27.96</time>
<name>1357</name>
<sym>Dot</sym>
</trkpt>
<trkpt lat="48.888163" lon="20.100302">
<ele>1827.0</ele>
<desc>Speed 8.4 km/h Distance 2.83 km</desc>
<time>2013-07-23T13:33:28.96</time>
<name>1358</name>
<sym>Dot</sym>
</trkpt>
<trkpt lat="48.888172" lon="20.100267">
<ele>1827.0</ele>
<desc>Speed 9.6 km/h Distance 2.83 km</desc>
<time>2013-07-23T13:33:29.95</time>
<name>1359</name>
<sym>Dot</sym>
</trkpt>
<trkpt lat="48.888177" lon="20.100227">
<ele>1827.0</ele>
<desc>Speed 10.7 km/h Distance 2.84 km</desc>
<time>2013-07-23T13:33:30.95</time>
<name>1360</name>
<sym>Dot</sym>
</trkpt>
<trkpt lat="48.888172" lon="20.100187">
<ele>1826.5</ele>
<desc>Speed 10.5 km/h Distance 2.84 km</desc>
<time>2013-07-23T13:33:31.94</time>
<name>1361</name>
<sym>Dot</sym>
</trkpt>
<trkpt lat="48.888160" lon="20.100155">
<ele>1826.0</ele>
<desc>Speed 9.4 km/h Distance 2.84 km</desc>
<time>2013-07-23T13:33:32.94</time>
<name>1362</name>
<sym>Dot</sym>
</trkpt>
<trkpt lat="48.888153" lon="20.100122">
<ele>1826.0</ele>
<desc>Speed 9.2 km/h Distance 2.85 km</desc>
<time>2013-07-23T13:33:33.94</time>
<name>1363</name>
<sym>Dot</sym>
</trkpt>
<trkpt lat="48.888152" lon="20.100073">
<ele>1826.0</ele>
<desc>Speed 12.7 km/h Distance 2.85 km</desc>
<time>2013-07-23T13:33:34.94</time>
<name>1364</name>
<sym>Dot</sym>
</trkpt>
<trkpt lat="48.888143" lon="20.100023">
<ele>1825.0</ele>
<desc>Speed 13.0 km/h Distance 2.85 km</desc>
<time>2013-07-23T13:33:35.93</time>
<name>1365</name>
<sym>Dot</sym>
</trkpt>
<trkpt lat="48.888137" lon="20.099968">
<ele>1824.5</ele>
<desc>Speed 14.8 km/h Distance 2.86 km</desc>
<time>2013-07-23T13:33:36.93</time>
<name>1366</name>
<sym>Dot</sym>
</trkpt>
<trkpt lat="48.888130" lon="20.099915">
<ele>1823.5</ele>
<desc>Speed 13.9 km/h Distance 2.86 km</desc>
<time>2013-07-23T13:33:37.93</time>
<name>1367</name>
<sym>Dot</sym>
</trkpt>
<trkpt lat="48.888128" lon="20.099867">
<ele>1823.0</ele>
<desc>Speed 13.0 km/h Distance 2.86 km</desc>
<time>2013-07-23T13:33:38.92</time>
<name>1368</name>
<sym>Dot</sym>
</trkpt>
<trkpt lat="48.888127" lon="20.099817">
<ele>1822.5</ele>
<desc>Speed 13.4 km/h Distance 2.87 km</desc>
<time>2013-07-23T13:33:39.92</time>
<name>1369</name>
<sym>Dot</sym>
</trkpt>
<trkpt lat="48.888120" lon="20.099762">
<ele>1822.0</ele>
<desc>Speed 14.8 km/h Distance 2.87 km</desc>
<time>2013-07-23T13:33:40.91</time>
<name>1370</name>
<sym>Dot</sym>
</trkpt>
<trkpt lat="48.888108" lon="20.099702">
<ele>1821.0</ele>
<desc>Speed 16.1 km/h Distance 2.88 km</desc>
<time>2013-07-23T13:33:41.91</time>
<name>1371</name>
<sym>Dot</sym>
</trkpt>
<trkpt lat="48.888093" lon="20.099647">
<ele>1820.0</ele>
<desc>Speed 15.4 km/h Distance 2.88 km</desc>
<time>2013-07-23T13:33:42.91</time>
<name>1372</name>
<sym>Dot</sym>
</trkpt>
<trkpt lat="48.888080" lon="20.099593">
<ele>1820.0</ele>
<desc>Speed 15.3 km/h Distance 2.89 km</desc>
<time>2013-07-23T13:33:43.91</time>
<name>1373</name>
<sym>Dot</sym>
</trkpt>
<trkpt lat="48.888075" lon="20.099533">
<ele>1820.0</ele>
<desc>Speed 15.8 km/h Distance 2.89 km</desc>
<time>2013-07-23T13:33:44.99</time>
<name>1374</name>
<sym>Dot</sym>
</trkpt>
<trkpt lat="48.888068" lon="20.099482">
<ele>1820.0</ele>
<desc>Speed 14.4 km/h Distance 2.89 km</desc>
<time>2013-07-23T13:33:45.90</time>
<name>1375</name>
<sym>Dot</sym>
</trkpt>
<trkpt lat="48.888062" lon="20.099433">
<ele>1819.0</ele>
<desc>Speed 12.8 km/h Distance 2.90 km</desc>
<time>2013-07-23T13:33:46.90</time>
<name>1376</name>
<sym>Dot</sym>
</trkpt>
<trkpt lat="48.888055" lon="20.099385">
<ele>1818.0</ele>
<desc>Speed 13.2 km/h Distance 2.90 km</desc>
<time>2013-07-23T13:33:47.90</time>
<name>1377</name>
<sym>Dot</sym>
</trkpt>
<trkpt lat="48.888048" lon="20.099337">
<ele>1817.5</ele>
<desc>Speed 12.9 km/h Distance 2.90 km</desc>
<time>2013-07-23T13:33:48.90</time>
<name>1378</name>
<sym>Dot</sym>
</trkpt>
<trkpt lat="48.888043" lon="20.099295">
<ele>1819.0</ele>
<desc>Speed 10.9 km/h Distance 2.91 km</desc>
<time>2013-07-23T13:33:49.89</time>
<name>1379</name>
<sym>Dot</sym>
</trkpt>
<trkpt lat="48.888040" lon="20.099247">
<ele>1818.5</ele>
<desc>Speed 12.9 km/h Distance 2.91 km</desc>
<time>2013-07-23T13:33:50.88</time>
<name>1380</name>
<sym>Dot</sym>
</trkpt>
<trkpt lat="48.888037" lon="20.099202">
<ele>1818.5</ele>
<desc>Speed 11.8 km/h Distance 2.91 km</desc>
<time>2013-07-23T13:33:51.88</time>
<name>1381</name>
<sym>Dot</sym>
</trkpt>
<trkpt lat="48.888033" lon="20.099153">
<ele>1818.5</ele>
<desc>Speed 12.3 km/h Distance 2.92 km</desc>
<time>2013-07-23T13:33:52.87</time>
<name>1382</name>
<sym>Dot</sym>
</trkpt>
<trkpt lat="48.888020" lon="20.099103">
<ele>1817.5</ele>
<desc>Speed 13.6 km/h Distance 2.92 km</desc>
<time>2013-07-23T13:33:53.87</time>
<name>1383</name>
<sym>Dot</sym>
</trkpt>
<trkpt lat="48.888010" lon="20.099053">
<ele>1816.5</ele>
<desc>Speed 13.2 km/h Distance 2.93 km</desc>
<time>2013-07-23T13:33:54.86</time>
<name>1384</name>
<sym>Dot</sym>
</trkpt>
<trkpt lat="48.888003" lon="20.099005">
<ele>1816.0</ele>
<desc>Speed 12.0 km/h Distance 2.93 km</desc>
<time>2013-07-23T13:33:55.85</time>
<name>1385</name>
<sym>Dot</sym>
</trkpt>
<trkpt lat="48.887995" lon="20.098950">
<ele>1815.5</ele>
<desc>Speed 13.9 km/h Distance 2.93 km</desc>
<time>2013-07-23T13:33:56.85</time>
<name>1386</name>
<sym>Dot</sym>
</trkpt>
<trkpt lat="48.887985" lon="20.098895">
<ele>1814.5</ele>
<desc>Speed 13.8 km/h Distance 2.94 km</desc>
<time>2013-07-23T13:33:57.84</time>
<name>1387</name>
<sym>Dot</sym>
</trkpt>
<trkpt lat="48.887980" lon="20.098842">
<ele>1814.5</ele>
<desc>Speed 13.9 km/h Distance 2.94 km</desc>
<time>2013-07-23T13:33:58.84</time>
<name>1388</name>
<sym>Dot</sym>
</trkpt>
<trkpt lat="48.887983" lon="20.098793">
<ele>1814.5</ele>
<desc>Speed 13.0 km/h Distance 2.95 km</desc>
<time>2013-07-23T13:33:59.84</time>
<name>1389</name>
<sym>Dot</sym>
</trkpt>
<trkpt lat="48.887993" lon="20.098748">
<ele>1814.5</ele>
<desc>Speed 12.5 km/h Distance 2.95 km</desc>
<time>2013-07-23T13:34:00.87</time>
<name>1390</name>
<sym>Dot</sym>
</trkpt>
<trkpt lat="48.887992" lon="20.098720">
<ele>1815.0</ele>
<desc>Speed 7.7 km/h Distance 2.95 km</desc>
<time>2013-07-23T13:34:01.83</time>
<name>1391</name>
<sym>Dot</sym>
</trkpt>
<trkpt lat="48.887988" lon="20.098678">
<ele>1814.0</ele>
<desc>Speed 10.8 km/h Distance 2.95 km</desc>
<time>2013-07-23T13:34:02.82</time>
<name>1392</name>
<sym>Dot</sym>
</trkpt>
<trkpt lat="48.887993" lon="20.098642">
<ele>1814.0</ele>
<desc>Speed 9.9 km/h Distance 2.96 km</desc>
<time>2013-07-23T13:34:03.82</time>
<name>1393</name>
<sym>Dot</sym>
</trkpt>
<trkpt lat="48.887995" lon="20.098603">
<ele>1813.5</ele>
<desc>Speed 9.9 km/h Distance 2.96 km</desc>
<time>2013-07-23T13:34:05.02</time>
<name>1394</name>
<sym>Dot</sym>
</trkpt>
<trkpt lat="48.887997" lon="20.098562">
<ele>1813.0</ele>
<desc>Speed 10.8 km/h Distance 2.96 km</desc>
<time>2013-07-23T13:34:05.81</time>
<name>1395</name>
<sym>Dot</sym>
</trkpt>
<trkpt lat="48.888005" lon="20.098522">
<ele>1813.0</ele>
<desc>Speed 11.2 km/h Distance 2.97 km</desc>
<time>2013-07-23T13:34:06.81</time>
<name>1396</name>
<sym>Dot</sym>
</trkpt>
<trkpt lat="48.888015" lon="20.098482">
<ele>1813.0</ele>
<desc>Speed 11.0 km/h Distance 2.97 km</desc>
<time>2013-07-23T13:34:07.80</time>
<name>1397</name>
<sym>Dot</sym>
</trkpt>
<trkpt lat="48.888022" lon="20.098438">
<ele>1812.5</ele>
<desc>Speed 11.4 km/h Distance 2.97 km</desc>
<time>2013-07-23T13:34:08.79</time>
<name>1398</name>
<sym>Dot</sym>
</trkpt>
<trkpt lat="48.888027" lon="20.098390">
<ele>1812.5</ele>
<desc>Speed 12.6 km/h Distance 2.98 km</desc>
<time>2013-07-23T13:34:09.79</time>
<name>1399</name>
<sym>Dot</sym>
</trkpt>
<trkpt lat="48.888035" lon="20.098340">
<ele>1812.0</ele>
<desc>Speed 13.4 km/h Distance 2.98 km</desc>
<time>2013-07-23T13:34:10.79</time>
<name>1400</name>
<sym>Dot</sym>
</trkpt>
<trkpt lat="48.888037" lon="20.098287">
<ele>1812.0</ele>
<desc>Speed 13.5 km/h Distance 2.98 km</desc>
<time>2013-07-23T13:34:11.78</time>
<name>1401</name>
<sym>Dot</sym>
</trkpt>
<trkpt lat="48.888038" lon="20.098243">
<ele>1811.5</ele>
<desc>Speed 11.1 km/h Distance 2.99 km</desc>
<time>2013-07-23T13:34:12.77</time>
<name>1402</name>
<sym>Dot</sym>
</trkpt>
<trkpt lat="48.888032" lon="20.098225">
<ele>1812.0</ele>
<desc>Speed 4.8 km/h Distance 2.99 km</desc>
<time>2013-07-23T13:34:13.77</time>
<name>1403</name>
<sym>Dot</sym>
</trkpt>
<trkpt lat="48.888023" lon="20.098202">
<ele>1812.0</ele>
<desc>Speed 6.6 km/h Distance 2.99 km</desc>
<time>2013-07-23T13:34:14.76</time>
<name>1404</name>
<sym>Dot</sym>
</trkpt>
<trkpt lat="48.888022" lon="20.098165">
<ele>1811.5</ele>
<desc>Speed 8.8 km/h Distance 2.99 km</desc>
<time>2013-07-23T13:34:15.75</time>
<name>1405</name>
<sym>Dot</sym>
</trkpt>
<trkpt lat="48.888022" lon="20.098138">
<ele>1811.0</ele>
<desc>Speed 7.2 km/h Distance 2.99 km</desc>
<time>2013-07-23T13:34:16.75</time>
<name>1406</name>
<sym>Dot</sym>
</trkpt>
<trkpt lat="48.888018" lon="20.098105">
<ele>1810.5</ele>
<desc>Speed 9.0 km/h Distance 3.00 km</desc>
<time>2013-07-23T13:34:17.74</time>
<name>1407</name>
<sym>Dot</sym>
</trkpt>
<trkpt lat="48.888022" lon="20.098072">
<ele>1810.5</ele>
<desc>Speed 8.2 km/h Distance 3.00 km</desc>
<time>2013-07-23T13:34:18.74</time>
<name>1408</name>
<sym>Dot</sym>
</trkpt>
<trkpt lat="48.888025" lon="20.098033">
<ele>1810.0</ele>
<desc>Speed 9.6 km/h Distance 3.00 km</desc>
<time>2013-07-23T13:34:19.89</time>
<name>1409</name>
<sym>Dot</sym>
</trkpt>
<trkpt lat="48.888025" lon="20.097992">
<ele>1809.5</ele>
<desc>Speed 9.9 km/h Distance 3.01 km</desc>
<time>2013-07-23T13:34:20.87</time>
<name>1410</name>
<sym>Dot</sym>
</trkpt>
<trkpt lat="48.888025" lon="20.097955">
<ele>1809.0</ele>
<desc>Speed 8.8 km/h Distance 3.01 km</desc>
<time>2013-07-23T13:34:21.74</time>
<name>1411</name>
<sym>Dot</sym>
</trkpt>
<trkpt lat="48.888023" lon="20.097922">
<ele>1809.5</ele>
<desc>Speed 8.7 km/h Distance 3.01 km</desc>
<time>2013-07-23T13:34:22.72</time>
<name>1412</name>
<sym>Dot</sym>
</trkpt>
<trkpt lat="48.888022" lon="20.097885">
<ele>1809.0</ele>
<desc>Speed 9.3 km/h Distance 3.01 km</desc>
<time>2013-07-23T13:34:23.71</time>
<name>1413</name>
<sym>Dot</sym>
</trkpt>
<trkpt lat="48.888018" lon="20.097842">
<ele>1808.0</ele>
<desc>Speed 10.8 km/h Distance 3.02 km</desc>
<time>2013-07-23T13:34:24.70</time>
<name>1414</name>
<sym>Dot</sym>
</trkpt>
<trkpt lat="48.888028" lon="20.097800">
<ele>1808.5</ele>
<desc>Speed 11.7 km/h Distance 3.02 km</desc>
<time>2013-07-23T13:34:25.70</time>
<name>1415</name>
<sym>Dot</sym>
</trkpt>
<trkpt lat="48.888038" lon="20.097755">
<ele>1808.5</ele>
<desc>Speed 12.3 km/h Distance 3.02 km</desc>
<time>2013-07-23T13:34:26.77</time>
<name>1416</name>
<sym>Dot</sym>
</trkpt>
<trkpt lat="48.888047" lon="20.097705">
<ele>1809.0</ele>
<desc>Speed 13.4 km/h Distance 3.03 km</desc>
<time>2013-07-23T13:34:27.69</time>
<name>1417</name>
<sym>Dot</sym>
</trkpt>
<trkpt lat="48.888047" lon="20.097655">
<ele>1809.0</ele>
<desc>Speed 12.9 km/h Distance 3.03 km</desc>
<time>2013-07-23T13:34:28.69</time>
<name>1418</name>
<sym>Dot</sym>
</trkpt>
<trkpt lat="48.888048" lon="20.097603">
<ele>1809.0</ele>
<desc>Speed 12.8 km/h Distance 3.03 km</desc>
<time>2013-07-23T13:34:29.68</time>
<name>1419</name>
<sym>Dot</sym>
</trkpt>
<trkpt lat="48.888045" lon="20.097552">
<ele>1808.5</ele>
<desc>Speed 13.5 km/h Distance 3.04 km</desc>
<time>2013-07-23T13:34:30.77</time>
<name>1420</name>
<sym>Dot</sym>
</trkpt>
<trkpt lat="48.888037" lon="20.097502">
<ele>1808.5</ele>
<desc>Speed 12.7 km/h Distance 3.04 km</desc>
<time>2013-07-23T13:34:31.68</time>
<name>1421</name>
<sym>Dot</sym>
</trkpt>
<trkpt lat="48.888030" lon="20.097452">
<ele>1808.0</ele>
<desc>Speed 12.6 km/h Distance 3.05 km</desc>
<time>2013-07-23T13:34:32.67</time>
<name>1422</name>
<sym>Dot</sym>
</trkpt>
<trkpt lat="48.888028" lon="20.097403">
<ele>1807.5</ele>
<desc>Speed 12.7 km/h Distance 3.05 km</desc>
<time>2013-07-23T13:34:33.66</time>
<name>1423</name>
<sym>Dot</sym>
</trkpt>
<trkpt lat="48.888037" lon="20.097353">
<ele>1807.5</ele>
<desc>Speed 12.9 km/h Distance 3.05 km</desc>
<time>2013-07-23T13:34:34.66</time>
<name>1424</name>
<sym>Dot</sym>
</trkpt>
<trkpt lat="48.888050" lon="20.097305">
<ele>1807.5</ele>
<desc>Speed 13.2 km/h Distance 3.06 km</desc>
<time>2013-07-23T13:34:35.66</time>
<name>1425</name>
<sym>Dot</sym>
</trkpt>
<trkpt lat="48.888057" lon="20.097257">
<ele>1807.5</ele>
<desc>Speed 13.0 km/h Distance 3.06 km</desc>
<time>2013-07-23T13:34:36.65</time>
<name>1426</name>
<sym>Dot</sym>
</trkpt>
<trkpt lat="48.888058" lon="20.097208">
<ele>1806.5</ele>
<desc>Speed 12.1 km/h Distance 3.06 km</desc>
<time>2013-07-23T13:34:37.83</time>
<name>1427</name>
<sym>Dot</sym>
</trkpt>
<trkpt lat="48.888058" lon="20.097162">
<ele>1806.5</ele>
<desc>Speed 12.1 km/h Distance 3.07 km</desc>
<time>2013-07-23T13:34:38.64</time>
<name>1428</name>
<sym>Dot</sym>
</trkpt>
<trkpt lat="48.888057" lon="20.097115">
<ele>1806.5</ele>
<desc>Speed 12.1 km/h Distance 3.07 km</desc>
<time>2013-07-23T13:34:39.64</time>
<name>1429</name>
<sym>Dot</sym>
</trkpt>
<trkpt lat="48.888055" lon="20.097072">
<ele>1806.0</ele>
<desc>Speed 11.4 km/h Distance 3.07 km</desc>
<time>2013-07-23T13:34:40.63</time>
<name>1430</name>
<sym>Dot</sym>
</trkpt>
<trkpt lat="48.888053" lon="20.097027">
<ele>1806.0</ele>
<desc>Speed 11.6 km/h Distance 3.08 km</desc>
<time>2013-07-23T13:34:41.63</time>
<name>1431</name>
<sym>Dot</sym>
</trkpt>
<trkpt lat="48.888050" lon="20.096982">
<ele>1805.0</ele>
<desc>Speed 11.7 km/h Distance 3.08 km</desc>
<time>2013-07-23T13:34:42.63</time>
<name>1432</name>
<sym>Dot</sym>
</trkpt>
<trkpt lat="48.888053" lon="20.096940">
<ele>1805.5</ele>
<desc>Speed 11.5 km/h Distance 3.08 km</desc>
<time>2013-07-23T13:34:43.63</time>
<name>1433</name>
<sym>Dot</sym>
</trkpt>
<trkpt lat="48.888058" lon="20.096897">
<ele>1805.5</ele>
<desc>Speed 11.3 km/h Distance 3.09 km</desc>
<time>2013-07-23T13:34:44.62</time>
<name>1434</name>
<sym>Dot</sym>
</trkpt>
<trkpt lat="48.888062" lon="20.096855">
<ele>1805.5</ele>
<desc>Speed 11.3 km/h Distance 3.09 km</desc>
<time>2013-07-23T13:34:45.62</time>
<name>1435</name>
<sym>Dot</sym>
</trkpt>
<trkpt lat="48.888067" lon="20.096817">
<ele>1805.5</ele>
<desc>Speed 10.5 km/h Distance 3.09 km</desc>
<time>2013-07-23T13:34:46.62</time>
<name>1436</name>
<sym>Dot</sym>
</trkpt>
<trkpt lat="48.888067" lon="20.096778">
<ele>1805.5</ele>
<desc>Speed 10.1 km/h Distance 3.10 km</desc>
<time>2013-07-23T13:34:47.62</time>
<name>1437</name>
<sym>Dot</sym>
</trkpt>
<trkpt lat="48.888070" lon="20.096743">
<ele>1805.5</ele>
<desc>Speed 9.6 km/h Distance 3.10 km</desc>
<time>2013-07-23T13:34:48.61</time>
<name>1438</name>
<sym>Dot</sym>
</trkpt>
<trkpt lat="48.888070" lon="20.096703">
<ele>1805.5</ele>
<desc>Speed 10.5 km/h Distance 3.10 km</desc>
<time>2013-07-23T13:34:49.68</time>
<name>1439</name>
<sym>Dot</sym>
</trkpt>
<trkpt lat="48.888067" lon="20.096667">
<ele>1805.5</ele>
<desc>Speed 9.8 km/h Distance 3.10 km</desc>
<time>2013-07-23T13:34:50.60</time>
<name>1440</name>
<sym>Dot</sym>
</trkpt>
<trkpt lat="48.888070" lon="20.096633">
<ele>1806.0</ele>
<desc>Speed 8.6 km/h Distance 3.11 km</desc>
<time>2013-07-23T13:34:51.59</time>
<name>1441</name>
<sym>Dot</sym>
</trkpt>
<trkpt lat="48.888072" lon="20.096598">
<ele>1806.0</ele>
<desc>Speed 8.9 km/h Distance 3.11 km</desc>
<time>2013-07-23T13:34:52.59</time>
<name>1442</name>
<sym>Dot</sym>
</trkpt>
<trkpt lat="48.888077" lon="20.096567">
<ele>1806.5</ele>
<desc>Speed 8.6 km/h Distance 3.11 km</desc>
<time>2013-07-23T13:34:53.58</time>
<name>1443</name>
<sym>Dot</sym>
</trkpt>
<trkpt lat="48.888082" lon="20.096533">
<ele>1807.0</ele>
<desc>Speed 8.8 km/h Distance 3.11 km</desc>
<time>2013-07-23T13:34:54.60</time>
<name>1444</name>
<sym>Dot</sym>
</trkpt>
<trkpt lat="48.888083" lon="20.096502">
<ele>1806.5</ele>
<desc>Speed 8.5 km/h Distance 3.12 km</desc>
<time>2013-07-23T13:34:55.58</time>
<name>1445</name>
<sym>Dot</sym>
</trkpt>
<trkpt lat="48.888090" lon="20.096470">
<ele>1806.5</ele>
<desc>Speed 8.6 km/h Distance 3.12 km</desc>
<time>2013-07-23T13:34:56.57</time>
<name>1446</name>
<sym>Dot</sym>
</trkpt>
<trkpt lat="48.888095" lon="20.096438">
<ele>1806.5</ele>
<desc>Speed 8.5 km/h Distance 3.12 km</desc>
<time>2013-07-23T13:34:57.57</time>
<name>1447</name>
<sym>Dot</sym>
</trkpt>
<trkpt lat="48.888098" lon="20.096403">
<ele>1806.0</ele>
<desc>Speed 8.9 km/h Distance 3.12 km</desc>
<time>2013-07-23T13:34:58.56</time>
<name>1448</name>
<sym>Dot</sym>
</trkpt>
<trkpt lat="48.888098" lon="20.096367">
<ele>1805.5</ele>
<desc>Speed 9.3 km/h Distance 3.13 km</desc>
<time>2013-07-23T13:34:59.56</time>
<name>1449</name>
<sym>Dot</sym>
</trkpt>
<trkpt lat="48.888095" lon="20.096333">
<ele>1805.0</ele>
<desc>Speed 8.5 km/h Distance 3.13 km</desc>
<time>2013-07-23T13:35:00.55</time>
<name>1450</name>
<sym>Dot</sym>
</trkpt>
<trkpt lat="48.888085" lon="20.096305">
<ele>1804.5</ele>
<desc>Speed 7.4 km/h Distance 3.13 km</desc>
<time>2013-07-23T13:35:01.55</time>
<name>1451</name>
<sym>Dot</sym>
</trkpt>
<trkpt lat="48.888075" lon="20.096275">
<ele>1803.5</ele>
<desc>Speed 7.3 km/h Distance 3.13 km</desc>
<time>2013-07-23T13:35:02.54</time>
<name>1452</name>
<sym>Dot</sym>
</trkpt>
<trkpt lat="48.888077" lon="20.096247">
<ele>1803.5</ele>
<desc>Speed 7.7 km/h Distance 3.14 km</desc>
<time>2013-07-23T13:35:03.54</time>
<name>1453</name>
<sym>Dot</sym>
</trkpt>
<trkpt lat="48.888078" lon="20.096222">
<ele>1803.0</ele>
<desc>Speed 6.9 km/h Distance 3.14 km</desc>
<time>2013-07-23T13:35:04.53</time>
<name>1454</name>
<sym>Dot</sym>
</trkpt>
<trkpt lat="48.888085" lon="20.096198">
<ele>1803.5</ele>
<desc>Speed 6.7 km/h Distance 3.14 km</desc>
<time>2013-07-23T13:35:05.53</time>
<name>1455</name>
<sym>Dot</sym>
</trkpt>
<trkpt lat="48.888088" lon="20.096173">
<ele>1803.0</ele>
<desc>Speed 6.7 km/h Distance 3.14 km</desc>
<time>2013-07-23T13:35:06.52</time>
<name>1456</name>
<sym>Dot</sym>
</trkpt>
<trkpt lat="48.888088" lon="20.096143">
<ele>1803.0</ele>
<desc>Speed 7.5 km/h Distance 3.14 km</desc>
<time>2013-07-23T13:35:07.52</time>
<name>1457</name>
<sym>Dot</sym>
</trkpt>
<trkpt lat="48.888088" lon="20.096118">
<ele>1803.0</ele>
<desc>Speed 6.7 km/h Distance 3.15 km</desc>
<time>2013-07-23T13:35:08.52</time>
<name>1458</name>
<sym>Dot</sym>
</trkpt>
<trkpt lat="48.888087" lon="20.096093">
<ele>1803.5</ele>
<desc>Speed 6.4 km/h Distance 3.15 km</desc>
<time>2013-07-23T13:35:09.51</time>
<name>1459</name>
<sym>Dot</sym>
</trkpt>
<trkpt lat="48.888080" lon="20.096065">
<ele>1803.0</ele>
<desc>Speed 6.7 km/h Distance 3.15 km</desc>
<time>2013-07-23T13:35:10.51</time>
<name>1460</name>
<sym>Dot</sym>
</trkpt>
<trkpt lat="48.888083" lon="20.096040">
<ele>1803.0</ele>
<desc>Speed 6.5 km/h Distance 3.15 km</desc>
<time>2013-07-23T13:35:11.51</time>
<name>1461</name>
<sym>Dot</sym>
</trkpt>
<trkpt lat="48.888088" lon="20.096022">
<ele>1803.0</ele>
<desc>Speed 5.3 km/h Distance 3.15 km</desc>
<time>2013-07-23T13:35:12.50</time>
<name>1462</name>
<sym>Dot</sym>
</trkpt>
<trkpt lat="48.888097" lon="20.096002">
<ele>1803.0</ele>
<desc>Speed 6.1 km/h Distance 3.15 km</desc>
<time>2013-07-23T13:35:13.50</time>
<name>1463</name>
<sym>Dot</sym>
</trkpt>
<trkpt lat="48.888103" lon="20.095977">
<ele>1803.0</ele>
<desc>Speed 7.1 km/h Distance 3.16 km</desc>
<time>2013-07-23T13:35:14.50</time>
<name>1464</name>
<sym>Dot</sym>
</trkpt>
<trkpt lat="48.888107" lon="20.095955">
<ele>1803.0</ele>
<desc>Speed 5.9 km/h Distance 3.16 km</desc>
<time>2013-07-23T13:35:15.50</time>
<name>1465</name>
<sym>Dot</sym>
</trkpt>
<trkpt lat="48.888108" lon="20.095932">
<ele>1803.5</ele>
<desc>Speed 6.2 km/h Distance 3.16 km</desc>
<time>2013-07-23T13:35:16.49</time>
<name>1466</name>
<sym>Dot</sym>
</trkpt>
<trkpt lat="48.888107" lon="20.095907">
<ele>1803.5</ele>
<desc>Speed 6.3 km/h Distance 3.16 km</desc>
<time>2013-07-23T13:35:17.49</time>
<name>1467</name>
<sym>Dot</sym>
</trkpt>
<trkpt lat="48.888103" lon="20.095885">
<ele>1803.5</ele>
<desc>Speed 6.0 km/h Distance 3.16 km</desc>
<time>2013-07-23T13:35:18.48</time>
<name>1468</name>
<sym>Dot</sym>
</trkpt>
<trkpt lat="48.888100" lon="20.095868">
<ele>1803.0</ele>
<desc>Speed 4.9 km/h Distance 3.16 km</desc>
<time>2013-07-23T13:35:19.49</time>
<name>1469</name>
<sym>Dot</sym>
</trkpt>
<trkpt lat="48.888100" lon="20.095865">
<ele>1800.0</ele>
<desc>Speed 3.2 km/h Distance 3.16 km</desc>
<time>2013-07-23T13:36:23.47</time>
<name>1470</name>
<sym>Dot</sym>
</trkpt>
<trkpt lat="48.888092" lon="20.095872">
<ele>1800.0</ele>
<desc>Speed 4.0 km/h Distance 3.17 km</desc>
<time>2013-07-23T13:36:24.47</time>
<name>1471</name>
<sym>Dot</sym>
</trkpt>
<trkpt lat="48.888100" lon="20.095852">
<ele>1800.0</ele>
<desc>Speed 2.9 km/h Distance 3.17 km</desc>
<time>2013-07-23T13:36:27.47</time>
<name>1472</name>
<sym>Dot</sym>
</trkpt>
<trkpt lat="48.888102" lon="20.095835">
<ele>1800.5</ele>
<desc>Speed 4.0 km/h Distance 3.17 km</desc>
<time>2013-07-23T13:36:28.64</time>
<name>1473</name>
<sym>Dot</sym>
</trkpt>
<trkpt lat="48.888103" lon="20.095818">
<ele>1800.5</ele>
<desc>Speed 4.4 km/h Distance 3.17 km</desc>
<time>2013-07-23T13:36:29.45</time>
<name>1474</name>
<sym>Dot</sym>
</trkpt>
<trkpt lat="48.888105" lon="20.095798">
<ele>1800.0</ele>
<desc>Speed 5.2 km/h Distance 3.17 km</desc>
<time>2013-07-23T13:36:30.45</time>
<name>1475</name>
<sym>Dot</sym>
</trkpt>
<trkpt lat="48.888107" lon="20.095783">
<ele>1800.0</ele>
<desc>Speed 3.6 km/h Distance 3.17 km</desc>
<time>2013-07-23T13:36:31.45</time>
<name>1476</name>
<sym>Dot</sym>
</trkpt>
<trkpt lat="48.888108" lon="20.095767">
<ele>1800.0</ele>
<desc>Speed 4.0 km/h Distance 3.17 km</desc>
<time>2013-07-23T13:36:32.45</time>
<name>1477</name>
<sym>Dot</sym>
</trkpt>
<trkpt lat="48.888110" lon="20.095745">
<ele>1800.0</ele>
<desc>Speed 4.9 km/h Distance 3.18 km</desc>
<time>2013-07-23T13:36:33.44</time>
<name>1478</name>
<sym>Dot</sym>
</trkpt>
<trkpt lat="48.888113" lon="20.095723">
<ele>1800.5</ele>
<desc>Speed 5.0 km/h Distance 3.18 km</desc>
<time>2013-07-23T13:36:34.45</time>
<name>1479</name>
<sym>Dot</sym>
</trkpt>
<trkpt lat="48.888118" lon="20.095703">
<ele>1800.5</ele>
<desc>Speed 6.3 km/h Distance 3.18 km</desc>
<time>2013-07-23T13:36:35.43</time>
<name>1480</name>
<sym>Dot</sym>
</trkpt>
<trkpt lat="48.888123" lon="20.095688">
<ele>1800.5</ele>
<desc>Speed 4.6 km/h Distance 3.18 km</desc>
<time>2013-07-23T13:36:36.43</time>
<name>1481</name>
<sym>Dot</sym>
</trkpt>
<trkpt lat="48.888128" lon="20.095673">
<ele>1800.0</ele>
<desc>Speed 4.3 km/h Distance 3.18 km</desc>
<time>2013-07-23T13:36:37.43</time>
<name>1482</name>
<sym>Dot</sym>
</trkpt>
<trkpt lat="48.888130" lon="20.095657">
<ele>1800.0</ele>
<desc>Speed 4.6 km/h Distance 3.18 km</desc>
<time>2013-07-23T13:36:38.43</time>
<name>1483</name>
<sym>Dot</sym>
</trkpt>
<trkpt lat="48.888132" lon="20.095637">
<ele>1800.5</ele>
<desc>Speed 5.1 km/h Distance 3.18 km</desc>
<time>2013-07-23T13:36:39.42</time>
<name>1484</name>
<sym>Dot</sym>
</trkpt>
<trkpt lat="48.888132" lon="20.095617">
<ele>1800.5</ele>
<desc>Speed 5.4 km/h Distance 3.19 km</desc>
<time>2013-07-23T13:36:40.49</time>
<name>1485</name>
<sym>Dot</sym>
</trkpt>
<trkpt lat="48.888130" lon="20.095595">
<ele>1801.0</ele>
<desc>Speed 5.7 km/h Distance 3.19 km</desc>
<time>2013-07-23T13:36:41.54</time>
<name>1486</name>
<sym>Dot</sym>
</trkpt>
<trkpt lat="48.888132" lon="20.095578">
<ele>1801.5</ele>
<desc>Speed 4.9 km/h Distance 3.19 km</desc>
<time>2013-07-23T13:36:42.41</time>
<name>1487</name>
<sym>Dot</sym>
</trkpt>
<trkpt lat="48.888138" lon="20.095563">
<ele>1801.5</ele>
<desc>Speed 4.4 km/h Distance 3.19 km</desc>
<time>2013-07-23T13:36:43.41</time>
<name>1488</name>
<sym>Dot</sym>
</trkpt>
<trkpt lat="48.888140" lon="20.095547">
<ele>1802.0</ele>
<desc>Speed 4.8 km/h Distance 3.19 km</desc>
<time>2013-07-23T13:36:44.63</time>
<name>1489</name>
<sym>Dot</sym>
</trkpt>
<trkpt lat="48.888147" lon="20.095530">
<ele>1802.5</ele>
<desc>Speed 5.1 km/h Distance 3.19 km</desc>
<time>2013-07-23T13:36:45.40</time>
<name>1490</name>
<sym>Dot</sym>
</trkpt>
<trkpt lat="48.888150" lon="20.095520">
<ele>1802.5</ele>
<desc>Speed 2.9 km/h Distance 3.19 km</desc>
<time>2013-07-23T13:36:46.40</time>
<name>1491</name>
<sym>Dot</sym>
</trkpt>
<trkpt lat="48.888155" lon="20.095505">
<ele>1803.0</ele>
<desc>Speed 4.5 km/h Distance 3.19 km</desc>
<time>2013-07-23T13:36:47.40</time>
<name>1492</name>
<sym>Dot</sym>
</trkpt>
<trkpt lat="48.888157" lon="20.095488">
<ele>1803.0</ele>
<desc>Speed 4.8 km/h Distance 3.20 km</desc>
<time>2013-07-23T13:36:48.40</time>
<name>1493</name>
<sym>Dot</sym>
</trkpt>
<trkpt lat="48.888160" lon="20.095472">
<ele>1803.5</ele>
<desc>Speed 4.9 km/h Distance 3.20 km</desc>
<time>2013-07-23T13:36:49.39</time>
<name>1494</name>
<sym>Dot</sym>
</trkpt>
<trkpt lat="48.888163" lon="20.095453">
<ele>1804.0</ele>
<desc>Speed 4.8 km/h Distance 3.20 km</desc>
<time>2013-07-23T13:36:50.39</time>
<name>1495</name>
<sym>Dot</sym>
</trkpt>
<trkpt lat="48.888165" lon="20.095437">
<ele>1804.0</ele>
<desc>Speed 4.6 km/h Distance 3.20 km</desc>
<time>2013-07-23T13:36:51.38</time>
<name>1496</name>
<sym>Dot</sym>
</trkpt>
<trkpt lat="48.888167" lon="20.095422">
<ele>1804.5</ele>
<desc>Speed 4.2 km/h Distance 3.20 km</desc>
<time>2013-07-23T13:36:52.38</time>
<name>1497</name>
<sym>Dot</sym>
</trkpt>
<trkpt lat="48.888167" lon="20.095407">
<ele>1805.0</ele>
<desc>Speed 3.7 km/h Distance 3.20 km</desc>
<time>2013-07-23T13:36:53.38</time>
<name>1498</name>
<sym>Dot</sym>
</trkpt>
<trkpt lat="48.888167" lon="20.095387">
<ele>1806.0</ele>
<desc>Speed 5.4 km/h Distance 3.20 km</desc>
<time>2013-07-23T13:36:54.37</time>
<name>1499</name>
<sym>Dot</sym>
</trkpt>
<trkpt lat="48.888167" lon="20.095368">
<ele>1806.5</ele>
<desc>Speed 5.1 km/h Distance 3.20 km</desc>
<time>2013-07-23T13:36:55.37</time>
<name>1500</name>
<sym>Dot</sym>
</trkpt>
<trkpt lat="48.888167" lon="20.095353">
<ele>1807.0</ele>
<desc>Speed 4.4 km/h Distance 3.21 km</desc>
<time>2013-07-23T13:36:56.37</time>
<name>1501</name>
<sym>Dot</sym>
</trkpt>
<trkpt lat="48.888170" lon="20.095342">
<ele>1808.0</ele>
<desc>Speed 3.4 km/h Distance 3.21 km</desc>
<time>2013-07-23T13:36:57.37</time>
<name>1502</name>
<sym>Dot</sym>
</trkpt>
<trkpt lat="48.888170" lon="20.095327">
<ele>1808.0</ele>
<desc>Speed 3.9 km/h Distance 3.21 km</desc>
<time>2013-07-23T13:36:58.37</time>
<name>1503</name>
<sym>Dot</sym>
</trkpt>
<trkpt lat="48.888170" lon="20.095308">
<ele>1808.0</ele>
<desc>Speed 4.3 km/h Distance 3.21 km</desc>
<time>2013-07-23T13:36:59.36</time>
<name>1504</name>
<sym>Dot</sym>
</trkpt>
<trkpt lat="48.888170" lon="20.095292">
<ele>1808.0</ele>
<desc>Speed 4.1 km/h Distance 3.21 km</desc>
<time>2013-07-23T13:37:00.36</time>
<name>1505</name>
<sym>Dot</sym>
</trkpt>
<trkpt lat="48.888175" lon="20.095273">
<ele>1808.5</ele>
<desc>Speed 5.2 km/h Distance 3.21 km</desc>
<time>2013-07-23T13:37:01.35</time>
<name>1506</name>
<sym>Dot</sym>
</trkpt>
<trkpt lat="48.888183" lon="20.095253">
<ele>1809.0</ele>
<desc>Speed 6.0 km/h Distance 3.21 km</desc>
<time>2013-07-23T13:37:02.56</time>
<name>1507</name>
<sym>Dot</sym>
</trkpt>
<trkpt lat="48.888188" lon="20.095237">
<ele>1809.0</ele>
<desc>Speed 5.3 km/h Distance 3.21 km</desc>
<time>2013-07-23T13:37:03.35</time>
<name>1508</name>
<sym>Dot</sym>
</trkpt>
<trkpt lat="48.888193" lon="20.095220">
<ele>1809.0</ele>
<desc>Speed 4.9 km/h Distance 3.22 km</desc>
<time>2013-07-23T13:37:04.35</time>
<name>1509</name>
<sym>Dot</sym>
</trkpt>
<trkpt lat="48.888195" lon="20.095213">
<ele>1809.5</ele>
<desc>Speed 2.2 km/h Distance 3.22 km</desc>
<time>2013-07-23T13:37:05.34</time>
<name>1510</name>
<sym>Dot</sym>
</trkpt>
<trkpt lat="48.888195" lon="20.095198">
<ele>1809.5</ele>
<desc>Speed 4.1 km/h Distance 3.22 km</desc>
<time>2013-07-23T13:37:06.33</time>
<name>1511</name>
<sym>Dot</sym>
</trkpt>
<trkpt lat="48.888198" lon="20.095177">
<ele>1809.5</ele>
<desc>Speed 5.8 km/h Distance 3.22 km</desc>
<time>2013-07-23T13:37:07.33</time>
<name>1512</name>
<sym>Dot</sym>
</trkpt>
<trkpt lat="48.888202" lon="20.095157">
<ele>1809.0</ele>
<desc>Speed 5.5 km/h Distance 3.22 km</desc>
<time>2013-07-23T13:37:08.45</time>
<name>1513</name>
<sym>Dot</sym>
</trkpt>
<trkpt lat="48.888205" lon="20.095137">
<ele>1809.5</ele>
<desc>Speed 5.3 km/h Distance 3.22 km</desc>
<time>2013-07-23T13:37:09.31</time>
<name>1514</name>
<sym>Dot</sym>
</trkpt>
<trkpt lat="48.888210" lon="20.095120">
<ele>1810.0</ele>
<desc>Speed 4.4 km/h Distance 3.22 km</desc>
<time>2013-07-23T13:37:10.31</time>
<name>1515</name>
<sym>Dot</sym>
</trkpt>
<trkpt lat="48.888213" lon="20.095103">
<ele>1810.0</ele>
<desc>Speed 4.0 km/h Distance 3.22 km</desc>
<time>2013-07-23T13:37:11.30</time>
<name>1516</name>
<sym>Dot</sym>
</trkpt>
<trkpt lat="48.888213" lon="20.095087">
<ele>1810.0</ele>
<desc>Speed 3.5 km/h Distance 3.23 km</desc>
<time>2013-07-23T13:37:12.30</time>
<name>1517</name>
<sym>Dot</sym>
</trkpt>
<trkpt lat="48.888215" lon="20.095067">
<ele>1810.5</ele>
<desc>Speed 5.1 km/h Distance 3.23 km</desc>
<time>2013-07-23T13:37:13.29</time>
<name>1518</name>
<sym>Dot</sym>
</trkpt>
<trkpt lat="48.888220" lon="20.095047">
<ele>1810.5</ele>
<desc>Speed 5.7 km/h Distance 3.23 km</desc>
<time>2013-07-23T13:37:14.29</time>
<name>1519</name>
<sym>Dot</sym>
</trkpt>
<trkpt lat="48.888223" lon="20.095027">
<ele>1810.5</ele>
<desc>Speed 5.2 km/h Distance 3.23 km</desc>
<time>2013-07-23T13:37:15.29</time>
<name>1520</name>
<sym>Dot</sym>
</trkpt>
<trkpt lat="48.888225" lon="20.095008">
<ele>1810.5</ele>
<desc>Speed 4.3 km/h Distance 3.23 km</desc>
<time>2013-07-23T13:37:16.29</time>
<name>1521</name>
<sym>Dot</sym>
</trkpt>
<trkpt lat="48.888227" lon="20.094992">
<ele>1810.5</ele>
<desc>Speed 4.1 km/h Distance 3.23 km</desc>
<time>2013-07-23T13:37:17.28</time>
<name>1522</name>
<sym>Dot</sym>
</trkpt>
<trkpt lat="48.888225" lon="20.094978">
<ele>1810.5</ele>
<desc>Speed 3.7 km/h Distance 3.23 km</desc>
<time>2013-07-23T13:37:18.28</time>
<name>1523</name>
<sym>Dot</sym>
</trkpt>
<trkpt lat="48.888228" lon="20.094960">
<ele>1810.5</ele>
<desc>Speed 4.6 km/h Distance 3.24 km</desc>
<time>2013-07-23T13:37:19.28</time>
<name>1524</name>
<sym>Dot</sym>
</trkpt>
<trkpt lat="48.888230" lon="20.094940">
<ele>1811.0</ele>
<desc>Speed 5.6 km/h Distance 3.24 km</desc>
<time>2013-07-23T13:37:20.27</time>
<name>1525</name>
<sym>Dot</sym>
</trkpt>
<trkpt lat="48.888230" lon="20.094925">
<ele>1811.0</ele>
<desc>Speed 4.0 km/h Distance 3.24 km</desc>
<time>2013-07-23T13:37:21.44</time>
<name>1526</name>
<sym>Dot</sym>
</trkpt>
<trkpt lat="48.888233" lon="20.094910">
<ele>1811.0</ele>
<desc>Speed 4.4 km/h Distance 3.24 km</desc>
<time>2013-07-23T13:37:22.26</time>
<name>1527</name>
<sym>Dot</sym>
</trkpt>
<trkpt lat="48.888235" lon="20.094893">
<ele>1811.0</ele>
<desc>Speed 4.8 km/h Distance 3.24 km</desc>
<time>2013-07-23T13:37:23.26</time>
<name>1528</name>
<sym>Dot</sym>
</trkpt>
<trkpt lat="48.888235" lon="20.094880">
<ele>1811.0</ele>
<desc>Speed 3.7 km/h Distance 3.24 km</desc>
<time>2013-07-23T13:37:24.26</time>
<name>1529</name>
<sym>Dot</sym>
</trkpt>
<trkpt lat="48.888235" lon="20.094863">
<ele>1811.0</ele>
<desc>Speed 4.3 km/h Distance 3.24 km</desc>
<time>2013-07-23T13:37:25.26</time>
<name>1530</name>
<sym>Dot</sym>
</trkpt>
<trkpt lat="48.888237" lon="20.094843">
<ele>1811.5</ele>
<desc>Speed 5.2 km/h Distance 3.24 km</desc>
<time>2013-07-23T13:37:26.34</time>
<name>1531</name>
<sym>Dot</sym>
</trkpt>
<trkpt lat="48.888233" lon="20.094825">
<ele>1811.0</ele>
<desc>Speed 5.0 km/h Distance 3.25 km</desc>
<time>2013-07-23T13:37:27.25</time>
<name>1532</name>
<sym>Dot</sym>
</trkpt>
<trkpt lat="48.888237" lon="20.094812">
<ele>1811.0</ele>
<desc>Speed 3.6 km/h Distance 3.25 km</desc>
<time>2013-07-23T13:37:28.25</time>
<name>1533</name>
<sym>Dot</sym>
</trkpt>
<trkpt lat="48.888237" lon="20.094795">
<ele>1811.0</ele>
<desc>Speed 4.2 km/h Distance 3.25 km</desc>
<time>2013-07-23T13:37:29.25</time>
<name>1534</name>
<sym>Dot</sym>
</trkpt>
<trkpt lat="48.888235" lon="20.094775">
<ele>1811.0</ele>
<desc>Speed 4.9 km/h Distance 3.25 km</desc>
<time>2013-07-23T13:37:30.25</time>
<name>1535</name>
<sym>Dot</sym>
</trkpt>
<trkpt lat="48.888237" lon="20.094758">
<ele>1811.0</ele>
<desc>Speed 4.4 km/h Distance 3.25 km</desc>
<time>2013-07-23T13:37:31.25</time>
<name>1536</name>
<sym>Dot</sym>
</trkpt>
<trkpt lat="48.888238" lon="20.094743">
<ele>1811.0</ele>
<desc>Speed 4.0 km/h Distance 3.25 km</desc>
<time>2013-07-23T13:37:32.25</time>
<name>1537</name>
<sym>Dot</sym>
</trkpt>
<trkpt lat="48.888240" lon="20.094728">
<ele>1811.0</ele>
<desc>Speed 4.3 km/h Distance 3.25 km</desc>
<time>2013-07-23T13:37:33.25</time>
<name>1538</name>
<sym>Dot</sym>
</trkpt>
<trkpt lat="48.888242" lon="20.094715">
<ele>1811.5</ele>
<desc>Speed 3.5 km/h Distance 3.25 km</desc>
<time>2013-07-23T13:37:34.24</time>
<name>1539</name>
<sym>Dot</sym>
</trkpt>
<trkpt lat="48.888253" lon="20.094705">
<ele>1812.5</ele>
<desc>Speed 5.4 km/h Distance 3.26 km</desc>
<time>2013-07-23T13:37:35.24</time>
<name>1540</name>
<sym>Dot</sym>
</trkpt>
<trkpt lat="48.888260" lon="20.094688">
<ele>1813.5</ele>
<desc>Speed 5.1 km/h Distance 3.26 km</desc>
<time>2013-07-23T13:37:36.37</time>
<name>1541</name>
<sym>Dot</sym>
</trkpt>
<trkpt lat="48.888265" lon="20.094673">
<ele>1813.5</ele>
<desc>Speed 4.1 km/h Distance 3.26 km</desc>
<time>2013-07-23T13:37:37.23</time>
<name>1542</name>
<sym>Dot</sym>
</trkpt>
<trkpt lat="48.888267" lon="20.094660">
<ele>1814.0</ele>
<desc>Speed 3.9 km/h Distance 3.26 km</desc>
<time>2013-07-23T13:37:38.23</time>
<name>1543</name>
<sym>Dot</sym>
</trkpt>
<trkpt lat="48.888268" lon="20.094648">
<ele>1814.5</ele>
<desc>Speed 3.2 km/h Distance 3.26 km</desc>
<time>2013-07-23T13:37:39.23</time>
<name>1544</name>
<sym>Dot</sym>
</trkpt>
<trkpt lat="48.888272" lon="20.094632">
<ele>1814.5</ele>
<desc>Speed 4.5 km/h Distance 3.26 km</desc>
<time>2013-07-23T13:37:40.22</time>
<name>1545</name>
<sym>Dot</sym>
</trkpt>
<trkpt lat="48.888275" lon="20.094613">
<ele>1814.5</ele>
<desc>Speed 4.9 km/h Distance 3.26 km</desc>
<time>2013-07-23T13:37:41.24</time>
<name>1546</name>
<sym>Dot</sym>
</trkpt>
<trkpt lat="48.888278" lon="20.094597">
<ele>1814.5</ele>
<desc>Speed 4.8 km/h Distance 3.26 km</desc>
<time>2013-07-23T13:37:42.27</time>
<name>1547</name>
<sym>Dot</sym>
</trkpt>
<trkpt lat="48.888282" lon="20.094582">
<ele>1814.5</ele>
<desc>Speed 4.5 km/h Distance 3.26 km</desc>
<time>2013-07-23T13:37:43.21</time>
<name>1548</name>
<sym>Dot</sym>
</trkpt>
<trkpt lat="48.888280" lon="20.094573">
<ele>1814.5</ele>
<desc>Speed 2.4 km/h Distance 3.27 km</desc>
<time>2013-07-23T13:37:44.21</time>
<name>1549</name>
<sym>Dot</sym>
</trkpt>
<trkpt lat="48.888282" lon="20.094560">
<ele>1815.0</ele>
<desc>Speed 3.7 km/h Distance 3.27 km</desc>
<time>2013-07-23T13:37:45.21</time>
<name>1550</name>
<sym>Dot</sym>
</trkpt>
<trkpt lat="48.888283" lon="20.094542">
<ele>1815.0</ele>
<desc>Speed 4.9 km/h Distance 3.27 km</desc>
<time>2013-07-23T13:37:46.21</time>
<name>1551</name>
<sym>Dot</sym>
</trkpt>
<trkpt lat="48.888283" lon="20.094520">
<ele>1814.5</ele>
<desc>Speed 5.4 km/h Distance 3.27 km</desc>
<time>2013-07-23T13:37:47.21</time>
<name>1552</name>
<sym>Dot</sym>
</trkpt>
<trkpt lat="48.888285" lon="20.094502">
<ele>1814.5</ele>
<desc>Speed 5.3 km/h Distance 3.27 km</desc>
<time>2013-07-23T13:37:48.25</time>
<name>1553</name>
<sym>Dot</sym>
</trkpt>
<trkpt lat="48.888287" lon="20.094480">
<ele>1814.5</ele>
<desc>Speed 5.7 km/h Distance 3.27 km</desc>
<time>2013-07-23T13:37:49.20</time>
<name>1554</name>
<sym>Dot</sym>
</trkpt>
<trkpt lat="48.888287" lon="20.094460">
<ele>1815.0</ele>
<desc>Speed 5.0 km/h Distance 3.27 km</desc>
<time>2013-07-23T13:37:50.20</time>
<name>1555</name>
<sym>Dot</sym>
</trkpt>
<trkpt lat="48.888288" lon="20.094443">
<ele>1814.5</ele>
<desc>Speed 4.2 km/h Distance 3.27 km</desc>
<time>2013-07-23T13:37:51.20</time>
<name>1556</name>
<sym>Dot</sym>
</trkpt>
<trkpt lat="48.888287" lon="20.094428">
<ele>1814.5</ele>
<desc>Speed 3.9 km/h Distance 3.28 km</desc>
<time>2013-07-23T13:37:52.20</time>
<name>1557</name>
<sym>Dot</sym>
</trkpt>
<trkpt lat="48.888287" lon="20.094410">
<ele>1814.0</ele>
<desc>Speed 4.3 km/h Distance 3.28 km</desc>
<time>2013-07-23T13:37:53.20</time>
<name>1558</name>
<sym>Dot</sym>
</trkpt>
<trkpt lat="48.888288" lon="20.094393">
<ele>1814.5</ele>
<desc>Speed 4.8 km/h Distance 3.28 km</desc>
<time>2013-07-23T13:37:54.19</time>
<name>1559</name>
<sym>Dot</sym>
</trkpt>
<trkpt lat="48.888292" lon="20.094373">
<ele>1814.5</ele>
<desc>Speed 5.5 km/h Distance 3.28 km</desc>
<time>2013-07-23T13:37:55.26</time>
<name>1560</name>
<sym>Dot</sym>
</trkpt>
<trkpt lat="48.888295" lon="20.094355">
<ele>1814.5</ele>
<desc>Speed 5.4 km/h Distance 3.28 km</desc>
<time>2013-07-23T13:37:56.18</time>
<name>1561</name>
<sym>Dot</sym>
</trkpt>
<trkpt lat="48.888298" lon="20.094335">
<ele>1815.0</ele>
<desc>Speed 5.8 km/h Distance 3.28 km</desc>
<time>2013-07-23T13:37:57.18</time>
<name>1562</name>
<sym>Dot</sym>
</trkpt>
<trkpt lat="48.888300" lon="20.094317">
<ele>1815.0</ele>
<desc>Speed 4.8 km/h Distance 3.28 km</desc>
<time>2013-07-23T13:37:58.17</time>
<name>1563</name>
<sym>Dot</sym>
</trkpt>
<trkpt lat="48.888302" lon="20.094300">
<ele>1815.0</ele>
<desc>Speed 4.7 km/h Distance 3.29 km</desc>
<time>2013-07-23T13:37:59.17</time>
<name>1564</name>
<sym>Dot</sym>
</trkpt>
<trkpt lat="48.888305" lon="20.094282">
<ele>1815.5</ele>
<desc>Speed 5.0 km/h Distance 3.29 km</desc>
<time>2013-07-23T13:38:00.19</time>
<name>1565</name>
<sym>Dot</sym>
</trkpt>
<trkpt lat="48.888310" lon="20.094252">
<ele>1814.0</ele>
<desc>Speed 8.4 km/h Distance 3.29 km</desc>
<time>2013-07-23T13:38:01.16</time>
<name>1566</name>
<sym>Dot</sym>
</trkpt>
<trkpt lat="48.888317" lon="20.094240">
<ele>1815.5</ele>
<desc>Speed 4.0 km/h Distance 3.29 km</desc>
<time>2013-07-23T13:38:02.21</time>
<name>1567</name>
<sym>Dot</sym>
</trkpt>
<trkpt lat="48.888320" lon="20.094220">
<ele>1815.5</ele>
<desc>Speed 5.4 km/h Distance 3.29 km</desc>
<time>2013-07-23T13:38:03.15</time>
<name>1568</name>
<sym>Dot</sym>
</trkpt>
<trkpt lat="48.888322" lon="20.094200">
<ele>1815.5</ele>
<desc>Speed 5.6 km/h Distance 3.29 km</desc>
<time>2013-07-23T13:38:04.15</time>
<name>1569</name>
<sym>Dot</sym>
</trkpt>
<trkpt lat="48.888323" lon="20.094180">
<ele>1816.0</ele>
<desc>Speed 4.8 km/h Distance 3.29 km</desc>
<time>2013-07-23T13:38:05.15</time>
<name>1570</name>
<sym>Dot</sym>
</trkpt>
<trkpt lat="48.888325" lon="20.094165">
<ele>1816.0</ele>
<desc>Speed 3.7 km/h Distance 3.30 km</desc>
<time>2013-07-23T13:38:06.15</time>
<name>1571</name>
<sym>Dot</sym>
</trkpt>
<trkpt lat="48.888328" lon="20.094145">
<ele>1816.0</ele>
<desc>Speed 4.9 km/h Distance 3.30 km</desc>
<time>2013-07-23T13:38:07.15</time>
<name>1572</name>
<sym>Dot</sym>
</trkpt>
<trkpt lat="48.888332" lon="20.094125">
<ele>1816.0</ele>
<desc>Speed 5.7 km/h Distance 3.30 km</desc>
<time>2013-07-23T13:38:08.14</time>
<name>1573</name>
<sym>Dot</sym>
</trkpt>
<trkpt lat="48.888332" lon="20.094105">
<ele>1816.0</ele>
<desc>Speed 5.1 km/h Distance 3.30 km</desc>
<time>2013-07-23T13:38:09.17</time>
<name>1574</name>
<sym>Dot</sym>
</trkpt>
<trkpt lat="48.888337" lon="20.094088">
<ele>1816.5</ele>
<desc>Speed 4.4 km/h Distance 3.30 km</desc>
<time>2013-07-23T13:38:10.13</time>
<name>1575</name>
<sym>Dot</sym>
</trkpt>
<trkpt lat="48.888340" lon="20.094072">
<ele>1816.5</ele>
<desc>Speed 4.7 km/h Distance 3.30 km</desc>
<time>2013-07-23T13:38:11.13</time>
<name>1576</name>
<sym>Dot</sym>
</trkpt>
<trkpt lat="48.888342" lon="20.094055">
<ele>1816.5</ele>
<desc>Speed 4.3 km/h Distance 3.30 km</desc>
<time>2013-07-23T13:38:12.12</time>
<name>1577</name>
<sym>Dot</sym>
</trkpt>
<trkpt lat="48.888342" lon="20.094037">
<ele>1816.5</ele>
<desc>Speed 4.9 km/h Distance 3.31 km</desc>
<time>2013-07-23T13:38:13.11</time>
<name>1578</name>
<sym>Dot</sym>
</trkpt>
<trkpt lat="48.888342" lon="20.094018">
<ele>1816.0</ele>
<desc>Speed 4.8 km/h Distance 3.31 km</desc>
<time>2013-07-23T13:38:14.11</time>
<name>1579</name>
<sym>Dot</sym>
</trkpt>
<trkpt lat="48.888345" lon="20.094002">
<ele>1816.0</ele>
<desc>Speed 4.5 km/h Distance 3.31 km</desc>
<time>2013-07-23T13:38:15.30</time>
<name>1580</name>
<sym>Dot</sym>
</trkpt>
<trkpt lat="48.888350" lon="20.093987">
<ele>1816.5</ele>
<desc>Speed 4.3 km/h Distance 3.31 km</desc>
<time>2013-07-23T13:38:16.11</time>
<name>1581</name>
<sym>Dot</sym>
</trkpt>
<trkpt lat="48.888353" lon="20.093975">
<ele>1817.0</ele>
<desc>Speed 3.5 km/h Distance 3.31 km</desc>
<time>2013-07-23T13:38:17.10</time>
<name>1582</name>
<sym>Dot</sym>
</trkpt>
<trkpt lat="48.888352" lon="20.093963">
<ele>1817.0</ele>
<desc>Speed 3.6 km/h Distance 3.31 km</desc>
<time>2013-07-23T13:38:18.10</time>
<name>1583</name>
<sym>Dot</sym>
</trkpt>
<trkpt lat="48.888352" lon="20.093947">
<ele>1817.0</ele>
<desc>Speed 4.8 km/h Distance 3.31 km</desc>
<time>2013-07-23T13:38:19.10</time>
<name>1584</name>
<sym>Dot</sym>
</trkpt>
<trkpt lat="48.888355" lon="20.093937">
<ele>1818.0</ele>
<desc>Speed 3.0 km/h Distance 3.31 km</desc>
<time>2013-07-23T13:38:20.09</time>
<name>1585</name>
<sym>Dot</sym>
</trkpt>
<trkpt lat="48.888350" lon="20.093937">
<ele>1818.0</ele>
<desc>Speed 2.7 km/h Distance 3.31 km</desc>
<time>2013-07-23T13:38:21.09</time>
<name>1586</name>
<sym>Dot</sym>
</trkpt>
<trkpt lat="48.888343" lon="20.093935">
<ele>1817.5</ele>
<desc>Speed 2.3 km/h Distance 3.31 km</desc>
<time>2013-07-23T13:38:22.08</time>
<name>1587</name>
<sym>Dot</sym>
</trkpt>
<trkpt lat="48.888343" lon="20.093898">
<ele>1816.5</ele>
<desc>Speed 3.3 km/h Distance 3.32 km</desc>
<time>2013-07-23T13:38:32.07</time>
<name>1588</name>
<sym>Dot</sym>
</trkpt>
<trkpt lat="48.888345" lon="20.093882">
<ele>1816.0</ele>
<desc>Speed 4.4 km/h Distance 3.32 km</desc>
<time>2013-07-23T13:38:33.16</time>
<name>1589</name>
<sym>Dot</sym>
</trkpt>
<trkpt lat="48.888348" lon="20.093883">
<ele>1816.0</ele>
<desc>Speed 2.3 km/h Distance 3.32 km</desc>
<time>2013-07-23T13:38:36.06</time>
<name>1590</name>
<sym>Dot</sym>
</trkpt>
<trkpt lat="48.888350" lon="20.093865">
<ele>1817.0</ele>
<desc>Speed 2.7 km/h Distance 3.32 km</desc>
<time>2013-07-23T13:39:01.05</time>
<name>1591</name>
<sym>Dot</sym>
</trkpt>
<trkpt lat="48.888348" lon="20.093850">
<ele>1817.0</ele>
<desc>Speed 3.8 km/h Distance 3.32 km</desc>
<time>2013-07-23T13:39:02.03</time>
<name>1592</name>
<sym>Dot</sym>
</trkpt>
<trkpt lat="48.888353" lon="20.093837">
<ele>1817.5</ele>
<desc>Speed 3.9 km/h Distance 3.32 km</desc>
<time>2013-07-23T13:39:03.02</time>
<name>1593</name>
<sym>Dot</sym>
</trkpt>
<trkpt lat="48.888353" lon="20.093823">
<ele>1817.5</ele>
<desc>Speed 3.6 km/h Distance 3.32 km</desc>
<time>2013-07-23T13:39:04.01</time>
<name>1594</name>
<sym>Dot</sym>
</trkpt>
<trkpt lat="48.888355" lon="20.093808">
<ele>1817.0</ele>
<desc>Speed 4.0 km/h Distance 3.32 km</desc>
<time>2013-07-23T13:39:07.02</time>
<name>1595</name>
<sym>Dot</sym>
</trkpt>
<trkpt lat="48.888355" lon="20.093793">
<ele>1817.5</ele>
<desc>Speed 3.1 km/h Distance 3.33 km</desc>
<time>2013-07-23T13:39:08.00</time>
<name>1596</name>
<sym>Dot</sym>
</trkpt>
<trkpt lat="48.888357" lon="20.093782">
<ele>1817.5</ele>
<desc>Speed 3.3 km/h Distance 3.33 km</desc>
<time>2013-07-23T13:39:09.00</time>
<name>1597</name>
<sym>Dot</sym>
</trkpt>
<trkpt lat="48.888358" lon="20.093768">
<ele>1818.0</ele>
<desc>Speed 3.3 km/h Distance 3.33 km</desc>
<time>2013-07-23T13:39:10.02</time>
<name>1598</name>
<sym>Dot</sym>
</trkpt>
<trkpt lat="48.888362" lon="20.093752">
<ele>1818.0</ele>
<desc>Speed 4.6 km/h Distance 3.33 km</desc>
<time>2013-07-23T13:39:10.99</time>
<name>1599</name>
<sym>Dot</sym>
</trkpt>
<trkpt lat="48.888365" lon="20.093732">
<ele>1818.0</ele>
<desc>Speed 5.6 km/h Distance 3.33 km</desc>
<time>2013-07-23T13:39:11.98</time>
<name>1600</name>
<sym>Dot</sym>
</trkpt>
<trkpt lat="48.888360" lon="20.093710">
<ele>1817.5</ele>
<desc>Speed 5.9 km/h Distance 3.33 km</desc>
<time>2013-07-23T13:39:12.98</time>
<name>1601</name>
<sym>Dot</sym>
</trkpt>
<trkpt lat="48.888362" lon="20.093700">
<ele>1818.0</ele>
<desc>Speed 3.4 km/h Distance 3.33 km</desc>
<time>2013-07-23T13:39:13.98</time>
<name>1602</name>
<sym>Dot</sym>
</trkpt>
<trkpt lat="48.888365" lon="20.093683">
<ele>1819.0</ele>
<desc>Speed 2.8 km/h Distance 3.33 km</desc>
<time>2013-07-23T13:39:15.97</time>
<name>1603</name>
<sym>Dot</sym>
</trkpt>
<trkpt lat="48.888367" lon="20.093670">
<ele>1819.0</ele>
<desc>Speed 3.7 km/h Distance 3.34 km</desc>
<time>2013-07-23T13:39:17.06</time>
<name>1604</name>
<sym>Dot</sym>
</trkpt>
<trkpt lat="48.888370" lon="20.093655">
<ele>1819.5</ele>
<desc>Speed 4.1 km/h Distance 3.34 km</desc>
<time>2013-07-23T13:39:17.96</time>
<name>1605</name>
<sym>Dot</sym>
</trkpt>
<trkpt lat="48.888377" lon="20.093647">
<ele>1820.0</ele>
<desc>Speed 3.4 km/h Distance 3.34 km</desc>
<time>2013-07-23T13:39:18.97</time>
<name>1606</name>
<sym>Dot</sym>
</trkpt>
<trkpt lat="48.888380" lon="20.093637">
<ele>1820.5</ele>
<desc>Speed 2.9 km/h Distance 3.34 km</desc>
<time>2013-07-23T13:39:19.95</time>
<name>1607</name>
<sym>Dot</sym>
</trkpt>
<trkpt lat="48.888382" lon="20.093622">
<ele>1820.5</ele>
<desc>Speed 4.3 km/h Distance 3.34 km</desc>
<time>2013-07-23T13:39:20.95</time>
<name>1608</name>
<sym>Dot</sym>
</trkpt>
<trkpt lat="48.888380" lon="20.093607">
<ele>1821.0</ele>
<desc>Speed 4.0 km/h Distance 3.34 km</desc>
<time>2013-07-23T13:39:22.00</time>
<name>1609</name>
<sym>Dot</sym>
</trkpt>
<trkpt lat="48.888382" lon="20.093592">
<ele>1821.0</ele>
<desc>Speed 3.7 km/h Distance 3.34 km</desc>
<time>2013-07-23T13:39:22.94</time>
<name>1610</name>
<sym>Dot</sym>
</trkpt>
<trkpt lat="48.888382" lon="20.093582">
<ele>1821.0</ele>
<desc>Speed 3.0 km/h Distance 3.34 km</desc>
<time>2013-07-23T13:39:23.93</time>
<name>1611</name>
<sym>Dot</sym>
</trkpt>
<trkpt lat="48.888383" lon="20.093570">
<ele>1821.0</ele>
<desc>Speed 3.4 km/h Distance 3.34 km</desc>
<time>2013-07-23T13:39:24.92</time>
<name>1612</name>
<sym>Dot</sym>
</trkpt>
<trkpt lat="48.888388" lon="20.093553">
<ele>1821.0</ele>
<desc>Speed 4.8 km/h Distance 3.34 km</desc>
<time>2013-07-23T13:39:25.91</time>
<name>1613</name>
<sym>Dot</sym>
</trkpt>
<trkpt lat="48.888392" lon="20.093537">
<ele>1820.5</ele>
<desc>Speed 4.8 km/h Distance 3.35 km</desc>
<time>2013-07-23T13:39:26.91</time>
<name>1614</name>
<sym>Dot</sym>
</trkpt>
<trkpt lat="48.888395" lon="20.093518">
<ele>1820.5</ele>
<desc>Speed 5.2 km/h Distance 3.35 km</desc>
<time>2013-07-23T13:39:27.92</time>
<name>1615</name>
<sym>Dot</sym>
</trkpt>
<trkpt lat="48.888397" lon="20.093503">
<ele>1820.0</ele>
<desc>Speed 4.2 km/h Distance 3.35 km</desc>
<time>2013-07-23T13:39:28.91</time>
<name>1616</name>
<sym>Dot</sym>
</trkpt>
<trkpt lat="48.888395" lon="20.093487">
<ele>1820.0</ele>
<desc>Speed 4.1 km/h Distance 3.35 km</desc>
<time>2013-07-23T13:39:29.90</time>
<name>1617</name>
<sym>Dot</sym>
</trkpt>
<trkpt lat="48.888395" lon="20.093468">
<ele>1819.5</ele>
<desc>Speed 4.8 km/h Distance 3.35 km</desc>
<time>2013-07-23T13:39:30.90</time>
<name>1618</name>
<sym>Dot</sym>
</trkpt>
<trkpt lat="48.888400" lon="20.093453">
<ele>1820.0</ele>
<desc>Speed 4.0 km/h Distance 3.35 km</desc>
<time>2013-07-23T13:39:31.89</time>
<name>1619</name>
<sym>Dot</sym>
</trkpt>
<trkpt lat="48.888402" lon="20.093435">
<ele>1820.0</ele>
<desc>Speed 5.1 km/h Distance 3.35 km</desc>
<time>2013-07-23T13:39:32.89</time>
<name>1620</name>
<sym>Dot</sym>
</trkpt>
<trkpt lat="48.888405" lon="20.093415">
<ele>1820.0</ele>
<desc>Speed 5.4 km/h Distance 3.35 km</desc>
<time>2013-07-23T13:39:33.88</time>
<name>1621</name>
<sym>Dot</sym>
</trkpt>
<trkpt lat="48.888403" lon="20.093403">
<ele>1820.0</ele>
<desc>Speed 2.7 km/h Distance 3.36 km</desc>
<time>2013-07-23T13:39:34.87</time>
<name>1622</name>
<sym>Dot</sym>
</trkpt>
<trkpt lat="48.888407" lon="20.093387">
<ele>1819.5</ele>
<desc>Speed 4.3 km/h Distance 3.36 km</desc>
<time>2013-07-23T13:39:35.87</time>
<name>1623</name>
<sym>Dot</sym>
</trkpt>
<trkpt lat="48.888408" lon="20.093372">
<ele>1819.5</ele>
<desc>Speed 4.0 km/h Distance 3.36 km</desc>
<time>2013-07-23T13:39:36.87</time>
<name>1624</name>
<sym>Dot</sym>
</trkpt>
<trkpt lat="48.888413" lon="20.093355">
<ele>1819.5</ele>
<desc>Speed 4.3 km/h Distance 3.36 km</desc>
<time>2013-07-23T13:39:37.86</time>
<name>1625</name>
<sym>Dot</sym>
</trkpt>
<trkpt lat="48.888417" lon="20.093338">
<ele>1819.5</ele>
<desc>Speed 4.1 km/h Distance 3.36 km</desc>
<time>2013-07-23T13:39:38.86</time>
<name>1626</name>
<sym>Dot</sym>
</trkpt>
<trkpt lat="48.888422" lon="20.093318">
<ele>1819.5</ele>
<desc>Speed 5.1 km/h Distance 3.36 km</desc>
<time>2013-07-23T13:39:39.86</time>
<name>1627</name>
<sym>Dot</sym>
</trkpt>
<trkpt lat="48.888427" lon="20.093298">
<ele>1819.0</ele>
<desc>Speed 5.1 km/h Distance 3.36 km</desc>
<time>2013-07-23T13:39:40.86</time>
<name>1628</name>
<sym>Dot</sym>
</trkpt>
<trkpt lat="48.888430" lon="20.093285">
<ele>1818.5</ele>
<desc>Speed 3.4 km/h Distance 3.36 km</desc>
<time>2013-07-23T13:39:41.88</time>
<name>1629</name>
<sym>Dot</sym>
</trkpt>
<trkpt lat="48.888435" lon="20.093268">
<ele>1818.0</ele>
<desc>Speed 4.5 km/h Distance 3.37 km</desc>
<time>2013-07-23T13:39:42.85</time>
<name>1630</name>
<sym>Dot</sym>
</trkpt>
<trkpt lat="48.888440" lon="20.093253">
<ele>1817.5</ele>
<desc>Speed 4.1 km/h Distance 3.37 km</desc>
<time>2013-07-23T13:39:43.85</time>
<name>1631</name>
<sym>Dot</sym>
</trkpt>
<trkpt lat="48.888443" lon="20.093238">
<ele>1818.0</ele>
<desc>Speed 4.3 km/h Distance 3.37 km</desc>
<time>2013-07-23T13:39:44.84</time>
<name>1632</name>
<sym>Dot</sym>
</trkpt>
<trkpt lat="48.888448" lon="20.093220">
<ele>1818.5</ele>
<desc>Speed 4.8 km/h Distance 3.37 km</desc>
<time>2013-07-23T13:39:45.83</time>
<name>1633</name>
<sym>Dot</sym>
</trkpt>
<trkpt lat="48.888452" lon="20.093207">
<ele>1819.0</ele>
<desc>Speed 3.6 km/h Distance 3.37 km</desc>
<time>2013-07-23T13:39:46.83</time>
<name>1634</name>
<sym>Dot</sym>
</trkpt>
<trkpt lat="48.888458" lon="20.093192">
<ele>1819.0</ele>
<desc>Speed 2.3 km/h Distance 3.37 km</desc>
<time>2013-07-23T13:39:48.83</time>
<name>1635</name>
<sym>Dot</sym>
</trkpt>
<trkpt lat="48.888460" lon="20.093178">
<ele>1818.5</ele>
<desc>Speed 3.7 km/h Distance 3.37 km</desc>
<time>2013-07-23T13:39:49.82</time>
<name>1636</name>
<sym>Dot</sym>
</trkpt>
<trkpt lat="48.888467" lon="20.093168">
<ele>1819.0</ele>
<desc>Speed 3.7 km/h Distance 3.37 km</desc>
<time>2013-07-23T13:39:50.91</time>
<name>1637</name>
<sym>Dot</sym>
</trkpt>
<trkpt lat="48.888480" lon="20.093145">
<ele>1819.5</ele>
<desc>Speed 3.9 km/h Distance 3.38 km</desc>
<time>2013-07-23T13:39:53.81</time>
<name>1638</name>
<sym>Dot</sym>
</trkpt>
<trkpt lat="48.888485" lon="20.093135">
<ele>1820.0</ele>
<desc>Speed 3.4 km/h Distance 3.38 km</desc>
<time>2013-07-23T13:39:54.81</time>
<name>1639</name>
<sym>Dot</sym>
</trkpt>
<trkpt lat="48.888488" lon="20.093127">
<ele>1820.5</ele>
<desc>Speed 2.2 km/h Distance 3.38 km</desc>
<time>2013-07-23T13:39:55.81</time>
<name>1640</name>
<sym>Dot</sym>
</trkpt>
<trkpt lat="48.888492" lon="20.093118">
<ele>1820.5</ele>
<desc>Speed 2.9 km/h Distance 3.38 km</desc>
<time>2013-07-23T13:39:56.80</time>
<name>1641</name>
<sym>Dot</sym>
</trkpt>
<trkpt lat="48.888495" lon="20.093103">
<ele>1820.5</ele>
<desc>Speed 3.9 km/h Distance 3.38 km</desc>
<time>2013-07-23T13:39:57.80</time>
<name>1642</name>
<sym>Dot</sym>
</trkpt>
<trkpt lat="48.888500" lon="20.093090">
<ele>1820.5</ele>
<desc>Speed 3.6 km/h Distance 3.38 km</desc>
<time>2013-07-23T13:39:58.79</time>
<name>1643</name>
<sym>Dot</sym>
</trkpt>
<trkpt lat="48.888503" lon="20.093082">
<ele>1820.5</ele>
<desc>Speed 2.6 km/h Distance 3.38 km</desc>
<time>2013-07-23T13:39:59.78</time>
<name>1644</name>
<sym>Dot</sym>
</trkpt>
<trkpt lat="48.888507" lon="20.093072">
<ele>1820.5</ele>
<desc>Speed 2.4 km/h Distance 3.38 km</desc>
<time>2013-07-23T13:40:00.78</time>
<name>1645</name>
<sym>Dot</sym>
</trkpt>
<trkpt lat="48.888512" lon="20.093063">
<ele>1821.0</ele>
<desc>Speed 3.4 km/h Distance 3.38 km</desc>
<time>2013-07-23T13:40:01.78</time>
<name>1646</name>
<sym>Dot</sym>
</trkpt>
<trkpt lat="48.888517" lon="20.093055">
<ele>1821.5</ele>
<desc>Speed 2.8 km/h Distance 3.38 km</desc>
<time>2013-07-23T13:40:02.78</time>
<name>1647</name>
<sym>Dot</sym>
</trkpt>
<trkpt lat="48.888522" lon="20.093045">
<ele>1821.5</ele>
<desc>Speed 3.1 km/h Distance 3.39 km</desc>
<time>2013-07-23T13:40:03.77</time>
<name>1648</name>
<sym>Dot</sym>
</trkpt>
<trkpt lat="48.888525" lon="20.093035">
<ele>1821.5</ele>
<desc>Speed 2.8 km/h Distance 3.39 km</desc>
<time>2013-07-23T13:40:04.77</time>
<name>1649</name>
<sym>Dot</sym>
</trkpt>
<trkpt lat="48.888527" lon="20.093023">
<ele>1821.5</ele>
<desc>Speed 3.0 km/h Distance 3.39 km</desc>
<time>2013-07-23T13:40:05.77</time>
<name>1650</name>
<sym>Dot</sym>
</trkpt>
<trkpt lat="48.888528" lon="20.093007">
<ele>1821.5</ele>
<desc>Speed 4.3 km/h Distance 3.39 km</desc>
<time>2013-07-23T13:40:06.76</time>
<name>1651</name>
<sym>Dot</sym>
</trkpt>
<trkpt lat="48.888528" lon="20.092988">
<ele>1821.5</ele>
<desc>Speed 5.0 km/h Distance 3.39 km</desc>
<time>2013-07-23T13:40:07.82</time>
<name>1652</name>
<sym>Dot</sym>
</trkpt>
<trkpt lat="48.888530" lon="20.092978">
<ele>1821.5</ele>
<desc>Speed 2.9 km/h Distance 3.39 km</desc>
<time>2013-07-23T13:40:08.76</time>
<name>1653</name>
<sym>Dot</sym>
</trkpt>
<trkpt lat="48.888530" lon="20.092968">
<ele>1821.5</ele>
<desc>Speed 2.4 km/h Distance 3.39 km</desc>
<time>2013-07-23T13:40:09.75</time>
<name>1654</name>
<sym>Dot</sym>
</trkpt>
<trkpt lat="48.888532" lon="20.092955">
<ele>1821.5</ele>
<desc>Speed 4.0 km/h Distance 3.39 km</desc>
<time>2013-07-23T13:40:10.75</time>
<name>1655</name>
<sym>Dot</sym>
</trkpt>
<trkpt lat="48.888540" lon="20.092942">
<ele>1821.5</ele>
<desc>Speed 4.3 km/h Distance 3.39 km</desc>
<time>2013-07-23T13:40:11.74</time>
<name>1656</name>
<sym>Dot</sym>
</trkpt>
<trkpt lat="48.888543" lon="20.092932">
<ele>1821.5</ele>
<desc>Speed 2.9 km/h Distance 3.39 km</desc>
<time>2013-07-23T13:40:12.76</time>
<name>1657</name>
<sym>Dot</sym>
</trkpt>
<trkpt lat="48.888545" lon="20.092920">
<ele>1821.5</ele>
<desc>Speed 3.3 km/h Distance 3.40 km</desc>
<time>2013-07-23T13:40:13.73</time>
<name>1658</name>
<sym>Dot</sym>
</trkpt>
<trkpt lat="48.888550" lon="20.092907">
<ele>1821.5</ele>
<desc>Speed 4.5 km/h Distance 3.40 km</desc>
<time>2013-07-23T13:40:14.72</time>
<name>1659</name>
<sym>Dot</sym>
</trkpt>
<trkpt lat="48.888555" lon="20.092890">
<ele>1821.5</ele>
<desc>Speed 5.1 km/h Distance 3.40 km</desc>
<time>2013-07-23T13:40:15.74</time>
<name>1660</name>
<sym>Dot</sym>
</trkpt>
<trkpt lat="48.888558" lon="20.092878">
<ele>1821.5</ele>
<desc>Speed 3.3 km/h Distance 3.40 km</desc>
<time>2013-07-23T13:40:16.71</time>
<name>1661</name>
<sym>Dot</sym>
</trkpt>
<trkpt lat="48.888562" lon="20.092863">
<ele>1821.5</ele>
<desc>Speed 4.2 km/h Distance 3.40 km</desc>
<time>2013-07-23T13:40:17.70</time>
<name>1662</name>
<sym>Dot</sym>
</trkpt>
<trkpt lat="48.888568" lon="20.092847">
<ele>1821.0</ele>
<desc>Speed 2.6 km/h Distance 3.40 km</desc>
<time>2013-07-23T13:40:57.70</time>
<name>1663</name>
<sym>Dot</sym>
</trkpt>
<trkpt lat="48.888573" lon="20.092835">
<ele>1821.0</ele>
<desc>Speed 4.0 km/h Distance 3.40 km</desc>
<time>2013-07-23T13:40:58.70</time>
<name>1664</name>
<sym>Dot</sym>
</trkpt>
<trkpt lat="48.888575" lon="20.092823">
<ele>1820.5</ele>
<desc>Speed 3.1 km/h Distance 3.40 km</desc>
<time>2013-07-23T13:40:59.70</time>
<name>1665</name>
<sym>Dot</sym>
</trkpt>
<trkpt lat="48.888577" lon="20.092813">
<ele>1821.0</ele>
<desc>Speed 2.7 km/h Distance 3.40 km</desc>
<time>2013-07-23T13:41:00.69</time>
<name>1666</name>
<sym>Dot</sym>
</trkpt>
<trkpt lat="48.888580" lon="20.092798">
<ele>1821.0</ele>
<desc>Speed 4.0 km/h Distance 3.41 km</desc>
<time>2013-07-23T13:41:01.69</time>
<name>1667</name>
<sym>Dot</sym>
</trkpt>
<trkpt lat="48.888583" lon="20.092788">
<ele>1821.0</ele>
<desc>Speed 3.1 km/h Distance 3.41 km</desc>
<time>2013-07-23T13:41:02.68</time>
<name>1668</name>
<sym>Dot</sym>
</trkpt>
<trkpt lat="48.888587" lon="20.092770">
<ele>1821.0</ele>
<desc>Speed 3.3 km/h Distance 3.41 km</desc>
<time>2013-07-23T13:41:04.68</time>
<name>1669</name>
<sym>Dot</sym>
</trkpt>
<trkpt lat="48.888590" lon="20.092757">
<ele>1821.0</ele>
<desc>Speed 4.0 km/h Distance 3.41 km</desc>
<time>2013-07-23T13:41:05.68</time>
<name>1670</name>
<sym>Dot</sym>
</trkpt>
<trkpt lat="48.888593" lon="20.092743">
<ele>1821.0</ele>
<desc>Speed 3.8 km/h Distance 3.41 km</desc>
<time>2013-07-23T13:41:06.68</time>
<name>1671</name>
<sym>Dot</sym>
</trkpt>
<trkpt lat="48.888595" lon="20.092735">
<ele>1821.0</ele>
<desc>Speed 2.6 km/h Distance 3.41 km</desc>
<time>2013-07-23T13:41:07.67</time>
<name>1672</name>
<sym>Dot</sym>
</trkpt>
<trkpt lat="48.888598" lon="20.092723">
<ele>1821.0</ele>
<desc>Speed 4.0 km/h Distance 3.41 km</desc>
<time>2013-07-23T13:41:08.66</time>
<name>1673</name>
<sym>Dot</sym>
</trkpt>
<trkpt lat="48.888605" lon="20.092695">
<ele>1820.5</ele>
<desc>Speed 8.2 km/h Distance 3.41 km</desc>
<time>2013-07-23T13:41:09.66</time>
<name>1674</name>
<sym>Dot</sym>
</trkpt>
<trkpt lat="48.888605" lon="20.092683">
<ele>1820.5</ele>
<desc>Speed 3.6 km/h Distance 3.41 km</desc>
<time>2013-07-23T13:41:10.66</time>
<name>1675</name>
<sym>Dot</sym>
</trkpt>
<trkpt lat="48.888610" lon="20.092670">
<ele>1821.0</ele>
<desc>Speed 2.9 km/h Distance 3.42 km</desc>
<time>2013-07-23T13:41:12.65</time>
<name>1676</name>
<sym>Dot</sym>
</trkpt>
<trkpt lat="48.888612" lon="20.092658">
<ele>1821.0</ele>
<desc>Speed 3.3 km/h Distance 3.42 km</desc>
<time>2013-07-23T13:41:13.65</time>
<name>1677</name>
<sym>Dot</sym>
</trkpt>
<trkpt lat="48.888615" lon="20.092650">
<ele>1821.0</ele>
<desc>Speed 2.4 km/h Distance 3.42 km</desc>
<time>2013-07-23T13:41:14.64</time>
<name>1678</name>
<sym>Dot</sym>
</trkpt>
<trkpt lat="48.888617" lon="20.092643">
<ele>1821.0</ele>
<desc>Speed 2.5 km/h Distance 3.42 km</desc>
<time>2013-07-23T13:41:15.64</time>
<name>1679</name>
<sym>Dot</sym>
</trkpt>
<trkpt lat="48.888617" lon="20.092635">
<ele>1821.5</ele>
<desc>Speed 3.2 km/h Distance 3.42 km</desc>
<time>2013-07-23T13:41:16.64</time>
<name>1680</name>
<sym>Dot</sym>
</trkpt>
<trkpt lat="48.888620" lon="20.092618">
<ele>1821.5</ele>
<desc>Speed 4.5 km/h Distance 3.42 km</desc>
<time>2013-07-23T13:41:17.63</time>
<name>1681</name>
<sym>Dot</sym>
</trkpt>
<trkpt lat="48.888622" lon="20.092610">
<ele>1821.5</ele>
<desc>Speed 2.9 km/h Distance 3.42 km</desc>
<time>2013-07-23T13:41:18.63</time>
<name>1682</name>
<sym>Dot</sym>
</trkpt>
<trkpt lat="48.888623" lon="20.092603">
<ele>1822.0</ele>
<desc>Speed 2.3 km/h Distance 3.42 km</desc>
<time>2013-07-23T13:41:19.62</time>
<name>1683</name>
<sym>Dot</sym>
</trkpt>
<trkpt lat="48.888625" lon="20.092595">
<ele>1822.0</ele>
<desc>Speed 2.2 km/h Distance 3.42 km</desc>
<time>2013-07-23T13:41:20.61</time>
<name>1684</name>
<sym>Dot</sym>
</trkpt>
<trkpt lat="48.888628" lon="20.092583">
<ele>1822.5</ele>
<desc>Speed 3.9 km/h Distance 3.42 km</desc>
<time>2013-07-23T13:41:21.61</time>
<name>1685</name>
<sym>Dot</sym>
</trkpt>
<trkpt lat="48.888632" lon="20.092567">
<ele>1822.0</ele>
<desc>Speed 4.8 km/h Distance 3.42 km</desc>
<time>2013-07-23T13:41:22.61</time>
<name>1686</name>
<sym>Dot</sym>
</trkpt>
<trkpt lat="48.888633" lon="20.092555">
<ele>1822.0</ele>
<desc>Speed 3.6 km/h Distance 3.42 km</desc>
<time>2013-07-23T13:41:23.61</time>
<name>1687</name>
<sym>Dot</sym>
</trkpt>
<trkpt lat="48.888635" lon="20.092548">
<ele>1822.5</ele>
<desc>Speed 2.4 km/h Distance 3.42 km</desc>
<time>2013-07-23T13:41:24.61</time>
<name>1688</name>
<sym>Dot</sym>
</trkpt>
<trkpt lat="48.888637" lon="20.092535">
<ele>1822.5</ele>
<desc>Speed 4.2 km/h Distance 3.43 km</desc>
<time>2013-07-23T13:41:25.60</time>
<name>1689</name>
<sym>Dot</sym>
</trkpt>
<trkpt lat="48.888638" lon="20.092527">
<ele>1823.0</ele>
<desc>Speed 2.4 km/h Distance 3.43 km</desc>
<time>2013-07-23T13:41:26.60</time>
<name>1690</name>
<sym>Dot</sym>
</trkpt>
<trkpt lat="48.888645" lon="20.092515">
<ele>1823.5</ele>
<desc>Speed 3.9 km/h Distance 3.43 km</desc>
<time>2013-07-23T13:41:37.59</time>
<name>1691</name>
<sym>Dot</sym>
</trkpt>
<trkpt lat="48.888648" lon="20.092500">
<ele>1823.0</ele>
<desc>Speed 4.1 km/h Distance 3.43 km</desc>
<time>2013-07-23T13:41:38.59</time>
<name>1692</name>
<sym>Dot</sym>
</trkpt>
<trkpt lat="48.888650" lon="20.092477">
<ele>1823.0</ele>
<desc>Speed 4.0 km/h Distance 3.43 km</desc>
<time>2013-07-23T13:41:40.57</time>
<name>1693</name>
<sym>Dot</sym>
</trkpt>
<trkpt lat="48.888655" lon="20.092465">
<ele>1823.5</ele>
<desc>Speed 3.5 km/h Distance 3.43 km</desc>
<time>2013-07-23T13:41:41.57</time>
<name>1694</name>
<sym>Dot</sym>
</trkpt>
<trkpt lat="48.888658" lon="20.092452">
<ele>1823.5</ele>
<desc>Speed 4.0 km/h Distance 3.43 km</desc>
<time>2013-07-23T13:41:42.57</time>
<name>1695</name>
<sym>Dot</sym>
</trkpt>
<trkpt lat="48.888660" lon="20.092440">
<ele>1823.5</ele>
<desc>Speed 2.9 km/h Distance 3.43 km</desc>
<time>2013-07-23T13:41:43.56</time>
<name>1696</name>
<sym>Dot</sym>
</trkpt>
<trkpt lat="48.888662" lon="20.092428">
<ele>1823.0</ele>
<desc>Speed 3.3 km/h Distance 3.43 km</desc>
<time>2013-07-23T13:41:44.62</time>
<name>1697</name>
<sym>Dot</sym>
</trkpt>
<trkpt lat="48.888662" lon="20.092415">
<ele>1823.0</ele>
<desc>Speed 3.2 km/h Distance 3.43 km</desc>
<time>2013-07-23T13:41:45.55</time>
<name>1698</name>
<sym>Dot</sym>
</trkpt>
<trkpt lat="48.888667" lon="20.092402">
<ele>1823.0</ele>
<desc>Speed 3.7 km/h Distance 3.44 km</desc>
<time>2013-07-23T13:41:46.55</time>
<name>1699</name>
<sym>Dot</sym>
</trkpt>
<trkpt lat="48.888668" lon="20.092390">
<ele>1823.0</ele>
<desc>Speed 3.4 km/h Distance 3.44 km</desc>
<time>2013-07-23T13:41:47.54</time>
<name>1700</name>
<sym>Dot</sym>
</trkpt>
<trkpt lat="48.888672" lon="20.092382">
<ele>1823.5</ele>
<desc>Speed 2.4 km/h Distance 3.44 km</desc>
<time>2013-07-23T13:41:48.54</time>
<name>1701</name>
<sym>Dot</sym>
</trkpt>
<trkpt lat="48.888673" lon="20.092375">
<ele>1823.5</ele>
<desc>Speed 2.2 km/h Distance 3.44 km</desc>
<time>2013-07-23T13:41:49.54</time>
<name>1702</name>
<sym>Dot</sym>
</trkpt>
<trkpt lat="48.888677" lon="20.092365">
<ele>1824.0</ele>
<desc>Speed 2.9 km/h Distance 3.44 km</desc>
<time>2013-07-23T13:41:50.53</time>
<name>1703</name>
<sym>Dot</sym>
</trkpt>
<trkpt lat="48.888680" lon="20.092348">
<ele>1824.0</ele>
<desc>Speed 4.6 km/h Distance 3.44 km</desc>
<time>2013-07-23T13:41:51.52</time>
<name>1704</name>
<sym>Dot</sym>
</trkpt>
<trkpt lat="48.888685" lon="20.092333">
<ele>1824.0</ele>
<desc>Speed 4.2 km/h Distance 3.44 km</desc>
<time>2013-07-23T13:41:52.52</time>
<name>1705</name>
<sym>Dot</sym>
</trkpt>
<trkpt lat="48.888687" lon="20.092325">
<ele>1824.0</ele>
<desc>Speed 2.5 km/h Distance 3.44 km</desc>
<time>2013-07-23T13:41:53.51</time>
<name>1706</name>
<sym>Dot</sym>
</trkpt>
<trkpt lat="48.888688" lon="20.092317">
<ele>1824.0</ele>
<desc>Speed 2.4 km/h Distance 3.44 km</desc>
<time>2013-07-23T13:41:54.54</time>
<name>1707</name>
<sym>Dot</sym>
</trkpt>
<trkpt lat="48.888690" lon="20.092302">
<ele>1824.0</ele>
<desc>Speed 4.4 km/h Distance 3.44 km</desc>
<time>2013-07-23T13:41:55.50</time>
<name>1708</name>
<sym>Dot</sym>
</trkpt>
<trkpt lat="48.888692" lon="20.092285">
<ele>1824.0</ele>
<desc>Speed 4.5 km/h Distance 3.45 km</desc>
<time>2013-07-23T13:41:56.49</time>
<name>1709</name>
<sym>Dot</sym>
</trkpt>
<trkpt lat="48.888698" lon="20.092267">
<ele>1824.0</ele>
<desc>Speed 3.5 km/h Distance 3.45 km</desc>
<time>2013-07-23T13:41:58.49</time>
<name>1710</name>
<sym>Dot</sym>
</trkpt>
<trkpt lat="48.888703" lon="20.092252">
<ele>1824.5</ele>
<desc>Speed 4.1 km/h Distance 3.45 km</desc>
<time>2013-07-23T13:41:59.48</time>
<name>1711</name>
<sym>Dot</sym>
</trkpt>
<trkpt lat="48.888703" lon="20.092238">
<ele>1825.0</ele>
<desc>Speed 3.4 km/h Distance 3.45 km</desc>
<time>2013-07-23T13:42:00.48</time>
<name>1712</name>
<sym>Dot</sym>
</trkpt>
<trkpt lat="48.888705" lon="20.092227">
<ele>1825.0</ele>
<desc>Speed 3.0 km/h Distance 3.45 km</desc>
<time>2013-07-23T13:42:01.48</time>
<name>1713</name>
<sym>Dot</sym>
</trkpt>
<trkpt lat="48.888703" lon="20.092202">
<ele>1824.5</ele>
<desc>Speed 4.0 km/h Distance 3.45 km</desc>
<time>2013-07-23T13:42:03.47</time>
<name>1714</name>
<sym>Dot</sym>
</trkpt>
<trkpt lat="48.888705" lon="20.092190">
<ele>1825.0</ele>
<desc>Speed 3.0 km/h Distance 3.45 km</desc>
<time>2013-07-23T13:42:04.47</time>
<name>1715</name>
<sym>Dot</sym>
</trkpt>
<trkpt lat="48.888708" lon="20.092173">
<ele>1825.0</ele>
<desc>Speed 2.7 km/h Distance 3.45 km</desc>
<time>2013-07-23T13:42:06.46</time>
<name>1716</name>
<sym>Dot</sym>
</trkpt>
<trkpt lat="48.888710" lon="20.092157">
<ele>1825.0</ele>
<desc>Speed 4.9 km/h Distance 3.45 km</desc>
<time>2013-07-23T13:42:07.45</time>
<name>1717</name>
<sym>Dot</sym>
</trkpt>
<trkpt lat="48.888712" lon="20.092115">
<ele>1823.5</ele>
<desc>Speed 2.4 km/h Distance 3.46 km</desc>
<time>2013-07-23T13:42:10.46</time>
<name>1718</name>
<sym>Dot</sym>
</trkpt>
<trkpt lat="48.888713" lon="20.092103">
<ele>1824.0</ele>
<desc>Speed 3.6 km/h Distance 3.46 km</desc>
<time>2013-07-23T13:42:11.46</time>
<name>1719</name>
<sym>Dot</sym>
</trkpt>
<trkpt lat="48.888713" lon="20.092085">
<ele>1823.5</ele>
<desc>Speed 4.1 km/h Distance 3.46 km</desc>
<time>2013-07-23T13:42:12.44</time>
<name>1720</name>
<sym>Dot</sym>
</trkpt>
<trkpt lat="48.888712" lon="20.092075">
<ele>1823.5</ele>
<desc>Speed 2.5 km/h Distance 3.46 km</desc>
<time>2013-07-23T13:42:13.48</time>
<name>1721</name>
<sym>Dot</sym>
</trkpt>
<trkpt lat="48.888713" lon="20.092063">
<ele>1823.5</ele>
<desc>Speed 3.7 km/h Distance 3.46 km</desc>
<time>2013-07-23T13:42:14.44</time>
<name>1722</name>
<sym>Dot</sym>
</trkpt>
<trkpt lat="48.888732" lon="20.092047">
<ele>1826.5</ele>
<desc>Speed 4.2 km/h Distance 3.46 km</desc>
<time>2013-07-23T13:42:53.43</time>
<name>1723</name>
<sym>Dot</sym>
</trkpt>
<trkpt lat="48.888733" lon="20.092030">
<ele>1826.5</ele>
<desc>Speed 4.7 km/h Distance 3.47 km</desc>
<time>2013-07-23T13:42:54.43</time>
<name>1724</name>
<sym>Dot</sym>
</trkpt>
<trkpt lat="48.888733" lon="20.092022">
<ele>1827.0</ele>
<desc>Speed 2.3 km/h Distance 3.47 km</desc>
<time>2013-07-23T13:42:55.42</time>
<name>1725</name>
<sym>Dot</sym>
</trkpt>
<trkpt lat="48.888735" lon="20.092013">
<ele>1827.0</ele>
<desc>Speed 2.4 km/h Distance 3.47 km</desc>
<time>2013-07-23T13:42:56.41</time>
<name>1726</name>
<sym>Dot</sym>
</trkpt>
<trkpt lat="48.888737" lon="20.091998">
<ele>1827.5</ele>
<desc>Speed 3.9 km/h Distance 3.47 km</desc>
<time>2013-07-23T13:42:57.40</time>
<name>1727</name>
<sym>Dot</sym>
</trkpt>
<trkpt lat="48.888738" lon="20.091982">
<ele>1827.5</ele>
<desc>Speed 4.9 km/h Distance 3.47 km</desc>
<time>2013-07-23T13:42:58.41</time>
<name>1728</name>
<sym>Dot</sym>
</trkpt>
<trkpt lat="48.888740" lon="20.091965">
<ele>1827.5</ele>
<desc>Speed 4.6 km/h Distance 3.47 km</desc>
<time>2013-07-23T13:42:59.39</time>
<name>1729</name>
<sym>Dot</sym>
</trkpt>
<trkpt lat="48.888742" lon="20.091950">
<ele>1827.5</ele>
<desc>Speed 4.5 km/h Distance 3.47 km</desc>
<time>2013-07-23T13:43:00.39</time>
<name>1730</name>
<sym>Dot</sym>
</trkpt>
<trkpt lat="48.888743" lon="20.091940">
<ele>1827.5</ele>
<desc>Speed 3.0 km/h Distance 3.47 km</desc>
<time>2013-07-23T13:43:01.38</time>
<name>1731</name>
<sym>Dot</sym>
</trkpt>
<trkpt lat="48.888742" lon="20.091925">
<ele>1828.0</ele>
<desc>Speed 4.1 km/h Distance 3.47 km</desc>
<time>2013-07-23T13:43:02.38</time>
<name>1732</name>
<sym>Dot</sym>
</trkpt>
<trkpt lat="48.888737" lon="20.091908">
<ele>1828.0</ele>
<desc>Speed 5.3 km/h Distance 3.47 km</desc>
<time>2013-07-23T13:43:03.37</time>
<name>1733</name>
<sym>Dot</sym>
</trkpt>
<trkpt lat="48.888733" lon="20.091893">
<ele>1828.5</ele>
<desc>Speed 4.4 km/h Distance 3.48 km</desc>
<time>2013-07-23T13:43:04.36</time>
<name>1734</name>
<sym>Dot</sym>
</trkpt>
<trkpt lat="48.888730" lon="20.091882">
<ele>1828.5</ele>
<desc>Speed 3.6 km/h Distance 3.48 km</desc>
<time>2013-07-23T13:43:05.36</time>
<name>1735</name>
<sym>Dot</sym>
</trkpt>
<trkpt lat="48.888728" lon="20.091862">
<ele>1829.0</ele>
<desc>Speed 4.0 km/h Distance 3.48 km</desc>
<time>2013-07-23T13:43:07.36</time>
<name>1736</name>
<sym>Dot</sym>
</trkpt>
<trkpt lat="48.888727" lon="20.091848">
<ele>1829.5</ele>
<desc>Speed 3.3 km/h Distance 3.48 km</desc>
<time>2013-07-23T13:43:08.40</time>
<name>1737</name>
<sym>Dot</sym>
</trkpt>
<trkpt lat="48.888725" lon="20.091833">
<ele>1829.5</ele>
<desc>Speed 3.7 km/h Distance 3.48 km</desc>
<time>2013-07-23T13:43:09.35</time>
<name>1738</name>
<sym>Dot</sym>
</trkpt>
<trkpt lat="48.888725" lon="20.091820">
<ele>1829.0</ele>
<desc>Speed 3.4 km/h Distance 3.48 km</desc>
<time>2013-07-23T13:43:10.34</time>
<name>1739</name>
<sym>Dot</sym>
</trkpt>
<trkpt lat="48.888722" lon="20.091807">
<ele>1829.0</ele>
<desc>Speed 3.8 km/h Distance 3.48 km</desc>
<time>2013-07-23T13:43:11.34</time>
<name>1740</name>
<sym>Dot</sym>
</trkpt>
<trkpt lat="48.888720" lon="20.091790">
<ele>1829.0</ele>
<desc>Speed 4.3 km/h Distance 3.48 km</desc>
<time>2013-07-23T13:43:12.33</time>
<name>1741</name>
<sym>Dot</sym>
</trkpt>
<trkpt lat="48.888715" lon="20.091773">
<ele>1829.0</ele>
<desc>Speed 4.4 km/h Distance 3.48 km</desc>
<time>2013-07-23T13:43:13.33</time>
<name>1742</name>
<sym>Dot</sym>
</trkpt>
<trkpt lat="48.888713" lon="20.091763">
<ele>1829.0</ele>
<desc>Speed 2.6 km/h Distance 3.49 km</desc>
<time>2013-07-23T13:43:14.32</time>
<name>1743</name>
<sym>Dot</sym>
</trkpt>
<trkpt lat="48.888713" lon="20.091753">
<ele>1829.0</ele>
<desc>Speed 2.5 km/h Distance 3.49 km</desc>
<time>2013-07-23T13:43:15.32</time>
<name>1744</name>
<sym>Dot</sym>
</trkpt>
<trkpt lat="48.888713" lon="20.091742">
<ele>1829.0</ele>
<desc>Speed 3.3 km/h Distance 3.49 km</desc>
<time>2013-07-23T13:43:16.31</time>
<name>1745</name>
<sym>Dot</sym>
</trkpt>
<trkpt lat="48.888717" lon="20.091733">
<ele>1829.5</ele>
<desc>Speed 2.6 km/h Distance 3.49 km</desc>
<time>2013-07-23T13:43:17.31</time>
<name>1746</name>
<sym>Dot</sym>
</trkpt>
<trkpt lat="48.888715" lon="20.091733">
<ele>1830.0</ele>
<desc>Speed 2.8 km/h Distance 3.49 km</desc>
<time>2013-07-23T13:43:20.30</time>
<name>1747</name>
<sym>Dot</sym>
</trkpt>
<trkpt lat="48.888718" lon="20.091725">
<ele>1829.0</ele>
<desc>Speed 2.2 km/h Distance 3.49 km</desc>
<time>2013-07-23T13:43:21.30</time>
<name>1748</name>
<sym>Dot</sym>
</trkpt>
<trkpt lat="48.888740" lon="20.091698">
<ele>1831.0</ele>
<desc>Speed 3.1 km/h Distance 3.49 km</desc>
<time>2013-07-23T13:43:50.30</time>
<name>1749</name>
<sym>Dot</sym>
</trkpt>
<trkpt lat="48.888740" lon="20.091680">
<ele>1831.0</ele>
<desc>Speed 4.8 km/h Distance 3.49 km</desc>
<time>2013-07-23T13:43:51.35</time>
<name>1750</name>
<sym>Dot</sym>
</trkpt>
<trkpt lat="48.888742" lon="20.091665">
<ele>1831.5</ele>
<desc>Speed 3.5 km/h Distance 3.49 km</desc>
<time>2013-07-23T13:43:52.29</time>
<name>1751</name>
<sym>Dot</sym>
</trkpt>
<trkpt lat="48.888743" lon="20.091655">
<ele>1832.0</ele>
<desc>Speed 2.8 km/h Distance 3.50 km</desc>
<time>2013-07-23T13:43:53.28</time>
<name>1752</name>
<sym>Dot</sym>
</trkpt>
<trkpt lat="48.888742" lon="20.091640">
<ele>1832.0</ele>
<desc>Speed 4.0 km/h Distance 3.50 km</desc>
<time>2013-07-23T13:43:54.28</time>
<name>1753</name>
<sym>Dot</sym>
</trkpt>
<trkpt lat="48.888742" lon="20.091620">
<ele>1832.0</ele>
<desc>Speed 5.2 km/h Distance 3.50 km</desc>
<time>2013-07-23T13:43:55.27</time>
<name>1754</name>
<sym>Dot</sym>
</trkpt>
<trkpt lat="48.888745" lon="20.091602">
<ele>1832.5</ele>
<desc>Speed 4.5 km/h Distance 3.50 km</desc>
<time>2013-07-23T13:43:56.27</time>
<name>1755</name>
<sym>Dot</sym>
</trkpt>
<trkpt lat="48.888743" lon="20.091588">
<ele>1832.5</ele>
<desc>Speed 3.2 km/h Distance 3.50 km</desc>
<time>2013-07-23T13:43:57.26</time>
<name>1756</name>
<sym>Dot</sym>
</trkpt>
<trkpt lat="48.888740" lon="20.091573">
<ele>1832.0</ele>
<desc>Speed 3.7 km/h Distance 3.50 km</desc>
<time>2013-07-23T13:43:58.25</time>
<name>1757</name>
<sym>Dot</sym>
</trkpt>
<trkpt lat="48.888745" lon="20.091555">
<ele>1832.5</ele>
<desc>Speed 4.9 km/h Distance 3.50 km</desc>
<time>2013-07-23T13:43:59.25</time>
<name>1758</name>
<sym>Dot</sym>
</trkpt>
<trkpt lat="48.888747" lon="20.091538">
<ele>1832.5</ele>
<desc>Speed 4.3 km/h Distance 3.50 km</desc>
<time>2013-07-23T13:44:00.25</time>
<name>1759</name>
<sym>Dot</sym>
</trkpt>
<trkpt lat="48.888747" lon="20.091522">
<ele>1832.5</ele>
<desc>Speed 3.9 km/h Distance 3.51 km</desc>
<time>2013-07-23T13:44:01.24</time>
<name>1760</name>
<sym>Dot</sym>
</trkpt>
<trkpt lat="48.888747" lon="20.091510">
<ele>1832.0</ele>
<desc>Speed 2.8 km/h Distance 3.51 km</desc>
<time>2013-07-23T13:44:02.24</time>
<name>1761</name>
<sym>Dot</sym>
</trkpt>
<trkpt lat="48.888748" lon="20.091497">
<ele>1832.0</ele>
<desc>Speed 3.7 km/h Distance 3.51 km</desc>
<time>2013-07-23T13:44:03.23</time>
<name>1762</name>
<sym>Dot</sym>
</trkpt>
<trkpt lat="48.888750" lon="20.091482">
<ele>1832.5</ele>
<desc>Speed 4.0 km/h Distance 3.51 km</desc>
<time>2013-07-23T13:44:04.23</time>
<name>1763</name>
<sym>Dot</sym>
</trkpt>
<trkpt lat="48.888750" lon="20.091468">
<ele>1832.5</ele>
<desc>Speed 3.4 km/h Distance 3.51 km</desc>
<time>2013-07-23T13:44:05.23</time>
<name>1764</name>
<sym>Dot</sym>
</trkpt>
<trkpt lat="48.888747" lon="20.091457">
<ele>1832.5</ele>
<desc>Speed 3.1 km/h Distance 3.51 km</desc>
<time>2013-07-23T13:44:06.22</time>
<name>1765</name>
<sym>Dot</sym>
</trkpt>
<trkpt lat="48.888745" lon="20.091442">
<ele>1832.5</ele>
<desc>Speed 3.9 km/h Distance 3.51 km</desc>
<time>2013-07-23T13:44:07.22</time>
<name>1766</name>
<sym>Dot</sym>
</trkpt>
<trkpt lat="48.888745" lon="20.091427">
<ele>1832.5</ele>
<desc>Speed 4.1 km/h Distance 3.51 km</desc>
<time>2013-07-23T13:44:08.23</time>
<name>1767</name>
<sym>Dot</sym>
</trkpt>
<trkpt lat="48.888745" lon="20.091413">
<ele>1832.5</ele>
<desc>Speed 3.7 km/h Distance 3.51 km</desc>
<time>2013-07-23T13:44:09.21</time>
<name>1768</name>
<sym>Dot</sym>
</trkpt>
<trkpt lat="48.888747" lon="20.091402">
<ele>1832.5</ele>
<desc>Speed 2.8 km/h Distance 3.51 km</desc>
<time>2013-07-23T13:44:10.20</time>
<name>1769</name>
<sym>Dot</sym>
</trkpt>
<trkpt lat="48.888752" lon="20.091395">
<ele>1832.5</ele>
<desc>Speed 2.2 km/h Distance 3.51 km</desc>
<time>2013-07-23T13:44:11.20</time>
<name>1770</name>
<sym>Dot</sym>
</trkpt>
<trkpt lat="48.888755" lon="20.091383">
<ele>1832.5</ele>
<desc>Speed 3.1 km/h Distance 3.52 km</desc>
<time>2013-07-23T13:44:12.20</time>
<name>1771</name>
<sym>Dot</sym>
</trkpt>
<trkpt lat="48.888758" lon="20.091373">
<ele>1832.5</ele>
<desc>Speed 3.0 km/h Distance 3.52 km</desc>
<time>2013-07-23T13:44:13.20</time>
<name>1772</name>
<sym>Dot</sym>
</trkpt>
<trkpt lat="48.888763" lon="20.091367">
<ele>1833.0</ele>
<desc>Speed 2.4 km/h Distance 3.52 km</desc>
<time>2013-07-23T13:44:14.20</time>
<name>1773</name>
<sym>Dot</sym>
</trkpt>
<trkpt lat="48.888770" lon="20.091358">
<ele>1833.5</ele>
<desc>Speed 4.0 km/h Distance 3.52 km</desc>
<time>2013-07-23T13:44:15.19</time>
<name>1774</name>
<sym>Dot</sym>
</trkpt>
<trkpt lat="48.888773" lon="20.091345">
<ele>1833.5</ele>
<desc>Speed 4.0 km/h Distance 3.52 km</desc>
<time>2013-07-23T13:44:16.19</time>
<name>1775</name>
<sym>Dot</sym>
</trkpt>
<trkpt lat="48.888780" lon="20.091330">
<ele>1834.0</ele>
<desc>Speed 4.9 km/h Distance 3.52 km</desc>
<time>2013-07-23T13:44:17.19</time>
<name>1776</name>
<sym>Dot</sym>
</trkpt>
<trkpt lat="48.888783" lon="20.091318">
<ele>1834.0</ele>
<desc>Speed 3.4 km/h Distance 3.52 km</desc>
<time>2013-07-23T13:44:18.19</time>
<name>1777</name>
<sym>Dot</sym>
</trkpt>
<trkpt lat="48.888787" lon="20.091303">
<ele>1834.5</ele>
<desc>Speed 4.3 km/h Distance 3.52 km</desc>
<time>2013-07-23T13:44:19.17</time>
<name>1778</name>
<sym>Dot</sym>
</trkpt>
<trkpt lat="48.888788" lon="20.091285">
<ele>1834.5</ele>
<desc>Speed 4.9 km/h Distance 3.52 km</desc>
<time>2013-07-23T13:44:20.17</time>
<name>1779</name>
<sym>Dot</sym>
</trkpt>
<trkpt lat="48.888790" lon="20.091268">
<ele>1834.5</ele>
<desc>Speed 4.8 km/h Distance 3.53 km</desc>
<time>2013-07-23T13:44:21.16</time>
<name>1780</name>
<sym>Dot</sym>
</trkpt>
<trkpt lat="48.888793" lon="20.091253">
<ele>1834.5</ele>
<desc>Speed 4.4 km/h Distance 3.53 km</desc>
<time>2013-07-23T13:44:22.16</time>
<name>1781</name>
<sym>Dot</sym>
</trkpt>
<trkpt lat="48.888798" lon="20.091243">
<ele>1835.0</ele>
<desc>Speed 3.3 km/h Distance 3.53 km</desc>
<time>2013-07-23T13:44:23.15</time>
<name>1782</name>
<sym>Dot</sym>
</trkpt>
<trkpt lat="48.888798" lon="20.091225">
<ele>1835.0</ele>
<desc>Speed 4.6 km/h Distance 3.53 km</desc>
<time>2013-07-23T13:44:24.15</time>
<name>1783</name>
<sym>Dot</sym>
</trkpt>
<trkpt lat="48.888800" lon="20.091208">
<ele>1835.0</ele>
<desc>Speed 4.9 km/h Distance 3.53 km</desc>
<time>2013-07-23T13:44:25.18</time>
<name>1784</name>
<sym>Dot</sym>
</trkpt>
<trkpt lat="48.888802" lon="20.091195">
<ele>1835.0</ele>
<desc>Speed 3.7 km/h Distance 3.53 km</desc>
<time>2013-07-23T13:44:26.14</time>
<name>1785</name>
<sym>Dot</sym>
</trkpt>
<trkpt lat="48.888798" lon="20.091183">
<ele>1834.5</ele>
<desc>Speed 3.1 km/h Distance 3.53 km</desc>
<time>2013-07-23T13:44:27.13</time>
<name>1786</name>
<sym>Dot</sym>
</trkpt>
<trkpt lat="48.888800" lon="20.091170">
<ele>1834.5</ele>
<desc>Speed 3.9 km/h Distance 3.53 km</desc>
<time>2013-07-23T13:44:28.12</time>
<name>1787</name>
<sym>Dot</sym>
</trkpt>
<trkpt lat="48.888803" lon="20.091152">
<ele>1835.0</ele>
<desc>Speed 4.6 km/h Distance 3.53 km</desc>
<time>2013-07-23T13:44:29.12</time>
<name>1788</name>
<sym>Dot</sym>
</trkpt>
<trkpt lat="48.888805" lon="20.091137">
<ele>1835.0</ele>
<desc>Speed 4.2 km/h Distance 3.54 km</desc>
<time>2013-07-23T13:44:30.11</time>
<name>1789</name>
<sym>Dot</sym>
</trkpt>
<trkpt lat="48.888812" lon="20.091127">
<ele>1836.0</ele>
<desc>Speed 3.6 km/h Distance 3.54 km</desc>
<time>2013-07-23T13:44:31.11</time>
<name>1790</name>
<sym>Dot</sym>
</trkpt>
<trkpt lat="48.888817" lon="20.091108">
<ele>1837.0</ele>
<desc>Speed 4.9 km/h Distance 3.54 km</desc>
<time>2013-07-23T13:44:33.11</time>
<name>1791</name>
<sym>Dot</sym>
</trkpt>
<trkpt lat="48.888820" lon="20.091093">
<ele>1838.0</ele>
<desc>Speed 4.4 km/h Distance 3.54 km</desc>
<time>2013-07-23T13:44:34.11</time>
<name>1792</name>
<sym>Dot</sym>
</trkpt>
<trkpt lat="48.888818" lon="20.091073">
<ele>1838.0</ele>
<desc>Speed 5.1 km/h Distance 3.54 km</desc>
<time>2013-07-23T13:44:35.11</time>
<name>1793</name>
<sym>Dot</sym>
</trkpt>
<trkpt lat="48.888818" lon="20.091058">
<ele>1838.0</ele>
<desc>Speed 4.3 km/h Distance 3.54 km</desc>
<time>2013-07-23T13:44:36.11</time>
<name>1794</name>
<sym>Dot</sym>
</trkpt>
<trkpt lat="48.888820" lon="20.091047">
<ele>1838.5</ele>
<desc>Speed 3.3 km/h Distance 3.54 km</desc>
<time>2013-07-23T13:44:37.11</time>
<name>1795</name>
<sym>Dot</sym>
</trkpt>
<trkpt lat="48.888823" lon="20.091033">
<ele>1839.0</ele>
<desc>Speed 4.4 km/h Distance 3.54 km</desc>
<time>2013-07-23T13:44:38.11</time>
<name>1796</name>
<sym>Dot</sym>
</trkpt>
<trkpt lat="48.888828" lon="20.091015">
<ele>1840.5</ele>
<desc>Speed 3.6 km/h Distance 3.54 km</desc>
<time>2013-07-23T13:44:40.11</time>
<name>1797</name>
<sym>Dot</sym>
</trkpt>
<trkpt lat="48.888832" lon="20.091008">
<ele>1840.5</ele>
<desc>Speed 2.6 km/h Distance 3.55 km</desc>
<time>2013-07-23T13:44:41.10</time>
<name>1798</name>
<sym>Dot</sym>
</trkpt>
<trkpt lat="48.888832" lon="20.090995">
<ele>1841.0</ele>
<desc>Speed 3.4 km/h Distance 3.55 km</desc>
<time>2013-07-23T13:44:42.10</time>
<name>1799</name>
<sym>Dot</sym>
</trkpt>
<trkpt lat="48.888835" lon="20.090987">
<ele>1841.5</ele>
<desc>Speed 3.0 km/h Distance 3.55 km</desc>
<time>2013-07-23T13:44:43.09</time>
<name>1800</name>
<sym>Dot</sym>
</trkpt>
<trkpt lat="48.888840" lon="20.090978">
<ele>1843.5</ele>
<desc>Speed 3.4 km/h Distance 3.55 km</desc>
<time>2013-07-23T13:45:03.09</time>
<name>1801</name>
<sym>Dot</sym>
</trkpt>
<trkpt lat="48.888842" lon="20.090967">
<ele>1843.5</ele>
<desc>Speed 2.9 km/h Distance 3.55 km</desc>
<time>2013-07-23T13:45:04.07</time>
<name>1802</name>
<sym>Dot</sym>
</trkpt>
<trkpt lat="48.888843" lon="20.090952">
<ele>1843.5</ele>
<desc>Speed 4.3 km/h Distance 3.55 km</desc>
<time>2013-07-23T13:45:05.06</time>
<name>1803</name>
<sym>Dot</sym>
</trkpt>
<trkpt lat="48.888845" lon="20.090938">
<ele>1843.5</ele>
<desc>Speed 3.5 km/h Distance 3.55 km</desc>
<time>2013-07-23T13:45:06.06</time>
<name>1804</name>
<sym>Dot</sym>
</trkpt>
<trkpt lat="48.888845" lon="20.090920">
<ele>1844.0</ele>
<desc>Speed 4.5 km/h Distance 3.55 km</desc>
<time>2013-07-23T13:45:07.06</time>
<name>1805</name>
<sym>Dot</sym>
</trkpt>
<trkpt lat="48.888845" lon="20.090902">
<ele>1844.0</ele>
<desc>Speed 4.8 km/h Distance 3.55 km</desc>
<time>2013-07-23T13:45:08.04</time>
<name>1806</name>
<sym>Dot</sym>
</trkpt>
<trkpt lat="48.888845" lon="20.090888">
<ele>1844.0</ele>
<desc>Speed 3.8 km/h Distance 3.55 km</desc>
<time>2013-07-23T13:45:09.04</time>
<name>1807</name>
<sym>Dot</sym>
</trkpt>
<trkpt lat="48.888847" lon="20.090875">
<ele>1844.5</ele>
<desc>Speed 3.7 km/h Distance 3.56 km</desc>
<time>2013-07-23T13:45:10.03</time>
<name>1808</name>
<sym>Dot</sym>
</trkpt>
<trkpt lat="48.888847" lon="20.090860">
<ele>1845.0</ele>
<desc>Speed 4.3 km/h Distance 3.56 km</desc>
<time>2013-07-23T13:45:11.03</time>
<name>1809</name>
<sym>Dot</sym>
</trkpt>
<trkpt lat="48.888850" lon="20.090837">
<ele>1844.0</ele>
<desc>Speed 6.1 km/h Distance 3.56 km</desc>
<time>2013-07-23T13:45:12.03</time>
<name>1810</name>
<sym>Dot</sym>
</trkpt>
<trkpt lat="48.888852" lon="20.090818">
<ele>1843.5</ele>
<desc>Speed 4.9 km/h Distance 3.56 km</desc>
<time>2013-07-23T13:45:13.04</time>
<name>1811</name>
<sym>Dot</sym>
</trkpt>
<trkpt lat="48.888853" lon="20.090807">
<ele>1844.0</ele>
<desc>Speed 3.4 km/h Distance 3.56 km</desc>
<time>2013-07-23T13:45:14.01</time>
<name>1812</name>
<sym>Dot</sym>
</trkpt>
<trkpt lat="48.888857" lon="20.090797">
<ele>1844.0</ele>
<desc>Speed 3.2 km/h Distance 3.56 km</desc>
<time>2013-07-23T13:45:15.00</time>
<name>1813</name>
<sym>Dot</sym>
</trkpt>
<trkpt lat="48.888870" lon="20.090792">
<ele>1844.0</ele>
<desc>Speed 5.5 km/h Distance 3.56 km</desc>
<time>2013-07-23T13:45:16.00</time>
<name>1814</name>
<sym>Dot</sym>
</trkpt>
<trkpt lat="48.888877" lon="20.090778">
<ele>1844.5</ele>
<desc>Speed 4.2 km/h Distance 3.56 km</desc>
<time>2013-07-23T13:45:17.00</time>
<name>1815</name>
<sym>Dot</sym>
</trkpt>
<trkpt lat="48.888882" lon="20.090767">
<ele>1844.5</ele>
<desc>Speed 3.9 km/h Distance 3.57 km</desc>
<time>2013-07-23T13:45:18.00</time>
<name>1816</name>
<sym>Dot</sym>
</trkpt>
<trkpt lat="48.888883" lon="20.090758">
<ele>1845.0</ele>
<desc>Speed 3.2 km/h Distance 3.57 km</desc>
<time>2013-07-23T13:45:22.99</time>
<name>1817</name>
<sym>Dot</sym>
</trkpt>
<trkpt lat="48.888887" lon="20.090745">
<ele>1845.5</ele>
<desc>Speed 4.0 km/h Distance 3.57 km</desc>
<time>2013-07-23T13:45:23.99</time>
<name>1818</name>
<sym>Dot</sym>
</trkpt>
<trkpt lat="48.888888" lon="20.090735">
<ele>1845.5</ele>
<desc>Speed 3.2 km/h Distance 3.57 km</desc>
<time>2013-07-23T13:45:24.99</time>
<name>1819</name>
<sym>Dot</sym>
</trkpt>
<trkpt lat="48.888892" lon="20.090725">
<ele>1846.0</ele>
<desc>Speed 3.1 km/h Distance 3.57 km</desc>
<time>2013-07-23T13:45:25.99</time>
<name>1820</name>
<sym>Dot</sym>
</trkpt>
<trkpt lat="48.888893" lon="20.090712">
<ele>1846.5</ele>
<desc>Speed 4.5 km/h Distance 3.57 km</desc>
<time>2013-07-23T13:45:26.99</time>
<name>1821</name>
<sym>Dot</sym>
</trkpt>
<trkpt lat="48.888893" lon="20.090703">
<ele>1846.0</ele>
<desc>Speed 2.8 km/h Distance 3.57 km</desc>
<time>2013-07-23T13:45:27.97</time>
<name>1822</name>
<sym>Dot</sym>
</trkpt>
<trkpt lat="48.888892" lon="20.090693">
<ele>1846.0</ele>
<desc>Speed 2.7 km/h Distance 3.57 km</desc>
<time>2013-07-23T13:45:28.97</time>
<name>1823</name>
<sym>Dot</sym>
</trkpt>
<trkpt lat="48.888888" lon="20.090675">
<ele>1846.0</ele>
<desc>Speed 4.4 km/h Distance 3.57 km</desc>
<time>2013-07-23T13:45:30.03</time>
<name>1824</name>
<sym>Dot</sym>
</trkpt>
<trkpt lat="48.888892" lon="20.090663">
<ele>1846.5</ele>
<desc>Speed 3.6 km/h Distance 3.57 km</desc>
<time>2013-07-23T13:45:30.96</time>
<name>1825</name>
<sym>Dot</sym>
</trkpt>
<trkpt lat="48.888892" lon="20.090645">
<ele>1847.0</ele>
<desc>Speed 3.1 km/h Distance 3.57 km</desc>
<time>2013-07-23T13:45:32.95</time>
<name>1826</name>
<sym>Dot</sym>
</trkpt>
<trkpt lat="48.888893" lon="20.090635">
<ele>1847.0</ele>
<desc>Speed 2.6 km/h Distance 3.58 km</desc>
<time>2013-07-23T13:45:33.95</time>
<name>1827</name>
<sym>Dot</sym>
</trkpt>
<trkpt lat="48.888892" lon="20.090628">
<ele>1847.0</ele>
<desc>Speed 2.2 km/h Distance 3.58 km</desc>
<time>2013-07-23T13:45:35.02</time>
<name>1828</name>
<sym>Dot</sym>
</trkpt>
<trkpt lat="48.888895" lon="20.090620">
<ele>1847.5</ele>
<desc>Speed 2.4 km/h Distance 3.58 km</desc>
<time>2013-07-23T13:45:35.94</time>
<name>1829</name>
<sym>Dot</sym>
</trkpt>
<trkpt lat="48.888895" lon="20.090605">
<ele>1847.5</ele>
<desc>Speed 4.4 km/h Distance 3.58 km</desc>
<time>2013-07-23T13:45:36.94</time>
<name>1830</name>
<sym>Dot</sym>
</trkpt>
<trkpt lat="48.888897" lon="20.090595">
<ele>1847.5</ele>
<desc>Speed 3.2 km/h Distance 3.58 km</desc>
<time>2013-07-23T13:45:37.94</time>
<name>1831</name>
<sym>Dot</sym>
</trkpt>
<trkpt lat="48.888898" lon="20.090582">
<ele>1848.0</ele>
<desc>Speed 4.0 km/h Distance 3.58 km</desc>
<time>2013-07-23T13:45:39.01</time>
<name>1832</name>
<sym>Dot</sym>
</trkpt>
<trkpt lat="48.888898" lon="20.090568">
<ele>1848.0</ele>
<desc>Speed 3.9 km/h Distance 3.58 km</desc>
<time>2013-07-23T13:45:39.92</time>
<name>1833</name>
<sym>Dot</sym>
</trkpt>
<trkpt lat="48.888900" lon="20.090553">
<ele>1848.0</ele>
<desc>Speed 4.2 km/h Distance 3.58 km</desc>
<time>2013-07-23T13:45:40.92</time>
<name>1834</name>
<sym>Dot</sym>
</trkpt>
<trkpt lat="48.888902" lon="20.090540">
<ele>1848.0</ele>
<desc>Speed 3.9 km/h Distance 3.58 km</desc>
<time>2013-07-23T13:45:41.92</time>
<name>1835</name>
<sym>Dot</sym>
</trkpt>
<trkpt lat="48.888857" lon="20.090558">
<ele>1844.0</ele>
<desc>Speed 6.2 km/h Distance 3.59 km</desc>
<time>2013-07-23T13:47:00.93</time>
<name>1836</name>
<sym>Dot</sym>
</trkpt>
<trkpt lat="48.888867" lon="20.090537">
<ele>1843.0</ele>
<desc>Speed 2.2 km/h Distance 3.59 km</desc>
<time>2013-07-23T13:47:18.43</time>
<name>1837</name>
<sym>Dot</sym>
</trkpt>
<trkpt lat="48.888867" lon="20.090527">
<ele>1843.0</ele>
<desc>Speed 2.4 km/h Distance 3.59 km</desc>
<time>2013-07-23T13:47:19.42</time>
<name>1838</name>
<sym>Dot</sym>
</trkpt>
<trkpt lat="48.888870" lon="20.090515">
<ele>1843.0</ele>
<desc>Speed 3.1 km/h Distance 3.59 km</desc>
<time>2013-07-23T13:47:20.41</time>
<name>1839</name>
<sym>Dot</sym>
</trkpt>
<trkpt lat="48.888873" lon="20.090500">
<ele>1843.0</ele>
<desc>Speed 3.6 km/h Distance 3.59 km</desc>
<time>2013-07-23T13:47:21.41</time>
<name>1840</name>
<sym>Dot</sym>
</trkpt>
<trkpt lat="48.888878" lon="20.090488">
<ele>1843.0</ele>
<desc>Speed 3.1 km/h Distance 3.59 km</desc>
<time>2013-07-23T13:47:22.41</time>
<name>1841</name>
<sym>Dot</sym>
</trkpt>
<trkpt lat="48.888880" lon="20.090472">
<ele>1842.5</ele>
<desc>Speed 3.3 km/h Distance 3.59 km</desc>
<time>2013-07-23T13:47:23.40</time>
<name>1842</name>
<sym>Dot</sym>
</trkpt>
<trkpt lat="48.888882" lon="20.090462">
<ele>1842.5</ele>
<desc>Speed 2.4 km/h Distance 3.60 km</desc>
<time>2013-07-23T13:47:24.39</time>
<name>1843</name>
<sym>Dot</sym>
</trkpt>
<trkpt lat="48.888882" lon="20.090430">
<ele>1843.0</ele>
<desc>Speed 3.2 km/h Distance 3.60 km</desc>
<time>2013-07-23T13:47:28.39</time>
<name>1844</name>
<sym>Dot</sym>
</trkpt>
<trkpt lat="48.888883" lon="20.090413">
<ele>1843.0</ele>
<desc>Speed 4.2 km/h Distance 3.60 km</desc>
<time>2013-07-23T13:47:29.38</time>
<name>1845</name>
<sym>Dot</sym>
</trkpt>
<trkpt lat="48.888890" lon="20.090395">
<ele>1843.5</ele>
<desc>Speed 5.0 km/h Distance 3.60 km</desc>
<time>2013-07-23T13:47:30.37</time>
<name>1846</name>
<sym>Dot</sym>
</trkpt>
<trkpt lat="48.888890" lon="20.090378">
<ele>1843.5</ele>
<desc>Speed 4.5 km/h Distance 3.60 km</desc>
<time>2013-07-23T13:47:31.37</time>
<name>1847</name>
<sym>Dot</sym>
</trkpt>
<trkpt lat="48.888885" lon="20.090363">
<ele>1843.0</ele>
<desc>Speed 4.1 km/h Distance 3.60 km</desc>
<time>2013-07-23T13:47:32.41</time>
<name>1848</name>
<sym>Dot</sym>
</trkpt>
<trkpt lat="48.888883" lon="20.090350">
<ele>1843.5</ele>
<desc>Speed 3.1 km/h Distance 3.60 km</desc>
<time>2013-07-23T13:47:33.40</time>
<name>1849</name>
<sym>Dot</sym>
</trkpt>
<trkpt lat="48.888885" lon="20.090333">
<ele>1843.5</ele>
<desc>Speed 4.2 km/h Distance 3.61 km</desc>
<time>2013-07-23T13:47:34.36</time>
<name>1850</name>
<sym>Dot</sym>
</trkpt>
<trkpt lat="48.888885" lon="20.090312">
<ele>1843.5</ele>
<desc>Speed 5.5 km/h Distance 3.61 km</desc>
<time>2013-07-23T13:47:35.35</time>
<name>1851</name>
<sym>Dot</sym>
</trkpt>
<trkpt lat="48.888887" lon="20.090295">
<ele>1843.5</ele>
<desc>Speed 4.6 km/h Distance 3.61 km</desc>
<time>2013-07-23T13:47:36.34</time>
<name>1852</name>
<sym>Dot</sym>
</trkpt>
<trkpt lat="48.888888" lon="20.090278">
<ele>1843.0</ele>
<desc>Speed 4.1 km/h Distance 3.61 km</desc>
<time>2013-07-23T13:47:37.34</time>
<name>1853</name>
<sym>Dot</sym>
</trkpt>
<trkpt lat="48.888888" lon="20.090268">
<ele>1843.0</ele>
<desc>Speed 2.7 km/h Distance 3.61 km</desc>
<time>2013-07-23T13:47:38.34</time>
<name>1854</name>
<sym>Dot</sym>
</trkpt>
<trkpt lat="48.888890" lon="20.090255">
<ele>1843.0</ele>
<desc>Speed 3.5 km/h Distance 3.61 km</desc>
<time>2013-07-23T13:47:39.33</time>
<name>1855</name>
<sym>Dot</sym>
</trkpt>
<trkpt lat="48.888888" lon="20.090233">
<ele>1842.5</ele>
<desc>Speed 5.4 km/h Distance 3.61 km</desc>
<time>2013-07-23T13:47:40.33</time>
<name>1856</name>
<sym>Dot</sym>
</trkpt>
<trkpt lat="48.888892" lon="20.090223">
<ele>1843.0</ele>
<desc>Speed 2.8 km/h Distance 3.61 km</desc>
<time>2013-07-23T13:47:41.33</time>
<name>1857</name>
<sym>Dot</sym>
</trkpt>
<trkpt lat="48.888892" lon="20.090213">
<ele>1842.5</ele>
<desc>Speed 2.6 km/h Distance 3.61 km</desc>
<time>2013-07-23T13:47:42.45</time>
<name>1858</name>
<sym>Dot</sym>
</trkpt>
<trkpt lat="48.888897" lon="20.090207">
<ele>1843.5</ele>
<desc>Speed 2.7 km/h Distance 3.62 km</desc>
<time>2013-07-23T13:47:43.32</time>
<name>1859</name>
<sym>Dot</sym>
</trkpt>
<trkpt lat="48.888887" lon="20.090183">
<ele>1843.5</ele>
<desc>Speed 7.8 km/h Distance 3.62 km</desc>
<time>2013-07-23T13:47:44.31</time>
<name>1860</name>
<sym>Dot</sym>
</trkpt>
<trkpt lat="48.888898" lon="20.090183">
<ele>1845.0</ele>
<desc>Speed 3.9 km/h Distance 3.62 km</desc>
<time>2013-07-23T13:47:45.31</time>
<name>1861</name>
<sym>Dot</sym>
</trkpt>
<trkpt lat="48.888902" lon="20.090167">
<ele>1845.5</ele>
<desc>Speed 3.5 km/h Distance 3.62 km</desc>
<time>2013-07-23T13:47:47.30</time>
<name>1862</name>
<sym>Dot</sym>
</trkpt>
<trkpt lat="48.888903" lon="20.090152">
<ele>1845.5</ele>
<desc>Speed 3.9 km/h Distance 3.62 km</desc>
<time>2013-07-23T13:47:48.30</time>
<name>1863</name>
<sym>Dot</sym>
</trkpt>
<trkpt lat="48.888920" lon="20.090153">
<ele>1847.5</ele>
<desc>Speed 5.9 km/h Distance 3.62 km</desc>
<time>2013-07-23T13:47:49.30</time>
<name>1864</name>
<sym>Dot</sym>
</trkpt>
<trkpt lat="48.888928" lon="20.090137">
<ele>1849.5</ele>
<desc>Speed 4.0 km/h Distance 3.62 km</desc>
<time>2013-07-23T13:47:51.29</time>
<name>1865</name>
<sym>Dot</sym>
</trkpt>
<trkpt lat="48.888920" lon="20.090100">
<ele>1847.5</ele>
<desc>Speed 10.2 km/h Distance 3.63 km</desc>
<time>2013-07-23T13:47:52.29</time>
<name>1866</name>
<sym>Dot</sym>
</trkpt>
<trkpt lat="48.888922" lon="20.090085">
<ele>1848.0</ele>
<desc>Speed 2.4 km/h Distance 3.63 km</desc>
<time>2013-07-23T13:47:54.29</time>
<name>1867</name>
<sym>Dot</sym>
</trkpt>
<trkpt lat="48.888920" lon="20.090072">
<ele>1848.0</ele>
<desc>Speed 3.4 km/h Distance 3.63 km</desc>
<time>2013-07-23T13:47:55.29</time>
<name>1868</name>
<sym>Dot</sym>
</trkpt>
<trkpt lat="48.888925" lon="20.090057">
<ele>1849.0</ele>
<desc>Speed 3.1 km/h Distance 3.63 km</desc>
<time>2013-07-23T13:47:57.28</time>
<name>1869</name>
<sym>Dot</sym>
</trkpt>
<trkpt lat="48.888927" lon="20.090040">
<ele>1849.0</ele>
<desc>Speed 4.5 km/h Distance 3.63 km</desc>
<time>2013-07-23T13:47:58.37</time>
<name>1870</name>
<sym>Dot</sym>
</trkpt>
<trkpt lat="48.888930" lon="20.090032">
<ele>1849.0</ele>
<desc>Speed 2.8 km/h Distance 3.63 km</desc>
<time>2013-07-23T13:47:59.27</time>
<name>1871</name>
<sym>Dot</sym>
</trkpt>
<trkpt lat="48.888930" lon="20.090020">
<ele>1849.0</ele>
<desc>Speed 3.1 km/h Distance 3.63 km</desc>
<time>2013-07-23T13:48:00.26</time>
<name>1872</name>
<sym>Dot</sym>
</trkpt>
<trkpt lat="48.888933" lon="20.090007">
<ele>1849.5</ele>
<desc>Speed 4.1 km/h Distance 3.63 km</desc>
<time>2013-07-23T13:48:01.31</time>
<name>1873</name>
<sym>Dot</sym>
</trkpt>
<trkpt lat="48.888938" lon="20.089992">
<ele>1849.5</ele>
<desc>Speed 4.6 km/h Distance 3.64 km</desc>
<time>2013-07-23T13:48:02.25</time>
<name>1874</name>
<sym>Dot</sym>
</trkpt>
<trkpt lat="48.888942" lon="20.089972">
<ele>1849.0</ele>
<desc>Speed 2.9 km/h Distance 3.64 km</desc>
<time>2013-07-23T13:48:04.25</time>
<name>1875</name>
<sym>Dot</sym>
</trkpt>
<trkpt lat="48.888938" lon="20.089960">
<ele>1849.0</ele>
<desc>Speed 3.6 km/h Distance 3.64 km</desc>
<time>2013-07-23T13:48:05.24</time>
<name>1876</name>
<sym>Dot</sym>
</trkpt>
<trkpt lat="48.888938" lon="20.089952">
<ele>1848.5</ele>
<desc>Speed 2.5 km/h Distance 3.64 km</desc>
<time>2013-07-23T13:48:06.24</time>
<name>1877</name>
<sym>Dot</sym>
</trkpt>
<trkpt lat="48.888942" lon="20.089942">
<ele>1849.0</ele>
<desc>Speed 3.0 km/h Distance 3.64 km</desc>
<time>2013-07-23T13:48:07.24</time>
<name>1878</name>
<sym>Dot</sym>
</trkpt>
<trkpt lat="48.888943" lon="20.089920">
<ele>1848.5</ele>
<desc>Speed 3.7 km/h Distance 3.64 km</desc>
<time>2013-07-23T13:48:09.24</time>
<name>1879</name>
<sym>Dot</sym>
</trkpt>
<trkpt lat="48.888948" lon="20.089908">
<ele>1849.5</ele>
<desc>Speed 3.3 km/h Distance 3.64 km</desc>
<time>2013-07-23T13:48:10.23</time>
<name>1880</name>
<sym>Dot</sym>
</trkpt>
<trkpt lat="48.888953" lon="20.089902">
<ele>1849.5</ele>
<desc>Speed 2.2 km/h Distance 3.64 km</desc>
<time>2013-07-23T13:48:11.23</time>
<name>1881</name>
<sym>Dot</sym>
</trkpt>
<trkpt lat="48.888957" lon="20.089887">
<ele>1849.5</ele>
<desc>Speed 4.0 km/h Distance 3.64 km</desc>
<time>2013-07-23T13:48:12.23</time>
<name>1882</name>
<sym>Dot</sym>
</trkpt>
<trkpt lat="48.888962" lon="20.089873">
<ele>1850.0</ele>
<desc>Speed 3.9 km/h Distance 3.64 km</desc>
<time>2013-07-23T13:48:13.22</time>
<name>1883</name>
<sym>Dot</sym>
</trkpt>
<trkpt lat="48.888972" lon="20.089865">
<ele>1851.0</ele>
<desc>Speed 3.2 km/h Distance 3.65 km</desc>
<time>2013-07-23T13:48:15.22</time>
<name>1884</name>
<sym>Dot</sym>
</trkpt>
<trkpt lat="48.888982" lon="20.089855">
<ele>1852.0</ele>
<desc>Speed 4.1 km/h Distance 3.65 km</desc>
<time>2013-07-23T13:48:16.22</time>
<name>1885</name>
<sym>Dot</sym>
</trkpt>
<trkpt lat="48.888985" lon="20.089847">
<ele>1852.0</ele>
<desc>Speed 2.2 km/h Distance 3.65 km</desc>
<time>2013-07-23T13:48:17.21</time>
<name>1886</name>
<sym>Dot</sym>
</trkpt>
<trkpt lat="48.889005" lon="20.089840">
<ele>1852.0</ele>
<desc>Speed 6.8 km/h Distance 3.65 km</desc>
<time>2013-07-23T13:48:18.21</time>
<name>1887</name>
<sym>Dot</sym>
</trkpt>
<trkpt lat="48.889005" lon="20.089820">
<ele>1851.5</ele>
<desc>Speed 5.9 km/h Distance 3.65 km</desc>
<time>2013-07-23T13:48:19.21</time>
<name>1888</name>
<sym>Dot</sym>
</trkpt>
<trkpt lat="48.889008" lon="20.089808">
<ele>1851.0</ele>
<desc>Speed 2.6 km/h Distance 3.65 km</desc>
<time>2013-07-23T13:48:20.21</time>
<name>1889</name>
<sym>Dot</sym>
</trkpt>
<trkpt lat="48.889010" lon="20.089798">
<ele>1851.5</ele>
<desc>Speed 3.1 km/h Distance 3.65 km</desc>
<time>2013-07-23T13:48:21.20</time>
<name>1890</name>
<sym>Dot</sym>
</trkpt>
<trkpt lat="48.889012" lon="20.089780">
<ele>1851.5</ele>
<desc>Speed 4.8 km/h Distance 3.65 km</desc>
<time>2013-07-23T13:48:22.20</time>
<name>1891</name>
<sym>Dot</sym>
</trkpt>
<trkpt lat="48.889013" lon="20.089763">
<ele>1851.5</ele>
<desc>Speed 4.6 km/h Distance 3.66 km</desc>
<time>2013-07-23T13:48:23.19</time>
<name>1892</name>
<sym>Dot</sym>
</trkpt>
<trkpt lat="48.889010" lon="20.089755">
<ele>1851.5</ele>
<desc>Speed 2.8 km/h Distance 3.66 km</desc>
<time>2013-07-23T13:48:24.18</time>
<name>1893</name>
<sym>Dot</sym>
</trkpt>
<trkpt lat="48.889012" lon="20.089740">
<ele>1851.5</ele>
<desc>Speed 4.1 km/h Distance 3.66 km</desc>
<time>2013-07-23T13:48:25.18</time>
<name>1894</name>
<sym>Dot</sym>
</trkpt>
<trkpt lat="48.889012" lon="20.089723">
<ele>1851.5</ele>
<desc>Speed 4.4 km/h Distance 3.66 km</desc>
<time>2013-07-23T13:48:26.28</time>
<name>1895</name>
<sym>Dot</sym>
</trkpt>
<trkpt lat="48.889013" lon="20.089707">
<ele>1851.5</ele>
<desc>Speed 4.6 km/h Distance 3.66 km</desc>
<time>2013-07-23T13:48:27.17</time>
<name>1896</name>
<sym>Dot</sym>
</trkpt>
<trkpt lat="48.889013" lon="20.089697">
<ele>1852.0</ele>
<desc>Speed 2.6 km/h Distance 3.66 km</desc>
<time>2013-07-23T13:48:28.45</time>
<name>1897</name>
<sym>Dot</sym>
</trkpt>
<trkpt lat="48.889017" lon="20.089683">
<ele>1852.0</ele>
<desc>Speed 3.7 km/h Distance 3.66 km</desc>
<time>2013-07-23T13:48:29.16</time>
<name>1898</name>
<sym>Dot</sym>
</trkpt>
<trkpt lat="48.889017" lon="20.089670">
<ele>1852.5</ele>
<desc>Speed 3.7 km/h Distance 3.66 km</desc>
<time>2013-07-23T13:48:30.16</time>
<name>1899</name>
<sym>Dot</sym>
</trkpt>
<trkpt lat="48.889017" lon="20.089658">
<ele>1852.5</ele>
<desc>Speed 3.3 km/h Distance 3.66 km</desc>
<time>2013-07-23T13:48:31.18</time>
<name>1900</name>
<sym>Dot</sym>
</trkpt>
<trkpt lat="48.889017" lon="20.089648">
<ele>1852.5</ele>
<desc>Speed 2.6 km/h Distance 3.66 km</desc>
<time>2013-07-23T13:48:32.15</time>
<name>1901</name>
<sym>Dot</sym>
</trkpt>
<trkpt lat="48.889017" lon="20.089637">
<ele>1852.5</ele>
<desc>Speed 3.2 km/h Distance 3.67 km</desc>
<time>2013-07-23T13:48:33.14</time>
<name>1902</name>
<sym>Dot</sym>
</trkpt>
<trkpt lat="48.889017" lon="20.089628">
<ele>1853.0</ele>
<desc>Speed 2.4 km/h Distance 3.67 km</desc>
<time>2013-07-23T13:48:34.14</time>
<name>1903</name>
<sym>Dot</sym>
</trkpt>
<trkpt lat="48.889018" lon="20.089620">
<ele>1853.0</ele>
<desc>Speed 2.9 km/h Distance 3.67 km</desc>
<time>2013-07-23T13:48:35.13</time>
<name>1904</name>
<sym>Dot</sym>
</trkpt>
<trkpt lat="48.889035" lon="20.089605">
<ele>1854.0</ele>
<desc>Speed 3.6 km/h Distance 3.67 km</desc>
<time>2013-07-23T13:48:47.13</time>
<name>1905</name>
<sym>Dot</sym>
</trkpt>
<trkpt lat="48.889037" lon="20.089595">
<ele>1854.0</ele>
<desc>Speed 2.7 km/h Distance 3.67 km</desc>
<time>2013-07-23T13:48:48.12</time>
<name>1906</name>
<sym>Dot</sym>
</trkpt>
<trkpt lat="48.889035" lon="20.089578">
<ele>1854.0</ele>
<desc>Speed 3.1 km/h Distance 3.67 km</desc>
<time>2013-07-23T13:48:50.11</time>
<name>1907</name>
<sym>Dot</sym>
</trkpt>
<trkpt lat="48.889035" lon="20.089565">
<ele>1854.0</ele>
<desc>Speed 3.5 km/h Distance 3.67 km</desc>
<time>2013-07-23T13:48:51.10</time>
<name>1908</name>
<sym>Dot</sym>
</trkpt>
<trkpt lat="48.889038" lon="20.089553">
<ele>1854.5</ele>
<desc>Speed 3.3 km/h Distance 3.67 km</desc>
<time>2013-07-23T13:48:52.10</time>
<name>1909</name>
<sym>Dot</sym>
</trkpt>
<trkpt lat="48.889038" lon="20.089545">
<ele>1854.5</ele>
<desc>Speed 2.4 km/h Distance 3.67 km</desc>
<time>2013-07-23T13:48:53.10</time>
<name>1910</name>
<sym>Dot</sym>
</trkpt>
<trkpt lat="48.889037" lon="20.089533">
<ele>1854.5</ele>
<desc>Speed 3.1 km/h Distance 3.67 km</desc>
<time>2013-07-23T13:48:54.10</time>
<name>1911</name>
<sym>Dot</sym>
</trkpt>
<trkpt lat="48.889040" lon="20.089518">
<ele>1854.5</ele>
<desc>Speed 4.2 km/h Distance 3.68 km</desc>
<time>2013-07-23T13:48:55.11</time>
<name>1912</name>
<sym>Dot</sym>
</trkpt>
<trkpt lat="48.889042" lon="20.089503">
<ele>1855.0</ele>
<desc>Speed 4.0 km/h Distance 3.68 km</desc>
<time>2013-07-23T13:48:56.11</time>
<name>1913</name>
<sym>Dot</sym>
</trkpt>
<trkpt lat="48.889043" lon="20.089482">
<ele>1855.5</ele>
<desc>Speed 3.9 km/h Distance 3.68 km</desc>
<time>2013-07-23T13:48:58.11</time>
<name>1914</name>
<sym>Dot</sym>
</trkpt>
<trkpt lat="48.889047" lon="20.089468">
<ele>1856.0</ele>
<desc>Speed 3.3 km/h Distance 3.68 km</desc>
<time>2013-07-23T13:48:59.10</time>
<name>1915</name>
<sym>Dot</sym>
</trkpt>
<trkpt lat="48.889052" lon="20.089457">
<ele>1856.5</ele>
<desc>Speed 3.7 km/h Distance 3.68 km</desc>
<time>2013-07-23T13:49:00.10</time>
<name>1916</name>
<sym>Dot</sym>
</trkpt>
<trkpt lat="48.889053" lon="20.089445">
<ele>1856.5</ele>
<desc>Speed 2.9 km/h Distance 3.68 km</desc>
<time>2013-07-23T13:49:01.09</time>
<name>1917</name>
<sym>Dot</sym>
</trkpt>
<trkpt lat="48.889052" lon="20.089430">
<ele>1856.0</ele>
<desc>Speed 3.6 km/h Distance 3.68 km</desc>
<time>2013-07-23T13:49:02.08</time>
<name>1918</name>
<sym>Dot</sym>
</trkpt>
<trkpt lat="48.889053" lon="20.089417">
<ele>1856.0</ele>
<desc>Speed 3.8 km/h Distance 3.68 km</desc>
<time>2013-07-23T13:49:03.08</time>
<name>1919</name>
<sym>Dot</sym>
</trkpt>
<trkpt lat="48.889055" lon="20.089398">
<ele>1856.0</ele>
<desc>Speed 4.6 km/h Distance 3.68 km</desc>
<time>2013-07-23T13:49:04.07</time>
<name>1920</name>
<sym>Dot</sym>
</trkpt>
<trkpt lat="48.889055" lon="20.089388">
<ele>1856.0</ele>
<desc>Speed 2.7 km/h Distance 3.69 km</desc>
<time>2013-07-23T13:49:05.07</time>
<name>1921</name>
<sym>Dot</sym>
</trkpt>
<trkpt lat="48.889055" lon="20.089377">
<ele>1855.5</ele>
<desc>Speed 3.2 km/h Distance 3.69 km</desc>
<time>2013-07-23T13:49:06.06</time>
<name>1922</name>
<sym>Dot</sym>
</trkpt>
<trkpt lat="48.889055" lon="20.089362">
<ele>1855.5</ele>
<desc>Speed 4.0 km/h Distance 3.69 km</desc>
<time>2013-07-23T13:49:07.06</time>
<name>1923</name>
<sym>Dot</sym>
</trkpt>
<trkpt lat="48.889065" lon="20.089355">
<ele>1857.0</ele>
<desc>Speed 4.0 km/h Distance 3.69 km</desc>
<time>2013-07-23T13:49:08.06</time>
<name>1924</name>
<sym>Dot</sym>
</trkpt>
<trkpt lat="48.889062" lon="20.089342">
<ele>1856.0</ele>
<desc>Speed 4.0 km/h Distance 3.69 km</desc>
<time>2013-07-23T13:49:09.06</time>
<name>1925</name>
<sym>Dot</sym>
</trkpt>
<trkpt lat="48.889063" lon="20.089328">
<ele>1856.0</ele>
<desc>Speed 3.1 km/h Distance 3.69 km</desc>
<time>2013-07-23T13:49:10.06</time>
<name>1926</name>
<sym>Dot</sym>
</trkpt>
<trkpt lat="48.889063" lon="20.089317">
<ele>1856.0</ele>
<desc>Speed 3.2 km/h Distance 3.69 km</desc>
<time>2013-07-23T13:49:11.05</time>
<name>1927</name>
<sym>Dot</sym>
</trkpt>
<trkpt lat="48.889062" lon="20.089305">
<ele>1855.5</ele>
<desc>Speed 2.7 km/h Distance 3.69 km</desc>
<time>2013-07-23T13:49:12.05</time>
<name>1928</name>
<sym>Dot</sym>
</trkpt>
<trkpt lat="48.889065" lon="20.089282">
<ele>1855.0</ele>
<desc>Speed 2.9 km/h Distance 3.69 km</desc>
<time>2013-07-23T13:49:14.05</time>
<name>1929</name>
<sym>Dot</sym>
</trkpt>
<trkpt lat="48.889062" lon="20.089272">
<ele>1855.0</ele>
<desc>Speed 2.2 km/h Distance 3.69 km</desc>
<time>2013-07-23T13:49:15.10</time>
<name>1930</name>
<sym>Dot</sym>
</trkpt>
<trkpt lat="48.889062" lon="20.089262">
<ele>1854.5</ele>
<desc>Speed 2.4 km/h Distance 3.70 km</desc>
<time>2013-07-23T13:49:16.03</time>
<name>1931</name>
<sym>Dot</sym>
</trkpt>
<trkpt lat="48.889063" lon="20.089248">
<ele>1855.0</ele>
<desc>Speed 3.4 km/h Distance 3.70 km</desc>
<time>2013-07-23T13:49:17.03</time>
<name>1932</name>
<sym>Dot</sym>
</trkpt>
<trkpt lat="48.889065" lon="20.089240">
<ele>1855.0</ele>
<desc>Speed 2.4 km/h Distance 3.70 km</desc>
<time>2013-07-23T13:49:18.03</time>
<name>1933</name>
<sym>Dot</sym>
</trkpt>
<trkpt lat="48.889067" lon="20.089227">
<ele>1855.5</ele>
<desc>Speed 2.7 km/h Distance 3.70 km</desc>
<time>2013-07-23T13:49:20.03</time>
<name>1934</name>
<sym>Dot</sym>
</trkpt>
<trkpt lat="48.889063" lon="20.089218">
<ele>1855.5</ele>
<desc>Speed 2.2 km/h Distance 3.70 km</desc>
<time>2013-07-23T13:49:23.02</time>
<name>1935</name>
<sym>Dot</sym>
</trkpt>
<trkpt lat="48.889063" lon="20.089210">
<ele>1857.0</ele>
<desc>Speed 2.9 km/h Distance 3.70 km</desc>
<time>2013-07-23T13:49:33.02</time>
<name>1936</name>
<sym>Dot</sym>
</trkpt>
<trkpt lat="48.889068" lon="20.089200">
<ele>1857.0</ele>
<desc>Speed 3.1 km/h Distance 3.70 km</desc>
<time>2013-07-23T13:49:34.02</time>
<name>1937</name>
<sym>Dot</sym>
</trkpt>
<trkpt lat="48.889078" lon="20.089168">
<ele>1857.0</ele>
<desc>Speed 2.6 km/h Distance 3.70 km</desc>
<time>2013-07-23T13:49:37.01</time>
<name>1938</name>
<sym>Dot</sym>
</trkpt>
<trkpt lat="48.889078" lon="20.089158">
<ele>1856.5</ele>
<desc>Speed 3.9 km/h Distance 3.70 km</desc>
<time>2013-07-23T13:49:38.00</time>
<name>1939</name>
<sym>Dot</sym>
</trkpt>
<trkpt lat="48.889078" lon="20.089145">
<ele>1856.5</ele>
<desc>Speed 3.6 km/h Distance 3.70 km</desc>
<time>2013-07-23T13:49:39.11</time>
<name>1940</name>
<sym>Dot</sym>
</trkpt>
<trkpt lat="48.889082" lon="20.089130">
<ele>1856.5</ele>
<desc>Speed 4.4 km/h Distance 3.71 km</desc>
<time>2013-07-23T13:49:39.99</time>
<name>1941</name>
<sym>Dot</sym>
</trkpt>
<trkpt lat="48.889087" lon="20.089117">
<ele>1857.0</ele>
<desc>Speed 4.3 km/h Distance 3.71 km</desc>
<time>2013-07-23T13:49:41.00</time>
<name>1942</name>
<sym>Dot</sym>
</trkpt>
<trkpt lat="48.889088" lon="20.089103">
<ele>1857.0</ele>
<desc>Speed 3.3 km/h Distance 3.71 km</desc>
<time>2013-07-23T13:49:41.98</time>
<name>1943</name>
<sym>Dot</sym>
</trkpt>
<trkpt lat="48.889092" lon="20.089085">
<ele>1857.5</ele>
<desc>Speed 3.6 km/h Distance 3.71 km</desc>
<time>2013-07-23T13:49:43.98</time>
<name>1944</name>
<sym>Dot</sym>
</trkpt>
<trkpt lat="48.889092" lon="20.089073">
<ele>1858.0</ele>
<desc>Speed 3.2 km/h Distance 3.71 km</desc>
<time>2013-07-23T13:49:44.98</time>
<name>1945</name>
<sym>Dot</sym>
</trkpt>
<trkpt lat="48.889093" lon="20.089063">
<ele>1858.5</ele>
<desc>Speed 2.2 km/h Distance 3.71 km</desc>
<time>2013-07-23T13:49:47.17</time>
<name>1946</name>
<sym>Dot</sym>
</trkpt>
<trkpt lat="48.889093" lon="20.089053">
<ele>1859.0</ele>
<desc>Speed 2.4 km/h Distance 3.71 km</desc>
<time>2013-07-23T13:49:47.98</time>
<name>1947</name>
<sym>Dot</sym>
</trkpt>
<trkpt lat="48.889093" lon="20.089038">
<ele>1859.0</ele>
<desc>Speed 3.6 km/h Distance 3.71 km</desc>
<time>2013-07-23T13:49:48.98</time>
<name>1948</name>
<sym>Dot</sym>
</trkpt>
<trkpt lat="48.889097" lon="20.089013">
<ele>1859.5</ele>
<desc>Speed 3.1 km/h Distance 3.71 km</desc>
<time>2013-07-23T13:49:51.97</time>
<name>1949</name>
<sym>Dot</sym>
</trkpt>
<trkpt lat="48.889092" lon="20.089005">
<ele>1859.0</ele>
<desc>Speed 2.5 km/h Distance 3.72 km</desc>
<time>2013-07-23T13:49:52.97</time>
<name>1950</name>
<sym>Dot</sym>
</trkpt>
<trkpt lat="48.889090" lon="20.088990">
<ele>1859.0</ele>
<desc>Speed 3.7 km/h Distance 3.72 km</desc>
<time>2013-07-23T13:49:53.97</time>
<name>1951</name>
<sym>Dot</sym>
</trkpt>
<trkpt lat="48.889090" lon="20.088975">
<ele>1859.0</ele>
<desc>Speed 4.1 km/h Distance 3.72 km</desc>
<time>2013-07-23T13:49:55.09</time>
<name>1952</name>
<sym>Dot</sym>
</trkpt>
<trkpt lat="48.889093" lon="20.088962">
<ele>1859.5</ele>
<desc>Speed 3.9 km/h Distance 3.72 km</desc>
<time>2013-07-23T13:49:55.95</time>
<name>1953</name>
<sym>Dot</sym>
</trkpt>
<trkpt lat="48.889092" lon="20.088947">
<ele>1859.5</ele>
<desc>Speed 3.5 km/h Distance 3.72 km</desc>
<time>2013-07-23T13:49:56.95</time>
<name>1954</name>
<sym>Dot</sym>
</trkpt>
<trkpt lat="48.889088" lon="20.088935">
<ele>1859.0</ele>
<desc>Speed 3.2 km/h Distance 3.72 km</desc>
<time>2013-07-23T13:49:57.95</time>
<name>1955</name>
<sym>Dot</sym>
</trkpt>
<trkpt lat="48.889085" lon="20.088918">
<ele>1859.0</ele>
<desc>Speed 4.2 km/h Distance 3.72 km</desc>
<time>2013-07-23T13:49:59.11</time>
<name>1956</name>
<sym>Dot</sym>
</trkpt>
<trkpt lat="48.889090" lon="20.088905">
<ele>1858.5</ele>
<desc>Speed 2.9 km/h Distance 3.72 km</desc>
<time>2013-07-23T13:50:01.94</time>
<name>1957</name>
<sym>Dot</sym>
</trkpt>
<trkpt lat="48.889088" lon="20.088860">
<ele>1859.5</ele>
<desc>Speed 4.0 km/h Distance 3.73 km</desc>
<time>2013-07-23T13:50:33.94</time>
<name>1958</name>
<sym>Dot</sym>
</trkpt>
<trkpt lat="48.889090" lon="20.088838">
<ele>1861.5</ele>
<desc>Speed 5.0 km/h Distance 3.73 km</desc>
<time>2013-07-23T13:50:36.12</time>
<name>1959</name>
<sym>Dot</sym>
</trkpt>
<trkpt lat="48.889090" lon="20.088823">
<ele>1862.0</ele>
<desc>Speed 3.5 km/h Distance 3.73 km</desc>
<time>2013-07-23T13:50:36.93</time>
<name>1960</name>
<sym>Dot</sym>
</trkpt>
<trkpt lat="48.889090" lon="20.088810">
<ele>1862.0</ele>
<desc>Speed 3.3 km/h Distance 3.73 km</desc>
<time>2013-07-23T13:50:37.92</time>
<name>1961</name>
<sym>Dot</sym>
</trkpt>
<trkpt lat="48.889092" lon="20.088793">
<ele>1862.5</ele>
<desc>Speed 4.3 km/h Distance 3.73 km</desc>
<time>2013-07-23T13:50:38.92</time>
<name>1962</name>
<sym>Dot</sym>
</trkpt>
<trkpt lat="48.889095" lon="20.088778">
<ele>1863.5</ele>
<desc>Speed 4.3 km/h Distance 3.73 km</desc>
<time>2013-07-23T13:50:40.01</time>
<name>1963</name>
<sym>Dot</sym>
</trkpt>
<trkpt lat="48.889093" lon="20.088762">
<ele>1863.5</ele>
<desc>Speed 4.0 km/h Distance 3.73 km</desc>
<time>2013-07-23T13:50:40.91</time>
<name>1964</name>
<sym>Dot</sym>
</trkpt>
<trkpt lat="48.889090" lon="20.088750">
<ele>1863.5</ele>
<desc>Speed 3.9 km/h Distance 3.73 km</desc>
<time>2013-07-23T13:50:41.91</time>
<name>1965</name>
<sym>Dot</sym>
</trkpt>
<trkpt lat="48.889088" lon="20.088735">
<ele>1863.5</ele>
<desc>Speed 3.8 km/h Distance 3.74 km</desc>
<time>2013-07-23T13:50:42.91</time>
<name>1966</name>
<sym>Dot</sym>
</trkpt>
<trkpt lat="48.889087" lon="20.088723">
<ele>1863.5</ele>
<desc>Speed 3.3 km/h Distance 3.74 km</desc>
<time>2013-07-23T13:50:43.91</time>
<name>1967</name>
<sym>Dot</sym>
</trkpt>
<trkpt lat="48.889090" lon="20.088707">
<ele>1863.5</ele>
<desc>Speed 4.6 km/h Distance 3.74 km</desc>
<time>2013-07-23T13:50:44.90</time>
<name>1968</name>
<sym>Dot</sym>
</trkpt>
<trkpt lat="48.889092" lon="20.088690">
<ele>1864.0</ele>
<desc>Speed 4.4 km/h Distance 3.74 km</desc>
<time>2013-07-23T13:50:45.90</time>
<name>1969</name>
<sym>Dot</sym>
</trkpt>
<trkpt lat="48.889085" lon="20.088657">
<ele>1862.0</ele>
<desc>Speed 9.1 km/h Distance 3.74 km</desc>
<time>2013-07-23T13:50:46.90</time>
<name>1970</name>
<sym>Dot</sym>
</trkpt>
<trkpt lat="48.889087" lon="20.088643">
<ele>1861.5</ele>
<desc>Speed 3.9 km/h Distance 3.74 km</desc>
<time>2013-07-23T13:50:47.90</time>
<name>1971</name>
<sym>Dot</sym>
</trkpt>
<trkpt lat="48.889087" lon="20.088627">
<ele>1861.5</ele>
<desc>Speed 5.0 km/h Distance 3.74 km</desc>
<time>2013-07-23T13:50:48.90</time>
<name>1972</name>
<sym>Dot</sym>
</trkpt>
<trkpt lat="48.889087" lon="20.088612">
<ele>1861.5</ele>
<desc>Speed 5.1 km/h Distance 3.75 km</desc>
<time>2013-07-23T13:50:49.89</time>
<name>1973</name>
<sym>Dot</sym>
</trkpt>
<trkpt lat="48.889088" lon="20.088595">
<ele>1861.5</ele>
<desc>Speed 4.7 km/h Distance 3.75 km</desc>
<time>2013-07-23T13:50:50.89</time>
<name>1974</name>
<sym>Dot</sym>
</trkpt>
<trkpt lat="48.889088" lon="20.088583">
<ele>1861.5</ele>
<desc>Speed 3.0 km/h Distance 3.75 km</desc>
<time>2013-07-23T13:50:51.88</time>
<name>1975</name>
<sym>Dot</sym>
</trkpt>
<trkpt lat="48.889090" lon="20.088570">
<ele>1861.0</ele>
<desc>Speed 4.0 km/h Distance 3.75 km</desc>
<time>2013-07-23T13:50:52.87</time>
<name>1976</name>
<sym>Dot</sym>
</trkpt>
<trkpt lat="48.889093" lon="20.088563">
<ele>1861.5</ele>
<desc>Speed 2.3 km/h Distance 3.75 km</desc>
<time>2013-07-23T13:50:53.87</time>
<name>1977</name>
<sym>Dot</sym>
</trkpt>
<trkpt lat="48.889090" lon="20.088555">
<ele>1861.5</ele>
<desc>Speed 2.9 km/h Distance 3.75 km</desc>
<time>2013-07-23T13:50:54.87</time>
<name>1978</name>
<sym>Dot</sym>
</trkpt>
<trkpt lat="48.889090" lon="20.088542">
<ele>1862.0</ele>
<desc>Speed 4.3 km/h Distance 3.75 km</desc>
<time>2013-07-23T13:50:55.92</time>
<name>1979</name>
<sym>Dot</sym>
</trkpt>
<trkpt lat="48.889090" lon="20.088528">
<ele>1862.0</ele>
<desc>Speed 4.5 km/h Distance 3.75 km</desc>
<time>2013-07-23T13:50:56.86</time>
<name>1980</name>
<sym>Dot</sym>
</trkpt>
<trkpt lat="48.889090" lon="20.088517">
<ele>1862.0</ele>
<desc>Speed 4.0 km/h Distance 3.75 km</desc>
<time>2013-07-23T13:50:57.85</time>
<name>1981</name>
<sym>Dot</sym>
</trkpt>
<trkpt lat="48.889088" lon="20.088513">
<ele>1862.0</ele>
<desc>Speed 2.4 km/h Distance 3.75 km</desc>
<time>2013-07-23T13:50:58.84</time>
<name>1982</name>
<sym>Dot</sym>
</trkpt>
<trkpt lat="48.889087" lon="20.088507">
<ele>1862.5</ele>
<desc>Speed 3.1 km/h Distance 3.75 km</desc>
<time>2013-07-23T13:50:59.84</time>
<name>1983</name>
<sym>Dot</sym>
</trkpt>
<trkpt lat="48.889087" lon="20.088497">
<ele>1863.5</ele>
<desc>Speed 3.3 km/h Distance 3.75 km</desc>
<time>2013-07-23T13:51:00.84</time>
<name>1984</name>
<sym>Dot</sym>
</trkpt>
<trkpt lat="48.889083" lon="20.088485">
<ele>1863.5</ele>
<desc>Speed 3.6 km/h Distance 3.75 km</desc>
<time>2013-07-23T13:51:01.83</time>
<name>1985</name>
<sym>Dot</sym>
</trkpt>
<trkpt lat="48.889083" lon="20.088480">
<ele>1863.5</ele>
<desc>Speed 2.2 km/h Distance 3.76 km</desc>
<time>2013-07-23T13:51:02.83</time>
<name>1986</name>
<sym>Dot</sym>
</trkpt>
<trkpt lat="48.889087" lon="20.088463">
<ele>1863.5</ele>
<desc>Speed 4.4 km/h Distance 3.76 km</desc>
<time>2013-07-23T13:51:03.83</time>
<name>1987</name>
<sym>Dot</sym>
</trkpt>
<trkpt lat="48.889087" lon="20.088452">
<ele>1863.5</ele>
<desc>Speed 3.4 km/h Distance 3.76 km</desc>
<time>2013-07-23T13:51:04.83</time>
<name>1988</name>
<sym>Dot</sym>
</trkpt>
<trkpt lat="48.889090" lon="20.088443">
<ele>1863.5</ele>
<desc>Speed 3.0 km/h Distance 3.76 km</desc>
<time>2013-07-23T13:51:05.82</time>
<name>1989</name>
<sym>Dot</sym>
</trkpt>
<trkpt lat="48.889090" lon="20.088433">
<ele>1863.5</ele>
<desc>Speed 2.6 km/h Distance 3.76 km</desc>
<time>2013-07-23T13:51:06.82</time>
<name>1990</name>
<sym>Dot</sym>
</trkpt>
<trkpt lat="48.889092" lon="20.088423">
<ele>1864.0</ele>
<desc>Speed 3.3 km/h Distance 3.76 km</desc>
<time>2013-07-23T13:51:07.92</time>
<name>1991</name>
<sym>Dot</sym>
</trkpt>
<trkpt lat="48.889093" lon="20.088408">
<ele>1864.5</ele>
<desc>Speed 4.5 km/h Distance 3.76 km</desc>
<time>2013-07-23T13:51:08.81</time>
<name>1992</name>
<sym>Dot</sym>
</trkpt>
<trkpt lat="48.889095" lon="20.088397">
<ele>1864.5</ele>
<desc>Speed 3.9 km/h Distance 3.76 km</desc>
<time>2013-07-23T13:51:09.81</time>
<name>1993</name>
<sym>Dot</sym>
</trkpt>
<trkpt lat="48.889095" lon="20.088390">
<ele>1864.5</ele>
<desc>Speed 2.5 km/h Distance 3.76 km</desc>
<time>2013-07-23T13:51:10.81</time>
<name>1994</name>
<sym>Dot</sym>
</trkpt>
<trkpt lat="48.889102" lon="20.088380">
<ele>1865.0</ele>
<desc>Speed 3.2 km/h Distance 3.76 km</desc>
<time>2013-07-23T13:51:11.81</time>
<name>1995</name>
<sym>Dot</sym>
</trkpt>
<trkpt lat="48.889105" lon="20.088355">
<ele>1865.0</ele>
<desc>Speed 6.9 km/h Distance 3.77 km</desc>
<time>2013-07-23T13:51:12.81</time>
<name>1996</name>
<sym>Dot</sym>
</trkpt>
<trkpt lat="48.889107" lon="20.088345">
<ele>1865.0</ele>
<desc>Speed 3.6 km/h Distance 3.77 km</desc>
<time>2013-07-23T13:51:13.80</time>
<name>1997</name>
<sym>Dot</sym>
</trkpt>
<trkpt lat="48.889128" lon="20.088352">
<ele>1868.0</ele>
<desc>Speed 2.7 km/h Distance 3.77 km</desc>
<time>2013-07-23T13:51:33.80</time>
<name>1998</name>
<sym>Dot</sym>
</trkpt>
<trkpt lat="48.889130" lon="20.088340">
<ele>1868.0</ele>
<desc>Speed 3.1 km/h Distance 3.77 km</desc>
<time>2013-07-23T13:51:34.79</time>
<name>1999</name>
<sym>Dot</sym>
</trkpt>
<trkpt lat="48.889132" lon="20.088332">
<ele>1868.5</ele>
<desc>Speed 2.4 km/h Distance 3.77 km</desc>
<time>2013-07-23T13:51:35.79</time>
<name>2000</name>
<sym>Dot</sym>
</trkpt>
<trkpt lat="48.889133" lon="20.088317">
<ele>1868.5</ele>
<desc>Speed 4.0 km/h Distance 3.77 km</desc>
<time>2013-07-23T13:51:36.78</time>
<name>2001</name>
<sym>Dot</sym>
</trkpt>
<trkpt lat="48.889137" lon="20.088293">
<ele>1868.5</ele>
<desc>Speed 6.0 km/h Distance 3.77 km</desc>
<time>2013-07-23T13:51:37.82</time>
<name>2002</name>
<sym>Dot</sym>
</trkpt>
<trkpt lat="48.889137" lon="20.088278">
<ele>1868.5</ele>
<desc>Speed 4.0 km/h Distance 3.77 km</desc>
<time>2013-07-23T13:51:38.77</time>
<name>2003</name>
<sym>Dot</sym>
</trkpt>
<trkpt lat="48.889137" lon="20.088265">
<ele>1868.5</ele>
<desc>Speed 3.8 km/h Distance 3.77 km</desc>
<time>2013-07-23T13:51:39.76</time>
<name>2004</name>
<sym>Dot</sym>
</trkpt>
<trkpt lat="48.889135" lon="20.088252">
<ele>1868.5</ele>
<desc>Speed 4.2 km/h Distance 3.78 km</desc>
<time>2013-07-23T13:51:40.75</time>
<name>2005</name>
<sym>Dot</sym>
</trkpt>
<trkpt lat="48.889135" lon="20.088237">
<ele>1869.0</ele>
<desc>Speed 4.2 km/h Distance 3.78 km</desc>
<time>2013-07-23T13:51:41.81</time>
<name>2006</name>
<sym>Dot</sym>
</trkpt>
<trkpt lat="48.889138" lon="20.088222">
<ele>1871.5</ele>
<desc>Speed 3.5 km/h Distance 3.78 km</desc>
<time>2013-07-23T13:51:43.75</time>
<name>2007</name>
<sym>Dot</sym>
</trkpt>
<trkpt lat="48.889140" lon="20.088213">
<ele>1872.0</ele>
<desc>Speed 2.4 km/h Distance 3.78 km</desc>
<time>2013-07-23T13:51:44.75</time>
<name>2008</name>
<sym>Dot</sym>
</trkpt>
<trkpt lat="48.889140" lon="20.088200">
<ele>1872.0</ele>
<desc>Speed 4.3 km/h Distance 3.78 km</desc>
<time>2013-07-23T13:51:45.75</time>
<name>2009</name>
<sym>Dot</sym>
</trkpt>
<trkpt lat="48.889138" lon="20.088185">
<ele>1872.5</ele>
<desc>Speed 4.4 km/h Distance 3.78 km</desc>
<time>2013-07-23T13:51:46.74</time>
<name>2010</name>
<sym>Dot</sym>
</trkpt>
<trkpt lat="48.889142" lon="20.088177">
<ele>1872.5</ele>
<desc>Speed 3.2 km/h Distance 3.78 km</desc>
<time>2013-07-23T13:51:47.74</time>
<name>2011</name>
<sym>Dot</sym>
</trkpt>
<trkpt lat="48.889138" lon="20.088165">
<ele>1872.5</ele>
<desc>Speed 3.8 km/h Distance 3.78 km</desc>
<time>2013-07-23T13:51:48.73</time>
<name>2012</name>
<sym>Dot</sym>
</trkpt>
<trkpt lat="48.889138" lon="20.088153">
<ele>1873.0</ele>
<desc>Speed 3.9 km/h Distance 3.78 km</desc>
<time>2013-07-23T13:51:49.73</time>
<name>2013</name>
<sym>Dot</sym>
</trkpt>
<trkpt lat="48.889140" lon="20.088140">
<ele>1873.0</ele>
<desc>Speed 4.1 km/h Distance 3.78 km</desc>
<time>2013-07-23T13:51:50.82</time>
<name>2014</name>
<sym>Dot</sym>
</trkpt>
<trkpt lat="48.889142" lon="20.088123">
<ele>1873.5</ele>
<desc>Speed 4.3 km/h Distance 3.79 km</desc>
<time>2013-07-23T13:51:51.72</time>
<name>2015</name>
<sym>Dot</sym>
</trkpt>
<trkpt lat="48.889142" lon="20.088112">
<ele>1873.5</ele>
<desc>Speed 3.1 km/h Distance 3.79 km</desc>
<time>2013-07-23T13:51:52.71</time>
<name>2016</name>
<sym>Dot</sym>
</trkpt>
<trkpt lat="48.889140" lon="20.088098">
<ele>1873.5</ele>
<desc>Speed 3.9 km/h Distance 3.79 km</desc>
<time>2013-07-23T13:51:53.70</time>
<name>2017</name>
<sym>Dot</sym>
</trkpt>
<trkpt lat="48.889145" lon="20.088088">
<ele>1873.0</ele>
<desc>Speed 3.3 km/h Distance 3.79 km</desc>
<time>2013-07-23T13:51:55.70</time>
<name>2018</name>
<sym>Dot</sym>
</trkpt>
<trkpt lat="48.889148" lon="20.088075">
<ele>1873.0</ele>
<desc>Speed 3.6 km/h Distance 3.79 km</desc>
<time>2013-07-23T13:51:56.70</time>
<name>2019</name>
<sym>Dot</sym>
</trkpt>
<trkpt lat="48.889148" lon="20.088057">
<ele>1873.0</ele>
<desc>Speed 4.9 km/h Distance 3.79 km</desc>
<time>2013-07-23T13:51:57.70</time>
<name>2020</name>
<sym>Dot</sym>
</trkpt>
<trkpt lat="48.889148" lon="20.088045">
<ele>1873.0</ele>
<desc>Speed 3.5 km/h Distance 3.79 km</desc>
<time>2013-07-23T13:51:58.70</time>
<name>2021</name>
<sym>Dot</sym>
</trkpt>
<trkpt lat="48.889158" lon="20.088045">
<ele>1873.5</ele>
<desc>Speed 2.9 km/h Distance 3.79 km</desc>
<time>2013-07-23T13:52:21.70</time>
<name>2022</name>
<sym>Dot</sym>
</trkpt>
<trkpt lat="48.889160" lon="20.088030">
<ele>1873.0</ele>
<desc>Speed 3.5 km/h Distance 3.79 km</desc>
<time>2013-07-23T13:52:23.69</time>
<name>2023</name>
<sym>Dot</sym>
</trkpt>
<trkpt lat="48.889163" lon="20.088022">
<ele>1873.0</ele>
<desc>Speed 2.4 km/h Distance 3.79 km</desc>
<time>2013-07-23T13:52:24.68</time>
<name>2024</name>
<sym>Dot</sym>
</trkpt>
<trkpt lat="48.889165" lon="20.088008">
<ele>1873.0</ele>
<desc>Speed 2.3 km/h Distance 3.80 km</desc>
<time>2013-07-23T13:52:26.68</time>
<name>2025</name>
<sym>Dot</sym>
</trkpt>
<trkpt lat="48.889168" lon="20.087995">
<ele>1873.0</ele>
<desc>Speed 3.9 km/h Distance 3.80 km</desc>
<time>2013-07-23T13:52:27.68</time>
<name>2026</name>
<sym>Dot</sym>
</trkpt>
<trkpt lat="48.889170" lon="20.087982">
<ele>1873.0</ele>
<desc>Speed 3.7 km/h Distance 3.80 km</desc>
<time>2013-07-23T13:52:28.67</time>
<name>2027</name>
<sym>Dot</sym>
</trkpt>
<trkpt lat="48.889172" lon="20.087973">
<ele>1873.0</ele>
<desc>Speed 2.3 km/h Distance 3.80 km</desc>
<time>2013-07-23T13:52:29.66</time>
<name>2028</name>
<sym>Dot</sym>
</trkpt>
<trkpt lat="48.889173" lon="20.087960">
<ele>1873.0</ele>
<desc>Speed 3.7 km/h Distance 3.80 km</desc>
<time>2013-07-23T13:52:30.65</time>
<name>2029</name>
<sym>Dot</sym>
</trkpt>
<trkpt lat="48.889172" lon="20.087948">
<ele>1873.0</ele>
<desc>Speed 3.3 km/h Distance 3.80 km</desc>
<time>2013-07-23T13:52:31.65</time>
<name>2030</name>
<sym>Dot</sym>
</trkpt>
<trkpt lat="48.889173" lon="20.087927">
<ele>1873.0</ele>
<desc>Speed 4.0 km/h Distance 3.80 km</desc>
<time>2013-07-23T13:52:33.73</time>
<name>2031</name>
<sym>Dot</sym>
</trkpt>
<trkpt lat="48.889175" lon="20.087915">
<ele>1873.0</ele>
<desc>Speed 3.1 km/h Distance 3.80 km</desc>
<time>2013-07-23T13:52:34.64</time>
<name>2032</name>
<sym>Dot</sym>
</trkpt>
<trkpt lat="48.889175" lon="20.087902">
<ele>1872.5</ele>
<desc>Speed 3.2 km/h Distance 3.80 km</desc>
<time>2013-07-23T13:52:36.64</time>
<name>2033</name>
<sym>Dot</sym>
</trkpt>
<trkpt lat="48.889183" lon="20.087895">
<ele>1873.5</ele>
<desc>Speed 3.1 km/h Distance 3.80 km</desc>
<time>2013-07-23T13:52:37.64</time>
<name>2034</name>
<sym>Dot</sym>
</trkpt>
<trkpt lat="48.889188" lon="20.087887">
<ele>1873.5</ele>
<desc>Speed 2.6 km/h Distance 3.81 km</desc>
<time>2013-07-23T13:52:38.63</time>
<name>2035</name>
<sym>Dot</sym>
</trkpt>
<trkpt lat="48.889188" lon="20.087868">
<ele>1873.5</ele>
<desc>Speed 5.2 km/h Distance 3.81 km</desc>
<time>2013-07-23T13:52:39.74</time>
<name>2036</name>
<sym>Dot</sym>
</trkpt>
<trkpt lat="48.889185" lon="20.087853">
<ele>1873.5</ele>
<desc>Speed 4.4 km/h Distance 3.81 km</desc>
<time>2013-07-23T13:52:40.63</time>
<name>2037</name>
<sym>Dot</sym>
</trkpt>
<trkpt lat="48.889188" lon="20.087840">
<ele>1873.5</ele>
<desc>Speed 2.7 km/h Distance 3.81 km</desc>
<time>2013-07-23T13:52:42.62</time>
<name>2038</name>
<sym>Dot</sym>
</trkpt>
<trkpt lat="48.889192" lon="20.087830">
<ele>1874.0</ele>
<desc>Speed 3.2 km/h Distance 3.81 km</desc>
<time>2013-07-23T13:52:43.62</time>
<name>2039</name>
<sym>Dot</sym>
</trkpt>
<trkpt lat="48.889193" lon="20.087820">
<ele>1874.5</ele>
<desc>Speed 3.3 km/h Distance 3.81 km</desc>
<time>2013-07-23T13:52:44.62</time>
<name>2040</name>
<sym>Dot</sym>
</trkpt>
<trkpt lat="48.889192" lon="20.087815">
<ele>1874.5</ele>
<desc>Speed 2.3 km/h Distance 3.81 km</desc>
<time>2013-07-23T13:52:45.62</time>
<name>2041</name>
<sym>Dot</sym>
</trkpt>
<trkpt lat="48.889190" lon="20.087803">
<ele>1875.0</ele>
<desc>Speed 3.2 km/h Distance 3.81 km</desc>
<time>2013-07-23T13:52:46.62</time>
<name>2042</name>
<sym>Dot</sym>
</trkpt>
<trkpt lat="48.889193" lon="20.087793">
<ele>1875.5</ele>
<desc>Speed 3.3 km/h Distance 3.81 km</desc>
<time>2013-07-23T13:52:47.62</time>
<name>2043</name>
<sym>Dot</sym>
</trkpt>
<trkpt lat="48.889198" lon="20.087785">
<ele>1876.5</ele>
<desc>Speed 3.2 km/h Distance 3.81 km</desc>
<time>2013-07-23T13:52:48.61</time>
<name>2044</name>
<sym>Dot</sym>
</trkpt>
<trkpt lat="48.889195" lon="20.087778">
<ele>1877.0</ele>
<desc>Speed 2.6 km/h Distance 3.81 km</desc>
<time>2013-07-23T13:52:49.61</time>
<name>2045</name>
<sym>Dot</sym>
</trkpt>
<trkpt lat="48.889197" lon="20.087768">
<ele>1877.5</ele>
<desc>Speed 2.6 km/h Distance 3.81 km</desc>
<time>2013-07-23T13:52:50.61</time>
<name>2046</name>
<sym>Dot</sym>
</trkpt>
<trkpt lat="48.889202" lon="20.087758">
<ele>1878.0</ele>
<desc>Speed 2.2 km/h Distance 3.82 km</desc>
<time>2013-07-23T13:53:04.60</time>
<name>2047</name>
<sym>Dot</sym>
</trkpt>
<trkpt lat="48.889200" lon="20.087757">
<ele>1878.5</ele>
<desc>Speed 2.4 km/h Distance 3.82 km</desc>
<time>2013-07-23T13:53:28.59</time>
<name>2048</name>
<sym>Dot</sym>
</trkpt>
<trkpt lat="48.889202" lon="20.087743">
<ele>1879.0</ele>
<desc>Speed 3.1 km/h Distance 3.82 km</desc>
<time>2013-07-23T13:53:34.58</time>
<name>2049</name>
<sym>Dot</sym>
</trkpt>
<trkpt lat="48.889200" lon="20.087732">
<ele>1879.0</ele>
<desc>Speed 3.6 km/h Distance 3.82 km</desc>
<time>2013-07-23T13:53:35.58</time>
<name>2050</name>
<sym>Dot</sym>
</trkpt>
<trkpt lat="48.889200" lon="20.087718">
<ele>1878.5</ele>
<desc>Speed 3.6 km/h Distance 3.82 km</desc>
<time>2013-07-23T13:53:36.57</time>
<name>2051</name>
<sym>Dot</sym>
</trkpt>
<trkpt lat="48.889200" lon="20.087705">
<ele>1878.5</ele>
<desc>Speed 3.9 km/h Distance 3.82 km</desc>
<time>2013-07-23T13:53:37.57</time>
<name>2052</name>
<sym>Dot</sym>
</trkpt>
<trkpt lat="48.889200" lon="20.087690">
<ele>1878.5</ele>
<desc>Speed 4.9 km/h Distance 3.82 km</desc>
<time>2013-07-23T13:53:38.56</time>
<name>2053</name>
<sym>Dot</sym>
</trkpt>
<trkpt lat="48.889197" lon="20.087675">
<ele>1878.5</ele>
<desc>Speed 4.5 km/h Distance 3.82 km</desc>
<time>2013-07-23T13:53:39.56</time>
<name>2054</name>
<sym>Dot</sym>
</trkpt>
<trkpt lat="48.889198" lon="20.087658">
<ele>1878.5</ele>
<desc>Speed 4.5 km/h Distance 3.82 km</desc>
<time>2013-07-23T13:53:40.55</time>
<name>2055</name>
<sym>Dot</sym>
</trkpt>
<trkpt lat="48.889198" lon="20.087648">
<ele>1878.5</ele>
<desc>Speed 3.0 km/h Distance 3.82 km</desc>
<time>2013-07-23T13:53:41.55</time>
<name>2056</name>
<sym>Dot</sym>
</trkpt>
<trkpt lat="48.889200" lon="20.087640">
<ele>1878.5</ele>
<desc>Speed 2.5 km/h Distance 3.82 km</desc>
<time>2013-07-23T13:53:42.55</time>
<name>2057</name>
<sym>Dot</sym>
</trkpt>
<trkpt lat="48.889202" lon="20.087628">
<ele>1878.5</ele>
<desc>Speed 3.6 km/h Distance 3.83 km</desc>
<time>2013-07-23T13:53:43.55</time>
<name>2058</name>
<sym>Dot</sym>
</trkpt>
<trkpt lat="48.889205" lon="20.087613">
<ele>1878.5</ele>
<desc>Speed 4.1 km/h Distance 3.83 km</desc>
<time>2013-07-23T13:53:44.53</time>
<name>2059</name>
<sym>Dot</sym>
</trkpt>
<trkpt lat="48.889208" lon="20.087607">
<ele>1878.5</ele>
<desc>Speed 2.6 km/h Distance 3.83 km</desc>
<time>2013-07-23T13:53:45.53</time>
<name>2060</name>
<sym>Dot</sym>
</trkpt>
<trkpt lat="48.889208" lon="20.087597">
<ele>1878.5</ele>
<desc>Speed 3.4 km/h Distance 3.83 km</desc>
<time>2013-07-23T13:53:46.53</time>
<name>2061</name>
<sym>Dot</sym>
</trkpt>
<trkpt lat="48.889210" lon="20.087585">
<ele>1878.5</ele>
<desc>Speed 3.7 km/h Distance 3.83 km</desc>
<time>2013-07-23T13:53:47.52</time>
<name>2062</name>
<sym>Dot</sym>
</trkpt>
<trkpt lat="48.889213" lon="20.087580">
<ele>1878.5</ele>
<desc>Speed 2.6 km/h Distance 3.83 km</desc>
<time>2013-07-23T13:53:48.52</time>
<name>2063</name>
<sym>Dot</sym>
</trkpt>
<trkpt lat="48.889215" lon="20.087572">
<ele>1880.0</ele>
<desc>Speed 3.2 km/h Distance 3.83 km</desc>
<time>2013-07-23T13:53:50.51</time>
<name>2064</name>
<sym>Dot</sym>
</trkpt>
<trkpt lat="48.889213" lon="20.087558">
<ele>1880.5</ele>
<desc>Speed 4.5 km/h Distance 3.83 km</desc>
<time>2013-07-23T13:53:51.53</time>
<name>2065</name>
<sym>Dot</sym>
</trkpt>
<trkpt lat="48.889210" lon="20.087543">
<ele>1880.5</ele>
<desc>Speed 4.3 km/h Distance 3.83 km</desc>
<time>2013-07-23T13:53:52.50</time>
<name>2066</name>
<sym>Dot</sym>
</trkpt>
<trkpt lat="48.889205" lon="20.087533">
<ele>1881.0</ele>
<desc>Speed 3.4 km/h Distance 3.83 km</desc>
<time>2013-07-23T13:53:53.50</time>
<name>2067</name>
<sym>Dot</sym>
</trkpt>
<trkpt lat="48.889205" lon="20.087527">
<ele>1881.0</ele>
<desc>Speed 2.4 km/h Distance 3.83 km</desc>
<time>2013-07-23T13:53:54.50</time>
<name>2068</name>
<sym>Dot</sym>
</trkpt>
<trkpt lat="48.889205" lon="20.087518">
<ele>1881.5</ele>
<desc>Speed 2.8 km/h Distance 3.83 km</desc>
<time>2013-07-23T13:53:55.49</time>
<name>2069</name>
<sym>Dot</sym>
</trkpt>
<trkpt lat="48.889208" lon="20.087510">
<ele>1882.5</ele>
<desc>Speed 2.6 km/h Distance 3.83 km</desc>
<time>2013-07-23T13:53:56.48</time>
<name>2070</name>
<sym>Dot</sym>
</trkpt>
<trkpt lat="48.889208" lon="20.087500">
<ele>1882.5</ele>
<desc>Speed 3.5 km/h Distance 3.84 km</desc>
<time>2013-07-23T13:53:57.47</time>
<name>2071</name>
<sym>Dot</sym>
</trkpt>
<trkpt lat="48.889207" lon="20.087490">
<ele>1882.5</ele>
<desc>Speed 3.3 km/h Distance 3.84 km</desc>
<time>2013-07-23T13:53:58.47</time>
<name>2072</name>
<sym>Dot</sym>
</trkpt>
<trkpt lat="48.889205" lon="20.087478">
<ele>1882.5</ele>
<desc>Speed 3.4 km/h Distance 3.84 km</desc>
<time>2013-07-23T13:53:59.46</time>
<name>2073</name>
<sym>Dot</sym>
</trkpt>
<trkpt lat="48.889202" lon="20.087465">
<ele>1882.5</ele>
<desc>Speed 4.0 km/h Distance 3.84 km</desc>
<time>2013-07-23T13:54:00.45</time>
<name>2074</name>
<sym>Dot</sym>
</trkpt>
<trkpt lat="48.889198" lon="20.087448">
<ele>1883.0</ele>
<desc>Speed 2.7 km/h Distance 3.84 km</desc>
<time>2013-07-23T13:54:02.45</time>
<name>2075</name>
<sym>Dot</sym>
</trkpt>
<trkpt lat="48.889198" lon="20.087438">
<ele>1883.5</ele>
<desc>Speed 2.9 km/h Distance 3.84 km</desc>
<time>2013-07-23T13:54:03.44</time>
<name>2076</name>
<sym>Dot</sym>
</trkpt>
<trkpt lat="48.889195" lon="20.087425">
<ele>1883.5</ele>
<desc>Speed 2.3 km/h Distance 3.84 km</desc>
<time>2013-07-23T13:54:05.44</time>
<name>2077</name>
<sym>Dot</sym>
</trkpt>
<trkpt lat="48.889195" lon="20.087412">
<ele>1883.5</ele>
<desc>Speed 3.6 km/h Distance 3.84 km</desc>
<time>2013-07-23T13:54:06.44</time>
<name>2078</name>
<sym>Dot</sym>
</trkpt>
<trkpt lat="48.889198" lon="20.087402">
<ele>1884.0</ele>
<desc>Speed 2.9 km/h Distance 3.84 km</desc>
<time>2013-07-23T13:54:07.43</time>
<name>2079</name>
<sym>Dot</sym>
</trkpt>
<trkpt lat="48.889195" lon="20.087382">
<ele>1883.0</ele>
<desc>Speed 3.6 km/h Distance 3.84 km</desc>
<time>2013-07-23T13:54:09.43</time>
<name>2080</name>
<sym>Dot</sym>
</trkpt>
<trkpt lat="48.889193" lon="20.087367">
<ele>1883.0</ele>
<desc>Speed 3.9 km/h Distance 3.85 km</desc>
<time>2013-07-23T13:54:10.43</time>
<name>2081</name>
<sym>Dot</sym>
</trkpt>
<trkpt lat="48.889190" lon="20.087353">
<ele>1883.0</ele>
<desc>Speed 4.0 km/h Distance 3.85 km</desc>
<time>2013-07-23T13:54:11.42</time>
<name>2082</name>
<sym>Dot</sym>
</trkpt>
<trkpt lat="48.889190" lon="20.087343">
<ele>1883.0</ele>
<desc>Speed 2.5 km/h Distance 3.85 km</desc>
<time>2013-07-23T13:54:12.42</time>
<name>2083</name>
<sym>Dot</sym>
</trkpt>
<trkpt lat="48.889192" lon="20.087327">
<ele>1882.5</ele>
<desc>Speed 4.0 km/h Distance 3.85 km</desc>
<time>2013-07-23T13:54:13.42</time>
<name>2084</name>
<sym>Dot</sym>
</trkpt>
<trkpt lat="48.889192" lon="20.087310">
<ele>1882.5</ele>
<desc>Speed 4.5 km/h Distance 3.85 km</desc>
<time>2013-07-23T13:54:14.41</time>
<name>2085</name>
<sym>Dot</sym>
</trkpt>
<trkpt lat="48.889188" lon="20.087293">
<ele>1882.5</ele>
<desc>Speed 4.2 km/h Distance 3.85 km</desc>
<time>2013-07-23T13:54:15.41</time>
<name>2086</name>
<sym>Dot</sym>
</trkpt>
<trkpt lat="48.889190" lon="20.087283">
<ele>1882.5</ele>
<desc>Speed 2.4 km/h Distance 3.85 km</desc>
<time>2013-07-23T13:54:16.53</time>
<name>2087</name>
<sym>Dot</sym>
</trkpt>
<trkpt lat="48.889192" lon="20.087270">
<ele>1883.0</ele>
<desc>Speed 2.8 km/h Distance 3.85 km</desc>
<time>2013-07-23T13:54:17.40</time>
<name>2088</name>
<sym>Dot</sym>
</trkpt>
<trkpt lat="48.889192" lon="20.087255">
<ele>1882.5</ele>
<desc>Speed 3.7 km/h Distance 3.85 km</desc>
<time>2013-07-23T13:54:18.39</time>
<name>2089</name>
<sym>Dot</sym>
</trkpt>
<trkpt lat="48.889190" lon="20.087240">
<ele>1883.0</ele>
<desc>Speed 3.9 km/h Distance 3.86 km</desc>
<time>2013-07-23T13:54:19.39</time>
<name>2090</name>
<sym>Dot</sym>
</trkpt>
<trkpt lat="48.889188" lon="20.087230">
<ele>1883.0</ele>
<desc>Speed 2.6 km/h Distance 3.86 km</desc>
<time>2013-07-23T13:54:20.39</time>
<name>2091</name>
<sym>Dot</sym>
</trkpt>
<trkpt lat="48.889188" lon="20.087213">
<ele>1883.5</ele>
<desc>Speed 3.9 km/h Distance 3.86 km</desc>
<time>2013-07-23T13:54:21.40</time>
<name>2092</name>
<sym>Dot</sym>
</trkpt>
<trkpt lat="48.889187" lon="20.087198">
<ele>1883.5</ele>
<desc>Speed 4.0 km/h Distance 3.86 km</desc>
<time>2013-07-23T13:54:22.38</time>
<name>2093</name>
<sym>Dot</sym>
</trkpt>
<trkpt lat="48.889187" lon="20.087187">
<ele>1883.5</ele>
<desc>Speed 2.8 km/h Distance 3.86 km</desc>
<time>2013-07-23T13:54:23.37</time>
<name>2094</name>
<sym>Dot</sym>
</trkpt>
<trkpt lat="48.889185" lon="20.087177">
<ele>1883.5</ele>
<desc>Speed 2.9 km/h Distance 3.86 km</desc>
<time>2013-07-23T13:54:24.37</time>
<name>2095</name>
<sym>Dot</sym>
</trkpt>
<trkpt lat="48.889185" lon="20.087162">
<ele>1884.0</ele>
<desc>Speed 4.2 km/h Distance 3.86 km</desc>
<time>2013-07-23T13:54:25.47</time>
<name>2096</name>
<sym>Dot</sym>
</trkpt>
<trkpt lat="48.889182" lon="20.087147">
<ele>1884.0</ele>
<desc>Speed 4.1 km/h Distance 3.86 km</desc>
<time>2013-07-23T13:54:26.37</time>
<name>2097</name>
<sym>Dot</sym>
</trkpt>
<trkpt lat="48.889177" lon="20.087137">
<ele>1884.0</ele>
<desc>Speed 2.9 km/h Distance 3.86 km</desc>
<time>2013-07-23T13:54:27.36</time>
<name>2098</name>
<sym>Dot</sym>
</trkpt>
<trkpt lat="48.889172" lon="20.087122">
<ele>1884.0</ele>
<desc>Speed 4.3 km/h Distance 3.86 km</desc>
<time>2013-07-23T13:54:28.36</time>
<name>2099</name>
<sym>Dot</sym>
</trkpt>
<trkpt lat="48.889173" lon="20.087108">
<ele>1884.0</ele>
<desc>Speed 3.3 km/h Distance 3.87 km</desc>
<time>2013-07-23T13:54:29.35</time>
<name>2100</name>
<sym>Dot</sym>
</trkpt>
<trkpt lat="48.889173" lon="20.087097">
<ele>1884.0</ele>
<desc>Speed 2.8 km/h Distance 3.87 km</desc>
<time>2013-07-23T13:54:30.35</time>
<name>2101</name>
<sym>Dot</sym>
</trkpt>
<trkpt lat="48.889173" lon="20.087085">
<ele>1884.5</ele>
<desc>Speed 3.0 km/h Distance 3.87 km</desc>
<time>2013-07-23T13:54:31.35</time>
<name>2102</name>
<sym>Dot</sym>
</trkpt>
<trkpt lat="48.889170" lon="20.087068">
<ele>1884.5</ele>
<desc>Speed 4.6 km/h Distance 3.87 km</desc>
<time>2013-07-23T13:54:32.34</time>
<name>2103</name>
<sym>Dot</sym>
</trkpt>
<trkpt lat="48.889168" lon="20.087050">
<ele>1884.5</ele>
<desc>Speed 4.7 km/h Distance 3.87 km</desc>
<time>2013-07-23T13:54:33.34</time>
<name>2104</name>
<sym>Dot</sym>
</trkpt>
<trkpt lat="48.889167" lon="20.087032">
<ele>1885.0</ele>
<desc>Speed 4.8 km/h Distance 3.87 km</desc>
<time>2013-07-23T13:54:34.34</time>
<name>2105</name>
<sym>Dot</sym>
</trkpt>
<trkpt lat="48.889162" lon="20.087020">
<ele>1884.5</ele>
<desc>Speed 3.7 km/h Distance 3.87 km</desc>
<time>2013-07-23T13:54:35.34</time>
<name>2106</name>
<sym>Dot</sym>
</trkpt>
<trkpt lat="48.889160" lon="20.087003">
<ele>1884.5</ele>
<desc>Speed 4.5 km/h Distance 3.87 km</desc>
<time>2013-07-23T13:54:36.33</time>
<name>2107</name>
<sym>Dot</sym>
</trkpt>
<trkpt lat="48.889160" lon="20.086988">
<ele>1885.0</ele>
<desc>Speed 3.9 km/h Distance 3.87 km</desc>
<time>2013-07-23T13:54:37.32</time>
<name>2108</name>
<sym>Dot</sym>
</trkpt>
<trkpt lat="48.889157" lon="20.086975">
<ele>1885.0</ele>
<desc>Speed 3.4 km/h Distance 3.88 km</desc>
<time>2013-07-23T13:54:38.32</time>
<name>2109</name>
<sym>Dot</sym>
</trkpt>
<trkpt lat="48.889155" lon="20.086960">
<ele>1885.0</ele>
<desc>Speed 3.9 km/h Distance 3.88 km</desc>
<time>2013-07-23T13:54:39.32</time>
<name>2110</name>
<sym>Dot</sym>
</trkpt>
<trkpt lat="48.889153" lon="20.086947">
<ele>1885.0</ele>
<desc>Speed 3.7 km/h Distance 3.88 km</desc>
<time>2013-07-23T13:54:40.32</time>
<name>2111</name>
<sym>Dot</sym>
</trkpt>
<trkpt lat="48.889152" lon="20.086928">
<ele>1885.0</ele>
<desc>Speed 4.4 km/h Distance 3.88 km</desc>
<time>2013-07-23T13:54:41.53</time>
<name>2112</name>
<sym>Dot</sym>
</trkpt>
<trkpt lat="48.889152" lon="20.086913">
<ele>1885.5</ele>
<desc>Speed 4.1 km/h Distance 3.88 km</desc>
<time>2013-07-23T13:54:42.31</time>
<name>2113</name>
<sym>Dot</sym>
</trkpt>
<trkpt lat="48.889148" lon="20.086897">
<ele>1885.5</ele>
<desc>Speed 4.1 km/h Distance 3.88 km</desc>
<time>2013-07-23T13:54:43.31</time>
<name>2114</name>
<sym>Dot</sym>
</trkpt>
<trkpt lat="48.889143" lon="20.086880">
<ele>1884.5</ele>
<desc>Speed 4.4 km/h Distance 3.88 km</desc>
<time>2013-07-23T13:54:44.31</time>
<name>2115</name>
<sym>Dot</sym>
</trkpt>
<trkpt lat="48.889140" lon="20.086860">
<ele>1884.5</ele>
<desc>Speed 5.3 km/h Distance 3.88 km</desc>
<time>2013-07-23T13:54:45.30</time>
<name>2116</name>
<sym>Dot</sym>
</trkpt>
<trkpt lat="48.889138" lon="20.086842">
<ele>1885.0</ele>
<desc>Speed 4.6 km/h Distance 3.89 km</desc>
<time>2013-07-23T13:54:46.33</time>
<name>2117</name>
<sym>Dot</sym>
</trkpt>
<trkpt lat="48.889138" lon="20.086825">
<ele>1885.0</ele>
<desc>Speed 4.7 km/h Distance 3.89 km</desc>
<time>2013-07-23T13:54:47.50</time>
<name>2118</name>
<sym>Dot</sym>
</trkpt>
<trkpt lat="48.889137" lon="20.086808">
<ele>1885.0</ele>
<desc>Speed 4.5 km/h Distance 3.89 km</desc>
<time>2013-07-23T13:54:48.29</time>
<name>2119</name>
<sym>Dot</sym>
</trkpt>
<trkpt lat="48.889138" lon="20.086795">
<ele>1885.0</ele>
<desc>Speed 3.9 km/h Distance 3.89 km</desc>
<time>2013-07-23T13:54:49.29</time>
<name>2120</name>
<sym>Dot</sym>
</trkpt>
<trkpt lat="48.889140" lon="20.086782">
<ele>1885.5</ele>
<desc>Speed 3.6 km/h Distance 3.89 km</desc>
<time>2013-07-23T13:54:50.28</time>
<name>2121</name>
<sym>Dot</sym>
</trkpt>
<trkpt lat="48.889138" lon="20.086767">
<ele>1885.5</ele>
<desc>Speed 4.0 km/h Distance 3.89 km</desc>
<time>2013-07-23T13:54:51.32</time>
<name>2122</name>
<sym>Dot</sym>
</trkpt>
<trkpt lat="48.889137" lon="20.086750">
<ele>1885.5</ele>
<desc>Speed 4.8 km/h Distance 3.89 km</desc>
<time>2013-07-23T13:54:52.28</time>
<name>2123</name>
<sym>Dot</sym>
</trkpt>
<trkpt lat="48.889135" lon="20.086735">
<ele>1885.5</ele>
<desc>Speed 4.0 km/h Distance 3.89 km</desc>
<time>2013-07-23T13:54:53.28</time>
<name>2124</name>
<sym>Dot</sym>
</trkpt>
<trkpt lat="48.889135" lon="20.086720">
<ele>1885.5</ele>
<desc>Speed 4.1 km/h Distance 3.89 km</desc>
<time>2013-07-23T13:54:54.27</time>
<name>2125</name>
<sym>Dot</sym>
</trkpt>
<trkpt lat="48.889137" lon="20.086708">
<ele>1885.5</ele>
<desc>Speed 3.4 km/h Distance 3.90 km</desc>
<time>2013-07-23T13:54:55.27</time>
<name>2126</name>
<sym>Dot</sym>
</trkpt>
<trkpt lat="48.889138" lon="20.086693">
<ele>1886.0</ele>
<desc>Speed 4.4 km/h Distance 3.90 km</desc>
<time>2013-07-23T13:54:56.28</time>
<name>2127</name>
<sym>Dot</sym>
</trkpt>
<trkpt lat="48.889138" lon="20.086678">
<ele>1886.5</ele>
<desc>Speed 4.5 km/h Distance 3.90 km</desc>
<time>2013-07-23T13:54:57.26</time>
<name>2128</name>
<sym>Dot</sym>
</trkpt>
<trkpt lat="48.889142" lon="20.086663">
<ele>1886.5</ele>
<desc>Speed 4.2 km/h Distance 3.90 km</desc>
<time>2013-07-23T13:54:58.25</time>
<name>2129</name>
<sym>Dot</sym>
</trkpt>
<trkpt lat="48.889140" lon="20.086652">
<ele>1886.0</ele>
<desc>Speed 2.7 km/h Distance 3.90 km</desc>
<time>2013-07-23T13:54:59.25</time>
<name>2130</name>
<sym>Dot</sym>
</trkpt>
<trkpt lat="48.889128" lon="20.086640">
<ele>1885.0</ele>
<desc>Speed 2.3 km/h Distance 3.90 km</desc>
<time>2013-07-23T13:55:06.25</time>
<name>2131</name>
<sym>Dot</sym>
</trkpt>
<trkpt lat="48.889133" lon="20.086635">
<ele>1885.0</ele>
<desc>Speed 2.2 km/h Distance 3.90 km</desc>
<time>2013-07-23T13:55:13.64</time>
<name>2132</name>
<sym>Dot</sym>
</trkpt>
<trkpt lat="48.889123" lon="20.086633">
<ele>1886.5</ele>
<desc>Speed 3.3 km/h Distance 3.90 km</desc>
<time>2013-07-23T13:55:20.24</time>
<name>2133</name>
<sym>Dot</sym>
</trkpt>
<trkpt lat="48.889147" lon="20.086615">
<ele>1887.0</ele>
<desc>Speed 3.9 km/h Distance 3.91 km</desc>
<time>2013-07-23T13:55:26.24</time>
<name>2134</name>
<sym>Dot</sym>
</trkpt>
<trkpt lat="48.889132" lon="20.086612">
<ele>1887.0</ele>
<desc>Speed 2.8 km/h Distance 3.91 km</desc>
<time>2013-07-23T13:55:27.23</time>
<name>2135</name>
<sym>Dot</sym>
</trkpt>
<trkpt lat="48.889120" lon="20.086587">
<ele>1887.0</ele>
<desc>Speed 2.7 km/h Distance 3.91 km</desc>
<time>2013-07-23T13:55:28.22</time>
<name>2136</name>
<sym>Dot</sym>
</trkpt>
<trkpt lat="48.889138" lon="20.086642">
<ele>1885.5</ele>
<desc>Speed 2.9 km/h Distance 3.91 km</desc>
<time>2013-07-23T13:55:36.22</time>
<name>2137</name>
<sym>Dot</sym>
</trkpt>
<trkpt lat="48.889132" lon="20.086648">
<ele>1886.0</ele>
<desc>Speed 2.9 km/h Distance 3.92 km</desc>
<time>2013-07-23T13:55:37.22</time>
<name>2138</name>
<sym>Dot</sym>
</trkpt>
<trkpt lat="48.889137" lon="20.086627">
<ele>1886.0</ele>
<desc>Speed 3.3 km/h Distance 3.92 km</desc>
<time>2013-07-23T13:55:41.21</time>
<name>2139</name>
<sym>Dot</sym>
</trkpt>
<trkpt lat="48.889147" lon="20.086610">
<ele>1886.0</ele>
<desc>Speed 6.2 km/h Distance 3.92 km</desc>
<time>2013-07-23T13:55:42.21</time>
<name>2140</name>
<sym>Dot</sym>
</trkpt>
<trkpt lat="48.889150" lon="20.086597">
<ele>1886.5</ele>
<desc>Speed 4.4 km/h Distance 3.92 km</desc>
<time>2013-07-23T13:55:43.20</time>
<name>2141</name>
<sym>Dot</sym>
</trkpt>
<trkpt lat="48.889155" lon="20.086582">
<ele>1886.5</ele>
<desc>Speed 4.1 km/h Distance 3.92 km</desc>
<time>2013-07-23T13:55:44.20</time>
<name>2142</name>
<sym>Dot</sym>
</trkpt>
<trkpt lat="48.889158" lon="20.086565">
<ele>1886.5</ele>
<desc>Speed 4.5 km/h Distance 3.92 km</desc>
<time>2013-07-23T13:55:45.20</time>
<name>2143</name>
<sym>Dot</sym>
</trkpt>
<trkpt lat="48.889158" lon="20.086550">
<ele>1886.5</ele>
<desc>Speed 4.3 km/h Distance 3.92 km</desc>
<time>2013-07-23T13:55:46.20</time>
<name>2144</name>
<sym>Dot</sym>
</trkpt>
<trkpt lat="48.889155" lon="20.086533">
<ele>1886.5</ele>
<desc>Speed 4.8 km/h Distance 3.92 km</desc>
<time>2013-07-23T13:55:47.19</time>
<name>2145</name>
<sym>Dot</sym>
</trkpt>
<trkpt lat="48.889153" lon="20.086522">
<ele>1887.0</ele>
<desc>Speed 4.3 km/h Distance 3.93 km</desc>
<time>2013-07-23T13:55:48.31</time>
<name>2146</name>
<sym>Dot</sym>
</trkpt>
<trkpt lat="48.889150" lon="20.086505">
<ele>1887.0</ele>
<desc>Speed 4.1 km/h Distance 3.93 km</desc>
<time>2013-07-23T13:55:49.19</time>
<name>2147</name>
<sym>Dot</sym>
</trkpt>
<trkpt lat="48.889148" lon="20.086488">
<ele>1886.5</ele>
<desc>Speed 4.0 km/h Distance 3.93 km</desc>
<time>2013-07-23T13:55:50.18</time>
<name>2148</name>
<sym>Dot</sym>
</trkpt>
<trkpt lat="48.889145" lon="20.086472">
<ele>1886.5</ele>
<desc>Speed 3.6 km/h Distance 3.93 km</desc>
<time>2013-07-23T13:55:51.18</time>
<name>2149</name>
<sym>Dot</sym>
</trkpt>
<trkpt lat="48.889148" lon="20.086462">
<ele>1886.5</ele>
<desc>Speed 2.9 km/h Distance 3.93 km</desc>
<time>2013-07-23T13:55:52.18</time>
<name>2150</name>
<sym>Dot</sym>
</trkpt>
<trkpt lat="48.889150" lon="20.086443">
<ele>1886.5</ele>
<desc>Speed 4.4 km/h Distance 3.93 km</desc>
<time>2013-07-23T13:55:53.17</time>
<name>2151</name>
<sym>Dot</sym>
</trkpt>
<trkpt lat="48.889153" lon="20.086422">
<ele>1886.0</ele>
<desc>Speed 5.4 km/h Distance 3.93 km</desc>
<time>2013-07-23T13:55:54.38</time>
<name>2152</name>
<sym>Dot</sym>
</trkpt>
<trkpt lat="48.889158" lon="20.086403">
<ele>1886.5</ele>
<desc>Speed 4.9 km/h Distance 3.93 km</desc>
<time>2013-07-23T13:55:55.16</time>
<name>2153</name>
<sym>Dot</sym>
</trkpt>
<trkpt lat="48.889160" lon="20.086387">
<ele>1886.5</ele>
<desc>Speed 4.6 km/h Distance 3.94 km</desc>
<time>2013-07-23T13:55:56.15</time>
<name>2154</name>
<sym>Dot</sym>
</trkpt>
<trkpt lat="48.889165" lon="20.086377">
<ele>1887.0</ele>
<desc>Speed 3.4 km/h Distance 3.94 km</desc>
<time>2013-07-23T13:55:58.24</time>
<name>2155</name>
<sym>Dot</sym>
</trkpt>
<trkpt lat="48.889178" lon="20.086348">
<ele>1888.0</ele>
<desc>Speed 5.2 km/h Distance 3.94 km</desc>
<time>2013-07-23T13:55:59.28</time>
<name>2156</name>
<sym>Dot</sym>
</trkpt>
<trkpt lat="48.889180" lon="20.086330">
<ele>1887.5</ele>
<desc>Speed 4.8 km/h Distance 3.94 km</desc>
<time>2013-07-23T13:56:00.14</time>
<name>2157</name>
<sym>Dot</sym>
</trkpt>
<trkpt lat="48.889183" lon="20.086317">
<ele>1887.0</ele>
<desc>Speed 3.6 km/h Distance 3.94 km</desc>
<time>2013-07-23T13:56:01.14</time>
<name>2158</name>
<sym>Dot</sym>
</trkpt>
<trkpt lat="48.889185" lon="20.086297">
<ele>1886.5</ele>
<desc>Speed 2.4 km/h Distance 3.94 km</desc>
<time>2013-07-23T13:56:04.14</time>
<name>2159</name>
<sym>Dot</sym>
</trkpt>
<trkpt lat="48.889160" lon="20.086315">
<ele>1886.0</ele>
<desc>Speed 7.3 km/h Distance 3.95 km</desc>
<time>2013-07-23T13:56:11.14</time>
<name>2160</name>
<sym>Dot</sym>
</trkpt>
<trkpt lat="48.889148" lon="20.086305">
<ele>1886.0</ele>
<desc>Speed 2.4 km/h Distance 3.95 km</desc>
<time>2013-07-23T13:56:44.28</time>
<name>2161</name>
<sym>Dot</sym>
</trkpt>
<trkpt lat="48.889140" lon="20.086300">
<ele>1886.0</ele>
<desc>Speed 3.4 km/h Distance 3.95 km</desc>
<time>2013-07-23T13:56:45.13</time>
<name>2162</name>
<sym>Dot</sym>
</trkpt>
<trkpt lat="48.889128" lon="20.086295">
<ele>1886.0</ele>
<desc>Speed 4.5 km/h Distance 3.95 km</desc>
<time>2013-07-23T13:56:46.13</time>
<name>2163</name>
<sym>Dot</sym>
</trkpt>
<trkpt lat="48.889120" lon="20.086298">
<ele>1885.5</ele>
<desc>Speed 3.1 km/h Distance 3.95 km</desc>
<time>2013-07-23T13:56:47.12</time>
<name>2164</name>
<sym>Dot</sym>
</trkpt>
<trkpt lat="48.889115" lon="20.086300">
<ele>1886.0</ele>
<desc>Speed 2.3 km/h Distance 3.95 km</desc>
<time>2013-07-23T13:56:48.11</time>
<name>2165</name>
<sym>Dot</sym>
</trkpt>
<trkpt lat="48.889108" lon="20.086300">
<ele>1886.0</ele>
<desc>Speed 3.3 km/h Distance 3.95 km</desc>
<time>2013-07-23T13:56:49.11</time>
<name>2166</name>
<sym>Dot</sym>
</trkpt>
<trkpt lat="48.889098" lon="20.086300">
<ele>1886.0</ele>
<desc>Speed 4.0 km/h Distance 3.95 km</desc>
<time>2013-07-23T13:56:50.11</time>
<name>2167</name>
<sym>Dot</sym>
</trkpt>
<trkpt lat="48.889090" lon="20.086303">
<ele>1886.5</ele>
<desc>Speed 4.1 km/h Distance 3.95 km</desc>
<time>2013-07-23T13:56:51.11</time>
<name>2168</name>
<sym>Dot</sym>
</trkpt>
<trkpt lat="48.889080" lon="20.086310">
<ele>1886.5</ele>
<desc>Speed 4.1 km/h Distance 3.96 km</desc>
<time>2013-07-23T13:56:52.10</time>
<name>2169</name>
<sym>Dot</sym>
</trkpt>
<trkpt lat="48.889072" lon="20.086315">
<ele>1886.5</ele>
<desc>Speed 4.0 km/h Distance 3.96 km</desc>
<time>2013-07-23T13:56:53.09</time>
<name>2170</name>
<sym>Dot</sym>
</trkpt>
<trkpt lat="48.889063" lon="20.086322">
<ele>1886.5</ele>
<desc>Speed 4.3 km/h Distance 3.96 km</desc>
<time>2013-07-23T13:56:54.09</time>
<name>2171</name>
<sym>Dot</sym>
</trkpt>
<trkpt lat="48.889053" lon="20.086330">
<ele>1886.5</ele>
<desc>Speed 4.2 km/h Distance 3.96 km</desc>
<time>2013-07-23T13:56:55.08</time>
<name>2172</name>
<sym>Dot</sym>
</trkpt>
<trkpt lat="48.889045" lon="20.086335">
<ele>1886.5</ele>
<desc>Speed 3.3 km/h Distance 3.96 km</desc>
<time>2013-07-23T13:56:56.21</time>
<name>2173</name>
<sym>Dot</sym>
</trkpt>
<trkpt lat="48.889040" lon="20.086337">
<ele>1886.0</ele>
<desc>Speed 2.3 km/h Distance 3.96 km</desc>
<time>2013-07-23T13:56:57.07</time>
<name>2174</name>
<sym>Dot</sym>
</trkpt>
<trkpt lat="48.889032" lon="20.086337">
<ele>1886.5</ele>
<desc>Speed 3.2 km/h Distance 3.96 km</desc>
<time>2013-07-23T13:57:22.07</time>
<name>2175</name>
<sym>Dot</sym>
</trkpt>
<trkpt lat="48.889037" lon="20.086350">
<ele>1884.5</ele>
<desc>Speed 3.3 km/h Distance 3.96 km</desc>
<time>2013-07-23T13:58:00.11</time>
<name>2176</name>
<sym>Dot</sym>
</trkpt>
<trkpt lat="48.889053" lon="20.086347">
<ele>1885.5</ele>
<desc>Speed 2.9 km/h Distance 3.96 km</desc>
<time>2013-07-23T13:58:14.06</time>
<name>2177</name>
<sym>Dot</sym>
</trkpt>
<trkpt lat="48.889053" lon="20.086335">
<ele>1888.5</ele>
<desc>Speed 2.2 km/h Distance 3.96 km</desc>
<time>2013-07-23T13:58:47.05</time>
<name>2178</name>
<sym>Dot</sym>
</trkpt>
<trkpt lat="48.889073" lon="20.086343">
<ele>1889.0</ele>
<desc>Speed 3.6 km/h Distance 3.97 km</desc>
<time>2013-07-23T13:58:50.05</time>
<name>2179</name>
<sym>Dot</sym>
</trkpt>
<trkpt lat="48.889082" lon="20.086340">
<ele>1889.0</ele>
<desc>Speed 2.9 km/h Distance 3.97 km</desc>
<time>2013-07-23T13:58:51.04</time>
<name>2180</name>
<sym>Dot</sym>
</trkpt>
<trkpt lat="48.889088" lon="20.086335">
<ele>1889.0</ele>
<desc>Speed 2.2 km/h Distance 3.97 km</desc>
<time>2013-07-23T13:58:52.03</time>
<name>2181</name>
<sym>Dot</sym>
</trkpt>
<trkpt lat="48.889110" lon="20.086327">
<ele>1888.5</ele>
<desc>Speed 2.2 km/h Distance 3.97 km</desc>
<time>2013-07-23T13:59:00.02</time>
<name>2182</name>
<sym>Dot</sym>
</trkpt>
<trkpt lat="48.889118" lon="20.086322">
<ele>1889.0</ele>
<desc>Speed 2.7 km/h Distance 3.97 km</desc>
<time>2013-07-23T13:59:01.03</time>
<name>2183</name>
<sym>Dot</sym>
</trkpt>
<trkpt lat="48.889125" lon="20.086322">
<ele>1889.5</ele>
<desc>Speed 2.4 km/h Distance 3.97 km</desc>
<time>2013-07-23T13:59:02.11</time>
<name>2184</name>
<sym>Dot</sym>
</trkpt>
<trkpt lat="48.889130" lon="20.086320">
<ele>1889.5</ele>
<desc>Speed 2.2 km/h Distance 3.97 km</desc>
<time>2013-07-23T13:59:04.01</time>
<name>2185</name>
<sym>Dot</sym>
</trkpt>
<trkpt lat="48.889143" lon="20.086318">
<ele>1890.0</ele>
<desc>Speed 2.2 km/h Distance 3.98 km</desc>
<time>2013-07-23T13:59:10.01</time>
<name>2186</name>
<sym>Dot</sym>
</trkpt>
<trkpt lat="48.889152" lon="20.086323">
<ele>1890.0</ele>
<desc>Speed 3.4 km/h Distance 3.98 km</desc>
<time>2013-07-23T13:59:11.00</time>
<name>2187</name>
<sym>Dot</sym>
</trkpt>
<trkpt lat="48.889158" lon="20.086323">
<ele>1890.0</ele>
<desc>Speed 2.8 km/h Distance 3.98 km</desc>
<time>2013-07-23T13:59:12.00</time>
<name>2188</name>
<sym>Dot</sym>
</trkpt>
<trkpt lat="48.889170" lon="20.086327">
<ele>1890.0</ele>
<desc>Speed 2.6 km/h Distance 3.98 km</desc>
<time>2013-07-23T13:59:14.00</time>
<name>2189</name>
<sym>Dot</sym>
</trkpt>
<trkpt lat="48.889205" lon="20.086317">
<ele>1887.5</ele>
<desc>Speed 2.5 km/h Distance 3.98 km</desc>
<time>2013-07-23T13:59:38.99</time>
<name>2190</name>
<sym>Dot</sym>
</trkpt>
<trkpt lat="48.889212" lon="20.086318">
<ele>1887.5</ele>
<desc>Speed 2.8 km/h Distance 3.98 km</desc>
<time>2013-07-23T13:59:39.99</time>
<name>2191</name>
<sym>Dot</sym>
</trkpt>
<trkpt lat="48.889220" lon="20.086310">
<ele>1887.0</ele>
<desc>Speed 2.5 km/h Distance 3.98 km</desc>
<time>2013-07-23T13:59:41.99</time>
<name>2192</name>
<sym>Dot</sym>
</trkpt>
<trkpt lat="48.889220" lon="20.086305">
<ele>1886.0</ele>
<desc>Speed 2.6 km/h Distance 3.98 km</desc>
<time>2013-07-23T14:00:00.98</time>
<name>2193</name>
<sym>Dot</sym>
</trkpt>
<trkpt lat="48.889225" lon="20.086292">
<ele>1886.0</ele>
<desc>Speed 3.7 km/h Distance 3.99 km</desc>
<time>2013-07-23T14:00:01.97</time>
<name>2194</name>
<sym>Dot</sym>
</trkpt>
<trkpt lat="48.889222" lon="20.086280">
<ele>1886.5</ele>
<desc>Speed 3.6 km/h Distance 3.99 km</desc>
<time>2013-07-23T14:00:11.96</time>
<name>2195</name>
<sym>Dot</sym>
</trkpt>
<trkpt lat="48.889223" lon="20.086263">
<ele>1887.0</ele>
<desc>Speed 4.5 km/h Distance 3.99 km</desc>
<time>2013-07-23T14:00:12.96</time>
<name>2196</name>
<sym>Dot</sym>
</trkpt>
<trkpt lat="48.889225" lon="20.086248">
<ele>1887.5</ele>
<desc>Speed 4.2 km/h Distance 3.99 km</desc>
<time>2013-07-23T14:00:13.95</time>
<name>2197</name>
<sym>Dot</sym>
</trkpt>
<trkpt lat="48.889230" lon="20.086238">
<ele>1887.5</ele>
<desc>Speed 3.1 km/h Distance 3.99 km</desc>
<time>2013-07-23T14:00:14.94</time>
<name>2198</name>
<sym>Dot</sym>
</trkpt>
<trkpt lat="48.889245" lon="20.086213">
<ele>1887.5</ele>
<desc>Speed 8.7 km/h Distance 3.99 km</desc>
<time>2013-07-23T14:00:15.94</time>
<name>2199</name>
<sym>Dot</sym>
</trkpt>
<trkpt lat="48.889257" lon="20.086178">
<ele>1887.5</ele>
<desc>Speed 10.4 km/h Distance 4.00 km</desc>
<time>2013-07-23T14:00:16.94</time>
<name>2200</name>
<sym>Dot</sym>
</trkpt>
<trkpt lat="48.889262" lon="20.086133">
<ele>1887.5</ele>
<desc>Speed 11.7 km/h Distance 4.00 km</desc>
<time>2013-07-23T14:00:17.92</time>
<name>2201</name>
<sym>Dot</sym>
</trkpt>
<trkpt lat="48.889260" lon="20.086100">
<ele>1888.5</ele>
<desc>Speed 8.3 km/h Distance 4.00 km</desc>
<time>2013-07-23T14:00:18.92</time>
<name>2202</name>
<sym>Dot</sym>
</trkpt>
<trkpt lat="48.889253" lon="20.086062">
<ele>1888.5</ele>
<desc>Speed 10.5 km/h Distance 4.00 km</desc>
<time>2013-07-23T14:00:19.90</time>
<name>2203</name>
<sym>Dot</sym>
</trkpt>
<trkpt lat="48.889243" lon="20.086012">
<ele>1888.0</ele>
<desc>Speed 13.2 km/h Distance 4.01 km</desc>
<time>2013-07-23T14:00:20.91</time>
<name>2204</name>
<sym>Dot</sym>
</trkpt>
<trkpt lat="48.889233" lon="20.085957">
<ele>1887.5</ele>
<desc>Speed 14.8 km/h Distance 4.01 km</desc>
<time>2013-07-23T14:00:21.95</time>
<name>2205</name>
<sym>Dot</sym>
</trkpt>
<trkpt lat="48.889223" lon="20.085902">
<ele>1887.0</ele>
<desc>Speed 14.9 km/h Distance 4.02 km</desc>
<time>2013-07-23T14:00:22.89</time>
<name>2206</name>
<sym>Dot</sym>
</trkpt>
<trkpt lat="48.889210" lon="20.085843">
<ele>1887.0</ele>
<desc>Speed 16.0 km/h Distance 4.02 km</desc>
<time>2013-07-23T14:00:23.88</time>
<name>2207</name>
<sym>Dot</sym>
</trkpt>
<trkpt lat="48.889192" lon="20.085788">
<ele>1887.0</ele>
<desc>Speed 16.1 km/h Distance 4.03 km</desc>
<time>2013-07-23T14:00:24.88</time>
<name>2208</name>
<sym>Dot</sym>
</trkpt>
<trkpt lat="48.889178" lon="20.085732">
<ele>1885.5</ele>
<desc>Speed 15.4 km/h Distance 4.03 km</desc>
<time>2013-07-23T14:00:25.88</time>
<name>2209</name>
<sym>Dot</sym>
</trkpt>
<trkpt lat="48.889167" lon="20.085695">
<ele>1885.0</ele>
<desc>Speed 11.0 km/h Distance 4.03 km</desc>
<time>2013-07-23T14:00:26.88</time>
<name>2210</name>
<sym>Dot</sym>
</trkpt>
<trkpt lat="48.889155" lon="20.085658">
<ele>1885.5</ele>
<desc>Speed 11.1 km/h Distance 4.04 km</desc>
<time>2013-07-23T14:00:27.87</time>
<name>2211</name>
<sym>Dot</sym>
</trkpt>
<trkpt lat="48.889140" lon="20.085620">
<ele>1884.5</ele>
<desc>Speed 11.9 km/h Distance 4.04 km</desc>
<time>2013-07-23T14:00:28.86</time>
<name>2212</name>
<sym>Dot</sym>
</trkpt>
<trkpt lat="48.889123" lon="20.085588">
<ele>1884.0</ele>
<desc>Speed 10.8 km/h Distance 4.04 km</desc>
<time>2013-07-23T14:00:29.86</time>
<name>2213</name>
<sym>Dot</sym>
</trkpt>
<trkpt lat="48.889107" lon="20.085557">
<ele>1883.5</ele>
<desc>Speed 10.7 km/h Distance 4.04 km</desc>
<time>2013-07-23T14:00:30.85</time>
<name>2214</name>
<sym>Dot</sym>
</trkpt>
<trkpt lat="48.889093" lon="20.085527">
<ele>1883.0</ele>
<desc>Speed 10.0 km/h Distance 4.05 km</desc>
<time>2013-07-23T14:00:31.85</time>
<name>2215</name>
<sym>Dot</sym>
</trkpt>
<trkpt lat="48.889080" lon="20.085495">
<ele>1883.0</ele>
<desc>Speed 9.9 km/h Distance 4.05 km</desc>
<time>2013-07-23T14:00:32.85</time>
<name>2216</name>
<sym>Dot</sym>
</trkpt>
<trkpt lat="48.889072" lon="20.085463">
<ele>1882.5</ele>
<desc>Speed 9.3 km/h Distance 4.05 km</desc>
<time>2013-07-23T14:00:33.84</time>
<name>2217</name>
<sym>Dot</sym>
</trkpt>
<trkpt lat="48.889067" lon="20.085438">
<ele>1882.5</ele>
<desc>Speed 7.4 km/h Distance 4.05 km</desc>
<time>2013-07-23T14:00:34.84</time>
<name>2218</name>
<sym>Dot</sym>
</trkpt>
<trkpt lat="48.889062" lon="20.085412">
<ele>1883.0</ele>
<desc>Speed 7.5 km/h Distance 4.06 km</desc>
<time>2013-07-23T14:00:35.83</time>
<name>2219</name>
<sym>Dot</sym>
</trkpt>
<trkpt lat="48.889053" lon="20.085387">
<ele>1883.0</ele>
<desc>Speed 7.7 km/h Distance 4.06 km</desc>
<time>2013-07-23T14:00:36.82</time>
<name>2220</name>
<sym>Dot</sym>
</trkpt>
<trkpt lat="48.889042" lon="20.085363">
<ele>1883.0</ele>
<desc>Speed 7.5 km/h Distance 4.06 km</desc>
<time>2013-07-23T14:00:37.82</time>
<name>2221</name>
<sym>Dot</sym>
</trkpt>
<trkpt lat="48.889032" lon="20.085342">
<ele>1883.0</ele>
<desc>Speed 7.2 km/h Distance 4.06 km</desc>
<time>2013-07-23T14:00:38.81</time>
<name>2222</name>
<sym>Dot</sym>
</trkpt>
<trkpt lat="48.889025" lon="20.085323">
<ele>1882.5</ele>
<desc>Speed 5.8 km/h Distance 4.06 km</desc>
<time>2013-07-23T14:00:39.81</time>
<name>2223</name>
<sym>Dot</sym>
</trkpt>
<trkpt lat="48.889022" lon="20.085313">
<ele>1882.5</ele>
<desc>Speed 3.6 km/h Distance 4.07 km</desc>
<time>2013-07-23T14:00:40.81</time>
<name>2224</name>
<sym>Dot</sym>
</trkpt>
<trkpt lat="48.889018" lon="20.085295">
<ele>1883.0</ele>
<desc>Speed 5.3 km/h Distance 4.07 km</desc>
<time>2013-07-23T14:00:41.81</time>
<name>2225</name>
<sym>Dot</sym>
</trkpt>
<trkpt lat="48.889010" lon="20.085273">
<ele>1883.0</ele>
<desc>Speed 6.8 km/h Distance 4.07 km</desc>
<time>2013-07-23T14:00:42.80</time>
<name>2226</name>
<sym>Dot</sym>
</trkpt>
<trkpt lat="48.889007" lon="20.085248">
<ele>1883.5</ele>
<desc>Speed 6.8 km/h Distance 4.07 km</desc>
<time>2013-07-23T14:00:43.80</time>
<name>2227</name>
<sym>Dot</sym>
</trkpt>
<trkpt lat="48.889012" lon="20.085222">
<ele>1883.5</ele>
<desc>Speed 7.1 km/h Distance 4.07 km</desc>
<time>2013-07-23T14:00:44.81</time>
<name>2228</name>
<sym>Dot</sym>
</trkpt>
<trkpt lat="48.889017" lon="20.085193">
<ele>1883.5</ele>
<desc>Speed 7.9 km/h Distance 4.07 km</desc>
<time>2013-07-23T14:00:45.80</time>
<name>2229</name>
<sym>Dot</sym>
</trkpt>
<trkpt lat="48.889012" lon="20.085158">
<ele>1883.0</ele>
<desc>Speed 9.4 km/h Distance 4.08 km</desc>
<time>2013-07-23T14:00:46.80</time>
<name>2230</name>
<sym>Dot</sym>
</trkpt>
<trkpt lat="48.889017" lon="20.085130">
<ele>1884.5</ele>
<desc>Speed 7.8 km/h Distance 4.08 km</desc>
<time>2013-07-23T14:00:47.86</time>
<name>2231</name>
<sym>Dot</sym>
</trkpt>
<trkpt lat="48.889010" lon="20.085093">
<ele>1884.5</ele>
<desc>Speed 10.2 km/h Distance 4.08 km</desc>
<time>2013-07-23T14:00:48.79</time>
<name>2232</name>
<sym>Dot</sym>
</trkpt>
<trkpt lat="48.888998" lon="20.085057">
<ele>1884.0</ele>
<desc>Speed 11.0 km/h Distance 4.08 km</desc>
<time>2013-07-23T14:00:49.79</time>
<name>2233</name>
<sym>Dot</sym>
</trkpt>
<trkpt lat="48.888983" lon="20.085018">
<ele>1883.5</ele>
<desc>Speed 11.8 km/h Distance 4.09 km</desc>
<time>2013-07-23T14:00:50.79</time>
<name>2234</name>
<sym>Dot</sym>
</trkpt>
<trkpt lat="48.888970" lon="20.084977">
<ele>1883.5</ele>
<desc>Speed 11.9 km/h Distance 4.09 km</desc>
<time>2013-07-23T14:00:51.78</time>
<name>2235</name>
<sym>Dot</sym>
</trkpt>
<trkpt lat="48.888957" lon="20.084930">
<ele>1883.0</ele>
<desc>Speed 13.9 km/h Distance 4.10 km</desc>
<time>2013-07-23T14:00:52.77</time>
<name>2236</name>
<sym>Dot</sym>
</trkpt>
<trkpt lat="48.888937" lon="20.084882">
<ele>1882.5</ele>
<desc>Speed 15.1 km/h Distance 4.10 km</desc>
<time>2013-07-23T14:00:53.77</time>
<name>2237</name>
<sym>Dot</sym>
</trkpt>
<trkpt lat="48.888917" lon="20.084830">
<ele>1882.0</ele>
<desc>Speed 16.0 km/h Distance 4.10 km</desc>
<time>2013-07-23T14:00:54.79</time>
<name>2238</name>
<sym>Dot</sym>
</trkpt>
<trkpt lat="48.888902" lon="20.084773">
<ele>1882.0</ele>
<desc>Speed 16.5 km/h Distance 4.11 km</desc>
<time>2013-07-23T14:00:55.77</time>
<name>2239</name>
<sym>Dot</sym>
</trkpt>
<trkpt lat="48.888885" lon="20.084710">
<ele>1881.5</ele>
<desc>Speed 18.3 km/h Distance 4.11 km</desc>
<time>2013-07-23T14:00:56.77</time>
<name>2240</name>
<sym>Dot</sym>
</trkpt>
<trkpt lat="48.888872" lon="20.084643">
<ele>1880.5</ele>
<desc>Speed 18.3 km/h Distance 4.12 km</desc>
<time>2013-07-23T14:00:57.76</time>
<name>2241</name>
<sym>Dot</sym>
</trkpt>
<trkpt lat="48.888857" lon="20.084578">
<ele>1880.0</ele>
<desc>Speed 18.2 km/h Distance 4.12 km</desc>
<time>2013-07-23T14:00:58.76</time>
<name>2242</name>
<sym>Dot</sym>
</trkpt>
<trkpt lat="48.888843" lon="20.084518">
<ele>1880.0</ele>
<desc>Speed 16.9 km/h Distance 4.13 km</desc>
<time>2013-07-23T14:00:59.79</time>
<name>2243</name>
<sym>Dot</sym>
</trkpt>
<trkpt lat="48.888827" lon="20.084465">
<ele>1880.0</ele>
<desc>Speed 15.2 km/h Distance 4.13 km</desc>
<time>2013-07-23T14:01:00.80</time>
<name>2244</name>
<sym>Dot</sym>
</trkpt>
<trkpt lat="48.888815" lon="20.084417">
<ele>1880.0</ele>
<desc>Speed 13.2 km/h Distance 4.14 km</desc>
<time>2013-07-23T14:01:01.75</time>
<name>2245</name>
<sym>Dot</sym>
</trkpt>
<trkpt lat="48.888805" lon="20.084372">
<ele>1879.5</ele>
<desc>Speed 12.7 km/h Distance 4.14 km</desc>
<time>2013-07-23T14:01:02.74</time>
<name>2246</name>
<sym>Dot</sym>
</trkpt>
<trkpt lat="48.888792" lon="20.084323">
<ele>1879.0</ele>
<desc>Speed 13.5 km/h Distance 4.14 km</desc>
<time>2013-07-23T14:01:03.74</time>
<name>2247</name>
<sym>Dot</sym>
</trkpt>
<trkpt lat="48.888777" lon="20.084277">
<ele>1879.0</ele>
<desc>Speed 13.2 km/h Distance 4.15 km</desc>
<time>2013-07-23T14:01:04.74</time>
<name>2248</name>
<sym>Dot</sym>
</trkpt>
<trkpt lat="48.888763" lon="20.084235">
<ele>1878.5</ele>
<desc>Speed 12.1 km/h Distance 4.15 km</desc>
<time>2013-07-23T14:01:05.74</time>
<name>2249</name>
<sym>Dot</sym>
</trkpt>
<trkpt lat="48.888750" lon="20.084195">
<ele>1878.5</ele>
<desc>Speed 11.4 km/h Distance 4.15 km</desc>
<time>2013-07-23T14:01:06.73</time>
<name>2250</name>
<sym>Dot</sym>
</trkpt>
<trkpt lat="48.888735" lon="20.084158">
<ele>1878.0</ele>
<desc>Speed 11.3 km/h Distance 4.16 km</desc>
<time>2013-07-23T14:01:07.72</time>
<name>2251</name>
<sym>Dot</sym>
</trkpt>
<trkpt lat="48.888722" lon="20.084122">
<ele>1877.5</ele>
<desc>Speed 10.5 km/h Distance 4.16 km</desc>
<time>2013-07-23T14:01:08.72</time>
<name>2252</name>
<sym>Dot</sym>
</trkpt>
<trkpt lat="48.888710" lon="20.084085">
<ele>1877.5</ele>
<desc>Speed 10.8 km/h Distance 4.16 km</desc>
<time>2013-07-23T14:01:09.72</time>
<name>2253</name>
<sym>Dot</sym>
</trkpt>
<trkpt lat="48.888698" lon="20.084050">
<ele>1878.0</ele>
<desc>Speed 10.1 km/h Distance 4.17 km</desc>
<time>2013-07-23T14:01:10.71</time>
<name>2254</name>
<sym>Dot</sym>
</trkpt>
<trkpt lat="48.888685" lon="20.084018">
<ele>1878.0</ele>
<desc>Speed 9.9 km/h Distance 4.17 km</desc>
<time>2013-07-23T14:01:11.71</time>
<name>2255</name>
<sym>Dot</sym>
</trkpt>
<trkpt lat="48.888673" lon="20.083993">
<ele>1877.5</ele>
<desc>Speed 8.2 km/h Distance 4.17 km</desc>
<time>2013-07-23T14:01:12.70</time>
<name>2256</name>
<sym>Dot</sym>
</trkpt>
<trkpt lat="48.888658" lon="20.083972">
<ele>1878.0</ele>
<desc>Speed 8.3 km/h Distance 4.17 km</desc>
<time>2013-07-23T14:01:13.69</time>
<name>2257</name>
<sym>Dot</sym>
</trkpt>
<trkpt lat="48.888642" lon="20.083950">
<ele>1877.5</ele>
<desc>Speed 8.7 km/h Distance 4.18 km</desc>
<time>2013-07-23T14:01:14.69</time>
<name>2258</name>
<sym>Dot</sym>
</trkpt>
<trkpt lat="48.888627" lon="20.083927">
<ele>1877.5</ele>
<desc>Speed 8.9 km/h Distance 4.18 km</desc>
<time>2013-07-23T14:01:15.68</time>
<name>2259</name>
<sym>Dot</sym>
</trkpt>
<trkpt lat="48.888610" lon="20.083893">
<ele>1876.0</ele>
<desc>Speed 11.1 km/h Distance 4.18 km</desc>
<time>2013-07-23T14:01:16.68</time>
<name>2260</name>
<sym>Dot</sym>
</trkpt>
<trkpt lat="48.888612" lon="20.083868">
<ele>1876.0</ele>
<desc>Speed 6.6 km/h Distance 4.18 km</desc>
<time>2013-07-23T14:01:17.68</time>
<name>2261</name>
<sym>Dot</sym>
</trkpt>
<trkpt lat="48.888607" lon="20.083850">
<ele>1876.0</ele>
<desc>Speed 6.2 km/h Distance 4.18 km</desc>
<time>2013-07-23T14:01:18.67</time>
<name>2262</name>
<sym>Dot</sym>
</trkpt>
<trkpt lat="48.888598" lon="20.083832">
<ele>1876.5</ele>
<desc>Speed 5.8 km/h Distance 4.19 km</desc>
<time>2013-07-23T14:01:19.66</time>
<name>2263</name>
<sym>Dot</sym>
</trkpt>
<trkpt lat="48.888590" lon="20.083813">
<ele>1876.5</ele>
<desc>Speed 6.0 km/h Distance 4.19 km</desc>
<time>2013-07-23T14:01:20.67</time>
<name>2264</name>
<sym>Dot</sym>
</trkpt>
<trkpt lat="48.888585" lon="20.083792">
<ele>1876.5</ele>
<desc>Speed 6.1 km/h Distance 4.19 km</desc>
<time>2013-07-23T14:01:21.65</time>
<name>2265</name>
<sym>Dot</sym>
</trkpt>
<trkpt lat="48.888582" lon="20.083773">
<ele>1876.0</ele>
<desc>Speed 4.9 km/h Distance 4.19 km</desc>
<time>2013-07-23T14:01:22.64</time>
<name>2266</name>
<sym>Dot</sym>
</trkpt>
<trkpt lat="48.888575" lon="20.083755">
<ele>1875.5</ele>
<desc>Speed 5.8 km/h Distance 4.19 km</desc>
<time>2013-07-23T14:01:23.64</time>
<name>2267</name>
<sym>Dot</sym>
</trkpt>
<trkpt lat="48.888568" lon="20.083735">
<ele>1875.0</ele>
<desc>Speed 5.8 km/h Distance 4.19 km</desc>
<time>2013-07-23T14:01:24.63</time>
<name>2268</name>
<sym>Dot</sym>
</trkpt>
<trkpt lat="48.888563" lon="20.083712">
<ele>1875.5</ele>
<desc>Speed 6.4 km/h Distance 4.20 km</desc>
<time>2013-07-23T14:01:25.63</time>
<name>2269</name>
<sym>Dot</sym>
</trkpt>
<trkpt lat="48.888552" lon="20.083685">
<ele>1876.0</ele>
<desc>Speed 8.0 km/h Distance 4.20 km</desc>
<time>2013-07-23T14:01:26.62</time>
<name>2270</name>
<sym>Dot</sym>
</trkpt>
<trkpt lat="48.888537" lon="20.083660">
<ele>1875.5</ele>
<desc>Speed 9.2 km/h Distance 4.20 km</desc>
<time>2013-07-23T14:01:27.62</time>
<name>2271</name>
<sym>Dot</sym>
</trkpt>
<trkpt lat="48.888522" lon="20.083635">
<ele>1875.5</ele>
<desc>Speed 8.5 km/h Distance 4.20 km</desc>
<time>2013-07-23T14:01:28.61</time>
<name>2272</name>
<sym>Dot</sym>
</trkpt>
<trkpt lat="48.888508" lon="20.083613">
<ele>1875.5</ele>
<desc>Speed 7.4 km/h Distance 4.21 km</desc>
<time>2013-07-23T14:01:29.61</time>
<name>2273</name>
<sym>Dot</sym>
</trkpt>
<trkpt lat="48.888497" lon="20.083595">
<ele>1875.5</ele>
<desc>Speed 6.6 km/h Distance 4.21 km</desc>
<time>2013-07-23T14:01:30.59</time>
<name>2274</name>
<sym>Dot</sym>
</trkpt>
<trkpt lat="48.888500" lon="20.083572">
<ele>1875.0</ele>
<desc>Speed 2.2 km/h Distance 4.21 km</desc>
<time>2013-07-23T14:01:41.90</time>
<name>2275</name>
<sym>Dot</sym>
</trkpt>
<trkpt lat="48.888492" lon="20.083550">
<ele>1874.5</ele>
<desc>Speed 3.9 km/h Distance 4.21 km</desc>
<time>2013-07-23T14:01:48.73</time>
<name>2276</name>
<sym>Dot</sym>
</trkpt>
<trkpt lat="48.888482" lon="20.083542">
<ele>1874.5</ele>
<desc>Speed 4.0 km/h Distance 4.21 km</desc>
<time>2013-07-23T14:01:49.58</time>
<name>2277</name>
<sym>Dot</sym>
</trkpt>
<trkpt lat="48.888470" lon="20.083533">
<ele>1874.5</ele>
<desc>Speed 5.1 km/h Distance 4.21 km</desc>
<time>2013-07-23T14:01:50.57</time>
<name>2278</name>
<sym>Dot</sym>
</trkpt>
<trkpt lat="48.888458" lon="20.083522">
<ele>1874.5</ele>
<desc>Speed 5.3 km/h Distance 4.21 km</desc>
<time>2013-07-23T14:01:51.57</time>
<name>2279</name>
<sym>Dot</sym>
</trkpt>
<trkpt lat="48.888452" lon="20.083505">
<ele>1875.0</ele>
<desc>Speed 5.0 km/h Distance 4.22 km</desc>
<time>2013-07-23T14:01:52.56</time>
<name>2280</name>
<sym>Dot</sym>
</trkpt>
<trkpt lat="48.888442" lon="20.083487">
<ele>1875.0</ele>
<desc>Speed 6.4 km/h Distance 4.22 km</desc>
<time>2013-07-23T14:01:53.56</time>
<name>2281</name>
<sym>Dot</sym>
</trkpt>
<trkpt lat="48.888437" lon="20.083467">
<ele>1875.5</ele>
<desc>Speed 5.4 km/h Distance 4.22 km</desc>
<time>2013-07-23T14:01:54.55</time>
<name>2282</name>
<sym>Dot</sym>
</trkpt>
<trkpt lat="48.888433" lon="20.083450">
<ele>1875.5</ele>
<desc>Speed 4.6 km/h Distance 4.22 km</desc>
<time>2013-07-23T14:01:55.55</time>
<name>2283</name>
<sym>Dot</sym>
</trkpt>
<trkpt lat="48.888430" lon="20.083420">
<ele>1876.0</ele>
<desc>Speed 2.5 km/h Distance 4.22 km</desc>
<time>2013-07-23T14:02:05.55</time>
<name>2284</name>
<sym>Dot</sym>
</trkpt>
<trkpt lat="48.888423" lon="20.083407">
<ele>1876.0</ele>
<desc>Speed 4.0 km/h Distance 4.22 km</desc>
<time>2013-07-23T14:02:06.54</time>
<name>2285</name>
<sym>Dot</sym>
</trkpt>
<trkpt lat="48.888418" lon="20.083393">
<ele>1876.0</ele>
<desc>Speed 4.5 km/h Distance 4.23 km</desc>
<time>2013-07-23T14:02:07.54</time>
<name>2286</name>
<sym>Dot</sym>
</trkpt>
<trkpt lat="48.888413" lon="20.083382">
<ele>1876.0</ele>
<desc>Speed 3.5 km/h Distance 4.23 km</desc>
<time>2013-07-23T14:02:08.53</time>
<name>2287</name>
<sym>Dot</sym>
</trkpt>
<trkpt lat="48.888412" lon="20.083373">
<ele>1876.0</ele>
<desc>Speed 2.7 km/h Distance 4.23 km</desc>
<time>2013-07-23T14:02:09.53</time>
<name>2288</name>
<sym>Dot</sym>
</trkpt>
<trkpt lat="48.888410" lon="20.083362">
<ele>1877.0</ele>
<desc>Speed 3.4 km/h Distance 4.23 km</desc>
<time>2013-07-23T14:02:10.56</time>
<name>2289</name>
<sym>Dot</sym>
</trkpt>
<trkpt lat="48.888407" lon="20.083353">
<ele>1877.0</ele>
<desc>Speed 2.6 km/h Distance 4.23 km</desc>
<time>2013-07-23T14:02:11.52</time>
<name>2290</name>
<sym>Dot</sym>
</trkpt>
<trkpt lat="48.888407" lon="20.083345">
<ele>1877.5</ele>
<desc>Speed 2.6 km/h Distance 4.23 km</desc>
<time>2013-07-23T14:02:12.52</time>
<name>2291</name>
<sym>Dot</sym>
</trkpt>
<trkpt lat="48.888403" lon="20.083330">
<ele>1878.0</ele>
<desc>Speed 2.6 km/h Distance 4.23 km</desc>
<time>2013-07-23T14:02:14.52</time>
<name>2292</name>
<sym>Dot</sym>
</trkpt>
<trkpt lat="48.888403" lon="20.083323">
<ele>1878.0</ele>
<desc>Speed 2.2 km/h Distance 4.23 km</desc>
<time>2013-07-23T14:02:15.52</time>
<name>2293</name>
<sym>Dot</sym>
</trkpt>
<trkpt lat="48.888400" lon="20.083313">
<ele>1878.0</ele>
<desc>Speed 3.3 km/h Distance 4.23 km</desc>
<time>2013-07-23T14:02:16.51</time>
<name>2294</name>
<sym>Dot</sym>
</trkpt>
<trkpt lat="48.888400" lon="20.083302">
<ele>1878.0</ele>
<desc>Speed 3.1 km/h Distance 4.23 km</desc>
<time>2013-07-23T14:02:17.51</time>
<name>2295</name>
<sym>Dot</sym>
</trkpt>
<trkpt lat="48.888397" lon="20.083292">
<ele>1878.0</ele>
<desc>Speed 3.0 km/h Distance 4.23 km</desc>
<time>2013-07-23T14:02:18.51</time>
<name>2296</name>
<sym>Dot</sym>
</trkpt>
<trkpt lat="48.888393" lon="20.083283">
<ele>1878.5</ele>
<desc>Speed 2.9 km/h Distance 4.23 km</desc>
<time>2013-07-23T14:02:19.51</time>
<name>2297</name>
<sym>Dot</sym>
</trkpt>
<trkpt lat="48.888388" lon="20.083272">
<ele>1878.5</ele>
<desc>Speed 3.6 km/h Distance 4.24 km</desc>
<time>2013-07-23T14:02:20.51</time>
<name>2298</name>
<sym>Dot</sym>
</trkpt>
<trkpt lat="48.888387" lon="20.083265">
<ele>1878.5</ele>
<desc>Speed 2.5 km/h Distance 4.24 km</desc>
<time>2013-07-23T14:02:21.60</time>
<name>2299</name>
<sym>Dot</sym>
</trkpt>
<trkpt lat="48.888383" lon="20.083257">
<ele>1878.5</ele>
<desc>Speed 2.5 km/h Distance 4.24 km</desc>
<time>2013-07-23T14:02:22.49</time>
<name>2300</name>
<sym>Dot</sym>
</trkpt>
<trkpt lat="48.888378" lon="20.083240">
<ele>1878.5</ele>
<desc>Speed 2.9 km/h Distance 4.24 km</desc>
<time>2013-07-23T14:02:24.51</time>
<name>2301</name>
<sym>Dot</sym>
</trkpt>
<trkpt lat="48.888375" lon="20.083227">
<ele>1878.5</ele>
<desc>Speed 3.7 km/h Distance 4.24 km</desc>
<time>2013-07-23T14:02:25.48</time>
<name>2302</name>
<sym>Dot</sym>
</trkpt>
<trkpt lat="48.888372" lon="20.083215">
<ele>1878.5</ele>
<desc>Speed 2.9 km/h Distance 4.24 km</desc>
<time>2013-07-23T14:02:26.47</time>
<name>2303</name>
<sym>Dot</sym>
</trkpt>
<trkpt lat="48.888367" lon="20.083197">
<ele>1878.5</ele>
<desc>Speed 3.3 km/h Distance 4.24 km</desc>
<time>2013-07-23T14:02:28.47</time>
<name>2304</name>
<sym>Dot</sym>
</trkpt>
<trkpt lat="48.888363" lon="20.083188">
<ele>1878.5</ele>
<desc>Speed 2.7 km/h Distance 4.24 km</desc>
<time>2013-07-23T14:02:29.46</time>
<name>2305</name>
<sym>Dot</sym>
</trkpt>
<trkpt lat="48.888358" lon="20.083175">
<ele>1879.0</ele>
<desc>Speed 3.4 km/h Distance 4.24 km</desc>
<time>2013-07-23T14:02:30.46</time>
<name>2306</name>
<sym>Dot</sym>
</trkpt>
<trkpt lat="48.888355" lon="20.083165">
<ele>1879.0</ele>
<desc>Speed 3.1 km/h Distance 4.24 km</desc>
<time>2013-07-23T14:02:31.46</time>
<name>2307</name>
<sym>Dot</sym>
</trkpt>
<trkpt lat="48.888352" lon="20.083157">
<ele>1879.0</ele>
<desc>Speed 2.2 km/h Distance 4.24 km</desc>
<time>2013-07-23T14:02:32.46</time>
<name>2308</name>
<sym>Dot</sym>
</trkpt>
<trkpt lat="48.888350" lon="20.083145">
<ele>1878.5</ele>
<desc>Speed 3.5 km/h Distance 4.25 km</desc>
<time>2013-07-23T14:02:33.45</time>
<name>2309</name>
<sym>Dot</sym>
</trkpt>
<trkpt lat="48.888347" lon="20.083135">
<ele>1878.0</ele>
<desc>Speed 2.7 km/h Distance 4.25 km</desc>
<time>2013-07-23T14:02:34.51</time>
<name>2310</name>
<sym>Dot</sym>
</trkpt>
<trkpt lat="48.888345" lon="20.083125">
<ele>1878.5</ele>
<desc>Speed 2.7 km/h Distance 4.25 km</desc>
<time>2013-07-23T14:02:35.44</time>
<name>2311</name>
<sym>Dot</sym>
</trkpt>
<trkpt lat="48.888343" lon="20.083115">
<ele>1878.5</ele>
<desc>Speed 2.6 km/h Distance 4.25 km</desc>
<time>2013-07-23T14:02:36.43</time>
<name>2312</name>
<sym>Dot</sym>
</trkpt>
<trkpt lat="48.888343" lon="20.083108">
<ele>1878.0</ele>
<desc>Speed 2.2 km/h Distance 4.25 km</desc>
<time>2013-07-23T14:02:37.43</time>
<name>2313</name>
<sym>Dot</sym>
</trkpt>
<trkpt lat="48.888343" lon="20.083092">
<ele>1878.5</ele>
<desc>Speed 2.3 km/h Distance 4.25 km</desc>
<time>2013-07-23T14:02:39.43</time>
<name>2314</name>
<sym>Dot</sym>
</trkpt>
<trkpt lat="48.888343" lon="20.083068">
<ele>1877.5</ele>
<desc>Speed 2.2 km/h Distance 4.25 km</desc>
<time>2013-07-23T14:02:42.43</time>
<name>2315</name>
<sym>Dot</sym>
</trkpt>
<trkpt lat="48.888342" lon="20.083058">
<ele>1878.0</ele>
<desc>Speed 2.4 km/h Distance 4.25 km</desc>
<time>2013-07-23T14:02:43.42</time>
<name>2316</name>
<sym>Dot</sym>
</trkpt>
<trkpt lat="48.888340" lon="20.083050">
<ele>1878.0</ele>
<desc>Speed 2.4 km/h Distance 4.25 km</desc>
<time>2013-07-23T14:02:44.42</time>
<name>2317</name>
<sym>Dot</sym>
</trkpt>
<trkpt lat="48.888340" lon="20.083023">
<ele>1878.5</ele>
<desc>Speed 2.4 km/h Distance 4.25 km</desc>
<time>2013-07-23T14:02:47.42</time>
<name>2318</name>
<sym>Dot</sym>
</trkpt>
<trkpt lat="48.888340" lon="20.083008">
<ele>1879.0</ele>
<desc>Speed 3.9 km/h Distance 4.26 km</desc>
<time>2013-07-23T14:02:48.41</time>
<name>2319</name>
<sym>Dot</sym>
</trkpt>
<trkpt lat="48.888340" lon="20.082995">
<ele>1879.5</ele>
<desc>Speed 3.2 km/h Distance 4.26 km</desc>
<time>2013-07-23T14:02:49.41</time>
<name>2320</name>
<sym>Dot</sym>
</trkpt>
<trkpt lat="48.888337" lon="20.082985">
<ele>1879.0</ele>
<desc>Speed 2.3 km/h Distance 4.26 km</desc>
<time>2013-07-23T14:02:50.40</time>
<name>2321</name>
<sym>Dot</sym>
</trkpt>
<trkpt lat="48.888335" lon="20.082972">
<ele>1879.5</ele>
<desc>Speed 3.7 km/h Distance 4.26 km</desc>
<time>2013-07-23T14:02:51.39</time>
<name>2322</name>
<sym>Dot</sym>
</trkpt>
<trkpt lat="48.888335" lon="20.082960">
<ele>1879.5</ele>
<desc>Speed 2.7 km/h Distance 4.26 km</desc>
<time>2013-07-23T14:02:52.38</time>
<name>2323</name>
<sym>Dot</sym>
</trkpt>
<trkpt lat="48.888333" lon="20.082952">
<ele>1879.0</ele>
<desc>Speed 2.3 km/h Distance 4.26 km</desc>
<time>2013-07-23T14:02:53.38</time>
<name>2324</name>
<sym>Dot</sym>
</trkpt>
<trkpt lat="48.888333" lon="20.082940">
<ele>1879.5</ele>
<desc>Speed 2.7 km/h Distance 4.26 km</desc>
<time>2013-07-23T14:02:54.38</time>
<name>2325</name>
<sym>Dot</sym>
</trkpt>
<trkpt lat="48.888332" lon="20.082922">
<ele>1879.0</ele>
<desc>Speed 2.7 km/h Distance 4.26 km</desc>
<time>2013-07-23T14:02:56.38</time>
<name>2326</name>
<sym>Dot</sym>
</trkpt>
<trkpt lat="48.888318" lon="20.082897">
<ele>1876.5</ele>
<desc>Speed 2.2 km/h Distance 4.26 km</desc>
<time>2013-07-23T14:03:09.38</time>
<name>2327</name>
<sym>Dot</sym>
</trkpt>
<trkpt lat="48.888313" lon="20.082882">
<ele>1875.0</ele>
<desc>Speed 4.2 km/h Distance 4.27 km</desc>
<time>2013-07-23T14:03:10.38</time>
<name>2328</name>
<sym>Dot</sym>
</trkpt>
<trkpt lat="48.888310" lon="20.082873">
<ele>1875.5</ele>
<desc>Speed 2.3 km/h Distance 4.27 km</desc>
<time>2013-07-23T14:03:11.38</time>
<name>2329</name>
<sym>Dot</sym>
</trkpt>
<trkpt lat="48.888302" lon="20.082847">
<ele>1874.5</ele>
<desc>Speed 3.0 km/h Distance 4.27 km</desc>
<time>2013-07-23T14:03:14.37</time>
<name>2330</name>
<sym>Dot</sym>
</trkpt>
<trkpt lat="48.888300" lon="20.082835">
<ele>1874.5</ele>
<desc>Speed 2.9 km/h Distance 4.27 km</desc>
<time>2013-07-23T14:03:15.36</time>
<name>2331</name>
<sym>Dot</sym>
</trkpt>
<trkpt lat="48.888300" lon="20.082827">
<ele>1874.5</ele>
<desc>Speed 2.2 km/h Distance 4.27 km</desc>
<time>2013-07-23T14:03:16.36</time>
<name>2332</name>
<sym>Dot</sym>
</trkpt>
<trkpt lat="48.888288" lon="20.082783">
<ele>1876.0</ele>
<desc>Speed 2.8 km/h Distance 4.27 km</desc>
<time>2013-07-23T14:03:24.36</time>
<name>2333</name>
<sym>Dot</sym>
</trkpt>
<trkpt lat="48.888278" lon="20.082760">
<ele>1875.5</ele>
<desc>Speed 2.5 km/h Distance 4.28 km</desc>
<time>2013-07-23T14:03:27.35</time>
<name>2334</name>
<sym>Dot</sym>
</trkpt>
<trkpt lat="48.888275" lon="20.082702">
<ele>1874.5</ele>
<desc>Speed 2.3 km/h Distance 4.28 km</desc>
<time>2013-07-23T14:05:57.34</time>
<name>2335</name>
<sym>Dot</sym>
</trkpt>
<trkpt lat="48.888280" lon="20.082707">
<ele>1877.5</ele>
<desc>Speed 3.4 km/h Distance 4.28 km</desc>
<time>2013-07-23T14:09:39.37</time>
<name>2336</name>
<sym>Dot</sym>
</trkpt>
<trkpt lat="48.888253" lon="20.082710">
<ele>1875.0</ele>
<desc>Speed 4.6 km/h Distance 4.28 km</desc>
<time>2013-07-23T14:10:20.37</time>
<name>2337</name>
<sym>Dot</sym>
</trkpt>
<trkpt lat="48.888258" lon="20.082697">
<ele>1875.0</ele>
<desc>Speed 3.7 km/h Distance 4.28 km</desc>
<time>2013-07-23T14:12:53.34</time>
<name>2338</name>
<sym>Dot</sym>
</trkpt>
<trkpt lat="48.888262" lon="20.082688">
<ele>1875.0</ele>
<desc>Speed 2.4 km/h Distance 4.29 km</desc>
<time>2013-07-23T14:12:54.34</time>
<name>2339</name>
<sym>Dot</sym>
</trkpt>
<trkpt lat="48.888255" lon="20.082705">
<ele>1875.0</ele>
<desc>Speed 4.4 km/h Distance 4.29 km</desc>
<time>2013-07-23T14:12:56.33</time>
<name>2340</name>
<sym>Dot</sym>
</trkpt>
<trkpt lat="48.888262" lon="20.082692">
<ele>1875.0</ele>
<desc>Speed 3.0 km/h Distance 4.29 km</desc>
<time>2013-07-23T14:12:57.33</time>
<name>2341</name>
<sym>Dot</sym>
</trkpt>
<trkpt lat="48.888245" lon="20.082673">
<ele>1874.0</ele>
<desc>Speed 8.9 km/h Distance 4.29 km</desc>
<time>2013-07-23T14:13:37.32</time>
<name>2342</name>
<sym>Dot</sym>
</trkpt>
<trkpt lat="48.888207" lon="20.082722">
<ele>1874.5</ele>
<desc>Speed 2.6 km/h Distance 4.30 km</desc>
<time>2013-07-23T14:13:43.32</time>
<name>2343</name>
<sym>Dot</sym>
</trkpt>
<trkpt lat="48.888247" lon="20.082698">
<ele>1873.5</ele>
<desc>Speed 2.7 km/h Distance 4.30 km</desc>
<time>2013-07-23T14:15:17.31</time>
<name>2344</name>
<sym>Dot</sym>
</trkpt>
<trkpt lat="48.888262" lon="20.082680">
<ele>1874.5</ele>
<desc>Speed 2.7 km/h Distance 4.30 km</desc>
<time>2013-07-23T14:15:45.30</time>
<name>2345</name>
<sym>Dot</sym>
</trkpt>
<trkpt lat="48.888263" lon="20.082663">
<ele>1876.0</ele>
<desc>Speed 4.0 km/h Distance 4.30 km</desc>
<time>2013-07-23T14:15:46.36</time>
<name>2346</name>
<sym>Dot</sym>
</trkpt>
<trkpt lat="48.888270" lon="20.082672">
<ele>1876.5</ele>
<desc>Speed 2.2 km/h Distance 4.30 km</desc>
<time>2013-07-23T14:16:02.29</time>
<name>2347</name>
<sym>Dot</sym>
</trkpt>
<trkpt lat="48.888268" lon="20.082675">
<ele>1876.0</ele>
<desc>Speed 2.4 km/h Distance 4.31 km</desc>
<time>2013-07-23T14:16:07.28</time>
<name>2348</name>
<sym>Dot</sym>
</trkpt>
<trkpt lat="48.888275" lon="20.082632">
<ele>1876.0</ele>
<desc>Speed 2.6 km/h Distance 4.31 km</desc>
<time>2013-07-23T14:16:49.28</time>
<name>2349</name>
<sym>Dot</sym>
</trkpt>
<trkpt lat="48.888277" lon="20.082613">
<ele>1878.0</ele>
<desc>Speed 2.6 km/h Distance 4.31 km</desc>
<time>2013-07-23T14:16:52.27</time>
<name>2350</name>
<sym>Dot</sym>
</trkpt>
<trkpt lat="48.888275" lon="20.082605">
<ele>1878.0</ele>
<desc>Speed 3.3 km/h Distance 4.31 km</desc>
<time>2013-07-23T14:16:53.28</time>
<name>2351</name>
<sym>Dot</sym>
</trkpt>
<trkpt lat="48.888270" lon="20.082593">
<ele>1878.0</ele>
<desc>Speed 3.7 km/h Distance 4.31 km</desc>
<time>2013-07-23T14:16:54.37</time>
<name>2352</name>
<sym>Dot</sym>
</trkpt>
<trkpt lat="48.888267" lon="20.082587">
<ele>1877.5</ele>
<desc>Speed 3.1 km/h Distance 4.31 km</desc>
<time>2013-07-23T14:16:55.25</time>
<name>2353</name>
<sym>Dot</sym>
</trkpt>
<trkpt lat="48.888262" lon="20.082577">
<ele>1877.5</ele>
<desc>Speed 3.0 km/h Distance 4.31 km</desc>
<time>2013-07-23T14:16:56.26</time>
<name>2354</name>
<sym>Dot</sym>
</trkpt>
<trkpt lat="48.888262" lon="20.082567">
<ele>1877.0</ele>
<desc>Speed 2.7 km/h Distance 4.31 km</desc>
<time>2013-07-23T14:16:57.25</time>
<name>2355</name>
<sym>Dot</sym>
</trkpt>
<trkpt lat="48.888260" lon="20.082555">
<ele>1877.0</ele>
<desc>Speed 3.0 km/h Distance 4.31 km</desc>
<time>2013-07-23T14:16:58.25</time>
<name>2356</name>
<sym>Dot</sym>
</trkpt>
<trkpt lat="48.888252" lon="20.082532">
<ele>1877.0</ele>
<desc>Speed 2.2 km/h Distance 4.32 km</desc>
<time>2013-07-23T14:17:02.08</time>
<name>2357</name>
<sym>Dot</sym>
</trkpt>
<trkpt lat="48.888237" lon="20.082492">
<ele>1875.5</ele>
<desc>Speed 2.9 km/h Distance 4.32 km</desc>
<time>2013-07-23T14:17:11.24</time>
<name>2358</name>
<sym>Dot</sym>
</trkpt>
<trkpt lat="48.888235" lon="20.082482">
<ele>1875.5</ele>
<desc>Speed 2.9 km/h Distance 4.32 km</desc>
<time>2013-07-23T14:17:12.23</time>
<name>2359</name>
<sym>Dot</sym>
</trkpt>
<trkpt lat="48.888232" lon="20.082473">
<ele>1875.5</ele>
<desc>Speed 2.9 km/h Distance 4.32 km</desc>
<time>2013-07-23T14:17:13.23</time>
<name>2360</name>
<sym>Dot</sym>
</trkpt>
<trkpt lat="48.888227" lon="20.082455">
<ele>1874.5</ele>
<desc>Speed 3.0 km/h Distance 4.32 km</desc>
<time>2013-07-23T14:17:15.23</time>
<name>2361</name>
<sym>Dot</sym>
</trkpt>
<trkpt lat="48.888225" lon="20.082442">
<ele>1874.5</ele>
<desc>Speed 3.9 km/h Distance 4.32 km</desc>
<time>2013-07-23T14:17:16.22</time>
<name>2362</name>
<sym>Dot</sym>
</trkpt>
<trkpt lat="48.888225" lon="20.082428">
<ele>1874.5</ele>
<desc>Speed 3.5 km/h Distance 4.32 km</desc>
<time>2013-07-23T14:17:17.21</time>
<name>2363</name>
<sym>Dot</sym>
</trkpt>
<trkpt lat="48.888223" lon="20.082417">
<ele>1874.5</ele>
<desc>Speed 3.3 km/h Distance 4.33 km</desc>
<time>2013-07-23T14:17:18.21</time>
<name>2364</name>
<sym>Dot</sym>
</trkpt>
<trkpt lat="48.888222" lon="20.082408">
<ele>1874.0</ele>
<desc>Speed 2.5 km/h Distance 4.33 km</desc>
<time>2013-07-23T14:17:19.20</time>
<name>2365</name>
<sym>Dot</sym>
</trkpt>
<trkpt lat="48.888212" lon="20.082393">
<ele>1872.5</ele>
<desc>Speed 2.9 km/h Distance 4.33 km</desc>
<time>2013-07-23T14:17:24.20</time>
<name>2366</name>
<sym>Dot</sym>
</trkpt>
<trkpt lat="48.888208" lon="20.082385">
<ele>1872.0</ele>
<desc>Speed 2.4 km/h Distance 4.33 km</desc>
<time>2013-07-23T14:17:25.19</time>
<name>2367</name>
<sym>Dot</sym>
</trkpt>
<trkpt lat="48.888208" lon="20.082392">
<ele>1867.5</ele>
<desc>Speed 3.1 km/h Distance 4.33 km</desc>
<time>2013-07-23T14:17:52.19</time>
<name>2368</name>
<sym>Dot</sym>
</trkpt>
<trkpt lat="48.888203" lon="20.082378">
<ele>1868.0</ele>
<desc>Speed 2.2 km/h Distance 4.33 km</desc>
<time>2013-07-23T14:18:07.57</time>
<name>2369</name>
<sym>Dot</sym>
</trkpt>
<trkpt lat="48.888182" lon="20.082372">
<ele>1867.0</ele>
<desc>Speed 2.2 km/h Distance 4.33 km</desc>
<time>2013-07-23T14:18:20.41</time>
<name>2370</name>
<sym>Dot</sym>
</trkpt>
<trkpt lat="48.888167" lon="20.082362">
<ele>1866.0</ele>
<desc>Speed 2.5 km/h Distance 4.33 km</desc>
<time>2013-07-23T14:18:28.40</time>
<name>2371</name>
<sym>Dot</sym>
</trkpt>
<trkpt lat="48.888160" lon="20.082360">
<ele>1865.0</ele>
<desc>Speed 2.4 km/h Distance 4.34 km</desc>
<time>2013-07-23T14:18:33.39</time>
<name>2372</name>
<sym>Dot</sym>
</trkpt>
<trkpt lat="48.888198" lon="20.082400">
<ele>1871.5</ele>
<desc>Speed 2.4 km/h Distance 4.34 km</desc>
<time>2013-07-23T14:18:46.39</time>
<name>2373</name>
<sym>Dot</sym>
</trkpt>
<trkpt lat="48.888175" lon="20.082333">
<ele>1872.0</ele>
<desc>Speed 10.1 km/h Distance 4.35 km</desc>
<time>2013-07-23T14:18:48.38</time>
<name>2374</name>
<sym>Dot</sym>
</trkpt>
<trkpt lat="48.888163" lon="20.082292">
<ele>1872.5</ele>
<desc>Speed 12.2 km/h Distance 4.35 km</desc>
<time>2013-07-23T14:18:49.38</time>
<name>2375</name>
<sym>Dot</sym>
</trkpt>
<trkpt lat="48.888157" lon="20.082248">
<ele>1873.5</ele>
<desc>Speed 12.7 km/h Distance 4.35 km</desc>
<time>2013-07-23T14:18:50.37</time>
<name>2376</name>
<sym>Dot</sym>
</trkpt>
<trkpt lat="48.888145" lon="20.082207">
<ele>1873.0</ele>
<desc>Speed 11.7 km/h Distance 4.36 km</desc>
<time>2013-07-23T14:18:51.36</time>
<name>2377</name>
<sym>Dot</sym>
</trkpt>
<trkpt lat="48.888142" lon="20.082168">
<ele>1873.0</ele>
<desc>Speed 10.8 km/h Distance 4.36 km</desc>
<time>2013-07-23T14:18:52.36</time>
<name>2378</name>
<sym>Dot</sym>
</trkpt>
<trkpt lat="48.888137" lon="20.082137">
<ele>1872.5</ele>
<desc>Speed 9.0 km/h Distance 4.36 km</desc>
<time>2013-07-23T14:18:53.36</time>
<name>2379</name>
<sym>Dot</sym>
</trkpt>
<trkpt lat="48.888138" lon="20.082110">
<ele>1872.5</ele>
<desc>Speed 7.2 km/h Distance 4.36 km</desc>
<time>2013-07-23T14:18:54.36</time>
<name>2380</name>
<sym>Dot</sym>
</trkpt>
<trkpt lat="48.888137" lon="20.082085">
<ele>1872.5</ele>
<desc>Speed 6.7 km/h Distance 4.36 km</desc>
<time>2013-07-23T14:18:55.35</time>
<name>2381</name>
<sym>Dot</sym>
</trkpt>
<trkpt lat="48.888138" lon="20.082047">
<ele>1872.0</ele>
<desc>Speed 10.2 km/h Distance 4.37 km</desc>
<time>2013-07-23T14:18:56.34</time>
<name>2382</name>
<sym>Dot</sym>
</trkpt>
<trkpt lat="48.888138" lon="20.082010">
<ele>1871.5</ele>
<desc>Speed 9.8 km/h Distance 4.37 km</desc>
<time>2013-07-23T14:18:57.38</time>
<name>2383</name>
<sym>Dot</sym>
</trkpt>
<trkpt lat="48.888150" lon="20.081978">
<ele>1872.0</ele>
<desc>Speed 9.6 km/h Distance 4.37 km</desc>
<time>2013-07-23T14:18:58.32</time>
<name>2384</name>
<sym>Dot</sym>
</trkpt>
<trkpt lat="48.888153" lon="20.081945">
<ele>1871.5</ele>
<desc>Speed 9.0 km/h Distance 4.38 km</desc>
<time>2013-07-23T14:18:59.31</time>
<name>2385</name>
<sym>Dot</sym>
</trkpt>
<trkpt lat="48.888160" lon="20.081917">
<ele>1871.5</ele>
<desc>Speed 7.7 km/h Distance 4.38 km</desc>
<time>2013-07-23T14:19:00.31</time>
<name>2386</name>
<sym>Dot</sym>
</trkpt>
<trkpt lat="48.888168" lon="20.081898">
<ele>1871.5</ele>
<desc>Speed 5.5 km/h Distance 4.38 km</desc>
<time>2013-07-23T14:19:01.30</time>
<name>2387</name>
<sym>Dot</sym>
</trkpt>
<trkpt lat="48.888177" lon="20.081880">
<ele>1871.5</ele>
<desc>Speed 5.9 km/h Distance 4.38 km</desc>
<time>2013-07-23T14:19:02.30</time>
<name>2388</name>
<sym>Dot</sym>
</trkpt>
<trkpt lat="48.888158" lon="20.081858">
<ele>1867.0</ele>
<desc>Speed 5.5 km/h Distance 4.38 km</desc>
<time>2013-07-23T14:19:03.29</time>
<name>2389</name>
<sym>Dot</sym>
</trkpt>
<trkpt lat="48.888163" lon="20.081843">
<ele>1866.0</ele>
<desc>Speed 4.5 km/h Distance 4.38 km</desc>
<time>2013-07-23T14:19:04.28</time>
<name>2390</name>
<sym>Dot</sym>
</trkpt>
<trkpt lat="48.888168" lon="20.081827">
<ele>1865.0</ele>
<desc>Speed 4.5 km/h Distance 4.39 km</desc>
<time>2013-07-23T14:19:05.29</time>
<name>2391</name>
<sym>Dot</sym>
</trkpt>
<trkpt lat="48.888177" lon="20.081810">
<ele>1864.5</ele>
<desc>Speed 6.1 km/h Distance 4.39 km</desc>
<time>2013-07-23T14:19:06.28</time>
<name>2392</name>
<sym>Dot</sym>
</trkpt>
<trkpt lat="48.888180" lon="20.081792">
<ele>1863.0</ele>
<desc>Speed 5.2 km/h Distance 4.39 km</desc>
<time>2013-07-23T14:19:07.28</time>
<name>2393</name>
<sym>Dot</sym>
</trkpt>
<trkpt lat="48.888187" lon="20.081763">
<ele>1860.5</ele>
<desc>Speed 3.1 km/h Distance 4.39 km</desc>
<time>2013-07-23T14:19:12.27</time>
<name>2394</name>
<sym>Dot</sym>
</trkpt>
<trkpt lat="48.888190" lon="20.081753">
<ele>1860.0</ele>
<desc>Speed 2.7 km/h Distance 4.39 km</desc>
<time>2013-07-23T14:19:13.27</time>
<name>2395</name>
<sym>Dot</sym>
</trkpt>
<trkpt lat="48.888197" lon="20.081742">
<ele>1859.5</ele>
<desc>Speed 3.6 km/h Distance 4.39 km</desc>
<time>2013-07-23T14:19:14.32</time>
<name>2396</name>
<sym>Dot</sym>
</trkpt>
<trkpt lat="48.888203" lon="20.081727">
<ele>1859.5</ele>
<desc>Speed 4.5 km/h Distance 4.39 km</desc>
<time>2013-07-23T14:19:15.26</time>
<name>2397</name>
<sym>Dot</sym>
</trkpt>
<trkpt lat="48.888205" lon="20.081712">
<ele>1859.5</ele>
<desc>Speed 4.3 km/h Distance 4.40 km</desc>
<time>2013-07-23T14:19:16.26</time>
<name>2398</name>
<sym>Dot</sym>
</trkpt>
<trkpt lat="48.888205" lon="20.081697">
<ele>1859.0</ele>
<desc>Speed 3.7 km/h Distance 4.40 km</desc>
<time>2013-07-23T14:19:17.26</time>
<name>2399</name>
<sym>Dot</sym>
</trkpt>
<trkpt lat="48.888207" lon="20.081678">
<ele>1859.0</ele>
<desc>Speed 5.1 km/h Distance 4.40 km</desc>
<time>2013-07-23T14:19:18.25</time>
<name>2400</name>
<sym>Dot</sym>
</trkpt>
<trkpt lat="48.888208" lon="20.081667">
<ele>1859.0</ele>
<desc>Speed 3.3 km/h Distance 4.40 km</desc>
<time>2013-07-23T14:19:19.25</time>
<name>2401</name>
<sym>Dot</sym>
</trkpt>
<trkpt lat="48.888215" lon="20.081652">
<ele>1859.0</ele>
<desc>Speed 4.6 km/h Distance 4.40 km</desc>
<time>2013-07-23T14:19:20.25</time>
<name>2402</name>
<sym>Dot</sym>
</trkpt>
<trkpt lat="48.888223" lon="20.081637">
<ele>1859.0</ele>
<desc>Speed 4.9 km/h Distance 4.40 km</desc>
<time>2013-07-23T14:19:21.24</time>
<name>2403</name>
<sym>Dot</sym>
</trkpt>
<trkpt lat="48.888232" lon="20.081622">
<ele>1859.0</ele>
<desc>Speed 5.0 km/h Distance 4.40 km</desc>
<time>2013-07-23T14:19:22.24</time>
<name>2404</name>
<sym>Dot</sym>
</trkpt>
<trkpt lat="48.888242" lon="20.081608">
<ele>1859.0</ele>
<desc>Speed 4.9 km/h Distance 4.40 km</desc>
<time>2013-07-23T14:19:23.24</time>
<name>2405</name>
<sym>Dot</sym>
</trkpt>
<trkpt lat="48.888247" lon="20.081597">
<ele>1859.0</ele>
<desc>Speed 2.9 km/h Distance 4.41 km</desc>
<time>2013-07-23T14:19:24.23</time>
<name>2406</name>
<sym>Dot</sym>
</trkpt>
<trkpt lat="48.888255" lon="20.081583">
<ele>1859.5</ele>
<desc>Speed 4.4 km/h Distance 4.41 km</desc>
<time>2013-07-23T14:19:25.23</time>
<name>2407</name>
<sym>Dot</sym>
</trkpt>
<trkpt lat="48.888262" lon="20.081568">
<ele>1859.5</ele>
<desc>Speed 3.9 km/h Distance 4.41 km</desc>
<time>2013-07-23T14:19:26.22</time>
<name>2408</name>
<sym>Dot</sym>
</trkpt>
<trkpt lat="48.888275" lon="20.081553">
<ele>1860.0</ele>
<desc>Speed 5.4 km/h Distance 4.41 km</desc>
<time>2013-07-23T14:19:27.21</time>
<name>2409</name>
<sym>Dot</sym>
</trkpt>
<trkpt lat="48.888280" lon="20.081535">
<ele>1859.5</ele>
<desc>Speed 5.2 km/h Distance 4.41 km</desc>
<time>2013-07-23T14:19:28.21</time>
<name>2410</name>
<sym>Dot</sym>
</trkpt>
<trkpt lat="48.888285" lon="20.081518">
<ele>1859.0</ele>
<desc>Speed 4.3 km/h Distance 4.41 km</desc>
<time>2013-07-23T14:19:29.20</time>
<name>2411</name>
<sym>Dot</sym>
</trkpt>
<trkpt lat="48.888290" lon="20.081505">
<ele>1859.0</ele>
<desc>Speed 4.0 km/h Distance 4.41 km</desc>
<time>2013-07-23T14:19:30.20</time>
<name>2412</name>
<sym>Dot</sym>
</trkpt>
<trkpt lat="48.888297" lon="20.081492">
<ele>1858.5</ele>
<desc>Speed 3.9 km/h Distance 4.42 km</desc>
<time>2013-07-23T14:19:31.20</time>
<name>2413</name>
<sym>Dot</sym>
</trkpt>
<trkpt lat="48.888302" lon="20.081478">
<ele>1857.5</ele>
<desc>Speed 3.6 km/h Distance 4.42 km</desc>
<time>2013-07-23T14:19:32.19</time>
<name>2414</name>
<sym>Dot</sym>
</trkpt>
<trkpt lat="48.888310" lon="20.081463">
<ele>1858.0</ele>
<desc>Speed 4.5 km/h Distance 4.42 km</desc>
<time>2013-07-23T14:19:33.19</time>
<name>2415</name>
<sym>Dot</sym>
</trkpt>
<trkpt lat="48.888313" lon="20.081447">
<ele>1857.0</ele>
<desc>Speed 4.4 km/h Distance 4.42 km</desc>
<time>2013-07-23T14:19:34.18</time>
<name>2416</name>
<sym>Dot</sym>
</trkpt>
<trkpt lat="48.888318" lon="20.081435">
<ele>1857.0</ele>
<desc>Speed 3.1 km/h Distance 4.42 km</desc>
<time>2013-07-23T14:19:35.18</time>
<name>2417</name>
<sym>Dot</sym>
</trkpt>
<trkpt lat="48.888323" lon="20.081422">
<ele>1857.5</ele>
<desc>Speed 4.0 km/h Distance 4.42 km</desc>
<time>2013-07-23T14:19:36.17</time>
<name>2418</name>
<sym>Dot</sym>
</trkpt>
<trkpt lat="48.888337" lon="20.081408">
<ele>1857.5</ele>
<desc>Speed 6.1 km/h Distance 4.42 km</desc>
<time>2013-07-23T14:19:37.18</time>
<name>2419</name>
<sym>Dot</sym>
</trkpt>
<trkpt lat="48.888342" lon="20.081397">
<ele>1857.0</ele>
<desc>Speed 3.9 km/h Distance 4.42 km</desc>
<time>2013-07-23T14:19:38.17</time>
<name>2420</name>
<sym>Dot</sym>
</trkpt>
<trkpt lat="48.888350" lon="20.081383">
<ele>1856.5</ele>
<desc>Speed 4.5 km/h Distance 4.43 km</desc>
<time>2013-07-23T14:19:39.17</time>
<name>2421</name>
<sym>Dot</sym>
</trkpt>
<trkpt lat="48.888358" lon="20.081370">
<ele>1857.0</ele>
<desc>Speed 4.1 km/h Distance 4.43 km</desc>
<time>2013-07-23T14:19:40.17</time>
<name>2422</name>
<sym>Dot</sym>
</trkpt>
<trkpt lat="48.888363" lon="20.081357">
<ele>1856.5</ele>
<desc>Speed 4.0 km/h Distance 4.43 km</desc>
<time>2013-07-23T14:19:41.17</time>
<name>2423</name>
<sym>Dot</sym>
</trkpt>
<trkpt lat="48.888367" lon="20.081343">
<ele>1856.5</ele>
<desc>Speed 3.7 km/h Distance 4.43 km</desc>
<time>2013-07-23T14:19:42.16</time>
<name>2424</name>
<sym>Dot</sym>
</trkpt>
<trkpt lat="48.888367" lon="20.081335">
<ele>1856.5</ele>
<desc>Speed 2.4 km/h Distance 4.43 km</desc>
<time>2013-07-23T14:19:43.16</time>
<name>2425</name>
<sym>Dot</sym>
</trkpt>
<trkpt lat="48.888367" lon="20.081322">
<ele>1855.5</ele>
<desc>Speed 3.5 km/h Distance 4.43 km</desc>
<time>2013-07-23T14:19:44.16</time>
<name>2426</name>
<sym>Dot</sym>
</trkpt>
<trkpt lat="48.888370" lon="20.081307">
<ele>1855.0</ele>
<desc>Speed 4.3 km/h Distance 4.43 km</desc>
<time>2013-07-23T14:19:45.16</time>
<name>2427</name>
<sym>Dot</sym>
</trkpt>
<trkpt lat="48.888372" lon="20.081297">
<ele>1854.5</ele>
<desc>Speed 2.9 km/h Distance 4.43 km</desc>
<time>2013-07-23T14:19:46.15</time>
<name>2428</name>
<sym>Dot</sym>
</trkpt>
<trkpt lat="48.888373" lon="20.081280">
<ele>1853.0</ele>
<desc>Speed 2.2 km/h Distance 4.43 km</desc>
<time>2013-07-23T14:19:49.15</time>
<name>2429</name>
<sym>Dot</sym>
</trkpt>
<trkpt lat="48.888372" lon="20.081268">
<ele>1852.0</ele>
<desc>Speed 2.8 km/h Distance 4.43 km</desc>
<time>2013-07-23T14:19:50.15</time>
<name>2430</name>
<sym>Dot</sym>
</trkpt>
<trkpt lat="48.888370" lon="20.081253">
<ele>1852.0</ele>
<desc>Speed 3.6 km/h Distance 4.44 km</desc>
<time>2013-07-23T14:19:51.15</time>
<name>2431</name>
<sym>Dot</sym>
</trkpt>
<trkpt lat="48.888368" lon="20.081235">
<ele>1851.0</ele>
<desc>Speed 2.4 km/h Distance 4.44 km</desc>
<time>2013-07-23T14:19:53.15</time>
<name>2432</name>
<sym>Dot</sym>
</trkpt>
<trkpt lat="48.888372" lon="20.081220">
<ele>1850.0</ele>
<desc>Speed 2.6 km/h Distance 4.44 km</desc>
<time>2013-07-23T14:19:57.15</time>
<name>2433</name>
<sym>Dot</sym>
</trkpt>
<trkpt lat="48.888380" lon="20.081215">
<ele>1849.0</ele>
<desc>Speed 3.7 km/h Distance 4.44 km</desc>
<time>2013-07-23T14:19:58.14</time>
<name>2434</name>
<sym>Dot</sym>
</trkpt>
<trkpt lat="48.888388" lon="20.081213">
<ele>1848.5</ele>
<desc>Speed 4.5 km/h Distance 4.44 km</desc>
<time>2013-07-23T14:19:59.13</time>
<name>2435</name>
<sym>Dot</sym>
</trkpt>
<trkpt lat="48.888393" lon="20.081212">
<ele>1848.0</ele>
<desc>Speed 2.8 km/h Distance 4.44 km</desc>
<time>2013-07-23T14:20:00.13</time>
<name>2436</name>
<sym>Dot</sym>
</trkpt>
<trkpt lat="48.888405" lon="20.081177">
<ele>1845.5</ele>
<desc>Speed 4.0 km/h Distance 4.44 km</desc>
<time>2013-07-23T14:21:05.13</time>
<name>2437</name>
<sym>Dot</sym>
</trkpt>
<trkpt lat="48.888428" lon="20.081160">
<ele>1846.0</ele>
<desc>Speed 10.0 km/h Distance 4.45 km</desc>
<time>2013-07-23T14:21:06.12</time>
<name>2438</name>
<sym>Dot</sym>
</trkpt>
<trkpt lat="48.888442" lon="20.081138">
<ele>1845.5</ele>
<desc>Speed 7.9 km/h Distance 4.45 km</desc>
<time>2013-07-23T14:21:07.11</time>
<name>2439</name>
<sym>Dot</sym>
</trkpt>
<trkpt lat="48.888457" lon="20.081112">
<ele>1845.5</ele>
<desc>Speed 9.0 km/h Distance 4.45 km</desc>
<time>2013-07-23T14:21:08.11</time>
<name>2440</name>
<sym>Dot</sym>
</trkpt>
<trkpt lat="48.888472" lon="20.081083">
<ele>1846.0</ele>
<desc>Speed 9.1 km/h Distance 4.45 km</desc>
<time>2013-07-23T14:21:09.11</time>
<name>2441</name>
<sym>Dot</sym>
</trkpt>
<trkpt lat="48.888478" lon="20.081053">
<ele>1846.0</ele>
<desc>Speed 8.0 km/h Distance 4.46 km</desc>
<time>2013-07-23T14:21:10.11</time>
<name>2442</name>
<sym>Dot</sym>
</trkpt>
<trkpt lat="48.888487" lon="20.081015">
<ele>1845.0</ele>
<desc>Speed 8.9 km/h Distance 4.46 km</desc>
<time>2013-07-23T14:21:11.10</time>
<name>2443</name>
<sym>Dot</sym>
</trkpt>
<trkpt lat="48.888507" lon="20.080973">
<ele>1845.0</ele>
<desc>Speed 14.0 km/h Distance 4.46 km</desc>
<time>2013-07-23T14:21:12.10</time>
<name>2444</name>
<sym>Dot</sym>
</trkpt>
<trkpt lat="48.888527" lon="20.080912">
<ele>1845.0</ele>
<desc>Speed 14.6 km/h Distance 4.47 km</desc>
<time>2013-07-23T14:21:13.10</time>
<name>2445</name>
<sym>Dot</sym>
</trkpt>
<trkpt lat="48.888542" lon="20.080877">
<ele>1846.0</ele>
<desc>Speed 10.4 km/h Distance 4.47 km</desc>
<time>2013-07-23T14:21:14.10</time>
<name>2446</name>
<sym>Dot</sym>
</trkpt>
<trkpt lat="48.888548" lon="20.080853">
<ele>1845.5</ele>
<desc>Speed 10.4 km/h Distance 4.47 km</desc>
<time>2013-07-23T14:21:15.09</time>
<name>2447</name>
<sym>Dot</sym>
</trkpt>
<trkpt lat="48.888553" lon="20.080820">
<ele>1845.0</ele>
<desc>Speed 10.1 km/h Distance 4.48 km</desc>
<time>2013-07-23T14:21:16.09</time>
<name>2448</name>
<sym>Dot</sym>
</trkpt>
<trkpt lat="48.888568" lon="20.080797">
<ele>1845.0</ele>
<desc>Speed 9.1 km/h Distance 4.48 km</desc>
<time>2013-07-23T14:21:17.09</time>
<name>2449</name>
<sym>Dot</sym>
</trkpt>
<trkpt lat="48.888587" lon="20.080778">
<ele>1844.5</ele>
<desc>Speed 8.7 km/h Distance 4.48 km</desc>
<time>2013-07-23T14:21:18.08</time>
<name>2450</name>
<sym>Dot</sym>
</trkpt>
<trkpt lat="48.888603" lon="20.080758">
<ele>1844.0</ele>
<desc>Speed 8.1 km/h Distance 4.48 km</desc>
<time>2013-07-23T14:21:19.09</time>
<name>2451</name>
<sym>Dot</sym>
</trkpt>
<trkpt lat="48.888622" lon="20.080735">
<ele>1843.0</ele>
<desc>Speed 9.4 km/h Distance 4.49 km</desc>
<time>2013-07-23T14:21:20.07</time>
<name>2452</name>
<sym>Dot</sym>
</trkpt>
<trkpt lat="48.888637" lon="20.080703">
<ele>1842.5</ele>
<desc>Speed 10.5 km/h Distance 4.49 km</desc>
<time>2013-07-23T14:21:21.07</time>
<name>2453</name>
<sym>Dot</sym>
</trkpt>
<trkpt lat="48.888645" lon="20.080665">
<ele>1841.5</ele>
<desc>Speed 10.3 km/h Distance 4.49 km</desc>
<time>2013-07-23T14:21:22.08</time>
<name>2454</name>
<sym>Dot</sym>
</trkpt>
<trkpt lat="48.888657" lon="20.080633">
<ele>1840.5</ele>
<desc>Speed 12.0 km/h Distance 4.49 km</desc>
<time>2013-07-23T14:21:23.07</time>
<name>2455</name>
<sym>Dot</sym>
</trkpt>
<trkpt lat="48.888675" lon="20.080598">
<ele>1839.5</ele>
<desc>Speed 14.0 km/h Distance 4.50 km</desc>
<time>2013-07-23T14:21:24.07</time>
<name>2456</name>
<sym>Dot</sym>
</trkpt>
<trkpt lat="48.888692" lon="20.080558">
<ele>1838.5</ele>
<desc>Speed 12.4 km/h Distance 4.50 km</desc>
<time>2013-07-23T14:21:25.07</time>
<name>2457</name>
<sym>Dot</sym>
</trkpt>
<trkpt lat="48.888708" lon="20.080527">
<ele>1838.0</ele>
<desc>Speed 11.2 km/h Distance 4.50 km</desc>
<time>2013-07-23T14:21:26.06</time>
<name>2458</name>
<sym>Dot</sym>
</trkpt>
<trkpt lat="48.888720" lon="20.080497">
<ele>1837.0</ele>
<desc>Speed 9.5 km/h Distance 4.51 km</desc>
<time>2013-07-23T14:21:27.06</time>
<name>2459</name>
<sym>Dot</sym>
</trkpt>
<trkpt lat="48.888735" lon="20.080470">
<ele>1837.0</ele>
<desc>Speed 9.7 km/h Distance 4.51 km</desc>
<time>2013-07-23T14:21:28.05</time>
<name>2460</name>
<sym>Dot</sym>
</trkpt>
<trkpt lat="48.888755" lon="20.080443">
<ele>1837.0</ele>
<desc>Speed 10.6 km/h Distance 4.51 km</desc>
<time>2013-07-23T14:21:29.05</time>
<name>2461</name>
<sym>Dot</sym>
</trkpt>
<trkpt lat="48.888773" lon="20.080412">
<ele>1836.5</ele>
<desc>Speed 11.6 km/h Distance 4.51 km</desc>
<time>2013-07-23T14:21:30.05</time>
<name>2462</name>
<sym>Dot</sym>
</trkpt>
<trkpt lat="48.888785" lon="20.080375">
<ele>1835.0</ele>
<desc>Speed 11.9 km/h Distance 4.52 km</desc>
<time>2013-07-23T14:21:31.05</time>
<name>2463</name>
<sym>Dot</sym>
</trkpt>
<trkpt lat="48.888798" lon="20.080330">
<ele>1834.5</ele>
<desc>Speed 12.0 km/h Distance 4.52 km</desc>
<time>2013-07-23T14:21:32.04</time>
<name>2464</name>
<sym>Dot</sym>
</trkpt>
<trkpt lat="48.888812" lon="20.080297">
<ele>1834.0</ele>
<desc>Speed 9.5 km/h Distance 4.52 km</desc>
<time>2013-07-23T14:21:33.04</time>
<name>2465</name>
<sym>Dot</sym>
</trkpt>
<trkpt lat="48.888825" lon="20.080270">
<ele>1833.0</ele>
<desc>Speed 8.3 km/h Distance 4.53 km</desc>
<time>2013-07-23T14:21:34.04</time>
<name>2466</name>
<sym>Dot</sym>
</trkpt>
<trkpt lat="48.888837" lon="20.080248">
<ele>1832.0</ele>
<desc>Speed 7.4 km/h Distance 4.53 km</desc>
<time>2013-07-23T14:21:35.03</time>
<name>2467</name>
<sym>Dot</sym>
</trkpt>
<trkpt lat="48.888847" lon="20.080232">
<ele>1831.5</ele>
<desc>Speed 6.3 km/h Distance 4.53 km</desc>
<time>2013-07-23T14:21:36.03</time>
<name>2468</name>
<sym>Dot</sym>
</trkpt>
<trkpt lat="48.888860" lon="20.080205">
<ele>1830.5</ele>
<desc>Speed 8.8 km/h Distance 4.53 km</desc>
<time>2013-07-23T14:21:37.02</time>
<name>2469</name>
<sym>Dot</sym>
</trkpt>
<trkpt lat="48.888858" lon="20.080160">
<ele>1830.5</ele>
<desc>Speed 12.3 km/h Distance 4.54 km</desc>
<time>2013-07-23T14:21:38.27</time>
<name>2470</name>
<sym>Dot</sym>
</trkpt>
<trkpt lat="48.888875" lon="20.080123">
<ele>1830.0</ele>
<desc>Speed 12.0 km/h Distance 4.54 km</desc>
<time>2013-07-23T14:21:39.02</time>
<name>2471</name>
<sym>Dot</sym>
</trkpt>
<trkpt lat="48.888887" lon="20.080092">
<ele>1828.5</ele>
<desc>Speed 9.6 km/h Distance 4.54 km</desc>
<time>2013-07-23T14:21:40.02</time>
<name>2472</name>
<sym>Dot</sym>
</trkpt>
<trkpt lat="48.888907" lon="20.080068">
<ele>1828.5</ele>
<desc>Speed 10.4 km/h Distance 4.54 km</desc>
<time>2013-07-23T14:21:41.01</time>
<name>2473</name>
<sym>Dot</sym>
</trkpt>
<trkpt lat="48.888925" lon="20.080045">
<ele>1828.5</ele>
<desc>Speed 8.9 km/h Distance 4.55 km</desc>
<time>2013-07-23T14:21:42.15</time>
<name>2474</name>
<sym>Dot</sym>
</trkpt>
<trkpt lat="48.888932" lon="20.080025">
<ele>1828.0</ele>
<desc>Speed 6.2 km/h Distance 4.55 km</desc>
<time>2013-07-23T14:21:43.00</time>
<name>2475</name>
<sym>Dot</sym>
</trkpt>
<trkpt lat="48.888938" lon="20.080002">
<ele>1827.5</ele>
<desc>Speed 7.3 km/h Distance 4.55 km</desc>
<time>2013-07-23T14:21:43.99</time>
<name>2476</name>
<sym>Dot</sym>
</trkpt>
<trkpt lat="48.888965" lon="20.079910">
<ele>1825.5</ele>
<desc>Speed 12.5 km/h Distance 4.56 km</desc>
<time>2013-07-23T14:21:45.98</time>
<name>2477</name>
<sym>Dot</sym>
</trkpt>
<trkpt lat="48.888983" lon="20.079875">
<ele>1826.0</ele>
<desc>Speed 11.4 km/h Distance 4.56 km</desc>
<time>2013-07-23T14:21:46.97</time>
<name>2478</name>
<sym>Dot</sym>
</trkpt>
<trkpt lat="48.889010" lon="20.079842">
<ele>1827.5</ele>
<desc>Speed 13.8 km/h Distance 4.57 km</desc>
<time>2013-07-23T14:21:47.97</time>
<name>2479</name>
<sym>Dot</sym>
</trkpt>
<trkpt lat="48.889027" lon="20.079808">
<ele>1828.0</ele>
<desc>Speed 10.8 km/h Distance 4.57 km</desc>
<time>2013-07-23T14:21:48.96</time>
<name>2480</name>
<sym>Dot</sym>
</trkpt>
<trkpt lat="48.889045" lon="20.079767">
<ele>1828.0</ele>
<desc>Speed 13.3 km/h Distance 4.57 km</desc>
<time>2013-07-23T14:21:50.07</time>
<name>2481</name>
<sym>Dot</sym>
</trkpt>
<trkpt lat="48.889065" lon="20.079715">
<ele>1828.5</ele>
<desc>Speed 15.7 km/h Distance 4.58 km</desc>
<time>2013-07-23T14:21:51.26</time>
<name>2482</name>
<sym>Dot</sym>
</trkpt>
<trkpt lat="48.889077" lon="20.079680">
<ele>1828.0</ele>
<desc>Speed 10.6 km/h Distance 4.58 km</desc>
<time>2013-07-23T14:21:51.95</time>
<name>2483</name>
<sym>Dot</sym>
</trkpt>
<trkpt lat="48.889087" lon="20.079648">
<ele>1828.0</ele>
<desc>Speed 9.7 km/h Distance 4.58 km</desc>
<time>2013-07-23T14:21:52.95</time>
<name>2484</name>
<sym>Dot</sym>
</trkpt>
<trkpt lat="48.889098" lon="20.079603">
<ele>1827.5</ele>
<desc>Speed 13.2 km/h Distance 4.59 km</desc>
<time>2013-07-23T14:21:53.95</time>
<name>2485</name>
<sym>Dot</sym>
</trkpt>
<trkpt lat="48.889115" lon="20.079548">
<ele>1827.5</ele>
<desc>Speed 16.1 km/h Distance 4.59 km</desc>
<time>2013-07-23T14:21:54.95</time>
<name>2486</name>
<sym>Dot</sym>
</trkpt>
<trkpt lat="48.889142" lon="20.079502">
<ele>1827.5</ele>
<desc>Speed 15.9 km/h Distance 4.59 km</desc>
<time>2013-07-23T14:21:55.93</time>
<name>2487</name>
<sym>Dot</sym>
</trkpt>
<trkpt lat="48.889168" lon="20.079458">
<ele>1827.0</ele>
<desc>Speed 16.0 km/h Distance 4.60 km</desc>
<time>2013-07-23T14:21:56.93</time>
<name>2488</name>
<sym>Dot</sym>
</trkpt>
<trkpt lat="48.889188" lon="20.079417">
<ele>1826.0</ele>
<desc>Speed 13.6 km/h Distance 4.60 km</desc>
<time>2013-07-23T14:21:58.09</time>
<name>2489</name>
<sym>Dot</sym>
</trkpt>
<trkpt lat="48.889210" lon="20.079370">
<ele>1824.5</ele>
<desc>Speed 15.8 km/h Distance 4.61 km</desc>
<time>2013-07-23T14:21:58.92</time>
<name>2490</name>
<sym>Dot</sym>
</trkpt>
<trkpt lat="48.889240" lon="20.079313">
<ele>1823.0</ele>
<desc>Speed 19.4 km/h Distance 4.61 km</desc>
<time>2013-07-23T14:21:59.91</time>
<name>2491</name>
<sym>Dot</sym>
</trkpt>
<trkpt lat="48.889275" lon="20.079263">
<ele>1822.0</ele>
<desc>Speed 19.6 km/h Distance 4.62 km</desc>
<time>2013-07-23T14:22:00.91</time>
<name>2492</name>
<sym>Dot</sym>
</trkpt>
<trkpt lat="48.889313" lon="20.079220">
<ele>1822.5</ele>
<desc>Speed 18.3 km/h Distance 4.62 km</desc>
<time>2013-07-23T14:22:01.91</time>
<name>2493</name>
<sym>Dot</sym>
</trkpt>
<trkpt lat="48.889348" lon="20.079175">
<ele>1822.0</ele>
<desc>Speed 18.3 km/h Distance 4.63 km</desc>
<time>2013-07-23T14:22:02.90</time>
<name>2494</name>
<sym>Dot</sym>
</trkpt>
<trkpt lat="48.889375" lon="20.079130">
<ele>1822.0</ele>
<desc>Speed 16.0 km/h Distance 4.63 km</desc>
<time>2013-07-23T14:22:03.90</time>
<name>2495</name>
<sym>Dot</sym>
</trkpt>
<trkpt lat="48.889402" lon="20.079092">
<ele>1821.5</ele>
<desc>Speed 14.9 km/h Distance 4.64 km</desc>
<time>2013-07-23T14:22:04.90</time>
<name>2496</name>
<sym>Dot</sym>
</trkpt>
<trkpt lat="48.889425" lon="20.079048">
<ele>1821.0</ele>
<desc>Speed 15.0 km/h Distance 4.64 km</desc>
<time>2013-07-23T14:22:05.90</time>
<name>2497</name>
<sym>Dot</sym>
</trkpt>
<trkpt lat="48.889447" lon="20.079005">
<ele>1820.0</ele>
<desc>Speed 14.4 km/h Distance 4.64 km</desc>
<time>2013-07-23T14:22:06.89</time>
<name>2498</name>
<sym>Dot</sym>
</trkpt>
<trkpt lat="48.889467" lon="20.078967">
<ele>1818.0</ele>
<desc>Speed 14.4 km/h Distance 4.65 km</desc>
<time>2013-07-23T14:22:07.88</time>
<name>2499</name>
<sym>Dot</sym>
</trkpt>
<trkpt lat="48.889492" lon="20.078918">
<ele>1816.5</ele>
<desc>Speed 16.7 km/h Distance 4.65 km</desc>
<time>2013-07-23T14:22:08.87</time>
<name>2500</name>
<sym>Dot</sym>
</trkpt>
<trkpt lat="48.889513" lon="20.078853">
<ele>1816.5</ele>
<desc>Speed 19.7 km/h Distance 4.66 km</desc>
<time>2013-07-23T14:22:09.87</time>
<name>2501</name>
<sym>Dot</sym>
</trkpt>
<trkpt lat="48.889540" lon="20.078785">
<ele>1816.0</ele>
<desc>Speed 21.0 km/h Distance 4.66 km</desc>
<time>2013-07-23T14:22:10.87</time>
<name>2502</name>
<sym>Dot</sym>
</trkpt>
<trkpt lat="48.889558" lon="20.078718">
<ele>1815.5</ele>
<desc>Speed 19.2 km/h Distance 4.67 km</desc>
<time>2013-07-23T14:22:11.87</time>
<name>2503</name>
<sym>Dot</sym>
</trkpt>
<trkpt lat="48.889582" lon="20.078658">
<ele>1814.5</ele>
<desc>Speed 18.1 km/h Distance 4.67 km</desc>
<time>2013-07-23T14:22:12.86</time>
<name>2504</name>
<sym>Dot</sym>
</trkpt>
<trkpt lat="48.889610" lon="20.078600">
<ele>1813.5</ele>
<desc>Speed 19.7 km/h Distance 4.68 km</desc>
<time>2013-07-23T14:22:13.86</time>
<name>2505</name>
<sym>Dot</sym>
</trkpt>
<trkpt lat="48.889645" lon="20.078517">
<ele>1813.0</ele>
<desc>Speed 26.2 km/h Distance 4.69 km</desc>
<time>2013-07-23T14:22:14.86</time>
<name>2506</name>
<sym>Dot</sym>
</trkpt>
<trkpt lat="48.889693" lon="20.078388">
<ele>1813.0</ele>
<desc>Speed 21.6 km/h Distance 4.70 km</desc>
<time>2013-07-23T14:22:16.85</time>
<name>2507</name>
<sym>Dot</sym>
</trkpt>
<trkpt lat="48.889718" lon="20.078337">
<ele>1811.5</ele>
<desc>Speed 18.1 km/h Distance 4.70 km</desc>
<time>2013-07-23T14:22:17.84</time>
<name>2508</name>
<sym>Dot</sym>
</trkpt>
<trkpt lat="48.889745" lon="20.078283">
<ele>1811.5</ele>
<desc>Speed 8.1 km/h Distance 4.71 km</desc>
<time>2013-07-23T14:22:19.83</time>
<name>2509</name>
<sym>Dot</sym>
</trkpt>
<trkpt lat="48.889748" lon="20.078273">
<ele>1811.0</ele>
<desc>Speed 3.1 km/h Distance 4.71 km</desc>
<time>2013-07-23T14:22:20.83</time>
<name>2510</name>
<sym>Dot</sym>
</trkpt>
<trkpt lat="48.889737" lon="20.078258">
<ele>1809.5</ele>
<desc>Speed 5.5 km/h Distance 4.71 km</desc>
<time>2013-07-23T14:22:21.83</time>
<name>2511</name>
<sym>Dot</sym>
</trkpt>
<trkpt lat="48.889727" lon="20.078282">
<ele>1808.0</ele>
<desc>Speed 3.7 km/h Distance 4.71 km</desc>
<time>2013-07-23T14:22:36.82</time>
<name>2512</name>
<sym>Dot</sym>
</trkpt>
<trkpt lat="48.889715" lon="20.078290">
<ele>1808.0</ele>
<desc>Speed 4.2 km/h Distance 4.71 km</desc>
<time>2013-07-23T14:22:48.04</time>
<name>2513</name>
<sym>Dot</sym>
</trkpt>
<trkpt lat="48.889732" lon="20.078280">
<ele>1809.0</ele>
<desc>Speed 3.1 km/h Distance 4.71 km</desc>
<time>2013-07-23T14:22:52.81</time>
<name>2514</name>
<sym>Dot</sym>
</trkpt>
<trkpt lat="48.889735" lon="20.078273">
<ele>1809.0</ele>
<desc>Speed 2.4 km/h Distance 4.72 km</desc>
<time>2013-07-23T14:22:53.81</time>
<name>2515</name>
<sym>Dot</sym>
</trkpt>
<trkpt lat="48.889737" lon="20.078267">
<ele>1809.0</ele>
<desc>Speed 2.3 km/h Distance 4.72 km</desc>
<time>2013-07-23T14:22:54.81</time>
<name>2516</name>
<sym>Dot</sym>
</trkpt>
<trkpt lat="48.889742" lon="20.078242">
<ele>1808.0</ele>
<desc>Speed 4.9 km/h Distance 4.72 km</desc>
<time>2013-07-23T14:22:57.81</time>
<name>2517</name>
<sym>Dot</sym>
</trkpt>
<trkpt lat="48.889748" lon="20.078223">
<ele>1807.5</ele>
<desc>Speed 5.4 km/h Distance 4.72 km</desc>
<time>2013-07-23T14:22:58.81</time>
<name>2518</name>
<sym>Dot</sym>
</trkpt>
<trkpt lat="48.889755" lon="20.078222">
<ele>1808.0</ele>
<desc>Speed 2.2 km/h Distance 4.72 km</desc>
<time>2013-07-23T14:22:59.84</time>
<name>2519</name>
<sym>Dot</sym>
</trkpt>
<trkpt lat="48.889748" lon="20.078217">
<ele>1807.0</ele>
<desc>Speed 2.6 km/h Distance 4.72 km</desc>
<time>2013-07-23T14:23:00.80</time>
<name>2520</name>
<sym>Dot</sym>
</trkpt>
<trkpt lat="48.889753" lon="20.078207">
<ele>1806.0</ele>
<desc>Speed 2.7 km/h Distance 4.72 km</desc>
<time>2013-07-23T14:23:11.80</time>
<name>2521</name>
<sym>Dot</sym>
</trkpt>
<trkpt lat="48.889780" lon="20.078197">
<ele>1809.0</ele>
<desc>Speed 2.2 km/h Distance 4.73 km</desc>
<time>2013-07-23T14:23:20.79</time>
<name>2522</name>
<sym>Dot</sym>
</trkpt>
<trkpt lat="48.889793" lon="20.078178">
<ele>1810.0</ele>
<desc>Speed 4.0 km/h Distance 4.73 km</desc>
<time>2013-07-23T14:23:22.79</time>
<name>2523</name>
<sym>Dot</sym>
</trkpt>
<trkpt lat="48.889798" lon="20.078165">
<ele>1810.5</ele>
<desc>Speed 3.9 km/h Distance 4.73 km</desc>
<time>2013-07-23T14:23:23.79</time>
<name>2524</name>
<sym>Dot</sym>
</trkpt>
<trkpt lat="48.889798" lon="20.078143">
<ele>1810.0</ele>
<desc>Speed 5.8 km/h Distance 4.73 km</desc>
<time>2013-07-23T14:23:24.78</time>
<name>2525</name>
<sym>Dot</sym>
</trkpt>
<trkpt lat="48.889798" lon="20.078132">
<ele>1809.5</ele>
<desc>Speed 3.0 km/h Distance 4.73 km</desc>
<time>2013-07-23T14:23:25.79</time>
<name>2526</name>
<sym>Dot</sym>
</trkpt>
<trkpt lat="48.889792" lon="20.078118">
<ele>1808.0</ele>
<desc>Speed 2.9 km/h Distance 4.73 km</desc>
<time>2013-07-23T14:23:27.77</time>
<name>2527</name>
<sym>Dot</sym>
</trkpt>
<trkpt lat="48.889792" lon="20.078100">
<ele>1808.0</ele>
<desc>Speed 4.2 km/h Distance 4.73 km</desc>
<time>2013-07-23T14:23:28.76</time>
<name>2528</name>
<sym>Dot</sym>
</trkpt>
<trkpt lat="48.889792" lon="20.078077">
<ele>1807.5</ele>
<desc>Speed 5.7 km/h Distance 4.73 km</desc>
<time>2013-07-23T14:23:29.75</time>
<name>2529</name>
<sym>Dot</sym>
</trkpt>
<trkpt lat="48.889792" lon="20.078050">
<ele>1806.5</ele>
<desc>Speed 6.8 km/h Distance 4.74 km</desc>
<time>2013-07-23T14:23:30.75</time>
<name>2530</name>
<sym>Dot</sym>
</trkpt>
<trkpt lat="48.889798" lon="20.078015">
<ele>1806.0</ele>
<desc>Speed 9.5 km/h Distance 4.74 km</desc>
<time>2013-07-23T14:23:31.95</time>
<name>2531</name>
<sym>Dot</sym>
</trkpt>
<trkpt lat="48.889810" lon="20.077980">
<ele>1806.5</ele>
<desc>Speed 10.0 km/h Distance 4.74 km</desc>
<time>2013-07-23T14:23:32.85</time>
<name>2532</name>
<sym>Dot</sym>
</trkpt>
<trkpt lat="48.889820" lon="20.077942">
<ele>1807.0</ele>
<desc>Speed 10.0 km/h Distance 4.75 km</desc>
<time>2013-07-23T14:23:33.73</time>
<name>2533</name>
<sym>Dot</sym>
</trkpt>
<trkpt lat="48.889823" lon="20.077902">
<ele>1806.0</ele>
<desc>Speed 10.7 km/h Distance 4.75 km</desc>
<time>2013-07-23T14:23:34.72</time>
<name>2534</name>
<sym>Dot</sym>
</trkpt>
<trkpt lat="48.889828" lon="20.077865">
<ele>1805.5</ele>
<desc>Speed 9.7 km/h Distance 4.75 km</desc>
<time>2013-07-23T14:23:35.72</time>
<name>2535</name>
<sym>Dot</sym>
</trkpt>
<trkpt lat="48.889832" lon="20.077828">
<ele>1805.5</ele>
<desc>Speed 9.1 km/h Distance 4.75 km</desc>
<time>2013-07-23T14:23:36.76</time>
<name>2536</name>
<sym>Dot</sym>
</trkpt>
<trkpt lat="48.889838" lon="20.077800">
<ele>1806.0</ele>
<desc>Speed 7.4 km/h Distance 4.76 km</desc>
<time>2013-07-23T14:23:37.71</time>
<name>2537</name>
<sym>Dot</sym>
</trkpt>
<trkpt lat="48.889840" lon="20.077770">
<ele>1805.0</ele>
<desc>Speed 7.5 km/h Distance 4.76 km</desc>
<time>2013-07-23T14:23:38.70</time>
<name>2538</name>
<sym>Dot</sym>
</trkpt>
<trkpt lat="48.889845" lon="20.077742">
<ele>1805.0</ele>
<desc>Speed 7.8 km/h Distance 4.76 km</desc>
<time>2013-07-23T14:23:39.69</time>
<name>2539</name>
<sym>Dot</sym>
</trkpt>
<trkpt lat="48.889848" lon="20.077712">
<ele>1804.5</ele>
<desc>Speed 8.2 km/h Distance 4.76 km</desc>
<time>2013-07-23T14:23:40.69</time>
<name>2540</name>
<sym>Dot</sym>
</trkpt>
<trkpt lat="48.889848" lon="20.077682">
<ele>1803.5</ele>
<desc>Speed 7.7 km/h Distance 4.76 km</desc>
<time>2013-07-23T14:23:41.68</time>
<name>2541</name>
<sym>Dot</sym>
</trkpt>
<trkpt lat="48.889848" lon="20.077653">
<ele>1802.5</ele>
<desc>Speed 7.5 km/h Distance 4.77 km</desc>
<time>2013-07-23T14:23:42.68</time>
<name>2542</name>
<sym>Dot</sym>
</trkpt>
<trkpt lat="48.889852" lon="20.077623">
<ele>1802.5</ele>
<desc>Speed 7.9 km/h Distance 4.77 km</desc>
<time>2013-07-23T14:23:43.74</time>
<name>2543</name>
<sym>Dot</sym>
</trkpt>
<trkpt lat="48.889852" lon="20.077597">
<ele>1802.0</ele>
<desc>Speed 7.2 km/h Distance 4.77 km</desc>
<time>2013-07-23T14:23:44.67</time>
<name>2544</name>
<sym>Dot</sym>
</trkpt>
<trkpt lat="48.889855" lon="20.077565">
<ele>1802.0</ele>
<desc>Speed 8.1 km/h Distance 4.77 km</desc>
<time>2013-07-23T14:23:45.67</time>
<name>2545</name>
<sym>Dot</sym>
</trkpt>
<trkpt lat="48.889858" lon="20.077523">
<ele>1801.0</ele>
<desc>Speed 10.9 km/h Distance 4.78 km</desc>
<time>2013-07-23T14:23:46.67</time>
<name>2546</name>
<sym>Dot</sym>
</trkpt>
<trkpt lat="48.889868" lon="20.077482">
<ele>1801.5</ele>
<desc>Speed 11.6 km/h Distance 4.78 km</desc>
<time>2013-07-23T14:23:47.66</time>
<name>2547</name>
<sym>Dot</sym>
</trkpt>
<trkpt lat="48.889877" lon="20.077438">
<ele>1801.5</ele>
<desc>Speed 11.6 km/h Distance 4.78 km</desc>
<time>2013-07-23T14:23:48.66</time>
<name>2548</name>
<sym>Dot</sym>
</trkpt>
<trkpt lat="48.889885" lon="20.077402">
<ele>1801.5</ele>
<desc>Speed 10.2 km/h Distance 4.79 km</desc>
<time>2013-07-23T14:23:49.65</time>
<name>2549</name>
<sym>Dot</sym>
</trkpt>
<trkpt lat="48.889897" lon="20.077373">
<ele>1802.0</ele>
<desc>Speed 8.7 km/h Distance 4.79 km</desc>
<time>2013-07-23T14:23:50.65</time>
<name>2550</name>
<sym>Dot</sym>
</trkpt>
<trkpt lat="48.889903" lon="20.077352">
<ele>1802.5</ele>
<desc>Speed 6.9 km/h Distance 4.79 km</desc>
<time>2013-07-23T14:23:51.67</time>
<name>2551</name>
<sym>Dot</sym>
</trkpt>
<trkpt lat="48.889905" lon="20.077325">
<ele>1802.0</ele>
<desc>Speed 6.8 km/h Distance 4.79 km</desc>
<time>2013-07-23T14:23:52.65</time>
<name>2552</name>
<sym>Dot</sym>
</trkpt>
<trkpt lat="48.889907" lon="20.077297">
<ele>1802.0</ele>
<desc>Speed 7.6 km/h Distance 4.79 km</desc>
<time>2013-07-23T14:23:53.64</time>
<name>2553</name>
<sym>Dot</sym>
</trkpt>
<trkpt lat="48.889912" lon="20.077267">
<ele>1802.0</ele>
<desc>Speed 8.8 km/h Distance 4.80 km</desc>
<time>2013-07-23T14:23:54.63</time>
<name>2554</name>
<sym>Dot</sym>
</trkpt>
<trkpt lat="48.889918" lon="20.077230">
<ele>1802.0</ele>
<desc>Speed 9.8 km/h Distance 4.80 km</desc>
<time>2013-07-23T14:23:55.63</time>
<name>2555</name>
<sym>Dot</sym>
</trkpt>
<trkpt lat="48.889932" lon="20.077190">
<ele>1802.0</ele>
<desc>Speed 12.2 km/h Distance 4.80 km</desc>
<time>2013-07-23T14:23:56.63</time>
<name>2556</name>
<sym>Dot</sym>
</trkpt>
<trkpt lat="48.889945" lon="20.077147">
<ele>1802.0</ele>
<desc>Speed 12.8 km/h Distance 4.81 km</desc>
<time>2013-07-23T14:23:57.63</time>
<name>2557</name>
<sym>Dot</sym>
</trkpt>
<trkpt lat="48.889957" lon="20.077097">
<ele>1802.0</ele>
<desc>Speed 14.1 km/h Distance 4.81 km</desc>
<time>2013-07-23T14:23:58.62</time>
<name>2558</name>
<sym>Dot</sym>
</trkpt>
<trkpt lat="48.889963" lon="20.077045">
<ele>1801.5</ele>
<desc>Speed 14.1 km/h Distance 4.81 km</desc>
<time>2013-07-23T14:23:59.62</time>
<name>2559</name>
<sym>Dot</sym>
</trkpt>
<trkpt lat="48.889968" lon="20.076997">
<ele>1801.5</ele>
<desc>Speed 13.4 km/h Distance 4.82 km</desc>
<time>2013-07-23T14:24:00.61</time>
<name>2560</name>
<sym>Dot</sym>
</trkpt>
<trkpt lat="48.889975" lon="20.076948">
<ele>1801.5</ele>
<desc>Speed 13.0 km/h Distance 4.82 km</desc>
<time>2013-07-23T14:24:01.61</time>
<name>2561</name>
<sym>Dot</sym>
</trkpt>
<trkpt lat="48.889983" lon="20.076900">
<ele>1801.5</ele>
<desc>Speed 12.6 km/h Distance 4.82 km</desc>
<time>2013-07-23T14:24:02.61</time>
<name>2562</name>
<sym>Dot</sym>
</trkpt>
<trkpt lat="48.889983" lon="20.076863">
<ele>1800.0</ele>
<desc>Speed 9.9 km/h Distance 4.83 km</desc>
<time>2013-07-23T14:24:03.61</time>
<name>2563</name>
<sym>Dot</sym>
</trkpt>
<trkpt lat="48.889990" lon="20.076825">
<ele>1800.0</ele>
<desc>Speed 10.1 km/h Distance 4.83 km</desc>
<time>2013-07-23T14:24:04.63</time>
<name>2564</name>
<sym>Dot</sym>
</trkpt>
<trkpt lat="48.889998" lon="20.076783">
<ele>1800.0</ele>
<desc>Speed 11.6 km/h Distance 4.83 km</desc>
<time>2013-07-23T14:24:05.60</time>
<name>2565</name>
<sym>Dot</sym>
</trkpt>
<trkpt lat="48.890008" lon="20.076740">
<ele>1800.0</ele>
<desc>Speed 11.8 km/h Distance 4.84 km</desc>
<time>2013-07-23T14:24:06.59</time>
<name>2566</name>
<sym>Dot</sym>
</trkpt>
<trkpt lat="48.890022" lon="20.076703">
<ele>1801.0</ele>
<desc>Speed 10.5 km/h Distance 4.84 km</desc>
<time>2013-07-23T14:24:07.59</time>
<name>2567</name>
<sym>Dot</sym>
</trkpt>
<trkpt lat="48.890033" lon="20.076667">
<ele>1802.0</ele>
<desc>Speed 10.4 km/h Distance 4.84 km</desc>
<time>2013-07-23T14:24:08.59</time>
<name>2568</name>
<sym>Dot</sym>
</trkpt>
<trkpt lat="48.890038" lon="20.076628">
<ele>1802.0</ele>
<desc>Speed 10.7 km/h Distance 4.85 km</desc>
<time>2013-07-23T14:24:09.73</time>
<name>2569</name>
<sym>Dot</sym>
</trkpt>
<trkpt lat="48.890040" lon="20.076587">
<ele>1801.5</ele>
<desc>Speed 11.2 km/h Distance 4.85 km</desc>
<time>2013-07-23T14:24:10.58</time>
<name>2570</name>
<sym>Dot</sym>
</trkpt>
<trkpt lat="48.890042" lon="20.076553">
<ele>1801.5</ele>
<desc>Speed 9.4 km/h Distance 4.85 km</desc>
<time>2013-07-23T14:24:11.57</time>
<name>2571</name>
<sym>Dot</sym>
</trkpt>
<trkpt lat="48.890050" lon="20.076520">
<ele>1801.5</ele>
<desc>Speed 9.3 km/h Distance 4.85 km</desc>
<time>2013-07-23T14:24:12.59</time>
<name>2572</name>
<sym>Dot</sym>
</trkpt>
<trkpt lat="48.890063" lon="20.076488">
<ele>1801.5</ele>
<desc>Speed 9.5 km/h Distance 4.86 km</desc>
<time>2013-07-23T14:24:13.58</time>
<name>2573</name>
<sym>Dot</sym>
</trkpt>
<trkpt lat="48.890077" lon="20.076463">
<ele>1802.5</ele>
<desc>Speed 8.2 km/h Distance 4.86 km</desc>
<time>2013-07-23T14:24:14.56</time>
<name>2574</name>
<sym>Dot</sym>
</trkpt>
<trkpt lat="48.890083" lon="20.076425">
<ele>1802.0</ele>
<desc>Speed 10.4 km/h Distance 4.86 km</desc>
<time>2013-07-23T14:24:15.56</time>
<name>2575</name>
<sym>Dot</sym>
</trkpt>
<trkpt lat="48.890100" lon="20.076390">
<ele>1803.5</ele>
<desc>Speed 10.8 km/h Distance 4.86 km</desc>
<time>2013-07-23T14:24:16.55</time>
<name>2576</name>
<sym>Dot</sym>
</trkpt>
<trkpt lat="48.890107" lon="20.076353">
<ele>1803.5</ele>
<desc>Speed 10.7 km/h Distance 4.87 km</desc>
<time>2013-07-23T14:24:17.69</time>
<name>2577</name>
<sym>Dot</sym>
</trkpt>
<trkpt lat="48.890115" lon="20.076317">
<ele>1803.0</ele>
<desc>Speed 10.5 km/h Distance 4.87 km</desc>
<time>2013-07-23T14:24:18.54</time>
<name>2578</name>
<sym>Dot</sym>
</trkpt>
<trkpt lat="48.890125" lon="20.076282">
<ele>1802.5</ele>
<desc>Speed 9.7 km/h Distance 4.87 km</desc>
<time>2013-07-23T14:24:19.53</time>
<name>2579</name>
<sym>Dot</sym>
</trkpt>
<trkpt lat="48.890135" lon="20.076253">
<ele>1803.0</ele>
<desc>Speed 8.3 km/h Distance 4.88 km</desc>
<time>2013-07-23T14:24:20.53</time>
<name>2580</name>
<sym>Dot</sym>
</trkpt>
<trkpt lat="48.890137" lon="20.076223">
<ele>1802.0</ele>
<desc>Speed 8.0 km/h Distance 4.88 km</desc>
<time>2013-07-23T14:24:21.53</time>
<name>2581</name>
<sym>Dot</sym>
</trkpt>
<trkpt lat="48.890152" lon="20.076195">
<ele>1803.0</ele>
<desc>Speed 9.2 km/h Distance 4.88 km</desc>
<time>2013-07-23T14:24:22.52</time>
<name>2582</name>
<sym>Dot</sym>
</trkpt>
<trkpt lat="48.890178" lon="20.076163">
<ele>1806.0</ele>
<desc>Speed 10.3 km/h Distance 4.88 km</desc>
<time>2013-07-23T14:24:23.51</time>
<name>2583</name>
<sym>Dot</sym>
</trkpt>
<trkpt lat="48.890190" lon="20.076143">
<ele>1807.0</ele>
<desc>Speed 6.4 km/h Distance 4.89 km</desc>
<time>2013-07-23T14:24:24.51</time>
<name>2584</name>
<sym>Dot</sym>
</trkpt>
<trkpt lat="48.890200" lon="20.076150">
<ele>1807.0</ele>
<desc>Speed 3.3 km/h Distance 4.89 km</desc>
<time>2013-07-23T14:24:25.51</time>
<name>2585</name>
<sym>Dot</sym>
</trkpt>
<trkpt lat="48.890202" lon="20.076132">
<ele>1805.5</ele>
<desc>Speed 4.0 km/h Distance 4.89 km</desc>
<time>2013-07-23T14:24:28.50</time>
<name>2586</name>
<sym>Dot</sym>
</trkpt>
<trkpt lat="48.890205" lon="20.076117">
<ele>1804.5</ele>
<desc>Speed 3.7 km/h Distance 4.89 km</desc>
<time>2013-07-23T14:24:29.49</time>
<name>2587</name>
<sym>Dot</sym>
</trkpt>
<trkpt lat="48.890220" lon="20.076100">
<ele>1805.0</ele>
<desc>Speed 3.5 km/h Distance 4.89 km</desc>
<time>2013-07-23T14:24:31.49</time>
<name>2588</name>
<sym>Dot</sym>
</trkpt>
<trkpt lat="48.890225" lon="20.076083">
<ele>1805.0</ele>
<desc>Speed 4.4 km/h Distance 4.89 km</desc>
<time>2013-07-23T14:24:32.49</time>
<name>2589</name>
<sym>Dot</sym>
</trkpt>
<trkpt lat="48.890232" lon="20.076068">
<ele>1806.0</ele>
<desc>Speed 4.6 km/h Distance 4.89 km</desc>
<time>2013-07-23T14:24:33.49</time>
<name>2590</name>
<sym>Dot</sym>
</trkpt>
<trkpt lat="48.890232" lon="20.076060">
<ele>1805.5</ele>
<desc>Speed 2.4 km/h Distance 4.90 km</desc>
<time>2013-07-23T14:24:34.48</time>
<name>2591</name>
<sym>Dot</sym>
</trkpt>
<trkpt lat="48.890233" lon="20.076045">
<ele>1805.0</ele>
<desc>Speed 4.2 km/h Distance 4.90 km</desc>
<time>2013-07-23T14:24:35.48</time>
<name>2592</name>
<sym>Dot</sym>
</trkpt>
<trkpt lat="48.890240" lon="20.076037">
<ele>1805.5</ele>
<desc>Speed 3.2 km/h Distance 4.90 km</desc>
<time>2013-07-23T14:24:36.48</time>
<name>2593</name>
<sym>Dot</sym>
</trkpt>
<trkpt lat="48.890247" lon="20.076028">
<ele>1806.0</ele>
<desc>Speed 2.7 km/h Distance 4.90 km</desc>
<time>2013-07-23T14:24:37.76</time>
<name>2594</name>
<sym>Dot</sym>
</trkpt>
<trkpt lat="48.890253" lon="20.076015">
<ele>1806.0</ele>
<desc>Speed 4.0 km/h Distance 4.90 km</desc>
<time>2013-07-23T14:24:38.47</time>
<name>2595</name>
<sym>Dot</sym>
</trkpt>
<trkpt lat="48.890255" lon="20.076003">
<ele>1806.0</ele>
<desc>Speed 3.0 km/h Distance 4.90 km</desc>
<time>2013-07-23T14:24:39.47</time>
<name>2596</name>
<sym>Dot</sym>
</trkpt>
<trkpt lat="48.890258" lon="20.075995">
<ele>1806.0</ele>
<desc>Speed 2.8 km/h Distance 4.90 km</desc>
<time>2013-07-23T14:24:40.46</time>
<name>2597</name>
<sym>Dot</sym>
</trkpt>
<trkpt lat="48.890262" lon="20.075987">
<ele>1806.0</ele>
<desc>Speed 2.7 km/h Distance 4.90 km</desc>
<time>2013-07-23T14:24:41.46</time>
<name>2598</name>
<sym>Dot</sym>
</trkpt>
<trkpt lat="48.890265" lon="20.075973">
<ele>1805.5</ele>
<desc>Speed 4.5 km/h Distance 4.90 km</desc>
<time>2013-07-23T14:24:42.55</time>
<name>2599</name>
<sym>Dot</sym>
</trkpt>
<trkpt lat="48.890263" lon="20.075958">
<ele>1805.0</ele>
<desc>Speed 4.0 km/h Distance 4.90 km</desc>
<time>2013-07-23T14:24:43.46</time>
<name>2600</name>
<sym>Dot</sym>
</trkpt>
<trkpt lat="48.890267" lon="20.075947">
<ele>1805.0</ele>
<desc>Speed 3.2 km/h Distance 4.90 km</desc>
<time>2013-07-23T14:24:44.45</time>
<name>2601</name>
<sym>Dot</sym>
</trkpt>
<trkpt lat="48.890270" lon="20.075935">
<ele>1805.0</ele>
<desc>Speed 3.2 km/h Distance 4.91 km</desc>
<time>2013-07-23T14:24:45.45</time>
<name>2602</name>
<sym>Dot</sym>
</trkpt>
<trkpt lat="48.890277" lon="20.075920">
<ele>1805.0</ele>
<desc>Speed 5.0 km/h Distance 4.91 km</desc>
<time>2013-07-23T14:24:46.44</time>
<name>2603</name>
<sym>Dot</sym>
</trkpt>
<trkpt lat="48.890283" lon="20.075905">
<ele>1805.5</ele>
<desc>Speed 4.9 km/h Distance 4.91 km</desc>
<time>2013-07-23T14:24:47.43</time>
<name>2604</name>
<sym>Dot</sym>
</trkpt>
<trkpt lat="48.890283" lon="20.075897">
<ele>1804.5</ele>
<desc>Speed 2.7 km/h Distance 4.91 km</desc>
<time>2013-07-23T14:24:48.44</time>
<name>2605</name>
<sym>Dot</sym>
</trkpt>
<trkpt lat="48.890285" lon="20.075883">
<ele>1804.0</ele>
<desc>Speed 3.7 km/h Distance 4.91 km</desc>
<time>2013-07-23T14:24:49.58</time>
<name>2606</name>
<sym>Dot</sym>
</trkpt>
<trkpt lat="48.890292" lon="20.075875">
<ele>1804.5</ele>
<desc>Speed 2.9 km/h Distance 4.91 km</desc>
<time>2013-07-23T14:24:50.42</time>
<name>2607</name>
<sym>Dot</sym>
</trkpt>
<trkpt lat="48.890288" lon="20.075857">
<ele>1804.0</ele>
<desc>Speed 5.4 km/h Distance 4.91 km</desc>
<time>2013-07-23T14:24:51.42</time>
<name>2608</name>
<sym>Dot</sym>
</trkpt>
<trkpt lat="48.890297" lon="20.075865">
<ele>1805.5</ele>
<desc>Speed 4.4 km/h Distance 4.91 km</desc>
<time>2013-07-23T14:24:52.41</time>
<name>2609</name>
<sym>Dot</sym>
</trkpt>
<trkpt lat="48.890305" lon="20.075850">
<ele>1806.0</ele>
<desc>Speed 3.1 km/h Distance 4.92 km</desc>
<time>2013-07-23T14:25:01.51</time>
<name>2610</name>
<sym>Dot</sym>
</trkpt>
<trkpt lat="48.890310" lon="20.075843">
<ele>1806.0</ele>
<desc>Speed 2.9 km/h Distance 4.92 km</desc>
<time>2013-07-23T14:25:02.39</time>
<name>2611</name>
<sym>Dot</sym>
</trkpt>
<trkpt lat="48.890315" lon="20.075830">
<ele>1806.5</ele>
<desc>Speed 2.5 km/h Distance 4.92 km</desc>
<time>2013-07-23T14:25:04.39</time>
<name>2612</name>
<sym>Dot</sym>
</trkpt>
<trkpt lat="48.890318" lon="20.075820">
<ele>1806.5</ele>
<desc>Speed 2.7 km/h Distance 4.92 km</desc>
<time>2013-07-23T14:25:05.38</time>
<name>2613</name>
<sym>Dot</sym>
</trkpt>
<trkpt lat="48.890318" lon="20.075810">
<ele>1806.0</ele>
<desc>Speed 2.5 km/h Distance 4.92 km</desc>
<time>2013-07-23T14:25:06.38</time>
<name>2614</name>
<sym>Dot</sym>
</trkpt>
<trkpt lat="48.890325" lon="20.075797">
<ele>1806.5</ele>
<desc>Speed 4.2 km/h Distance 4.92 km</desc>
<time>2013-07-23T14:25:07.37</time>
<name>2615</name>
<sym>Dot</sym>
</trkpt>
<trkpt lat="48.890328" lon="20.075782">
<ele>1806.0</ele>
<desc>Speed 4.4 km/h Distance 4.92 km</desc>
<time>2013-07-23T14:25:08.36</time>
<name>2616</name>
<sym>Dot</sym>
</trkpt>
<trkpt lat="48.890328" lon="20.075773">
<ele>1806.0</ele>
<desc>Speed 2.4 km/h Distance 4.92 km</desc>
<time>2013-07-23T14:25:09.36</time>
<name>2617</name>
<sym>Dot</sym>
</trkpt>
<trkpt lat="48.890330" lon="20.075758">
<ele>1806.0</ele>
<desc>Speed 3.7 km/h Distance 4.92 km</desc>
<time>2013-07-23T14:25:10.36</time>
<name>2618</name>
<sym>Dot</sym>
</trkpt>
<trkpt lat="48.890330" lon="20.075740">
<ele>1806.0</ele>
<desc>Speed 5.2 km/h Distance 4.92 km</desc>
<time>2013-07-23T14:25:11.36</time>
<name>2619</name>
<sym>Dot</sym>
</trkpt>
<trkpt lat="48.890335" lon="20.075727">
<ele>1806.5</ele>
<desc>Speed 3.8 km/h Distance 4.93 km</desc>
<time>2013-07-23T14:25:12.36</time>
<name>2620</name>
<sym>Dot</sym>
</trkpt>
<trkpt lat="48.890342" lon="20.075722">
<ele>1807.5</ele>
<desc>Speed 2.8 km/h Distance 4.93 km</desc>
<time>2013-07-23T14:25:13.36</time>
<name>2621</name>
<sym>Dot</sym>
</trkpt>
<trkpt lat="48.890343" lon="20.075710">
<ele>1807.0</ele>
<desc>Speed 3.3 km/h Distance 4.93 km</desc>
<time>2013-07-23T14:25:14.36</time>
<name>2622</name>
<sym>Dot</sym>
</trkpt>
<trkpt lat="48.890345" lon="20.075700">
<ele>1807.0</ele>
<desc>Speed 2.6 km/h Distance 4.93 km</desc>
<time>2013-07-23T14:25:15.36</time>
<name>2623</name>
<sym>Dot</sym>
</trkpt>
<trkpt lat="48.890342" lon="20.075648">
<ele>1804.0</ele>
<desc>Speed 5.3 km/h Distance 4.93 km</desc>
<time>2013-07-23T14:25:27.34</time>
<name>2624</name>
<sym>Dot</sym>
</trkpt>
<trkpt lat="48.890347" lon="20.075638">
<ele>1804.5</ele>
<desc>Speed 2.9 km/h Distance 4.93 km</desc>
<time>2013-07-23T14:25:28.33</time>
<name>2625</name>
<sym>Dot</sym>
</trkpt>
<trkpt lat="48.890353" lon="20.075627">
<ele>1805.0</ele>
<desc>Speed 2.8 km/h Distance 4.93 km</desc>
<time>2013-07-23T14:25:29.33</time>
<name>2626</name>
<sym>Dot</sym>
</trkpt>
<trkpt lat="48.890355" lon="20.075617">
<ele>1805.5</ele>
<desc>Speed 2.7 km/h Distance 4.93 km</desc>
<time>2013-07-23T14:25:30.46</time>
<name>2627</name>
<sym>Dot</sym>
</trkpt>
<trkpt lat="48.890360" lon="20.075600">
<ele>1805.0</ele>
<desc>Speed 4.1 km/h Distance 4.94 km</desc>
<time>2013-07-23T14:25:31.33</time>
<name>2628</name>
<sym>Dot</sym>
</trkpt>
<trkpt lat="48.890357" lon="20.075577">
<ele>1804.0</ele>
<desc>Speed 4.4 km/h Distance 4.94 km</desc>
<time>2013-07-23T14:25:34.45</time>
<name>2629</name>
<sym>Dot</sym>
</trkpt>
<trkpt lat="48.890347" lon="20.075543">
<ele>1801.5</ele>
<desc>Speed 3.3 km/h Distance 4.94 km</desc>
<time>2013-07-23T14:25:47.33</time>
<name>2630</name>
<sym>Dot</sym>
</trkpt>
<trkpt lat="48.890352" lon="20.075532">
<ele>1801.5</ele>
<desc>Speed 3.7 km/h Distance 4.94 km</desc>
<time>2013-07-23T14:25:48.31</time>
<name>2631</name>
<sym>Dot</sym>
</trkpt>
<trkpt lat="48.890357" lon="20.075522">
<ele>1801.5</ele>
<desc>Speed 3.1 km/h Distance 4.94 km</desc>
<time>2013-07-23T14:25:49.32</time>
<name>2632</name>
<sym>Dot</sym>
</trkpt>
<trkpt lat="48.890360" lon="20.075512">
<ele>1801.5</ele>
<desc>Speed 3.5 km/h Distance 4.94 km</desc>
<time>2013-07-23T14:25:50.31</time>
<name>2633</name>
<sym>Dot</sym>
</trkpt>
<trkpt lat="48.890367" lon="20.075500">
<ele>1802.0</ele>
<desc>Speed 4.5 km/h Distance 4.94 km</desc>
<time>2013-07-23T14:25:51.31</time>
<name>2634</name>
<sym>Dot</sym>
</trkpt>
<trkpt lat="48.890375" lon="20.075483">
<ele>1802.5</ele>
<desc>Speed 5.0 km/h Distance 4.95 km</desc>
<time>2013-07-23T14:25:52.30</time>
<name>2635</name>
<sym>Dot</sym>
</trkpt>
<trkpt lat="48.890385" lon="20.075470">
<ele>1803.5</ele>
<desc>Speed 5.3 km/h Distance 4.95 km</desc>
<time>2013-07-23T14:25:53.30</time>
<name>2636</name>
<sym>Dot</sym>
</trkpt>
<trkpt lat="48.890392" lon="20.075450">
<ele>1803.5</ele>
<desc>Speed 5.0 km/h Distance 4.95 km</desc>
<time>2013-07-23T14:25:54.30</time>
<name>2637</name>
<sym>Dot</sym>
</trkpt>
<trkpt lat="48.890395" lon="20.075435">
<ele>1803.5</ele>
<desc>Speed 3.5 km/h Distance 4.95 km</desc>
<time>2013-07-23T14:25:55.30</time>
<name>2638</name>
<sym>Dot</sym>
</trkpt>
<trkpt lat="48.890397" lon="20.075417">
<ele>1803.0</ele>
<desc>Speed 4.1 km/h Distance 4.95 km</desc>
<time>2013-07-23T14:25:56.30</time>
<name>2639</name>
<sym>Dot</sym>
</trkpt>
<trkpt lat="48.890402" lon="20.075398">
<ele>1803.0</ele>
<desc>Speed 4.0 km/h Distance 4.95 km</desc>
<time>2013-07-23T14:25:57.29</time>
<name>2640</name>
<sym>Dot</sym>
</trkpt>
<trkpt lat="48.890407" lon="20.075385">
<ele>1803.5</ele>
<desc>Speed 3.8 km/h Distance 4.95 km</desc>
<time>2013-07-23T14:25:58.43</time>
<name>2641</name>
<sym>Dot</sym>
</trkpt>
<trkpt lat="48.890417" lon="20.075373">
<ele>1804.0</ele>
<desc>Speed 3.9 km/h Distance 4.95 km</desc>
<time>2013-07-23T14:25:59.28</time>
<name>2642</name>
<sym>Dot</sym>
</trkpt>
<trkpt lat="48.890417" lon="20.075360">
<ele>1803.5</ele>
<desc>Speed 2.4 km/h Distance 4.96 km</desc>
<time>2013-07-23T14:26:01.27</time>
<name>2643</name>
<sym>Dot</sym>
</trkpt>
<trkpt lat="48.890433" lon="20.075318">
<ele>1805.0</ele>
<desc>Speed 4.5 km/h Distance 4.96 km</desc>
<time>2013-07-23T14:26:03.27</time>
<name>2644</name>
<sym>Dot</sym>
</trkpt>
<trkpt lat="48.890443" lon="20.075302">
<ele>1805.0</ele>
<desc>Speed 5.4 km/h Distance 4.96 km</desc>
<time>2013-07-23T14:26:04.26</time>
<name>2645</name>
<sym>Dot</sym>
</trkpt>
<trkpt lat="48.890452" lon="20.075280">
<ele>1805.0</ele>
<desc>Speed 6.6 km/h Distance 4.96 km</desc>
<time>2013-07-23T14:26:05.26</time>
<name>2646</name>
<sym>Dot</sym>
</trkpt>
<trkpt lat="48.890455" lon="20.075252">
<ele>1804.5</ele>
<desc>Speed 7.8 km/h Distance 4.97 km</desc>
<time>2013-07-23T14:26:06.25</time>
<name>2647</name>
<sym>Dot</sym>
</trkpt>
<trkpt lat="48.890460" lon="20.075228">
<ele>1804.5</ele>
<desc>Speed 6.3 km/h Distance 4.97 km</desc>
<time>2013-07-23T14:26:07.25</time>
<name>2648</name>
<sym>Dot</sym>
</trkpt>
<trkpt lat="48.890465" lon="20.075212">
<ele>1804.0</ele>
<desc>Speed 5.0 km/h Distance 4.97 km</desc>
<time>2013-07-23T14:26:08.25</time>
<name>2649</name>
<sym>Dot</sym>
</trkpt>
<trkpt lat="48.890472" lon="20.075192">
<ele>1804.5</ele>
<desc>Speed 5.8 km/h Distance 4.97 km</desc>
<time>2013-07-23T14:26:09.24</time>
<name>2650</name>
<sym>Dot</sym>
</trkpt>
<trkpt lat="48.890473" lon="20.075172">
<ele>1804.5</ele>
<desc>Speed 5.5 km/h Distance 4.97 km</desc>
<time>2013-07-23T14:26:10.24</time>
<name>2651</name>
<sym>Dot</sym>
</trkpt>
<trkpt lat="48.890478" lon="20.075152">
<ele>1805.0</ele>
<desc>Speed 6.3 km/h Distance 4.97 km</desc>
<time>2013-07-23T14:26:11.23</time>
<name>2652</name>
<sym>Dot</sym>
</trkpt>
<trkpt lat="48.890475" lon="20.075137">
<ele>1804.0</ele>
<desc>Speed 4.0 km/h Distance 4.97 km</desc>
<time>2013-07-23T14:26:12.22</time>
<name>2653</name>
<sym>Dot</sym>
</trkpt>
<trkpt lat="48.890477" lon="20.075122">
<ele>1804.0</ele>
<desc>Speed 4.4 km/h Distance 4.98 km</desc>
<time>2013-07-23T14:26:13.22</time>
<name>2654</name>
<sym>Dot</sym>
</trkpt>
<trkpt lat="48.890482" lon="20.075107">
<ele>1804.0</ele>
<desc>Speed 4.2 km/h Distance 4.98 km</desc>
<time>2013-07-23T14:26:14.21</time>
<name>2655</name>
<sym>Dot</sym>
</trkpt>
<trkpt lat="48.890483" lon="20.075085">
<ele>1804.0</ele>
<desc>Speed 5.8 km/h Distance 4.98 km</desc>
<time>2013-07-23T14:26:15.21</time>
<name>2656</name>
<sym>Dot</sym>
</trkpt>
<trkpt lat="48.890487" lon="20.075060">
<ele>1804.5</ele>
<desc>Speed 5.7 km/h Distance 4.98 km</desc>
<time>2013-07-23T14:26:17.20</time>
<name>2657</name>
<sym>Dot</sym>
</trkpt>
<trkpt lat="48.890488" lon="20.075035">
<ele>1804.5</ele>
<desc>Speed 6.2 km/h Distance 4.98 km</desc>
<time>2013-07-23T14:26:18.20</time>
<name>2658</name>
<sym>Dot</sym>
</trkpt>
<trkpt lat="48.890492" lon="20.075010">
<ele>1804.5</ele>
<desc>Speed 6.7 km/h Distance 4.98 km</desc>
<time>2013-07-23T14:26:19.20</time>
<name>2659</name>
<sym>Dot</sym>
</trkpt>
<trkpt lat="48.890495" lon="20.074987">
<ele>1804.5</ele>
<desc>Speed 5.9 km/h Distance 4.99 km</desc>
<time>2013-07-23T14:26:20.39</time>
<name>2660</name>
<sym>Dot</sym>
</trkpt>
<trkpt lat="48.890500" lon="20.074967">
<ele>1804.5</ele>
<desc>Speed 5.3 km/h Distance 4.99 km</desc>
<time>2013-07-23T14:26:21.19</time>
<name>2661</name>
<sym>Dot</sym>
</trkpt>
<trkpt lat="48.890512" lon="20.074945">
<ele>1805.0</ele>
<desc>Speed 6.7 km/h Distance 4.99 km</desc>
<time>2013-07-23T14:26:22.31</time>
<name>2662</name>
<sym>Dot</sym>
</trkpt>
<trkpt lat="48.890515" lon="20.074920">
<ele>1805.0</ele>
<desc>Speed 6.0 km/h Distance 4.99 km</desc>
<time>2013-07-23T14:26:23.18</time>
<name>2663</name>
<sym>Dot</sym>
</trkpt>
<trkpt lat="48.890518" lon="20.074895">
<ele>1805.0</ele>
<desc>Speed 6.4 km/h Distance 4.99 km</desc>
<time>2013-07-23T14:26:24.17</time>
<name>2664</name>
<sym>Dot</sym>
</trkpt>
<trkpt lat="48.890520" lon="20.074868">
<ele>1805.0</ele>
<desc>Speed 6.3 km/h Distance 4.99 km</desc>
<time>2013-07-23T14:26:25.17</time>
<name>2665</name>
<sym>Dot</sym>
</trkpt>
<trkpt lat="48.890520" lon="20.074835">
<ele>1805.0</ele>
<desc>Speed 7.7 km/h Distance 5.00 km</desc>
<time>2013-07-23T14:26:26.17</time>
<name>2666</name>
<sym>Dot</sym>
</trkpt>
<trkpt lat="48.890520" lon="20.074807">
<ele>1805.0</ele>
<desc>Speed 6.4 km/h Distance 5.00 km</desc>
<time>2013-07-23T14:26:27.16</time>
<name>2667</name>
<sym>Dot</sym>
</trkpt>
<trkpt lat="48.890527" lon="20.074785">
<ele>1805.5</ele>
<desc>Speed 5.4 km/h Distance 5.00 km</desc>
<time>2013-07-23T14:26:28.16</time>
<name>2668</name>
<sym>Dot</sym>
</trkpt>
<trkpt lat="48.890532" lon="20.074758">
<ele>1805.5</ele>
<desc>Speed 6.3 km/h Distance 5.00 km</desc>
<time>2013-07-23T14:26:29.15</time>
<name>2669</name>
<sym>Dot</sym>
</trkpt>
<trkpt lat="48.890550" lon="20.074733">
<ele>1807.0</ele>
<desc>Speed 8.8 km/h Distance 5.01 km</desc>
<time>2013-07-23T14:26:30.15</time>
<name>2670</name>
<sym>Dot</sym>
</trkpt>
<trkpt lat="48.890560" lon="20.074710">
<ele>1808.0</ele>
<desc>Speed 6.7 km/h Distance 5.01 km</desc>
<time>2013-07-23T14:26:31.15</time>
<name>2671</name>
<sym>Dot</sym>
</trkpt>
<trkpt lat="48.890565" lon="20.074683">
<ele>1808.0</ele>
<desc>Speed 7.2 km/h Distance 5.01 km</desc>
<time>2013-07-23T14:26:32.15</time>
<name>2672</name>
<sym>Dot</sym>
</trkpt>
<trkpt lat="48.890572" lon="20.074663">
<ele>1808.0</ele>
<desc>Speed 5.9 km/h Distance 5.01 km</desc>
<time>2013-07-23T14:26:33.15</time>
<name>2673</name>
<sym>Dot</sym>
</trkpt>
<trkpt lat="48.890575" lon="20.074643">
<ele>1808.0</ele>
<desc>Speed 5.4 km/h Distance 5.01 km</desc>
<time>2013-07-23T14:26:34.15</time>
<name>2674</name>
<sym>Dot</sym>
</trkpt>
<trkpt lat="48.890583" lon="20.074627">
<ele>1808.5</ele>
<desc>Speed 4.9 km/h Distance 5.01 km</desc>
<time>2013-07-23T14:26:35.15</time>
<name>2675</name>
<sym>Dot</sym>
</trkpt>
<trkpt lat="48.890583" lon="20.074608">
<ele>1808.0</ele>
<desc>Speed 4.5 km/h Distance 5.02 km</desc>
<time>2013-07-23T14:26:36.14</time>
<name>2676</name>
<sym>Dot</sym>
</trkpt>
<trkpt lat="48.890588" lon="20.074588">
<ele>1807.5</ele>
<desc>Speed 5.6 km/h Distance 5.02 km</desc>
<time>2013-07-23T14:26:37.13</time>
<name>2677</name>
<sym>Dot</sym>
</trkpt>
<trkpt lat="48.890590" lon="20.074563">
<ele>1807.5</ele>
<desc>Speed 6.3 km/h Distance 5.02 km</desc>
<time>2013-07-23T14:26:38.13</time>
<name>2678</name>
<sym>Dot</sym>
</trkpt>
<trkpt lat="48.890595" lon="20.074540">
<ele>1808.0</ele>
<desc>Speed 6.3 km/h Distance 5.02 km</desc>
<time>2013-07-23T14:26:39.13</time>
<name>2679</name>
<sym>Dot</sym>
</trkpt>
<trkpt lat="48.890597" lon="20.074513">
<ele>1808.0</ele>
<desc>Speed 6.4 km/h Distance 5.02 km</desc>
<time>2013-07-23T14:26:40.12</time>
<name>2680</name>
<sym>Dot</sym>
</trkpt>
<trkpt lat="48.890600" lon="20.074493">
<ele>1808.0</ele>
<desc>Speed 5.5 km/h Distance 5.02 km</desc>
<time>2013-07-23T14:26:41.12</time>
<name>2681</name>
<sym>Dot</sym>
</trkpt>
<trkpt lat="48.890612" lon="20.074473">
<ele>1809.0</ele>
<desc>Speed 6.2 km/h Distance 5.03 km</desc>
<time>2013-07-23T14:26:42.11</time>
<name>2682</name>
<sym>Dot</sym>
</trkpt>
<trkpt lat="48.890623" lon="20.074457">
<ele>1810.5</ele>
<desc>Speed 5.5 km/h Distance 5.03 km</desc>
<time>2013-07-23T14:26:43.11</time>
<name>2683</name>
<sym>Dot</sym>
</trkpt>
<trkpt lat="48.890632" lon="20.074440">
<ele>1812.0</ele>
<desc>Speed 5.3 km/h Distance 5.03 km</desc>
<time>2013-07-23T14:26:44.11</time>
<name>2684</name>
<sym>Dot</sym>
</trkpt>
<trkpt lat="48.890640" lon="20.074425">
<ele>1812.5</ele>
<desc>Speed 5.1 km/h Distance 5.03 km</desc>
<time>2013-07-23T14:26:45.11</time>
<name>2685</name>
<sym>Dot</sym>
</trkpt>
<trkpt lat="48.890645" lon="20.074405">
<ele>1812.5</ele>
<desc>Speed 5.5 km/h Distance 5.03 km</desc>
<time>2013-07-23T14:26:46.11</time>
<name>2686</name>
<sym>Dot</sym>
</trkpt>
<trkpt lat="48.890648" lon="20.074385">
<ele>1812.0</ele>
<desc>Speed 6.0 km/h Distance 5.03 km</desc>
<time>2013-07-23T14:26:47.11</time>
<name>2687</name>
<sym>Dot</sym>
</trkpt>
<trkpt lat="48.890647" lon="20.074360">
<ele>1811.5</ele>
<desc>Speed 6.7 km/h Distance 5.04 km</desc>
<time>2013-07-23T14:26:48.11</time>
<name>2688</name>
<sym>Dot</sym>
</trkpt>
<trkpt lat="48.890650" lon="20.074345">
<ele>1811.0</ele>
<desc>Speed 5.3 km/h Distance 5.04 km</desc>
<time>2013-07-23T14:26:49.16</time>
<name>2689</name>
<sym>Dot</sym>
</trkpt>
<trkpt lat="48.890652" lon="20.074327">
<ele>1811.0</ele>
<desc>Speed 4.8 km/h Distance 5.04 km</desc>
<time>2013-07-23T14:26:50.09</time>
<name>2690</name>
<sym>Dot</sym>
</trkpt>
<trkpt lat="48.890655" lon="20.074310">
<ele>1811.0</ele>
<desc>Speed 4.5 km/h Distance 5.04 km</desc>
<time>2013-07-23T14:26:51.10</time>
<name>2691</name>
<sym>Dot</sym>
</trkpt>
<trkpt lat="48.890652" lon="20.074293">
<ele>1811.0</ele>
<desc>Speed 4.5 km/h Distance 5.04 km</desc>
<time>2013-07-23T14:26:52.09</time>
<name>2692</name>
<sym>Dot</sym>
</trkpt>
<trkpt lat="48.890652" lon="20.074273">
<ele>1810.5</ele>
<desc>Speed 4.5 km/h Distance 5.04 km</desc>
<time>2013-07-23T14:26:53.08</time>
<name>2693</name>
<sym>Dot</sym>
</trkpt>
<trkpt lat="48.890653" lon="20.074253">
<ele>1810.5</ele>
<desc>Speed 5.1 km/h Distance 5.04 km</desc>
<time>2013-07-23T14:26:54.08</time>
<name>2694</name>
<sym>Dot</sym>
</trkpt>
<trkpt lat="48.890658" lon="20.074230">
<ele>1810.0</ele>
<desc>Speed 5.6 km/h Distance 5.05 km</desc>
<time>2013-07-23T14:26:55.07</time>
<name>2695</name>
<sym>Dot</sym>
</trkpt>
<trkpt lat="48.890662" lon="20.074210">
<ele>1810.5</ele>
<desc>Speed 5.4 km/h Distance 5.05 km</desc>
<time>2013-07-23T14:26:56.07</time>
<name>2696</name>
<sym>Dot</sym>
</trkpt>
<trkpt lat="48.890662" lon="20.074195">
<ele>1810.0</ele>
<desc>Speed 4.1 km/h Distance 5.05 km</desc>
<time>2013-07-23T14:26:57.07</time>
<name>2697</name>
<sym>Dot</sym>
</trkpt>
<trkpt lat="48.890670" lon="20.074165">
<ele>1814.5</ele>
<desc>Speed 2.9 km/h Distance 5.05 km</desc>
<time>2013-07-23T14:27:16.34</time>
<name>2698</name>
<sym>Dot</sym>
</trkpt>
<trkpt lat="48.890673" lon="20.074155">
<ele>1814.5</ele>
<desc>Speed 3.3 km/h Distance 5.05 km</desc>
<time>2013-07-23T14:27:17.06</time>
<name>2699</name>
<sym>Dot</sym>
</trkpt>
<trkpt lat="48.890673" lon="20.074138">
<ele>1814.0</ele>
<desc>Speed 4.2 km/h Distance 5.05 km</desc>
<time>2013-07-23T14:27:18.06</time>
<name>2700</name>
<sym>Dot</sym>
</trkpt>
<trkpt lat="48.890672" lon="20.074123">
<ele>1813.0</ele>
<desc>Speed 4.2 km/h Distance 5.05 km</desc>
<time>2013-07-23T14:27:19.23</time>
<name>2701</name>
<sym>Dot</sym>
</trkpt>
<trkpt lat="48.890670" lon="20.074100">
<ele>1813.0</ele>
<desc>Speed 6.1 km/h Distance 5.06 km</desc>
<time>2013-07-23T14:27:20.04</time>
<name>2702</name>
<sym>Dot</sym>
</trkpt>
<trkpt lat="48.890673" lon="20.074080">
<ele>1813.0</ele>
<desc>Speed 5.4 km/h Distance 5.06 km</desc>
<time>2013-07-23T14:27:21.04</time>
<name>2703</name>
<sym>Dot</sym>
</trkpt>
<trkpt lat="48.890673" lon="20.074055">
<ele>1812.0</ele>
<desc>Speed 6.4 km/h Distance 5.06 km</desc>
<time>2013-07-23T14:27:22.03</time>
<name>2704</name>
<sym>Dot</sym>
</trkpt>
<trkpt lat="48.890675" lon="20.074033">
<ele>1811.5</ele>
<desc>Speed 5.4 km/h Distance 5.06 km</desc>
<time>2013-07-23T14:27:23.09</time>
<name>2705</name>
<sym>Dot</sym>
</trkpt>
<trkpt lat="48.890678" lon="20.074017">
<ele>1811.5</ele>
<desc>Speed 4.6 km/h Distance 5.06 km</desc>
<time>2013-07-23T14:27:24.02</time>
<name>2706</name>
<sym>Dot</sym>
</trkpt>
<trkpt lat="48.890682" lon="20.074000">
<ele>1811.5</ele>
<desc>Speed 4.5 km/h Distance 5.06 km</desc>
<time>2013-07-23T14:27:25.01</time>
<name>2707</name>
<sym>Dot</sym>
</trkpt>
<trkpt lat="48.890680" lon="20.073982">
<ele>1811.5</ele>
<desc>Speed 4.8 km/h Distance 5.06 km</desc>
<time>2013-07-23T14:27:26.01</time>
<name>2708</name>
<sym>Dot</sym>
</trkpt>
<trkpt lat="48.890675" lon="20.073968">
<ele>1811.5</ele>
<desc>Speed 3.6 km/h Distance 5.07 km</desc>
<time>2013-07-23T14:27:27.00</time>
<name>2709</name>
<sym>Dot</sym>
</trkpt>
<trkpt lat="48.890667" lon="20.073965">
<ele>1811.0</ele>
<desc>Speed 3.2 km/h Distance 5.07 km</desc>
<time>2013-07-23T14:27:28.00</time>
<name>2710</name>
<sym>Dot</sym>
</trkpt>
<trkpt lat="48.890665" lon="20.073945">
<ele>1810.0</ele>
<desc>Speed 2.2 km/h Distance 5.07 km</desc>
<time>2013-07-23T14:27:33.80</time>
<name>2711</name>
<sym>Dot</sym>
</trkpt>
<trkpt lat="48.890668" lon="20.073930">
<ele>1810.0</ele>
<desc>Speed 2.3 km/h Distance 5.07 km</desc>
<time>2013-07-23T14:27:34.99</time>
<name>2712</name>
<sym>Dot</sym>
</trkpt>
<trkpt lat="48.890682" lon="20.073907">
<ele>1810.0</ele>
<desc>Speed 5.1 km/h Distance 5.07 km</desc>
<time>2013-07-23T14:28:27.98</time>
<name>2713</name>
<sym>Dot</sym>
</trkpt>
<trkpt lat="48.890680" lon="20.073882">
<ele>1809.5</ele>
<desc>Speed 6.3 km/h Distance 5.07 km</desc>
<time>2013-07-23T14:28:28.98</time>
<name>2714</name>
<sym>Dot</sym>
</trkpt>
<trkpt lat="48.890682" lon="20.073853">
<ele>1809.5</ele>
<desc>Speed 7.2 km/h Distance 5.08 km</desc>
<time>2013-07-23T14:28:29.97</time>
<name>2715</name>
<sym>Dot</sym>
</trkpt>
<trkpt lat="48.890683" lon="20.073828">
<ele>1809.5</ele>
<desc>Speed 6.7 km/h Distance 5.08 km</desc>
<time>2013-07-23T14:28:30.96</time>
<name>2716</name>
<sym>Dot</sym>
</trkpt>
<trkpt lat="48.890683" lon="20.073813">
<ele>1809.5</ele>
<desc>Speed 3.6 km/h Distance 5.08 km</desc>
<time>2013-07-23T14:28:31.96</time>
<name>2717</name>
<sym>Dot</sym>
</trkpt>
<trkpt lat="48.890678" lon="20.073800">
<ele>1809.5</ele>
<desc>Speed 3.9 km/h Distance 5.08 km</desc>
<time>2013-07-23T14:28:32.96</time>
<name>2718</name>
<sym>Dot</sym>
</trkpt>
<trkpt lat="48.890673" lon="20.073785">
<ele>1808.5</ele>
<desc>Speed 4.4 km/h Distance 5.08 km</desc>
<time>2013-07-23T14:28:33.95</time>
<name>2719</name>
<sym>Dot</sym>
</trkpt>
<trkpt lat="48.890667" lon="20.073760">
<ele>1807.5</ele>
<desc>Speed 6.8 km/h Distance 5.08 km</desc>
<time>2013-07-23T14:28:34.95</time>
<name>2720</name>
<sym>Dot</sym>
</trkpt>
<trkpt lat="48.890660" lon="20.073730">
<ele>1806.5</ele>
<desc>Speed 8.1 km/h Distance 5.09 km</desc>
<time>2013-07-23T14:28:35.94</time>
<name>2721</name>
<sym>Dot</sym>
</trkpt>
<trkpt lat="48.890658" lon="20.073703">
<ele>1806.5</ele>
<desc>Speed 6.7 km/h Distance 5.09 km</desc>
<time>2013-07-23T14:28:36.93</time>
<name>2722</name>
<sym>Dot</sym>
</trkpt>
<trkpt lat="48.890658" lon="20.073682">
<ele>1807.0</ele>
<desc>Speed 5.1 km/h Distance 5.09 km</desc>
<time>2013-07-23T14:28:37.93</time>
<name>2723</name>
<sym>Dot</sym>
</trkpt>
<trkpt lat="48.890653" lon="20.073662">
<ele>1807.0</ele>
<desc>Speed 5.5 km/h Distance 5.09 km</desc>
<time>2013-07-23T14:28:38.93</time>
<name>2724</name>
<sym>Dot</sym>
</trkpt>
<trkpt lat="48.890650" lon="20.073645">
<ele>1807.0</ele>
<desc>Speed 4.5 km/h Distance 5.09 km</desc>
<time>2013-07-23T14:28:39.94</time>
<name>2725</name>
<sym>Dot</sym>
</trkpt>
<trkpt lat="48.890647" lon="20.073628">
<ele>1807.0</ele>
<desc>Speed 4.7 km/h Distance 5.09 km</desc>
<time>2013-07-23T14:28:40.92</time>
<name>2726</name>
<sym>Dot</sym>
</trkpt>
<trkpt lat="48.890650" lon="20.073612">
<ele>1807.0</ele>
<desc>Speed 3.9 km/h Distance 5.09 km</desc>
<time>2013-07-23T14:28:41.92</time>
<name>2727</name>
<sym>Dot</sym>
</trkpt>
<trkpt lat="48.890658" lon="20.073597">
<ele>1808.0</ele>
<desc>Speed 4.7 km/h Distance 5.10 km</desc>
<time>2013-07-23T14:28:43.10</time>
<name>2728</name>
<sym>Dot</sym>
</trkpt>
<trkpt lat="48.890658" lon="20.073573">
<ele>1808.0</ele>
<desc>Speed 5.7 km/h Distance 5.10 km</desc>
<time>2013-07-23T14:28:43.90</time>
<name>2729</name>
<sym>Dot</sym>
</trkpt>
<trkpt lat="48.890660" lon="20.073548">
<ele>1808.0</ele>
<desc>Speed 6.1 km/h Distance 5.10 km</desc>
<time>2013-07-23T14:28:44.89</time>
<name>2730</name>
<sym>Dot</sym>
</trkpt>
<trkpt lat="48.890660" lon="20.073523">
<ele>1808.0</ele>
<desc>Speed 6.4 km/h Distance 5.10 km</desc>
<time>2013-07-23T14:28:45.89</time>
<name>2731</name>
<sym>Dot</sym>
</trkpt>
<trkpt lat="48.890660" lon="20.073500">
<ele>1808.0</ele>
<desc>Speed 5.5 km/h Distance 5.10 km</desc>
<time>2013-07-23T14:28:46.88</time>
<name>2732</name>
<sym>Dot</sym>
</trkpt>
<trkpt lat="48.890662" lon="20.073480">
<ele>1808.5</ele>
<desc>Speed 5.5 km/h Distance 5.10 km</desc>
<time>2013-07-23T14:28:47.88</time>
<name>2733</name>
<sym>Dot</sym>
</trkpt>
<trkpt lat="48.890662" lon="20.073453">
<ele>1808.5</ele>
<desc>Speed 6.8 km/h Distance 5.11 km</desc>
<time>2013-07-23T14:28:48.88</time>
<name>2734</name>
<sym>Dot</sym>
</trkpt>
<trkpt lat="48.890658" lon="20.073428">
<ele>1807.5</ele>
<desc>Speed 7.0 km/h Distance 5.11 km</desc>
<time>2013-07-23T14:28:49.87</time>
<name>2735</name>
<sym>Dot</sym>
</trkpt>
<trkpt lat="48.890657" lon="20.073400">
<ele>1807.5</ele>
<desc>Speed 7.3 km/h Distance 5.11 km</desc>
<time>2013-07-23T14:28:50.87</time>
<name>2736</name>
<sym>Dot</sym>
</trkpt>
<trkpt lat="48.890658" lon="20.073370">
<ele>1808.0</ele>
<desc>Speed 8.2 km/h Distance 5.11 km</desc>
<time>2013-07-23T14:28:51.86</time>
<name>2737</name>
<sym>Dot</sym>
</trkpt>
<trkpt lat="48.890658" lon="20.073340">
<ele>1809.0</ele>
<desc>Speed 7.9 km/h Distance 5.11 km</desc>
<time>2013-07-23T14:28:52.86</time>
<name>2738</name>
<sym>Dot</sym>
</trkpt>
<trkpt lat="48.890652" lon="20.073313">
<ele>1808.0</ele>
<desc>Speed 7.9 km/h Distance 5.12 km</desc>
<time>2013-07-23T14:28:53.86</time>
<name>2739</name>
<sym>Dot</sym>
</trkpt>
<trkpt lat="48.890650" lon="20.073293">
<ele>1808.5</ele>
<desc>Speed 5.9 km/h Distance 5.12 km</desc>
<time>2013-07-23T14:28:54.85</time>
<name>2740</name>
<sym>Dot</sym>
</trkpt>
<trkpt lat="48.890655" lon="20.073272">
<ele>1810.0</ele>
<desc>Speed 6.7 km/h Distance 5.12 km</desc>
<time>2013-07-23T14:28:55.85</time>
<name>2741</name>
<sym>Dot</sym>
</trkpt>
<trkpt lat="48.890652" lon="20.073248">
<ele>1810.5</ele>
<desc>Speed 6.9 km/h Distance 5.12 km</desc>
<time>2013-07-23T14:28:56.84</time>
<name>2742</name>
<sym>Dot</sym>
</trkpt>
<trkpt lat="48.890648" lon="20.073228">
<ele>1811.0</ele>
<desc>Speed 6.2 km/h Distance 5.12 km</desc>
<time>2013-07-23T14:28:57.84</time>
<name>2743</name>
<sym>Dot</sym>
</trkpt>
<trkpt lat="48.890647" lon="20.073202">
<ele>1811.5</ele>
<desc>Speed 7.7 km/h Distance 5.12 km</desc>
<time>2013-07-23T14:28:58.84</time>
<name>2744</name>
<sym>Dot</sym>
</trkpt>
<trkpt lat="48.890647" lon="20.073168">
<ele>1813.0</ele>
<desc>Speed 9.7 km/h Distance 5.13 km</desc>
<time>2013-07-23T14:28:59.84</time>
<name>2745</name>
<sym>Dot</sym>
</trkpt>
<trkpt lat="48.890643" lon="20.073140">
<ele>1813.5</ele>
<desc>Speed 7.8 km/h Distance 5.13 km</desc>
<time>2013-07-23T14:29:00.83</time>
<name>2746</name>
<sym>Dot</sym>
</trkpt>
<trkpt lat="48.890642" lon="20.073118">
<ele>1813.5</ele>
<desc>Speed 5.9 km/h Distance 5.13 km</desc>
<time>2013-07-23T14:29:01.83</time>
<name>2747</name>
<sym>Dot</sym>
</trkpt>
<trkpt lat="48.890638" lon="20.073095">
<ele>1812.5</ele>
<desc>Speed 6.2 km/h Distance 5.13 km</desc>
<time>2013-07-23T14:29:02.98</time>
<name>2748</name>
<sym>Dot</sym>
</trkpt>
<trkpt lat="48.890652" lon="20.073070">
<ele>1814.0</ele>
<desc>Speed 7.3 km/h Distance 5.13 km</desc>
<time>2013-07-23T14:29:03.81</time>
<name>2749</name>
<sym>Dot</sym>
</trkpt>
<trkpt lat="48.890657" lon="20.073035">
<ele>1814.0</ele>
<desc>Speed 9.1 km/h Distance 5.14 km</desc>
<time>2013-07-23T14:29:04.81</time>
<name>2750</name>
<sym>Dot</sym>
</trkpt>
<trkpt lat="48.890662" lon="20.073010">
<ele>1814.5</ele>
<desc>Speed 6.8 km/h Distance 5.14 km</desc>
<time>2013-07-23T14:29:05.80</time>
<name>2751</name>
<sym>Dot</sym>
</trkpt>
<trkpt lat="48.890663" lon="20.072987">
<ele>1815.0</ele>
<desc>Speed 6.3 km/h Distance 5.14 km</desc>
<time>2013-07-23T14:29:06.80</time>
<name>2752</name>
<sym>Dot</sym>
</trkpt>
<trkpt lat="48.890672" lon="20.072960">
<ele>1816.5</ele>
<desc>Speed 7.8 km/h Distance 5.14 km</desc>
<time>2013-07-23T14:29:07.80</time>
<name>2753</name>
<sym>Dot</sym>
</trkpt>
<trkpt lat="48.890663" lon="20.072928">
<ele>1816.0</ele>
<desc>Speed 8.6 km/h Distance 5.15 km</desc>
<time>2013-07-23T14:29:08.79</time>
<name>2754</name>
<sym>Dot</sym>
</trkpt>
<trkpt lat="48.890660" lon="20.072905">
<ele>1815.5</ele>
<desc>Speed 6.6 km/h Distance 5.15 km</desc>
<time>2013-07-23T14:29:09.79</time>
<name>2755</name>
<sym>Dot</sym>
</trkpt>
<trkpt lat="48.890660" lon="20.072882">
<ele>1815.5</ele>
<desc>Speed 6.4 km/h Distance 5.15 km</desc>
<time>2013-07-23T14:29:10.78</time>
<name>2756</name>
<sym>Dot</sym>
</trkpt>
<trkpt lat="48.890667" lon="20.072858">
<ele>1816.5</ele>
<desc>Speed 6.7 km/h Distance 5.15 km</desc>
<time>2013-07-23T14:29:11.77</time>
<name>2757</name>
<sym>Dot</sym>
</trkpt>
<trkpt lat="48.890663" lon="20.072835">
<ele>1816.0</ele>
<desc>Speed 5.9 km/h Distance 5.15 km</desc>
<time>2013-07-23T14:29:12.76</time>
<name>2758</name>
<sym>Dot</sym>
</trkpt>
<trkpt lat="48.890660" lon="20.072810">
<ele>1815.5</ele>
<desc>Speed 6.7 km/h Distance 5.15 km</desc>
<time>2013-07-23T14:29:13.77</time>
<name>2759</name>
<sym>Dot</sym>
</trkpt>
<trkpt lat="48.890657" lon="20.072782">
<ele>1815.5</ele>
<desc>Speed 7.3 km/h Distance 5.16 km</desc>
<time>2013-07-23T14:29:14.75</time>
<name>2760</name>
<sym>Dot</sym>
</trkpt>
<trkpt lat="48.890655" lon="20.072758">
<ele>1815.5</ele>
<desc>Speed 5.8 km/h Distance 5.16 km</desc>
<time>2013-07-23T14:29:15.75</time>
<name>2761</name>
<sym>Dot</sym>
</trkpt>
<trkpt lat="48.890653" lon="20.072740">
<ele>1815.0</ele>
<desc>Speed 4.9 km/h Distance 5.16 km</desc>
<time>2013-07-23T14:29:16.77</time>
<name>2762</name>
<sym>Dot</sym>
</trkpt>
<trkpt lat="48.890647" lon="20.072713">
<ele>1815.0</ele>
<desc>Speed 7.1 km/h Distance 5.16 km</desc>
<time>2013-07-23T14:29:17.89</time>
<name>2763</name>
<sym>Dot</sym>
</trkpt>
<trkpt lat="48.890638" lon="20.072685">
<ele>1815.0</ele>
<desc>Speed 8.2 km/h Distance 5.16 km</desc>
<time>2013-07-23T14:29:18.75</time>
<name>2764</name>
<sym>Dot</sym>
</trkpt>
<trkpt lat="48.890638" lon="20.072663">
<ele>1815.0</ele>
<desc>Speed 5.7 km/h Distance 5.17 km</desc>
<time>2013-07-23T14:29:19.74</time>
<name>2765</name>
<sym>Dot</sym>
</trkpt>
<trkpt lat="48.890633" lon="20.072640">
<ele>1814.0</ele>
<desc>Speed 6.2 km/h Distance 5.17 km</desc>
<time>2013-07-23T14:29:20.76</time>
<name>2766</name>
<sym>Dot</sym>
</trkpt>
<trkpt lat="48.890633" lon="20.072613">
<ele>1814.5</ele>
<desc>Speed 6.7 km/h Distance 5.17 km</desc>
<time>2013-07-23T14:29:21.74</time>
<name>2767</name>
<sym>Dot</sym>
</trkpt>
<trkpt lat="48.890632" lon="20.072590">
<ele>1814.5</ele>
<desc>Speed 6.1 km/h Distance 5.17 km</desc>
<time>2013-07-23T14:29:22.74</time>
<name>2768</name>
<sym>Dot</sym>
</trkpt>
<trkpt lat="48.890632" lon="20.072563">
<ele>1814.0</ele>
<desc>Speed 6.9 km/h Distance 5.17 km</desc>
<time>2013-07-23T14:29:23.73</time>
<name>2769</name>
<sym>Dot</sym>
</trkpt>
<trkpt lat="48.890628" lon="20.072537">
<ele>1813.5</ele>
<desc>Speed 7.4 km/h Distance 5.18 km</desc>
<time>2013-07-23T14:29:24.73</time>
<name>2770</name>
<sym>Dot</sym>
</trkpt>
<trkpt lat="48.890628" lon="20.072512">
<ele>1813.5</ele>
<desc>Speed 6.4 km/h Distance 5.18 km</desc>
<time>2013-07-23T14:29:25.72</time>
<name>2771</name>
<sym>Dot</sym>
</trkpt>
<trkpt lat="48.890625" lon="20.072487">
<ele>1813.0</ele>
<desc>Speed 6.8 km/h Distance 5.18 km</desc>
<time>2013-07-23T14:29:26.74</time>
<name>2772</name>
<sym>Dot</sym>
</trkpt>
<trkpt lat="48.890625" lon="20.072467">
<ele>1812.5</ele>
<desc>Speed 5.4 km/h Distance 5.18 km</desc>
<time>2013-07-23T14:29:27.72</time>
<name>2773</name>
<sym>Dot</sym>
</trkpt>
<trkpt lat="48.890630" lon="20.072450">
<ele>1813.0</ele>
<desc>Speed 4.9 km/h Distance 5.18 km</desc>
<time>2013-07-23T14:29:28.71</time>
<name>2774</name>
<sym>Dot</sym>
</trkpt>
<trkpt lat="48.890633" lon="20.072433">
<ele>1812.5</ele>
<desc>Speed 4.9 km/h Distance 5.18 km</desc>
<time>2013-07-23T14:29:29.71</time>
<name>2775</name>
<sym>Dot</sym>
</trkpt>
<trkpt lat="48.890625" lon="20.072398">
<ele>1811.5</ele>
<desc>Speed 3.9 km/h Distance 5.19 km</desc>
<time>2013-07-23T14:29:36.70</time>
<name>2776</name>
<sym>Dot</sym>
</trkpt>
<trkpt lat="48.890622" lon="20.072387">
<ele>1811.5</ele>
<desc>Speed 2.7 km/h Distance 5.19 km</desc>
<time>2013-07-23T14:29:37.70</time>
<name>2777</name>
<sym>Dot</sym>
</trkpt>
<trkpt lat="48.890620" lon="20.072372">
<ele>1811.0</ele>
<desc>Speed 4.0 km/h Distance 5.19 km</desc>
<time>2013-07-23T14:29:38.70</time>
<name>2778</name>
<sym>Dot</sym>
</trkpt>
<trkpt lat="48.890618" lon="20.072357">
<ele>1812.0</ele>
<desc>Speed 4.3 km/h Distance 5.19 km</desc>
<time>2013-07-23T14:29:39.69</time>
<name>2779</name>
<sym>Dot</sym>
</trkpt>
<trkpt lat="48.890618" lon="20.072342">
<ele>1811.5</ele>
<desc>Speed 3.9 km/h Distance 5.19 km</desc>
<time>2013-07-23T14:29:40.69</time>
<name>2780</name>
<sym>Dot</sym>
</trkpt>
<trkpt lat="48.890617" lon="20.072325">
<ele>1812.0</ele>
<desc>Speed 4.5 km/h Distance 5.19 km</desc>
<time>2013-07-23T14:29:41.85</time>
<name>2781</name>
<sym>Dot</sym>
</trkpt>
<trkpt lat="48.890620" lon="20.072308">
<ele>1812.5</ele>
<desc>Speed 4.6 km/h Distance 5.19 km</desc>
<time>2013-07-23T14:29:42.69</time>
<name>2782</name>
<sym>Dot</sym>
</trkpt>
<trkpt lat="48.890618" lon="20.072293">
<ele>1812.5</ele>
<desc>Speed 4.1 km/h Distance 5.19 km</desc>
<time>2013-07-23T14:29:43.69</time>
<name>2783</name>
<sym>Dot</sym>
</trkpt>
<trkpt lat="48.890620" lon="20.072277">
<ele>1812.5</ele>
<desc>Speed 4.4 km/h Distance 5.19 km</desc>
<time>2013-07-23T14:29:44.69</time>
<name>2784</name>
<sym>Dot</sym>
</trkpt>
<trkpt lat="48.890620" lon="20.072253">
<ele>1812.5</ele>
<desc>Speed 5.9 km/h Distance 5.20 km</desc>
<time>2013-07-23T14:29:45.69</time>
<name>2785</name>
<sym>Dot</sym>
</trkpt>
<trkpt lat="48.890617" lon="20.072227">
<ele>1812.5</ele>
<desc>Speed 7.2 km/h Distance 5.20 km</desc>
<time>2013-07-23T14:29:46.71</time>
<name>2786</name>
<sym>Dot</sym>
</trkpt>
<trkpt lat="48.890617" lon="20.072200">
<ele>1812.5</ele>
<desc>Speed 6.8 km/h Distance 5.20 km</desc>
<time>2013-07-23T14:29:47.67</time>
<name>2787</name>
<sym>Dot</sym>
</trkpt>
<trkpt lat="48.890617" lon="20.072173">
<ele>1813.0</ele>
<desc>Speed 6.8 km/h Distance 5.20 km</desc>
<time>2013-07-23T14:29:48.67</time>
<name>2788</name>
<sym>Dot</sym>
</trkpt>
<trkpt lat="48.890615" lon="20.072147">
<ele>1812.5</ele>
<desc>Speed 6.6 km/h Distance 5.20 km</desc>
<time>2013-07-23T14:29:49.66</time>
<name>2789</name>
<sym>Dot</sym>
</trkpt>
<trkpt lat="48.890612" lon="20.072123">
<ele>1812.5</ele>
<desc>Speed 6.3 km/h Distance 5.21 km</desc>
<time>2013-07-23T14:29:50.66</time>
<name>2790</name>
<sym>Dot</sym>
</trkpt>
<trkpt lat="48.890612" lon="20.072100">
<ele>1812.0</ele>
<desc>Speed 6.5 km/h Distance 5.21 km</desc>
<time>2013-07-23T14:29:51.65</time>
<name>2791</name>
<sym>Dot</sym>
</trkpt>
<trkpt lat="48.890615" lon="20.072070">
<ele>1812.0</ele>
<desc>Speed 7.5 km/h Distance 5.21 km</desc>
<time>2013-07-23T14:29:52.65</time>
<name>2792</name>
<sym>Dot</sym>
</trkpt>
<trkpt lat="48.890620" lon="20.072040">
<ele>1812.5</ele>
<desc>Speed 7.7 km/h Distance 5.21 km</desc>
<time>2013-07-23T14:29:53.64</time>
<name>2793</name>
<sym>Dot</sym>
</trkpt>
<trkpt lat="48.890622" lon="20.072008">
<ele>1812.5</ele>
<desc>Speed 8.4 km/h Distance 5.21 km</desc>
<time>2013-07-23T14:29:54.64</time>
<name>2794</name>
<sym>Dot</sym>
</trkpt>
<trkpt lat="48.890618" lon="20.071978">
<ele>1812.5</ele>
<desc>Speed 8.1 km/h Distance 5.22 km</desc>
<time>2013-07-23T14:29:55.63</time>
<name>2795</name>
<sym>Dot</sym>
</trkpt>
<trkpt lat="48.890615" lon="20.071947">
<ele>1812.0</ele>
<desc>Speed 8.3 km/h Distance 5.22 km</desc>
<time>2013-07-23T14:29:56.63</time>
<name>2796</name>
<sym>Dot</sym>
</trkpt>
<trkpt lat="48.890612" lon="20.071917">
<ele>1812.0</ele>
<desc>Speed 7.8 km/h Distance 5.22 km</desc>
<time>2013-07-23T14:29:57.62</time>
<name>2797</name>
<sym>Dot</sym>
</trkpt>
<trkpt lat="48.890613" lon="20.071888">
<ele>1812.0</ele>
<desc>Speed 7.5 km/h Distance 5.22 km</desc>
<time>2013-07-23T14:29:58.62</time>
<name>2798</name>
<sym>Dot</sym>
</trkpt>
<trkpt lat="48.890613" lon="20.071863">
<ele>1812.0</ele>
<desc>Speed 6.7 km/h Distance 5.23 km</desc>
<time>2013-07-23T14:29:59.61</time>
<name>2799</name>
<sym>Dot</sym>
</trkpt>
<trkpt lat="48.890608" lon="20.071840">
<ele>1811.0</ele>
<desc>Speed 6.3 km/h Distance 5.23 km</desc>
<time>2013-07-23T14:30:00.60</time>
<name>2800</name>
<sym>Dot</sym>
</trkpt>
<trkpt lat="48.890610" lon="20.071818">
<ele>1810.5</ele>
<desc>Speed 5.5 km/h Distance 5.23 km</desc>
<time>2013-07-23T14:30:01.60</time>
<name>2801</name>
<sym>Dot</sym>
</trkpt>
<trkpt lat="48.890615" lon="20.071798">
<ele>1810.5</ele>
<desc>Speed 5.4 km/h Distance 5.23 km</desc>
<time>2013-07-23T14:30:02.60</time>
<name>2802</name>
<sym>Dot</sym>
</trkpt>
<trkpt lat="48.890620" lon="20.071778">
<ele>1811.0</ele>
<desc>Speed 4.9 km/h Distance 5.23 km</desc>
<time>2013-07-23T14:30:03.59</time>
<name>2803</name>
<sym>Dot</sym>
</trkpt>
<trkpt lat="48.890623" lon="20.071763">
<ele>1811.0</ele>
<desc>Speed 4.4 km/h Distance 5.23 km</desc>
<time>2013-07-23T14:30:04.76</time>
<name>2804</name>
<sym>Dot</sym>
</trkpt>
<trkpt lat="48.890628" lon="20.071743">
<ele>1811.0</ele>
<desc>Speed 5.0 km/h Distance 5.23 km</desc>
<time>2013-07-23T14:30:05.58</time>
<name>2805</name>
<sym>Dot</sym>
</trkpt>
<trkpt lat="48.890632" lon="20.071722">
<ele>1811.0</ele>
<desc>Speed 6.0 km/h Distance 5.24 km</desc>
<time>2013-07-23T14:30:06.58</time>
<name>2806</name>
<sym>Dot</sym>
</trkpt>
<trkpt lat="48.890635" lon="20.071697">
<ele>1811.0</ele>
<desc>Speed 6.9 km/h Distance 5.24 km</desc>
<time>2013-07-23T14:30:07.69</time>
<name>2807</name>
<sym>Dot</sym>
</trkpt>
<trkpt lat="48.890637" lon="20.071672">
<ele>1810.5</ele>
<desc>Speed 6.7 km/h Distance 5.24 km</desc>
<time>2013-07-23T14:30:08.57</time>
<name>2808</name>
<sym>Dot</sym>
</trkpt>
<trkpt lat="48.890637" lon="20.071647">
<ele>1810.0</ele>
<desc>Speed 6.8 km/h Distance 5.24 km</desc>
<time>2013-07-23T14:30:09.56</time>
<name>2809</name>
<sym>Dot</sym>
</trkpt>
<trkpt lat="48.890640" lon="20.071625">
<ele>1810.0</ele>
<desc>Speed 6.0 km/h Distance 5.24 km</desc>
<time>2013-07-23T14:30:10.56</time>
<name>2810</name>
<sym>Dot</sym>
</trkpt>
<trkpt lat="48.890643" lon="20.071608">
<ele>1809.5</ele>
<desc>Speed 4.8 km/h Distance 5.24 km</desc>
<time>2013-07-23T14:30:11.56</time>
<name>2811</name>
<sym>Dot</sym>
</trkpt>
<trkpt lat="48.890645" lon="20.071590">
<ele>1810.0</ele>
<desc>Speed 5.2 km/h Distance 5.25 km</desc>
<time>2013-07-23T14:30:12.65</time>
<name>2812</name>
<sym>Dot</sym>
</trkpt>
<trkpt lat="48.890645" lon="20.071567">
<ele>1809.5</ele>
<desc>Speed 6.1 km/h Distance 5.25 km</desc>
<time>2013-07-23T14:30:13.54</time>
<name>2813</name>
<sym>Dot</sym>
</trkpt>
<trkpt lat="48.890645" lon="20.071542">
<ele>1809.5</ele>
<desc>Speed 6.8 km/h Distance 5.25 km</desc>
<time>2013-07-23T14:30:14.54</time>
<name>2814</name>
<sym>Dot</sym>
</trkpt>
<trkpt lat="48.890647" lon="20.071515">
<ele>1809.5</ele>
<desc>Speed 7.1 km/h Distance 5.25 km</desc>
<time>2013-07-23T14:30:15.53</time>
<name>2815</name>
<sym>Dot</sym>
</trkpt>
<trkpt lat="48.890650" lon="20.071490">
<ele>1809.5</ele>
<desc>Speed 6.8 km/h Distance 5.25 km</desc>
<time>2013-07-23T14:30:16.53</time>
<name>2816</name>
<sym>Dot</sym>
</trkpt>
<trkpt lat="48.890653" lon="20.071462">
<ele>1809.0</ele>
<desc>Speed 7.5 km/h Distance 5.26 km</desc>
<time>2013-07-23T14:30:17.53</time>
<name>2817</name>
<sym>Dot</sym>
</trkpt>
<trkpt lat="48.890657" lon="20.071433">
<ele>1809.0</ele>
<desc>Speed 7.7 km/h Distance 5.26 km</desc>
<time>2013-07-23T14:30:18.53</time>
<name>2818</name>
<sym>Dot</sym>
</trkpt>
<trkpt lat="48.890658" lon="20.071403">
<ele>1808.5</ele>
<desc>Speed 7.9 km/h Distance 5.26 km</desc>
<time>2013-07-23T14:30:19.53</time>
<name>2819</name>
<sym>Dot</sym>
</trkpt>
<trkpt lat="48.890663" lon="20.071377">
<ele>1808.5</ele>
<desc>Speed 7.0 km/h Distance 5.26 km</desc>
<time>2013-07-23T14:30:20.53</time>
<name>2820</name>
<sym>Dot</sym>
</trkpt>
<trkpt lat="48.890667" lon="20.071352">
<ele>1808.5</ele>
<desc>Speed 6.8 km/h Distance 5.26 km</desc>
<time>2013-07-23T14:30:21.52</time>
<name>2821</name>
<sym>Dot</sym>
</trkpt>
<trkpt lat="48.890670" lon="20.071325">
<ele>1808.0</ele>
<desc>Speed 7.3 km/h Distance 5.27 km</desc>
<time>2013-07-23T14:30:22.52</time>
<name>2822</name>
<sym>Dot</sym>
</trkpt>
<trkpt lat="48.890675" lon="20.071298">
<ele>1808.0</ele>
<desc>Speed 7.1 km/h Distance 5.27 km</desc>
<time>2013-07-23T14:30:23.50</time>
<name>2823</name>
<sym>Dot</sym>
</trkpt>
<trkpt lat="48.890687" lon="20.071273">
<ele>1808.5</ele>
<desc>Speed 7.6 km/h Distance 5.27 km</desc>
<time>2013-07-23T14:30:24.50</time>
<name>2824</name>
<sym>Dot</sym>
</trkpt>
<trkpt lat="48.890693" lon="20.071247">
<ele>1808.5</ele>
<desc>Speed 7.4 km/h Distance 5.27 km</desc>
<time>2013-07-23T14:30:25.50</time>
<name>2825</name>
<sym>Dot</sym>
</trkpt>
<trkpt lat="48.890698" lon="20.071222">
<ele>1808.5</ele>
<desc>Speed 7.1 km/h Distance 5.27 km</desc>
<time>2013-07-23T14:30:26.50</time>
<name>2826</name>
<sym>Dot</sym>
</trkpt>
<trkpt lat="48.890705" lon="20.071195">
<ele>1808.5</ele>
<desc>Speed 7.6 km/h Distance 5.28 km</desc>
<time>2013-07-23T14:30:27.49</time>
<name>2827</name>
<sym>Dot</sym>
</trkpt>
<trkpt lat="48.890710" lon="20.071167">
<ele>1808.0</ele>
<desc>Speed 7.6 km/h Distance 5.28 km</desc>
<time>2013-07-23T14:30:28.49</time>
<name>2828</name>
<sym>Dot</sym>
</trkpt>
<trkpt lat="48.890713" lon="20.071140">
<ele>1808.0</ele>
<desc>Speed 7.3 km/h Distance 5.28 km</desc>
<time>2013-07-23T14:30:29.49</time>
<name>2829</name>
<sym>Dot</sym>
</trkpt>
<trkpt lat="48.890717" lon="20.071113">
<ele>1807.5</ele>
<desc>Speed 7.0 km/h Distance 5.28 km</desc>
<time>2013-07-23T14:30:30.48</time>
<name>2830</name>
<sym>Dot</sym>
</trkpt>
<trkpt lat="48.890720" lon="20.071082">
<ele>1807.5</ele>
<desc>Speed 8.1 km/h Distance 5.28 km</desc>
<time>2013-07-23T14:30:31.48</time>
<name>2831</name>
<sym>Dot</sym>
</trkpt>
<trkpt lat="48.890725" lon="20.071052">
<ele>1807.5</ele>
<desc>Speed 8.2 km/h Distance 5.29 km</desc>
<time>2013-07-23T14:30:32.47</time>
<name>2832</name>
<sym>Dot</sym>
</trkpt>
<trkpt lat="48.890733" lon="20.071023">
<ele>1807.5</ele>
<desc>Speed 8.2 km/h Distance 5.29 km</desc>
<time>2013-07-23T14:30:33.62</time>
<name>2833</name>
<sym>Dot</sym>
</trkpt>
<trkpt lat="48.890742" lon="20.070993">
<ele>1807.5</ele>
<desc>Speed 8.3 km/h Distance 5.29 km</desc>
<time>2013-07-23T14:30:35.35</time>
<name>2834</name>
<sym>Dot</sym>
</trkpt>
<trkpt lat="48.890762" lon="20.070933">
<ele>1808.5</ele>
<desc>Speed 8.2 km/h Distance 5.30 km</desc>
<time>2013-07-23T14:30:36.45</time>
<name>2835</name>
<sym>Dot</sym>
</trkpt>
<trkpt lat="48.890772" lon="20.070903">
<ele>1809.0</ele>
<desc>Speed 8.8 km/h Distance 5.30 km</desc>
<time>2013-07-23T14:30:37.44</time>
<name>2836</name>
<sym>Dot</sym>
</trkpt>
<trkpt lat="48.890782" lon="20.070873">
<ele>1809.0</ele>
<desc>Speed 9.0 km/h Distance 5.30 km</desc>
<time>2013-07-23T14:30:38.44</time>
<name>2837</name>
<sym>Dot</sym>
</trkpt>
<trkpt lat="48.890797" lon="20.070838">
<ele>1809.5</ele>
<desc>Speed 9.9 km/h Distance 5.30 km</desc>
<time>2013-07-23T14:30:39.47</time>
<name>2838</name>
<sym>Dot</sym>
</trkpt>
<trkpt lat="48.890805" lon="20.070800">
<ele>1809.0</ele>
<desc>Speed 11.0 km/h Distance 5.31 km</desc>
<time>2013-07-23T14:30:40.43</time>
<name>2839</name>
<sym>Dot</sym>
</trkpt>
<trkpt lat="48.890817" lon="20.070765">
<ele>1809.0</ele>
<desc>Speed 10.9 km/h Distance 5.31 km</desc>
<time>2013-07-23T14:30:41.43</time>
<name>2840</name>
<sym>Dot</sym>
</trkpt>
<trkpt lat="48.890823" lon="20.070727">
<ele>1809.0</ele>
<desc>Speed 11.0 km/h Distance 5.31 km</desc>
<time>2013-07-23T14:30:42.43</time>
<name>2841</name>
<sym>Dot</sym>
</trkpt>
<trkpt lat="48.890837" lon="20.070697">
<ele>1809.5</ele>
<desc>Speed 8.9 km/h Distance 5.32 km</desc>
<time>2013-07-23T14:30:43.42</time>
<name>2842</name>
<sym>Dot</sym>
</trkpt>
<trkpt lat="48.890845" lon="20.070663">
<ele>1809.5</ele>
<desc>Speed 10.0 km/h Distance 5.32 km</desc>
<time>2013-07-23T14:30:44.41</time>
<name>2843</name>
<sym>Dot</sym>
</trkpt>
<trkpt lat="48.890855" lon="20.070628">
<ele>1809.5</ele>
<desc>Speed 9.9 km/h Distance 5.32 km</desc>
<time>2013-07-23T14:30:45.51</time>
<name>2844</name>
<sym>Dot</sym>
</trkpt>
<trkpt lat="48.890863" lon="20.070592">
<ele>1809.0</ele>
<desc>Speed 10.1 km/h Distance 5.32 km</desc>
<time>2013-07-23T14:30:46.40</time>
<name>2845</name>
<sym>Dot</sym>
</trkpt>
<trkpt lat="48.890880" lon="20.070560">
<ele>1809.5</ele>
<desc>Speed 9.6 km/h Distance 5.33 km</desc>
<time>2013-07-23T14:30:47.40</time>
<name>2846</name>
<sym>Dot</sym>
</trkpt>
<trkpt lat="48.890890" lon="20.070527">
<ele>1809.5</ele>
<desc>Speed 9.8 km/h Distance 5.33 km</desc>
<time>2013-07-23T14:30:48.45</time>
<name>2847</name>
<sym>Dot</sym>
</trkpt>
<trkpt lat="48.890902" lon="20.070490">
<ele>1809.5</ele>
<desc>Speed 10.7 km/h Distance 5.33 km</desc>
<time>2013-07-23T14:30:49.40</time>
<name>2848</name>
<sym>Dot</sym>
</trkpt>
<trkpt lat="48.890913" lon="20.070455">
<ele>1809.0</ele>
<desc>Speed 10.2 km/h Distance 5.34 km</desc>
<time>2013-07-23T14:30:50.54</time>
<name>2849</name>
<sym>Dot</sym>
</trkpt>
<trkpt lat="48.890930" lon="20.070418">
<ele>1809.0</ele>
<desc>Speed 10.8 km/h Distance 5.34 km</desc>
<time>2013-07-23T14:30:51.39</time>
<name>2850</name>
<sym>Dot</sym>
</trkpt>
<trkpt lat="48.890943" lon="20.070377">
<ele>1809.0</ele>
<desc>Speed 11.8 km/h Distance 5.34 km</desc>
<time>2013-07-23T14:30:52.38</time>
<name>2851</name>
<sym>Dot</sym>
</trkpt>
<trkpt lat="48.890953" lon="20.070330">
<ele>1809.0</ele>
<desc>Speed 12.8 km/h Distance 5.35 km</desc>
<time>2013-07-23T14:30:53.38</time>
<name>2852</name>
<sym>Dot</sym>
</trkpt>
<trkpt lat="48.890962" lon="20.070285">
<ele>1809.0</ele>
<desc>Speed 12.4 km/h Distance 5.35 km</desc>
<time>2013-07-23T14:30:54.37</time>
<name>2853</name>
<sym>Dot</sym>
</trkpt>
<trkpt lat="48.890972" lon="20.070238">
<ele>1809.0</ele>
<desc>Speed 12.3 km/h Distance 5.35 km</desc>
<time>2013-07-23T14:30:55.36</time>
<name>2854</name>
<sym>Dot</sym>
</trkpt>
<trkpt lat="48.890973" lon="20.070190">
<ele>1809.0</ele>
<desc>Speed 12.5 km/h Distance 5.36 km</desc>
<time>2013-07-23T14:30:56.35</time>
<name>2855</name>
<sym>Dot</sym>
</trkpt>
<trkpt lat="48.890975" lon="20.070138">
<ele>1808.5</ele>
<desc>Speed 13.4 km/h Distance 5.36 km</desc>
<time>2013-07-23T14:30:57.34</time>
<name>2856</name>
<sym>Dot</sym>
</trkpt>
<trkpt lat="48.890973" lon="20.070085">
<ele>1807.5</ele>
<desc>Speed 13.5 km/h Distance 5.36 km</desc>
<time>2013-07-23T14:30:58.35</time>
<name>2857</name>
<sym>Dot</sym>
</trkpt>
<trkpt lat="48.890973" lon="20.070035">
<ele>1807.0</ele>
<desc>Speed 13.2 km/h Distance 5.37 km</desc>
<time>2013-07-23T14:30:59.34</time>
<name>2858</name>
<sym>Dot</sym>
</trkpt>
<trkpt lat="48.890973" lon="20.069982">
<ele>1806.5</ele>
<desc>Speed 14.1 km/h Distance 5.37 km</desc>
<time>2013-07-23T14:31:00.36</time>
<name>2859</name>
<sym>Dot</sym>
</trkpt>
<trkpt lat="48.890980" lon="20.069923">
<ele>1807.0</ele>
<desc>Speed 15.8 km/h Distance 5.38 km</desc>
<time>2013-07-23T14:31:01.33</time>
<name>2860</name>
<sym>Dot</sym>
</trkpt>
<trkpt lat="48.890988" lon="20.069863">
<ele>1806.5</ele>
<desc>Speed 16.2 km/h Distance 5.38 km</desc>
<time>2013-07-23T14:31:02.32</time>
<name>2861</name>
<sym>Dot</sym>
</trkpt>
<trkpt lat="48.890998" lon="20.069797">
<ele>1806.5</ele>
<desc>Speed 17.6 km/h Distance 5.39 km</desc>
<time>2013-07-23T14:31:03.32</time>
<name>2862</name>
<sym>Dot</sym>
</trkpt>
<trkpt lat="48.890998" lon="20.069728">
<ele>1806.0</ele>
<desc>Speed 17.5 km/h Distance 5.39 km</desc>
<time>2013-07-23T14:31:04.31</time>
<name>2863</name>
<sym>Dot</sym>
</trkpt>
<trkpt lat="48.890998" lon="20.069653">
<ele>1805.5</ele>
<desc>Speed 19.4 km/h Distance 5.40 km</desc>
<time>2013-07-23T14:31:05.31</time>
<name>2864</name>
<sym>Dot</sym>
</trkpt>
<trkpt lat="48.891002" lon="20.069577">
<ele>1805.0</ele>
<desc>Speed 20.4 km/h Distance 5.40 km</desc>
<time>2013-07-23T14:31:06.30</time>
<name>2865</name>
<sym>Dot</sym>
</trkpt>
<trkpt lat="48.891002" lon="20.069495">
<ele>1805.0</ele>
<desc>Speed 21.5 km/h Distance 5.41 km</desc>
<time>2013-07-23T14:31:07.30</time>
<name>2866</name>
<sym>Dot</sym>
</trkpt>
<trkpt lat="48.891000" lon="20.069408">
<ele>1804.0</ele>
<desc>Speed 22.4 km/h Distance 5.41 km</desc>
<time>2013-07-23T14:31:08.29</time>
<name>2867</name>
<sym>Dot</sym>
</trkpt>
<trkpt lat="48.890998" lon="20.069325">
<ele>1803.0</ele>
<desc>Speed 22.2 km/h Distance 5.42 km</desc>
<time>2013-07-23T14:31:09.29</time>
<name>2868</name>
<sym>Dot</sym>
</trkpt>
<trkpt lat="48.890998" lon="20.069247">
<ele>1802.5</ele>
<desc>Speed 20.7 km/h Distance 5.43 km</desc>
<time>2013-07-23T14:31:10.29</time>
<name>2869</name>
<sym>Dot</sym>
</trkpt>
<trkpt lat="48.891000" lon="20.069168">
<ele>1802.5</ele>
<desc>Speed 20.5 km/h Distance 5.43 km</desc>
<time>2013-07-23T14:31:11.28</time>
<name>2870</name>
<sym>Dot</sym>
</trkpt>
<trkpt lat="48.891003" lon="20.069098">
<ele>1802.5</ele>
<desc>Speed 18.4 km/h Distance 5.44 km</desc>
<time>2013-07-23T14:31:12.27</time>
<name>2871</name>
<sym>Dot</sym>
</trkpt>
<trkpt lat="48.891000" lon="20.069030">
<ele>1802.0</ele>
<desc>Speed 17.8 km/h Distance 5.44 km</desc>
<time>2013-07-23T14:31:13.27</time>
<name>2872</name>
<sym>Dot</sym>
</trkpt>
<trkpt lat="48.891000" lon="20.068967">
<ele>1801.5</ele>
<desc>Speed 16.3 km/h Distance 5.45 km</desc>
<time>2013-07-23T14:31:14.26</time>
<name>2873</name>
<sym>Dot</sym>
</trkpt>
<trkpt lat="48.891003" lon="20.068902">
<ele>1801.5</ele>
<desc>Speed 16.3 km/h Distance 5.45 km</desc>
<time>2013-07-23T14:31:15.26</time>
<name>2874</name>
<sym>Dot</sym>
</trkpt>
<trkpt lat="48.891010" lon="20.068842">
<ele>1801.5</ele>
<desc>Speed 16.1 km/h Distance 5.46 km</desc>
<time>2013-07-23T14:31:16.25</time>
<name>2875</name>
<sym>Dot</sym>
</trkpt>
<trkpt lat="48.891017" lon="20.068778">
<ele>1801.5</ele>
<desc>Speed 16.8 km/h Distance 5.46 km</desc>
<time>2013-07-23T14:31:17.24</time>
<name>2876</name>
<sym>Dot</sym>
</trkpt>
<trkpt lat="48.891013" lon="20.068708">
<ele>1800.5</ele>
<desc>Speed 18.5 km/h Distance 5.47 km</desc>
<time>2013-07-23T14:31:18.23</time>
<name>2877</name>
<sym>Dot</sym>
</trkpt>
<trkpt lat="48.891017" lon="20.068643">
<ele>1800.5</ele>
<desc>Speed 17.0 km/h Distance 5.47 km</desc>
<time>2013-07-23T14:31:19.23</time>
<name>2878</name>
<sym>Dot</sym>
</trkpt>
<trkpt lat="48.891020" lon="20.068578">
<ele>1800.0</ele>
<desc>Speed 16.9 km/h Distance 5.47 km</desc>
<time>2013-07-23T14:31:20.24</time>
<name>2879</name>
<sym>Dot</sym>
</trkpt>
<trkpt lat="48.891017" lon="20.068512">
<ele>1800.0</ele>
<desc>Speed 17.4 km/h Distance 5.48 km</desc>
<time>2013-07-23T14:31:21.23</time>
<name>2880</name>
<sym>Dot</sym>
</trkpt>
<trkpt lat="48.891007" lon="20.068452">
<ele>1799.5</ele>
<desc>Speed 16.3 km/h Distance 5.48 km</desc>
<time>2013-07-23T14:31:22.23</time>
<name>2881</name>
<sym>Dot</sym>
</trkpt>
<trkpt lat="48.891000" lon="20.068395">
<ele>1799.5</ele>
<desc>Speed 15.5 km/h Distance 5.49 km</desc>
<time>2013-07-23T14:31:23.22</time>
<name>2882</name>
<sym>Dot</sym>
</trkpt>
<trkpt lat="48.890995" lon="20.068342">
<ele>1799.5</ele>
<desc>Speed 14.2 km/h Distance 5.49 km</desc>
<time>2013-07-23T14:31:24.22</time>
<name>2883</name>
<sym>Dot</sym>
</trkpt>
<trkpt lat="48.890995" lon="20.068288">
<ele>1799.5</ele>
<desc>Speed 14.0 km/h Distance 5.50 km</desc>
<time>2013-07-23T14:31:25.21</time>
<name>2884</name>
<sym>Dot</sym>
</trkpt>
<trkpt lat="48.890997" lon="20.068238">
<ele>1799.5</ele>
<desc>Speed 13.4 km/h Distance 5.50 km</desc>
<time>2013-07-23T14:31:26.21</time>
<name>2885</name>
<sym>Dot</sym>
</trkpt>
<trkpt lat="48.890995" lon="20.068193">
<ele>1799.5</ele>
<desc>Speed 11.4 km/h Distance 5.50 km</desc>
<time>2013-07-23T14:31:27.26</time>
<name>2886</name>
<sym>Dot</sym>
</trkpt>
<trkpt lat="48.890990" lon="20.068152">
<ele>1799.0</ele>
<desc>Speed 11.4 km/h Distance 5.51 km</desc>
<time>2013-07-23T14:31:28.20</time>
<name>2887</name>
<sym>Dot</sym>
</trkpt>
<trkpt lat="48.890985" lon="20.068110">
<ele>1799.0</ele>
<desc>Speed 10.7 km/h Distance 5.51 km</desc>
<time>2013-07-23T14:31:29.20</time>
<name>2888</name>
<sym>Dot</sym>
</trkpt>
<trkpt lat="48.890982" lon="20.068073">
<ele>1798.5</ele>
<desc>Speed 10.0 km/h Distance 5.51 km</desc>
<time>2013-07-23T14:31:30.20</time>
<name>2889</name>
<sym>Dot</sym>
</trkpt>
<trkpt lat="48.890978" lon="20.068030">
<ele>1798.0</ele>
<desc>Speed 11.7 km/h Distance 5.52 km</desc>
<time>2013-07-23T14:31:31.19</time>
<name>2890</name>
<sym>Dot</sym>
</trkpt>
<trkpt lat="48.890973" lon="20.067983">
<ele>1798.0</ele>
<desc>Speed 12.4 km/h Distance 5.52 km</desc>
<time>2013-07-23T14:31:32.19</time>
<name>2891</name>
<sym>Dot</sym>
</trkpt>
<trkpt lat="48.890967" lon="20.067933">
<ele>1797.5</ele>
<desc>Speed 13.6 km/h Distance 5.52 km</desc>
<time>2013-07-23T14:31:33.19</time>
<name>2892</name>
<sym>Dot</sym>
</trkpt>
<trkpt lat="48.890957" lon="20.067880">
<ele>1797.0</ele>
<desc>Speed 14.1 km/h Distance 5.53 km</desc>
<time>2013-07-23T14:31:34.18</time>
<name>2893</name>
<sym>Dot</sym>
</trkpt>
<trkpt lat="48.890943" lon="20.067830">
<ele>1796.0</ele>
<desc>Speed 13.9 km/h Distance 5.53 km</desc>
<time>2013-07-23T14:31:35.18</time>
<name>2894</name>
<sym>Dot</sym>
</trkpt>
<trkpt lat="48.890937" lon="20.067782">
<ele>1796.0</ele>
<desc>Speed 13.4 km/h Distance 5.53 km</desc>
<time>2013-07-23T14:31:36.18</time>
<name>2895</name>
<sym>Dot</sym>
</trkpt>
<trkpt lat="48.890933" lon="20.067737">
<ele>1796.5</ele>
<desc>Speed 13.1 km/h Distance 5.54 km</desc>
<time>2013-07-23T14:31:37.18</time>
<name>2896</name>
<sym>Dot</sym>
</trkpt>
<trkpt lat="48.890927" lon="20.067693">
<ele>1796.0</ele>
<desc>Speed 11.6 km/h Distance 5.54 km</desc>
<time>2013-07-23T14:31:38.18</time>
<name>2897</name>
<sym>Dot</sym>
</trkpt>
<trkpt lat="48.890925" lon="20.067645">
<ele>1796.0</ele>
<desc>Speed 12.2 km/h Distance 5.54 km</desc>
<time>2013-07-23T14:31:39.17</time>
<name>2898</name>
<sym>Dot</sym>
</trkpt>
<trkpt lat="48.890918" lon="20.067598">
<ele>1796.0</ele>
<desc>Speed 12.6 km/h Distance 5.55 km</desc>
<time>2013-07-23T14:31:40.17</time>
<name>2899</name>
<sym>Dot</sym>
</trkpt>
<trkpt lat="48.890910" lon="20.067553">
<ele>1796.5</ele>
<desc>Speed 12.1 km/h Distance 5.55 km</desc>
<time>2013-07-23T14:31:41.17</time>
<name>2900</name>
<sym>Dot</sym>
</trkpt>
<trkpt lat="48.890902" lon="20.067502">
<ele>1796.0</ele>
<desc>Speed 13.6 km/h Distance 5.56 km</desc>
<time>2013-07-23T14:31:42.17</time>
<name>2901</name>
<sym>Dot</sym>
</trkpt>
<trkpt lat="48.890900" lon="20.067447">
<ele>1796.0</ele>
<desc>Speed 14.3 km/h Distance 5.56 km</desc>
<time>2013-07-23T14:31:43.16</time>
<name>2902</name>
<sym>Dot</sym>
</trkpt>
<trkpt lat="48.890895" lon="20.067390">
<ele>1796.0</ele>
<desc>Speed 15.2 km/h Distance 5.56 km</desc>
<time>2013-07-23T14:31:44.16</time>
<name>2903</name>
<sym>Dot</sym>
</trkpt>
<trkpt lat="48.890887" lon="20.067332">
<ele>1794.5</ele>
<desc>Speed 16.1 km/h Distance 5.57 km</desc>
<time>2013-07-23T14:31:45.16</time>
<name>2904</name>
<sym>Dot</sym>
</trkpt>
<trkpt lat="48.890882" lon="20.067275">
<ele>1794.0</ele>
<desc>Speed 14.7 km/h Distance 5.57 km</desc>
<time>2013-07-23T14:31:46.15</time>
<name>2905</name>
<sym>Dot</sym>
</trkpt>
<trkpt lat="48.890882" lon="20.067225">
<ele>1795.0</ele>
<desc>Speed 13.5 km/h Distance 5.58 km</desc>
<time>2013-07-23T14:31:47.14</time>
<name>2906</name>
<sym>Dot</sym>
</trkpt>
<trkpt lat="48.890877" lon="20.067177">
<ele>1795.0</ele>
<desc>Speed 12.9 km/h Distance 5.58 km</desc>
<time>2013-07-23T14:31:48.13</time>
<name>2907</name>
<sym>Dot</sym>
</trkpt>
<trkpt lat="48.890870" lon="20.067133">
<ele>1794.5</ele>
<desc>Speed 12.6 km/h Distance 5.58 km</desc>
<time>2013-07-23T14:31:49.13</time>
<name>2908</name>
<sym>Dot</sym>
</trkpt>
<trkpt lat="48.890868" lon="20.067090">
<ele>1795.0</ele>
<desc>Speed 12.1 km/h Distance 5.59 km</desc>
<time>2013-07-23T14:31:50.34</time>
<name>2909</name>
<sym>Dot</sym>
</trkpt>
<trkpt lat="48.890858" lon="20.067048">
<ele>1794.5</ele>
<desc>Speed 11.5 km/h Distance 5.59 km</desc>
<time>2013-07-23T14:31:51.12</time>
<name>2910</name>
<sym>Dot</sym>
</trkpt>
<trkpt lat="48.890848" lon="20.067008">
<ele>1794.5</ele>
<desc>Speed 11.7 km/h Distance 5.59 km</desc>
<time>2013-07-23T14:31:52.13</time>
<name>2911</name>
<sym>Dot</sym>
</trkpt>
<trkpt lat="48.890842" lon="20.066970">
<ele>1794.5</ele>
<desc>Speed 10.5 km/h Distance 5.59 km</desc>
<time>2013-07-23T14:31:53.12</time>
<name>2912</name>
<sym>Dot</sym>
</trkpt>
<trkpt lat="48.890837" lon="20.066933">
<ele>1794.5</ele>
<desc>Speed 10.0 km/h Distance 5.60 km</desc>
<time>2013-07-23T14:31:54.30</time>
<name>2913</name>
<sym>Dot</sym>
</trkpt>
<trkpt lat="48.890828" lon="20.066893">
<ele>1794.0</ele>
<desc>Speed 11.8 km/h Distance 5.60 km</desc>
<time>2013-07-23T14:31:55.10</time>
<name>2914</name>
<sym>Dot</sym>
</trkpt>
<trkpt lat="48.890820" lon="20.066855">
<ele>1794.0</ele>
<desc>Speed 10.9 km/h Distance 5.60 km</desc>
<time>2013-07-23T14:31:56.10</time>
<name>2915</name>
<sym>Dot</sym>
</trkpt>
<trkpt lat="48.890815" lon="20.066813">
<ele>1794.0</ele>
<desc>Speed 11.1 km/h Distance 5.61 km</desc>
<time>2013-07-23T14:31:57.10</time>
<name>2916</name>
<sym>Dot</sym>
</trkpt>
<trkpt lat="48.890813" lon="20.066773">
<ele>1794.5</ele>
<desc>Speed 11.1 km/h Distance 5.61 km</desc>
<time>2013-07-23T14:31:58.09</time>
<name>2917</name>
<sym>Dot</sym>
</trkpt>
<trkpt lat="48.890803" lon="20.066727">
<ele>1794.5</ele>
<desc>Speed 12.9 km/h Distance 5.61 km</desc>
<time>2013-07-23T14:31:59.09</time>
<name>2918</name>
<sym>Dot</sym>
</trkpt>
<trkpt lat="48.890788" lon="20.066680">
<ele>1793.5</ele>
<desc>Speed 14.0 km/h Distance 5.62 km</desc>
<time>2013-07-23T14:32:00.09</time>
<name>2919</name>
<sym>Dot</sym>
</trkpt>
<trkpt lat="48.890782" lon="20.066633">
<ele>1793.5</ele>
<desc>Speed 12.6 km/h Distance 5.62 km</desc>
<time>2013-07-23T14:32:01.09</time>
<name>2920</name>
<sym>Dot</sym>
</trkpt>
<trkpt lat="48.890772" lon="20.066588">
<ele>1793.5</ele>
<desc>Speed 12.7 km/h Distance 5.62 km</desc>
<time>2013-07-23T14:32:02.09</time>
<name>2921</name>
<sym>Dot</sym>
</trkpt>
<trkpt lat="48.890763" lon="20.066547">
<ele>1794.0</ele>
<desc>Speed 12.1 km/h Distance 5.63 km</desc>
<time>2013-07-23T14:32:03.08</time>
<name>2922</name>
<sym>Dot</sym>
</trkpt>
<trkpt lat="48.890752" lon="20.066497">
<ele>1793.0</ele>
<desc>Speed 14.0 km/h Distance 5.63 km</desc>
<time>2013-07-23T14:32:04.08</time>
<name>2923</name>
<sym>Dot</sym>
</trkpt>
<trkpt lat="48.890748" lon="20.066447">
<ele>1793.0</ele>
<desc>Speed 13.5 km/h Distance 5.63 km</desc>
<time>2013-07-23T14:32:05.08</time>
<name>2924</name>
<sym>Dot</sym>
</trkpt>
<trkpt lat="48.890742" lon="20.066390">
<ele>1791.5</ele>
<desc>Speed 15.1 km/h Distance 5.64 km</desc>
<time>2013-07-23T14:32:06.08</time>
<name>2925</name>
<sym>Dot</sym>
</trkpt>
<trkpt lat="48.890737" lon="20.066332">
<ele>1791.5</ele>
<desc>Speed 15.2 km/h Distance 5.64 km</desc>
<time>2013-07-23T14:32:07.07</time>
<name>2926</name>
<sym>Dot</sym>
</trkpt>
<trkpt lat="48.890725" lon="20.066275">
<ele>1790.5</ele>
<desc>Speed 15.8 km/h Distance 5.65 km</desc>
<time>2013-07-23T14:32:08.06</time>
<name>2927</name>
<sym>Dot</sym>
</trkpt>
<trkpt lat="48.890725" lon="20.066220">
<ele>1790.5</ele>
<desc>Speed 14.2 km/h Distance 5.65 km</desc>
<time>2013-07-23T14:32:09.12</time>
<name>2928</name>
<sym>Dot</sym>
</trkpt>
<trkpt lat="48.890735" lon="20.066167">
<ele>1792.0</ele>
<desc>Speed 14.1 km/h Distance 5.66 km</desc>
<time>2013-07-23T14:32:10.07</time>
<name>2929</name>
<sym>Dot</sym>
</trkpt>
<trkpt lat="48.890740" lon="20.066118">
<ele>1792.5</ele>
<desc>Speed 13.4 km/h Distance 5.66 km</desc>
<time>2013-07-23T14:32:11.06</time>
<name>2930</name>
<sym>Dot</sym>
</trkpt>
<trkpt lat="48.890742" lon="20.066065">
<ele>1793.0</ele>
<desc>Speed 14.1 km/h Distance 5.66 km</desc>
<time>2013-07-23T14:32:12.05</time>
<name>2931</name>
<sym>Dot</sym>
</trkpt>
<trkpt lat="48.890740" lon="20.066012">
<ele>1792.5</ele>
<desc>Speed 13.6 km/h Distance 5.67 km</desc>
<time>2013-07-23T14:32:13.05</time>
<name>2932</name>
<sym>Dot</sym>
</trkpt>
<trkpt lat="48.890738" lon="20.065963">
<ele>1793.0</ele>
<desc>Speed 12.8 km/h Distance 5.67 km</desc>
<time>2013-07-23T14:32:14.05</time>
<name>2933</name>
<sym>Dot</sym>
</trkpt>
<trkpt lat="48.890738" lon="20.065918">
<ele>1793.5</ele>
<desc>Speed 12.5 km/h Distance 5.67 km</desc>
<time>2013-07-23T14:32:15.04</time>
<name>2934</name>
<sym>Dot</sym>
</trkpt>
<trkpt lat="48.890740" lon="20.065873">
<ele>1793.5</ele>
<desc>Speed 11.8 km/h Distance 5.68 km</desc>
<time>2013-07-23T14:32:16.04</time>
<name>2935</name>
<sym>Dot</sym>
</trkpt>
<trkpt lat="48.890742" lon="20.065833">
<ele>1793.5</ele>
<desc>Speed 10.9 km/h Distance 5.68 km</desc>
<time>2013-07-23T14:32:17.03</time>
<name>2936</name>
<sym>Dot</sym>
</trkpt>
<trkpt lat="48.890740" lon="20.065795">
<ele>1793.5</ele>
<desc>Speed 10.3 km/h Distance 5.68 km</desc>
<time>2013-07-23T14:32:18.03</time>
<name>2937</name>
<sym>Dot</sym>
</trkpt>
<trkpt lat="48.890733" lon="20.065755">
<ele>1793.5</ele>
<desc>Speed 11.2 km/h Distance 5.69 km</desc>
<time>2013-07-23T14:32:19.02</time>
<name>2938</name>
<sym>Dot</sym>
</trkpt>
<trkpt lat="48.890727" lon="20.065712">
<ele>1793.5</ele>
<desc>Speed 11.5 km/h Distance 5.69 km</desc>
<time>2013-07-23T14:32:20.02</time>
<name>2939</name>
<sym>Dot</sym>
</trkpt>
<trkpt lat="48.890723" lon="20.065672">
<ele>1794.0</ele>
<desc>Speed 11.1 km/h Distance 5.69 km</desc>
<time>2013-07-23T14:32:21.02</time>
<name>2940</name>
<sym>Dot</sym>
</trkpt>
<trkpt lat="48.890718" lon="20.065630">
<ele>1794.5</ele>
<desc>Speed 11.7 km/h Distance 5.70 km</desc>
<time>2013-07-23T14:32:22.01</time>
<name>2941</name>
<sym>Dot</sym>
</trkpt>
<trkpt lat="48.890713" lon="20.065585">
<ele>1794.5</ele>
<desc>Speed 12.0 km/h Distance 5.70 km</desc>
<time>2013-07-23T14:32:23.00</time>
<name>2942</name>
<sym>Dot</sym>
</trkpt>
<trkpt lat="48.890708" lon="20.065545">
<ele>1794.5</ele>
<desc>Speed 10.8 km/h Distance 5.70 km</desc>
<time>2013-07-23T14:32:24.00</time>
<name>2943</name>
<sym>Dot</sym>
</trkpt>
<trkpt lat="48.890705" lon="20.065508">
<ele>1795.0</ele>
<desc>Speed 9.6 km/h Distance 5.70 km</desc>
<time>2013-07-23T14:32:25.00</time>
<name>2944</name>
<sym>Dot</sym>
</trkpt>
<trkpt lat="48.890707" lon="20.065478">
<ele>1795.5</ele>
<desc>Speed 8.0 km/h Distance 5.71 km</desc>
<time>2013-07-23T14:32:26.04</time>
<name>2945</name>
<sym>Dot</sym>
</trkpt>
<trkpt lat="48.890705" lon="20.065447">
<ele>1795.5</ele>
<desc>Speed 8.1 km/h Distance 5.71 km</desc>
<time>2013-07-23T14:32:26.99</time>
<name>2946</name>
<sym>Dot</sym>
</trkpt>
<trkpt lat="48.890713" lon="20.065422">
<ele>1796.5</ele>
<desc>Speed 7.3 km/h Distance 5.71 km</desc>
<time>2013-07-23T14:32:27.98</time>
<name>2947</name>
<sym>Dot</sym>
</trkpt>
<trkpt lat="48.890725" lon="20.065390">
<ele>1797.5</ele>
<desc>Speed 9.4 km/h Distance 5.71 km</desc>
<time>2013-07-23T14:32:28.98</time>
<name>2948</name>
<sym>Dot</sym>
</trkpt>
<trkpt lat="48.890735" lon="20.065370">
<ele>1797.5</ele>
<desc>Speed 6.4 km/h Distance 5.72 km</desc>
<time>2013-07-23T14:32:29.98</time>
<name>2949</name>
<sym>Dot</sym>
</trkpt>
<trkpt lat="48.890747" lon="20.065348">
<ele>1797.5</ele>
<desc>Speed 7.6 km/h Distance 5.72 km</desc>
<time>2013-07-23T14:32:30.97</time>
<name>2950</name>
<sym>Dot</sym>
</trkpt>
<trkpt lat="48.890757" lon="20.065330">
<ele>1797.5</ele>
<desc>Speed 5.8 km/h Distance 5.72 km</desc>
<time>2013-07-23T14:32:31.97</time>
<name>2951</name>
<sym>Dot</sym>
</trkpt>
<trkpt lat="48.890758" lon="20.065303">
<ele>1797.5</ele>
<desc>Speed 6.8 km/h Distance 5.72 km</desc>
<time>2013-07-23T14:32:32.97</time>
<name>2952</name>
<sym>Dot</sym>
</trkpt>
<trkpt lat="48.890758" lon="20.065280">
<ele>1797.0</ele>
<desc>Speed 5.5 km/h Distance 5.72 km</desc>
<time>2013-07-23T14:32:34.12</time>
<name>2953</name>
<sym>Dot</sym>
</trkpt>
<trkpt lat="48.890762" lon="20.065255">
<ele>1797.0</ele>
<desc>Speed 6.6 km/h Distance 5.72 km</desc>
<time>2013-07-23T14:32:34.97</time>
<name>2954</name>
<sym>Dot</sym>
</trkpt>
<trkpt lat="48.890768" lon="20.065225">
<ele>1797.0</ele>
<desc>Speed 6.1 km/h Distance 5.73 km</desc>
<time>2013-07-23T14:32:36.96</time>
<name>2955</name>
<sym>Dot</sym>
</trkpt>
<trkpt lat="48.890770" lon="20.065198">
<ele>1797.0</ele>
<desc>Speed 5.9 km/h Distance 5.73 km</desc>
<time>2013-07-23T14:32:37.95</time>
<name>2956</name>
<sym>Dot</sym>
</trkpt>
<trkpt lat="48.890768" lon="20.065182">
<ele>1796.0</ele>
<desc>Speed 3.9 km/h Distance 5.73 km</desc>
<time>2013-07-23T14:32:38.94</time>
<name>2957</name>
<sym>Dot</sym>
</trkpt>
<trkpt lat="48.890768" lon="20.065165">
<ele>1796.0</ele>
<desc>Speed 4.1 km/h Distance 5.73 km</desc>
<time>2013-07-23T14:32:39.94</time>
<name>2958</name>
<sym>Dot</sym>
</trkpt>
<trkpt lat="48.890768" lon="20.065150">
<ele>1795.5</ele>
<desc>Speed 3.1 km/h Distance 5.73 km</desc>
<time>2013-07-23T14:32:40.94</time>
<name>2959</name>
<sym>Dot</sym>
</trkpt>
<trkpt lat="48.890783" lon="20.065097">
<ele>1794.0</ele>
<desc>Speed 4.0 km/h Distance 5.74 km</desc>
<time>2013-07-23T14:33:56.93</time>
<name>2960</name>
<sym>Dot</sym>
</trkpt>
<trkpt lat="48.890782" lon="20.065083">
<ele>1793.0</ele>
<desc>Speed 3.4 km/h Distance 5.74 km</desc>
<time>2013-07-23T14:33:57.92</time>
<name>2961</name>
<sym>Dot</sym>
</trkpt>
<trkpt lat="48.890767" lon="20.065077">
<ele>1793.0</ele>
<desc>Speed 2.7 km/h Distance 5.74 km</desc>
<time>2013-07-23T14:34:00.92</time>
<name>2962</name>
<sym>Dot</sym>
</trkpt>
<trkpt lat="48.890758" lon="20.065085">
<ele>1793.0</ele>
<desc>Speed 2.5 km/h Distance 5.74 km</desc>
<time>2013-07-23T14:34:02.92</time>
<name>2963</name>
<sym>Dot</sym>
</trkpt>
<trkpt lat="48.890748" lon="20.065103">
<ele>1795.0</ele>
<desc>Speed 5.1 km/h Distance 5.74 km</desc>
<time>2013-07-23T14:34:04.91</time>
<name>2964</name>
<sym>Dot</sym>
</trkpt>
<trkpt lat="48.890758" lon="20.065108">
<ele>1794.5</ele>
<desc>Speed 5.6 km/h Distance 5.74 km</desc>
<time>2013-07-23T14:34:53.91</time>
<name>2965</name>
<sym>Dot</sym>
</trkpt>
<trkpt lat="48.890773" lon="20.065122">
<ele>1795.0</ele>
<desc>Speed 6.6 km/h Distance 5.75 km</desc>
<time>2013-07-23T14:34:54.90</time>
<name>2966</name>
<sym>Dot</sym>
</trkpt>
<trkpt lat="48.890778" lon="20.065120">
<ele>1794.5</ele>
<desc>Speed 2.4 km/h Distance 5.75 km</desc>
<time>2013-07-23T14:34:55.90</time>
<name>2967</name>
<sym>Dot</sym>
</trkpt>
<trkpt lat="48.890782" lon="20.065112">
<ele>1794.0</ele>
<desc>Speed 2.4 km/h Distance 5.75 km</desc>
<time>2013-07-23T14:35:01.89</time>
<name>2968</name>
<sym>Dot</sym>
</trkpt>
<trkpt lat="48.890773" lon="20.065105">
<ele>1793.5</ele>
<desc>Speed 2.4 km/h Distance 5.75 km</desc>
<time>2013-07-23T14:35:03.89</time>
<name>2969</name>
<sym>Dot</sym>
</trkpt>
<trkpt lat="48.890787" lon="20.065095">
<ele>1793.0</ele>
<desc>Speed 6.6 km/h Distance 5.75 km</desc>
<time>2013-07-23T14:35:04.89</time>
<name>2970</name>
<sym>Dot</sym>
</trkpt>
<trkpt lat="48.890783" lon="20.065090">
<ele>1793.5</ele>
<desc>Speed 2.2 km/h Distance 5.75 km</desc>
<time>2013-07-23T14:35:05.87</time>
<name>2971</name>
<sym>Dot</sym>
</trkpt>
<trkpt lat="48.890772" lon="20.065103">
<ele>1793.0</ele>
<desc>Speed 2.7 km/h Distance 5.75 km</desc>
<time>2013-07-23T14:35:07.87</time>
<name>2972</name>
<sym>Dot</sym>
</trkpt>
<trkpt lat="48.890757" lon="20.065090">
<ele>1795.5</ele>
<desc>Speed 2.7 km/h Distance 5.75 km</desc>
<time>2013-07-23T14:35:14.86</time>
<name>2973</name>
<sym>Dot</sym>
</trkpt>
<trkpt lat="48.890755" lon="20.065093">
<ele>1796.0</ele>
<desc>Speed 2.2 km/h Distance 5.75 km</desc>
<time>2013-07-23T14:35:16.85</time>
<name>2974</name>
<sym>Dot</sym>
</trkpt>
<trkpt lat="48.890755" lon="20.065082">
<ele>1793.0</ele>
<desc>Speed 2.3 km/h Distance 5.75 km</desc>
<time>2013-07-23T14:35:24.85</time>
<name>2975</name>
<sym>Dot</sym>
</trkpt>
<trkpt lat="48.890778" lon="20.065085">
<ele>1794.5</ele>
<desc>Speed 6.4 km/h Distance 5.76 km</desc>
<time>2013-07-23T14:35:25.84</time>
<name>2976</name>
<sym>Dot</sym>
</trkpt>
<trkpt lat="48.890787" lon="20.065078">
<ele>1795.0</ele>
<desc>Speed 3.1 km/h Distance 5.76 km</desc>
<time>2013-07-23T14:35:26.84</time>
<name>2977</name>
<sym>Dot</sym>
</trkpt>
<trkpt lat="48.890790" lon="20.065083">
<ele>1794.0</ele>
<desc>Speed 2.5 km/h Distance 5.76 km</desc>
<time>2013-07-23T14:35:38.84</time>
<name>2978</name>
<sym>Dot</sym>
</trkpt>
<trkpt lat="48.890780" lon="20.065083">
<ele>1794.5</ele>
<desc>Speed 3.1 km/h Distance 5.76 km</desc>
<time>2013-07-23T14:35:40.84</time>
<name>2979</name>
<sym>Dot</sym>
</trkpt>
<trkpt lat="48.890772" lon="20.065088">
<ele>1792.5</ele>
<desc>Speed 2.4 km/h Distance 5.76 km</desc>
<time>2013-07-23T14:35:57.83</time>
<name>2980</name>
<sym>Dot</sym>
</trkpt>
<trkpt lat="48.890778" lon="20.065092">
<ele>1792.0</ele>
<desc>Speed 2.5 km/h Distance 5.76 km</desc>
<time>2013-07-23T14:35:58.83</time>
<name>2981</name>
<sym>Dot</sym>
</trkpt>
<trkpt lat="48.890783" lon="20.065095">
<ele>1792.0</ele>
<desc>Speed 2.4 km/h Distance 5.76 km</desc>
<time>2013-07-23T14:35:59.83</time>
<name>2982</name>
<sym>Dot</sym>
</trkpt>
<trkpt lat="48.890792" lon="20.065108">
<ele>1793.0</ele>
<desc>Speed 4.0 km/h Distance 5.76 km</desc>
<time>2013-07-23T14:36:00.83</time>
<name>2983</name>
<sym>Dot</sym>
</trkpt>
<trkpt lat="48.890805" lon="20.065090">
<ele>1794.0</ele>
<desc>Speed 3.9 km/h Distance 5.77 km</desc>
<time>2013-07-23T14:36:08.83</time>
<name>2984</name>
<sym>Dot</sym>
</trkpt>
<trkpt lat="48.890805" lon="20.065093">
<ele>1793.5</ele>
<desc>Speed 4.0 km/h Distance 5.77 km</desc>
<time>2013-07-23T14:36:42.83</time>
<name>2985</name>
<sym>Dot</sym>
</trkpt>
<trkpt lat="48.890803" lon="20.065090">
<ele>1794.0</ele>
<desc>Speed 2.4 km/h Distance 5.77 km</desc>
<time>2013-07-23T14:36:43.82</time>
<name>2986</name>
<sym>Dot</sym>
</trkpt>
<trkpt lat="48.890802" lon="20.065072">
<ele>1794.5</ele>
<desc>Speed 2.2 km/h Distance 5.77 km</desc>
<time>2013-07-23T14:36:46.81</time>
<name>2987</name>
<sym>Dot</sym>
</trkpt>
<trkpt lat="48.890803" lon="20.065063">
<ele>1794.5</ele>
<desc>Speed 2.2 km/h Distance 5.77 km</desc>
<time>2013-07-23T14:36:47.81</time>
<name>2988</name>
<sym>Dot</sym>
</trkpt>
<trkpt lat="48.890805" lon="20.065057">
<ele>1795.0</ele>
<desc>Speed 2.3 km/h Distance 5.77 km</desc>
<time>2013-07-23T14:36:48.81</time>
<name>2989</name>
<sym>Dot</sym>
</trkpt>
<trkpt lat="48.890803" lon="20.065045">
<ele>1795.0</ele>
<desc>Speed 3.2 km/h Distance 5.77 km</desc>
<time>2013-07-23T14:36:49.81</time>
<name>2990</name>
<sym>Dot</sym>
</trkpt>
<trkpt lat="48.890802" lon="20.065035">
<ele>1794.5</ele>
<desc>Speed 2.4 km/h Distance 5.77 km</desc>
<time>2013-07-23T14:36:50.81</time>
<name>2991</name>
<sym>Dot</sym>
</trkpt>
<trkpt lat="48.890797" lon="20.065017">
<ele>1795.0</ele>
<desc>Speed 2.8 km/h Distance 5.77 km</desc>
<time>2013-07-23T14:36:54.81</time>
<name>2992</name>
<sym>Dot</sym>
</trkpt>
<trkpt lat="48.890795" lon="20.065007">
<ele>1795.0</ele>
<desc>Speed 3.1 km/h Distance 5.77 km</desc>
<time>2013-07-23T14:36:56.80</time>
<name>2993</name>
<sym>Dot</sym>
</trkpt>
<trkpt lat="48.890790" lon="20.064997">
<ele>1795.0</ele>
<desc>Speed 2.4 km/h Distance 5.77 km</desc>
<time>2013-07-23T14:36:58.80</time>
<name>2994</name>
<sym>Dot</sym>
</trkpt>
<trkpt lat="48.890787" lon="20.064987">
<ele>1794.5</ele>
<desc>Speed 3.6 km/h Distance 5.77 km</desc>
<time>2013-07-23T14:36:59.80</time>
<name>2995</name>
<sym>Dot</sym>
</trkpt>
<trkpt lat="48.890788" lon="20.064963">
<ele>1795.0</ele>
<desc>Speed 3.0 km/h Distance 5.78 km</desc>
<time>2013-07-23T14:37:03.79</time>
<name>2996</name>
<sym>Dot</sym>
</trkpt>
<trkpt lat="48.890780" lon="20.064958">
<ele>1794.5</ele>
<desc>Speed 3.6 km/h Distance 5.78 km</desc>
<time>2013-07-23T14:37:04.79</time>
<name>2997</name>
<sym>Dot</sym>
</trkpt>
<trkpt lat="48.890777" lon="20.064932">
<ele>1794.0</ele>
<desc>Speed 2.2 km/h Distance 5.78 km</desc>
<time>2013-07-23T14:37:11.78</time>
<name>2998</name>
<sym>Dot</sym>
</trkpt>
<trkpt lat="48.890820" lon="20.064828">
<ele>1797.0</ele>
<desc>Speed 4.6 km/h Distance 5.79 km</desc>
<time>2013-07-23T14:37:35.78</time>
<name>2999</name>
<sym>Dot</sym>
</trkpt>
<trkpt lat="48.890822" lon="20.064820">
<ele>1797.5</ele>
<desc>Speed 2.7 km/h Distance 5.79 km</desc>
<time>2013-07-23T14:37:36.78</time>
<name>3000</name>
<sym>Dot</sym>
</trkpt>
<trkpt lat="48.890807" lon="20.064745">
<ele>1795.0</ele>
<desc>Speed 5.3 km/h Distance 5.79 km</desc>
<time>2013-07-23T14:38:04.77</time>
<name>3001</name>
<sym>Dot</sym>
</trkpt>
<trkpt lat="48.890800" lon="20.064750">
<ele>1795.0</ele>
<desc>Speed 2.7 km/h Distance 5.80 km</desc>
<time>2013-07-23T14:38:05.76</time>
<name>3002</name>
<sym>Dot</sym>
</trkpt>
<trkpt lat="48.890815" lon="20.064728">
<ele>1795.5</ele>
<desc>Speed 4.4 km/h Distance 5.80 km</desc>
<time>2013-07-23T14:38:22.76</time>
<name>3003</name>
<sym>Dot</sym>
</trkpt>
<trkpt lat="48.890803" lon="20.064723">
<ele>1795.5</ele>
<desc>Speed 5.4 km/h Distance 5.80 km</desc>
<time>2013-07-23T14:38:24.76</time>
<name>3004</name>
<sym>Dot</sym>
</trkpt>
<trkpt lat="48.890810" lon="20.064713">
<ele>1795.5</ele>
<desc>Speed 2.8 km/h Distance 5.80 km</desc>
<time>2013-07-23T14:38:34.75</time>
<name>3005</name>
<sym>Dot</sym>
</trkpt>
<trkpt lat="48.890815" lon="20.064715">
<ele>1795.5</ele>
<desc>Speed 2.8 km/h Distance 5.80 km</desc>
<time>2013-07-23T14:38:35.75</time>
<name>3006</name>
<sym>Dot</sym>
</trkpt>
<trkpt lat="48.890802" lon="20.064708">
<ele>1795.5</ele>
<desc>Speed 5.8 km/h Distance 5.80 km</desc>
<time>2013-07-23T14:38:36.82</time>
<name>3007</name>
<sym>Dot</sym>
</trkpt>
<trkpt lat="48.890805" lon="20.064718">
<ele>1795.0</ele>
<desc>Speed 2.2 km/h Distance 5.80 km</desc>
<time>2013-07-23T14:38:41.74</time>
<name>3008</name>
<sym>Dot</sym>
</trkpt>
<trkpt lat="48.890833" lon="20.064713">
<ele>1796.0</ele>
<desc>Speed 5.2 km/h Distance 5.81 km</desc>
<time>2013-07-23T14:38:47.73</time>
<name>3009</name>
<sym>Dot</sym>
</trkpt>
<trkpt lat="48.890850" lon="20.064668">
<ele>1794.5</ele>
<desc>Speed 2.2 km/h Distance 5.81 km</desc>
<time>2013-07-23T14:38:56.74</time>
<name>3010</name>
<sym>Dot</sym>
</trkpt>
<trkpt lat="48.890858" lon="20.064660">
<ele>1794.0</ele>
<desc>Speed 2.2 km/h Distance 5.81 km</desc>
<time>2013-07-23T14:38:58.73</time>
<name>3011</name>
<sym>Dot</sym>
</trkpt>
<trkpt lat="48.890863" lon="20.064648">
<ele>1794.0</ele>
<desc>Speed 3.4 km/h Distance 5.81 km</desc>
<time>2013-07-23T14:38:59.72</time>
<name>3012</name>
<sym>Dot</sym>
</trkpt>
<trkpt lat="48.890867" lon="20.064640">
<ele>1794.0</ele>
<desc>Speed 2.6 km/h Distance 5.81 km</desc>
<time>2013-07-23T14:39:00.72</time>
<name>3013</name>
<sym>Dot</sym>
</trkpt>
<trkpt lat="48.890870" lon="20.064628">
<ele>1794.0</ele>
<desc>Speed 2.8 km/h Distance 5.81 km</desc>
<time>2013-07-23T14:39:01.72</time>
<name>3014</name>
<sym>Dot</sym>
</trkpt>
<trkpt lat="48.890873" lon="20.064615">
<ele>1793.5</ele>
<desc>Speed 3.1 km/h Distance 5.81 km</desc>
<time>2013-07-23T14:39:02.82</time>
<name>3015</name>
<sym>Dot</sym>
</trkpt>
<trkpt lat="48.890875" lon="20.064590">
<ele>1796.0</ele>
<desc>Speed 2.2 km/h Distance 5.82 km</desc>
<time>2013-07-23T14:39:06.71</time>
<name>3016</name>
<sym>Dot</sym>
</trkpt>
<trkpt lat="48.890873" lon="20.064578">
<ele>1796.0</ele>
<desc>Speed 2.6 km/h Distance 5.82 km</desc>
<time>2013-07-23T14:39:07.70</time>
<name>3017</name>
<sym>Dot</sym>
</trkpt>
<trkpt lat="48.890875" lon="20.064567">
<ele>1795.5</ele>
<desc>Speed 2.4 km/h Distance 5.82 km</desc>
<time>2013-07-23T14:39:08.70</time>
<name>3018</name>
<sym>Dot</sym>
</trkpt>
<trkpt lat="48.890882" lon="20.064555">
<ele>1796.0</ele>
<desc>Speed 3.4 km/h Distance 5.82 km</desc>
<time>2013-07-23T14:39:09.69</time>
<name>3019</name>
<sym>Dot</sym>
</trkpt>
<trkpt lat="48.890885" lon="20.064538">
<ele>1796.5</ele>
<desc>Speed 2.9 km/h Distance 5.82 km</desc>
<time>2013-07-23T14:39:10.69</time>
<name>3020</name>
<sym>Dot</sym>
</trkpt>
<trkpt lat="48.890898" lon="20.064472">
<ele>1794.0</ele>
<desc>Speed 3.6 km/h Distance 5.83 km</desc>
<time>2013-07-23T14:39:34.68</time>
<name>3021</name>
<sym>Dot</sym>
</trkpt>
<trkpt lat="48.890887" lon="20.064442">
<ele>1792.5</ele>
<desc>Speed 2.5 km/h Distance 5.83 km</desc>
<time>2013-07-23T14:39:41.67</time>
<name>3022</name>
<sym>Dot</sym>
</trkpt>
<trkpt lat="48.890893" lon="20.064417">
<ele>1791.5</ele>
<desc>Speed 2.7 km/h Distance 5.83 km</desc>
<time>2013-07-23T14:39:45.67</time>
<name>3023</name>
<sym>Dot</sym>
</trkpt>
<trkpt lat="48.890900" lon="20.064387">
<ele>1789.5</ele>
<desc>Speed 2.2 km/h Distance 5.83 km</desc>
<time>2013-07-23T14:39:49.70</time>
<name>3024</name>
<sym>Dot</sym>
</trkpt>
<trkpt lat="48.890905" lon="20.064378">
<ele>1789.5</ele>
<desc>Speed 2.6 km/h Distance 5.83 km</desc>
<time>2013-07-23T14:39:50.65</time>
<name>3025</name>
<sym>Dot</sym>
</trkpt>
<trkpt lat="48.890912" lon="20.064368">
<ele>1789.5</ele>
<desc>Speed 2.7 km/h Distance 5.83 km</desc>
<time>2013-07-23T14:39:51.64</time>
<name>3026</name>
<sym>Dot</sym>
</trkpt>
<trkpt lat="48.890918" lon="20.064362">
<ele>1789.5</ele>
<desc>Speed 2.9 km/h Distance 5.84 km</desc>
<time>2013-07-23T14:39:52.64</time>
<name>3027</name>
<sym>Dot</sym>
</trkpt>
<trkpt lat="48.890923" lon="20.064353">
<ele>1789.5</ele>
<desc>Speed 2.7 km/h Distance 5.84 km</desc>
<time>2013-07-23T14:39:53.63</time>
<name>3028</name>
<sym>Dot</sym>
</trkpt>
<trkpt lat="48.890928" lon="20.064347">
<ele>1790.0</ele>
<desc>Speed 2.4 km/h Distance 5.84 km</desc>
<time>2013-07-23T14:39:54.63</time>
<name>3029</name>
<sym>Dot</sym>
</trkpt>
<trkpt lat="48.890935" lon="20.064340">
<ele>1789.5</ele>
<desc>Speed 2.9 km/h Distance 5.84 km</desc>
<time>2013-07-23T14:39:55.62</time>
<name>3030</name>
<sym>Dot</sym>
</trkpt>
<trkpt lat="48.890942" lon="20.064333">
<ele>1791.0</ele>
<desc>Speed 3.0 km/h Distance 5.84 km</desc>
<time>2013-07-23T14:39:56.61</time>
<name>3031</name>
<sym>Dot</sym>
</trkpt>
<trkpt lat="48.890943" lon="20.064325">
<ele>1791.0</ele>
<desc>Speed 2.3 km/h Distance 5.84 km</desc>
<time>2013-07-23T14:39:57.61</time>
<name>3032</name>
<sym>Dot</sym>
</trkpt>
<trkpt lat="48.890950" lon="20.064298">
<ele>1790.0</ele>
<desc>Speed 2.4 km/h Distance 5.84 km</desc>
<time>2013-07-23T14:40:00.61</time>
<name>3033</name>
<sym>Dot</sym>
</trkpt>
<trkpt lat="48.890955" lon="20.064285">
<ele>1789.5</ele>
<desc>Speed 3.6 km/h Distance 5.84 km</desc>
<time>2013-07-23T14:40:01.60</time>
<name>3034</name>
<sym>Dot</sym>
</trkpt>
<trkpt lat="48.890955" lon="20.064272">
<ele>1788.5</ele>
<desc>Speed 3.2 km/h Distance 5.84 km</desc>
<time>2013-07-23T14:40:02.59</time>
<name>3035</name>
<sym>Dot</sym>
</trkpt>
<trkpt lat="48.890960" lon="20.064262">
<ele>1789.0</ele>
<desc>Speed 2.4 km/h Distance 5.84 km</desc>
<time>2013-07-23T14:40:03.59</time>
<name>3036</name>
<sym>Dot</sym>
</trkpt>
<trkpt lat="48.890972" lon="20.064248">
<ele>1789.0</ele>
<desc>Speed 2.2 km/h Distance 5.85 km</desc>
<time>2013-07-23T14:40:05.59</time>
<name>3037</name>
<sym>Dot</sym>
</trkpt>
<trkpt lat="48.890980" lon="20.064245">
<ele>1789.0</ele>
<desc>Speed 2.7 km/h Distance 5.85 km</desc>
<time>2013-07-23T14:40:06.58</time>
<name>3038</name>
<sym>Dot</sym>
</trkpt>
<trkpt lat="48.890990" lon="20.064228">
<ele>1788.0</ele>
<desc>Speed 2.9 km/h Distance 5.85 km</desc>
<time>2013-07-23T14:40:08.58</time>
<name>3039</name>
<sym>Dot</sym>
</trkpt>
<trkpt lat="48.890998" lon="20.064220">
<ele>1787.5</ele>
<desc>Speed 3.2 km/h Distance 5.85 km</desc>
<time>2013-07-23T14:40:09.58</time>
<name>3040</name>
<sym>Dot</sym>
</trkpt>
<trkpt lat="48.891003" lon="20.064208">
<ele>1786.5</ele>
<desc>Speed 3.1 km/h Distance 5.85 km</desc>
<time>2013-07-23T14:40:10.58</time>
<name>3041</name>
<sym>Dot</sym>
</trkpt>
<trkpt lat="48.891007" lon="20.064192">
<ele>1786.0</ele>
<desc>Speed 4.0 km/h Distance 5.85 km</desc>
<time>2013-07-23T14:40:11.57</time>
<name>3042</name>
<sym>Dot</sym>
</trkpt>
<trkpt lat="48.891005" lon="20.064180">
<ele>1785.0</ele>
<desc>Speed 3.3 km/h Distance 5.85 km</desc>
<time>2013-07-23T14:40:12.57</time>
<name>3043</name>
<sym>Dot</sym>
</trkpt>
<trkpt lat="48.891008" lon="20.064170">
<ele>1784.5</ele>
<desc>Speed 2.7 km/h Distance 5.85 km</desc>
<time>2013-07-23T14:40:13.56</time>
<name>3044</name>
<sym>Dot</sym>
</trkpt>
<trkpt lat="48.891035" lon="20.064133">
<ele>1786.5</ele>
<desc>Speed 2.2 km/h Distance 5.86 km</desc>
<time>2013-07-23T14:40:31.55</time>
<name>3045</name>
<sym>Dot</sym>
</trkpt>
<trkpt lat="48.891030" lon="20.064127">
<ele>1785.5</ele>
<desc>Speed 2.7 km/h Distance 5.86 km</desc>
<time>2013-07-23T14:40:32.55</time>
<name>3046</name>
<sym>Dot</sym>
</trkpt>
<trkpt lat="48.891053" lon="20.064082">
<ele>1783.0</ele>
<desc>Speed 2.6 km/h Distance 5.86 km</desc>
<time>2013-07-23T14:40:42.54</time>
<name>3047</name>
<sym>Dot</sym>
</trkpt>
<trkpt lat="48.891068" lon="20.064048">
<ele>1782.0</ele>
<desc>Speed 4.0 km/h Distance 5.87 km</desc>
<time>2013-07-23T14:40:47.53</time>
<name>3048</name>
<sym>Dot</sym>
</trkpt>
<trkpt lat="48.891072" lon="20.064042">
<ele>1781.5</ele>
<desc>Speed 2.2 km/h Distance 5.87 km</desc>
<time>2013-07-23T14:40:48.53</time>
<name>3049</name>
<sym>Dot</sym>
</trkpt>
<trkpt lat="48.891072" lon="20.064030">
<ele>1781.0</ele>
<desc>Speed 2.9 km/h Distance 5.87 km</desc>
<time>2013-07-23T14:40:49.53</time>
<name>3050</name>
<sym>Dot</sym>
</trkpt>
<trkpt lat="48.891073" lon="20.064022">
<ele>1780.5</ele>
<desc>Speed 2.3 km/h Distance 5.87 km</desc>
<time>2013-07-23T14:40:50.53</time>
<name>3051</name>
<sym>Dot</sym>
</trkpt>
<trkpt lat="48.891068" lon="20.064023">
<ele>1780.0</ele>
<desc>Speed 3.7 km/h Distance 5.87 km</desc>
<time>2013-07-23T14:40:53.52</time>
<name>3052</name>
<sym>Dot</sym>
</trkpt>
<trkpt lat="48.891073" lon="20.064007">
<ele>1779.0</ele>
<desc>Speed 4.6 km/h Distance 5.87 km</desc>
<time>2013-07-23T14:40:54.51</time>
<name>3053</name>
<sym>Dot</sym>
</trkpt>
<trkpt lat="48.891088" lon="20.063992">
<ele>1777.5</ele>
<desc>Speed 3.3 km/h Distance 5.87 km</desc>
<time>2013-07-23T14:40:58.51</time>
<name>3054</name>
<sym>Dot</sym>
</trkpt>
<trkpt lat="48.891098" lon="20.063992">
<ele>1777.0</ele>
<desc>Speed 3.4 km/h Distance 5.87 km</desc>
<time>2013-07-23T14:40:59.50</time>
<name>3055</name>
<sym>Dot</sym>
</trkpt>
<trkpt lat="48.891103" lon="20.063987">
<ele>1777.0</ele>
<desc>Speed 2.5 km/h Distance 5.87 km</desc>
<time>2013-07-23T14:41:00.49</time>
<name>3056</name>
<sym>Dot</sym>
</trkpt>
<trkpt lat="48.891105" lon="20.063948">
<ele>1777.5</ele>
<desc>Speed 4.0 km/h Distance 5.88 km</desc>
<time>2013-07-23T14:41:12.48</time>
<name>3057</name>
<sym>Dot</sym>
</trkpt>
<trkpt lat="48.891103" lon="20.063940">
<ele>1777.5</ele>
<desc>Speed 2.3 km/h Distance 5.88 km</desc>
<time>2013-07-23T14:41:13.47</time>
<name>3058</name>
<sym>Dot</sym>
</trkpt>
<trkpt lat="48.891088" lon="20.063952">
<ele>1777.0</ele>
<desc>Speed 3.3 km/h Distance 5.88 km</desc>
<time>2013-07-23T14:41:21.46</time>
<name>3059</name>
<sym>Dot</sym>
</trkpt>
<trkpt lat="48.891107" lon="20.063893">
<ele>1778.0</ele>
<desc>Speed 3.7 km/h Distance 5.88 km</desc>
<time>2013-07-23T14:41:38.47</time>
<name>3060</name>
<sym>Dot</sym>
</trkpt>
<trkpt lat="48.891102" lon="20.063867">
<ele>1777.5</ele>
<desc>Speed 6.2 km/h Distance 5.89 km</desc>
<time>2013-07-23T14:41:39.46</time>
<name>3061</name>
<sym>Dot</sym>
</trkpt>
<trkpt lat="48.891093" lon="20.063837">
<ele>1777.0</ele>
<desc>Speed 8.1 km/h Distance 5.89 km</desc>
<time>2013-07-23T14:41:40.46</time>
<name>3062</name>
<sym>Dot</sym>
</trkpt>
<trkpt lat="48.891087" lon="20.063815">
<ele>1777.0</ele>
<desc>Speed 6.7 km/h Distance 5.89 km</desc>
<time>2013-07-23T14:41:41.45</time>
<name>3063</name>
<sym>Dot</sym>
</trkpt>
<trkpt lat="48.891080" lon="20.063792">
<ele>1777.0</ele>
<desc>Speed 6.9 km/h Distance 5.89 km</desc>
<time>2013-07-23T14:41:42.45</time>
<name>3064</name>
<sym>Dot</sym>
</trkpt>
<trkpt lat="48.891077" lon="20.063768">
<ele>1776.5</ele>
<desc>Speed 6.3 km/h Distance 5.89 km</desc>
<time>2013-07-23T14:41:43.44</time>
<name>3065</name>
<sym>Dot</sym>
</trkpt>
<trkpt lat="48.891075" lon="20.063737">
<ele>1776.0</ele>
<desc>Speed 8.2 km/h Distance 5.90 km</desc>
<time>2013-07-23T14:41:44.44</time>
<name>3066</name>
<sym>Dot</sym>
</trkpt>
<trkpt lat="48.891075" lon="20.063705">
<ele>1776.0</ele>
<desc>Speed 8.2 km/h Distance 5.90 km</desc>
<time>2013-07-23T14:41:45.43</time>
<name>3067</name>
<sym>Dot</sym>
</trkpt>
<trkpt lat="48.891080" lon="20.063675">
<ele>1776.0</ele>
<desc>Speed 8.4 km/h Distance 5.90 km</desc>
<time>2013-07-23T14:41:46.43</time>
<name>3068</name>
<sym>Dot</sym>
</trkpt>
<trkpt lat="48.891087" lon="20.063648">
<ele>1776.0</ele>
<desc>Speed 7.6 km/h Distance 5.90 km</desc>
<time>2013-07-23T14:41:47.42</time>
<name>3069</name>
<sym>Dot</sym>
</trkpt>
<trkpt lat="48.891093" lon="20.063623">
<ele>1776.5</ele>
<desc>Speed 7.2 km/h Distance 5.90 km</desc>
<time>2013-07-23T14:41:48.42</time>
<name>3070</name>
<sym>Dot</sym>
</trkpt>
<trkpt lat="48.891095" lon="20.063602">
<ele>1776.0</ele>
<desc>Speed 5.9 km/h Distance 5.91 km</desc>
<time>2013-07-23T14:41:49.42</time>
<name>3071</name>
<sym>Dot</sym>
</trkpt>
<trkpt lat="48.891100" lon="20.063587">
<ele>1776.0</ele>
<desc>Speed 4.8 km/h Distance 5.91 km</desc>
<time>2013-07-23T14:41:50.41</time>
<name>3072</name>
<sym>Dot</sym>
</trkpt>
<trkpt lat="48.891107" lon="20.063577">
<ele>1776.0</ele>
<desc>Speed 3.7 km/h Distance 5.91 km</desc>
<time>2013-07-23T14:41:51.48</time>
<name>3073</name>
<sym>Dot</sym>
</trkpt>
<trkpt lat="48.891115" lon="20.063573">
<ele>1776.0</ele>
<desc>Speed 2.7 km/h Distance 5.91 km</desc>
<time>2013-07-23T14:41:52.39</time>
<name>3074</name>
<sym>Dot</sym>
</trkpt>
<trkpt lat="48.891127" lon="20.063568">
<ele>1776.5</ele>
<desc>Speed 3.7 km/h Distance 5.91 km</desc>
<time>2013-07-23T14:41:54.39</time>
<name>3075</name>
<sym>Dot</sym>
</trkpt>
<trkpt lat="48.891133" lon="20.063555">
<ele>1776.0</ele>
<desc>Speed 3.7 km/h Distance 5.91 km</desc>
<time>2013-07-23T14:41:55.38</time>
<name>3076</name>
<sym>Dot</sym>
</trkpt>
<trkpt lat="48.891150" lon="20.063538">
<ele>1774.5</ele>
<desc>Speed 3.4 km/h Distance 5.91 km</desc>
<time>2013-07-23T14:42:08.37</time>
<name>3077</name>
<sym>Dot</sym>
</trkpt>
<trkpt lat="48.891150" lon="20.063525">
<ele>1774.0</ele>
<desc>Speed 3.6 km/h Distance 5.91 km</desc>
<time>2013-07-23T14:42:09.36</time>
<name>3078</name>
<sym>Dot</sym>
</trkpt>
<trkpt lat="48.891147" lon="20.063512">
<ele>1773.5</ele>
<desc>Speed 2.2 km/h Distance 5.92 km</desc>
<time>2013-07-23T14:42:11.36</time>
<name>3079</name>
<sym>Dot</sym>
</trkpt>
<trkpt lat="48.891143" lon="20.063493">
<ele>1773.0</ele>
<desc>Speed 4.9 km/h Distance 5.92 km</desc>
<time>2013-07-23T14:42:12.36</time>
<name>3080</name>
<sym>Dot</sym>
</trkpt>
<trkpt lat="48.891143" lon="20.063483">
<ele>1772.5</ele>
<desc>Speed 3.2 km/h Distance 5.92 km</desc>
<time>2013-07-23T14:42:13.35</time>
<name>3081</name>
<sym>Dot</sym>
</trkpt>
<trkpt lat="48.891150" lon="20.063470">
<ele>1772.5</ele>
<desc>Speed 3.5 km/h Distance 5.92 km</desc>
<time>2013-07-23T14:42:17.35</time>
<name>3082</name>
<sym>Dot</sym>
</trkpt>
<trkpt lat="48.891157" lon="20.063455">
<ele>1772.5</ele>
<desc>Speed 4.3 km/h Distance 5.92 km</desc>
<time>2013-07-23T14:42:18.34</time>
<name>3083</name>
<sym>Dot</sym>
</trkpt>
<trkpt lat="48.891162" lon="20.063465">
<ele>1773.5</ele>
<desc>Speed 3.2 km/h Distance 5.92 km</desc>
<time>2013-07-23T14:42:19.35</time>
<name>3084</name>
<sym>Dot</sym>
</trkpt>
<trkpt lat="48.891162" lon="20.063440">
<ele>1772.5</ele>
<desc>Speed 7.2 km/h Distance 5.92 km</desc>
<time>2013-07-23T14:42:20.34</time>
<name>3085</name>
<sym>Dot</sym>
</trkpt>
<trkpt lat="48.891163" lon="20.063422">
<ele>1772.5</ele>
<desc>Speed 4.4 km/h Distance 5.92 km</desc>
<time>2013-07-23T14:42:21.33</time>
<name>3086</name>
<sym>Dot</sym>
</trkpt>
<trkpt lat="48.891163" lon="20.063407">
<ele>1772.0</ele>
<desc>Speed 4.1 km/h Distance 5.93 km</desc>
<time>2013-07-23T14:42:22.33</time>
<name>3087</name>
<sym>Dot</sym>
</trkpt>
<trkpt lat="48.891167" lon="20.063395">
<ele>1772.0</ele>
<desc>Speed 3.1 km/h Distance 5.93 km</desc>
<time>2013-07-23T14:42:23.33</time>
<name>3088</name>
<sym>Dot</sym>
</trkpt>
<trkpt lat="48.891167" lon="20.063380">
<ele>1771.5</ele>
<desc>Speed 3.7 km/h Distance 5.93 km</desc>
<time>2013-07-23T14:42:24.33</time>
<name>3089</name>
<sym>Dot</sym>
</trkpt>
<trkpt lat="48.891168" lon="20.063355">
<ele>1771.5</ele>
<desc>Speed 6.8 km/h Distance 5.93 km</desc>
<time>2013-07-23T14:42:25.32</time>
<name>3090</name>
<sym>Dot</sym>
</trkpt>
<trkpt lat="48.891172" lon="20.063325">
<ele>1771.0</ele>
<desc>Speed 8.0 km/h Distance 5.93 km</desc>
<time>2013-07-23T14:42:26.32</time>
<name>3091</name>
<sym>Dot</sym>
</trkpt>
<trkpt lat="48.891173" lon="20.063295">
<ele>1770.5</ele>
<desc>Speed 8.0 km/h Distance 5.93 km</desc>
<time>2013-07-23T14:42:27.32</time>
<name>3092</name>
<sym>Dot</sym>
</trkpt>
<trkpt lat="48.891180" lon="20.063265">
<ele>1769.5</ele>
<desc>Speed 8.0 km/h Distance 5.94 km</desc>
<time>2013-07-23T14:42:28.32</time>
<name>3093</name>
<sym>Dot</sym>
</trkpt>
<trkpt lat="48.891193" lon="20.063233">
<ele>1769.5</ele>
<desc>Speed 10.0 km/h Distance 5.94 km</desc>
<time>2013-07-23T14:42:29.30</time>
<name>3094</name>
<sym>Dot</sym>
</trkpt>
<trkpt lat="48.891203" lon="20.063205">
<ele>1769.0</ele>
<desc>Speed 8.1 km/h Distance 5.94 km</desc>
<time>2013-07-23T14:42:30.29</time>
<name>3095</name>
<sym>Dot</sym>
</trkpt>
<trkpt lat="48.891202" lon="20.063190">
<ele>1768.5</ele>
<desc>Speed 4.5 km/h Distance 5.94 km</desc>
<time>2013-07-23T14:42:31.29</time>
<name>3096</name>
<sym>Dot</sym>
</trkpt>
<trkpt lat="48.891208" lon="20.063210">
<ele>1769.5</ele>
<desc>Speed 5.6 km/h Distance 5.94 km</desc>
<time>2013-07-23T14:42:32.28</time>
<name>3097</name>
<sym>Dot</sym>
</trkpt>
<trkpt lat="48.891232" lon="20.063210">
<ele>1770.0</ele>
<desc>Speed 3.9 km/h Distance 5.95 km</desc>
<time>2013-07-23T14:42:38.28</time>
<name>3098</name>
<sym>Dot</sym>
</trkpt>
<trkpt lat="48.891252" lon="20.063208">
<ele>1770.0</ele>
<desc>Speed 6.4 km/h Distance 5.95 km</desc>
<time>2013-07-23T14:42:39.27</time>
<name>3099</name>
<sym>Dot</sym>
</trkpt>
<trkpt lat="48.891267" lon="20.063208">
<ele>1771.0</ele>
<desc>Speed 4.5 km/h Distance 5.95 km</desc>
<time>2013-07-23T14:42:40.27</time>
<name>3100</name>
<sym>Dot</sym>
</trkpt>
<trkpt lat="48.891270" lon="20.063198">
<ele>1770.5</ele>
<desc>Speed 2.7 km/h Distance 5.95 km</desc>
<time>2013-07-23T14:42:41.27</time>
<name>3101</name>
<sym>Dot</sym>
</trkpt>
<trkpt lat="48.891283" lon="20.063172">
<ele>1770.0</ele>
<desc>Speed 3.3 km/h Distance 5.95 km</desc>
<time>2013-07-23T14:43:10.27</time>
<name>3102</name>
<sym>Dot</sym>
</trkpt>
<trkpt lat="48.891287" lon="20.063148">
<ele>1769.5</ele>
<desc>Speed 6.1 km/h Distance 5.96 km</desc>
<time>2013-07-23T14:43:11.26</time>
<name>3103</name>
<sym>Dot</sym>
</trkpt>
<trkpt lat="48.891288" lon="20.063127">
<ele>1769.0</ele>
<desc>Speed 5.6 km/h Distance 5.96 km</desc>
<time>2013-07-23T14:43:12.25</time>
<name>3104</name>
<sym>Dot</sym>
</trkpt>
<trkpt lat="48.891288" lon="20.063098">
<ele>1768.5</ele>
<desc>Speed 7.2 km/h Distance 5.96 km</desc>
<time>2013-07-23T14:43:13.25</time>
<name>3105</name>
<sym>Dot</sym>
</trkpt>
<trkpt lat="48.891285" lon="20.063067">
<ele>1767.5</ele>
<desc>Speed 8.1 km/h Distance 5.96 km</desc>
<time>2013-07-23T14:43:14.25</time>
<name>3106</name>
<sym>Dot</sym>
</trkpt>
<trkpt lat="48.891280" lon="20.063035">
<ele>1767.0</ele>
<desc>Speed 8.6 km/h Distance 5.96 km</desc>
<time>2013-07-23T14:43:15.24</time>
<name>3107</name>
<sym>Dot</sym>
</trkpt>
<trkpt lat="48.891282" lon="20.063002">
<ele>1766.5</ele>
<desc>Speed 9.0 km/h Distance 5.97 km</desc>
<time>2013-07-23T14:43:16.24</time>
<name>3108</name>
<sym>Dot</sym>
</trkpt>
<trkpt lat="48.891290" lon="20.062963">
<ele>1766.5</ele>
<desc>Speed 10.3 km/h Distance 5.97 km</desc>
<time>2013-07-23T14:43:17.23</time>
<name>3109</name>
<sym>Dot</sym>
</trkpt>
<trkpt lat="48.891302" lon="20.062935">
<ele>1766.0</ele>
<desc>Speed 8.6 km/h Distance 5.97 km</desc>
<time>2013-07-23T14:43:18.23</time>
<name>3110</name>
<sym>Dot</sym>
</trkpt>
<trkpt lat="48.891318" lon="20.062913">
<ele>1765.5</ele>
<desc>Speed 7.9 km/h Distance 5.97 km</desc>
<time>2013-07-23T14:43:19.23</time>
<name>3111</name>
<sym>Dot</sym>
</trkpt>
<trkpt lat="48.891335" lon="20.062903">
<ele>1765.5</ele>
<desc>Speed 6.9 km/h Distance 5.98 km</desc>
<time>2013-07-23T14:43:20.22</time>
<name>3112</name>
<sym>Dot</sym>
</trkpt>
<trkpt lat="48.891347" lon="20.062887">
<ele>1765.0</ele>
<desc>Speed 6.3 km/h Distance 5.98 km</desc>
<time>2013-07-23T14:43:21.42</time>
<name>3113</name>
<sym>Dot</sym>
</trkpt>
<trkpt lat="48.891353" lon="20.062867">
<ele>1764.5</ele>
<desc>Speed 5.8 km/h Distance 5.98 km</desc>
<time>2013-07-23T14:43:22.22</time>
<name>3114</name>
<sym>Dot</sym>
</trkpt>
<trkpt lat="48.891358" lon="20.062848">
<ele>1764.5</ele>
<desc>Speed 5.2 km/h Distance 5.98 km</desc>
<time>2013-07-23T14:43:23.21</time>
<name>3115</name>
<sym>Dot</sym>
</trkpt>
<trkpt lat="48.891357" lon="20.062833">
<ele>1764.5</ele>
<desc>Speed 4.0 km/h Distance 5.98 km</desc>
<time>2013-07-23T14:43:24.21</time>
<name>3116</name>
<sym>Dot</sym>
</trkpt>
<trkpt lat="48.891355" lon="20.062815">
<ele>1764.0</ele>
<desc>Speed 5.0 km/h Distance 5.98 km</desc>
<time>2013-07-23T14:43:25.21</time>
<name>3117</name>
<sym>Dot</sym>
</trkpt>
<trkpt lat="48.891355" lon="20.062798">
<ele>1764.0</ele>
<desc>Speed 4.6 km/h Distance 5.99 km</desc>
<time>2013-07-23T14:43:26.20</time>
<name>3118</name>
<sym>Dot</sym>
</trkpt>
<trkpt lat="48.891352" lon="20.062783">
<ele>1763.5</ele>
<desc>Speed 4.0 km/h Distance 5.99 km</desc>
<time>2013-07-23T14:43:27.20</time>
<name>3119</name>
<sym>Dot</sym>
</trkpt>
<trkpt lat="48.891353" lon="20.062773">
<ele>1763.5</ele>
<desc>Speed 2.4 km/h Distance 5.99 km</desc>
<time>2013-07-23T14:43:28.20</time>
<name>3120</name>
<sym>Dot</sym>
</trkpt>
<trkpt lat="48.891362" lon="20.062772">
<ele>1763.5</ele>
<desc>Speed 3.2 km/h Distance 5.99 km</desc>
<time>2013-07-23T14:43:29.20</time>
<name>3121</name>
<sym>Dot</sym>
</trkpt>
<trkpt lat="48.891367" lon="20.062758">
<ele>1763.5</ele>
<desc>Speed 2.3 km/h Distance 5.99 km</desc>
<time>2013-07-23T14:43:31.19</time>
<name>3122</name>
<sym>Dot</sym>
</trkpt>
<trkpt lat="48.891370" lon="20.062748">
<ele>1763.5</ele>
<desc>Speed 3.1 km/h Distance 5.99 km</desc>
<time>2013-07-23T14:43:32.19</time>
<name>3123</name>
<sym>Dot</sym>
</trkpt>
<trkpt lat="48.891375" lon="20.062737">
<ele>1763.5</ele>
<desc>Speed 3.2 km/h Distance 5.99 km</desc>
<time>2013-07-23T14:43:33.19</time>
<name>3124</name>
<sym>Dot</sym>
</trkpt>
<trkpt lat="48.891380" lon="20.062730">
<ele>1763.5</ele>
<desc>Speed 2.9 km/h Distance 5.99 km</desc>
<time>2013-07-23T14:43:34.18</time>
<name>3125</name>
<sym>Dot</sym>
</trkpt>
<trkpt lat="48.891383" lon="20.062718">
<ele>1763.0</ele>
<desc>Speed 3.0 km/h Distance 5.99 km</desc>
<time>2013-07-23T14:43:35.17</time>
<name>3126</name>
<sym>Dot</sym>
</trkpt>
<trkpt lat="48.891393" lon="20.062690">
<ele>1763.5</ele>
<desc>Speed 8.2 km/h Distance 5.99 km</desc>
<time>2013-07-23T14:43:36.17</time>
<name>3127</name>
<sym>Dot</sym>
</trkpt>
<trkpt lat="48.891400" lon="20.062650">
<ele>1763.5</ele>
<desc>Speed 10.8 km/h Distance 6.00 km</desc>
<time>2013-07-23T14:43:37.17</time>
<name>3128</name>
<sym>Dot</sym>
</trkpt>
<trkpt lat="48.891405" lon="20.062610">
<ele>1763.5</ele>
<desc>Speed 11.0 km/h Distance 6.00 km</desc>
<time>2013-07-23T14:43:38.16</time>
<name>3129</name>
<sym>Dot</sym>
</trkpt>
<trkpt lat="48.891418" lon="20.062578">
<ele>1763.5</ele>
<desc>Speed 9.8 km/h Distance 6.00 km</desc>
<time>2013-07-23T14:43:39.19</time>
<name>3130</name>
<sym>Dot</sym>
</trkpt>
<trkpt lat="48.891428" lon="20.062543">
<ele>1763.0</ele>
<desc>Speed 10.0 km/h Distance 6.01 km</desc>
<time>2013-07-23T14:43:40.16</time>
<name>3131</name>
<sym>Dot</sym>
</trkpt>
<trkpt lat="48.891438" lon="20.062500">
<ele>1762.5</ele>
<desc>Speed 11.8 km/h Distance 6.01 km</desc>
<time>2013-07-23T14:43:41.15</time>
<name>3132</name>
<sym>Dot</sym>
</trkpt>
<trkpt lat="48.891448" lon="20.062455">
<ele>1762.0</ele>
<desc>Speed 12.6 km/h Distance 6.01 km</desc>
<time>2013-07-23T14:43:42.14</time>
<name>3133</name>
<sym>Dot</sym>
</trkpt>
<trkpt lat="48.891458" lon="20.062403">
<ele>1761.5</ele>
<desc>Speed 13.9 km/h Distance 6.02 km</desc>
<time>2013-07-23T14:43:43.15</time>
<name>3134</name>
<sym>Dot</sym>
</trkpt>
<trkpt lat="48.891472" lon="20.062355">
<ele>1761.0</ele>
<desc>Speed 13.8 km/h Distance 6.02 km</desc>
<time>2013-07-23T14:43:44.14</time>
<name>3135</name>
<sym>Dot</sym>
</trkpt>
<trkpt lat="48.891483" lon="20.062292">
<ele>1760.0</ele>
<desc>Speed 17.2 km/h Distance 6.03 km</desc>
<time>2013-07-23T14:43:45.33</time>
<name>3136</name>
<sym>Dot</sym>
</trkpt>
<trkpt lat="48.891490" lon="20.062247">
<ele>1759.5</ele>
<desc>Speed 12.1 km/h Distance 6.03 km</desc>
<time>2013-07-23T14:43:46.13</time>
<name>3137</name>
<sym>Dot</sym>
</trkpt>
<trkpt lat="48.891497" lon="20.062205">
<ele>1758.5</ele>
<desc>Speed 11.0 km/h Distance 6.03 km</desc>
<time>2013-07-23T14:43:47.12</time>
<name>3138</name>
<sym>Dot</sym>
</trkpt>
<trkpt lat="48.891510" lon="20.062173">
<ele>1759.5</ele>
<desc>Speed 9.8 km/h Distance 6.04 km</desc>
<time>2013-07-23T14:43:48.11</time>
<name>3139</name>
<sym>Dot</sym>
</trkpt>
<trkpt lat="48.891532" lon="20.062145">
<ele>1759.0</ele>
<desc>Speed 11.6 km/h Distance 6.04 km</desc>
<time>2013-07-23T14:43:49.11</time>
<name>3140</name>
<sym>Dot</sym>
</trkpt>
<trkpt lat="48.891553" lon="20.062102">
<ele>1759.0</ele>
<desc>Speed 14.0 km/h Distance 6.04 km</desc>
<time>2013-07-23T14:43:50.11</time>
<name>3141</name>
<sym>Dot</sym>
</trkpt>
<trkpt lat="48.891568" lon="20.062050">
<ele>1758.5</ele>
<desc>Speed 14.8 km/h Distance 6.05 km</desc>
<time>2013-07-23T14:43:51.11</time>
<name>3142</name>
<sym>Dot</sym>
</trkpt>
<trkpt lat="48.891575" lon="20.061997">
<ele>1757.5</ele>
<desc>Speed 14.4 km/h Distance 6.05 km</desc>
<time>2013-07-23T14:43:52.10</time>
<name>3143</name>
<sym>Dot</sym>
</trkpt>
<trkpt lat="48.891582" lon="20.061938">
<ele>1756.5</ele>
<desc>Speed 15.2 km/h Distance 6.05 km</desc>
<time>2013-07-23T14:43:53.11</time>
<name>3144</name>
<sym>Dot</sym>
</trkpt>
<trkpt lat="48.891585" lon="20.061878">
<ele>1755.5</ele>
<desc>Speed 16.0 km/h Distance 6.06 km</desc>
<time>2013-07-23T14:43:54.09</time>
<name>3145</name>
<sym>Dot</sym>
</trkpt>
<trkpt lat="48.891592" lon="20.061817">
<ele>1754.5</ele>
<desc>Speed 16.8 km/h Distance 6.06 km</desc>
<time>2013-07-23T14:43:55.10</time>
<name>3146</name>
<sym>Dot</sym>
</trkpt>
<trkpt lat="48.891612" lon="20.061660">
<ele>1752.0</ele>
<desc>Speed 18.3 km/h Distance 6.08 km</desc>
<time>2013-07-23T14:43:57.09</time>
<name>3147</name>
<sym>Dot</sym>
</trkpt>
<trkpt lat="48.891623" lon="20.061600">
<ele>1751.5</ele>
<desc>Speed 17.1 km/h Distance 6.08 km</desc>
<time>2013-07-23T14:43:58.09</time>
<name>3148</name>
<sym>Dot</sym>
</trkpt>
<trkpt lat="48.891632" lon="20.061533">
<ele>1750.5</ele>
<desc>Speed 18.2 km/h Distance 6.09 km</desc>
<time>2013-07-23T14:43:59.08</time>
<name>3149</name>
<sym>Dot</sym>
</trkpt>
<trkpt lat="48.891633" lon="20.061473">
<ele>1749.5</ele>
<desc>Speed 16.9 km/h Distance 6.09 km</desc>
<time>2013-07-23T14:44:00.08</time>
<name>3150</name>
<sym>Dot</sym>
</trkpt>
<trkpt lat="48.891637" lon="20.061413">
<ele>1748.5</ele>
<desc>Speed 16.6 km/h Distance 6.09 km</desc>
<time>2013-07-23T14:44:01.08</time>
<name>3151</name>
<sym>Dot</sym>
</trkpt>
<trkpt lat="48.891637" lon="20.061350">
<ele>1747.5</ele>
<desc>Speed 16.7 km/h Distance 6.10 km</desc>
<time>2013-07-23T14:44:02.07</time>
<name>3152</name>
<sym>Dot</sym>
</trkpt>
<trkpt lat="48.891640" lon="20.061298">
<ele>1747.0</ele>
<desc>Speed 14.0 km/h Distance 6.10 km</desc>
<time>2013-07-23T14:44:03.08</time>
<name>3153</name>
<sym>Dot</sym>
</trkpt>
<trkpt lat="48.891647" lon="20.061250">
<ele>1746.0</ele>
<desc>Speed 12.9 km/h Distance 6.11 km</desc>
<time>2013-07-23T14:44:04.06</time>
<name>3154</name>
<sym>Dot</sym>
</trkpt>
<trkpt lat="48.891652" lon="20.061197">
<ele>1745.0</ele>
<desc>Speed 14.4 km/h Distance 6.11 km</desc>
<time>2013-07-23T14:44:05.06</time>
<name>3155</name>
<sym>Dot</sym>
</trkpt>
<trkpt lat="48.891657" lon="20.061143">
<ele>1744.0</ele>
<desc>Speed 14.2 km/h Distance 6.11 km</desc>
<time>2013-07-23T14:44:06.06</time>
<name>3156</name>
<sym>Dot</sym>
</trkpt>
<trkpt lat="48.891663" lon="20.061093">
<ele>1743.0</ele>
<desc>Speed 13.8 km/h Distance 6.12 km</desc>
<time>2013-07-23T14:44:07.08</time>
<name>3157</name>
<sym>Dot</sym>
</trkpt>
<trkpt lat="48.891670" lon="20.061038">
<ele>1742.5</ele>
<desc>Speed 14.4 km/h Distance 6.12 km</desc>
<time>2013-07-23T14:44:08.05</time>
<name>3158</name>
<sym>Dot</sym>
</trkpt>
<trkpt lat="48.891677" lon="20.060988">
<ele>1742.5</ele>
<desc>Speed 13.6 km/h Distance 6.13 km</desc>
<time>2013-07-23T14:44:09.05</time>
<name>3159</name>
<sym>Dot</sym>
</trkpt>
<trkpt lat="48.891687" lon="20.060938">
<ele>1742.5</ele>
<desc>Speed 14.1 km/h Distance 6.13 km</desc>
<time>2013-07-23T14:44:10.04</time>
<name>3160</name>
<sym>Dot</sym>
</trkpt>
<trkpt lat="48.891702" lon="20.060893">
<ele>1743.0</ele>
<desc>Speed 13.2 km/h Distance 6.13 km</desc>
<time>2013-07-23T14:44:11.04</time>
<name>3161</name>
<sym>Dot</sym>
</trkpt>
<trkpt lat="48.891710" lon="20.060843">
<ele>1743.0</ele>
<desc>Speed 14.0 km/h Distance 6.14 km</desc>
<time>2013-07-23T14:44:12.20</time>
<name>3162</name>
<sym>Dot</sym>
</trkpt>
<trkpt lat="48.891718" lon="20.060790">
<ele>1743.0</ele>
<desc>Speed 14.4 km/h Distance 6.14 km</desc>
<time>2013-07-23T14:44:13.03</time>
<name>3163</name>
<sym>Dot</sym>
</trkpt>
<trkpt lat="48.891728" lon="20.060733">
<ele>1742.0</ele>
<desc>Speed 15.7 km/h Distance 6.14 km</desc>
<time>2013-07-23T14:44:14.02</time>
<name>3164</name>
<sym>Dot</sym>
</trkpt>
<trkpt lat="48.891730" lon="20.060673">
<ele>1741.5</ele>
<desc>Speed 15.9 km/h Distance 6.15 km</desc>
<time>2013-07-23T14:44:15.02</time>
<name>3165</name>
<sym>Dot</sym>
</trkpt>
<trkpt lat="48.891735" lon="20.060618">
<ele>1740.5</ele>
<desc>Speed 14.9 km/h Distance 6.15 km</desc>
<time>2013-07-23T14:44:16.00</time>
<name>3166</name>
<sym>Dot</sym>
</trkpt>
<trkpt lat="48.891745" lon="20.060558">
<ele>1740.0</ele>
<desc>Speed 16.2 km/h Distance 6.16 km</desc>
<time>2013-07-23T14:44:17.00</time>
<name>3167</name>
<sym>Dot</sym>
</trkpt>
<trkpt lat="48.891752" lon="20.060498">
<ele>1739.0</ele>
<desc>Speed 16.1 km/h Distance 6.16 km</desc>
<time>2013-07-23T14:44:17.99</time>
<name>3168</name>
<sym>Dot</sym>
</trkpt>
<trkpt lat="48.891757" lon="20.060443">
<ele>1738.0</ele>
<desc>Speed 14.8 km/h Distance 6.17 km</desc>
<time>2013-07-23T14:44:18.99</time>
<name>3169</name>
<sym>Dot</sym>
</trkpt>
<trkpt lat="48.891763" lon="20.060385">
<ele>1737.5</ele>
<desc>Speed 15.6 km/h Distance 6.17 km</desc>
<time>2013-07-23T14:44:19.98</time>
<name>3170</name>
<sym>Dot</sym>
</trkpt>
<trkpt lat="48.891767" lon="20.060345">
<ele>1737.0</ele>
<desc>Speed 10.8 km/h Distance 6.17 km</desc>
<time>2013-07-23T14:44:20.97</time>
<name>3171</name>
<sym>Dot</sym>
</trkpt>
<trkpt lat="48.891782" lon="20.060333">
<ele>1736.0</ele>
<desc>Speed 3.4 km/h Distance 6.18 km</desc>
<time>2013-07-23T14:45:43.96</time>
<name>3172</name>
<sym>Dot</sym>
</trkpt>
<trkpt lat="48.891778" lon="20.060305">
<ele>1735.5</ele>
<desc>Speed 7.3 km/h Distance 6.18 km</desc>
<time>2013-07-23T14:45:44.96</time>
<name>3173</name>
<sym>Dot</sym>
</trkpt>
<trkpt lat="48.891805" lon="20.060270">
<ele>1737.0</ele>
<desc>Speed 14.1 km/h Distance 6.18 km</desc>
<time>2013-07-23T14:45:45.95</time>
<name>3174</name>
<sym>Dot</sym>
</trkpt>
<trkpt lat="48.891798" lon="20.060202">
<ele>1737.0</ele>
<desc>Speed 17.9 km/h Distance 6.19 km</desc>
<time>2013-07-23T14:45:46.96</time>
<name>3175</name>
<sym>Dot</sym>
</trkpt>
<trkpt lat="48.891805" lon="20.060147">
<ele>1736.5</ele>
<desc>Speed 14.6 km/h Distance 6.19 km</desc>
<time>2013-07-23T14:45:48.15</time>
<name>3176</name>
<sym>Dot</sym>
</trkpt>
<trkpt lat="48.891815" lon="20.060113">
<ele>1736.5</ele>
<desc>Speed 9.3 km/h Distance 6.19 km</desc>
<time>2013-07-23T14:45:48.94</time>
<name>3177</name>
<sym>Dot</sym>
</trkpt>
<trkpt lat="48.891820" lon="20.060063">
<ele>1735.5</ele>
<desc>Speed 13.3 km/h Distance 6.20 km</desc>
<time>2013-07-23T14:45:49.94</time>
<name>3178</name>
<sym>Dot</sym>
</trkpt>
<trkpt lat="48.891817" lon="20.060005">
<ele>1734.5</ele>
<desc>Speed 15.0 km/h Distance 6.20 km</desc>
<time>2013-07-23T14:45:50.93</time>
<name>3179</name>
<sym>Dot</sym>
</trkpt>
<trkpt lat="48.891818" lon="20.059952">
<ele>1734.5</ele>
<desc>Speed 13.8 km/h Distance 6.21 km</desc>
<time>2013-07-23T14:45:51.93</time>
<name>3180</name>
<sym>Dot</sym>
</trkpt>
<trkpt lat="48.891822" lon="20.059907">
<ele>1734.0</ele>
<desc>Speed 11.5 km/h Distance 6.21 km</desc>
<time>2013-07-23T14:45:52.93</time>
<name>3181</name>
<sym>Dot</sym>
</trkpt>
<trkpt lat="48.891825" lon="20.059867">
<ele>1734.0</ele>
<desc>Speed 10.3 km/h Distance 6.21 km</desc>
<time>2013-07-23T14:45:53.92</time>
<name>3182</name>
<sym>Dot</sym>
</trkpt>
<trkpt lat="48.891827" lon="20.059822">
<ele>1733.0</ele>
<desc>Speed 11.5 km/h Distance 6.21 km</desc>
<time>2013-07-23T14:45:54.95</time>
<name>3183</name>
<sym>Dot</sym>
</trkpt>
<trkpt lat="48.891835" lon="20.059763">
<ele>1732.5</ele>
<desc>Speed 15.5 km/h Distance 6.22 km</desc>
<time>2013-07-23T14:45:55.91</time>
<name>3184</name>
<sym>Dot</sym>
</trkpt>
<trkpt lat="48.891845" lon="20.059705">
<ele>1732.0</ele>
<desc>Speed 16.2 km/h Distance 6.22 km</desc>
<time>2013-07-23T14:45:56.90</time>
<name>3185</name>
<sym>Dot</sym>
</trkpt>
<trkpt lat="48.891853" lon="20.059645">
<ele>1731.0</ele>
<desc>Speed 15.9 km/h Distance 6.23 km</desc>
<time>2013-07-23T14:45:57.89</time>
<name>3186</name>
<sym>Dot</sym>
</trkpt>
<trkpt lat="48.891860" lon="20.059582">
<ele>1729.5</ele>
<desc>Speed 17.1 km/h Distance 6.23 km</desc>
<time>2013-07-23T14:45:59.13</time>
<name>3187</name>
<sym>Dot</sym>
</trkpt>
<trkpt lat="48.891872" lon="20.059525">
<ele>1729.5</ele>
<desc>Speed 15.5 km/h Distance 6.24 km</desc>
<time>2013-07-23T14:45:59.88</time>
<name>3188</name>
<sym>Dot</sym>
</trkpt>
<trkpt lat="48.891890" lon="20.059478">
<ele>1729.5</ele>
<desc>Speed 14.6 km/h Distance 6.24 km</desc>
<time>2013-07-23T14:46:00.87</time>
<name>3189</name>
<sym>Dot</sym>
</trkpt>
<trkpt lat="48.891917" lon="20.059430">
<ele>1730.0</ele>
<desc>Speed 16.2 km/h Distance 6.25 km</desc>
<time>2013-07-23T14:46:01.87</time>
<name>3190</name>
<sym>Dot</sym>
</trkpt>
<trkpt lat="48.891938" lon="20.059370">
<ele>1729.0</ele>
<desc>Speed 18.0 km/h Distance 6.25 km</desc>
<time>2013-07-23T14:46:02.87</time>
<name>3191</name>
<sym>Dot</sym>
</trkpt>
<trkpt lat="48.891957" lon="20.059310">
<ele>1729.0</ele>
<desc>Speed 17.4 km/h Distance 6.26 km</desc>
<time>2013-07-23T14:46:03.86</time>
<name>3192</name>
<sym>Dot</sym>
</trkpt>
<trkpt lat="48.891973" lon="20.059260">
<ele>1728.5</ele>
<desc>Speed 14.9 km/h Distance 6.26 km</desc>
<time>2013-07-23T14:46:04.86</time>
<name>3193</name>
<sym>Dot</sym>
</trkpt>
<trkpt lat="48.891990" lon="20.059212">
<ele>1728.5</ele>
<desc>Speed 14.1 km/h Distance 6.26 km</desc>
<time>2013-07-23T14:46:05.86</time>
<name>3194</name>
<sym>Dot</sym>
</trkpt>
<trkpt lat="48.892005" lon="20.059167">
<ele>1727.5</ele>
<desc>Speed 13.4 km/h Distance 6.27 km</desc>
<time>2013-07-23T14:46:06.86</time>
<name>3195</name>
<sym>Dot</sym>
</trkpt>
<trkpt lat="48.892018" lon="20.059123">
<ele>1727.5</ele>
<desc>Speed 12.6 km/h Distance 6.27 km</desc>
<time>2013-07-23T14:46:07.99</time>
<name>3196</name>
<sym>Dot</sym>
</trkpt>
<trkpt lat="48.892023" lon="20.059075">
<ele>1727.0</ele>
<desc>Speed 12.7 km/h Distance 6.27 km</desc>
<time>2013-07-23T14:46:08.84</time>
<name>3197</name>
<sym>Dot</sym>
</trkpt>
<trkpt lat="48.892030" lon="20.059032">
<ele>1727.0</ele>
<desc>Speed 11.7 km/h Distance 6.28 km</desc>
<time>2013-07-23T14:46:09.83</time>
<name>3198</name>
<sym>Dot</sym>
</trkpt>
<trkpt lat="48.892047" lon="20.058987">
<ele>1727.0</ele>
<desc>Speed 13.0 km/h Distance 6.28 km</desc>
<time>2013-07-23T14:46:10.83</time>
<name>3199</name>
<sym>Dot</sym>
</trkpt>
<trkpt lat="48.892067" lon="20.058943">
<ele>1727.0</ele>
<desc>Speed 13.5 km/h Distance 6.29 km</desc>
<time>2013-07-23T14:46:11.82</time>
<name>3200</name>
<sym>Dot</sym>
</trkpt>
<trkpt lat="48.892082" lon="20.058900">
<ele>1726.0</ele>
<desc>Speed 13.3 km/h Distance 6.29 km</desc>
<time>2013-07-23T14:46:12.82</time>
<name>3201</name>
<sym>Dot</sym>
</trkpt>
<trkpt lat="48.892092" lon="20.058860">
<ele>1726.0</ele>
<desc>Speed 11.1 km/h Distance 6.29 km</desc>
<time>2013-07-23T14:46:14.02</time>
<name>3202</name>
<sym>Dot</sym>
</trkpt>
<trkpt lat="48.892098" lon="20.058830">
<ele>1725.5</ele>
<desc>Speed 8.2 km/h Distance 6.29 km</desc>
<time>2013-07-23T14:46:14.81</time>
<name>3203</name>
<sym>Dot</sym>
</trkpt>
<trkpt lat="48.892108" lon="20.058805">
<ele>1725.0</ele>
<desc>Speed 7.3 km/h Distance 6.30 km</desc>
<time>2013-07-23T14:46:15.88</time>
<name>3204</name>
<sym>Dot</sym>
</trkpt>
<trkpt lat="48.892118" lon="20.058773">
<ele>1724.0</ele>
<desc>Speed 8.9 km/h Distance 6.30 km</desc>
<time>2013-07-23T14:46:16.79</time>
<name>3205</name>
<sym>Dot</sym>
</trkpt>
<trkpt lat="48.892133" lon="20.058742">
<ele>1723.5</ele>
<desc>Speed 9.9 km/h Distance 6.30 km</desc>
<time>2013-07-23T14:46:17.78</time>
<name>3206</name>
<sym>Dot</sym>
</trkpt>
<trkpt lat="48.892143" lon="20.058705">
<ele>1723.5</ele>
<desc>Speed 10.5 km/h Distance 6.30 km</desc>
<time>2013-07-23T14:46:18.79</time>
<name>3207</name>
<sym>Dot</sym>
</trkpt>
<trkpt lat="48.892150" lon="20.058667">
<ele>1723.0</ele>
<desc>Speed 10.4 km/h Distance 6.31 km</desc>
<time>2013-07-23T14:46:19.77</time>
<name>3208</name>
<sym>Dot</sym>
</trkpt>
<trkpt lat="48.892148" lon="20.058625">
<ele>1722.0</ele>
<desc>Speed 10.7 km/h Distance 6.31 km</desc>
<time>2013-07-23T14:46:20.77</time>
<name>3209</name>
<sym>Dot</sym>
</trkpt>
<trkpt lat="48.892153" lon="20.058585">
<ele>1722.0</ele>
<desc>Speed 10.8 km/h Distance 6.31 km</desc>
<time>2013-07-23T14:46:21.76</time>
<name>3210</name>
<sym>Dot</sym>
</trkpt>
<trkpt lat="48.892163" lon="20.058553">
<ele>1721.5</ele>
<desc>Speed 9.3 km/h Distance 6.32 km</desc>
<time>2013-07-23T14:46:22.76</time>
<name>3211</name>
<sym>Dot</sym>
</trkpt>
<trkpt lat="48.892177" lon="20.058525">
<ele>1721.0</ele>
<desc>Speed 9.4 km/h Distance 6.32 km</desc>
<time>2013-07-23T14:46:23.75</time>
<name>3212</name>
<sym>Dot</sym>
</trkpt>
<trkpt lat="48.892187" lon="20.058495">
<ele>1721.5</ele>
<desc>Speed 9.0 km/h Distance 6.32 km</desc>
<time>2013-07-23T14:46:24.93</time>
<name>3213</name>
<sym>Dot</sym>
</trkpt>
<trkpt lat="48.892197" lon="20.058468">
<ele>1721.5</ele>
<desc>Speed 7.9 km/h Distance 6.32 km</desc>
<time>2013-07-23T14:46:25.74</time>
<name>3214</name>
<sym>Dot</sym>
</trkpt>
<trkpt lat="48.892203" lon="20.058440">
<ele>1721.5</ele>
<desc>Speed 8.2 km/h Distance 6.33 km</desc>
<time>2013-07-23T14:46:26.74</time>
<name>3215</name>
<sym>Dot</sym>
</trkpt>
<trkpt lat="48.892208" lon="20.058410">
<ele>1721.5</ele>
<desc>Speed 7.8 km/h Distance 6.33 km</desc>
<time>2013-07-23T14:46:27.74</time>
<name>3216</name>
<sym>Dot</sym>
</trkpt>
<trkpt lat="48.892213" lon="20.058383">
<ele>1720.5</ele>
<desc>Speed 7.1 km/h Distance 6.33 km</desc>
<time>2013-07-23T14:46:28.73</time>
<name>3217</name>
<sym>Dot</sym>
</trkpt>
<trkpt lat="48.892217" lon="20.058357">
<ele>1720.5</ele>
<desc>Speed 7.1 km/h Distance 6.33 km</desc>
<time>2013-07-23T14:46:29.73</time>
<name>3218</name>
<sym>Dot</sym>
</trkpt>
<trkpt lat="48.892218" lon="20.058328">
<ele>1719.5</ele>
<desc>Speed 7.6 km/h Distance 6.33 km</desc>
<time>2013-07-23T14:46:30.73</time>
<name>3219</name>
<sym>Dot</sym>
</trkpt>
<trkpt lat="48.892225" lon="20.058310">
<ele>1719.5</ele>
<desc>Speed 5.3 km/h Distance 6.34 km</desc>
<time>2013-07-23T14:46:31.72</time>
<name>3220</name>
<sym>Dot</sym>
</trkpt>
<trkpt lat="48.892230" lon="20.058283">
<ele>1718.5</ele>
<desc>Speed 6.4 km/h Distance 6.34 km</desc>
<time>2013-07-23T14:46:32.72</time>
<name>3221</name>
<sym>Dot</sym>
</trkpt>
<trkpt lat="48.892230" lon="20.058248">
<ele>1717.5</ele>
<desc>Speed 8.0 km/h Distance 6.34 km</desc>
<time>2013-07-23T14:46:33.71</time>
<name>3222</name>
<sym>Dot</sym>
</trkpt>
<trkpt lat="48.892228" lon="20.058215">
<ele>1716.0</ele>
<desc>Speed 8.6 km/h Distance 6.34 km</desc>
<time>2013-07-23T14:46:34.70</time>
<name>3223</name>
<sym>Dot</sym>
</trkpt>
<trkpt lat="48.892228" lon="20.058177">
<ele>1715.5</ele>
<desc>Speed 9.9 km/h Distance 6.35 km</desc>
<time>2013-07-23T14:46:35.69</time>
<name>3224</name>
<sym>Dot</sym>
</trkpt>
<trkpt lat="48.892232" lon="20.058137">
<ele>1715.0</ele>
<desc>Speed 10.7 km/h Distance 6.35 km</desc>
<time>2013-07-23T14:46:36.74</time>
<name>3225</name>
<sym>Dot</sym>
</trkpt>
<trkpt lat="48.892238" lon="20.058097">
<ele>1714.5</ele>
<desc>Speed 10.9 km/h Distance 6.35 km</desc>
<time>2013-07-23T14:46:37.68</time>
<name>3226</name>
<sym>Dot</sym>
</trkpt>
<trkpt lat="48.892245" lon="20.058065">
<ele>1714.0</ele>
<desc>Speed 8.7 km/h Distance 6.35 km</desc>
<time>2013-07-23T14:46:38.68</time>
<name>3227</name>
<sym>Dot</sym>
</trkpt>
<trkpt lat="48.892250" lon="20.058032">
<ele>1713.5</ele>
<desc>Speed 8.8 km/h Distance 6.36 km</desc>
<time>2013-07-23T14:46:39.68</time>
<name>3228</name>
<sym>Dot</sym>
</trkpt>
<trkpt lat="48.892250" lon="20.057997">
<ele>1713.0</ele>
<desc>Speed 9.0 km/h Distance 6.36 km</desc>
<time>2013-07-23T14:46:40.68</time>
<name>3229</name>
<sym>Dot</sym>
</trkpt>
<trkpt lat="48.892250" lon="20.057975">
<ele>1713.0</ele>
<desc>Speed 5.5 km/h Distance 6.36 km</desc>
<time>2013-07-23T14:46:41.67</time>
<name>3230</name>
<sym>Dot</sym>
</trkpt>
<trkpt lat="48.892250" lon="20.057955">
<ele>1713.0</ele>
<desc>Speed 4.8 km/h Distance 6.36 km</desc>
<time>2013-07-23T14:46:42.67</time>
<name>3231</name>
<sym>Dot</sym>
</trkpt>
<trkpt lat="48.892248" lon="20.057935">
<ele>1712.5</ele>
<desc>Speed 5.1 km/h Distance 6.36 km</desc>
<time>2013-07-23T14:46:44.33</time>
<name>3232</name>
<sym>Dot</sym>
</trkpt>
<trkpt lat="48.892243" lon="20.057890">
<ele>1711.5</ele>
<desc>Speed 6.3 km/h Distance 6.37 km</desc>
<time>2013-07-23T14:46:45.67</time>
<name>3233</name>
<sym>Dot</sym>
</trkpt>
<trkpt lat="48.892240" lon="20.057870">
<ele>1711.5</ele>
<desc>Speed 4.9 km/h Distance 6.37 km</desc>
<time>2013-07-23T14:46:46.67</time>
<name>3234</name>
<sym>Dot</sym>
</trkpt>
<trkpt lat="48.892235" lon="20.057852">
<ele>1711.5</ele>
<desc>Speed 4.6 km/h Distance 6.37 km</desc>
<time>2013-07-23T14:46:47.66</time>
<name>3235</name>
<sym>Dot</sym>
</trkpt>
<trkpt lat="48.892232" lon="20.057835">
<ele>1711.5</ele>
<desc>Speed 4.0 km/h Distance 6.37 km</desc>
<time>2013-07-23T14:46:48.74</time>
<name>3236</name>
<sym>Dot</sym>
</trkpt>
<trkpt lat="48.892227" lon="20.057820">
<ele>1711.0</ele>
<desc>Speed 4.1 km/h Distance 6.37 km</desc>
<time>2013-07-23T14:46:49.65</time>
<name>3237</name>
<sym>Dot</sym>
</trkpt>
<trkpt lat="48.892220" lon="20.057803">
<ele>1710.5</ele>
<desc>Speed 4.3 km/h Distance 6.37 km</desc>
<time>2013-07-23T14:46:50.64</time>
<name>3238</name>
<sym>Dot</sym>
</trkpt>
<trkpt lat="48.892220" lon="20.057788">
<ele>1710.5</ele>
<desc>Speed 3.3 km/h Distance 6.38 km</desc>
<time>2013-07-23T14:46:51.64</time>
<name>3239</name>
<sym>Dot</sym>
</trkpt>
<trkpt lat="48.892217" lon="20.057765">
<ele>1709.5</ele>
<desc>Speed 6.0 km/h Distance 6.38 km</desc>
<time>2013-07-23T14:46:52.64</time>
<name>3240</name>
<sym>Dot</sym>
</trkpt>
<trkpt lat="48.892218" lon="20.057742">
<ele>1709.0</ele>
<desc>Speed 5.8 km/h Distance 6.38 km</desc>
<time>2013-07-23T14:46:53.63</time>
<name>3241</name>
<sym>Dot</sym>
</trkpt>
<trkpt lat="48.892225" lon="20.057720">
<ele>1709.0</ele>
<desc>Speed 5.7 km/h Distance 6.38 km</desc>
<time>2013-07-23T14:46:54.63</time>
<name>3242</name>
<sym>Dot</sym>
</trkpt>
<trkpt lat="48.892233" lon="20.057698">
<ele>1709.0</ele>
<desc>Speed 5.8 km/h Distance 6.38 km</desc>
<time>2013-07-23T14:46:55.63</time>
<name>3243</name>
<sym>Dot</sym>
</trkpt>
<trkpt lat="48.892240" lon="20.057670">
<ele>1708.0</ele>
<desc>Speed 7.5 km/h Distance 6.38 km</desc>
<time>2013-07-23T14:46:56.66</time>
<name>3244</name>
<sym>Dot</sym>
</trkpt>
<trkpt lat="48.892252" lon="20.057642">
<ele>1708.0</ele>
<desc>Speed 8.2 km/h Distance 6.39 km</desc>
<time>2013-07-23T14:46:57.62</time>
<name>3245</name>
<sym>Dot</sym>
</trkpt>
<trkpt lat="48.892260" lon="20.057608">
<ele>1707.5</ele>
<desc>Speed 8.6 km/h Distance 6.39 km</desc>
<time>2013-07-23T14:46:58.62</time>
<name>3246</name>
<sym>Dot</sym>
</trkpt>
<trkpt lat="48.892273" lon="20.057558">
<ele>1707.5</ele>
<desc>Speed 13.6 km/h Distance 6.39 km</desc>
<time>2013-07-23T14:46:59.72</time>
<name>3247</name>
<sym>Dot</sym>
</trkpt>
<trkpt lat="48.892288" lon="20.057502">
<ele>1707.0</ele>
<desc>Speed 15.8 km/h Distance 6.40 km</desc>
<time>2013-07-23T14:47:00.62</time>
<name>3248</name>
<sym>Dot</sym>
</trkpt>
<trkpt lat="48.892307" lon="20.057473">
<ele>1707.0</ele>
<desc>Speed 10.5 km/h Distance 6.40 km</desc>
<time>2013-07-23T14:47:01.74</time>
<name>3249</name>
<sym>Dot</sym>
</trkpt>
<trkpt lat="48.892337" lon="20.057343">
<ele>1707.0</ele>
<desc>Speed 17.5 km/h Distance 6.41 km</desc>
<time>2013-07-23T14:47:03.61</time>
<name>3250</name>
<sym>Dot</sym>
</trkpt>
<trkpt lat="48.892353" lon="20.057280">
<ele>1707.0</ele>
<desc>Speed 17.6 km/h Distance 6.42 km</desc>
<time>2013-07-23T14:47:04.60</time>
<name>3251</name>
<sym>Dot</sym>
</trkpt>
<trkpt lat="48.892367" lon="20.057245">
<ele>1706.5</ele>
<desc>Speed 10.8 km/h Distance 6.42 km</desc>
<time>2013-07-23T14:47:05.60</time>
<name>3252</name>
<sym>Dot</sym>
</trkpt>
<trkpt lat="48.892383" lon="20.057185">
<ele>1705.5</ele>
<desc>Speed 16.6 km/h Distance 6.42 km</desc>
<time>2013-07-23T14:47:06.60</time>
<name>3253</name>
<sym>Dot</sym>
</trkpt>
<trkpt lat="48.892405" lon="20.057133">
<ele>1704.0</ele>
<desc>Speed 16.3 km/h Distance 6.43 km</desc>
<time>2013-07-23T14:47:07.60</time>
<name>3254</name>
<sym>Dot</sym>
</trkpt>
<trkpt lat="48.892430" lon="20.057080">
<ele>1704.0</ele>
<desc>Speed 17.0 km/h Distance 6.43 km</desc>
<time>2013-07-23T14:47:08.74</time>
<name>3255</name>
<sym>Dot</sym>
</trkpt>
<trkpt lat="48.892457" lon="20.057033">
<ele>1704.0</ele>
<desc>Speed 16.1 km/h Distance 6.44 km</desc>
<time>2013-07-23T14:47:09.59</time>
<name>3256</name>
<sym>Dot</sym>
</trkpt>
<trkpt lat="48.892475" lon="20.056972">
<ele>1703.5</ele>
<desc>Speed 17.4 km/h Distance 6.44 km</desc>
<time>2013-07-23T14:47:10.58</time>
<name>3257</name>
<sym>Dot</sym>
</trkpt>
<trkpt lat="48.892490" lon="20.056915">
<ele>1702.5</ele>
<desc>Speed 15.0 km/h Distance 6.45 km</desc>
<time>2013-07-23T14:47:11.57</time>
<name>3258</name>
<sym>Dot</sym>
</trkpt>
<trkpt lat="48.892503" lon="20.056855">
<ele>1701.5</ele>
<desc>Speed 13.9 km/h Distance 6.45 km</desc>
<time>2013-07-23T14:47:12.57</time>
<name>3259</name>
<sym>Dot</sym>
</trkpt>
<trkpt lat="48.892518" lon="20.056828">
<ele>1701.5</ele>
<desc>Speed 7.6 km/h Distance 6.45 km</desc>
<time>2013-07-23T14:47:13.76</time>
<name>3260</name>
<sym>Dot</sym>
</trkpt>
<trkpt lat="48.892530" lon="20.056807">
<ele>1701.0</ele>
<desc>Speed 6.8 km/h Distance 6.46 km</desc>
<time>2013-07-23T14:47:14.56</time>
<name>3261</name>
<sym>Dot</sym>
</trkpt>
<trkpt lat="48.892542" lon="20.056783">
<ele>1700.0</ele>
<desc>Speed 7.2 km/h Distance 6.46 km</desc>
<time>2013-07-23T14:47:15.56</time>
<name>3262</name>
<sym>Dot</sym>
</trkpt>
<trkpt lat="48.892558" lon="20.056770">
<ele>1700.0</ele>
<desc>Speed 6.8 km/h Distance 6.46 km</desc>
<time>2013-07-23T14:47:16.55</time>
<name>3263</name>
<sym>Dot</sym>
</trkpt>
<trkpt lat="48.892572" lon="20.056745">
<ele>1699.5</ele>
<desc>Speed 6.7 km/h Distance 6.46 km</desc>
<time>2013-07-23T14:47:17.54</time>
<name>3264</name>
<sym>Dot</sym>
</trkpt>
<trkpt lat="48.892587" lon="20.056748">
<ele>1700.0</ele>
<desc>Speed 5.3 km/h Distance 6.46 km</desc>
<time>2013-07-23T14:47:18.54</time>
<name>3265</name>
<sym>Dot</sym>
</trkpt>
<trkpt lat="48.892632" lon="20.056788">
<ele>1698.5</ele>
<desc>Speed 8.0 km/h Distance 6.47 km</desc>
<time>2013-07-23T14:47:20.53</time>
<name>3266</name>
<sym>Dot</sym>
</trkpt>
<trkpt lat="48.892648" lon="20.056788">
<ele>1698.5</ele>
<desc>Speed 8.0 km/h Distance 6.47 km</desc>
<time>2013-07-23T14:47:21.52</time>
<name>3267</name>
<sym>Dot</sym>
</trkpt>
<trkpt lat="48.892658" lon="20.056755">
<ele>1698.5</ele>
<desc>Speed 8.8 km/h Distance 6.47 km</desc>
<time>2013-07-23T14:47:22.52</time>
<name>3268</name>
<sym>Dot</sym>
</trkpt>
<trkpt lat="48.892663" lon="20.056713">
<ele>1697.5</ele>
<desc>Speed 11.5 km/h Distance 6.48 km</desc>
<time>2013-07-23T14:47:23.52</time>
<name>3269</name>
<sym>Dot</sym>
</trkpt>
<trkpt lat="48.892673" lon="20.056662">
<ele>1697.5</ele>
<desc>Speed 10.5 km/h Distance 6.48 km</desc>
<time>2013-07-23T14:47:24.51</time>
<name>3270</name>
<sym>Dot</sym>
</trkpt>
<trkpt lat="48.892683" lon="20.056613">
<ele>1697.0</ele>
<desc>Speed 8.6 km/h Distance 6.49 km</desc>
<time>2013-07-23T14:47:25.51</time>
<name>3271</name>
<sym>Dot</sym>
</trkpt>
<trkpt lat="48.892688" lon="20.056565">
<ele>1697.0</ele>
<desc>Speed 7.2 km/h Distance 6.49 km</desc>
<time>2013-07-23T14:47:26.55</time>
<name>3272</name>
<sym>Dot</sym>
</trkpt>
<trkpt lat="48.892697" lon="20.056543">
<ele>1697.0</ele>
<desc>Speed 7.2 km/h Distance 6.49 km</desc>
<time>2013-07-23T14:47:27.65</time>
<name>3273</name>
<sym>Dot</sym>
</trkpt>
<trkpt lat="48.892710" lon="20.056535">
<ele>1697.0</ele>
<desc>Speed 3.7 km/h Distance 6.49 km</desc>
<time>2013-07-23T14:47:28.49</time>
<name>3274</name>
<sym>Dot</sym>
</trkpt>
<trkpt lat="48.892720" lon="20.056512">
<ele>1696.0</ele>
<desc>Speed 5.8 km/h Distance 6.49 km</desc>
<time>2013-07-23T14:47:29.48</time>
<name>3275</name>
<sym>Dot</sym>
</trkpt>
<trkpt lat="48.892730" lon="20.056483">
<ele>1695.5</ele>
<desc>Speed 7.7 km/h Distance 6.50 km</desc>
<time>2013-07-23T14:47:30.48</time>
<name>3276</name>
<sym>Dot</sym>
</trkpt>
<trkpt lat="48.892748" lon="20.056480">
<ele>1695.0</ele>
<desc>Speed 6.0 km/h Distance 6.50 km</desc>
<time>2013-07-23T14:47:31.47</time>
<name>3277</name>
<sym>Dot</sym>
</trkpt>
<trkpt lat="48.892768" lon="20.056447">
<ele>1695.0</ele>
<desc>Speed 12.1 km/h Distance 6.50 km</desc>
<time>2013-07-23T14:47:32.46</time>
<name>3278</name>
<sym>Dot</sym>
</trkpt>
<trkpt lat="48.892785" lon="20.056415">
<ele>1695.0</ele>
<desc>Speed 9.3 km/h Distance 6.51 km</desc>
<time>2013-07-23T14:47:33.45</time>
<name>3279</name>
<sym>Dot</sym>
</trkpt>
<trkpt lat="48.892797" lon="20.056387">
<ele>1695.0</ele>
<desc>Speed 6.6 km/h Distance 6.51 km</desc>
<time>2013-07-23T14:47:34.45</time>
<name>3280</name>
<sym>Dot</sym>
</trkpt>
<trkpt lat="48.892807" lon="20.056370">
<ele>1695.0</ele>
<desc>Speed 6.3 km/h Distance 6.51 km</desc>
<time>2013-07-23T14:47:35.58</time>
<name>3281</name>
<sym>Dot</sym>
</trkpt>
<trkpt lat="48.892815" lon="20.056360">
<ele>1695.0</ele>
<desc>Speed 4.4 km/h Distance 6.51 km</desc>
<time>2013-07-23T14:47:36.43</time>
<name>3282</name>
<sym>Dot</sym>
</trkpt>
<trkpt lat="48.892818" lon="20.056337">
<ele>1695.0</ele>
<desc>Speed 6.6 km/h Distance 6.51 km</desc>
<time>2013-07-23T14:47:37.43</time>
<name>3283</name>
<sym>Dot</sym>
</trkpt>
<trkpt lat="48.892817" lon="20.056297">
<ele>1695.0</ele>
<desc>Speed 10.3 km/h Distance 6.52 km</desc>
<time>2013-07-23T14:47:38.42</time>
<name>3284</name>
<sym>Dot</sym>
</trkpt>
<trkpt lat="48.892820" lon="20.056177">
<ele>1692.5</ele>
<desc>Speed 12.7 km/h Distance 6.52 km</desc>
<time>2013-07-23T14:47:40.53</time>
<name>3285</name>
<sym>Dot</sym>
</trkpt>
<trkpt lat="48.892832" lon="20.056113">
<ele>1692.0</ele>
<desc>Speed 11.9 km/h Distance 6.53 km</desc>
<time>2013-07-23T14:47:41.41</time>
<name>3286</name>
<sym>Dot</sym>
</trkpt>
<trkpt lat="48.892845" lon="20.056055">
<ele>1691.0</ele>
<desc>Speed 12.5 km/h Distance 6.53 km</desc>
<time>2013-07-23T14:47:42.40</time>
<name>3287</name>
<sym>Dot</sym>
</trkpt>
<trkpt lat="48.892853" lon="20.056015">
<ele>1690.5</ele>
<desc>Speed 9.0 km/h Distance 6.54 km</desc>
<time>2013-07-23T14:47:43.40</time>
<name>3288</name>
<sym>Dot</sym>
</trkpt>
<trkpt lat="48.892858" lon="20.055983">
<ele>1690.5</ele>
<desc>Speed 7.6 km/h Distance 6.54 km</desc>
<time>2013-07-23T14:47:44.40</time>
<name>3289</name>
<sym>Dot</sym>
</trkpt>
<trkpt lat="48.892860" lon="20.055958">
<ele>1690.5</ele>
<desc>Speed 6.0 km/h Distance 6.54 km</desc>
<time>2013-07-23T14:47:45.40</time>
<name>3290</name>
<sym>Dot</sym>
</trkpt>
<trkpt lat="48.892857" lon="20.055937">
<ele>1690.0</ele>
<desc>Speed 5.8 km/h Distance 6.54 km</desc>
<time>2013-07-23T14:47:46.39</time>
<name>3291</name>
<sym>Dot</sym>
</trkpt>
<trkpt lat="48.892833" lon="20.055922">
<ele>1687.5</ele>
<desc>Speed 10.5 km/h Distance 6.54 km</desc>
<time>2013-07-23T14:47:47.39</time>
<name>3292</name>
<sym>Dot</sym>
</trkpt>
<trkpt lat="48.892850" lon="20.055920">
<ele>1687.5</ele>
<desc>Speed 6.9 km/h Distance 6.55 km</desc>
<time>2013-07-23T14:47:48.38</time>
<name>3293</name>
<sym>Dot</sym>
</trkpt>
<trkpt lat="48.892853" lon="20.055910">
<ele>1687.5</ele>
<desc>Speed 3.6 km/h Distance 6.55 km</desc>
<time>2013-07-23T14:47:49.38</time>
<name>3294</name>
<sym>Dot</sym>
</trkpt>
<trkpt lat="48.892867" lon="20.055913">
<ele>1687.0</ele>
<desc>Speed 5.4 km/h Distance 6.55 km</desc>
<time>2013-07-23T14:47:50.38</time>
<name>3295</name>
<sym>Dot</sym>
</trkpt>
<trkpt lat="48.892877" lon="20.055895">
<ele>1686.5</ele>
<desc>Speed 6.3 km/h Distance 6.55 km</desc>
<time>2013-07-23T14:47:51.37</time>
<name>3296</name>
<sym>Dot</sym>
</trkpt>
<trkpt lat="48.892887" lon="20.055863">
<ele>1686.0</ele>
<desc>Speed 8.3 km/h Distance 6.55 km</desc>
<time>2013-07-23T14:47:52.37</time>
<name>3297</name>
<sym>Dot</sym>
</trkpt>
<trkpt lat="48.892888" lon="20.055853">
<ele>1685.0</ele>
<desc>Speed 4.9 km/h Distance 6.55 km</desc>
<time>2013-07-23T14:47:53.37</time>
<name>3298</name>
<sym>Dot</sym>
</trkpt>
<trkpt lat="48.892892" lon="20.055835">
<ele>1683.5</ele>
<desc>Speed 6.4 km/h Distance 6.56 km</desc>
<time>2013-07-23T14:47:54.37</time>
<name>3299</name>
<sym>Dot</sym>
</trkpt>
<trkpt lat="48.892893" lon="20.055823">
<ele>1681.5</ele>
<desc>Speed 4.3 km/h Distance 6.56 km</desc>
<time>2013-07-23T14:47:55.36</time>
<name>3300</name>
<sym>Dot</sym>
</trkpt>
<trkpt lat="48.892900" lon="20.055808">
<ele>1681.0</ele>
<desc>Speed 5.4 km/h Distance 6.56 km</desc>
<time>2013-07-23T14:47:56.36</time>
<name>3301</name>
<sym>Dot</sym>
</trkpt>
<trkpt lat="48.892905" lon="20.055785">
<ele>1680.0</ele>
<desc>Speed 5.4 km/h Distance 6.56 km</desc>
<time>2013-07-23T14:47:57.36</time>
<name>3302</name>
<sym>Dot</sym>
</trkpt>
<trkpt lat="48.892907" lon="20.055763">
<ele>1678.0</ele>
<desc>Speed 4.7 km/h Distance 6.56 km</desc>
<time>2013-07-23T14:47:58.36</time>
<name>3303</name>
<sym>Dot</sym>
</trkpt>
<trkpt lat="48.892912" lon="20.055748">
<ele>1677.5</ele>
<desc>Speed 3.6 km/h Distance 6.56 km</desc>
<time>2013-07-23T14:47:59.35</time>
<name>3304</name>
<sym>Dot</sym>
</trkpt>
<trkpt lat="48.892918" lon="20.055730">
<ele>1677.0</ele>
<desc>Speed 3.9 km/h Distance 6.56 km</desc>
<time>2013-07-23T14:48:00.35</time>
<name>3305</name>
<sym>Dot</sym>
</trkpt>
<trkpt lat="48.892897" lon="20.055745">
<ele>1676.0</ele>
<desc>Speed 9.9 km/h Distance 6.57 km</desc>
<time>2013-07-23T14:48:01.35</time>
<name>3306</name>
<sym>Dot</sym>
</trkpt>
<trkpt lat="48.892922" lon="20.055683">
<ele>1673.0</ele>
<desc>Speed 3.0 km/h Distance 6.57 km</desc>
<time>2013-07-23T14:48:11.35</time>
<name>3307</name>
<sym>Dot</sym>
</trkpt>
<trkpt lat="48.892940" lon="20.055693">
<ele>1673.0</ele>
<desc>Speed 7.4 km/h Distance 6.57 km</desc>
<time>2013-07-23T14:48:12.34</time>
<name>3308</name>
<sym>Dot</sym>
</trkpt>
<trkpt lat="48.892965" lon="20.055687">
<ele>1673.5</ele>
<desc>Speed 9.8 km/h Distance 6.58 km</desc>
<time>2013-07-23T14:48:13.36</time>
<name>3309</name>
<sym>Dot</sym>
</trkpt>
<trkpt lat="48.892985" lon="20.055677">
<ele>1674.5</ele>
<desc>Speed 8.0 km/h Distance 6.58 km</desc>
<time>2013-07-23T14:48:14.47</time>
<name>3310</name>
<sym>Dot</sym>
</trkpt>
<trkpt lat="48.893000" lon="20.055640">
<ele>1674.5</ele>
<desc>Speed 10.7 km/h Distance 6.58 km</desc>
<time>2013-07-23T14:48:15.33</time>
<name>3311</name>
<sym>Dot</sym>
</trkpt>
<trkpt lat="48.893008" lon="20.055602">
<ele>1673.0</ele>
<desc>Speed 8.4 km/h Distance 6.59 km</desc>
<time>2013-07-23T14:48:16.33</time>
<name>3312</name>
<sym>Dot</sym>
</trkpt>
<trkpt lat="48.893072" lon="20.055563">
<ele>1671.5</ele>
<desc>Speed 10.9 km/h Distance 6.59 km</desc>
<time>2013-07-23T14:48:18.33</time>
<name>3313</name>
<sym>Dot</sym>
</trkpt>
<trkpt lat="48.893060" lon="20.055517">
<ele>1671.0</ele>
<desc>Speed 12.3 km/h Distance 6.60 km</desc>
<time>2013-07-23T14:48:19.32</time>
<name>3314</name>
<sym>Dot</sym>
</trkpt>
<trkpt lat="48.893075" lon="20.055497">
<ele>1671.0</ele>
<desc>Speed 7.8 km/h Distance 6.60 km</desc>
<time>2013-07-23T14:48:20.47</time>
<name>3315</name>
<sym>Dot</sym>
</trkpt>
<trkpt lat="48.893088" lon="20.055467">
<ele>1670.5</ele>
<desc>Speed 6.7 km/h Distance 6.60 km</desc>
<time>2013-07-23T14:48:21.31</time>
<name>3316</name>
<sym>Dot</sym>
</trkpt>
<trkpt lat="48.893100" lon="20.055465">
<ele>1670.5</ele>
<desc>Speed 4.5 km/h Distance 6.60 km</desc>
<time>2013-07-23T14:48:22.30</time>
<name>3317</name>
<sym>Dot</sym>
</trkpt>
<trkpt lat="48.893110" lon="20.055447">
<ele>1670.0</ele>
<desc>Speed 6.2 km/h Distance 6.60 km</desc>
<time>2013-07-23T14:48:23.30</time>
<name>3318</name>
<sym>Dot</sym>
</trkpt>
<trkpt lat="48.893118" lon="20.055423">
<ele>1670.0</ele>
<desc>Speed 6.1 km/h Distance 6.61 km</desc>
<time>2013-07-23T14:48:24.30</time>
<name>3319</name>
<sym>Dot</sym>
</trkpt>
<trkpt lat="48.893122" lon="20.055398">
<ele>1669.0</ele>
<desc>Speed 5.8 km/h Distance 6.61 km</desc>
<time>2013-07-23T14:48:25.30</time>
<name>3320</name>
<sym>Dot</sym>
</trkpt>
<trkpt lat="48.893132" lon="20.055373">
<ele>1669.0</ele>
<desc>Speed 6.6 km/h Distance 6.61 km</desc>
<time>2013-07-23T14:48:26.29</time>
<name>3321</name>
<sym>Dot</sym>
</trkpt>
<trkpt lat="48.893145" lon="20.055335">
<ele>1668.5</ele>
<desc>Speed 9.2 km/h Distance 6.61 km</desc>
<time>2013-07-23T14:48:27.29</time>
<name>3322</name>
<sym>Dot</sym>
</trkpt>
<trkpt lat="48.893157" lon="20.055298">
<ele>1667.5</ele>
<desc>Speed 8.7 km/h Distance 6.62 km</desc>
<time>2013-07-23T14:48:28.29</time>
<name>3323</name>
<sym>Dot</sym>
</trkpt>
<trkpt lat="48.893170" lon="20.055265">
<ele>1667.0</ele>
<desc>Speed 7.9 km/h Distance 6.62 km</desc>
<time>2013-07-23T14:48:29.29</time>
<name>3324</name>
<sym>Dot</sym>
</trkpt>
<trkpt lat="48.893183" lon="20.055242">
<ele>1668.0</ele>
<desc>Speed 7.7 km/h Distance 6.62 km</desc>
<time>2013-07-23T14:48:30.29</time>
<name>3325</name>
<sym>Dot</sym>
</trkpt>
<trkpt lat="48.893200" lon="20.055213">
<ele>1666.5</ele>
<desc>Speed 9.9 km/h Distance 6.62 km</desc>
<time>2013-07-23T14:48:31.29</time>
<name>3326</name>
<sym>Dot</sym>
</trkpt>
<trkpt lat="48.893218" lon="20.055188">
<ele>1666.5</ele>
<desc>Speed 8.6 km/h Distance 6.63 km</desc>
<time>2013-07-23T14:48:32.28</time>
<name>3327</name>
<sym>Dot</sym>
</trkpt>
<trkpt lat="48.893235" lon="20.055183">
<ele>1667.5</ele>
<desc>Speed 6.4 km/h Distance 6.63 km</desc>
<time>2013-07-23T14:48:33.28</time>
<name>3328</name>
<sym>Dot</sym>
</trkpt>
<trkpt lat="48.893248" lon="20.055180">
<ele>1667.5</ele>
<desc>Speed 4.4 km/h Distance 6.63 km</desc>
<time>2013-07-23T14:48:34.28</time>
<name>3329</name>
<sym>Dot</sym>
</trkpt>
<trkpt lat="48.893268" lon="20.055157">
<ele>1666.5</ele>
<desc>Speed 9.6 km/h Distance 6.63 km</desc>
<time>2013-07-23T14:48:35.27</time>
<name>3330</name>
<sym>Dot</sym>
</trkpt>
<trkpt lat="48.893290" lon="20.055148">
<ele>1667.0</ele>
<desc>Speed 7.7 km/h Distance 6.64 km</desc>
<time>2013-07-23T14:48:36.28</time>
<name>3331</name>
<sym>Dot</sym>
</trkpt>
<trkpt lat="48.893313" lon="20.055132">
<ele>1667.0</ele>
<desc>Speed 9.8 km/h Distance 6.64 km</desc>
<time>2013-07-23T14:48:37.27</time>
<name>3332</name>
<sym>Dot</sym>
</trkpt>
<trkpt lat="48.893327" lon="20.055118">
<ele>1668.5</ele>
<desc>Speed 6.5 km/h Distance 6.64 km</desc>
<time>2013-07-23T14:48:38.27</time>
<name>3333</name>
<sym>Dot</sym>
</trkpt>
<trkpt lat="48.893330" lon="20.055098">
<ele>1668.5</ele>
<desc>Speed 5.4 km/h Distance 6.64 km</desc>
<time>2013-07-23T14:48:39.26</time>
<name>3334</name>
<sym>Dot</sym>
</trkpt>
<trkpt lat="48.893330" lon="20.055068">
<ele>1668.5</ele>
<desc>Speed 7.3 km/h Distance 6.64 km</desc>
<time>2013-07-23T14:48:40.34</time>
<name>3335</name>
<sym>Dot</sym>
</trkpt>
<trkpt lat="48.893330" lon="20.055037">
<ele>1667.5</ele>
<desc>Speed 7.7 km/h Distance 6.65 km</desc>
<time>2013-07-23T14:48:41.41</time>
<name>3336</name>
<sym>Dot</sym>
</trkpt>
<trkpt lat="48.893332" lon="20.055010">
<ele>1667.0</ele>
<desc>Speed 5.8 km/h Distance 6.65 km</desc>
<time>2013-07-23T14:48:42.42</time>
<name>3337</name>
<sym>Dot</sym>
</trkpt>
<trkpt lat="48.893335" lon="20.054985">
<ele>1666.5</ele>
<desc>Speed 6.0 km/h Distance 6.65 km</desc>
<time>2013-07-23T14:48:43.24</time>
<name>3338</name>
<sym>Dot</sym>
</trkpt>
<trkpt lat="48.893342" lon="20.054968">
<ele>1666.5</ele>
<desc>Speed 4.9 km/h Distance 6.65 km</desc>
<time>2013-07-23T14:48:44.24</time>
<name>3339</name>
<sym>Dot</sym>
</trkpt>
<trkpt lat="48.893353" lon="20.054950">
<ele>1667.0</ele>
<desc>Speed 6.0 km/h Distance 6.65 km</desc>
<time>2013-07-23T14:48:45.23</time>
<name>3340</name>
<sym>Dot</sym>
</trkpt>
<trkpt lat="48.893365" lon="20.054935">
<ele>1667.5</ele>
<desc>Speed 6.2 km/h Distance 6.66 km</desc>
<time>2013-07-23T14:48:46.22</time>
<name>3341</name>
<sym>Dot</sym>
</trkpt>
<trkpt lat="48.893383" lon="20.054925">
<ele>1667.5</ele>
<desc>Speed 6.3 km/h Distance 6.66 km</desc>
<time>2013-07-23T14:48:47.23</time>
<name>3342</name>
<sym>Dot</sym>
</trkpt>
<trkpt lat="48.893402" lon="20.054923">
<ele>1667.5</ele>
<desc>Speed 7.3 km/h Distance 6.66 km</desc>
<time>2013-07-23T14:48:48.22</time>
<name>3343</name>
<sym>Dot</sym>
</trkpt>
<trkpt lat="48.893417" lon="20.054920">
<ele>1667.5</ele>
<desc>Speed 5.5 km/h Distance 6.66 km</desc>
<time>2013-07-23T14:48:49.22</time>
<name>3344</name>
<sym>Dot</sym>
</trkpt>
<trkpt lat="48.893425" lon="20.054908">
<ele>1667.5</ele>
<desc>Speed 4.2 km/h Distance 6.66 km</desc>
<time>2013-07-23T14:48:50.22</time>
<name>3345</name>
<sym>Dot</sym>
</trkpt>
<trkpt lat="48.893467" lon="20.054868">
<ele>1663.5</ele>
<desc>Speed 4.0 km/h Distance 6.67 km</desc>
<time>2013-07-23T14:49:15.21</time>
<name>3346</name>
<sym>Dot</sym>
</trkpt>
<trkpt lat="48.893477" lon="20.054855">
<ele>1663.5</ele>
<desc>Speed 5.1 km/h Distance 6.67 km</desc>
<time>2013-07-23T14:49:16.20</time>
<name>3347</name>
<sym>Dot</sym>
</trkpt>
<trkpt lat="48.893488" lon="20.054843">
<ele>1663.5</ele>
<desc>Speed 5.7 km/h Distance 6.67 km</desc>
<time>2013-07-23T14:49:17.19</time>
<name>3348</name>
<sym>Dot</sym>
</trkpt>
<trkpt lat="48.893497" lon="20.054817">
<ele>1663.5</ele>
<desc>Speed 7.8 km/h Distance 6.67 km</desc>
<time>2013-07-23T14:49:18.23</time>
<name>3349</name>
<sym>Dot</sym>
</trkpt>
<trkpt lat="48.893508" lon="20.054785">
<ele>1664.0</ele>
<desc>Speed 9.2 km/h Distance 6.68 km</desc>
<time>2013-07-23T14:49:19.18</time>
<name>3350</name>
<sym>Dot</sym>
</trkpt>
<trkpt lat="48.893518" lon="20.054762">
<ele>1663.5</ele>
<desc>Speed 7.6 km/h Distance 6.68 km</desc>
<time>2013-07-23T14:49:20.82</time>
<name>3351</name>
<sym>Dot</sym>
</trkpt>
<trkpt lat="48.893528" lon="20.054738">
<ele>1664.0</ele>
<desc>Speed 6.8 km/h Distance 6.68 km</desc>
<time>2013-07-23T14:49:21.22</time>
<name>3352</name>
<sym>Dot</sym>
</trkpt>
<trkpt lat="48.893565" lon="20.054675">
<ele>1663.5</ele>
<desc>Speed 9.9 km/h Distance 6.69 km</desc>
<time>2013-07-23T14:49:23.22</time>
<name>3353</name>
<sym>Dot</sym>
</trkpt>
<trkpt lat="48.893587" lon="20.054660">
<ele>1663.5</ele>
<desc>Speed 9.0 km/h Distance 6.69 km</desc>
<time>2013-07-23T14:49:24.16</time>
<name>3354</name>
<sym>Dot</sym>
</trkpt>
<trkpt lat="48.893605" lon="20.054640">
<ele>1664.0</ele>
<desc>Speed 9.2 km/h Distance 6.69 km</desc>
<time>2013-07-23T14:49:25.15</time>
<name>3355</name>
<sym>Dot</sym>
</trkpt>
<trkpt lat="48.893623" lon="20.054598">
<ele>1664.0</ele>
<desc>Speed 11.6 km/h Distance 6.69 km</desc>
<time>2013-07-23T14:49:26.16</time>
<name>3356</name>
<sym>Dot</sym>
</trkpt>
<trkpt lat="48.893643" lon="20.054560">
<ele>1662.5</ele>
<desc>Speed 13.8 km/h Distance 6.70 km</desc>
<time>2013-07-23T14:49:27.16</time>
<name>3357</name>
<sym>Dot</sym>
</trkpt>
<trkpt lat="48.893662" lon="20.054525">
<ele>1662.0</ele>
<desc>Speed 11.7 km/h Distance 6.70 km</desc>
<time>2013-07-23T14:49:28.14</time>
<name>3358</name>
<sym>Dot</sym>
</trkpt>
<trkpt lat="48.893678" lon="20.054495">
<ele>1661.5</ele>
<desc>Speed 10.8 km/h Distance 6.70 km</desc>
<time>2013-07-23T14:49:29.14</time>
<name>3359</name>
<sym>Dot</sym>
</trkpt>
<trkpt lat="48.893695" lon="20.054472">
<ele>1661.0</ele>
<desc>Speed 9.1 km/h Distance 6.71 km</desc>
<time>2013-07-23T14:49:30.14</time>
<name>3360</name>
<sym>Dot</sym>
</trkpt>
<trkpt lat="48.893705" lon="20.054460">
<ele>1661.0</ele>
<desc>Speed 6.3 km/h Distance 6.71 km</desc>
<time>2013-07-23T14:49:31.13</time>
<name>3361</name>
<sym>Dot</sym>
</trkpt>
<trkpt lat="48.893722" lon="20.054465">
<ele>1662.0</ele>
<desc>Speed 5.7 km/h Distance 6.71 km</desc>
<time>2013-07-23T14:49:32.13</time>
<name>3362</name>
<sym>Dot</sym>
</trkpt>
<trkpt lat="48.893745" lon="20.054478">
<ele>1664.0</ele>
<desc>Speed 8.5 km/h Distance 6.71 km</desc>
<time>2013-07-23T14:49:33.35</time>
<name>3363</name>
<sym>Dot</sym>
</trkpt>
<trkpt lat="48.893762" lon="20.054478">
<ele>1663.5</ele>
<desc>Speed 5.9 km/h Distance 6.72 km</desc>
<time>2013-07-23T14:49:34.11</time>
<name>3364</name>
<sym>Dot</sym>
</trkpt>
<trkpt lat="48.893772" lon="20.054470">
<ele>1663.0</ele>
<desc>Speed 4.0 km/h Distance 6.72 km</desc>
<time>2013-07-23T14:49:35.10</time>
<name>3365</name>
<sym>Dot</sym>
</trkpt>
<trkpt lat="48.893783" lon="20.054467">
<ele>1663.0</ele>
<desc>Speed 4.3 km/h Distance 6.72 km</desc>
<time>2013-07-23T14:49:36.10</time>
<name>3366</name>
<sym>Dot</sym>
</trkpt>
<trkpt lat="48.893793" lon="20.054465">
<ele>1662.5</ele>
<desc>Speed 3.7 km/h Distance 6.72 km</desc>
<time>2013-07-23T14:49:37.09</time>
<name>3367</name>
<sym>Dot</sym>
</trkpt>
<trkpt lat="48.893800" lon="20.054447">
<ele>1662.0</ele>
<desc>Speed 4.5 km/h Distance 6.72 km</desc>
<time>2013-07-23T14:49:38.09</time>
<name>3368</name>
<sym>Dot</sym>
</trkpt>
<trkpt lat="48.893803" lon="20.054418">
<ele>1660.5</ele>
<desc>Speed 5.5 km/h Distance 6.72 km</desc>
<time>2013-07-23T14:49:39.13</time>
<name>3369</name>
<sym>Dot</sym>
</trkpt>
<trkpt lat="48.893802" lon="20.054388">
<ele>1658.5</ele>
<desc>Speed 6.1 km/h Distance 6.72 km</desc>
<time>2013-07-23T14:49:40.08</time>
<name>3370</name>
<sym>Dot</sym>
</trkpt>
<trkpt lat="48.893797" lon="20.054355">
<ele>1656.5</ele>
<desc>Speed 7.1 km/h Distance 6.73 km</desc>
<time>2013-07-23T14:49:41.07</time>
<name>3371</name>
<sym>Dot</sym>
</trkpt>
<trkpt lat="48.893802" lon="20.054335">
<ele>1656.0</ele>
<desc>Speed 4.8 km/h Distance 6.73 km</desc>
<time>2013-07-23T14:49:42.07</time>
<name>3372</name>
<sym>Dot</sym>
</trkpt>
<trkpt lat="48.893807" lon="20.054325">
<ele>1656.0</ele>
<desc>Speed 3.0 km/h Distance 6.73 km</desc>
<time>2013-07-23T14:49:43.06</time>
<name>3373</name>
<sym>Dot</sym>
</trkpt>
<trkpt lat="48.893817" lon="20.054305">
<ele>1654.5</ele>
<desc>Speed 4.6 km/h Distance 6.73 km</desc>
<time>2013-07-23T14:49:44.06</time>
<name>3374</name>
<sym>Dot</sym>
</trkpt>
<trkpt lat="48.893825" lon="20.054283">
<ele>1653.5</ele>
<desc>Speed 4.9 km/h Distance 6.73 km</desc>
<time>2013-07-23T14:49:45.05</time>
<name>3375</name>
<sym>Dot</sym>
</trkpt>
<trkpt lat="48.893840" lon="20.054267">
<ele>1653.0</ele>
<desc>Speed 6.6 km/h Distance 6.74 km</desc>
<time>2013-07-23T14:49:46.16</time>
<name>3376</name>
<sym>Dot</sym>
</trkpt>
<trkpt lat="48.893853" lon="20.054255">
<ele>1652.5</ele>
<desc>Speed 5.9 km/h Distance 6.74 km</desc>
<time>2013-07-23T14:49:47.05</time>
<name>3377</name>
<sym>Dot</sym>
</trkpt>
<trkpt lat="48.893863" lon="20.054240">
<ele>1651.0</ele>
<desc>Speed 4.5 km/h Distance 6.74 km</desc>
<time>2013-07-23T14:49:48.04</time>
<name>3378</name>
<sym>Dot</sym>
</trkpt>
<trkpt lat="48.893880" lon="20.054237">
<ele>1651.0</ele>
<desc>Speed 6.8 km/h Distance 6.74 km</desc>
<time>2013-07-23T14:49:49.03</time>
<name>3379</name>
<sym>Dot</sym>
</trkpt>
<trkpt lat="48.893893" lon="20.054222">
<ele>1650.5</ele>
<desc>Speed 5.7 km/h Distance 6.74 km</desc>
<time>2013-07-23T14:49:50.02</time>
<name>3380</name>
<sym>Dot</sym>
</trkpt>
<trkpt lat="48.893912" lon="20.054210">
<ele>1650.0</ele>
<desc>Speed 7.3 km/h Distance 6.74 km</desc>
<time>2013-07-23T14:49:51.02</time>
<name>3381</name>
<sym>Dot</sym>
</trkpt>
<trkpt lat="48.893923" lon="20.054205">
<ele>1649.0</ele>
<desc>Speed 5.0 km/h Distance 6.75 km</desc>
<time>2013-07-23T14:49:52.08</time>
<name>3382</name>
<sym>Dot</sym>
</trkpt>
<trkpt lat="48.893940" lon="20.054193">
<ele>1648.0</ele>
<desc>Speed 7.6 km/h Distance 6.75 km</desc>
<time>2013-07-23T14:49:54.01</time>
<name>3383</name>
<sym>Dot</sym>
</trkpt>
<trkpt lat="48.893952" lon="20.054195">
<ele>1648.0</ele>
<desc>Speed 4.9 km/h Distance 6.75 km</desc>
<time>2013-07-23T14:49:55.02</time>
<name>3384</name>
<sym>Dot</sym>
</trkpt>
<trkpt lat="48.893960" lon="20.054200">
<ele>1648.0</ele>
<desc>Speed 3.9 km/h Distance 6.75 km</desc>
<time>2013-07-23T14:49:56.00</time>
<name>3385</name>
<sym>Dot</sym>
</trkpt>
<trkpt lat="48.893970" lon="20.054205">
<ele>1648.0</ele>
<desc>Speed 3.3 km/h Distance 6.75 km</desc>
<time>2013-07-23T14:49:58.00</time>
<name>3386</name>
<sym>Dot</sym>
</trkpt>
<trkpt lat="48.893978" lon="20.054202">
<ele>1648.0</ele>
<desc>Speed 4.0 km/h Distance 6.75 km</desc>
<time>2013-07-23T14:49:59.02</time>
<name>3387</name>
<sym>Dot</sym>
</trkpt>
<trkpt lat="48.893992" lon="20.054202">
<ele>1648.0</ele>
<desc>Speed 5.1 km/h Distance 6.75 km</desc>
<time>2013-07-23T14:50:00.00</time>
<name>3388</name>
<sym>Dot</sym>
</trkpt>
<trkpt lat="48.894002" lon="20.054193">
<ele>1647.5</ele>
<desc>Speed 4.5 km/h Distance 6.76 km</desc>
<time>2013-07-23T14:50:01.00</time>
<name>3389</name>
<sym>Dot</sym>
</trkpt>
<trkpt lat="48.894010" lon="20.054188">
<ele>1647.0</ele>
<desc>Speed 4.5 km/h Distance 6.76 km</desc>
<time>2013-07-23T14:50:01.99</time>
<name>3390</name>
<sym>Dot</sym>
</trkpt>
<trkpt lat="48.894018" lon="20.054200">
<ele>1648.5</ele>
<desc>Speed 4.4 km/h Distance 6.76 km</desc>
<time>2013-07-23T14:50:02.99</time>
<name>3391</name>
<sym>Dot</sym>
</trkpt>
<trkpt lat="48.894012" lon="20.054195">
<ele>1649.0</ele>
<desc>Speed 3.1 km/h Distance 6.76 km</desc>
<time>2013-07-23T14:50:03.98</time>
<name>3392</name>
<sym>Dot</sym>
</trkpt>
<trkpt lat="48.894022" lon="20.054180">
<ele>1649.0</ele>
<desc>Speed 2.4 km/h Distance 6.76 km</desc>
<time>2013-07-23T14:50:06.11</time>
<name>3393</name>
<sym>Dot</sym>
</trkpt>
<trkpt lat="48.894033" lon="20.054170">
<ele>1649.5</ele>
<desc>Speed 4.8 km/h Distance 6.76 km</desc>
<time>2013-07-23T14:50:07.03</time>
<name>3394</name>
<sym>Dot</sym>
</trkpt>
<trkpt lat="48.894047" lon="20.054163">
<ele>1649.5</ele>
<desc>Speed 5.2 km/h Distance 6.76 km</desc>
<time>2013-07-23T14:50:07.96</time>
<name>3395</name>
<sym>Dot</sym>
</trkpt>
<trkpt lat="48.894057" lon="20.054163">
<ele>1650.0</ele>
<desc>Speed 2.2 km/h Distance 6.76 km</desc>
<time>2013-07-23T14:50:09.02</time>
<name>3396</name>
<sym>Dot</sym>
</trkpt>
<trkpt lat="48.894072" lon="20.054160">
<ele>1650.0</ele>
<desc>Speed 5.5 km/h Distance 6.77 km</desc>
<time>2013-07-23T14:50:09.95</time>
<name>3397</name>
<sym>Dot</sym>
</trkpt>
<trkpt lat="48.894078" lon="20.054155">
<ele>1650.0</ele>
<desc>Speed 2.7 km/h Distance 6.77 km</desc>
<time>2013-07-23T14:50:10.95</time>
<name>3398</name>
<sym>Dot</sym>
</trkpt>
<trkpt lat="48.894088" lon="20.054152">
<ele>1650.0</ele>
<desc>Speed 3.7 km/h Distance 6.77 km</desc>
<time>2013-07-23T14:50:11.98</time>
<name>3399</name>
<sym>Dot</sym>
</trkpt>
<trkpt lat="48.894105" lon="20.054123">
<ele>1648.5</ele>
<desc>Speed 3.7 km/h Distance 6.77 km</desc>
<time>2013-07-23T14:50:14.94</time>
<name>3400</name>
<sym>Dot</sym>
</trkpt>
<trkpt lat="48.894115" lon="20.054110">
<ele>1647.0</ele>
<desc>Speed 3.3 km/h Distance 6.77 km</desc>
<time>2013-07-23T14:50:15.94</time>
<name>3401</name>
<sym>Dot</sym>
</trkpt>
<trkpt lat="48.894132" lon="20.054107">
<ele>1646.0</ele>
<desc>Speed 4.6 km/h Distance 6.77 km</desc>
<time>2013-07-23T14:50:16.97</time>
<name>3402</name>
<sym>Dot</sym>
</trkpt>
<trkpt lat="48.894142" lon="20.054107">
<ele>1644.5</ele>
<desc>Speed 2.4 km/h Distance 6.77 km</desc>
<time>2013-07-23T14:50:17.94</time>
<name>3403</name>
<sym>Dot</sym>
</trkpt>
<trkpt lat="48.894153" lon="20.054110">
<ele>1644.5</ele>
<desc>Speed 2.3 km/h Distance 6.78 km</desc>
<time>2013-07-23T14:50:18.94</time>
<name>3404</name>
<sym>Dot</sym>
</trkpt>
<trkpt lat="48.894165" lon="20.054110">
<ele>1644.0</ele>
<desc>Speed 3.7 km/h Distance 6.78 km</desc>
<time>2013-07-23T14:50:19.93</time>
<name>3405</name>
<sym>Dot</sym>
</trkpt>
<trkpt lat="48.894173" lon="20.054107">
<ele>1643.0</ele>
<desc>Speed 3.9 km/h Distance 6.78 km</desc>
<time>2013-07-23T14:50:20.93</time>
<name>3406</name>
<sym>Dot</sym>
</trkpt>
<trkpt lat="48.894188" lon="20.054075">
<ele>1641.5</ele>
<desc>Speed 2.3 km/h Distance 6.78 km</desc>
<time>2013-07-23T14:50:29.07</time>
<name>3407</name>
<sym>Dot</sym>
</trkpt>
<trkpt lat="48.894193" lon="20.054070">
<ele>1641.5</ele>
<desc>Speed 2.4 km/h Distance 6.78 km</desc>
<time>2013-07-23T14:50:30.01</time>
<name>3408</name>
<sym>Dot</sym>
</trkpt>
<trkpt lat="48.894198" lon="20.054060">
<ele>1641.0</ele>
<desc>Speed 3.1 km/h Distance 6.78 km</desc>
<time>2013-07-23T14:50:30.91</time>
<name>3409</name>
<sym>Dot</sym>
</trkpt>
<trkpt lat="48.894213" lon="20.053993">
<ele>1634.0</ele>
<desc>Speed 2.8 km/h Distance 6.79 km</desc>
<time>2013-07-23T14:50:40.91</time>
<name>3410</name>
<sym>Dot</sym>
</trkpt>
<trkpt lat="48.894217" lon="20.053982">
<ele>1633.5</ele>
<desc>Speed 2.9 km/h Distance 6.79 km</desc>
<time>2013-07-23T14:50:41.91</time>
<name>3411</name>
<sym>Dot</sym>
</trkpt>
<trkpt lat="48.894223" lon="20.053973">
<ele>1633.0</ele>
<desc>Speed 2.7 km/h Distance 6.79 km</desc>
<time>2013-07-23T14:50:42.99</time>
<name>3412</name>
<sym>Dot</sym>
</trkpt>
<trkpt lat="48.894228" lon="20.053965">
<ele>1632.5</ele>
<desc>Speed 2.5 km/h Distance 6.79 km</desc>
<time>2013-07-23T14:50:43.90</time>
<name>3413</name>
<sym>Dot</sym>
</trkpt>
<trkpt lat="48.894232" lon="20.053950">
<ele>1632.0</ele>
<desc>Speed 3.1 km/h Distance 6.79 km</desc>
<time>2013-07-23T14:50:44.90</time>
<name>3414</name>
<sym>Dot</sym>
</trkpt>
<trkpt lat="48.894237" lon="20.053937">
<ele>1631.5</ele>
<desc>Speed 2.9 km/h Distance 6.79 km</desc>
<time>2013-07-23T14:50:45.90</time>
<name>3415</name>
<sym>Dot</sym>
</trkpt>
<trkpt lat="48.894243" lon="20.053928">
<ele>1632.0</ele>
<desc>Speed 3.3 km/h Distance 6.79 km</desc>
<time>2013-07-23T14:50:46.90</time>
<name>3416</name>
<sym>Dot</sym>
</trkpt>
<trkpt lat="48.894247" lon="20.053920">
<ele>1631.5</ele>
<desc>Speed 2.2 km/h Distance 6.79 km</desc>
<time>2013-07-23T14:50:47.92</time>
<name>3417</name>
<sym>Dot</sym>
</trkpt>
<trkpt lat="48.894265" lon="20.053902">
<ele>1631.0</ele>
<desc>Speed 2.6 km/h Distance 6.80 km</desc>
<time>2013-07-23T14:50:50.88</time>
<name>3418</name>
<sym>Dot</sym>
</trkpt>
<trkpt lat="48.894272" lon="20.053898">
<ele>1630.5</ele>
<desc>Speed 2.5 km/h Distance 6.80 km</desc>
<time>2013-07-23T14:50:51.94</time>
<name>3419</name>
<sym>Dot</sym>
</trkpt>
<trkpt lat="48.894288" lon="20.053888">
<ele>1629.5</ele>
<desc>Speed 2.4 km/h Distance 6.80 km</desc>
<time>2013-07-23T14:50:54.88</time>
<name>3420</name>
<sym>Dot</sym>
</trkpt>
<trkpt lat="48.894295" lon="20.053887">
<ele>1630.0</ele>
<desc>Speed 2.4 km/h Distance 6.80 km</desc>
<time>2013-07-23T14:50:55.93</time>
<name>3421</name>
<sym>Dot</sym>
</trkpt>
<trkpt lat="48.894313" lon="20.053880">
<ele>1629.0</ele>
<desc>Speed 2.6 km/h Distance 6.80 km</desc>
<time>2013-07-23T14:50:58.87</time>
<name>3422</name>
<sym>Dot</sym>
</trkpt>
<trkpt lat="48.894325" lon="20.053873">
<ele>1628.0</ele>
<desc>Speed 2.6 km/h Distance 6.80 km</desc>
<time>2013-07-23T14:51:00.87</time>
<name>3423</name>
<sym>Dot</sym>
</trkpt>
<trkpt lat="48.894332" lon="20.053868">
<ele>1628.0</ele>
<desc>Speed 2.9 km/h Distance 6.81 km</desc>
<time>2013-07-23T14:51:02.00</time>
<name>3424</name>
<sym>Dot</sym>
</trkpt>
<trkpt lat="48.894340" lon="20.053863">
<ele>1628.5</ele>
<desc>Speed 3.2 km/h Distance 6.81 km</desc>
<time>2013-07-23T14:51:02.86</time>
<name>3425</name>
<sym>Dot</sym>
</trkpt>
<trkpt lat="48.894348" lon="20.053862">
<ele>1628.5</ele>
<desc>Speed 2.9 km/h Distance 6.81 km</desc>
<time>2013-07-23T14:51:03.86</time>
<name>3426</name>
<sym>Dot</sym>
</trkpt>
<trkpt lat="48.894355" lon="20.053860">
<ele>1628.5</ele>
<desc>Speed 2.6 km/h Distance 6.81 km</desc>
<time>2013-07-23T14:51:04.94</time>
<name>3427</name>
<sym>Dot</sym>
</trkpt>
<trkpt lat="48.894368" lon="20.053808">
<ele>1623.5</ele>
<desc>Speed 4.1 km/h Distance 6.81 km</desc>
<time>2013-07-23T14:51:43.84</time>
<name>3428</name>
<sym>Dot</sym>
</trkpt>
<trkpt lat="48.894380" lon="20.053782">
<ele>1621.5</ele>
<desc>Speed 3.6 km/h Distance 6.81 km</desc>
<time>2013-07-23T14:51:57.83</time>
<name>3429</name>
<sym>Dot</sym>
</trkpt>
<trkpt lat="48.894383" lon="20.053770">
<ele>1621.0</ele>
<desc>Speed 2.9 km/h Distance 6.82 km</desc>
<time>2013-07-23T14:51:59.00</time>
<name>3430</name>
<sym>Dot</sym>
</trkpt>
<trkpt lat="48.894387" lon="20.053762">
<ele>1620.5</ele>
<desc>Speed 2.2 km/h Distance 6.82 km</desc>
<time>2013-07-23T14:51:59.82</time>
<name>3431</name>
<sym>Dot</sym>
</trkpt>
<trkpt lat="48.894418" lon="20.053748">
<ele>1618.5</ele>
<desc>Speed 2.7 km/h Distance 6.82 km</desc>
<time>2013-07-23T14:52:06.82</time>
<name>3432</name>
<sym>Dot</sym>
</trkpt>
<trkpt lat="48.894438" lon="20.053733">
<ele>1617.5</ele>
<desc>Speed 2.4 km/h Distance 6.82 km</desc>
<time>2013-07-23T14:52:11.81</time>
<name>3433</name>
<sym>Dot</sym>
</trkpt>
<trkpt lat="48.894447" lon="20.053730">
<ele>1618.0</ele>
<desc>Speed 2.4 km/h Distance 6.82 km</desc>
<time>2013-07-23T14:52:12.81</time>
<name>3434</name>
<sym>Dot</sym>
</trkpt>
<trkpt lat="48.894457" lon="20.053718">
<ele>1617.5</ele>
<desc>Speed 4.1 km/h Distance 6.82 km</desc>
<time>2013-07-23T14:52:14.80</time>
<name>3435</name>
<sym>Dot</sym>
</trkpt>
<trkpt lat="48.894465" lon="20.053708">
<ele>1616.5</ele>
<desc>Speed 2.7 km/h Distance 6.83 km</desc>
<time>2013-07-23T14:52:16.80</time>
<name>3436</name>
<sym>Dot</sym>
</trkpt>
<trkpt lat="48.894477" lon="20.053688">
<ele>1616.0</ele>
<desc>Speed 2.2 km/h Distance 6.83 km</desc>
<time>2013-07-23T14:52:19.79</time>
<name>3437</name>
<sym>Dot</sym>
</trkpt>
<trkpt lat="48.894507" lon="20.053662">
<ele>1615.5</ele>
<desc>Speed 3.2 km/h Distance 6.83 km</desc>
<time>2013-07-23T14:52:23.79</time>
<name>3438</name>
<sym>Dot</sym>
</trkpt>
<trkpt lat="48.894510" lon="20.053642">
<ele>1615.5</ele>
<desc>Speed 3.3 km/h Distance 6.83 km</desc>
<time>2013-07-23T14:52:25.79</time>
<name>3439</name>
<sym>Dot</sym>
</trkpt>
<trkpt lat="48.894513" lon="20.053618">
<ele>1615.0</ele>
<desc>Speed 4.0 km/h Distance 6.83 km</desc>
<time>2013-07-23T14:52:27.78</time>
<name>3440</name>
<sym>Dot</sym>
</trkpt>
<trkpt lat="48.894522" lon="20.053612">
<ele>1614.5</ele>
<desc>Speed 2.2 km/h Distance 6.84 km</desc>
<time>2013-07-23T14:52:28.78</time>
<name>3441</name>
<sym>Dot</sym>
</trkpt>
<trkpt lat="48.894530" lon="20.053600">
<ele>1614.5</ele>
<desc>Speed 2.7 km/h Distance 6.84 km</desc>
<time>2013-07-23T14:52:29.78</time>
<name>3442</name>
<sym>Dot</sym>
</trkpt>
<trkpt lat="48.894537" lon="20.053595">
<ele>1614.0</ele>
<desc>Speed 2.7 km/h Distance 6.84 km</desc>
<time>2013-07-23T14:52:30.77</time>
<name>3443</name>
<sym>Dot</sym>
</trkpt>
<trkpt lat="48.894540" lon="20.053587">
<ele>1614.5</ele>
<desc>Speed 2.7 km/h Distance 6.84 km</desc>
<time>2013-07-23T14:52:31.77</time>
<name>3444</name>
<sym>Dot</sym>
</trkpt>
<trkpt lat="48.894542" lon="20.053577">
<ele>1615.0</ele>
<desc>Speed 2.5 km/h Distance 6.84 km</desc>
<time>2013-07-23T14:52:32.76</time>
<name>3445</name>
<sym>Dot</sym>
</trkpt>
<trkpt lat="48.894548" lon="20.053570">
<ele>1615.0</ele>
<desc>Speed 2.7 km/h Distance 6.84 km</desc>
<time>2013-07-23T14:52:33.75</time>
<name>3446</name>
<sym>Dot</sym>
</trkpt>
<trkpt lat="48.894563" lon="20.053558">
<ele>1616.0</ele>
<desc>Speed 2.4 km/h Distance 6.84 km</desc>
<time>2013-07-23T14:52:35.75</time>
<name>3447</name>
<sym>Dot</sym>
</trkpt>
<trkpt lat="48.894568" lon="20.053552">
<ele>1615.5</ele>
<desc>Speed 2.2 km/h Distance 6.84 km</desc>
<time>2013-07-23T14:52:36.75</time>
<name>3448</name>
<sym>Dot</sym>
</trkpt>
<trkpt lat="48.894573" lon="20.053543">
<ele>1615.5</ele>
<desc>Speed 2.2 km/h Distance 6.84 km</desc>
<time>2013-07-23T14:52:37.78</time>
<name>3449</name>
<sym>Dot</sym>
</trkpt>
<trkpt lat="48.894582" lon="20.053545">
<ele>1615.0</ele>
<desc>Speed 2.4 km/h Distance 6.84 km</desc>
<time>2013-07-23T14:52:38.74</time>
<name>3450</name>
<sym>Dot</sym>
</trkpt>
<trkpt lat="48.894578" lon="20.053558">
<ele>1616.5</ele>
<desc>Speed 4.2 km/h Distance 6.85 km</desc>
<time>2013-07-23T14:52:40.74</time>
<name>3451</name>
<sym>Dot</sym>
</trkpt>
<trkpt lat="48.894580" lon="20.053565">
<ele>1616.5</ele>
<desc>Speed 2.2 km/h Distance 6.85 km</desc>
<time>2013-07-23T14:52:47.74</time>
<name>3452</name>
<sym>Dot</sym>
</trkpt>
<trkpt lat="48.894580" lon="20.053540">
<ele>1616.0</ele>
<desc>Speed 5.4 km/h Distance 6.85 km</desc>
<time>2013-07-23T14:52:48.74</time>
<name>3453</name>
<sym>Dot</sym>
</trkpt>
<trkpt lat="48.894597" lon="20.053548">
<ele>1616.0</ele>
<desc>Speed 6.6 km/h Distance 6.85 km</desc>
<time>2013-07-23T14:52:49.74</time>
<name>3454</name>
<sym>Dot</sym>
</trkpt>
<trkpt lat="48.894610" lon="20.053555">
<ele>1615.5</ele>
<desc>Speed 5.9 km/h Distance 6.85 km</desc>
<time>2013-07-23T14:52:50.73</time>
<name>3455</name>
<sym>Dot</sym>
</trkpt>
<trkpt lat="48.894622" lon="20.053563">
<ele>1614.5</ele>
<desc>Speed 4.8 km/h Distance 6.85 km</desc>
<time>2013-07-23T14:52:51.72</time>
<name>3456</name>
<sym>Dot</sym>
</trkpt>
<trkpt lat="48.894638" lon="20.053572">
<ele>1614.5</ele>
<desc>Speed 6.6 km/h Distance 6.85 km</desc>
<time>2013-07-23T14:52:52.72</time>
<name>3457</name>
<sym>Dot</sym>
</trkpt>
<trkpt lat="48.894648" lon="20.053582">
<ele>1614.0</ele>
<desc>Speed 4.3 km/h Distance 6.86 km</desc>
<time>2013-07-23T14:52:53.71</time>
<name>3458</name>
<sym>Dot</sym>
</trkpt>
<trkpt lat="48.894657" lon="20.053587">
<ele>1614.0</ele>
<desc>Speed 2.8 km/h Distance 6.86 km</desc>
<time>2013-07-23T14:52:54.71</time>
<name>3459</name>
<sym>Dot</sym>
</trkpt>
<trkpt lat="48.894672" lon="20.053590">
<ele>1614.0</ele>
<desc>Speed 4.9 km/h Distance 6.86 km</desc>
<time>2013-07-23T14:52:55.71</time>
<name>3460</name>
<sym>Dot</sym>
</trkpt>
<trkpt lat="48.894678" lon="20.053603">
<ele>1614.5</ele>
<desc>Speed 3.4 km/h Distance 6.86 km</desc>
<time>2013-07-23T14:52:56.70</time>
<name>3461</name>
<sym>Dot</sym>
</trkpt>
<trkpt lat="48.894683" lon="20.053612">
<ele>1614.5</ele>
<desc>Speed 2.4 km/h Distance 6.86 km</desc>
<time>2013-07-23T14:52:57.73</time>
<name>3462</name>
<sym>Dot</sym>
</trkpt>
<trkpt lat="48.894702" lon="20.053617">
<ele>1614.0</ele>
<desc>Speed 2.3 km/h Distance 6.86 km</desc>
<time>2013-07-23T14:53:01.70</time>
<name>3463</name>
<sym>Dot</sym>
</trkpt>
<trkpt lat="48.894708" lon="20.053618">
<ele>1613.0</ele>
<desc>Speed 2.6 km/h Distance 6.86 km</desc>
<time>2013-07-23T14:53:02.69</time>
<name>3464</name>
<sym>Dot</sym>
</trkpt>
<trkpt lat="48.894710" lon="20.053628">
<ele>1613.5</ele>
<desc>Speed 2.8 km/h Distance 6.86 km</desc>
<time>2013-07-23T14:53:03.68</time>
<name>3465</name>
<sym>Dot</sym>
</trkpt>
<trkpt lat="48.894715" lon="20.053608">
<ele>1611.0</ele>
<desc>Speed 2.4 km/h Distance 6.87 km</desc>
<time>2013-07-23T14:53:06.67</time>
<name>3466</name>
<sym>Dot</sym>
</trkpt>
<trkpt lat="48.894723" lon="20.053603">
<ele>1610.5</ele>
<desc>Speed 2.6 km/h Distance 6.87 km</desc>
<time>2013-07-23T14:53:07.66</time>
<name>3467</name>
<sym>Dot</sym>
</trkpt>
<trkpt lat="48.894732" lon="20.053592">
<ele>1610.0</ele>
<desc>Speed 3.1 km/h Distance 6.87 km</desc>
<time>2013-07-23T14:53:10.66</time>
<name>3468</name>
<sym>Dot</sym>
</trkpt>
<trkpt lat="48.894737" lon="20.053583">
<ele>1610.0</ele>
<desc>Speed 2.2 km/h Distance 6.87 km</desc>
<time>2013-07-23T14:53:11.66</time>
<name>3469</name>
<sym>Dot</sym>
</trkpt>
<trkpt lat="48.894745" lon="20.053578">
<ele>1610.0</ele>
<desc>Speed 2.6 km/h Distance 6.87 km</desc>
<time>2013-07-23T14:53:12.66</time>
<name>3470</name>
<sym>Dot</sym>
</trkpt>
<trkpt lat="48.894752" lon="20.053590">
<ele>1609.5</ele>
<desc>Speed 3.5 km/h Distance 6.87 km</desc>
<time>2013-07-23T14:53:15.65</time>
<name>3471</name>
<sym>Dot</sym>
</trkpt>
<trkpt lat="48.894758" lon="20.053593">
<ele>1609.0</ele>
<desc>Speed 2.2 km/h Distance 6.87 km</desc>
<time>2013-07-23T14:53:16.66</time>
<name>3472</name>
<sym>Dot</sym>
</trkpt>
<trkpt lat="48.894780" lon="20.053585">
<ele>1605.0</ele>
<desc>Speed 3.3 km/h Distance 6.87 km</desc>
<time>2013-07-23T14:53:21.64</time>
<name>3473</name>
<sym>Dot</sym>
</trkpt>
<trkpt lat="48.894787" lon="20.053580">
<ele>1604.0</ele>
<desc>Speed 2.3 km/h Distance 6.88 km</desc>
<time>2013-07-23T14:53:22.64</time>
<name>3474</name>
<sym>Dot</sym>
</trkpt>
<trkpt lat="48.894798" lon="20.053578">
<ele>1603.0</ele>
<desc>Speed 3.2 km/h Distance 6.88 km</desc>
<time>2013-07-23T14:53:24.64</time>
<name>3475</name>
<sym>Dot</sym>
</trkpt>
<trkpt lat="48.894808" lon="20.053577">
<ele>1602.0</ele>
<desc>Speed 3.6 km/h Distance 6.88 km</desc>
<time>2013-07-23T14:53:25.64</time>
<name>3476</name>
<sym>Dot</sym>
</trkpt>
<trkpt lat="48.894817" lon="20.053578">
<ele>1602.0</ele>
<desc>Speed 3.3 km/h Distance 6.88 km</desc>
<time>2013-07-23T14:53:26.63</time>
<name>3477</name>
<sym>Dot</sym>
</trkpt>
<trkpt lat="48.894828" lon="20.053582">
<ele>1602.0</ele>
<desc>Speed 3.7 km/h Distance 6.88 km</desc>
<time>2013-07-23T14:53:27.63</time>
<name>3478</name>
<sym>Dot</sym>
</trkpt>
<trkpt lat="48.894838" lon="20.053585">
<ele>1602.0</ele>
<desc>Speed 3.6 km/h Distance 6.88 km</desc>
<time>2013-07-23T14:53:28.62</time>
<name>3479</name>
<sym>Dot</sym>
</trkpt>
<trkpt lat="48.894848" lon="20.053583">
<ele>1602.0</ele>
<desc>Speed 3.4 km/h Distance 6.88 km</desc>
<time>2013-07-23T14:53:29.62</time>
<name>3480</name>
<sym>Dot</sym>
</trkpt>
<trkpt lat="48.894862" lon="20.053582">
<ele>1602.0</ele>
<desc>Speed 4.9 km/h Distance 6.88 km</desc>
<time>2013-07-23T14:53:30.61</time>
<name>3481</name>
<sym>Dot</sym>
</trkpt>
<trkpt lat="48.894870" lon="20.053578">
<ele>1601.5</ele>
<desc>Speed 3.6 km/h Distance 6.88 km</desc>
<time>2013-07-23T14:53:31.61</time>
<name>3482</name>
<sym>Dot</sym>
</trkpt>
<trkpt lat="48.894877" lon="20.053577">
<ele>1601.0</ele>
<desc>Speed 3.0 km/h Distance 6.89 km</desc>
<time>2013-07-23T14:53:32.60</time>
<name>3483</name>
<sym>Dot</sym>
</trkpt>
<trkpt lat="48.894882" lon="20.053575">
<ele>1600.5</ele>
<desc>Speed 2.4 km/h Distance 6.89 km</desc>
<time>2013-07-23T14:53:33.61</time>
<name>3484</name>
<sym>Dot</sym>
</trkpt>
<trkpt lat="48.894892" lon="20.053577">
<ele>1600.5</ele>
<desc>Speed 3.9 km/h Distance 6.89 km</desc>
<time>2013-07-23T14:53:34.62</time>
<name>3485</name>
<sym>Dot</sym>
</trkpt>
<trkpt lat="48.894900" lon="20.053578">
<ele>1600.5</ele>
<desc>Speed 3.1 km/h Distance 6.89 km</desc>
<time>2013-07-23T14:53:35.59</time>
<name>3486</name>
<sym>Dot</sym>
</trkpt>
<trkpt lat="48.894917" lon="20.053578">
<ele>1601.5</ele>
<desc>Speed 3.3 km/h Distance 6.89 km</desc>
<time>2013-07-23T14:53:39.58</time>
<name>3487</name>
<sym>Dot</sym>
</trkpt>
<trkpt lat="48.894920" lon="20.053558">
<ele>1600.5</ele>
<desc>Speed 3.6 km/h Distance 6.89 km</desc>
<time>2013-07-23T14:53:41.58</time>
<name>3488</name>
<sym>Dot</sym>
</trkpt>
<trkpt lat="48.894930" lon="20.053555">
<ele>1599.5</ele>
<desc>Speed 2.7 km/h Distance 6.89 km</desc>
<time>2013-07-23T14:53:42.58</time>
<name>3489</name>
<sym>Dot</sym>
</trkpt>
<trkpt lat="48.894952" lon="20.053548">
<ele>1600.0</ele>
<desc>Speed 3.1 km/h Distance 6.90 km</desc>
<time>2013-07-23T14:53:45.57</time>
<name>3490</name>
<sym>Dot</sym>
</trkpt>
<trkpt lat="48.894970" lon="20.053562">
<ele>1600.0</ele>
<desc>Speed 2.3 km/h Distance 6.90 km</desc>
<time>2013-07-23T14:53:48.56</time>
<name>3491</name>
<sym>Dot</sym>
</trkpt>
<trkpt lat="48.894980" lon="20.053567">
<ele>1600.5</ele>
<desc>Speed 4.0 km/h Distance 6.90 km</desc>
<time>2013-07-23T14:53:49.56</time>
<name>3492</name>
<sym>Dot</sym>
</trkpt>
<trkpt lat="48.894987" lon="20.053570">
<ele>1600.5</ele>
<desc>Speed 2.2 km/h Distance 6.90 km</desc>
<time>2013-07-23T14:53:50.55</time>
<name>3493</name>
<sym>Dot</sym>
</trkpt>
<trkpt lat="48.894995" lon="20.053575">
<ele>1600.5</ele>
<desc>Speed 3.3 km/h Distance 6.90 km</desc>
<time>2013-07-23T14:53:51.55</time>
<name>3494</name>
<sym>Dot</sym>
</trkpt>
<trkpt lat="48.895007" lon="20.053593">
<ele>1600.5</ele>
<desc>Speed 3.3 km/h Distance 6.90 km</desc>
<time>2013-07-23T14:53:53.55</time>
<name>3495</name>
<sym>Dot</sym>
</trkpt>
<trkpt lat="48.895013" lon="20.053598">
<ele>1600.5</ele>
<desc>Speed 2.4 km/h Distance 6.90 km</desc>
<time>2013-07-23T14:53:54.55</time>
<name>3496</name>
<sym>Dot</sym>
</trkpt>
<trkpt lat="48.895005" lon="20.053603">
<ele>1600.0</ele>
<desc>Speed 4.8 km/h Distance 6.90 km</desc>
<time>2013-07-23T14:53:55.55</time>
<name>3497</name>
<sym>Dot</sym>
</trkpt>
<trkpt lat="48.895023" lon="20.053587">
<ele>1599.0</ele>
<desc>Speed 2.2 km/h Distance 6.91 km</desc>
<time>2013-07-23T14:53:59.55</time>
<name>3498</name>
<sym>Dot</sym>
</trkpt>
<trkpt lat="48.895033" lon="20.053582">
<ele>1599.0</ele>
<desc>Speed 3.0 km/h Distance 6.91 km</desc>
<time>2013-07-23T14:54:00.54</time>
<name>3499</name>
<sym>Dot</sym>
</trkpt>
<trkpt lat="48.895058" lon="20.053595">
<ele>1599.0</ele>
<desc>Speed 2.5 km/h Distance 6.91 km</desc>
<time>2013-07-23T14:54:05.54</time>
<name>3500</name>
<sym>Dot</sym>
</trkpt>
<trkpt lat="48.895090" lon="20.053612">
<ele>1599.0</ele>
<desc>Speed 5.5 km/h Distance 6.91 km</desc>
<time>2013-07-23T14:54:09.54</time>
<name>3501</name>
<sym>Dot</sym>
</trkpt>
<trkpt lat="48.895110" lon="20.053627">
<ele>1599.0</ele>
<desc>Speed 8.2 km/h Distance 6.92 km</desc>
<time>2013-07-23T14:54:12.54</time>
<name>3502</name>
<sym>Dot</sym>
</trkpt>
<trkpt lat="48.895115" lon="20.053625">
<ele>1598.5</ele>
<desc>Speed 2.4 km/h Distance 6.92 km</desc>
<time>2013-07-23T14:54:13.53</time>
<name>3503</name>
<sym>Dot</sym>
</trkpt>
<trkpt lat="48.895123" lon="20.053618">
<ele>1597.5</ele>
<desc>Speed 3.3 km/h Distance 6.92 km</desc>
<time>2013-07-23T14:54:14.54</time>
<name>3504</name>
<sym>Dot</sym>
</trkpt>
<trkpt lat="48.895127" lon="20.053607">
<ele>1596.0</ele>
<desc>Speed 3.2 km/h Distance 6.92 km</desc>
<time>2013-07-23T14:54:15.52</time>
<name>3505</name>
<sym>Dot</sym>
</trkpt>
<trkpt lat="48.895143" lon="20.053612">
<ele>1595.0</ele>
<desc>Speed 3.3 km/h Distance 6.92 km</desc>
<time>2013-07-23T14:54:19.52</time>
<name>3506</name>
<sym>Dot</sym>
</trkpt>
<trkpt lat="48.895163" lon="20.053627">
<ele>1595.5</ele>
<desc>Speed 2.7 km/h Distance 6.92 km</desc>
<time>2013-07-23T14:54:21.52</time>
<name>3507</name>
<sym>Dot</sym>
</trkpt>
<trkpt lat="48.895173" lon="20.053633">
<ele>1596.0</ele>
<desc>Speed 2.2 km/h Distance 6.92 km</desc>
<time>2013-07-23T14:54:22.60</time>
<name>3508</name>
<sym>Dot</sym>
</trkpt>
<trkpt lat="48.895192" lon="20.053638">
<ele>1596.0</ele>
<desc>Speed 2.4 km/h Distance 6.93 km</desc>
<time>2013-07-23T14:54:24.51</time>
<name>3509</name>
<sym>Dot</sym>
</trkpt>
<trkpt lat="48.895213" lon="20.053650">
<ele>1595.5</ele>
<desc>Speed 2.2 km/h Distance 6.93 km</desc>
<time>2013-07-23T14:54:26.51</time>
<name>3510</name>
<sym>Dot</sym>
</trkpt>
<trkpt lat="48.895245" lon="20.053675">
<ele>1595.0</ele>
<desc>Speed 2.4 km/h Distance 6.93 km</desc>
<time>2013-07-23T14:54:34.51</time>
<name>3511</name>
<sym>Dot</sym>
</trkpt>
<trkpt lat="48.895245" lon="20.053687">
<ele>1595.0</ele>
<desc>Speed 2.2 km/h Distance 6.93 km</desc>
<time>2013-07-23T14:54:36.51</time>
<name>3512</name>
<sym>Dot</sym>
</trkpt>
<trkpt lat="48.895233" lon="20.053693">
<ele>1593.5</ele>
<desc>Speed 4.0 km/h Distance 6.94 km</desc>
<time>2013-07-23T14:54:41.61</time>
<name>3513</name>
<sym>Dot</sym>
</trkpt>
<trkpt lat="48.895230" lon="20.053680">
<ele>1593.0</ele>
<desc>Speed 5.0 km/h Distance 6.94 km</desc>
<time>2013-07-23T14:54:42.50</time>
<name>3514</name>
<sym>Dot</sym>
</trkpt>
<trkpt lat="48.895275" lon="20.053697">
<ele>1593.0</ele>
<desc>Speed 5.0 km/h Distance 6.94 km</desc>
<time>2013-07-23T14:54:44.52</time>
<name>3515</name>
<sym>Dot</sym>
</trkpt>
<trkpt lat="48.895283" lon="20.053688">
<ele>1593.5</ele>
<desc>Speed 2.8 km/h Distance 6.94 km</desc>
<time>2013-07-23T14:54:45.50</time>
<name>3516</name>
<sym>Dot</sym>
</trkpt>
<trkpt lat="48.895307" lon="20.053672">
<ele>1594.0</ele>
<desc>Speed 3.8 km/h Distance 6.95 km</desc>
<time>2013-07-23T14:54:47.48</time>
<name>3517</name>
<sym>Dot</sym>
</trkpt>
<trkpt lat="48.895322" lon="20.053667">
<ele>1594.0</ele>
<desc>Speed 2.2 km/h Distance 6.95 km</desc>
<time>2013-07-23T14:54:48.48</time>
<name>3518</name>
<sym>Dot</sym>
</trkpt>
<trkpt lat="48.895337" lon="20.053660">
<ele>1594.5</ele>
<desc>Speed 2.7 km/h Distance 6.95 km</desc>
<time>2013-07-23T14:54:49.47</time>
<name>3519</name>
<sym>Dot</sym>
</trkpt>
<trkpt lat="48.895365" lon="20.053658">
<ele>1594.0</ele>
<desc>Speed 2.4 km/h Distance 6.95 km</desc>
<time>2013-07-23T14:54:52.47</time>
<name>3520</name>
<sym>Dot</sym>
</trkpt>
<trkpt lat="48.895378" lon="20.053652">
<ele>1593.0</ele>
<desc>Speed 4.0 km/h Distance 6.95 km</desc>
<time>2013-07-23T14:54:53.47</time>
<name>3521</name>
<sym>Dot</sym>
</trkpt>
<trkpt lat="48.895395" lon="20.053653">
<ele>1593.0</ele>
<desc>Speed 2.7 km/h Distance 6.96 km</desc>
<time>2013-07-23T14:54:55.47</time>
<name>3522</name>
<sym>Dot</sym>
</trkpt>
<trkpt lat="48.895407" lon="20.053653">
<ele>1593.0</ele>
<desc>Speed 2.4 km/h Distance 6.96 km</desc>
<time>2013-07-23T14:54:57.49</time>
<name>3523</name>
<sym>Dot</sym>
</trkpt>
<trkpt lat="48.895423" lon="20.053665">
<ele>1592.5</ele>
<desc>Speed 2.4 km/h Distance 6.96 km</desc>
<time>2013-07-23T14:54:59.51</time>
<name>3524</name>
<sym>Dot</sym>
</trkpt>
<trkpt lat="48.895430" lon="20.053682">
<ele>1592.5</ele>
<desc>Speed 3.6 km/h Distance 6.96 km</desc>
<time>2013-07-23T14:55:01.45</time>
<name>3525</name>
<sym>Dot</sym>
</trkpt>
<trkpt lat="48.895440" lon="20.053682">
<ele>1592.5</ele>
<desc>Speed 2.4 km/h Distance 6.96 km</desc>
<time>2013-07-23T14:55:02.44</time>
<name>3526</name>
<sym>Dot</sym>
</trkpt>
<trkpt lat="48.895447" lon="20.053673">
<ele>1592.5</ele>
<desc>Speed 2.4 km/h Distance 6.96 km</desc>
<time>2013-07-23T14:55:03.44</time>
<name>3527</name>
<sym>Dot</sym>
</trkpt>
<trkpt lat="48.895448" lon="20.053662">
<ele>1591.0</ele>
<desc>Speed 3.7 km/h Distance 6.96 km</desc>
<time>2013-07-23T14:55:05.43</time>
<name>3528</name>
<sym>Dot</sym>
</trkpt>
<trkpt lat="48.895483" lon="20.053660">
<ele>1590.0</ele>
<desc>Speed 2.2 km/h Distance 6.97 km</desc>
<time>2013-07-23T14:55:09.43</time>
<name>3529</name>
<sym>Dot</sym>
</trkpt>
<trkpt lat="48.895563" lon="20.053642">
<ele>1585.5</ele>
<desc>Speed 5.4 km/h Distance 6.98 km</desc>
<time>2013-07-23T14:55:32.45</time>
<name>3530</name>
<sym>Dot</sym>
</trkpt>
<trkpt lat="48.895560" lon="20.053637">
<ele>1585.5</ele>
<desc>Speed 2.4 km/h Distance 6.98 km</desc>
<time>2013-07-23T14:55:33.42</time>
<name>3531</name>
<sym>Dot</sym>
</trkpt>
<trkpt lat="48.895548" lon="20.053635">
<ele>1584.5</ele>
<desc>Speed 2.4 km/h Distance 6.98 km</desc>
<time>2013-07-23T14:55:34.42</time>
<name>3532</name>
<sym>Dot</sym>
</trkpt>
<trkpt lat="48.895562" lon="20.053650">
<ele>1585.0</ele>
<desc>Speed 2.4 km/h Distance 6.98 km</desc>
<time>2013-07-23T14:56:01.41</time>
<name>3533</name>
<sym>Dot</sym>
</trkpt>
<trkpt lat="48.895567" lon="20.053650">
<ele>1585.0</ele>
<desc>Speed 2.2 km/h Distance 6.98 km</desc>
<time>2013-07-23T14:56:03.41</time>
<name>3534</name>
<sym>Dot</sym>
</trkpt>
<trkpt lat="48.895573" lon="20.053650">
<ele>1585.5</ele>
<desc>Speed 2.8 km/h Distance 6.98 km</desc>
<time>2013-07-23T14:56:04.40</time>
<name>3535</name>
<sym>Dot</sym>
</trkpt>
<trkpt lat="48.895578" lon="20.053648">
<ele>1585.5</ele>
<desc>Speed 2.3 km/h Distance 6.98 km</desc>
<time>2013-07-23T14:56:05.40</time>
<name>3536</name>
<sym>Dot</sym>
</trkpt>
<trkpt lat="48.895585" lon="20.053643">
<ele>1586.0</ele>
<desc>Speed 3.3 km/h Distance 6.98 km</desc>
<time>2013-07-23T14:56:06.39</time>
<name>3537</name>
<sym>Dot</sym>
</trkpt>
<trkpt lat="48.895593" lon="20.053640">
<ele>1586.0</ele>
<desc>Speed 3.5 km/h Distance 6.98 km</desc>
<time>2013-07-23T14:56:07.41</time>
<name>3538</name>
<sym>Dot</sym>
</trkpt>
<trkpt lat="48.895597" lon="20.053635">
<ele>1586.0</ele>
<desc>Speed 2.2 km/h Distance 6.98 km</desc>
<time>2013-07-23T14:56:08.47</time>
<name>3539</name>
<sym>Dot</sym>
</trkpt>
<trkpt lat="48.895600" lon="20.053627">
<ele>1586.0</ele>
<desc>Speed 2.8 km/h Distance 6.98 km</desc>
<time>2013-07-23T14:56:09.38</time>
<name>3540</name>
<sym>Dot</sym>
</trkpt>
<trkpt lat="48.895625" lon="20.053585">
<ele>1585.5</ele>
<desc>Speed 3.0 km/h Distance 6.99 km</desc>
<time>2013-07-23T14:56:17.38</time>
<name>3541</name>
<sym>Dot</sym>
</trkpt>
<trkpt lat="48.895625" lon="20.053573">
<ele>1584.5</ele>
<desc>Speed 2.4 km/h Distance 6.99 km</desc>
<time>2013-07-23T14:56:18.37</time>
<name>3542</name>
<sym>Dot</sym>
</trkpt>
<trkpt lat="48.895632" lon="20.053562">
<ele>1584.5</ele>
<desc>Speed 3.1 km/h Distance 6.99 km</desc>
<time>2013-07-23T14:56:19.36</time>
<name>3543</name>
<sym>Dot</sym>
</trkpt>
<trkpt lat="48.895635" lon="20.053555">
<ele>1584.0</ele>
<desc>Speed 2.4 km/h Distance 6.99 km</desc>
<time>2013-07-23T14:56:20.36</time>
<name>3544</name>
<sym>Dot</sym>
</trkpt>
<trkpt lat="48.895665" lon="20.053533">
<ele>1582.5</ele>
<desc>Speed 2.8 km/h Distance 7.00 km</desc>
<time>2013-07-23T14:56:25.35</time>
<name>3545</name>
<sym>Dot</sym>
</trkpt>
<trkpt lat="48.895678" lon="20.053517">
<ele>1582.0</ele>
<desc>Speed 4.6 km/h Distance 7.00 km</desc>
<time>2013-07-23T14:56:27.35</time>
<name>3546</name>
<sym>Dot</sym>
</trkpt>
<trkpt lat="48.895663" lon="20.053515">
<ele>1581.5</ele>
<desc>Speed 7.3 km/h Distance 7.00 km</desc>
<time>2013-07-23T14:56:28.34</time>
<name>3547</name>
<sym>Dot</sym>
</trkpt>
<trkpt lat="48.895675" lon="20.053493">
<ele>1581.0</ele>
<desc>Speed 2.4 km/h Distance 7.00 km</desc>
<time>2013-07-23T14:56:30.34</time>
<name>3548</name>
<sym>Dot</sym>
</trkpt>
<trkpt lat="48.895680" lon="20.053482">
<ele>1581.0</ele>
<desc>Speed 2.7 km/h Distance 7.00 km</desc>
<time>2013-07-23T14:56:31.34</time>
<name>3549</name>
<sym>Dot</sym>
</trkpt>
<trkpt lat="48.895702" lon="20.053473">
<ele>1580.5</ele>
<desc>Speed 3.7 km/h Distance 7.00 km</desc>
<time>2013-07-23T14:56:35.34</time>
<name>3550</name>
<sym>Dot</sym>
</trkpt>
<trkpt lat="48.895718" lon="20.053470">
<ele>1580.5</ele>
<desc>Speed 3.3 km/h Distance 7.01 km</desc>
<time>2013-07-23T14:56:36.33</time>
<name>3551</name>
<sym>Dot</sym>
</trkpt>
<trkpt lat="48.895710" lon="20.053477">
<ele>1580.0</ele>
<desc>Speed 8.2 km/h Distance 7.01 km</desc>
<time>2013-07-23T14:56:37.33</time>
<name>3552</name>
<sym>Dot</sym>
</trkpt>
<trkpt lat="48.895683" lon="20.053492">
<ele>1580.5</ele>
<desc>Speed 12.2 km/h Distance 7.01 km</desc>
<time>2013-07-23T14:56:38.32</time>
<name>3553</name>
<sym>Dot</sym>
</trkpt>
<trkpt lat="48.895665" lon="20.053502">
<ele>1580.5</ele>
<desc>Speed 12.2 km/h Distance 7.01 km</desc>
<time>2013-07-23T14:56:39.32</time>
<name>3554</name>
<sym>Dot</sym>
</trkpt>
<trkpt lat="48.895652" lon="20.053507">
<ele>1580.5</ele>
<desc>Speed 12.2 km/h Distance 7.01 km</desc>
<time>2013-07-23T14:56:40.31</time>
<name>3555</name>
<sym>Dot</sym>
</trkpt>
<trkpt lat="48.895757" lon="20.053440">
<ele>1580.0</ele>
<desc>Speed 2.5 km/h Distance 7.03 km</desc>
<time>2013-07-23T14:56:48.30</time>
<name>3556</name>
<sym>Dot</sym>
</trkpt>
<trkpt lat="48.895768" lon="20.053440">
<ele>1580.0</ele>
<desc>Speed 3.2 km/h Distance 7.03 km</desc>
<time>2013-07-23T14:56:49.30</time>
<name>3557</name>
<sym>Dot</sym>
</trkpt>
<trkpt lat="48.895775" lon="20.053457">
<ele>1579.5</ele>
<desc>Speed 4.9 km/h Distance 7.03 km</desc>
<time>2013-07-23T14:56:50.30</time>
<name>3558</name>
<sym>Dot</sym>
</trkpt>
<trkpt lat="48.895865" lon="20.053485">
<ele>1578.5</ele>
<desc>Speed 3.1 km/h Distance 7.04 km</desc>
<time>2013-07-23T14:56:56.29</time>
<name>3559</name>
<sym>Dot</sym>
</trkpt>
<trkpt lat="48.895878" lon="20.053480">
<ele>1578.0</ele>
<desc>Speed 2.2 km/h Distance 7.04 km</desc>
<time>2013-07-23T14:56:58.29</time>
<name>3560</name>
<sym>Dot</sym>
</trkpt>
<trkpt lat="48.895948" lon="20.053457">
<ele>1576.5</ele>
<desc>Speed 2.3 km/h Distance 7.05 km</desc>
<time>2013-07-23T14:57:07.28</time>
<name>3561</name>
<sym>Dot</sym>
</trkpt>
<trkpt lat="48.895953" lon="20.053455">
<ele>1576.5</ele>
<desc>Speed 2.3 km/h Distance 7.05 km</desc>
<time>2013-07-23T14:57:08.28</time>
<name>3562</name>
<sym>Dot</sym>
</trkpt>
<trkpt lat="48.895937" lon="20.053462">
<ele>1576.5</ele>
<desc>Speed 7.5 km/h Distance 7.05 km</desc>
<time>2013-07-23T14:57:09.27</time>
<name>3563</name>
<sym>Dot</sym>
</trkpt>
<trkpt lat="48.895962" lon="20.053437">
<ele>1576.5</ele>
<desc>Speed 12.3 km/h Distance 7.06 km</desc>
<time>2013-07-23T14:57:10.27</time>
<name>3564</name>
<sym>Dot</sym>
</trkpt>
<trkpt lat="48.896008" lon="20.053472">
<ele>1567.5</ele>
<desc>Speed 2.5 km/h Distance 7.06 km</desc>
<time>2013-07-23T14:57:41.45</time>
<name>3565</name>
<sym>Dot</sym>
</trkpt>
<trkpt lat="48.896027" lon="20.053497">
<ele>1566.5</ele>
<desc>Speed 5.1 km/h Distance 7.06 km</desc>
<time>2013-07-23T14:57:50.26</time>
<name>3566</name>
<sym>Dot</sym>
</trkpt>
<trkpt lat="48.896037" lon="20.053490">
<ele>1565.5</ele>
<desc>Speed 2.3 km/h Distance 7.07 km</desc>
<time>2013-07-23T14:57:52.26</time>
<name>3567</name>
<sym>Dot</sym>
</trkpt>
<trkpt lat="48.896045" lon="20.053485">
<ele>1566.0</ele>
<desc>Speed 3.3 km/h Distance 7.07 km</desc>
<time>2013-07-23T14:57:53.46</time>
<name>3568</name>
<sym>Dot</sym>
</trkpt>
<trkpt lat="48.896045" lon="20.053460">
<ele>1564.5</ele>
<desc>Speed 2.4 km/h Distance 7.07 km</desc>
<time>2013-07-23T14:57:57.24</time>
<name>3569</name>
<sym>Dot</sym>
</trkpt>
<trkpt lat="48.896048" lon="20.053447">
<ele>1564.5</ele>
<desc>Speed 2.4 km/h Distance 7.07 km</desc>
<time>2013-07-23T14:57:58.24</time>
<name>3570</name>
<sym>Dot</sym>
</trkpt>
<trkpt lat="48.896052" lon="20.053440">
<ele>1565.0</ele>
<desc>Speed 2.4 km/h Distance 7.07 km</desc>
<time>2013-07-23T14:57:59.24</time>
<name>3571</name>
<sym>Dot</sym>
</trkpt>
<trkpt lat="48.896072" lon="20.053422">
<ele>1564.5</ele>
<desc>Speed 2.5 km/h Distance 7.07 km</desc>
<time>2013-07-23T14:58:04.23</time>
<name>3572</name>
<sym>Dot</sym>
</trkpt>
<trkpt lat="48.896090" lon="20.053427">
<ele>1565.5</ele>
<desc>Speed 4.1 km/h Distance 7.07 km</desc>
<time>2013-07-23T14:58:08.23</time>
<name>3573</name>
<sym>Dot</sym>
</trkpt>
<trkpt lat="48.896103" lon="20.053423">
<ele>1565.5</ele>
<desc>Speed 3.1 km/h Distance 7.08 km</desc>
<time>2013-07-23T14:58:11.22</time>
<name>3574</name>
<sym>Dot</sym>
</trkpt>
<trkpt lat="48.896108" lon="20.053427">
<ele>1566.0</ele>
<desc>Speed 2.2 km/h Distance 7.08 km</desc>
<time>2013-07-23T14:58:12.21</time>
<name>3575</name>
<sym>Dot</sym>
</trkpt>
<trkpt lat="48.896155" lon="20.053430">
<ele>1566.5</ele>
<desc>Speed 3.0 km/h Distance 7.08 km</desc>
<time>2013-07-23T14:58:22.21</time>
<name>3576</name>
<sym>Dot</sym>
</trkpt>
<trkpt lat="48.896162" lon="20.053432">
<ele>1566.5</ele>
<desc>Speed 3.0 km/h Distance 7.08 km</desc>
<time>2013-07-23T14:58:23.20</time>
<name>3577</name>
<sym>Dot</sym>
</trkpt>
<trkpt lat="48.896163" lon="20.053457">
<ele>1566.5</ele>
<desc>Speed 6.3 km/h Distance 7.08 km</desc>
<time>2013-07-23T14:58:24.20</time>
<name>3578</name>
<sym>Dot</sym>
</trkpt>
<trkpt lat="48.896165" lon="20.053440">
<ele>1564.0</ele>
<desc>Speed 3.6 km/h Distance 7.09 km</desc>
<time>2013-07-23T14:58:26.19</time>
<name>3579</name>
<sym>Dot</sym>
</trkpt>
<trkpt lat="48.896188" lon="20.053450">
<ele>1564.0</ele>
<desc>Speed 8.2 km/h Distance 7.09 km</desc>
<time>2013-07-23T14:58:27.19</time>
<name>3580</name>
<sym>Dot</sym>
</trkpt>
<trkpt lat="48.896200" lon="20.053450">
<ele>1564.0</ele>
<desc>Speed 4.5 km/h Distance 7.09 km</desc>
<time>2013-07-23T14:58:28.18</time>
<name>3581</name>
<sym>Dot</sym>
</trkpt>
<trkpt lat="48.896207" lon="20.053443">
<ele>1564.0</ele>
<desc>Speed 2.3 km/h Distance 7.09 km</desc>
<time>2013-07-23T14:58:29.17</time>
<name>3582</name>
<sym>Dot</sym>
</trkpt>
<trkpt lat="48.896215" lon="20.053440">
<ele>1563.5</ele>
<desc>Speed 2.3 km/h Distance 7.09 km</desc>
<time>2013-07-23T14:58:30.18</time>
<name>3583</name>
<sym>Dot</sym>
</trkpt>
<trkpt lat="48.896218" lon="20.053423">
<ele>1562.0</ele>
<desc>Speed 4.5 km/h Distance 7.09 km</desc>
<time>2013-07-23T14:58:31.18</time>
<name>3584</name>
<sym>Dot</sym>
</trkpt>
<trkpt lat="48.896223" lon="20.053405">
<ele>1560.5</ele>
<desc>Speed 2.4 km/h Distance 7.09 km</desc>
<time>2013-07-23T14:58:33.18</time>
<name>3585</name>
<sym>Dot</sym>
</trkpt>
<trkpt lat="48.896228" lon="20.053400">
<ele>1559.5</ele>
<desc>Speed 2.2 km/h Distance 7.09 km</desc>
<time>2013-07-23T14:58:34.18</time>
<name>3586</name>
<sym>Dot</sym>
</trkpt>
<trkpt lat="48.896233" lon="20.053378">
<ele>1557.5</ele>
<desc>Speed 2.9 km/h Distance 7.10 km</desc>
<time>2013-07-23T14:58:36.17</time>
<name>3587</name>
<sym>Dot</sym>
</trkpt>
<trkpt lat="48.896237" lon="20.053368">
<ele>1556.5</ele>
<desc>Speed 2.4 km/h Distance 7.10 km</desc>
<time>2013-07-23T14:58:37.17</time>
<name>3588</name>
<sym>Dot</sym>
</trkpt>
<trkpt lat="48.896242" lon="20.053358">
<ele>1556.0</ele>
<desc>Speed 2.6 km/h Distance 7.10 km</desc>
<time>2013-07-23T14:58:38.17</time>
<name>3589</name>
<sym>Dot</sym>
</trkpt>
<trkpt lat="48.896257" lon="20.053352">
<ele>1555.5</ele>
<desc>Speed 2.9 km/h Distance 7.10 km</desc>
<time>2013-07-23T14:58:40.16</time>
<name>3590</name>
<sym>Dot</sym>
</trkpt>
<trkpt lat="48.896267" lon="20.053348">
<ele>1555.0</ele>
<desc>Speed 4.0 km/h Distance 7.10 km</desc>
<time>2013-07-23T14:58:41.16</time>
<name>3591</name>
<sym>Dot</sym>
</trkpt>
<trkpt lat="48.896273" lon="20.053345">
<ele>1554.0</ele>
<desc>Speed 2.2 km/h Distance 7.10 km</desc>
<time>2013-07-23T14:58:42.16</time>
<name>3592</name>
<sym>Dot</sym>
</trkpt>
<trkpt lat="48.896278" lon="20.053337">
<ele>1553.5</ele>
<desc>Speed 2.3 km/h Distance 7.10 km</desc>
<time>2013-07-23T14:58:43.15</time>
<name>3593</name>
<sym>Dot</sym>
</trkpt>
<trkpt lat="48.896278" lon="20.053322">
<ele>1552.5</ele>
<desc>Speed 2.9 km/h Distance 7.10 km</desc>
<time>2013-07-23T14:58:44.22</time>
<name>3594</name>
<sym>Dot</sym>
</trkpt>
<trkpt lat="48.896277" lon="20.053312">
<ele>1552.0</ele>
<desc>Speed 2.2 km/h Distance 7.10 km</desc>
<time>2013-07-23T14:58:45.15</time>
<name>3595</name>
<sym>Dot</sym>
</trkpt>
<trkpt lat="48.896295" lon="20.053297">
<ele>1550.0</ele>
<desc>Speed 2.4 km/h Distance 7.11 km</desc>
<time>2013-07-23T14:58:51.14</time>
<name>3596</name>
<sym>Dot</sym>
</trkpt>
<trkpt lat="48.896305" lon="20.053312">
<ele>1552.0</ele>
<desc>Speed 5.1 km/h Distance 7.11 km</desc>
<time>2013-07-23T14:58:52.14</time>
<name>3597</name>
<sym>Dot</sym>
</trkpt>
<trkpt lat="48.896317" lon="20.053310">
<ele>1552.0</ele>
<desc>Speed 3.5 km/h Distance 7.11 km</desc>
<time>2013-07-23T14:58:53.14</time>
<name>3598</name>
<sym>Dot</sym>
</trkpt>
<trkpt lat="48.896325" lon="20.053305">
<ele>1551.5</ele>
<desc>Speed 2.7 km/h Distance 7.11 km</desc>
<time>2013-07-23T14:58:54.12</time>
<name>3599</name>
<sym>Dot</sym>
</trkpt>
<trkpt lat="48.896333" lon="20.053298">
<ele>1550.5</ele>
<desc>Speed 2.7 km/h Distance 7.11 km</desc>
<time>2013-07-23T14:58:55.12</time>
<name>3600</name>
<sym>Dot</sym>
</trkpt>
<trkpt lat="48.896342" lon="20.053295">
<ele>1549.5</ele>
<desc>Speed 3.1 km/h Distance 7.11 km</desc>
<time>2013-07-23T14:58:56.12</time>
<name>3601</name>
<sym>Dot</sym>
</trkpt>
<trkpt lat="48.896345" lon="20.053292">
<ele>1548.5</ele>
<desc>Speed 3.0 km/h Distance 7.11 km</desc>
<time>2013-07-23T14:59:00.12</time>
<name>3602</name>
<sym>Dot</sym>
</trkpt>
<trkpt lat="48.896372" lon="20.053230">
<ele>1543.0</ele>
<desc>Speed 3.0 km/h Distance 7.12 km</desc>
<time>2013-07-23T14:59:13.12</time>
<name>3603</name>
<sym>Dot</sym>
</trkpt>
<trkpt lat="48.896373" lon="20.053207">
<ele>1542.5</ele>
<desc>Speed 2.9 km/h Distance 7.12 km</desc>
<time>2013-07-23T14:59:15.11</time>
<name>3604</name>
<sym>Dot</sym>
</trkpt>
<trkpt lat="48.896378" lon="20.053190">
<ele>1542.5</ele>
<desc>Speed 3.3 km/h Distance 7.12 km</desc>
<time>2013-07-23T14:59:16.12</time>
<name>3605</name>
<sym>Dot</sym>
</trkpt>
<trkpt lat="48.896400" lon="20.053180">
<ele>1543.0</ele>
<desc>Speed 2.2 km/h Distance 7.12 km</desc>
<time>2013-07-23T14:59:18.10</time>
<name>3606</name>
<sym>Dot</sym>
</trkpt>
<trkpt lat="48.896438" lon="20.053172">
<ele>1545.0</ele>
<desc>Speed 2.7 km/h Distance 7.13 km</desc>
<time>2013-07-23T14:59:22.10</time>
<name>3607</name>
<sym>Dot</sym>
</trkpt>
<trkpt lat="48.896447" lon="20.053167">
<ele>1544.5</ele>
<desc>Speed 2.4 km/h Distance 7.13 km</desc>
<time>2013-07-23T14:59:23.10</time>
<name>3608</name>
<sym>Dot</sym>
</trkpt>
<trkpt lat="48.896457" lon="20.053147">
<ele>1544.0</ele>
<desc>Speed 2.3 km/h Distance 7.13 km</desc>
<time>2013-07-23T14:59:26.10</time>
<name>3609</name>
<sym>Dot</sym>
</trkpt>
<trkpt lat="48.896460" lon="20.053135">
<ele>1543.5</ele>
<desc>Speed 2.7 km/h Distance 7.13 km</desc>
<time>2013-07-23T14:59:27.10</time>
<name>3610</name>
<sym>Dot</sym>
</trkpt>
<trkpt lat="48.896468" lon="20.053123">
<ele>1543.5</ele>
<desc>Speed 3.9 km/h Distance 7.13 km</desc>
<time>2013-07-23T14:59:28.10</time>
<name>3611</name>
<sym>Dot</sym>
</trkpt>
<trkpt lat="48.896475" lon="20.053115">
<ele>1543.5</ele>
<desc>Speed 2.3 km/h Distance 7.13 km</desc>
<time>2013-07-23T14:59:29.10</time>
<name>3612</name>
<sym>Dot</sym>
</trkpt>
<trkpt lat="48.896495" lon="20.053118">
<ele>1543.0</ele>
<desc>Speed 3.6 km/h Distance 7.14 km</desc>
<time>2013-07-23T14:59:32.10</time>
<name>3613</name>
<sym>Dot</sym>
</trkpt>
<trkpt lat="48.896490" lon="20.053138">
<ele>1543.0</ele>
<desc>Speed 7.1 km/h Distance 7.14 km</desc>
<time>2013-07-23T14:59:33.17</time>
<name>3614</name>
<sym>Dot</sym>
</trkpt>
<trkpt lat="48.896485" lon="20.053147">
<ele>1543.0</ele>
<desc>Speed 3.1 km/h Distance 7.14 km</desc>
<time>2013-07-23T14:59:34.09</time>
<name>3615</name>
<sym>Dot</sym>
</trkpt>
<trkpt lat="48.896495" lon="20.053150">
<ele>1543.0</ele>
<desc>Speed 4.3 km/h Distance 7.14 km</desc>
<time>2013-07-23T14:59:35.09</time>
<name>3616</name>
<sym>Dot</sym>
</trkpt>
<trkpt lat="48.896528" lon="20.053143">
<ele>1541.0</ele>
<desc>Speed 2.2 km/h Distance 7.14 km</desc>
<time>2013-07-23T14:59:47.08</time>
<name>3617</name>
<sym>Dot</sym>
</trkpt>
<trkpt lat="48.896558" lon="20.053140">
<ele>1541.0</ele>
<desc>Speed 2.7 km/h Distance 7.15 km</desc>
<time>2013-07-23T14:59:53.07</time>
<name>3618</name>
<sym>Dot</sym>
</trkpt>
<trkpt lat="48.896563" lon="20.053148">
<ele>1541.0</ele>
<desc>Speed 2.5 km/h Distance 7.15 km</desc>
<time>2013-07-23T14:59:54.06</time>
<name>3619</name>
<sym>Dot</sym>
</trkpt>
<trkpt lat="48.896573" lon="20.053130">
<ele>1540.0</ele>
<desc>Speed 4.9 km/h Distance 7.15 km</desc>
<time>2013-07-23T14:59:56.06</time>
<name>3620</name>
<sym>Dot</sym>
</trkpt>
<trkpt lat="48.896582" lon="20.053127">
<ele>1539.5</ele>
<desc>Speed 3.3 km/h Distance 7.15 km</desc>
<time>2013-07-23T14:59:57.06</time>
<name>3621</name>
<sym>Dot</sym>
</trkpt>
<trkpt lat="48.896622" lon="20.053120">
<ele>1539.0</ele>
<desc>Speed 2.4 km/h Distance 7.16 km</desc>
<time>2013-07-23T15:00:05.06</time>
<name>3622</name>
<sym>Dot</sym>
</trkpt>
<trkpt lat="48.896630" lon="20.053110">
<ele>1538.5</ele>
<desc>Speed 3.6 km/h Distance 7.16 km</desc>
<time>2013-07-23T15:00:06.05</time>
<name>3623</name>
<sym>Dot</sym>
</trkpt>
<trkpt lat="48.896637" lon="20.053107">
<ele>1538.5</ele>
<desc>Speed 2.3 km/h Distance 7.16 km</desc>
<time>2013-07-23T15:00:07.05</time>
<name>3624</name>
<sym>Dot</sym>
</trkpt>
<trkpt lat="48.896682" lon="20.053062">
<ele>1536.0</ele>
<desc>Speed 2.3 km/h Distance 7.16 km</desc>
<time>2013-07-23T15:00:20.18</time>
<name>3625</name>
<sym>Dot</sym>
</trkpt>
<trkpt lat="48.896707" lon="20.053025">
<ele>1533.0</ele>
<desc>Speed 2.8 km/h Distance 7.17 km</desc>
<time>2013-07-23T15:00:25.05</time>
<name>3626</name>
<sym>Dot</sym>
</trkpt>
<trkpt lat="48.896723" lon="20.053022">
<ele>1534.0</ele>
<desc>Speed 2.4 km/h Distance 7.17 km</desc>
<time>2013-07-23T15:00:27.05</time>
<name>3627</name>
<sym>Dot</sym>
</trkpt>
<trkpt lat="48.896732" lon="20.053018">
<ele>1534.0</ele>
<desc>Speed 2.5 km/h Distance 7.17 km</desc>
<time>2013-07-23T15:00:28.04</time>
<name>3628</name>
<sym>Dot</sym>
</trkpt>
<trkpt lat="48.896748" lon="20.053013">
<ele>1533.0</ele>
<desc>Speed 2.5 km/h Distance 7.17 km</desc>
<time>2013-07-23T15:00:30.08</time>
<name>3629</name>
<sym>Dot</sym>
</trkpt>
<trkpt lat="48.896757" lon="20.053005">
<ele>1532.5</ele>
<desc>Speed 3.1 km/h Distance 7.17 km</desc>
<time>2013-07-23T15:00:31.03</time>
<name>3630</name>
<sym>Dot</sym>
</trkpt>
<trkpt lat="48.896763" lon="20.052997">
<ele>1532.0</ele>
<desc>Speed 2.8 km/h Distance 7.17 km</desc>
<time>2013-07-23T15:00:32.03</time>
<name>3631</name>
<sym>Dot</sym>
</trkpt>
<trkpt lat="48.896770" lon="20.052988">
<ele>1531.0</ele>
<desc>Speed 2.4 km/h Distance 7.17 km</desc>
<time>2013-07-23T15:00:33.03</time>
<name>3632</name>
<sym>Dot</sym>
</trkpt>
<trkpt lat="48.896773" lon="20.052982">
<ele>1531.0</ele>
<desc>Speed 2.4 km/h Distance 7.18 km</desc>
<time>2013-07-23T15:00:34.03</time>
<name>3633</name>
<sym>Dot</sym>
</trkpt>
<trkpt lat="48.896778" lon="20.052970">
<ele>1531.0</ele>
<desc>Speed 3.1 km/h Distance 7.18 km</desc>
<time>2013-07-23T15:00:35.04</time>
<name>3634</name>
<sym>Dot</sym>
</trkpt>
<trkpt lat="48.896780" lon="20.052958">
<ele>1530.5</ele>
<desc>Speed 3.2 km/h Distance 7.18 km</desc>
<time>2013-07-23T15:00:36.02</time>
<name>3635</name>
<sym>Dot</sym>
</trkpt>
<trkpt lat="48.896782" lon="20.052945">
<ele>1531.0</ele>
<desc>Speed 3.2 km/h Distance 7.18 km</desc>
<time>2013-07-23T15:00:37.02</time>
<name>3636</name>
<sym>Dot</sym>
</trkpt>
<trkpt lat="48.896795" lon="20.052940">
<ele>1531.0</ele>
<desc>Speed 2.2 km/h Distance 7.18 km</desc>
<time>2013-07-23T15:00:39.01</time>
<name>3637</name>
<sym>Dot</sym>
</trkpt>
<trkpt lat="48.896825" lon="20.052942">
<ele>1533.0</ele>
<desc>Speed 3.1 km/h Distance 7.18 km</desc>
<time>2013-07-23T15:00:48.00</time>
<name>3638</name>
<sym>Dot</sym>
</trkpt>
<trkpt lat="48.896832" lon="20.052928">
<ele>1532.0</ele>
<desc>Speed 2.8 km/h Distance 7.18 km</desc>
<time>2013-07-23T15:00:49.00</time>
<name>3639</name>
<sym>Dot</sym>
</trkpt>
<trkpt lat="48.896847" lon="20.052922">
<ele>1532.0</ele>
<desc>Speed 5.8 km/h Distance 7.19 km</desc>
<time>2013-07-23T15:00:49.99</time>
<name>3640</name>
<sym>Dot</sym>
</trkpt>
<trkpt lat="48.896855" lon="20.052898">
<ele>1531.0</ele>
<desc>Speed 4.5 km/h Distance 7.19 km</desc>
<time>2013-07-23T15:00:50.99</time>
<name>3641</name>
<sym>Dot</sym>
</trkpt>
<trkpt lat="48.896865" lon="20.052885">
<ele>1531.0</ele>
<desc>Speed 4.3 km/h Distance 7.19 km</desc>
<time>2013-07-23T15:00:51.98</time>
<name>3642</name>
<sym>Dot</sym>
</trkpt>
<trkpt lat="48.896878" lon="20.052872">
<ele>1531.0</ele>
<desc>Speed 4.1 km/h Distance 7.19 km</desc>
<time>2013-07-23T15:00:52.98</time>
<name>3643</name>
<sym>Dot</sym>
</trkpt>
<trkpt lat="48.896888" lon="20.052863">
<ele>1531.5</ele>
<desc>Speed 3.4 km/h Distance 7.19 km</desc>
<time>2013-07-23T15:00:53.98</time>
<name>3644</name>
<sym>Dot</sym>
</trkpt>
<trkpt lat="48.896898" lon="20.052857">
<ele>1532.0</ele>
<desc>Speed 2.4 km/h Distance 7.19 km</desc>
<time>2013-07-23T15:00:54.97</time>
<name>3645</name>
<sym>Dot</sym>
</trkpt>
<trkpt lat="48.896950" lon="20.052807">
<ele>1531.5</ele>
<desc>Speed 5.9 km/h Distance 7.20 km</desc>
<time>2013-07-23T15:00:57.97</time>
<name>3646</name>
<sym>Dot</sym>
</trkpt>
<trkpt lat="48.896958" lon="20.052797">
<ele>1531.0</ele>
<desc>Speed 4.8 km/h Distance 7.20 km</desc>
<time>2013-07-23T15:00:58.97</time>
<name>3647</name>
<sym>Dot</sym>
</trkpt>
<trkpt lat="48.896975" lon="20.052802">
<ele>1531.5</ele>
<desc>Speed 6.9 km/h Distance 7.20 km</desc>
<time>2013-07-23T15:00:59.97</time>
<name>3648</name>
<sym>Dot</sym>
</trkpt>
<trkpt lat="48.897000" lon="20.052797">
<ele>1531.0</ele>
<desc>Speed 8.5 km/h Distance 7.21 km</desc>
<time>2013-07-23T15:01:00.97</time>
<name>3649</name>
<sym>Dot</sym>
</trkpt>
<trkpt lat="48.897018" lon="20.052795">
<ele>1530.5</ele>
<desc>Speed 7.1 km/h Distance 7.21 km</desc>
<time>2013-07-23T15:01:01.97</time>
<name>3650</name>
<sym>Dot</sym>
</trkpt>
<trkpt lat="48.897042" lon="20.052795">
<ele>1531.0</ele>
<desc>Speed 7.7 km/h Distance 7.21 km</desc>
<time>2013-07-23T15:01:02.96</time>
<name>3651</name>
<sym>Dot</sym>
</trkpt>
<trkpt lat="48.897063" lon="20.052792">
<ele>1531.0</ele>
<desc>Speed 6.1 km/h Distance 7.21 km</desc>
<time>2013-07-23T15:01:03.96</time>
<name>3652</name>
<sym>Dot</sym>
</trkpt>
<trkpt lat="48.897083" lon="20.052780">
<ele>1531.0</ele>
<desc>Speed 6.8 km/h Distance 7.22 km</desc>
<time>2013-07-23T15:01:04.96</time>
<name>3653</name>
<sym>Dot</sym>
</trkpt>
<trkpt lat="48.897100" lon="20.052762">
<ele>1530.5</ele>
<desc>Speed 7.9 km/h Distance 7.22 km</desc>
<time>2013-07-23T15:01:05.96</time>
<name>3654</name>
<sym>Dot</sym>
</trkpt>
<trkpt lat="48.897118" lon="20.052743">
<ele>1530.5</ele>
<desc>Speed 7.7 km/h Distance 7.22 km</desc>
<time>2013-07-23T15:01:06.95</time>
<name>3655</name>
<sym>Dot</sym>
</trkpt>
<trkpt lat="48.897132" lon="20.052730">
<ele>1530.0</ele>
<desc>Speed 6.1 km/h Distance 7.22 km</desc>
<time>2013-07-23T15:01:07.96</time>
<name>3656</name>
<sym>Dot</sym>
</trkpt>
<trkpt lat="48.897147" lon="20.052742">
<ele>1530.0</ele>
<desc>Speed 5.8 km/h Distance 7.22 km</desc>
<time>2013-07-23T15:01:08.95</time>
<name>3657</name>
<sym>Dot</sym>
</trkpt>
<trkpt lat="48.897150" lon="20.052723">
<ele>1528.0</ele>
<desc>Speed 4.9 km/h Distance 7.23 km</desc>
<time>2013-07-23T15:01:10.25</time>
<name>3658</name>
<sym>Dot</sym>
</trkpt>
<trkpt lat="48.897177" lon="20.052705">
<ele>1525.0</ele>
<desc>Speed 5.7 km/h Distance 7.23 km</desc>
<time>2013-07-23T15:01:17.95</time>
<name>3659</name>
<sym>Dot</sym>
</trkpt>
<trkpt lat="48.897245" lon="20.052632">
<ele>1524.0</ele>
<desc>Speed 12.9 km/h Distance 7.24 km</desc>
<time>2013-07-23T15:01:19.95</time>
<name>3660</name>
<sym>Dot</sym>
</trkpt>
<trkpt lat="48.897272" lon="20.052602">
<ele>1524.0</ele>
<desc>Speed 12.6 km/h Distance 7.24 km</desc>
<time>2013-07-23T15:01:21.14</time>
<name>3661</name>
<sym>Dot</sym>
</trkpt>
<trkpt lat="48.897302" lon="20.052552">
<ele>1524.0</ele>
<desc>Speed 15.2 km/h Distance 7.25 km</desc>
<time>2013-07-23T15:01:21.93</time>
<name>3662</name>
<sym>Dot</sym>
</trkpt>
<trkpt lat="48.897338" lon="20.052505">
<ele>1524.0</ele>
<desc>Speed 16.1 km/h Distance 7.25 km</desc>
<time>2013-07-23T15:01:22.94</time>
<name>3663</name>
<sym>Dot</sym>
</trkpt>
<trkpt lat="48.897375" lon="20.052467">
<ele>1523.5</ele>
<desc>Speed 17.9 km/h Distance 7.26 km</desc>
<time>2013-07-23T15:01:23.93</time>
<name>3664</name>
<sym>Dot</sym>
</trkpt>
<trkpt lat="48.897403" lon="20.052445">
<ele>1523.5</ele>
<desc>Speed 12.6 km/h Distance 7.26 km</desc>
<time>2013-07-23T15:01:24.93</time>
<name>3665</name>
<sym>Dot</sym>
</trkpt>
<trkpt lat="48.897402" lon="20.052405">
<ele>1523.5</ele>
<desc>Speed 10.3 km/h Distance 7.26 km</desc>
<time>2013-07-23T15:01:25.92</time>
<name>3666</name>
<sym>Dot</sym>
</trkpt>
<trkpt lat="48.897412" lon="20.052395">
<ele>1523.5</ele>
<desc>Speed 4.3 km/h Distance 7.26 km</desc>
<time>2013-07-23T15:01:26.91</time>
<name>3667</name>
<sym>Dot</sym>
</trkpt>
<trkpt lat="48.897423" lon="20.052393">
<ele>1525.5</ele>
<desc>Speed 4.4 km/h Distance 7.27 km</desc>
<time>2013-07-23T15:01:27.91</time>
<name>3668</name>
<sym>Dot</sym>
</trkpt>
<trkpt lat="48.897438" lon="20.052375">
<ele>1525.5</ele>
<desc>Speed 6.5 km/h Distance 7.27 km</desc>
<time>2013-07-23T15:01:28.90</time>
<name>3669</name>
<sym>Dot</sym>
</trkpt>
<trkpt lat="48.897450" lon="20.052355">
<ele>1525.5</ele>
<desc>Speed 6.9 km/h Distance 7.27 km</desc>
<time>2013-07-23T15:01:29.90</time>
<name>3670</name>
<sym>Dot</sym>
</trkpt>
<trkpt lat="48.897467" lon="20.052322">
<ele>1525.5</ele>
<desc>Speed 9.8 km/h Distance 7.27 km</desc>
<time>2013-07-23T15:01:30.90</time>
<name>3671</name>
<sym>Dot</sym>
</trkpt>
<trkpt lat="48.897483" lon="20.052297">
<ele>1525.5</ele>
<desc>Speed 8.6 km/h Distance 7.28 km</desc>
<time>2013-07-23T15:01:31.90</time>
<name>3672</name>
<sym>Dot</sym>
</trkpt>
<trkpt lat="48.897498" lon="20.052278">
<ele>1525.0</ele>
<desc>Speed 8.6 km/h Distance 7.28 km</desc>
<time>2013-07-23T15:01:32.89</time>
<name>3673</name>
<sym>Dot</sym>
</trkpt>
<trkpt lat="48.897507" lon="20.052265">
<ele>1525.0</ele>
<desc>Speed 4.9 km/h Distance 7.28 km</desc>
<time>2013-07-23T15:01:33.88</time>
<name>3674</name>
<sym>Dot</sym>
</trkpt>
<trkpt lat="48.897505" lon="20.052237">
<ele>1525.5</ele>
<desc>Speed 5.1 km/h Distance 7.28 km</desc>
<time>2013-07-23T15:01:39.88</time>
<name>3675</name>
<sym>Dot</sym>
</trkpt>
<trkpt lat="48.897525" lon="20.052227">
<ele>1523.5</ele>
<desc>Speed 3.1 km/h Distance 7.28 km</desc>
<time>2013-07-23T15:01:52.16</time>
<name>3676</name>
<sym>Dot</sym>
</trkpt>
<trkpt lat="48.897510" lon="20.052182">
<ele>1519.5</ele>
<desc>Speed 2.4 km/h Distance 7.29 km</desc>
<time>2013-07-23T15:01:58.36</time>
<name>3677</name>
<sym>Dot</sym>
</trkpt>
<trkpt lat="48.897535" lon="20.052190">
<ele>1516.0</ele>
<desc>Speed 4.5 km/h Distance 7.29 km</desc>
<time>2013-07-23T15:02:06.87</time>
<name>3678</name>
<sym>Dot</sym>
</trkpt>
<trkpt lat="48.897555" lon="20.052180">
<ele>1514.0</ele>
<desc>Speed 3.9 km/h Distance 7.29 km</desc>
<time>2013-07-23T15:03:07.89</time>
<name>3679</name>
<sym>Dot</sym>
</trkpt>
<trkpt lat="48.897590" lon="20.052177">
<ele>1515.0</ele>
<desc>Speed 3.3 km/h Distance 7.30 km</desc>
<time>2013-07-23T15:03:31.87</time>
<name>3680</name>
<sym>Dot</sym>
</trkpt>
<trkpt lat="48.897568" lon="20.052163">
<ele>1514.0</ele>
<desc>Speed 3.4 km/h Distance 7.30 km</desc>
<time>2013-07-23T15:03:46.86</time>
<name>3681</name>
<sym>Dot</sym>
</trkpt>
<trkpt lat="48.897582" lon="20.052150">
<ele>1514.0</ele>
<desc>Speed 5.8 km/h Distance 7.30 km</desc>
<time>2013-07-23T15:03:47.86</time>
<name>3682</name>
<sym>Dot</sym>
</trkpt>
<trkpt lat="48.897595" lon="20.052133">
<ele>1514.0</ele>
<desc>Speed 7.2 km/h Distance 7.30 km</desc>
<time>2013-07-23T15:03:48.85</time>
<name>3683</name>
<sym>Dot</sym>
</trkpt>
<trkpt lat="48.897608" lon="20.052103">
<ele>1514.0</ele>
<desc>Speed 9.4 km/h Distance 7.31 km</desc>
<time>2013-07-23T15:03:49.85</time>
<name>3684</name>
<sym>Dot</sym>
</trkpt>
<trkpt lat="48.897622" lon="20.052077">
<ele>1514.0</ele>
<desc>Speed 8.7 km/h Distance 7.31 km</desc>
<time>2013-07-23T15:03:50.84</time>
<name>3685</name>
<sym>Dot</sym>
</trkpt>
<trkpt lat="48.897633" lon="20.052060">
<ele>1514.0</ele>
<desc>Speed 7.4 km/h Distance 7.31 km</desc>
<time>2013-07-23T15:03:51.83</time>
<name>3686</name>
<sym>Dot</sym>
</trkpt>
<trkpt lat="48.897647" lon="20.052047">
<ele>1514.5</ele>
<desc>Speed 6.0 km/h Distance 7.31 km</desc>
<time>2013-07-23T15:03:52.83</time>
<name>3687</name>
<sym>Dot</sym>
</trkpt>
<trkpt lat="48.897663" lon="20.052032">
<ele>1513.5</ele>
<desc>Speed 7.9 km/h Distance 7.31 km</desc>
<time>2013-07-23T15:03:53.82</time>
<name>3688</name>
<sym>Dot</sym>
</trkpt>
<trkpt lat="48.897680" lon="20.052020">
<ele>1513.5</ele>
<desc>Speed 7.3 km/h Distance 7.32 km</desc>
<time>2013-07-23T15:03:54.82</time>
<name>3689</name>
<sym>Dot</sym>
</trkpt>
<trkpt lat="48.897698" lon="20.052008">
<ele>1514.0</ele>
<desc>Speed 8.1 km/h Distance 7.32 km</desc>
<time>2013-07-23T15:03:55.82</time>
<name>3690</name>
<sym>Dot</sym>
</trkpt>
<trkpt lat="48.897712" lon="20.051967">
<ele>1513.5</ele>
<desc>Speed 13.0 km/h Distance 7.32 km</desc>
<time>2013-07-23T15:03:56.81</time>
<name>3691</name>
<sym>Dot</sym>
</trkpt>
<trkpt lat="48.897727" lon="20.051938">
<ele>1513.0</ele>
<desc>Speed 10.0 km/h Distance 7.32 km</desc>
<time>2013-07-23T15:03:57.81</time>
<name>3692</name>
<sym>Dot</sym>
</trkpt>
<trkpt lat="48.897748" lon="20.051922">
<ele>1513.5</ele>
<desc>Speed 10.4 km/h Distance 7.33 km</desc>
<time>2013-07-23T15:03:58.80</time>
<name>3693</name>
<sym>Dot</sym>
</trkpt>
<trkpt lat="48.897773" lon="20.051902">
<ele>1513.5</ele>
<desc>Speed 12.0 km/h Distance 7.33 km</desc>
<time>2013-07-23T15:03:59.80</time>
<name>3694</name>
<sym>Dot</sym>
</trkpt>
<trkpt lat="48.897798" lon="20.051888">
<ele>1513.5</ele>
<desc>Speed 11.7 km/h Distance 7.33 km</desc>
<time>2013-07-23T15:04:00.79</time>
<name>3695</name>
<sym>Dot</sym>
</trkpt>
<trkpt lat="48.897823" lon="20.051878">
<ele>1514.0</ele>
<desc>Speed 11.0 km/h Distance 7.34 km</desc>
<time>2013-07-23T15:04:01.79</time>
<name>3696</name>
<sym>Dot</sym>
</trkpt>
<trkpt lat="48.897838" lon="20.051873">
<ele>1514.5</ele>
<desc>Speed 7.2 km/h Distance 7.34 km</desc>
<time>2013-07-23T15:04:02.78</time>
<name>3697</name>
<sym>Dot</sym>
</trkpt>
<trkpt lat="48.897853" lon="20.051865">
<ele>1514.0</ele>
<desc>Speed 7.0 km/h Distance 7.34 km</desc>
<time>2013-07-23T15:04:03.77</time>
<name>3698</name>
<sym>Dot</sym>
</trkpt>
<trkpt lat="48.897873" lon="20.051858">
<ele>1515.0</ele>
<desc>Speed 8.1 km/h Distance 7.34 km</desc>
<time>2013-07-23T15:04:04.77</time>
<name>3699</name>
<sym>Dot</sym>
</trkpt>
<trkpt lat="48.897887" lon="20.051850">
<ele>1515.5</ele>
<desc>Speed 5.8 km/h Distance 7.34 km</desc>
<time>2013-07-23T15:04:05.76</time>
<name>3700</name>
<sym>Dot</sym>
</trkpt>
<trkpt lat="48.897897" lon="20.051843">
<ele>1516.0</ele>
<desc>Speed 4.9 km/h Distance 7.34 km</desc>
<time>2013-07-23T15:04:06.75</time>
<name>3701</name>
<sym>Dot</sym>
</trkpt>
<trkpt lat="48.897903" lon="20.051840">
<ele>1516.5</ele>
<desc>Speed 3.6 km/h Distance 7.35 km</desc>
<time>2013-07-23T15:04:07.75</time>
<name>3702</name>
<sym>Dot</sym>
</trkpt>
<trkpt lat="48.897937" lon="20.051885">
<ele>1518.5</ele>
<desc>Speed 4.6 km/h Distance 7.35 km</desc>
<time>2013-07-23T15:04:13.75</time>
<name>3703</name>
<sym>Dot</sym>
</trkpt>
<trkpt lat="48.897947" lon="20.051880">
<ele>1518.0</ele>
<desc>Speed 3.6 km/h Distance 7.35 km</desc>
<time>2013-07-23T15:04:14.74</time>
<name>3704</name>
<sym>Dot</sym>
</trkpt>
<trkpt lat="48.897955" lon="20.051882">
<ele>1518.0</ele>
<desc>Speed 3.6 km/h Distance 7.35 km</desc>
<time>2013-07-23T15:04:15.74</time>
<name>3705</name>
<sym>Dot</sym>
</trkpt>
<trkpt lat="48.897968" lon="20.051872">
<ele>1518.0</ele>
<desc>Speed 6.2 km/h Distance 7.35 km</desc>
<time>2013-07-23T15:04:16.75</time>
<name>3706</name>
<sym>Dot</sym>
</trkpt>
<trkpt lat="48.897975" lon="20.051857">
<ele>1518.0</ele>
<desc>Speed 5.1 km/h Distance 7.36 km</desc>
<time>2013-07-23T15:04:17.74</time>
<name>3707</name>
<sym>Dot</sym>
</trkpt>
<trkpt lat="48.897993" lon="20.051842">
<ele>1518.0</ele>
<desc>Speed 8.5 km/h Distance 7.36 km</desc>
<time>2013-07-23T15:04:18.72</time>
<name>3708</name>
<sym>Dot</sym>
</trkpt>
<trkpt lat="48.898015" lon="20.051835">
<ele>1519.0</ele>
<desc>Speed 8.7 km/h Distance 7.36 km</desc>
<time>2013-07-23T15:04:19.72</time>
<name>3709</name>
<sym>Dot</sym>
</trkpt>
<trkpt lat="48.898025" lon="20.051815">
<ele>1519.0</ele>
<desc>Speed 6.9 km/h Distance 7.36 km</desc>
<time>2013-07-23T15:04:20.71</time>
<name>3710</name>
<sym>Dot</sym>
</trkpt>
<trkpt lat="48.898038" lon="20.051797">
<ele>1519.0</ele>
<desc>Speed 7.3 km/h Distance 7.36 km</desc>
<time>2013-07-23T15:04:21.71</time>
<name>3711</name>
<sym>Dot</sym>
</trkpt>
<trkpt lat="48.898047" lon="20.051767">
<ele>1518.5</ele>
<desc>Speed 7.7 km/h Distance 7.37 km</desc>
<time>2013-07-23T15:04:22.71</time>
<name>3712</name>
<sym>Dot</sym>
</trkpt>
<trkpt lat="48.898060" lon="20.051748">
<ele>1518.5</ele>
<desc>Speed 8.0 km/h Distance 7.37 km</desc>
<time>2013-07-23T15:04:23.70</time>
<name>3713</name>
<sym>Dot</sym>
</trkpt>
<trkpt lat="48.898073" lon="20.051730">
<ele>1518.5</ele>
<desc>Speed 7.3 km/h Distance 7.37 km</desc>
<time>2013-07-23T15:04:24.69</time>
<name>3714</name>
<sym>Dot</sym>
</trkpt>
<trkpt lat="48.898088" lon="20.051710">
<ele>1518.5</ele>
<desc>Speed 7.8 km/h Distance 7.37 km</desc>
<time>2013-07-23T15:04:25.69</time>
<name>3715</name>
<sym>Dot</sym>
</trkpt>
<trkpt lat="48.898105" lon="20.051685">
<ele>1518.0</ele>
<desc>Speed 8.8 km/h Distance 7.38 km</desc>
<time>2013-07-23T15:04:26.69</time>
<name>3716</name>
<sym>Dot</sym>
</trkpt>
<trkpt lat="48.898120" lon="20.051660">
<ele>1518.0</ele>
<desc>Speed 8.5 km/h Distance 7.38 km</desc>
<time>2013-07-23T15:04:27.68</time>
<name>3717</name>
<sym>Dot</sym>
</trkpt>
<trkpt lat="48.898128" lon="20.051630">
<ele>1518.0</ele>
<desc>Speed 7.7 km/h Distance 7.38 km</desc>
<time>2013-07-23T15:04:28.67</time>
<name>3718</name>
<sym>Dot</sym>
</trkpt>
<trkpt lat="48.898137" lon="20.051612">
<ele>1518.0</ele>
<desc>Speed 5.4 km/h Distance 7.38 km</desc>
<time>2013-07-23T15:04:29.67</time>
<name>3719</name>
<sym>Dot</sym>
</trkpt>
<trkpt lat="48.898143" lon="20.051597">
<ele>1518.0</ele>
<desc>Speed 4.6 km/h Distance 7.38 km</desc>
<time>2013-07-23T15:04:30.66</time>
<name>3720</name>
<sym>Dot</sym>
</trkpt>
<trkpt lat="48.898155" lon="20.051582">
<ele>1518.0</ele>
<desc>Speed 5.7 km/h Distance 7.38 km</desc>
<time>2013-07-23T15:04:31.65</time>
<name>3721</name>
<sym>Dot</sym>
</trkpt>
<trkpt lat="48.898163" lon="20.051560">
<ele>1518.0</ele>
<desc>Speed 6.3 km/h Distance 7.39 km</desc>
<time>2013-07-23T15:04:32.64</time>
<name>3722</name>
<sym>Dot</sym>
</trkpt>
<trkpt lat="48.898170" lon="20.051538">
<ele>1518.0</ele>
<desc>Speed 5.4 km/h Distance 7.39 km</desc>
<time>2013-07-23T15:04:33.64</time>
<name>3723</name>
<sym>Dot</sym>
</trkpt>
<trkpt lat="48.898170" lon="20.051522">
<ele>1517.5</ele>
<desc>Speed 2.5 km/h Distance 7.39 km</desc>
<time>2013-07-23T15:04:34.63</time>
<name>3724</name>
<sym>Dot</sym>
</trkpt>
<trkpt lat="48.898172" lon="20.051505">
<ele>1517.5</ele>
<desc>Speed 2.4 km/h Distance 7.39 km</desc>
<time>2013-07-23T15:04:35.62</time>
<name>3725</name>
<sym>Dot</sym>
</trkpt>
<trkpt lat="48.898172" lon="20.051477">
<ele>1517.0</ele>
<desc>Speed 3.5 km/h Distance 7.39 km</desc>
<time>2013-07-23T15:04:37.62</time>
<name>3726</name>
<sym>Dot</sym>
</trkpt>
<trkpt lat="48.898202" lon="20.051460">
<ele>1516.5</ele>
<desc>Speed 4.4 km/h Distance 7.40 km</desc>
<time>2013-07-23T15:04:46.62</time>
<name>3727</name>
<sym>Dot</sym>
</trkpt>
<trkpt lat="48.898190" lon="20.051455">
<ele>1514.5</ele>
<desc>Speed 3.0 km/h Distance 7.40 km</desc>
<time>2013-07-23T15:04:52.61</time>
<name>3728</name>
<sym>Dot</sym>
</trkpt>
<trkpt lat="48.898213" lon="20.051438">
<ele>1513.5</ele>
<desc>Speed 4.5 km/h Distance 7.40 km</desc>
<time>2013-07-23T15:05:00.61</time>
<name>3729</name>
<sym>Dot</sym>
</trkpt>
<trkpt lat="48.898222" lon="20.051428">
<ele>1512.5</ele>
<desc>Speed 3.3 km/h Distance 7.40 km</desc>
<time>2013-07-23T15:05:02.60</time>
<name>3730</name>
<sym>Dot</sym>
</trkpt>
<trkpt lat="48.898228" lon="20.051428">
<ele>1513.0</ele>
<desc>Speed 2.9 km/h Distance 7.40 km</desc>
<time>2013-07-23T15:05:06.60</time>
<name>3731</name>
<sym>Dot</sym>
</trkpt>
<trkpt lat="48.898230" lon="20.051425">
<ele>1512.5</ele>
<desc>Speed 2.2 km/h Distance 7.40 km</desc>
<time>2013-07-23T15:05:13.59</time>
<name>3732</name>
<sym>Dot</sym>
</trkpt>
<trkpt lat="48.898228" lon="20.051432">
<ele>1513.0</ele>
<desc>Speed 2.9 km/h Distance 7.40 km</desc>
<time>2013-07-23T15:05:14.59</time>
<name>3733</name>
<sym>Dot</sym>
</trkpt>
<trkpt lat="48.898183" lon="20.051423">
<ele>1512.0</ele>
<desc>Speed 5.3 km/h Distance 7.41 km</desc>
<time>2013-07-23T15:05:17.58</time>
<name>3734</name>
<sym>Dot</sym>
</trkpt>
<trkpt lat="48.898192" lon="20.051423">
<ele>1513.0</ele>
<desc>Speed 2.4 km/h Distance 7.41 km</desc>
<time>2013-07-23T15:05:18.58</time>
<name>3735</name>
<sym>Dot</sym>
</trkpt>
<trkpt lat="48.898172" lon="20.051433">
<ele>1513.5</ele>
<desc>Speed 5.2 km/h Distance 7.41 km</desc>
<time>2013-07-23T15:05:22.57</time>
<name>3736</name>
<sym>Dot</sym>
</trkpt>
<trkpt lat="48.898193" lon="20.051428">
<ele>1514.0</ele>
<desc>Speed 4.0 km/h Distance 7.41 km</desc>
<time>2013-07-23T15:05:24.56</time>
<name>3737</name>
<sym>Dot</sym>
</trkpt>
<trkpt lat="48.898162" lon="20.051445">
<ele>1513.0</ele>
<desc>Speed 7.3 km/h Distance 7.42 km</desc>
<time>2013-07-23T15:05:42.56</time>
<name>3738</name>
<sym>Dot</sym>
</trkpt>
<trkpt lat="48.898175" lon="20.051425">
<ele>1510.5</ele>
<desc>Speed 7.3 km/h Distance 7.42 km</desc>
<time>2013-07-23T15:05:43.56</time>
<name>3739</name>
<sym>Dot</sym>
</trkpt>
<trkpt lat="48.898183" lon="20.051413">
<ele>1509.0</ele>
<desc>Speed 7.3 km/h Distance 7.42 km</desc>
<time>2013-07-23T15:05:44.55</time>
<name>3740</name>
<sym>Dot</sym>
</trkpt>
<trkpt lat="48.898183" lon="20.051463">
<ele>1511.5</ele>
<desc>Speed 7.3 km/h Distance 7.42 km</desc>
<time>2013-07-23T15:05:45.57</time>
<name>3741</name>
<sym>Dot</sym>
</trkpt>
<trkpt lat="48.898185" lon="20.051483">
<ele>1511.0</ele>
<desc>Speed 7.3 km/h Distance 7.43 km</desc>
<time>2013-07-23T15:05:46.54</time>
<name>3742</name>
<sym>Dot</sym>
</trkpt>
<trkpt lat="48.898180" lon="20.051488">
<ele>1511.5</ele>
<desc>Speed 7.3 km/h Distance 7.43 km</desc>
<time>2013-07-23T15:05:47.53</time>
<name>3743</name>
<sym>Dot</sym>
</trkpt>
<trkpt lat="48.898178" lon="20.051488">
<ele>1511.5</ele>
<desc>Speed 7.3 km/h Distance 7.43 km</desc>
<time>2013-07-23T15:05:48.53</time>
<name>3744</name>
<sym>Dot</sym>
</trkpt>
<trkpt lat="48.898183" lon="20.051487">
<ele>1512.5</ele>
<desc>Speed 7.3 km/h Distance 7.43 km</desc>
<time>2013-07-23T15:05:49.53</time>
<name>3745</name>
<sym>Dot</sym>
</trkpt>
<trkpt lat="48.898192" lon="20.051483">
<ele>1514.0</ele>
<desc>Speed 7.3 km/h Distance 7.43 km</desc>
<time>2013-07-23T15:05:50.52</time>
<name>3746</name>
<sym>Dot</sym>
</trkpt>
<trkpt lat="48.898200" lon="20.051483">
<ele>1514.5</ele>
<desc>Speed 7.3 km/h Distance 7.43 km</desc>
<time>2013-07-23T15:05:51.52</time>
<name>3747</name>
<sym>Dot</sym>
</trkpt>
<trkpt lat="48.898213" lon="20.051480">
<ele>1516.5</ele>
<desc>Speed 7.3 km/h Distance 7.43 km</desc>
<time>2013-07-23T15:05:52.51</time>
<name>3748</name>
<sym>Dot</sym>
</trkpt>
<trkpt lat="48.898217" lon="20.051480">
<ele>1517.0</ele>
<desc>Speed 7.3 km/h Distance 7.43 km</desc>
<time>2013-07-23T15:05:53.51</time>
<name>3749</name>
<sym>Dot</sym>
</trkpt>
<trkpt lat="48.898228" lon="20.051470">
<ele>1517.5</ele>
<desc>Speed 2.4 km/h Distance 7.43 km</desc>
<time>2013-07-23T15:05:54.50</time>
<name>3750</name>
<sym>Dot</sym>
</trkpt>
<trkpt lat="48.898238" lon="20.051465">
<ele>1518.0</ele>
<desc>Speed 2.4 km/h Distance 7.43 km</desc>
<time>2013-07-23T15:05:55.50</time>
<name>3751</name>
<sym>Dot</sym>
</trkpt>
<trkpt lat="48.898245" lon="20.051462">
<ele>1518.5</ele>
<desc>Speed 2.4 km/h Distance 7.43 km</desc>
<time>2013-07-23T15:05:56.49</time>
<name>3752</name>
<sym>Dot</sym>
</trkpt>
<trkpt lat="48.898250" lon="20.051460">
<ele>1518.5</ele>
<desc>Speed 2.4 km/h Distance 7.44 km</desc>
<time>2013-07-23T15:05:57.49</time>
<name>3753</name>
<sym>Dot</sym>
</trkpt>
<trkpt lat="48.898255" lon="20.051457">
<ele>1518.5</ele>
<desc>Speed 2.4 km/h Distance 7.44 km</desc>
<time>2013-07-23T15:05:58.48</time>
<name>3754</name>
<sym>Dot</sym>
</trkpt>
<trkpt lat="48.898260" lon="20.051438">
<ele>1518.5</ele>
<desc>Speed 2.6 km/h Distance 7.44 km</desc>
<time>2013-07-23T15:06:03.48</time>
<name>3755</name>
<sym>Dot</sym>
</trkpt>
<trkpt lat="48.898275" lon="20.051452">
<ele>1518.0</ele>
<desc>Speed 2.9 km/h Distance 7.44 km</desc>
<time>2013-07-23T15:06:09.48</time>
<name>3756</name>
<sym>Dot</sym>
</trkpt>
<trkpt lat="48.898260" lon="20.051468">
<ele>1518.5</ele>
<desc>Speed 2.6 km/h Distance 7.44 km</desc>
<time>2013-07-23T15:06:26.47</time>
<name>3757</name>
<sym>Dot</sym>
</trkpt>
<trkpt lat="48.898247" lon="20.051470">
<ele>1518.0</ele>
<desc>Speed 3.6 km/h Distance 7.44 km</desc>
<time>2013-07-23T15:06:27.47</time>
<name>3758</name>
<sym>Dot</sym>
</trkpt>
<trkpt lat="48.898260" lon="20.051488">
<ele>1518.0</ele>
<desc>Speed 4.4 km/h Distance 7.44 km</desc>
<time>2013-07-23T15:06:28.47</time>
<name>3759</name>
<sym>Dot</sym>
</trkpt>
<trkpt lat="48.898275" lon="20.051497">
<ele>1518.0</ele>
<desc>Speed 4.4 km/h Distance 7.45 km</desc>
<time>2013-07-23T15:06:29.46</time>
<name>3760</name>
<sym>Dot</sym>
</trkpt>
<trkpt lat="48.898285" lon="20.051500">
<ele>1518.0</ele>
<desc>Speed 4.4 km/h Distance 7.45 km</desc>
<time>2013-07-23T15:06:30.46</time>
<name>3761</name>
<sym>Dot</sym>
</trkpt>
<trkpt lat="48.898260" lon="20.051497">
<ele>1518.0</ele>
<desc>Speed 2.8 km/h Distance 7.45 km</desc>
<time>2013-07-23T15:06:34.46</time>
<name>3762</name>
<sym>Dot</sym>
</trkpt>
<trkpt lat="48.898263" lon="20.051507">
<ele>1517.5</ele>
<desc>Speed 2.8 km/h Distance 7.45 km</desc>
<time>2013-07-23T15:06:35.45</time>
<name>3763</name>
<sym>Dot</sym>
</trkpt>
<trkpt lat="48.898265" lon="20.051507">
<ele>1517.5</ele>
<desc>Speed 2.8 km/h Distance 7.45 km</desc>
<time>2013-07-23T15:06:36.44</time>
<name>3764</name>
<sym>Dot</sym>
</trkpt>
<trkpt lat="48.898328" lon="20.051522">
<ele>1518.0</ele>
<desc>Speed 3.5 km/h Distance 7.46 km</desc>
<time>2013-07-23T15:06:44.44</time>
<name>3765</name>
<sym>Dot</sym>
</trkpt>
<trkpt lat="48.898323" lon="20.051505">
<ele>1517.5</ele>
<desc>Speed 5.0 km/h Distance 7.46 km</desc>
<time>2013-07-23T15:06:49.44</time>
<name>3766</name>
<sym>Dot</sym>
</trkpt>
<trkpt lat="48.898307" lon="20.051495">
<ele>1517.5</ele>
<desc>Speed 5.0 km/h Distance 7.46 km</desc>
<time>2013-07-23T15:06:50.43</time>
<name>3767</name>
<sym>Dot</sym>
</trkpt>
<trkpt lat="48.898307" lon="20.051495">
<ele>1517.5</ele>
<desc>Speed 5.0 km/h Distance 7.46 km</desc>
<time>2013-07-23T15:06:51.43</time>
<name>3768</name>
<sym>Dot</sym>
</trkpt>
<trkpt lat="48.898307" lon="20.051492">
<ele>1517.5</ele>
<desc>Speed 5.0 km/h Distance 7.46 km</desc>
<time>2013-07-23T15:06:52.42</time>
<name>3769</name>
<sym>Dot</sym>
</trkpt>
<trkpt lat="48.898345" lon="20.051485">
<ele>1518.0</ele>
<desc>Speed 4.2 km/h Distance 7.47 km</desc>
<time>2013-07-23T15:06:56.42</time>
<name>3770</name>
<sym>Dot</sym>
</trkpt>
<trkpt lat="48.898372" lon="20.051475">
<ele>1518.0</ele>
<desc>Speed 4.2 km/h Distance 7.47 km</desc>
<time>2013-07-23T15:06:57.41</time>
<name>3771</name>
<sym>Dot</sym>
</trkpt>
<trkpt lat="48.898387" lon="20.051478">
<ele>1517.5</ele>
<desc>Speed 4.2 km/h Distance 7.47 km</desc>
<time>2013-07-23T15:06:58.41</time>
<name>3772</name>
<sym>Dot</sym>
</trkpt>
<trkpt lat="48.898398" lon="20.051487">
<ele>1517.5</ele>
<desc>Speed 4.2 km/h Distance 7.47 km</desc>
<time>2013-07-23T15:06:59.40</time>
<name>3773</name>
<sym>Dot</sym>
</trkpt>
<trkpt lat="48.898400" lon="20.051493">
<ele>1517.5</ele>
<desc>Speed 4.2 km/h Distance 7.47 km</desc>
<time>2013-07-23T15:07:00.39</time>
<name>3774</name>
<sym>Dot</sym>
</trkpt>
<trkpt lat="48.898397" lon="20.051488">
<ele>1517.5</ele>
<desc>Speed 2.2 km/h Distance 7.47 km</desc>
<time>2013-07-23T15:07:01.39</time>
<name>3775</name>
<sym>Dot</sym>
</trkpt>
<trkpt lat="48.898398" lon="20.051512">
<ele>1517.5</ele>
<desc>Speed 2.3 km/h Distance 7.48 km</desc>
<time>2013-07-23T15:07:03.39</time>
<name>3776</name>
<sym>Dot</sym>
</trkpt>
<trkpt lat="48.898365" lon="20.051503">
<ele>1517.0</ele>
<desc>Speed 2.6 km/h Distance 7.48 km</desc>
<time>2013-07-23T15:07:06.39</time>
<name>3777</name>
<sym>Dot</sym>
</trkpt>
<trkpt lat="48.898283" lon="20.051492">
<ele>1514.5</ele>
<desc>Speed 5.9 km/h Distance 7.49 km</desc>
<time>2013-07-23T15:07:20.38</time>
<name>3778</name>
<sym>Dot</sym>
</trkpt>
<trkpt lat="48.898282" lon="20.051493">
<ele>1514.5</ele>
<desc>Speed 2.3 km/h Distance 7.49 km</desc>
<time>2013-07-23T15:07:21.38</time>
<name>3779</name>
<sym>Dot</sym>
</trkpt>
<trkpt lat="48.898245" lon="20.051500">
<ele>1516.0</ele>
<desc>Speed 3.1 km/h Distance 7.49 km</desc>
<time>2013-07-23T15:07:28.37</time>
<name>3780</name>
<sym>Dot</sym>
</trkpt>
<trkpt lat="48.898243" lon="20.051503">
<ele>1516.0</ele>
<desc>Speed 3.1 km/h Distance 7.49 km</desc>
<time>2013-07-23T15:07:29.36</time>
<name>3781</name>
<sym>Dot</sym>
</trkpt>
<trkpt lat="48.898230" lon="20.051495">
<ele>1516.0</ele>
<desc>Speed 4.3 km/h Distance 7.49 km</desc>
<time>2013-07-23T15:07:30.36</time>
<name>3782</name>
<sym>Dot</sym>
</trkpt>
<trkpt lat="48.898200" lon="20.051457">
<ele>1514.0</ele>
<desc>Speed 2.3 km/h Distance 7.50 km</desc>
<time>2013-07-23T15:07:42.35</time>
<name>3783</name>
<sym>Dot</sym>
</trkpt>
<trkpt lat="48.898200" lon="20.051467">
<ele>1514.0</ele>
<desc>Speed 3.4 km/h Distance 7.50 km</desc>
<time>2013-07-23T15:07:47.35</time>
<name>3784</name>
<sym>Dot</sym>
</trkpt>
<trkpt lat="48.898198" lon="20.051472">
<ele>1513.5</ele>
<desc>Speed 2.2 km/h Distance 7.50 km</desc>
<time>2013-07-23T15:07:49.34</time>
<name>3785</name>
<sym>Dot</sym>
</trkpt>
<trkpt lat="48.898198" lon="20.051470">
<ele>1514.0</ele>
<desc>Speed 2.3 km/h Distance 7.50 km</desc>
<time>2013-07-23T15:07:52.33</time>
<name>3786</name>
<sym>Dot</sym>
</trkpt>
<trkpt lat="48.898238" lon="20.051428">
<ele>1515.0</ele>
<desc>Speed 3.9 km/h Distance 7.51 km</desc>
<time>2013-07-23T15:08:06.33</time>
<name>3787</name>
<sym>Dot</sym>
</trkpt>
<trkpt lat="48.898280" lon="20.051420">
<ele>1514.0</ele>
<desc>Speed 3.3 km/h Distance 7.51 km</desc>
<time>2013-07-23T15:08:10.32</time>
<name>3788</name>
<sym>Dot</sym>
</trkpt>
<trkpt lat="48.898285" lon="20.051422">
<ele>1514.0</ele>
<desc>Speed 2.2 km/h Distance 7.51 km</desc>
<time>2013-07-23T15:08:11.31</time>
<name>3789</name>
<sym>Dot</sym>
</trkpt>
<trkpt lat="48.898218" lon="20.051498">
<ele>1516.5</ele>
<desc>Speed 3.3 km/h Distance 7.52 km</desc>
<time>2013-07-23T15:08:24.31</time>
<name>3790</name>
<sym>Dot</sym>
</trkpt>
<trkpt lat="48.898190" lon="20.051515">
<ele>1517.5</ele>
<desc>Speed 2.2 km/h Distance 7.52 km</desc>
<time>2013-07-23T15:08:27.31</time>
<name>3791</name>
<sym>Dot</sym>
</trkpt>
<trkpt lat="48.898192" lon="20.051505">
<ele>1517.5</ele>
<desc>Speed 2.7 km/h Distance 7.52 km</desc>
<time>2013-07-23T15:08:28.31</time>
<name>3792</name>
<sym>Dot</sym>
</trkpt>
<trkpt lat="48.898195" lon="20.051493">
<ele>1517.5</ele>
<desc>Speed 3.9 km/h Distance 7.53 km</desc>
<time>2013-07-23T15:08:29.31</time>
<name>3793</name>
<sym>Dot</sym>
</trkpt>
<trkpt lat="48.898200" lon="20.051483">
<ele>1517.0</ele>
<desc>Speed 3.3 km/h Distance 7.53 km</desc>
<time>2013-07-23T15:08:30.31</time>
<name>3794</name>
<sym>Dot</sym>
</trkpt>
<trkpt lat="48.898208" lon="20.051473">
<ele>1517.0</ele>
<desc>Speed 3.3 km/h Distance 7.53 km</desc>
<time>2013-07-23T15:08:31.31</time>
<name>3795</name>
<sym>Dot</sym>
</trkpt>
<trkpt lat="48.898217" lon="20.051465">
<ele>1517.5</ele>
<desc>Speed 3.1 km/h Distance 7.53 km</desc>
<time>2013-07-23T15:08:32.30</time>
<name>3796</name>
<sym>Dot</sym>
</trkpt>
<trkpt lat="48.898227" lon="20.051457">
<ele>1518.0</ele>
<desc>Speed 2.9 km/h Distance 7.53 km</desc>
<time>2013-07-23T15:08:34.30</time>
<name>3797</name>
<sym>Dot</sym>
</trkpt>
<trkpt lat="48.898238" lon="20.051443">
<ele>1517.5</ele>
<desc>Speed 3.1 km/h Distance 7.53 km</desc>
<time>2013-07-23T15:08:36.30</time>
<name>3798</name>
<sym>Dot</sym>
</trkpt>
<trkpt lat="48.898243" lon="20.051432">
<ele>1517.5</ele>
<desc>Speed 3.2 km/h Distance 7.53 km</desc>
<time>2013-07-23T15:08:37.29</time>
<name>3799</name>
<sym>Dot</sym>
</trkpt>
<trkpt lat="48.898248" lon="20.051422">
<ele>1516.5</ele>
<desc>Speed 2.4 km/h Distance 7.53 km</desc>
<time>2013-07-23T15:08:38.28</time>
<name>3800</name>
<sym>Dot</sym>
</trkpt>
<trkpt lat="48.898255" lon="20.051410">
<ele>1516.5</ele>
<desc>Speed 2.2 km/h Distance 7.53 km</desc>
<time>2013-07-23T15:08:40.27</time>
<name>3801</name>
<sym>Dot</sym>
</trkpt>
<trkpt lat="48.898263" lon="20.051402">
<ele>1516.5</ele>
<desc>Speed 2.6 km/h Distance 7.54 km</desc>
<time>2013-07-23T15:08:41.27</time>
<name>3802</name>
<sym>Dot</sym>
</trkpt>
<trkpt lat="48.898268" lon="20.051388">
<ele>1516.5</ele>
<desc>Speed 2.3 km/h Distance 7.54 km</desc>
<time>2013-07-23T15:08:42.27</time>
<name>3803</name>
<sym>Dot</sym>
</trkpt>
<trkpt lat="48.898275" lon="20.051372">
<ele>1516.5</ele>
<desc>Speed 2.9 km/h Distance 7.54 km</desc>
<time>2013-07-23T15:08:43.27</time>
<name>3804</name>
<sym>Dot</sym>
</trkpt>
<trkpt lat="48.898282" lon="20.051360">
<ele>1517.0</ele>
<desc>Speed 3.6 km/h Distance 7.54 km</desc>
<time>2013-07-23T15:08:44.27</time>
<name>3805</name>
<sym>Dot</sym>
</trkpt>
<trkpt lat="48.898290" lon="20.051353">
<ele>1517.5</ele>
<desc>Speed 2.7 km/h Distance 7.54 km</desc>
<time>2013-07-23T15:08:45.26</time>
<name>3806</name>
<sym>Dot</sym>
</trkpt>
<trkpt lat="48.898297" lon="20.051343">
<ele>1518.0</ele>
<desc>Speed 3.0 km/h Distance 7.54 km</desc>
<time>2013-07-23T15:08:46.25</time>
<name>3807</name>
<sym>Dot</sym>
</trkpt>
<trkpt lat="48.898302" lon="20.051333">
<ele>1518.0</ele>
<desc>Speed 3.7 km/h Distance 7.54 km</desc>
<time>2013-07-23T15:08:47.25</time>
<name>3808</name>
<sym>Dot</sym>
</trkpt>
<trkpt lat="48.898307" lon="20.051322">
<ele>1518.0</ele>
<desc>Speed 4.0 km/h Distance 7.54 km</desc>
<time>2013-07-23T15:08:48.24</time>
<name>3809</name>
<sym>Dot</sym>
</trkpt>
<trkpt lat="48.898312" lon="20.051312">
<ele>1518.0</ele>
<desc>Speed 3.6 km/h Distance 7.54 km</desc>
<time>2013-07-23T15:08:49.30</time>
<name>3810</name>
<sym>Dot</sym>
</trkpt>
<trkpt lat="48.898320" lon="20.051308">
<ele>1519.5</ele>
<desc>Speed 2.4 km/h Distance 7.55 km</desc>
<time>2013-07-23T15:08:50.28</time>
<name>3811</name>
<sym>Dot</sym>
</trkpt>
<trkpt lat="48.898327" lon="20.051290">
<ele>1519.5</ele>
<desc>Speed 4.3 km/h Distance 7.55 km</desc>
<time>2013-07-23T15:08:51.22</time>
<name>3812</name>
<sym>Dot</sym>
</trkpt>
<trkpt lat="48.898335" lon="20.051277">
<ele>1519.0</ele>
<desc>Speed 3.0 km/h Distance 7.55 km</desc>
<time>2013-07-23T15:08:52.22</time>
<name>3813</name>
<sym>Dot</sym>
</trkpt>
<trkpt lat="48.898338" lon="20.051252">
<ele>1517.5</ele>
<desc>Speed 6.3 km/h Distance 7.55 km</desc>
<time>2013-07-23T15:08:53.21</time>
<name>3814</name>
<sym>Dot</sym>
</trkpt>
<trkpt lat="48.898347" lon="20.051233">
<ele>1517.0</ele>
<desc>Speed 3.6 km/h Distance 7.55 km</desc>
<time>2013-07-23T15:08:54.21</time>
<name>3815</name>
<sym>Dot</sym>
</trkpt>
<trkpt lat="48.898352" lon="20.051213">
<ele>1516.5</ele>
<desc>Speed 3.5 km/h Distance 7.55 km</desc>
<time>2013-07-23T15:08:55.21</time>
<name>3816</name>
<sym>Dot</sym>
</trkpt>
<trkpt lat="48.898358" lon="20.051192">
<ele>1516.5</ele>
<desc>Speed 3.6 km/h Distance 7.55 km</desc>
<time>2013-07-23T15:08:56.20</time>
<name>3817</name>
<sym>Dot</sym>
</trkpt>
<trkpt lat="48.898367" lon="20.051172">
<ele>1517.0</ele>
<desc>Speed 4.4 km/h Distance 7.56 km</desc>
<time>2013-07-23T15:08:57.19</time>
<name>3818</name>
<sym>Dot</sym>
</trkpt>
<trkpt lat="48.898372" lon="20.051157">
<ele>1517.0</ele>
<desc>Speed 4.4 km/h Distance 7.56 km</desc>
<time>2013-07-23T15:08:58.19</time>
<name>3819</name>
<sym>Dot</sym>
</trkpt>
<trkpt lat="48.898380" lon="20.051138">
<ele>1517.0</ele>
<desc>Speed 2.9 km/h Distance 7.56 km</desc>
<time>2013-07-23T15:08:59.19</time>
<name>3820</name>
<sym>Dot</sym>
</trkpt>
<trkpt lat="48.898387" lon="20.051120">
<ele>1517.5</ele>
<desc>Speed 2.9 km/h Distance 7.56 km</desc>
<time>2013-07-23T15:09:00.19</time>
<name>3821</name>
<sym>Dot</sym>
</trkpt>
<trkpt lat="48.898393" lon="20.051108">
<ele>1517.5</ele>
<desc>Speed 2.5 km/h Distance 7.56 km</desc>
<time>2013-07-23T15:09:01.29</time>
<name>3822</name>
<sym>Dot</sym>
</trkpt>
<trkpt lat="48.898400" lon="20.051090">
<ele>1517.5</ele>
<desc>Speed 3.3 km/h Distance 7.56 km</desc>
<time>2013-07-23T15:09:02.18</time>
<name>3823</name>
<sym>Dot</sym>
</trkpt>
<trkpt lat="48.898405" lon="20.051077">
<ele>1517.5</ele>
<desc>Speed 4.0 km/h Distance 7.56 km</desc>
<time>2013-07-23T15:09:03.18</time>
<name>3824</name>
<sym>Dot</sym>
</trkpt>
<trkpt lat="48.898413" lon="20.051060">
<ele>1517.5</ele>
<desc>Speed 3.1 km/h Distance 7.57 km</desc>
<time>2013-07-23T15:09:04.17</time>
<name>3825</name>
<sym>Dot</sym>
</trkpt>
<trkpt lat="48.898420" lon="20.051042">
<ele>1517.0</ele>
<desc>Speed 5.1 km/h Distance 7.57 km</desc>
<time>2013-07-23T15:09:05.17</time>
<name>3826</name>
<sym>Dot</sym>
</trkpt>
<trkpt lat="48.898428" lon="20.051028">
<ele>1517.5</ele>
<desc>Speed 3.7 km/h Distance 7.57 km</desc>
<time>2013-07-23T15:09:06.17</time>
<name>3827</name>
<sym>Dot</sym>
</trkpt>
<trkpt lat="48.898437" lon="20.051015">
<ele>1517.5</ele>
<desc>Speed 4.5 km/h Distance 7.57 km</desc>
<time>2013-07-23T15:09:07.16</time>
<name>3828</name>
<sym>Dot</sym>
</trkpt>
<trkpt lat="48.898445" lon="20.051010">
<ele>1518.5</ele>
<desc>Speed 3.9 km/h Distance 7.57 km</desc>
<time>2013-07-23T15:09:08.16</time>
<name>3829</name>
<sym>Dot</sym>
</trkpt>
<trkpt lat="48.898455" lon="20.051010">
<ele>1520.0</ele>
<desc>Speed 2.9 km/h Distance 7.57 km</desc>
<time>2013-07-23T15:09:09.16</time>
<name>3830</name>
<sym>Dot</sym>
</trkpt>
<trkpt lat="48.898462" lon="20.051010">
<ele>1521.0</ele>
<desc>Speed 3.0 km/h Distance 7.57 km</desc>
<time>2013-07-23T15:09:10.15</time>
<name>3831</name>
<sym>Dot</sym>
</trkpt>
<trkpt lat="48.898468" lon="20.051002">
<ele>1521.0</ele>
<desc>Speed 2.3 km/h Distance 7.57 km</desc>
<time>2013-07-23T15:09:11.15</time>
<name>3832</name>
<sym>Dot</sym>
</trkpt>
<trkpt lat="48.898493" lon="20.051032">
<ele>1524.0</ele>
<desc>Speed 2.7 km/h Distance 7.58 km</desc>
<time>2013-07-23T15:09:24.22</time>
<name>3833</name>
<sym>Dot</sym>
</trkpt>
<trkpt lat="48.898502" lon="20.051018">
<ele>1524.0</ele>
<desc>Speed 4.2 km/h Distance 7.58 km</desc>
<time>2013-07-23T15:09:25.14</time>
<name>3834</name>
<sym>Dot</sym>
</trkpt>
<trkpt lat="48.898507" lon="20.051007">
<ele>1524.0</ele>
<desc>Speed 4.2 km/h Distance 7.58 km</desc>
<time>2013-07-23T15:09:26.13</time>
<name>3835</name>
<sym>Dot</sym>
</trkpt>
<trkpt lat="48.898515" lon="20.051000">
<ele>1524.0</ele>
<desc>Speed 3.3 km/h Distance 7.58 km</desc>
<time>2013-07-23T15:09:27.13</time>
<name>3836</name>
<sym>Dot</sym>
</trkpt>
<trkpt lat="48.898518" lon="20.050988">
<ele>1524.0</ele>
<desc>Speed 3.3 km/h Distance 7.58 km</desc>
<time>2013-07-23T15:09:28.12</time>
<name>3837</name>
<sym>Dot</sym>
</trkpt>
<trkpt lat="48.898515" lon="20.050963">
<ele>1524.5</ele>
<desc>Speed 5.0 km/h Distance 7.58 km</desc>
<time>2013-07-23T15:09:29.12</time>
<name>3838</name>
<sym>Dot</sym>
</trkpt>
<trkpt lat="48.898520" lon="20.050942">
<ele>1524.5</ele>
<desc>Speed 4.1 km/h Distance 7.59 km</desc>
<time>2013-07-23T15:09:30.12</time>
<name>3839</name>
<sym>Dot</sym>
</trkpt>
<trkpt lat="48.898525" lon="20.050928">
<ele>1524.5</ele>
<desc>Speed 3.2 km/h Distance 7.59 km</desc>
<time>2013-07-23T15:09:31.12</time>
<name>3840</name>
<sym>Dot</sym>
</trkpt>
<trkpt lat="48.898528" lon="20.050908">
<ele>1524.0</ele>
<desc>Speed 4.9 km/h Distance 7.59 km</desc>
<time>2013-07-23T15:09:32.11</time>
<name>3841</name>
<sym>Dot</sym>
</trkpt>
<trkpt lat="48.898528" lon="20.050885">
<ele>1523.5</ele>
<desc>Speed 3.2 km/h Distance 7.59 km</desc>
<time>2013-07-23T15:09:33.10</time>
<name>3842</name>
<sym>Dot</sym>
</trkpt>
<trkpt lat="48.898532" lon="20.050865">
<ele>1522.5</ele>
<desc>Speed 4.6 km/h Distance 7.59 km</desc>
<time>2013-07-23T15:09:34.10</time>
<name>3843</name>
<sym>Dot</sym>
</trkpt>
<trkpt lat="48.898542" lon="20.050857">
<ele>1522.5</ele>
<desc>Speed 3.3 km/h Distance 7.59 km</desc>
<time>2013-07-23T15:09:35.09</time>
<name>3844</name>
<sym>Dot</sym>
</trkpt>
<trkpt lat="48.898557" lon="20.050850">
<ele>1522.5</ele>
<desc>Speed 4.7 km/h Distance 7.59 km</desc>
<time>2013-07-23T15:09:36.10</time>
<name>3845</name>
<sym>Dot</sym>
</trkpt>
<trkpt lat="48.898568" lon="20.050842">
<ele>1522.5</ele>
<desc>Speed 3.7 km/h Distance 7.60 km</desc>
<time>2013-07-23T15:09:37.09</time>
<name>3846</name>
<sym>Dot</sym>
</trkpt>
<trkpt lat="48.898578" lon="20.050840">
<ele>1523.5</ele>
<desc>Speed 4.2 km/h Distance 7.60 km</desc>
<time>2013-07-23T15:09:38.09</time>
<name>3847</name>
<sym>Dot</sym>
</trkpt>
<trkpt lat="48.898640" lon="20.050848">
<ele>1525.0</ele>
<desc>Speed 6.8 km/h Distance 7.60 km</desc>
<time>2013-07-23T15:09:40.08</time>
<name>3848</name>
<sym>Dot</sym>
</trkpt>
<trkpt lat="48.898658" lon="20.050848">
<ele>1525.0</ele>
<desc>Speed 2.4 km/h Distance 7.61 km</desc>
<time>2013-07-23T15:09:41.08</time>
<name>3849</name>
<sym>Dot</sym>
</trkpt>
<trkpt lat="48.898693" lon="20.050860">
<ele>1525.5</ele>
<desc>Speed 3.3 km/h Distance 7.61 km</desc>
<time>2013-07-23T15:09:43.08</time>
<name>3850</name>
<sym>Dot</sym>
</trkpt>
<trkpt lat="48.898722" lon="20.050845">
<ele>1525.5</ele>
<desc>Speed 2.2 km/h Distance 7.61 km</desc>
<time>2013-07-23T15:09:59.10</time>
<name>3851</name>
<sym>Dot</sym>
</trkpt>
<trkpt lat="48.898725" lon="20.050833">
<ele>1525.0</ele>
<desc>Speed 2.2 km/h Distance 7.61 km</desc>
<time>2013-07-23T15:10:00.07</time>
<name>3852</name>
<sym>Dot</sym>
</trkpt>
<trkpt lat="48.898740" lon="20.050828">
<ele>1524.5</ele>
<desc>Speed 6.2 km/h Distance 7.62 km</desc>
<time>2013-07-23T15:10:01.07</time>
<name>3853</name>
<sym>Dot</sym>
</trkpt>
<trkpt lat="48.898755" lon="20.050828">
<ele>1524.5</ele>
<desc>Speed 6.2 km/h Distance 7.62 km</desc>
<time>2013-07-23T15:10:02.06</time>
<name>3854</name>
<sym>Dot</sym>
</trkpt>
<trkpt lat="48.898768" lon="20.050823">
<ele>1524.5</ele>
<desc>Speed 5.4 km/h Distance 7.62 km</desc>
<time>2013-07-23T15:10:03.06</time>
<name>3855</name>
<sym>Dot</sym>
</trkpt>
<trkpt lat="48.898780" lon="20.050815">
<ele>1524.0</ele>
<desc>Speed 5.4 km/h Distance 7.62 km</desc>
<time>2013-07-23T15:10:04.05</time>
<name>3856</name>
<sym>Dot</sym>
</trkpt>
<trkpt lat="48.898788" lon="20.050803">
<ele>1524.0</ele>
<desc>Speed 4.2 km/h Distance 7.62 km</desc>
<time>2013-07-23T15:10:05.05</time>
<name>3857</name>
<sym>Dot</sym>
</trkpt>
<trkpt lat="48.898792" lon="20.050795">
<ele>1524.0</ele>
<desc>Speed 4.2 km/h Distance 7.62 km</desc>
<time>2013-07-23T15:10:06.04</time>
<name>3858</name>
<sym>Dot</sym>
</trkpt>
<trkpt lat="48.898797" lon="20.050785">
<ele>1524.0</ele>
<desc>Speed 3.6 km/h Distance 7.62 km</desc>
<time>2013-07-23T15:10:07.04</time>
<name>3859</name>
<sym>Dot</sym>
</trkpt>
<trkpt lat="48.898802" lon="20.050772">
<ele>1524.0</ele>
<desc>Speed 5.1 km/h Distance 7.62 km</desc>
<time>2013-07-23T15:10:08.04</time>
<name>3860</name>
<sym>Dot</sym>
</trkpt>
<trkpt lat="48.898802" lon="20.050752">
<ele>1524.5</ele>
<desc>Speed 3.4 km/h Distance 7.63 km</desc>
<time>2013-07-23T15:10:09.09</time>
<name>3861</name>
<sym>Dot</sym>
</trkpt>
<trkpt lat="48.898797" lon="20.050723">
<ele>1525.0</ele>
<desc>Speed 4.0 km/h Distance 7.63 km</desc>
<time>2013-07-23T15:10:10.02</time>
<name>3862</name>
<sym>Dot</sym>
</trkpt>
<trkpt lat="48.898788" lon="20.050698">
<ele>1525.5</ele>
<desc>Speed 4.5 km/h Distance 7.63 km</desc>
<time>2013-07-23T15:10:11.02</time>
<name>3863</name>
<sym>Dot</sym>
</trkpt>
<trkpt lat="48.898788" lon="20.050690">
<ele>1525.5</ele>
<desc>Speed 2.7 km/h Distance 7.63 km</desc>
<time>2013-07-23T15:10:12.02</time>
<name>3864</name>
<sym>Dot</sym>
</trkpt>
<trkpt lat="48.898745" lon="20.050668">
<ele>1525.5</ele>
<desc>Speed 13.4 km/h Distance 7.64 km</desc>
<time>2013-07-23T15:10:15.02</time>
<name>3865</name>
<sym>Dot</sym>
</trkpt>
<trkpt lat="48.898778" lon="20.050652">
<ele>1525.5</ele>
<desc>Speed 6.3 km/h Distance 7.64 km</desc>
<time>2013-07-23T15:10:17.02</time>
<name>3866</name>
<sym>Dot</sym>
</trkpt>
<trkpt lat="48.898787" lon="20.050633">
<ele>1524.5</ele>
<desc>Speed 3.2 km/h Distance 7.64 km</desc>
<time>2013-07-23T15:10:18.01</time>
<name>3867</name>
<sym>Dot</sym>
</trkpt>
<trkpt lat="48.898792" lon="20.050622">
<ele>1524.5</ele>
<desc>Speed 2.2 km/h Distance 7.64 km</desc>
<time>2013-07-23T15:10:19.01</time>
<name>3868</name>
<sym>Dot</sym>
</trkpt>
<trkpt lat="48.898933" lon="20.050623">
<ele>1524.0</ele>
<desc>Speed 6.8 km/h Distance 7.66 km</desc>
<time>2013-07-23T15:10:28.35</time>
<name>3869</name>
<sym>Dot</sym>
</trkpt>
<trkpt lat="48.898953" lon="20.050625">
<ele>1524.0</ele>
<desc>Speed 6.0 km/h Distance 7.66 km</desc>
<time>2013-07-23T15:10:29.35</time>
<name>3870</name>
<sym>Dot</sym>
</trkpt>
<trkpt lat="48.898967" lon="20.050605">
<ele>1524.5</ele>
<desc>Speed 3.7 km/h Distance 7.66 km</desc>
<time>2013-07-23T15:10:31.34</time>
<name>3871</name>
<sym>Dot</sym>
</trkpt>
<trkpt lat="48.898970" lon="20.050595">
<ele>1525.0</ele>
<desc>Speed 2.5 km/h Distance 7.66 km</desc>
<time>2013-07-23T15:10:32.35</time>
<name>3872</name>
<sym>Dot</sym>
</trkpt>
<trkpt lat="48.898968" lon="20.050580">
<ele>1525.0</ele>
<desc>Speed 3.5 km/h Distance 7.66 km</desc>
<time>2013-07-23T15:10:33.34</time>
<name>3873</name>
<sym>Dot</sym>
</trkpt>
<trkpt lat="48.898963" lon="20.050565">
<ele>1525.0</ele>
<desc>Speed 2.8 km/h Distance 7.67 km</desc>
<time>2013-07-23T15:10:34.42</time>
<name>3874</name>
<sym>Dot</sym>
</trkpt>
<trkpt lat="48.898967" lon="20.050555">
<ele>1525.5</ele>
<desc>Speed 3.1 km/h Distance 7.67 km</desc>
<time>2013-07-23T15:10:35.34</time>
<name>3875</name>
<sym>Dot</sym>
</trkpt>
<trkpt lat="48.898972" lon="20.050545">
<ele>1526.0</ele>
<desc>Speed 3.1 km/h Distance 7.67 km</desc>
<time>2013-07-23T15:10:36.34</time>
<name>3876</name>
<sym>Dot</sym>
</trkpt>
<trkpt lat="48.898988" lon="20.050548">
<ele>1526.5</ele>
<desc>Speed 5.3 km/h Distance 7.67 km</desc>
<time>2013-07-23T15:10:37.33</time>
<name>3877</name>
<sym>Dot</sym>
</trkpt>
<trkpt lat="48.898992" lon="20.050535">
<ele>1527.5</ele>
<desc>Speed 3.9 km/h Distance 7.67 km</desc>
<time>2013-07-23T15:10:38.33</time>
<name>3878</name>
<sym>Dot</sym>
</trkpt>
<trkpt lat="48.898990" lon="20.050522">
<ele>1528.0</ele>
<desc>Speed 3.7 km/h Distance 7.67 km</desc>
<time>2013-07-23T15:10:39.32</time>
<name>3879</name>
<sym>Dot</sym>
</trkpt>
<trkpt lat="48.898985" lon="20.050510">
<ele>1528.5</ele>
<desc>Speed 3.2 km/h Distance 7.67 km</desc>
<time>2013-07-23T15:10:40.31</time>
<name>3880</name>
<sym>Dot</sym>
</trkpt>
<trkpt lat="48.898992" lon="20.050513">
<ele>1529.5</ele>
<desc>Speed 3.2 km/h Distance 7.67 km</desc>
<time>2013-07-23T15:10:41.30</time>
<name>3881</name>
<sym>Dot</sym>
</trkpt>
<trkpt lat="48.899002" lon="20.050513">
<ele>1530.5</ele>
<desc>Speed 4.7 km/h Distance 7.67 km</desc>
<time>2013-07-23T15:10:42.37</time>
<name>3882</name>
<sym>Dot</sym>
</trkpt>
<trkpt lat="48.899000" lon="20.050502">
<ele>1530.5</ele>
<desc>Speed 3.0 km/h Distance 7.68 km</desc>
<time>2013-07-23T15:10:43.30</time>
<name>3883</name>
<sym>Dot</sym>
</trkpt>
<trkpt lat="48.898998" lon="20.050493">
<ele>1530.5</ele>
<desc>Speed 3.0 km/h Distance 7.68 km</desc>
<time>2013-07-23T15:10:44.30</time>
<name>3884</name>
<sym>Dot</sym>
</trkpt>
<trkpt lat="48.898988" lon="20.050465">
<ele>1528.5</ele>
<desc>Speed 2.4 km/h Distance 7.68 km</desc>
<time>2013-07-23T15:10:46.30</time>
<name>3885</name>
<sym>Dot</sym>
</trkpt>
<trkpt lat="48.898913" lon="20.050445">
<ele>1529.5</ele>
<desc>Speed 2.9 km/h Distance 7.69 km</desc>
<time>2013-07-23T15:10:57.29</time>
<name>3886</name>
<sym>Dot</sym>
</trkpt>
<trkpt lat="48.898923" lon="20.050438">
<ele>1533.5</ele>
<desc>Speed 2.3 km/h Distance 7.69 km</desc>
<time>2013-07-23T15:11:19.28</time>
<name>3887</name>
<sym>Dot</sym>
</trkpt>
<trkpt lat="48.898918" lon="20.050440">
<ele>1534.5</ele>
<desc>Speed 2.3 km/h Distance 7.69 km</desc>
<time>2013-07-23T15:11:20.27</time>
<name>3888</name>
<sym>Dot</sym>
</trkpt>
<trkpt lat="48.898917" lon="20.050443">
<ele>1535.5</ele>
<desc>Speed 2.3 km/h Distance 7.69 km</desc>
<time>2013-07-23T15:11:21.27</time>
<name>3889</name>
<sym>Dot</sym>
</trkpt>
<trkpt lat="48.898912" lon="20.050452">
<ele>1536.5</ele>
<desc>Speed 2.3 km/h Distance 7.69 km</desc>
<time>2013-07-23T15:11:22.27</time>
<name>3890</name>
<sym>Dot</sym>
</trkpt>
<trkpt lat="48.898907" lon="20.050462">
<ele>1537.5</ele>
<desc>Speed 2.3 km/h Distance 7.69 km</desc>
<time>2013-07-23T15:11:23.26</time>
<name>3891</name>
<sym>Dot</sym>
</trkpt>
<trkpt lat="48.898907" lon="20.050458">
<ele>1537.5</ele>
<desc>Speed 2.3 km/h Distance 7.69 km</desc>
<time>2013-07-23T15:11:24.26</time>
<name>3892</name>
<sym>Dot</sym>
</trkpt>
<trkpt lat="48.898910" lon="20.050430">
<ele>1539.5</ele>
<desc>Speed 2.2 km/h Distance 7.69 km</desc>
<time>2013-07-23T15:11:27.26</time>
<name>3893</name>
<sym>Dot</sym>
</trkpt>
<trkpt lat="48.898877" lon="20.050412">
<ele>1538.5</ele>
<desc>Speed 2.6 km/h Distance 7.70 km</desc>
<time>2013-07-23T15:11:33.26</time>
<name>3894</name>
<sym>Dot</sym>
</trkpt>
<trkpt lat="48.898882" lon="20.050403">
<ele>1538.5</ele>
<desc>Speed 3.7 km/h Distance 7.70 km</desc>
<time>2013-07-23T15:11:34.28</time>
<name>3895</name>
<sym>Dot</sym>
</trkpt>
<trkpt lat="48.898890" lon="20.050388">
<ele>1537.5</ele>
<desc>Speed 5.2 km/h Distance 7.70 km</desc>
<time>2013-07-23T15:11:35.25</time>
<name>3896</name>
<sym>Dot</sym>
</trkpt>
<trkpt lat="48.898898" lon="20.050398">
<ele>1538.5</ele>
<desc>Speed 3.3 km/h Distance 7.70 km</desc>
<time>2013-07-23T15:11:36.25</time>
<name>3897</name>
<sym>Dot</sym>
</trkpt>
<trkpt lat="48.898903" lon="20.050392">
<ele>1539.0</ele>
<desc>Speed 3.8 km/h Distance 7.70 km</desc>
<time>2013-07-23T15:11:37.25</time>
<name>3898</name>
<sym>Dot</sym>
</trkpt>
<trkpt lat="48.898913" lon="20.050378">
<ele>1539.0</ele>
<desc>Speed 4.1 km/h Distance 7.70 km</desc>
<time>2013-07-23T15:11:38.24</time>
<name>3899</name>
<sym>Dot</sym>
</trkpt>
<trkpt lat="48.898923" lon="20.050367">
<ele>1540.0</ele>
<desc>Speed 4.0 km/h Distance 7.70 km</desc>
<time>2013-07-23T15:11:39.24</time>
<name>3900</name>
<sym>Dot</sym>
</trkpt>
<trkpt lat="48.898932" lon="20.050355">
<ele>1540.0</ele>
<desc>Speed 4.3 km/h Distance 7.71 km</desc>
<time>2013-07-23T15:11:40.23</time>
<name>3901</name>
<sym>Dot</sym>
</trkpt>
<trkpt lat="48.898943" lon="20.050342">
<ele>1540.5</ele>
<desc>Speed 4.9 km/h Distance 7.71 km</desc>
<time>2013-07-23T15:11:41.23</time>
<name>3902</name>
<sym>Dot</sym>
</trkpt>
<trkpt lat="48.898952" lon="20.050325">
<ele>1540.0</ele>
<desc>Speed 5.1 km/h Distance 7.71 km</desc>
<time>2013-07-23T15:11:42.23</time>
<name>3903</name>
<sym>Dot</sym>
</trkpt>
<trkpt lat="48.898958" lon="20.050308">
<ele>1540.5</ele>
<desc>Speed 5.7 km/h Distance 7.71 km</desc>
<time>2013-07-23T15:11:43.23</time>
<name>3904</name>
<sym>Dot</sym>
</trkpt>
<trkpt lat="48.898967" lon="20.050290">
<ele>1540.5</ele>
<desc>Speed 6.2 km/h Distance 7.71 km</desc>
<time>2013-07-23T15:11:44.22</time>
<name>3905</name>
<sym>Dot</sym>
</trkpt>
<trkpt lat="48.898975" lon="20.050277">
<ele>1541.0</ele>
<desc>Speed 4.6 km/h Distance 7.71 km</desc>
<time>2013-07-23T15:11:45.22</time>
<name>3906</name>
<sym>Dot</sym>
</trkpt>
<trkpt lat="48.898983" lon="20.050262">
<ele>1541.0</ele>
<desc>Speed 5.5 km/h Distance 7.71 km</desc>
<time>2013-07-23T15:11:46.21</time>
<name>3907</name>
<sym>Dot</sym>
</trkpt>
<trkpt lat="48.898992" lon="20.050250">
<ele>1541.0</ele>
<desc>Speed 4.4 km/h Distance 7.72 km</desc>
<time>2013-07-23T15:11:47.21</time>
<name>3908</name>
<sym>Dot</sym>
</trkpt>
<trkpt lat="48.899000" lon="20.050245">
<ele>1541.0</ele>
<desc>Speed 3.3 km/h Distance 7.72 km</desc>
<time>2013-07-23T15:11:48.20</time>
<name>3909</name>
<sym>Dot</sym>
</trkpt>
<trkpt lat="48.899007" lon="20.050237">
<ele>1541.0</ele>
<desc>Speed 3.0 km/h Distance 7.72 km</desc>
<time>2013-07-23T15:11:49.20</time>
<name>3910</name>
<sym>Dot</sym>
</trkpt>
<trkpt lat="48.899015" lon="20.050223">
<ele>1541.0</ele>
<desc>Speed 4.1 km/h Distance 7.72 km</desc>
<time>2013-07-23T15:11:50.19</time>
<name>3911</name>
<sym>Dot</sym>
</trkpt>
<trkpt lat="48.899020" lon="20.050197">
<ele>1540.0</ele>
<desc>Speed 6.0 km/h Distance 7.72 km</desc>
<time>2013-07-23T15:11:51.19</time>
<name>3912</name>
<sym>Dot</sym>
</trkpt>
<trkpt lat="48.899025" lon="20.050190">
<ele>1540.0</ele>
<desc>Speed 3.0 km/h Distance 7.72 km</desc>
<time>2013-07-23T15:11:52.19</time>
<name>3913</name>
<sym>Dot</sym>
</trkpt>
<trkpt lat="48.899030" lon="20.050180">
<ele>1540.5</ele>
<desc>Speed 3.6 km/h Distance 7.72 km</desc>
<time>2013-07-23T15:11:53.19</time>
<name>3914</name>
<sym>Dot</sym>
</trkpt>
<trkpt lat="48.899035" lon="20.050167">
<ele>1540.0</ele>
<desc>Speed 3.6 km/h Distance 7.72 km</desc>
<time>2013-07-23T15:11:54.19</time>
<name>3915</name>
<sym>Dot</sym>
</trkpt>
<trkpt lat="48.899040" lon="20.050155">
<ele>1540.0</ele>
<desc>Speed 3.5 km/h Distance 7.72 km</desc>
<time>2013-07-23T15:11:55.19</time>
<name>3916</name>
<sym>Dot</sym>
</trkpt>
<trkpt lat="48.899043" lon="20.050142">
<ele>1539.0</ele>
<desc>Speed 3.7 km/h Distance 7.73 km</desc>
<time>2013-07-23T15:11:56.19</time>
<name>3917</name>
<sym>Dot</sym>
</trkpt>
<trkpt lat="48.899050" lon="20.050130">
<ele>1539.5</ele>
<desc>Speed 3.7 km/h Distance 7.73 km</desc>
<time>2013-07-23T15:11:57.19</time>
<name>3918</name>
<sym>Dot</sym>
</trkpt>
<trkpt lat="48.899055" lon="20.050113">
<ele>1539.0</ele>
<desc>Speed 4.6 km/h Distance 7.73 km</desc>
<time>2013-07-23T15:11:58.18</time>
<name>3919</name>
<sym>Dot</sym>
</trkpt>
<trkpt lat="48.899062" lon="20.050112">
<ele>1539.5</ele>
<desc>Speed 2.8 km/h Distance 7.73 km</desc>
<time>2013-07-23T15:11:59.21</time>
<name>3920</name>
<sym>Dot</sym>
</trkpt>
<trkpt lat="48.899067" lon="20.050100">
<ele>1539.5</ele>
<desc>Speed 3.5 km/h Distance 7.73 km</desc>
<time>2013-07-23T15:12:00.17</time>
<name>3921</name>
<sym>Dot</sym>
</trkpt>
<trkpt lat="48.899073" lon="20.050090">
<ele>1540.0</ele>
<desc>Speed 3.7 km/h Distance 7.73 km</desc>
<time>2013-07-23T15:12:01.17</time>
<name>3922</name>
<sym>Dot</sym>
</trkpt>
<trkpt lat="48.899078" lon="20.050077">
<ele>1539.5</ele>
<desc>Speed 4.1 km/h Distance 7.73 km</desc>
<time>2013-07-23T15:12:02.17</time>
<name>3923</name>
<sym>Dot</sym>
</trkpt>
<trkpt lat="48.899083" lon="20.050062">
<ele>1539.5</ele>
<desc>Speed 4.8 km/h Distance 7.73 km</desc>
<time>2013-07-23T15:12:03.17</time>
<name>3924</name>
<sym>Dot</sym>
</trkpt>
<trkpt lat="48.899090" lon="20.050050">
<ele>1539.5</ele>
<desc>Speed 3.7 km/h Distance 7.73 km</desc>
<time>2013-07-23T15:12:04.16</time>
<name>3925</name>
<sym>Dot</sym>
</trkpt>
<trkpt lat="48.899092" lon="20.050030">
<ele>1539.5</ele>
<desc>Speed 5.8 km/h Distance 7.74 km</desc>
<time>2013-07-23T15:12:05.16</time>
<name>3926</name>
<sym>Dot</sym>
</trkpt>
<trkpt lat="48.899095" lon="20.050013">
<ele>1539.0</ele>
<desc>Speed 3.9 km/h Distance 7.74 km</desc>
<time>2013-07-23T15:12:06.16</time>
<name>3927</name>
<sym>Dot</sym>
</trkpt>
<trkpt lat="48.899098" lon="20.050005">
<ele>1539.0</ele>
<desc>Speed 3.8 km/h Distance 7.74 km</desc>
<time>2013-07-23T15:12:07.15</time>
<name>3928</name>
<sym>Dot</sym>
</trkpt>
<trkpt lat="48.899102" lon="20.049997">
<ele>1539.0</ele>
<desc>Speed 3.1 km/h Distance 7.74 km</desc>
<time>2013-07-23T15:12:08.15</time>
<name>3929</name>
<sym>Dot</sym>
</trkpt>
<trkpt lat="48.899107" lon="20.049992">
<ele>1539.0</ele>
<desc>Speed 2.8 km/h Distance 7.74 km</desc>
<time>2013-07-23T15:12:09.14</time>
<name>3930</name>
<sym>Dot</sym>
</trkpt>
<trkpt lat="48.899108" lon="20.049977">
<ele>1539.5</ele>
<desc>Speed 4.0 km/h Distance 7.74 km</desc>
<time>2013-07-23T15:12:10.14</time>
<name>3931</name>
<sym>Dot</sym>
</trkpt>
<trkpt lat="48.899107" lon="20.049958">
<ele>1539.0</ele>
<desc>Speed 4.8 km/h Distance 7.74 km</desc>
<time>2013-07-23T15:12:11.13</time>
<name>3932</name>
<sym>Dot</sym>
</trkpt>
<trkpt lat="48.899107" lon="20.049940">
<ele>1539.0</ele>
<desc>Speed 2.6 km/h Distance 7.74 km</desc>
<time>2013-07-23T15:12:12.13</time>
<name>3933</name>
<sym>Dot</sym>
</trkpt>
<trkpt lat="48.899112" lon="20.049910">
<ele>1539.0</ele>
<desc>Speed 4.3 km/h Distance 7.75 km</desc>
<time>2013-07-23T15:12:13.13</time>
<name>3934</name>
<sym>Dot</sym>
</trkpt>
<trkpt lat="48.899117" lon="20.049877">
<ele>1539.0</ele>
<desc>Speed 5.5 km/h Distance 7.75 km</desc>
<time>2013-07-23T15:12:14.12</time>
<name>3935</name>
<sym>Dot</sym>
</trkpt>
<trkpt lat="48.899123" lon="20.049852">
<ele>1539.0</ele>
<desc>Speed 4.3 km/h Distance 7.75 km</desc>
<time>2013-07-23T15:12:15.12</time>
<name>3936</name>
<sym>Dot</sym>
</trkpt>
<trkpt lat="48.899128" lon="20.049830">
<ele>1539.0</ele>
<desc>Speed 5.3 km/h Distance 7.75 km</desc>
<time>2013-07-23T15:12:16.12</time>
<name>3937</name>
<sym>Dot</sym>
</trkpt>
<trkpt lat="48.899133" lon="20.049817">
<ele>1539.0</ele>
<desc>Speed 2.7 km/h Distance 7.75 km</desc>
<time>2013-07-23T15:12:17.12</time>
<name>3938</name>
<sym>Dot</sym>
</trkpt>
<trkpt lat="48.899153" lon="20.049797">
<ele>1539.0</ele>
<desc>Speed 9.7 km/h Distance 7.76 km</desc>
<time>2013-07-23T15:12:18.12</time>
<name>3939</name>
<sym>Dot</sym>
</trkpt>
<trkpt lat="48.899158" lon="20.049818">
<ele>1539.0</ele>
<desc>Speed 5.3 km/h Distance 7.76 km</desc>
<time>2013-07-23T15:12:19.11</time>
<name>3940</name>
<sym>Dot</sym>
</trkpt>
<trkpt lat="48.899162" lon="20.049805">
<ele>1539.0</ele>
<desc>Speed 3.6 km/h Distance 7.76 km</desc>
<time>2013-07-23T15:12:20.14</time>
<name>3941</name>
<sym>Dot</sym>
</trkpt>
<trkpt lat="48.899163" lon="20.049792">
<ele>1539.0</ele>
<desc>Speed 3.6 km/h Distance 7.76 km</desc>
<time>2013-07-23T15:12:21.11</time>
<name>3942</name>
<sym>Dot</sym>
</trkpt>
<trkpt lat="48.899158" lon="20.049758">
<ele>1537.0</ele>
<desc>Speed 5.2 km/h Distance 7.76 km</desc>
<time>2013-07-23T15:12:35.10</time>
<name>3943</name>
<sym>Dot</sym>
</trkpt>
<trkpt lat="48.899153" lon="20.049753">
<ele>1537.0</ele>
<desc>Speed 2.2 km/h Distance 7.76 km</desc>
<time>2013-07-23T15:12:36.10</time>
<name>3944</name>
<sym>Dot</sym>
</trkpt>
<trkpt lat="48.899175" lon="20.049758">
<ele>1539.5</ele>
<desc>Speed 3.5 km/h Distance 7.76 km</desc>
<time>2013-07-23T15:12:52.10</time>
<name>3945</name>
<sym>Dot</sym>
</trkpt>
<trkpt lat="48.899172" lon="20.049765">
<ele>1539.5</ele>
<desc>Speed 2.2 km/h Distance 7.77 km</desc>
<time>2013-07-23T15:13:01.67</time>
<name>3946</name>
<sym>Dot</sym>
</trkpt>
<trkpt lat="48.899167" lon="20.049783">
<ele>1539.0</ele>
<desc>Speed 4.9 km/h Distance 7.77 km</desc>
<time>2013-07-23T15:13:07.08</time>
<name>3947</name>
<sym>Dot</sym>
</trkpt>
<trkpt lat="48.899167" lon="20.049780">
<ele>1539.0</ele>
<desc>Speed 2.7 km/h Distance 7.77 km</desc>
<time>2013-07-23T15:13:10.08</time>
<name>3948</name>
<sym>Dot</sym>
</trkpt>
<trkpt lat="48.899175" lon="20.049765">
<ele>1539.0</ele>
<desc>Speed 4.8 km/h Distance 7.77 km</desc>
<time>2013-07-23T15:13:11.07</time>
<name>3949</name>
<sym>Dot</sym>
</trkpt>
<trkpt lat="48.899183" lon="20.049747">
<ele>1539.5</ele>
<desc>Speed 5.8 km/h Distance 7.77 km</desc>
<time>2013-07-23T15:13:12.07</time>
<name>3950</name>
<sym>Dot</sym>
</trkpt>
<trkpt lat="48.899193" lon="20.049728">
<ele>1539.0</ele>
<desc>Speed 6.4 km/h Distance 7.77 km</desc>
<time>2013-07-23T15:13:13.06</time>
<name>3951</name>
<sym>Dot</sym>
</trkpt>
<trkpt lat="48.899202" lon="20.049708">
<ele>1539.5</ele>
<desc>Speed 6.8 km/h Distance 7.77 km</desc>
<time>2013-07-23T15:13:14.06</time>
<name>3952</name>
<sym>Dot</sym>
</trkpt>
<trkpt lat="48.899207" lon="20.049688">
<ele>1539.5</ele>
<desc>Speed 5.7 km/h Distance 7.78 km</desc>
<time>2013-07-23T15:13:15.05</time>
<name>3953</name>
<sym>Dot</sym>
</trkpt>
<trkpt lat="48.899215" lon="20.049675">
<ele>1539.5</ele>
<desc>Speed 4.5 km/h Distance 7.78 km</desc>
<time>2013-07-23T15:13:16.06</time>
<name>3954</name>
<sym>Dot</sym>
</trkpt>
<trkpt lat="48.899223" lon="20.049662">
<ele>1540.0</ele>
<desc>Speed 4.4 km/h Distance 7.78 km</desc>
<time>2013-07-23T15:13:17.03</time>
<name>3955</name>
<sym>Dot</sym>
</trkpt>
<trkpt lat="48.899232" lon="20.049650">
<ele>1540.0</ele>
<desc>Speed 4.1 km/h Distance 7.78 km</desc>
<time>2013-07-23T15:13:18.02</time>
<name>3956</name>
<sym>Dot</sym>
</trkpt>
<trkpt lat="48.899240" lon="20.049637">
<ele>1540.0</ele>
<desc>Speed 4.4 km/h Distance 7.78 km</desc>
<time>2013-07-23T15:13:19.01</time>
<name>3957</name>
<sym>Dot</sym>
</trkpt>
<trkpt lat="48.899247" lon="20.049623">
<ele>1540.0</ele>
<desc>Speed 4.5 km/h Distance 7.78 km</desc>
<time>2013-07-23T15:13:20.01</time>
<name>3958</name>
<sym>Dot</sym>
</trkpt>
<trkpt lat="48.899253" lon="20.049608">
<ele>1540.0</ele>
<desc>Speed 4.8 km/h Distance 7.78 km</desc>
<time>2013-07-23T15:13:21.01</time>
<name>3959</name>
<sym>Dot</sym>
</trkpt>
<trkpt lat="48.899260" lon="20.049595">
<ele>1540.5</ele>
<desc>Speed 4.6 km/h Distance 7.78 km</desc>
<time>2013-07-23T15:13:22.01</time>
<name>3960</name>
<sym>Dot</sym>
</trkpt>
<trkpt lat="48.899267" lon="20.049583">
<ele>1541.0</ele>
<desc>Speed 4.0 km/h Distance 7.79 km</desc>
<time>2013-07-23T15:13:23.02</time>
<name>3961</name>
<sym>Dot</sym>
</trkpt>
<trkpt lat="48.899275" lon="20.049572">
<ele>1541.0</ele>
<desc>Speed 4.1 km/h Distance 7.79 km</desc>
<time>2013-07-23T15:13:24.08</time>
<name>3962</name>
<sym>Dot</sym>
</trkpt>
<trkpt lat="48.899282" lon="20.049563">
<ele>1542.0</ele>
<desc>Speed 3.6 km/h Distance 7.79 km</desc>
<time>2013-07-23T15:13:24.99</time>
<name>3963</name>
<sym>Dot</sym>
</trkpt>
<trkpt lat="48.899293" lon="20.049552">
<ele>1542.5</ele>
<desc>Speed 3.7 km/h Distance 7.79 km</desc>
<time>2013-07-23T15:13:25.99</time>
<name>3964</name>
<sym>Dot</sym>
</trkpt>
<trkpt lat="48.899298" lon="20.049537">
<ele>1542.5</ele>
<desc>Speed 3.9 km/h Distance 7.79 km</desc>
<time>2013-07-23T15:13:26.98</time>
<name>3965</name>
<sym>Dot</sym>
</trkpt>
<trkpt lat="48.899308" lon="20.049523">
<ele>1542.5</ele>
<desc>Speed 4.0 km/h Distance 7.79 km</desc>
<time>2013-07-23T15:13:27.97</time>
<name>3966</name>
<sym>Dot</sym>
</trkpt>
<trkpt lat="48.899315" lon="20.049510">
<ele>1543.0</ele>
<desc>Speed 4.0 km/h Distance 7.79 km</desc>
<time>2013-07-23T15:13:28.97</time>
<name>3967</name>
<sym>Dot</sym>
</trkpt>
<trkpt lat="48.899323" lon="20.049498">
<ele>1543.0</ele>
<desc>Speed 4.0 km/h Distance 7.79 km</desc>
<time>2013-07-23T15:13:29.97</time>
<name>3968</name>
<sym>Dot</sym>
</trkpt>
<trkpt lat="48.899332" lon="20.049487">
<ele>1543.5</ele>
<desc>Speed 4.1 km/h Distance 7.80 km</desc>
<time>2013-07-23T15:13:31.16</time>
<name>3969</name>
<sym>Dot</sym>
</trkpt>
<trkpt lat="48.899338" lon="20.049475">
<ele>1543.5</ele>
<desc>Speed 3.7 km/h Distance 7.80 km</desc>
<time>2013-07-23T15:13:31.96</time>
<name>3970</name>
<sym>Dot</sym>
</trkpt>
<trkpt lat="48.899345" lon="20.049462">
<ele>1543.5</ele>
<desc>Speed 3.4 km/h Distance 7.80 km</desc>
<time>2013-07-23T15:13:32.99</time>
<name>3971</name>
<sym>Dot</sym>
</trkpt>
<trkpt lat="48.899352" lon="20.049450">
<ele>1543.5</ele>
<desc>Speed 3.6 km/h Distance 7.80 km</desc>
<time>2013-07-23T15:13:33.94</time>
<name>3972</name>
<sym>Dot</sym>
</trkpt>
<trkpt lat="48.899360" lon="20.049440">
<ele>1543.5</ele>
<desc>Speed 3.7 km/h Distance 7.80 km</desc>
<time>2013-07-23T15:13:34.94</time>
<name>3973</name>
<sym>Dot</sym>
</trkpt>
<trkpt lat="48.899368" lon="20.049430">
<ele>1544.0</ele>
<desc>Speed 3.7 km/h Distance 7.80 km</desc>
<time>2013-07-23T15:13:35.94</time>
<name>3974</name>
<sym>Dot</sym>
</trkpt>
<trkpt lat="48.899377" lon="20.049420">
<ele>1544.0</ele>
<desc>Speed 4.3 km/h Distance 7.80 km</desc>
<time>2013-07-23T15:13:36.93</time>
<name>3975</name>
<sym>Dot</sym>
</trkpt>
<trkpt lat="48.899387" lon="20.049410">
<ele>1544.0</ele>
<desc>Speed 4.1 km/h Distance 7.80 km</desc>
<time>2013-07-23T15:13:37.98</time>
<name>3976</name>
<sym>Dot</sym>
</trkpt>
<trkpt lat="48.899395" lon="20.049400">
<ele>1544.0</ele>
<desc>Speed 4.0 km/h Distance 7.81 km</desc>
<time>2013-07-23T15:13:38.92</time>
<name>3977</name>
<sym>Dot</sym>
</trkpt>
<trkpt lat="48.899402" lon="20.049390">
<ele>1544.0</ele>
<desc>Speed 3.9 km/h Distance 7.81 km</desc>
<time>2013-07-23T15:13:39.92</time>
<name>3978</name>
<sym>Dot</sym>
</trkpt>
<trkpt lat="48.899408" lon="20.049383">
<ele>1544.5</ele>
<desc>Speed 3.3 km/h Distance 7.81 km</desc>
<time>2013-07-23T15:13:40.92</time>
<name>3979</name>
<sym>Dot</sym>
</trkpt>
<trkpt lat="48.899415" lon="20.049377">
<ele>1544.5</ele>
<desc>Speed 2.8 km/h Distance 7.81 km</desc>
<time>2013-07-23T15:13:41.91</time>
<name>3980</name>
<sym>Dot</sym>
</trkpt>
<trkpt lat="48.899422" lon="20.049372">
<ele>1545.0</ele>
<desc>Speed 2.8 km/h Distance 7.81 km</desc>
<time>2013-07-23T15:13:42.90</time>
<name>3981</name>
<sym>Dot</sym>
</trkpt>
<trkpt lat="48.899430" lon="20.049365">
<ele>1545.0</ele>
<desc>Speed 3.8 km/h Distance 7.81 km</desc>
<time>2013-07-23T15:13:43.89</time>
<name>3982</name>
<sym>Dot</sym>
</trkpt>
<trkpt lat="48.899438" lon="20.049362">
<ele>1545.5</ele>
<desc>Speed 3.1 km/h Distance 7.81 km</desc>
<time>2013-07-23T15:13:44.88</time>
<name>3983</name>
<sym>Dot</sym>
</trkpt>
<trkpt lat="48.899448" lon="20.049355">
<ele>1546.0</ele>
<desc>Speed 3.2 km/h Distance 7.81 km</desc>
<time>2013-07-23T15:13:45.87</time>
<name>3984</name>
<sym>Dot</sym>
</trkpt>
<trkpt lat="48.899455" lon="20.049348">
<ele>1546.0</ele>
<desc>Speed 3.3 km/h Distance 7.81 km</desc>
<time>2013-07-23T15:13:46.95</time>
<name>3985</name>
<sym>Dot</sym>
</trkpt>
<trkpt lat="48.899463" lon="20.049338">
<ele>1546.0</ele>
<desc>Speed 4.0 km/h Distance 7.81 km</desc>
<time>2013-07-23T15:13:47.85</time>
<name>3986</name>
<sym>Dot</sym>
</trkpt>
<trkpt lat="48.899473" lon="20.049350">
<ele>1546.5</ele>
<desc>Speed 4.8 km/h Distance 7.82 km</desc>
<time>2013-07-23T15:13:48.85</time>
<name>3987</name>
<sym>Dot</sym>
</trkpt>
<trkpt lat="48.899480" lon="20.049342">
<ele>1546.5</ele>
<desc>Speed 3.3 km/h Distance 7.82 km</desc>
<time>2013-07-23T15:13:49.86</time>
<name>3988</name>
<sym>Dot</sym>
</trkpt>
<trkpt lat="48.899488" lon="20.049342">
<ele>1547.0</ele>
<desc>Speed 2.4 km/h Distance 7.82 km</desc>
<time>2013-07-23T15:13:50.93</time>
<name>3989</name>
<sym>Dot</sym>
</trkpt>
<trkpt lat="48.899495" lon="20.049337">
<ele>1547.5</ele>
<desc>Speed 2.6 km/h Distance 7.82 km</desc>
<time>2013-07-23T15:13:51.86</time>
<name>3990</name>
<sym>Dot</sym>
</trkpt>
<trkpt lat="48.899502" lon="20.049330">
<ele>1547.5</ele>
<desc>Speed 2.6 km/h Distance 7.82 km</desc>
<time>2013-07-23T15:13:52.83</time>
<name>3991</name>
<sym>Dot</sym>
</trkpt>
<trkpt lat="48.899508" lon="20.049320">
<ele>1547.0</ele>
<desc>Speed 3.1 km/h Distance 7.82 km</desc>
<time>2013-07-23T15:13:53.84</time>
<name>3992</name>
<sym>Dot</sym>
</trkpt>
<trkpt lat="48.899513" lon="20.049315">
<ele>1547.5</ele>
<desc>Speed 2.4 km/h Distance 7.82 km</desc>
<time>2013-07-23T15:13:54.81</time>
<name>3993</name>
<sym>Dot</sym>
</trkpt>
<trkpt lat="48.899522" lon="20.049307">
<ele>1547.0</ele>
<desc>Speed 3.6 km/h Distance 7.82 km</desc>
<time>2013-07-23T15:13:55.80</time>
<name>3994</name>
<sym>Dot</sym>
</trkpt>
<trkpt lat="48.899528" lon="20.049300">
<ele>1547.0</ele>
<desc>Speed 3.2 km/h Distance 7.82 km</desc>
<time>2013-07-23T15:13:56.79</time>
<name>3995</name>
<sym>Dot</sym>
</trkpt>
<trkpt lat="48.899537" lon="20.049292">
<ele>1547.0</ele>
<desc>Speed 3.7 km/h Distance 7.82 km</desc>
<time>2013-07-23T15:13:57.79</time>
<name>3996</name>
<sym>Dot</sym>
</trkpt>
<trkpt lat="48.899547" lon="20.049285">
<ele>1547.0</ele>
<desc>Speed 4.1 km/h Distance 7.83 km</desc>
<time>2013-07-23T15:13:58.79</time>
<name>3997</name>
<sym>Dot</sym>
</trkpt>
<trkpt lat="48.899555" lon="20.049278">
<ele>1547.0</ele>
<desc>Speed 3.1 km/h Distance 7.83 km</desc>
<time>2013-07-23T15:13:59.78</time>
<name>3998</name>
<sym>Dot</sym>
</trkpt>
<trkpt lat="48.899560" lon="20.049272">
<ele>1547.0</ele>
<desc>Speed 2.7 km/h Distance 7.83 km</desc>
<time>2013-07-23T15:14:00.77</time>
<name>3999</name>
<sym>Dot</sym>
</trkpt>
<trkpt lat="48.899567" lon="20.049265">
<ele>1547.0</ele>
<desc>Speed 2.7 km/h Distance 7.83 km</desc>
<time>2013-07-23T15:14:01.77</time>
<name>4000</name>
<sym>Dot</sym>
</trkpt>
<trkpt lat="48.899572" lon="20.049258">
<ele>1547.0</ele>
<desc>Speed 2.4 km/h Distance 7.83 km</desc>
<time>2013-07-23T15:14:02.76</time>
<name>4001</name>
<sym>Dot</sym>
</trkpt>
<trkpt lat="48.899577" lon="20.049250">
<ele>1546.5</ele>
<desc>Speed 3.0 km/h Distance 7.83 km</desc>
<time>2013-07-23T15:14:03.75</time>
<name>4002</name>
<sym>Dot</sym>
</trkpt>
<trkpt lat="48.899585" lon="20.049242">
<ele>1546.5</ele>
<desc>Speed 3.1 km/h Distance 7.83 km</desc>
<time>2013-07-23T15:14:04.74</time>
<name>4003</name>
<sym>Dot</sym>
</trkpt>
<trkpt lat="48.899592" lon="20.049235">
<ele>1546.5</ele>
<desc>Speed 3.0 km/h Distance 7.83 km</desc>
<time>2013-07-23T15:14:05.73</time>
<name>4004</name>
<sym>Dot</sym>
</trkpt>
<trkpt lat="48.899598" lon="20.049228">
<ele>1546.5</ele>
<desc>Speed 2.6 km/h Distance 7.83 km</desc>
<time>2013-07-23T15:14:06.73</time>
<name>4005</name>
<sym>Dot</sym>
</trkpt>
<trkpt lat="48.899608" lon="20.049215">
<ele>1546.5</ele>
<desc>Speed 2.2 km/h Distance 7.83 km</desc>
<time>2013-07-23T15:14:08.72</time>
<name>4006</name>
<sym>Dot</sym>
</trkpt>
<trkpt lat="48.899628" lon="20.049198">
<ele>1546.5</ele>
<desc>Speed 2.4 km/h Distance 7.84 km</desc>
<time>2013-07-23T15:14:23.72</time>
<name>4007</name>
<sym>Dot</sym>
</trkpt>
<trkpt lat="48.899673" lon="20.049125">
<ele>1548.0</ele>
<desc>Speed 2.3 km/h Distance 7.84 km</desc>
<time>2013-07-23T15:14:57.71</time>
<name>4008</name>
<sym>Dot</sym>
</trkpt>
<trkpt lat="48.899697" lon="20.049113">
<ele>1549.5</ele>
<desc>Speed 2.5 km/h Distance 7.85 km</desc>
<time>2013-07-23T15:15:02.71</time>
<name>4009</name>
<sym>Dot</sym>
</trkpt>
<trkpt lat="48.899703" lon="20.049107">
<ele>1549.5</ele>
<desc>Speed 2.7 km/h Distance 7.85 km</desc>
<time>2013-07-23T15:15:03.70</time>
<name>4010</name>
<sym>Dot</sym>
</trkpt>
<trkpt lat="48.899710" lon="20.049103">
<ele>1550.0</ele>
<desc>Speed 2.7 km/h Distance 7.85 km</desc>
<time>2013-07-23T15:15:04.70</time>
<name>4011</name>
<sym>Dot</sym>
</trkpt>
<trkpt lat="48.899717" lon="20.049098">
<ele>1550.5</ele>
<desc>Speed 3.1 km/h Distance 7.85 km</desc>
<time>2013-07-23T15:15:05.71</time>
<name>4012</name>
<sym>Dot</sym>
</trkpt>
<trkpt lat="48.899723" lon="20.049092">
<ele>1550.5</ele>
<desc>Speed 3.1 km/h Distance 7.85 km</desc>
<time>2013-07-23T15:15:06.69</time>
<name>4013</name>
<sym>Dot</sym>
</trkpt>
<trkpt lat="48.899732" lon="20.049087">
<ele>1550.5</ele>
<desc>Speed 2.7 km/h Distance 7.85 km</desc>
<time>2013-07-23T15:15:07.69</time>
<name>4014</name>
<sym>Dot</sym>
</trkpt>
<trkpt lat="48.899737" lon="20.049085">
<ele>1551.0</ele>
<desc>Speed 2.4 km/h Distance 7.85 km</desc>
<time>2013-07-23T15:15:08.69</time>
<name>4015</name>
<sym>Dot</sym>
</trkpt>
<trkpt lat="48.899748" lon="20.049077">
<ele>1551.0</ele>
<desc>Speed 3.0 km/h Distance 7.85 km</desc>
<time>2013-07-23T15:15:10.69</time>
<name>4016</name>
<sym>Dot</sym>
</trkpt>
<trkpt lat="48.899752" lon="20.049067">
<ele>1551.0</ele>
<desc>Speed 2.8 km/h Distance 7.85 km</desc>
<time>2013-07-23T15:15:11.68</time>
<name>4017</name>
<sym>Dot</sym>
</trkpt>
<trkpt lat="48.899753" lon="20.049058">
<ele>1551.5</ele>
<desc>Speed 2.3 km/h Distance 7.85 km</desc>
<time>2013-07-23T15:15:12.68</time>
<name>4018</name>
<sym>Dot</sym>
</trkpt>
<trkpt lat="48.899762" lon="20.049042">
<ele>1551.5</ele>
<desc>Speed 2.6 km/h Distance 7.86 km</desc>
<time>2013-07-23T15:15:14.67</time>
<name>4019</name>
<sym>Dot</sym>
</trkpt>
<trkpt lat="48.899765" lon="20.049030">
<ele>1551.5</ele>
<desc>Speed 2.7 km/h Distance 7.86 km</desc>
<time>2013-07-23T15:15:15.67</time>
<name>4020</name>
<sym>Dot</sym>
</trkpt>
<trkpt lat="48.899770" lon="20.049018">
<ele>1551.5</ele>
<desc>Speed 3.4 km/h Distance 7.86 km</desc>
<time>2013-07-23T15:15:16.66</time>
<name>4021</name>
<sym>Dot</sym>
</trkpt>
<trkpt lat="48.899772" lon="20.049007">
<ele>1551.5</ele>
<desc>Speed 3.3 km/h Distance 7.86 km</desc>
<time>2013-07-23T15:15:17.74</time>
<name>4022</name>
<sym>Dot</sym>
</trkpt>
<trkpt lat="48.899777" lon="20.048993">
<ele>1551.5</ele>
<desc>Speed 3.6 km/h Distance 7.86 km</desc>
<time>2013-07-23T15:15:18.65</time>
<name>4023</name>
<sym>Dot</sym>
</trkpt>
<trkpt lat="48.899780" lon="20.048977">
<ele>1551.0</ele>
<desc>Speed 4.0 km/h Distance 7.86 km</desc>
<time>2013-07-23T15:15:19.65</time>
<name>4024</name>
<sym>Dot</sym>
</trkpt>
<trkpt lat="48.899783" lon="20.048962">
<ele>1551.0</ele>
<desc>Speed 3.7 km/h Distance 7.86 km</desc>
<time>2013-07-23T15:15:20.65</time>
<name>4025</name>
<sym>Dot</sym>
</trkpt>
<trkpt lat="48.899788" lon="20.048945">
<ele>1551.0</ele>
<desc>Speed 4.4 km/h Distance 7.86 km</desc>
<time>2013-07-23T15:15:21.65</time>
<name>4026</name>
<sym>Dot</sym>
</trkpt>
<trkpt lat="48.899792" lon="20.048928">
<ele>1550.5</ele>
<desc>Speed 4.5 km/h Distance 7.86 km</desc>
<time>2013-07-23T15:15:22.63</time>
<name>4027</name>
<sym>Dot</sym>
</trkpt>
<trkpt lat="48.899797" lon="20.048912">
<ele>1550.5</ele>
<desc>Speed 4.4 km/h Distance 7.87 km</desc>
<time>2013-07-23T15:15:23.63</time>
<name>4028</name>
<sym>Dot</sym>
</trkpt>
<trkpt lat="48.899802" lon="20.048897">
<ele>1550.5</ele>
<desc>Speed 3.7 km/h Distance 7.87 km</desc>
<time>2013-07-23T15:15:24.62</time>
<name>4029</name>
<sym>Dot</sym>
</trkpt>
<trkpt lat="48.899807" lon="20.048885">
<ele>1550.5</ele>
<desc>Speed 3.5 km/h Distance 7.87 km</desc>
<time>2013-07-23T15:15:25.61</time>
<name>4030</name>
<sym>Dot</sym>
</trkpt>
<trkpt lat="48.899813" lon="20.048878">
<ele>1551.5</ele>
<desc>Speed 3.0 km/h Distance 7.87 km</desc>
<time>2013-07-23T15:15:26.62</time>
<name>4031</name>
<sym>Dot</sym>
</trkpt>
<trkpt lat="48.899800" lon="20.048887">
<ele>1551.5</ele>
<desc>Speed 5.7 km/h Distance 7.87 km</desc>
<time>2013-07-23T15:15:27.60</time>
<name>4032</name>
<sym>Dot</sym>
</trkpt>
<trkpt lat="48.899788" lon="20.048887">
<ele>1550.0</ele>
<desc>Speed 4.4 km/h Distance 7.87 km</desc>
<time>2013-07-23T15:15:28.61</time>
<name>4033</name>
<sym>Dot</sym>
</trkpt>
<trkpt lat="48.899803" lon="20.048875">
<ele>1551.0</ele>
<desc>Speed 2.2 km/h Distance 7.87 km</desc>
<time>2013-07-23T15:15:35.60</time>
<name>4034</name>
<sym>Dot</sym>
</trkpt>
<trkpt lat="48.899820" lon="20.048860">
<ele>1552.5</ele>
<desc>Speed 3.8 km/h Distance 7.88 km</desc>
<time>2013-07-23T15:15:36.61</time>
<name>4035</name>
<sym>Dot</sym>
</trkpt>
<trkpt lat="48.899835" lon="20.048845">
<ele>1554.0</ele>
<desc>Speed 4.4 km/h Distance 7.88 km</desc>
<time>2013-07-23T15:15:37.59</time>
<name>4036</name>
<sym>Dot</sym>
</trkpt>
<trkpt lat="48.899848" lon="20.048832">
<ele>1555.5</ele>
<desc>Speed 4.1 km/h Distance 7.88 km</desc>
<time>2013-07-23T15:15:38.58</time>
<name>4037</name>
<sym>Dot</sym>
</trkpt>
<trkpt lat="48.899857" lon="20.048818">
<ele>1556.0</ele>
<desc>Speed 4.2 km/h Distance 7.88 km</desc>
<time>2013-07-23T15:15:39.58</time>
<name>4038</name>
<sym>Dot</sym>
</trkpt>
<trkpt lat="48.899865" lon="20.048805">
<ele>1556.5</ele>
<desc>Speed 3.9 km/h Distance 7.88 km</desc>
<time>2013-07-23T15:15:40.57</time>
<name>4039</name>
<sym>Dot</sym>
</trkpt>
<trkpt lat="48.899875" lon="20.048793">
<ele>1557.0</ele>
<desc>Speed 3.6 km/h Distance 7.88 km</desc>
<time>2013-07-23T15:15:41.56</time>
<name>4040</name>
<sym>Dot</sym>
</trkpt>
<trkpt lat="48.899880" lon="20.048782">
<ele>1557.0</ele>
<desc>Speed 3.5 km/h Distance 7.89 km</desc>
<time>2013-07-23T15:15:42.56</time>
<name>4041</name>
<sym>Dot</sym>
</trkpt>
<trkpt lat="48.899887" lon="20.048770">
<ele>1557.0</ele>
<desc>Speed 3.8 km/h Distance 7.89 km</desc>
<time>2013-07-23T15:15:43.56</time>
<name>4042</name>
<sym>Dot</sym>
</trkpt>
<trkpt lat="48.899893" lon="20.048755">
<ele>1557.5</ele>
<desc>Speed 3.9 km/h Distance 7.89 km</desc>
<time>2013-07-23T15:15:44.56</time>
<name>4043</name>
<sym>Dot</sym>
</trkpt>
<trkpt lat="48.899900" lon="20.048742">
<ele>1557.5</ele>
<desc>Speed 4.2 km/h Distance 7.89 km</desc>
<time>2013-07-23T15:15:45.55</time>
<name>4044</name>
<sym>Dot</sym>
</trkpt>
<trkpt lat="48.899905" lon="20.048728">
<ele>1557.5</ele>
<desc>Speed 3.7 km/h Distance 7.89 km</desc>
<time>2013-07-23T15:15:46.55</time>
<name>4045</name>
<sym>Dot</sym>
</trkpt>
<trkpt lat="48.899910" lon="20.048718">
<ele>1558.0</ele>
<desc>Speed 3.3 km/h Distance 7.89 km</desc>
<time>2013-07-23T15:15:47.54</time>
<name>4046</name>
<sym>Dot</sym>
</trkpt>
<trkpt lat="48.899915" lon="20.048708">
<ele>1558.0</ele>
<desc>Speed 3.3 km/h Distance 7.89 km</desc>
<time>2013-07-23T15:15:48.65</time>
<name>4047</name>
<sym>Dot</sym>
</trkpt>
<trkpt lat="48.899920" lon="20.048697">
<ele>1558.5</ele>
<desc>Speed 3.9 km/h Distance 7.89 km</desc>
<time>2013-07-23T15:15:49.54</time>
<name>4048</name>
<sym>Dot</sym>
</trkpt>
<trkpt lat="48.899925" lon="20.048685">
<ele>1558.5</ele>
<desc>Speed 3.3 km/h Distance 7.89 km</desc>
<time>2013-07-23T15:15:50.54</time>
<name>4049</name>
<sym>Dot</sym>
</trkpt>
<trkpt lat="48.899930" lon="20.048673">
<ele>1559.0</ele>
<desc>Speed 3.4 km/h Distance 7.89 km</desc>
<time>2013-07-23T15:15:51.54</time>
<name>4050</name>
<sym>Dot</sym>
</trkpt>
<trkpt lat="48.899935" lon="20.048660">
<ele>1559.0</ele>
<desc>Speed 4.0 km/h Distance 7.90 km</desc>
<time>2013-07-23T15:15:52.54</time>
<name>4051</name>
<sym>Dot</sym>
</trkpt>
<trkpt lat="48.899938" lon="20.048647">
<ele>1559.0</ele>
<desc>Speed 4.0 km/h Distance 7.90 km</desc>
<time>2013-07-23T15:15:53.62</time>
<name>4052</name>
<sym>Dot</sym>
</trkpt>
<trkpt lat="48.899945" lon="20.048635">
<ele>1559.0</ele>
<desc>Speed 3.7 km/h Distance 7.90 km</desc>
<time>2013-07-23T15:15:54.52</time>
<name>4053</name>
<sym>Dot</sym>
</trkpt>
<trkpt lat="48.899948" lon="20.048622">
<ele>1559.0</ele>
<desc>Speed 3.9 km/h Distance 7.90 km</desc>
<time>2013-07-23T15:15:55.52</time>
<name>4054</name>
<sym>Dot</sym>
</trkpt>
<trkpt lat="48.899950" lon="20.048608">
<ele>1558.5</ele>
<desc>Speed 3.5 km/h Distance 7.90 km</desc>
<time>2013-07-23T15:15:56.52</time>
<name>4055</name>
<sym>Dot</sym>
</trkpt>
<trkpt lat="48.899952" lon="20.048592">
<ele>1558.5</ele>
<desc>Speed 4.2 km/h Distance 7.90 km</desc>
<time>2013-07-23T15:15:57.52</time>
<name>4056</name>
<sym>Dot</sym>
</trkpt>
<trkpt lat="48.899957" lon="20.048577">
<ele>1558.5</ele>
<desc>Speed 4.4 km/h Distance 7.90 km</desc>
<time>2013-07-23T15:15:58.60</time>
<name>4057</name>
<sym>Dot</sym>
</trkpt>
<trkpt lat="48.899963" lon="20.048562">
<ele>1558.0</ele>
<desc>Speed 4.3 km/h Distance 7.90 km</desc>
<time>2013-07-23T15:15:59.52</time>
<name>4058</name>
<sym>Dot</sym>
</trkpt>
<trkpt lat="48.899968" lon="20.048543">
<ele>1558.0</ele>
<desc>Speed 4.9 km/h Distance 7.91 km</desc>
<time>2013-07-23T15:16:00.51</time>
<name>4059</name>
<sym>Dot</sym>
</trkpt>
<trkpt lat="48.899977" lon="20.048527">
<ele>1558.0</ele>
<desc>Speed 4.9 km/h Distance 7.91 km</desc>
<time>2013-07-23T15:16:01.51</time>
<name>4060</name>
<sym>Dot</sym>
</trkpt>
<trkpt lat="48.899982" lon="20.048512">
<ele>1558.0</ele>
<desc>Speed 4.3 km/h Distance 7.91 km</desc>
<time>2013-07-23T15:16:02.51</time>
<name>4061</name>
<sym>Dot</sym>
</trkpt>
<trkpt lat="48.899987" lon="20.048497">
<ele>1558.0</ele>
<desc>Speed 4.4 km/h Distance 7.91 km</desc>
<time>2013-07-23T15:16:03.51</time>
<name>4062</name>
<sym>Dot</sym>
</trkpt>
<trkpt lat="48.899990" lon="20.048480">
<ele>1558.0</ele>
<desc>Speed 4.1 km/h Distance 7.91 km</desc>
<time>2013-07-23T15:16:04.50</time>
<name>4063</name>
<sym>Dot</sym>
</trkpt>
<trkpt lat="48.899993" lon="20.048467">
<ele>1558.0</ele>
<desc>Speed 3.6 km/h Distance 7.91 km</desc>
<time>2013-07-23T15:16:05.49</time>
<name>4064</name>
<sym>Dot</sym>
</trkpt>
<trkpt lat="48.899995" lon="20.048455">
<ele>1558.0</ele>
<desc>Speed 3.3 km/h Distance 7.91 km</desc>
<time>2013-07-23T15:16:06.69</time>
<name>4065</name>
<sym>Dot</sym>
</trkpt>
<trkpt lat="48.899998" lon="20.048442">
<ele>1558.0</ele>
<desc>Speed 3.7 km/h Distance 7.91 km</desc>
<time>2013-07-23T15:16:07.48</time>
<name>4066</name>
<sym>Dot</sym>
</trkpt>
<trkpt lat="48.899998" lon="20.048427">
<ele>1558.0</ele>
<desc>Speed 4.0 km/h Distance 7.91 km</desc>
<time>2013-07-23T15:16:08.48</time>
<name>4067</name>
<sym>Dot</sym>
</trkpt>
<trkpt lat="48.899995" lon="20.048413">
<ele>1558.0</ele>
<desc>Speed 3.3 km/h Distance 7.92 km</desc>
<time>2013-07-23T15:16:09.47</time>
<name>4068</name>
<sym>Dot</sym>
</trkpt>
<trkpt lat="48.899988" lon="20.048407">
<ele>1558.0</ele>
<desc>Speed 3.1 km/h Distance 7.92 km</desc>
<time>2013-07-23T15:16:10.47</time>
<name>4069</name>
<sym>Dot</sym>
</trkpt>
<trkpt lat="48.899982" lon="20.048405">
<ele>1558.0</ele>
<desc>Speed 2.7 km/h Distance 7.92 km</desc>
<time>2013-07-23T15:16:11.46</time>
<name>4070</name>
<sym>Dot</sym>
</trkpt>
<trkpt lat="48.899992" lon="20.048413">
<ele>1558.0</ele>
<desc>Speed 5.9 km/h Distance 7.92 km</desc>
<time>2013-07-23T15:16:15.45</time>
<name>4071</name>
<sym>Dot</sym>
</trkpt>
<trkpt lat="48.899985" lon="20.048400">
<ele>1557.0</ele>
<desc>Speed 3.7 km/h Distance 7.92 km</desc>
<time>2013-07-23T15:16:16.45</time>
<name>4072</name>
<sym>Dot</sym>
</trkpt>
<trkpt lat="48.899975" lon="20.048395">
<ele>1557.0</ele>
<desc>Speed 3.3 km/h Distance 7.92 km</desc>
<time>2013-07-23T15:16:17.59</time>
<name>4073</name>
<sym>Dot</sym>
</trkpt>
<trkpt lat="48.899937" lon="20.048408">
<ele>1558.0</ele>
<desc>Speed 2.2 km/h Distance 7.93 km</desc>
<time>2013-07-23T15:16:29.44</time>
<name>4074</name>
<sym>Dot</sym>
</trkpt>
<trkpt lat="48.900038" lon="20.048435">
<ele>1560.0</ele>
<desc>Speed 3.7 km/h Distance 7.94 km</desc>
<time>2013-07-23T15:16:56.44</time>
<name>4075</name>
<sym>Dot</sym>
</trkpt>
<trkpt lat="48.900047" lon="20.048433">
<ele>1560.0</ele>
<desc>Speed 2.4 km/h Distance 7.94 km</desc>
<time>2013-07-23T15:16:57.44</time>
<name>4076</name>
<sym>Dot</sym>
</trkpt>
<trkpt lat="48.900023" lon="20.048373">
<ele>1559.0</ele>
<desc>Speed 4.5 km/h Distance 7.94 km</desc>
<time>2013-07-23T15:17:19.43</time>
<name>4077</name>
<sym>Dot</sym>
</trkpt>
<trkpt lat="48.900025" lon="20.048353">
<ele>1559.0</ele>
<desc>Speed 5.8 km/h Distance 7.94 km</desc>
<time>2013-07-23T15:17:20.43</time>
<name>4078</name>
<sym>Dot</sym>
</trkpt>
<trkpt lat="48.900028" lon="20.048328">
<ele>1559.0</ele>
<desc>Speed 7.2 km/h Distance 7.95 km</desc>
<time>2013-07-23T15:17:21.43</time>
<name>4079</name>
<sym>Dot</sym>
</trkpt>
<trkpt lat="48.900032" lon="20.048297">
<ele>1558.5</ele>
<desc>Speed 8.6 km/h Distance 7.95 km</desc>
<time>2013-07-23T15:17:22.42</time>
<name>4080</name>
<sym>Dot</sym>
</trkpt>
<trkpt lat="48.900037" lon="20.048257">
<ele>1558.0</ele>
<desc>Speed 10.6 km/h Distance 7.95 km</desc>
<time>2013-07-23T15:17:23.42</time>
<name>4081</name>
<sym>Dot</sym>
</trkpt>
<trkpt lat="48.900045" lon="20.048212">
<ele>1558.0</ele>
<desc>Speed 12.2 km/h Distance 7.95 km</desc>
<time>2013-07-23T15:17:24.41</time>
<name>4082</name>
<sym>Dot</sym>
</trkpt>
<trkpt lat="48.900052" lon="20.048158">
<ele>1557.5</ele>
<desc>Speed 13.7 km/h Distance 7.96 km</desc>
<time>2013-07-23T15:17:25.40</time>
<name>4083</name>
<sym>Dot</sym>
</trkpt>
<trkpt lat="48.900058" lon="20.048102">
<ele>1556.5</ele>
<desc>Speed 14.8 km/h Distance 7.96 km</desc>
<time>2013-07-23T15:17:26.40</time>
<name>4084</name>
<sym>Dot</sym>
</trkpt>
<trkpt lat="48.900068" lon="20.048042">
<ele>1556.0</ele>
<desc>Speed 15.9 km/h Distance 7.97 km</desc>
<time>2013-07-23T15:17:27.39</time>
<name>4085</name>
<sym>Dot</sym>
</trkpt>
<trkpt lat="48.900078" lon="20.047977">
<ele>1555.0</ele>
<desc>Speed 17.3 km/h Distance 7.97 km</desc>
<time>2013-07-23T15:17:28.39</time>
<name>4086</name>
<sym>Dot</sym>
</trkpt>
<trkpt lat="48.900090" lon="20.047915">
<ele>1554.5</ele>
<desc>Speed 16.8 km/h Distance 7.98 km</desc>
<time>2013-07-23T15:17:29.38</time>
<name>4087</name>
<sym>Dot</sym>
</trkpt>
<trkpt lat="48.900100" lon="20.047855">
<ele>1553.5</ele>
<desc>Speed 16.1 km/h Distance 7.98 km</desc>
<time>2013-07-23T15:17:30.37</time>
<name>4088</name>
<sym>Dot</sym>
</trkpt>
<trkpt lat="48.900112" lon="20.047802">
<ele>1552.5</ele>
<desc>Speed 14.4 km/h Distance 7.99 km</desc>
<time>2013-07-23T15:17:31.36</time>
<name>4089</name>
<sym>Dot</sym>
</trkpt>
<trkpt lat="48.900125" lon="20.047752">
<ele>1551.5</ele>
<desc>Speed 13.9 km/h Distance 7.99 km</desc>
<time>2013-07-23T15:17:32.36</time>
<name>4090</name>
<sym>Dot</sym>
</trkpt>
<trkpt lat="48.900133" lon="20.047708">
<ele>1551.0</ele>
<desc>Speed 12.1 km/h Distance 7.99 km</desc>
<time>2013-07-23T15:17:33.36</time>
<name>4091</name>
<sym>Dot</sym>
</trkpt>
<trkpt lat="48.900138" lon="20.047668">
<ele>1551.0</ele>
<desc>Speed 10.2 km/h Distance 8.00 km</desc>
<time>2013-07-23T15:17:34.35</time>
<name>4092</name>
<sym>Dot</sym>
</trkpt>
<trkpt lat="48.900142" lon="20.047625">
<ele>1550.5</ele>
<desc>Speed 11.4 km/h Distance 8.00 km</desc>
<time>2013-07-23T15:17:35.35</time>
<name>4093</name>
<sym>Dot</sym>
</trkpt>
<trkpt lat="48.900147" lon="20.047583">
<ele>1550.0</ele>
<desc>Speed 10.8 km/h Distance 8.00 km</desc>
<time>2013-07-23T15:17:36.35</time>
<name>4094</name>
<sym>Dot</sym>
</trkpt>
<trkpt lat="48.900158" lon="20.047538">
<ele>1549.5</ele>
<desc>Speed 12.3 km/h Distance 8.01 km</desc>
<time>2013-07-23T15:17:37.54</time>
<name>4095</name>
<sym>Dot</sym>
</trkpt>
<trkpt lat="48.900172" lon="20.047488">
<ele>1549.0</ele>
<desc>Speed 14.0 km/h Distance 8.01 km</desc>
<time>2013-07-23T15:17:38.34</time>
<name>4096</name>
<sym>Dot</sym>
</trkpt>
<trkpt lat="48.900183" lon="20.047437">
<ele>1549.0</ele>
<desc>Speed 14.5 km/h Distance 8.01 km</desc>
<time>2013-07-23T15:17:39.34</time>
<name>4097</name>
<sym>Dot</sym>
</trkpt>
<trkpt lat="48.900195" lon="20.047388">
<ele>1548.5</ele>
<desc>Speed 13.0 km/h Distance 8.02 km</desc>
<time>2013-07-23T15:17:40.34</time>
<name>4098</name>
<sym>Dot</sym>
</trkpt>
<trkpt lat="48.900210" lon="20.047347">
<ele>1548.5</ele>
<desc>Speed 12.6 km/h Distance 8.02 km</desc>
<time>2013-07-23T15:17:41.33</time>
<name>4099</name>
<sym>Dot</sym>
</trkpt>
<trkpt lat="48.900222" lon="20.047305">
<ele>1548.5</ele>
<desc>Speed 11.7 km/h Distance 8.02 km</desc>
<time>2013-07-23T15:17:42.33</time>
<name>4100</name>
<sym>Dot</sym>
</trkpt>
<trkpt lat="48.900230" lon="20.047257">
<ele>1548.0</ele>
<desc>Speed 12.6 km/h Distance 8.03 km</desc>
<time>2013-07-23T15:17:43.32</time>
<name>4101</name>
<sym>Dot</sym>
</trkpt>
<trkpt lat="48.900243" lon="20.047203">
<ele>1548.0</ele>
<desc>Speed 14.9 km/h Distance 8.03 km</desc>
<time>2013-07-23T15:17:44.32</time>
<name>4102</name>
<sym>Dot</sym>
</trkpt>
<trkpt lat="48.900255" lon="20.047153">
<ele>1547.5</ele>
<desc>Speed 13.4 km/h Distance 8.04 km</desc>
<time>2013-07-23T15:17:45.31</time>
<name>4103</name>
<sym>Dot</sym>
</trkpt>
<trkpt lat="48.900265" lon="20.047107">
<ele>1547.0</ele>
<desc>Speed 12.6 km/h Distance 8.04 km</desc>
<time>2013-07-23T15:17:46.31</time>
<name>4104</name>
<sym>Dot</sym>
</trkpt>
<trkpt lat="48.900275" lon="20.047050">
<ele>1546.5</ele>
<desc>Speed 14.9 km/h Distance 8.04 km</desc>
<time>2013-07-23T15:17:47.31</time>
<name>4105</name>
<sym>Dot</sym>
</trkpt>
<trkpt lat="48.900287" lon="20.046983">
<ele>1546.0</ele>
<desc>Speed 17.9 km/h Distance 8.05 km</desc>
<time>2013-07-23T15:17:48.30</time>
<name>4106</name>
<sym>Dot</sym>
</trkpt>
<trkpt lat="48.900298" lon="20.046908">
<ele>1545.0</ele>
<desc>Speed 19.7 km/h Distance 8.05 km</desc>
<time>2013-07-23T15:17:49.30</time>
<name>4107</name>
<sym>Dot</sym>
</trkpt>
<trkpt lat="48.900312" lon="20.046828">
<ele>1544.5</ele>
<desc>Speed 21.2 km/h Distance 8.06 km</desc>
<time>2013-07-23T15:17:50.30</time>
<name>4108</name>
<sym>Dot</sym>
</trkpt>
<trkpt lat="48.900323" lon="20.046748">
<ele>1543.5</ele>
<desc>Speed 21.2 km/h Distance 8.07 km</desc>
<time>2013-07-23T15:17:51.28</time>
<name>4109</name>
<sym>Dot</sym>
</trkpt>
<trkpt lat="48.900335" lon="20.046670">
<ele>1543.0</ele>
<desc>Speed 21.1 km/h Distance 8.07 km</desc>
<time>2013-07-23T15:17:52.28</time>
<name>4110</name>
<sym>Dot</sym>
</trkpt>
<trkpt lat="48.900347" lon="20.046590">
<ele>1542.0</ele>
<desc>Speed 21.5 km/h Distance 8.08 km</desc>
<time>2013-07-23T15:17:53.28</time>
<name>4111</name>
<sym>Dot</sym>
</trkpt>
<trkpt lat="48.900353" lon="20.046510">
<ele>1541.5</ele>
<desc>Speed 21.2 km/h Distance 8.08 km</desc>
<time>2013-07-23T15:17:54.32</time>
<name>4112</name>
<sym>Dot</sym>
</trkpt>
<trkpt lat="48.900357" lon="20.046427">
<ele>1541.0</ele>
<desc>Speed 21.8 km/h Distance 8.09 km</desc>
<time>2013-07-23T15:17:55.27</time>
<name>4113</name>
<sym>Dot</sym>
</trkpt>
<trkpt lat="48.900362" lon="20.046343">
<ele>1540.5</ele>
<desc>Speed 22.0 km/h Distance 8.10 km</desc>
<time>2013-07-23T15:17:56.27</time>
<name>4114</name>
<sym>Dot</sym>
</trkpt>
<trkpt lat="48.900370" lon="20.046265">
<ele>1540.0</ele>
<desc>Speed 20.7 km/h Distance 8.10 km</desc>
<time>2013-07-23T15:17:57.27</time>
<name>4115</name>
<sym>Dot</sym>
</trkpt>
<trkpt lat="48.900365" lon="20.046180">
<ele>1540.0</ele>
<desc>Speed 10.5 km/h Distance 8.11 km</desc>
<time>2013-07-23T15:17:59.26</time>
<name>4116</name>
<sym>Dot</sym>
</trkpt>
<trkpt lat="48.900370" lon="20.046133">
<ele>1541.0</ele>
<desc>Speed 12.3 km/h Distance 8.11 km</desc>
<time>2013-07-23T15:18:00.26</time>
<name>4117</name>
<sym>Dot</sym>
</trkpt>
<trkpt lat="48.900375" lon="20.046082">
<ele>1540.5</ele>
<desc>Speed 13.4 km/h Distance 8.12 km</desc>
<time>2013-07-23T15:18:01.25</time>
<name>4118</name>
<sym>Dot</sym>
</trkpt>
<trkpt lat="48.900385" lon="20.046032">
<ele>1540.0</ele>
<desc>Speed 13.4 km/h Distance 8.12 km</desc>
<time>2013-07-23T15:18:02.25</time>
<name>4119</name>
<sym>Dot</sym>
</trkpt>
<trkpt lat="48.900390" lon="20.045980">
<ele>1540.0</ele>
<desc>Speed 13.1 km/h Distance 8.12 km</desc>
<time>2013-07-23T15:18:03.24</time>
<name>4120</name>
<sym>Dot</sym>
</trkpt>
<trkpt lat="48.900388" lon="20.045927">
<ele>1539.5</ele>
<desc>Speed 13.6 km/h Distance 8.13 km</desc>
<time>2013-07-23T15:18:04.24</time>
<name>4121</name>
<sym>Dot</sym>
</trkpt>
<trkpt lat="48.900383" lon="20.045880">
<ele>1539.0</ele>
<desc>Speed 12.5 km/h Distance 8.13 km</desc>
<time>2013-07-23T15:18:05.23</time>
<name>4122</name>
<sym>Dot</sym>
</trkpt>
<trkpt lat="48.900392" lon="20.045837">
<ele>1539.0</ele>
<desc>Speed 11.5 km/h Distance 8.13 km</desc>
<time>2013-07-23T15:18:06.26</time>
<name>4123</name>
<sym>Dot</sym>
</trkpt>
<trkpt lat="48.900400" lon="20.045798">
<ele>1539.0</ele>
<desc>Speed 10.5 km/h Distance 8.14 km</desc>
<time>2013-07-23T15:18:07.22</time>
<name>4124</name>
<sym>Dot</sym>
</trkpt>
<trkpt lat="48.900402" lon="20.045757">
<ele>1539.0</ele>
<desc>Speed 10.7 km/h Distance 8.14 km</desc>
<time>2013-07-23T15:18:08.22</time>
<name>4125</name>
<sym>Dot</sym>
</trkpt>
<trkpt lat="48.900402" lon="20.045713">
<ele>1539.5</ele>
<desc>Speed 11.6 km/h Distance 8.14 km</desc>
<time>2013-07-23T15:18:09.21</time>
<name>4126</name>
<sym>Dot</sym>
</trkpt>
<trkpt lat="48.900405" lon="20.045670">
<ele>1539.5</ele>
<desc>Speed 11.7 km/h Distance 8.15 km</desc>
<time>2013-07-23T15:18:10.21</time>
<name>4127</name>
<sym>Dot</sym>
</trkpt>
<trkpt lat="48.900407" lon="20.045620">
<ele>1539.5</ele>
<desc>Speed 13.0 km/h Distance 8.15 km</desc>
<time>2013-07-23T15:18:11.20</time>
<name>4128</name>
<sym>Dot</sym>
</trkpt>
<trkpt lat="48.900408" lon="20.045570">
<ele>1539.5</ele>
<desc>Speed 13.2 km/h Distance 8.15 km</desc>
<time>2013-07-23T15:18:12.21</time>
<name>4129</name>
<sym>Dot</sym>
</trkpt>
<trkpt lat="48.900415" lon="20.045520">
<ele>1539.5</ele>
<desc>Speed 12.9 km/h Distance 8.16 km</desc>
<time>2013-07-23T15:18:13.20</time>
<name>4130</name>
<sym>Dot</sym>
</trkpt>
<trkpt lat="48.900420" lon="20.045468">
<ele>1539.0</ele>
<desc>Speed 13.1 km/h Distance 8.16 km</desc>
<time>2013-07-23T15:18:14.20</time>
<name>4131</name>
<sym>Dot</sym>
</trkpt>
<trkpt lat="48.900427" lon="20.045417">
<ele>1538.5</ele>
<desc>Speed 13.3 km/h Distance 8.17 km</desc>
<time>2013-07-23T15:18:15.20</time>
<name>4132</name>
<sym>Dot</sym>
</trkpt>
<trkpt lat="48.900432" lon="20.045367">
<ele>1538.5</ele>
<desc>Speed 13.5 km/h Distance 8.17 km</desc>
<time>2013-07-23T15:18:16.20</time>
<name>4133</name>
<sym>Dot</sym>
</trkpt>
<trkpt lat="48.900440" lon="20.045318">
<ele>1539.0</ele>
<desc>Speed 12.7 km/h Distance 8.17 km</desc>
<time>2013-07-23T15:18:17.28</time>
<name>4134</name>
<sym>Dot</sym>
</trkpt>
<trkpt lat="48.900450" lon="20.045268">
<ele>1539.0</ele>
<desc>Speed 13.1 km/h Distance 8.18 km</desc>
<time>2013-07-23T15:18:18.20</time>
<name>4135</name>
<sym>Dot</sym>
</trkpt>
<trkpt lat="48.900462" lon="20.045220">
<ele>1539.0</ele>
<desc>Speed 13.1 km/h Distance 8.18 km</desc>
<time>2013-07-23T15:18:19.19</time>
<name>4136</name>
<sym>Dot</sym>
</trkpt>
<trkpt lat="48.900472" lon="20.045170">
<ele>1539.0</ele>
<desc>Speed 13.6 km/h Distance 8.18 km</desc>
<time>2013-07-23T15:18:20.19</time>
<name>4137</name>
<sym>Dot</sym>
</trkpt>
<trkpt lat="48.900482" lon="20.045118">
<ele>1539.5</ele>
<desc>Speed 13.5 km/h Distance 8.19 km</desc>
<time>2013-07-23T15:18:21.19</time>
<name>4138</name>
<sym>Dot</sym>
</trkpt>
<trkpt lat="48.900492" lon="20.045067">
<ele>1539.5</ele>
<desc>Speed 14.0 km/h Distance 8.19 km</desc>
<time>2013-07-23T15:18:22.18</time>
<name>4139</name>
<sym>Dot</sym>
</trkpt>
<trkpt lat="48.900507" lon="20.045017">
<ele>1539.0</ele>
<desc>Speed 14.4 km/h Distance 8.20 km</desc>
<time>2013-07-23T15:18:23.18</time>
<name>4140</name>
<sym>Dot</sym>
</trkpt>
<trkpt lat="48.900520" lon="20.044963">
<ele>1538.5</ele>
<desc>Speed 14.5 km/h Distance 8.20 km</desc>
<time>2013-07-23T15:18:24.18</time>
<name>4141</name>
<sym>Dot</sym>
</trkpt>
<trkpt lat="48.900530" lon="20.044913">
<ele>1538.5</ele>
<desc>Speed 13.8 km/h Distance 8.20 km</desc>
<time>2013-07-23T15:18:25.17</time>
<name>4142</name>
<sym>Dot</sym>
</trkpt>
<trkpt lat="48.900537" lon="20.044862">
<ele>1538.0</ele>
<desc>Speed 13.6 km/h Distance 8.21 km</desc>
<time>2013-07-23T15:18:26.16</time>
<name>4143</name>
<sym>Dot</sym>
</trkpt>
<trkpt lat="48.900545" lon="20.044808">
<ele>1538.0</ele>
<desc>Speed 13.8 km/h Distance 8.21 km</desc>
<time>2013-07-23T15:18:27.16</time>
<name>4144</name>
<sym>Dot</sym>
</trkpt>
<trkpt lat="48.900552" lon="20.044755">
<ele>1537.5</ele>
<desc>Speed 14.3 km/h Distance 8.22 km</desc>
<time>2013-07-23T15:18:28.16</time>
<name>4145</name>
<sym>Dot</sym>
</trkpt>
<trkpt lat="48.900560" lon="20.044700">
<ele>1537.5</ele>
<desc>Speed 14.4 km/h Distance 8.22 km</desc>
<time>2013-07-23T15:18:29.16</time>
<name>4146</name>
<sym>Dot</sym>
</trkpt>
<trkpt lat="48.900567" lon="20.044645">
<ele>1537.0</ele>
<desc>Speed 14.4 km/h Distance 8.22 km</desc>
<time>2013-07-23T15:18:30.15</time>
<name>4147</name>
<sym>Dot</sym>
</trkpt>
<trkpt lat="48.900577" lon="20.044590">
<ele>1537.0</ele>
<desc>Speed 14.4 km/h Distance 8.23 km</desc>
<time>2013-07-23T15:18:31.15</time>
<name>4148</name>
<sym>Dot</sym>
</trkpt>
<trkpt lat="48.900585" lon="20.044533">
<ele>1536.5</ele>
<desc>Speed 14.9 km/h Distance 8.23 km</desc>
<time>2013-07-23T15:18:32.14</time>
<name>4149</name>
<sym>Dot</sym>
</trkpt>
<trkpt lat="48.900597" lon="20.044480">
<ele>1536.5</ele>
<desc>Speed 14.6 km/h Distance 8.24 km</desc>
<time>2013-07-23T15:18:33.14</time>
<name>4150</name>
<sym>Dot</sym>
</trkpt>
<trkpt lat="48.900605" lon="20.044427">
<ele>1536.5</ele>
<desc>Speed 14.4 km/h Distance 8.24 km</desc>
<time>2013-07-23T15:18:34.14</time>
<name>4151</name>
<sym>Dot</sym>
</trkpt>
<trkpt lat="48.900617" lon="20.044377">
<ele>1536.5</ele>
<desc>Speed 13.4 km/h Distance 8.24 km</desc>
<time>2013-07-23T15:18:35.13</time>
<name>4152</name>
<sym>Dot</sym>
</trkpt>
<trkpt lat="48.900623" lon="20.044328">
<ele>1536.0</ele>
<desc>Speed 13.2 km/h Distance 8.25 km</desc>
<time>2013-07-23T15:18:36.13</time>
<name>4153</name>
<sym>Dot</sym>
</trkpt>
<trkpt lat="48.900632" lon="20.044280">
<ele>1536.0</ele>
<desc>Speed 12.8 km/h Distance 8.25 km</desc>
<time>2013-07-23T15:18:37.13</time>
<name>4154</name>
<sym>Dot</sym>
</trkpt>
<trkpt lat="48.900642" lon="20.044233">
<ele>1536.0</ele>
<desc>Speed 13.0 km/h Distance 8.26 km</desc>
<time>2013-07-23T15:18:38.13</time>
<name>4155</name>
<sym>Dot</sym>
</trkpt>
<trkpt lat="48.900647" lon="20.044182">
<ele>1536.0</ele>
<desc>Speed 13.8 km/h Distance 8.26 km</desc>
<time>2013-07-23T15:18:39.13</time>
<name>4156</name>
<sym>Dot</sym>
</trkpt>
<trkpt lat="48.900650" lon="20.044127">
<ele>1536.0</ele>
<desc>Speed 14.7 km/h Distance 8.26 km</desc>
<time>2013-07-23T15:18:40.12</time>
<name>4157</name>
<sym>Dot</sym>
</trkpt>
<trkpt lat="48.900655" lon="20.044068">
<ele>1535.5</ele>
<desc>Speed 15.5 km/h Distance 8.27 km</desc>
<time>2013-07-23T15:18:41.12</time>
<name>4158</name>
<sym>Dot</sym>
</trkpt>
<trkpt lat="48.900663" lon="20.044002">
<ele>1535.0</ele>
<desc>Speed 17.4 km/h Distance 8.27 km</desc>
<time>2013-07-23T15:18:42.16</time>
<name>4159</name>
<sym>Dot</sym>
</trkpt>
<trkpt lat="48.900670" lon="20.043935">
<ele>1535.0</ele>
<desc>Speed 17.8 km/h Distance 8.28 km</desc>
<time>2013-07-23T15:18:43.11</time>
<name>4160</name>
<sym>Dot</sym>
</trkpt>
<trkpt lat="48.900675" lon="20.043868">
<ele>1534.5</ele>
<desc>Speed 17.6 km/h Distance 8.28 km</desc>
<time>2013-07-23T15:18:44.10</time>
<name>4161</name>
<sym>Dot</sym>
</trkpt>
<trkpt lat="48.900673" lon="20.043800">
<ele>1534.0</ele>
<desc>Speed 17.9 km/h Distance 8.29 km</desc>
<time>2013-07-23T15:18:45.11</time>
<name>4162</name>
<sym>Dot</sym>
</trkpt>
<trkpt lat="48.900668" lon="20.043735">
<ele>1534.0</ele>
<desc>Speed 17.2 km/h Distance 8.29 km</desc>
<time>2013-07-23T15:18:46.09</time>
<name>4163</name>
<sym>Dot</sym>
</trkpt>
<trkpt lat="48.900665" lon="20.043673">
<ele>1533.5</ele>
<desc>Speed 16.0 km/h Distance 8.30 km</desc>
<time>2013-07-23T15:18:47.09</time>
<name>4164</name>
<sym>Dot</sym>
</trkpt>
<trkpt lat="48.900668" lon="20.043615">
<ele>1533.5</ele>
<desc>Speed 15.1 km/h Distance 8.30 km</desc>
<time>2013-07-23T15:18:48.09</time>
<name>4165</name>
<sym>Dot</sym>
</trkpt>
<trkpt lat="48.900668" lon="20.043558">
<ele>1533.5</ele>
<desc>Speed 14.4 km/h Distance 8.31 km</desc>
<time>2013-07-23T15:18:49.09</time>
<name>4166</name>
<sym>Dot</sym>
</trkpt>
<trkpt lat="48.900670" lon="20.043505">
<ele>1533.5</ele>
<desc>Speed 13.8 km/h Distance 8.31 km</desc>
<time>2013-07-23T15:18:50.09</time>
<name>4167</name>
<sym>Dot</sym>
</trkpt>
<trkpt lat="48.900672" lon="20.043450">
<ele>1533.0</ele>
<desc>Speed 13.9 km/h Distance 8.31 km</desc>
<time>2013-07-23T15:18:51.08</time>
<name>4168</name>
<sym>Dot</sym>
</trkpt>
<trkpt lat="48.900673" lon="20.043392">
<ele>1533.0</ele>
<desc>Speed 14.8 km/h Distance 8.32 km</desc>
<time>2013-07-23T15:18:52.08</time>
<name>4169</name>
<sym>Dot</sym>
</trkpt>
<trkpt lat="48.900675" lon="20.043337">
<ele>1533.0</ele>
<desc>Speed 14.4 km/h Distance 8.32 km</desc>
<time>2013-07-23T15:18:53.07</time>
<name>4170</name>
<sym>Dot</sym>
</trkpt>
<trkpt lat="48.900677" lon="20.043285">
<ele>1533.0</ele>
<desc>Speed 13.8 km/h Distance 8.33 km</desc>
<time>2013-07-23T15:18:54.07</time>
<name>4171</name>
<sym>Dot</sym>
</trkpt>
<trkpt lat="48.900678" lon="20.043230">
<ele>1533.0</ele>
<desc>Speed 14.3 km/h Distance 8.33 km</desc>
<time>2013-07-23T15:18:55.06</time>
<name>4172</name>
<sym>Dot</sym>
</trkpt>
<trkpt lat="48.900682" lon="20.043173">
<ele>1533.0</ele>
<desc>Speed 15.0 km/h Distance 8.33 km</desc>
<time>2013-07-23T15:18:56.16</time>
<name>4173</name>
<sym>Dot</sym>
</trkpt>
<trkpt lat="48.900683" lon="20.043115">
<ele>1532.5</ele>
<desc>Speed 15.6 km/h Distance 8.34 km</desc>
<time>2013-07-23T15:18:57.06</time>
<name>4174</name>
<sym>Dot</sym>
</trkpt>
<trkpt lat="48.900687" lon="20.043052">
<ele>1532.5</ele>
<desc>Speed 16.5 km/h Distance 8.34 km</desc>
<time>2013-07-23T15:18:58.05</time>
<name>4175</name>
<sym>Dot</sym>
</trkpt>
<trkpt lat="48.900687" lon="20.042990">
<ele>1532.5</ele>
<desc>Speed 16.7 km/h Distance 8.35 km</desc>
<time>2013-07-23T15:18:59.04</time>
<name>4176</name>
<sym>Dot</sym>
</trkpt>
<trkpt lat="48.900688" lon="20.042925">
<ele>1532.0</ele>
<desc>Speed 17.1 km/h Distance 8.35 km</desc>
<time>2013-07-23T15:19:00.04</time>
<name>4177</name>
<sym>Dot</sym>
</trkpt>
<trkpt lat="48.900690" lon="20.042870">
<ele>1532.0</ele>
<desc>Speed 14.3 km/h Distance 8.36 km</desc>
<time>2013-07-23T15:19:01.04</time>
<name>4178</name>
<sym>Dot</sym>
</trkpt>
<trkpt lat="48.900695" lon="20.042818">
<ele>1532.0</ele>
<desc>Speed 14.1 km/h Distance 8.36 km</desc>
<time>2013-07-23T15:19:02.04</time>
<name>4179</name>
<sym>Dot</sym>
</trkpt>
<trkpt lat="48.900697" lon="20.042760">
<ele>1531.5</ele>
<desc>Speed 15.1 km/h Distance 8.36 km</desc>
<time>2013-07-23T15:19:03.03</time>
<name>4180</name>
<sym>Dot</sym>
</trkpt>
<trkpt lat="48.900698" lon="20.042698">
<ele>1531.0</ele>
<desc>Speed 16.2 km/h Distance 8.37 km</desc>
<time>2013-07-23T15:19:04.03</time>
<name>4181</name>
<sym>Dot</sym>
</trkpt>
<trkpt lat="48.900700" lon="20.042635">
<ele>1531.0</ele>
<desc>Speed 16.5 km/h Distance 8.37 km</desc>
<time>2013-07-23T15:19:05.03</time>
<name>4182</name>
<sym>Dot</sym>
</trkpt>
<trkpt lat="48.900703" lon="20.042570">
<ele>1530.5</ele>
<desc>Speed 16.9 km/h Distance 8.38 km</desc>
<time>2013-07-23T15:19:06.03</time>
<name>4183</name>
<sym>Dot</sym>
</trkpt>
<trkpt lat="48.900707" lon="20.042503">
<ele>1530.0</ele>
<desc>Speed 17.0 km/h Distance 8.38 km</desc>
<time>2013-07-23T15:19:07.02</time>
<name>4184</name>
<sym>Dot</sym>
</trkpt>
<trkpt lat="48.900712" lon="20.042435">
<ele>1529.5</ele>
<desc>Speed 17.9 km/h Distance 8.39 km</desc>
<time>2013-07-23T15:19:08.02</time>
<name>4185</name>
<sym>Dot</sym>
</trkpt>
<trkpt lat="48.900717" lon="20.042363">
<ele>1529.0</ele>
<desc>Speed 18.9 km/h Distance 8.39 km</desc>
<time>2013-07-23T15:19:09.05</time>
<name>4186</name>
<sym>Dot</sym>
</trkpt>
<trkpt lat="48.900725" lon="20.042288">
<ele>1528.5</ele>
<desc>Speed 19.6 km/h Distance 8.40 km</desc>
<time>2013-07-23T15:19:10.01</time>
<name>4187</name>
<sym>Dot</sym>
</trkpt>
<trkpt lat="48.900733" lon="20.042217">
<ele>1528.0</ele>
<desc>Speed 19.2 km/h Distance 8.40 km</desc>
<time>2013-07-23T15:19:11.01</time>
<name>4188</name>
<sym>Dot</sym>
</trkpt>
<trkpt lat="48.900740" lon="20.042153">
<ele>1528.0</ele>
<desc>Speed 16.5 km/h Distance 8.41 km</desc>
<time>2013-07-23T15:19:12.00</time>
<name>4189</name>
<sym>Dot</sym>
</trkpt>
<trkpt lat="48.900742" lon="20.042093">
<ele>1528.0</ele>
<desc>Speed 15.6 km/h Distance 8.41 km</desc>
<time>2013-07-23T15:19:13.00</time>
<name>4190</name>
<sym>Dot</sym>
</trkpt>
<trkpt lat="48.900743" lon="20.042037">
<ele>1527.5</ele>
<desc>Speed 15.0 km/h Distance 8.42 km</desc>
<time>2013-07-23T15:19:14.00</time>
<name>4191</name>
<sym>Dot</sym>
</trkpt>
<trkpt lat="48.900743" lon="20.041980">
<ele>1528.0</ele>
<desc>Speed 14.7 km/h Distance 8.42 km</desc>
<time>2013-07-23T15:19:15.00</time>
<name>4192</name>
<sym>Dot</sym>
</trkpt>
<trkpt lat="48.900745" lon="20.041925">
<ele>1528.0</ele>
<desc>Speed 14.6 km/h Distance 8.43 km</desc>
<time>2013-07-23T15:19:16.00</time>
<name>4193</name>
<sym>Dot</sym>
</trkpt>
<trkpt lat="48.900747" lon="20.041870">
<ele>1527.5</ele>
<desc>Speed 14.5 km/h Distance 8.43 km</desc>
<time>2013-07-23T15:19:16.99</time>
<name>4194</name>
<sym>Dot</sym>
</trkpt>
<trkpt lat="48.900745" lon="20.041817">
<ele>1527.5</ele>
<desc>Speed 13.9 km/h Distance 8.43 km</desc>
<time>2013-07-23T15:19:17.98</time>
<name>4195</name>
<sym>Dot</sym>
</trkpt>
<trkpt lat="48.900745" lon="20.041768">
<ele>1527.5</ele>
<desc>Speed 12.7 km/h Distance 8.44 km</desc>
<time>2013-07-23T15:19:18.98</time>
<name>4196</name>
<sym>Dot</sym>
</trkpt>
<trkpt lat="48.900747" lon="20.041717">
<ele>1527.5</ele>
<desc>Speed 13.4 km/h Distance 8.44 km</desc>
<time>2013-07-23T15:19:19.98</time>
<name>4197</name>
<sym>Dot</sym>
</trkpt>
<trkpt lat="48.900747" lon="20.041665">
<ele>1527.5</ele>
<desc>Speed 13.5 km/h Distance 8.44 km</desc>
<time>2013-07-23T15:19:20.98</time>
<name>4198</name>
<sym>Dot</sym>
</trkpt>
<trkpt lat="48.900750" lon="20.041612">
<ele>1527.0</ele>
<desc>Speed 14.0 km/h Distance 8.45 km</desc>
<time>2013-07-23T15:19:22.06</time>
<name>4199</name>
<sym>Dot</sym>
</trkpt>
<trkpt lat="48.900752" lon="20.041562">
<ele>1527.5</ele>
<desc>Speed 12.7 km/h Distance 8.45 km</desc>
<time>2013-07-23T15:19:22.97</time>
<name>4200</name>
<sym>Dot</sym>
</trkpt>
<trkpt lat="48.900755" lon="20.041515">
<ele>1527.5</ele>
<desc>Speed 12.3 km/h Distance 8.46 km</desc>
<time>2013-07-23T15:19:23.96</time>
<name>4201</name>
<sym>Dot</sym>
</trkpt>
<trkpt lat="48.900757" lon="20.041470">
<ele>1527.0</ele>
<desc>Speed 11.8 km/h Distance 8.46 km</desc>
<time>2013-07-23T15:19:24.96</time>
<name>4202</name>
<sym>Dot</sym>
</trkpt>
<trkpt lat="48.900762" lon="20.041432">
<ele>1527.0</ele>
<desc>Speed 10.1 km/h Distance 8.46 km</desc>
<time>2013-07-23T15:19:25.95</time>
<name>4203</name>
<sym>Dot</sym>
</trkpt>
<trkpt lat="48.900762" lon="20.041403">
<ele>1527.0</ele>
<desc>Speed 7.2 km/h Distance 8.46 km</desc>
<time>2013-07-23T15:19:26.95</time>
<name>4204</name>
<sym>Dot</sym>
</trkpt>
<trkpt lat="48.900745" lon="20.041392">
<ele>1528.0</ele>
<desc>Speed 7.6 km/h Distance 8.47 km</desc>
<time>2013-07-23T15:19:28.04</time>
<name>4205</name>
<sym>Dot</sym>
</trkpt>
<trkpt lat="48.900738" lon="20.041368">
<ele>1528.0</ele>
<desc>Speed 6.6 km/h Distance 8.47 km</desc>
<time>2013-07-23T15:19:28.95</time>
<name>4206</name>
<sym>Dot</sym>
</trkpt>
<trkpt lat="48.900730" lon="20.041338">
<ele>1526.5</ele>
<desc>Speed 8.7 km/h Distance 8.47 km</desc>
<time>2013-07-23T15:19:29.94</time>
<name>4207</name>
<sym>Dot</sym>
</trkpt>
<trkpt lat="48.900720" lon="20.041302">
<ele>1524.5</ele>
<desc>Speed 10.2 km/h Distance 8.47 km</desc>
<time>2013-07-23T15:19:30.95</time>
<name>4208</name>
<sym>Dot</sym>
</trkpt>
<trkpt lat="48.900722" lon="20.041262">
<ele>1525.5</ele>
<desc>Speed 10.0 km/h Distance 8.48 km</desc>
<time>2013-07-23T15:19:31.94</time>
<name>4209</name>
<sym>Dot</sym>
</trkpt>
<trkpt lat="48.900723" lon="20.041217">
<ele>1525.0</ele>
<desc>Speed 11.6 km/h Distance 8.48 km</desc>
<time>2013-07-23T15:19:32.93</time>
<name>4210</name>
<sym>Dot</sym>
</trkpt>
<trkpt lat="48.900720" lon="20.041168">
<ele>1523.5</ele>
<desc>Speed 12.9 km/h Distance 8.48 km</desc>
<time>2013-07-23T15:19:33.93</time>
<name>4211</name>
<sym>Dot</sym>
</trkpt>
<trkpt lat="48.900722" lon="20.041120">
<ele>1524.0</ele>
<desc>Speed 12.2 km/h Distance 8.49 km</desc>
<time>2013-07-23T15:19:34.93</time>
<name>4212</name>
<sym>Dot</sym>
</trkpt>
<trkpt lat="48.900725" lon="20.041073">
<ele>1524.0</ele>
<desc>Speed 11.8 km/h Distance 8.49 km</desc>
<time>2013-07-23T15:19:35.93</time>
<name>4213</name>
<sym>Dot</sym>
</trkpt>
<trkpt lat="48.900728" lon="20.041037">
<ele>1524.0</ele>
<desc>Speed 9.5 km/h Distance 8.49 km</desc>
<time>2013-07-23T15:19:36.93</time>
<name>4214</name>
<sym>Dot</sym>
</trkpt>
<trkpt lat="48.900727" lon="20.041005">
<ele>1524.0</ele>
<desc>Speed 8.6 km/h Distance 8.49 km</desc>
<time>2013-07-23T15:19:37.93</time>
<name>4215</name>
<sym>Dot</sym>
</trkpt>
<trkpt lat="48.900727" lon="20.040967">
<ele>1524.0</ele>
<desc>Speed 9.6 km/h Distance 8.50 km</desc>
<time>2013-07-23T15:19:38.92</time>
<name>4216</name>
<sym>Dot</sym>
</trkpt>
<trkpt lat="48.900728" lon="20.040923">
<ele>1524.0</ele>
<desc>Speed 11.1 km/h Distance 8.50 km</desc>
<time>2013-07-23T15:19:39.92</time>
<name>4217</name>
<sym>Dot</sym>
</trkpt>
<trkpt lat="48.900732" lon="20.040877">
<ele>1524.0</ele>
<desc>Speed 12.0 km/h Distance 8.50 km</desc>
<time>2013-07-23T15:19:40.91</time>
<name>4218</name>
<sym>Dot</sym>
</trkpt>
<trkpt lat="48.900733" lon="20.040825">
<ele>1524.0</ele>
<desc>Speed 12.6 km/h Distance 8.51 km</desc>
<time>2013-07-23T15:19:41.91</time>
<name>4219</name>
<sym>Dot</sym>
</trkpt>
<trkpt lat="48.900737" lon="20.040772">
<ele>1524.0</ele>
<desc>Speed 13.4 km/h Distance 8.51 km</desc>
<time>2013-07-23T15:19:42.91</time>
<name>4220</name>
<sym>Dot</sym>
</trkpt>
<trkpt lat="48.900742" lon="20.040720">
<ele>1524.0</ele>
<desc>Speed 13.2 km/h Distance 8.52 km</desc>
<time>2013-07-23T15:19:43.90</time>
<name>4221</name>
<sym>Dot</sym>
</trkpt>
<trkpt lat="48.900745" lon="20.040673">
<ele>1524.5</ele>
<desc>Speed 12.3 km/h Distance 8.52 km</desc>
<time>2013-07-23T15:19:44.90</time>
<name>4222</name>
<sym>Dot</sym>
</trkpt>
<trkpt lat="48.900753" lon="20.040627">
<ele>1524.5</ele>
<desc>Speed 12.0 km/h Distance 8.52 km</desc>
<time>2013-07-23T15:19:45.89</time>
<name>4223</name>
<sym>Dot</sym>
</trkpt>
<trkpt lat="48.900758" lon="20.040580">
<ele>1524.5</ele>
<desc>Speed 12.3 km/h Distance 8.53 km</desc>
<time>2013-07-23T15:19:46.89</time>
<name>4224</name>
<sym>Dot</sym>
</trkpt>
<trkpt lat="48.900765" lon="20.040530">
<ele>1524.5</ele>
<desc>Speed 13.0 km/h Distance 8.53 km</desc>
<time>2013-07-23T15:19:47.88</time>
<name>4225</name>
<sym>Dot</sym>
</trkpt>
<trkpt lat="48.900768" lon="20.040473">
<ele>1524.0</ele>
<desc>Speed 14.3 km/h Distance 8.53 km</desc>
<time>2013-07-23T15:19:48.88</time>
<name>4226</name>
<sym>Dot</sym>
</trkpt>
<trkpt lat="48.900768" lon="20.040417">
<ele>1524.0</ele>
<desc>Speed 14.6 km/h Distance 8.54 km</desc>
<time>2013-07-23T15:19:49.87</time>
<name>4227</name>
<sym>Dot</sym>
</trkpt>
<trkpt lat="48.900773" lon="20.040363">
<ele>1524.0</ele>
<desc>Speed 14.1 km/h Distance 8.54 km</desc>
<time>2013-07-23T15:19:50.87</time>
<name>4228</name>
<sym>Dot</sym>
</trkpt>
<trkpt lat="48.900778" lon="20.040310">
<ele>1524.0</ele>
<desc>Speed 14.0 km/h Distance 8.55 km</desc>
<time>2013-07-23T15:19:51.85</time>
<name>4229</name>
<sym>Dot</sym>
</trkpt>
<trkpt lat="48.900787" lon="20.040262">
<ele>1524.5</ele>
<desc>Speed 12.9 km/h Distance 8.55 km</desc>
<time>2013-07-23T15:19:52.84</time>
<name>4230</name>
<sym>Dot</sym>
</trkpt>
<trkpt lat="48.900792" lon="20.040213">
<ele>1525.0</ele>
<desc>Speed 12.3 km/h Distance 8.55 km</desc>
<time>2013-07-23T15:19:53.84</time>
<name>4231</name>
<sym>Dot</sym>
</trkpt>
<trkpt lat="48.900797" lon="20.040170">
<ele>1525.0</ele>
<desc>Speed 10.8 km/h Distance 8.56 km</desc>
<time>2013-07-23T15:19:54.84</time>
<name>4232</name>
<sym>Dot</sym>
</trkpt>
<trkpt lat="48.900803" lon="20.040130">
<ele>1525.0</ele>
<desc>Speed 10.4 km/h Distance 8.56 km</desc>
<time>2013-07-23T15:19:55.84</time>
<name>4233</name>
<sym>Dot</sym>
</trkpt>
<trkpt lat="48.900807" lon="20.040093">
<ele>1525.0</ele>
<desc>Speed 9.5 km/h Distance 8.56 km</desc>
<time>2013-07-23T15:19:56.84</time>
<name>4234</name>
<sym>Dot</sym>
</trkpt>
<trkpt lat="48.900810" lon="20.040062">
<ele>1525.5</ele>
<desc>Speed 8.6 km/h Distance 8.56 km</desc>
<time>2013-07-23T15:19:57.83</time>
<name>4235</name>
<sym>Dot</sym>
</trkpt>
<trkpt lat="48.900813" lon="20.040028">
<ele>1526.0</ele>
<desc>Speed 8.8 km/h Distance 8.57 km</desc>
<time>2013-07-23T15:19:58.82</time>
<name>4236</name>
<sym>Dot</sym>
</trkpt>
<trkpt lat="48.900817" lon="20.039992">
<ele>1526.0</ele>
<desc>Speed 9.2 km/h Distance 8.57 km</desc>
<time>2013-07-23T15:19:59.82</time>
<name>4237</name>
<sym>Dot</sym>
</trkpt>
<trkpt lat="48.900818" lon="20.039952">
<ele>1526.0</ele>
<desc>Speed 10.5 km/h Distance 8.57 km</desc>
<time>2013-07-23T15:20:00.81</time>
<name>4238</name>
<sym>Dot</sym>
</trkpt>
<trkpt lat="48.900822" lon="20.039910">
<ele>1526.5</ele>
<desc>Speed 10.5 km/h Distance 8.58 km</desc>
<time>2013-07-23T15:20:01.81</time>
<name>4239</name>
<sym>Dot</sym>
</trkpt>
<trkpt lat="48.900827" lon="20.039870">
<ele>1526.5</ele>
<desc>Speed 10.6 km/h Distance 8.58 km</desc>
<time>2013-07-23T15:20:02.81</time>
<name>4240</name>
<sym>Dot</sym>
</trkpt>
<trkpt lat="48.900833" lon="20.039832">
<ele>1527.0</ele>
<desc>Speed 10.1 km/h Distance 8.58 km</desc>
<time>2013-07-23T15:20:03.80</time>
<name>4241</name>
<sym>Dot</sym>
</trkpt>
<trkpt lat="48.900837" lon="20.039793">
<ele>1526.5</ele>
<desc>Speed 10.0 km/h Distance 8.58 km</desc>
<time>2013-07-23T15:20:04.80</time>
<name>4242</name>
<sym>Dot</sym>
</trkpt>
<trkpt lat="48.900840" lon="20.039755">
<ele>1526.5</ele>
<desc>Speed 10.4 km/h Distance 8.59 km</desc>
<time>2013-07-23T15:20:05.80</time>
<name>4243</name>
<sym>Dot</sym>
</trkpt>
<trkpt lat="48.900843" lon="20.039715">
<ele>1526.5</ele>
<desc>Speed 9.9 km/h Distance 8.59 km</desc>
<time>2013-07-23T15:20:06.79</time>
<name>4244</name>
<sym>Dot</sym>
</trkpt>
<trkpt lat="48.900847" lon="20.039677">
<ele>1527.0</ele>
<desc>Speed 10.1 km/h Distance 8.59 km</desc>
<time>2013-07-23T15:20:07.78</time>
<name>4245</name>
<sym>Dot</sym>
</trkpt>
<trkpt lat="48.900852" lon="20.039642">
<ele>1527.0</ele>
<desc>Speed 9.2 km/h Distance 8.60 km</desc>
<time>2013-07-23T15:20:08.78</time>
<name>4246</name>
<sym>Dot</sym>
</trkpt>
<trkpt lat="48.900860" lon="20.039608">
<ele>1527.5</ele>
<desc>Speed 9.2 km/h Distance 8.60 km</desc>
<time>2013-07-23T15:20:09.78</time>
<name>4247</name>
<sym>Dot</sym>
</trkpt>
<trkpt lat="48.900867" lon="20.039568">
<ele>1527.5</ele>
<desc>Speed 10.3 km/h Distance 8.60 km</desc>
<time>2013-07-23T15:20:10.78</time>
<name>4248</name>
<sym>Dot</sym>
</trkpt>
<trkpt lat="48.900872" lon="20.039528">
<ele>1527.5</ele>
<desc>Speed 10.4 km/h Distance 8.60 km</desc>
<time>2013-07-23T15:20:11.79</time>
<name>4249</name>
<sym>Dot</sym>
</trkpt>
<trkpt lat="48.900875" lon="20.039485">
<ele>1527.5</ele>
<desc>Speed 11.1 km/h Distance 8.61 km</desc>
<time>2013-07-23T15:20:12.77</time>
<name>4250</name>
<sym>Dot</sym>
</trkpt>
<trkpt lat="48.900878" lon="20.039447">
<ele>1528.0</ele>
<desc>Speed 10.1 km/h Distance 8.61 km</desc>
<time>2013-07-23T15:20:13.77</time>
<name>4251</name>
<sym>Dot</sym>
</trkpt>
<trkpt lat="48.900882" lon="20.039403">
<ele>1528.0</ele>
<desc>Speed 10.8 km/h Distance 8.61 km</desc>
<time>2013-07-23T15:20:14.76</time>
<name>4252</name>
<sym>Dot</sym>
</trkpt>
<trkpt lat="48.900882" lon="20.039360">
<ele>1528.0</ele>
<desc>Speed 11.2 km/h Distance 8.62 km</desc>
<time>2013-07-23T15:20:15.76</time>
<name>4253</name>
<sym>Dot</sym>
</trkpt>
<trkpt lat="48.900882" lon="20.039317">
<ele>1528.0</ele>
<desc>Speed 11.2 km/h Distance 8.62 km</desc>
<time>2013-07-23T15:20:16.75</time>
<name>4254</name>
<sym>Dot</sym>
</trkpt>
<trkpt lat="48.900880" lon="20.039277">
<ele>1528.0</ele>
<desc>Speed 10.0 km/h Distance 8.62 km</desc>
<time>2013-07-23T15:20:17.75</time>
<name>4255</name>
<sym>Dot</sym>
</trkpt>
<trkpt lat="48.900885" lon="20.039238">
<ele>1528.0</ele>
<desc>Speed 10.1 km/h Distance 8.63 km</desc>
<time>2013-07-23T15:20:18.74</time>
<name>4256</name>
<sym>Dot</sym>
</trkpt>
<trkpt lat="48.900893" lon="20.039218">
<ele>1528.0</ele>
<desc>Speed 6.0 km/h Distance 8.63 km</desc>
<time>2013-07-23T15:20:19.74</time>
<name>4257</name>
<sym>Dot</sym>
</trkpt>
<trkpt lat="48.900900" lon="20.039182">
<ele>1528.5</ele>
<desc>Speed 9.5 km/h Distance 8.63 km</desc>
<time>2013-07-23T15:20:20.75</time>
<name>4258</name>
<sym>Dot</sym>
</trkpt>
<trkpt lat="48.900903" lon="20.039142">
<ele>1528.5</ele>
<desc>Speed 9.9 km/h Distance 8.63 km</desc>
<time>2013-07-23T15:20:21.73</time>
<name>4259</name>
<sym>Dot</sym>
</trkpt>
<trkpt lat="48.900908" lon="20.039103">
<ele>1528.5</ele>
<desc>Speed 9.7 km/h Distance 8.64 km</desc>
<time>2013-07-23T15:20:22.72</time>
<name>4260</name>
<sym>Dot</sym>
</trkpt>
<trkpt lat="48.900908" lon="20.039067">
<ele>1529.0</ele>
<desc>Speed 9.1 km/h Distance 8.64 km</desc>
<time>2013-07-23T15:20:23.72</time>
<name>4261</name>
<sym>Dot</sym>
</trkpt>
<trkpt lat="48.900910" lon="20.039033">
<ele>1529.0</ele>
<desc>Speed 8.5 km/h Distance 8.64 km</desc>
<time>2013-07-23T15:20:24.72</time>
<name>4262</name>
<sym>Dot</sym>
</trkpt>
<trkpt lat="48.900913" lon="20.038997">
<ele>1529.5</ele>
<desc>Speed 9.4 km/h Distance 8.64 km</desc>
<time>2013-07-23T15:20:25.71</time>
<name>4263</name>
<sym>Dot</sym>
</trkpt>
<trkpt lat="48.900913" lon="20.038958">
<ele>1529.5</ele>
<desc>Speed 9.6 km/h Distance 8.65 km</desc>
<time>2013-07-23T15:20:26.71</time>
<name>4264</name>
<sym>Dot</sym>
</trkpt>
<trkpt lat="48.900912" lon="20.038922">
<ele>1530.0</ele>
<desc>Speed 9.4 km/h Distance 8.65 km</desc>
<time>2013-07-23T15:20:27.70</time>
<name>4265</name>
<sym>Dot</sym>
</trkpt>
<trkpt lat="48.900913" lon="20.038885">
<ele>1530.0</ele>
<desc>Speed 9.1 km/h Distance 8.65 km</desc>
<time>2013-07-23T15:20:28.70</time>
<name>4266</name>
<sym>Dot</sym>
</trkpt>
<trkpt lat="48.900913" lon="20.038848">
<ele>1530.0</ele>
<desc>Speed 9.2 km/h Distance 8.65 km</desc>
<time>2013-07-23T15:20:29.70</time>
<name>4267</name>
<sym>Dot</sym>
</trkpt>
<trkpt lat="48.900913" lon="20.038812">
<ele>1530.5</ele>
<desc>Speed 9.5 km/h Distance 8.66 km</desc>
<time>2013-07-23T15:20:30.69</time>
<name>4268</name>
<sym>Dot</sym>
</trkpt>
<trkpt lat="48.900913" lon="20.038773">
<ele>1530.5</ele>
<desc>Speed 9.9 km/h Distance 8.66 km</desc>
<time>2013-07-23T15:20:31.69</time>
<name>4269</name>
<sym>Dot</sym>
</trkpt>
<trkpt lat="48.900915" lon="20.038737">
<ele>1531.0</ele>
<desc>Speed 9.2 km/h Distance 8.66 km</desc>
<time>2013-07-23T15:20:32.69</time>
<name>4270</name>
<sym>Dot</sym>
</trkpt>
<trkpt lat="48.900918" lon="20.038700">
<ele>1531.0</ele>
<desc>Speed 8.9 km/h Distance 8.67 km</desc>
<time>2013-07-23T15:20:33.69</time>
<name>4271</name>
<sym>Dot</sym>
</trkpt>
<trkpt lat="48.900920" lon="20.038665">
<ele>1531.0</ele>
<desc>Speed 8.6 km/h Distance 8.67 km</desc>
<time>2013-07-23T15:20:34.69</time>
<name>4272</name>
<sym>Dot</sym>
</trkpt>
<trkpt lat="48.900920" lon="20.038628">
<ele>1531.5</ele>
<desc>Speed 9.0 km/h Distance 8.67 km</desc>
<time>2013-07-23T15:20:35.68</time>
<name>4273</name>
<sym>Dot</sym>
</trkpt>
<trkpt lat="48.900922" lon="20.038593">
<ele>1531.5</ele>
<desc>Speed 8.6 km/h Distance 8.67 km</desc>
<time>2013-07-23T15:20:36.67</time>
<name>4274</name>
<sym>Dot</sym>
</trkpt>
<trkpt lat="48.900922" lon="20.038563">
<ele>1531.5</ele>
<desc>Speed 7.7 km/h Distance 8.68 km</desc>
<time>2013-07-23T15:20:37.67</time>
<name>4275</name>
<sym>Dot</sym>
</trkpt>
<trkpt lat="48.900922" lon="20.038535">
<ele>1532.0</ele>
<desc>Speed 7.3 km/h Distance 8.68 km</desc>
<time>2013-07-23T15:20:38.67</time>
<name>4276</name>
<sym>Dot</sym>
</trkpt>
<trkpt lat="48.900922" lon="20.038508">
<ele>1532.0</ele>
<desc>Speed 6.6 km/h Distance 8.68 km</desc>
<time>2013-07-23T15:20:39.67</time>
<name>4277</name>
<sym>Dot</sym>
</trkpt>
<trkpt lat="48.900925" lon="20.038485">
<ele>1532.5</ele>
<desc>Speed 6.4 km/h Distance 8.68 km</desc>
<time>2013-07-23T15:20:40.66</time>
<name>4278</name>
<sym>Dot</sym>
</trkpt>
<trkpt lat="48.900945" lon="20.038475">
<ele>1534.0</ele>
<desc>Speed 7.8 km/h Distance 8.68 km</desc>
<time>2013-07-23T15:20:41.66</time>
<name>4279</name>
<sym>Dot</sym>
</trkpt>
<trkpt lat="48.900935" lon="20.038442">
<ele>1533.5</ele>
<desc>Speed 9.2 km/h Distance 8.69 km</desc>
<time>2013-07-23T15:20:42.65</time>
<name>4280</name>
<sym>Dot</sym>
</trkpt>
<trkpt lat="48.900938" lon="20.038418">
<ele>1533.5</ele>
<desc>Speed 6.0 km/h Distance 8.69 km</desc>
<time>2013-07-23T15:20:43.65</time>
<name>4281</name>
<sym>Dot</sym>
</trkpt>
<trkpt lat="48.900943" lon="20.038395">
<ele>1534.0</ele>
<desc>Speed 5.8 km/h Distance 8.69 km</desc>
<time>2013-07-23T15:20:44.65</time>
<name>4282</name>
<sym>Dot</sym>
</trkpt>
<trkpt lat="48.900950" lon="20.038377">
<ele>1534.0</ele>
<desc>Speed 5.1 km/h Distance 8.69 km</desc>
<time>2013-07-23T15:20:45.65</time>
<name>4283</name>
<sym>Dot</sym>
</trkpt>
<trkpt lat="48.900953" lon="20.038357">
<ele>1534.0</ele>
<desc>Speed 5.2 km/h Distance 8.69 km</desc>
<time>2013-07-23T15:20:46.65</time>
<name>4284</name>
<sym>Dot</sym>
</trkpt>
<trkpt lat="48.900957" lon="20.038337">
<ele>1534.5</ele>
<desc>Speed 5.4 km/h Distance 8.69 km</desc>
<time>2013-07-23T15:20:47.64</time>
<name>4285</name>
<sym>Dot</sym>
</trkpt>
<trkpt lat="48.900962" lon="20.038315">
<ele>1534.5</ele>
<desc>Speed 5.4 km/h Distance 8.70 km</desc>
<time>2013-07-23T15:20:48.64</time>
<name>4286</name>
<sym>Dot</sym>
</trkpt>
<trkpt lat="48.900968" lon="20.038295">
<ele>1534.5</ele>
<desc>Speed 5.3 km/h Distance 8.70 km</desc>
<time>2013-07-23T15:20:49.65</time>
<name>4287</name>
<sym>Dot</sym>
</trkpt>
<trkpt lat="48.900972" lon="20.038278">
<ele>1534.5</ele>
<desc>Speed 3.7 km/h Distance 8.70 km</desc>
<time>2013-07-23T15:20:50.63</time>
<name>4288</name>
<sym>Dot</sym>
</trkpt>
<trkpt lat="48.900965" lon="20.038262">
<ele>1534.0</ele>
<desc>Speed 4.5 km/h Distance 8.70 km</desc>
<time>2013-07-23T15:20:51.63</time>
<name>4289</name>
<sym>Dot</sym>
</trkpt>
<trkpt lat="48.900940" lon="20.038180">
<ele>1531.5</ele>
<desc>Speed 3.0 km/h Distance 8.71 km</desc>
<time>2013-07-23T15:21:17.62</time>
<name>4290</name>
<sym>Dot</sym>
</trkpt>
<trkpt lat="48.900942" lon="20.038167">
<ele>1531.5</ele>
<desc>Speed 3.3 km/h Distance 8.71 km</desc>
<time>2013-07-23T15:21:18.62</time>
<name>4291</name>
<sym>Dot</sym>
</trkpt>
<trkpt lat="48.900945" lon="20.038120">
<ele>1532.0</ele>
<desc>Speed 2.5 km/h Distance 8.71 km</desc>
<time>2013-07-23T15:21:24.62</time>
<name>4292</name>
<sym>Dot</sym>
</trkpt>
<trkpt lat="48.900943" lon="20.038110">
<ele>1532.5</ele>
<desc>Speed 2.7 km/h Distance 8.71 km</desc>
<time>2013-07-23T15:21:25.62</time>
<name>4293</name>
<sym>Dot</sym>
</trkpt>
<trkpt lat="48.900945" lon="20.038098">
<ele>1532.0</ele>
<desc>Speed 2.4 km/h Distance 8.71 km</desc>
<time>2013-07-23T15:21:26.63</time>
<name>4294</name>
<sym>Dot</sym>
</trkpt>
<trkpt lat="48.900950" lon="20.038090">
<ele>1533.5</ele>
<desc>Speed 3.4 km/h Distance 8.71 km</desc>
<time>2013-07-23T15:21:29.61</time>
<name>4295</name>
<sym>Dot</sym>
</trkpt>
<trkpt lat="48.900955" lon="20.038075">
<ele>1533.5</ele>
<desc>Speed 2.7 km/h Distance 8.72 km</desc>
<time>2013-07-23T15:21:33.61</time>
<name>4296</name>
<sym>Dot</sym>
</trkpt>
<trkpt lat="48.900953" lon="20.038060">
<ele>1533.5</ele>
<desc>Speed 3.5 km/h Distance 8.72 km</desc>
<time>2013-07-23T15:21:34.60</time>
<name>4297</name>
<sym>Dot</sym>
</trkpt>
<trkpt lat="48.900955" lon="20.038043">
<ele>1533.5</ele>
<desc>Speed 3.9 km/h Distance 8.72 km</desc>
<time>2013-07-23T15:21:35.59</time>
<name>4298</name>
<sym>Dot</sym>
</trkpt>
<trkpt lat="48.900950" lon="20.038022">
<ele>1534.0</ele>
<desc>Speed 6.1 km/h Distance 8.72 km</desc>
<time>2013-07-23T15:21:36.59</time>
<name>4299</name>
<sym>Dot</sym>
</trkpt>
<trkpt lat="48.900945" lon="20.038005">
<ele>1533.5</ele>
<desc>Speed 4.9 km/h Distance 8.72 km</desc>
<time>2013-07-23T15:21:37.88</time>
<name>4300</name>
<sym>Dot</sym>
</trkpt>
<trkpt lat="48.900945" lon="20.037988">
<ele>1533.5</ele>
<desc>Speed 3.9 km/h Distance 8.72 km</desc>
<time>2013-07-23T15:21:38.57</time>
<name>4301</name>
<sym>Dot</sym>
</trkpt>
<trkpt lat="48.900947" lon="20.037972">
<ele>1534.0</ele>
<desc>Speed 4.1 km/h Distance 8.72 km</desc>
<time>2013-07-23T15:21:39.56</time>
<name>4302</name>
<sym>Dot</sym>
</trkpt>
<trkpt lat="48.900950" lon="20.037955">
<ele>1534.0</ele>
<desc>Speed 4.0 km/h Distance 8.72 km</desc>
<time>2013-07-23T15:21:40.57</time>
<name>4303</name>
<sym>Dot</sym>
</trkpt>
<trkpt lat="48.900947" lon="20.037937">
<ele>1534.0</ele>
<desc>Speed 4.6 km/h Distance 8.73 km</desc>
<time>2013-07-23T15:21:41.81</time>
<name>4304</name>
<sym>Dot</sym>
</trkpt>
<trkpt lat="48.900945" lon="20.037915">
<ele>1534.0</ele>
<desc>Speed 5.1 km/h Distance 8.73 km</desc>
<time>2013-07-23T15:21:42.55</time>
<name>4305</name>
<sym>Dot</sym>
</trkpt>
<trkpt lat="48.900945" lon="20.037890">
<ele>1534.5</ele>
<desc>Speed 6.0 km/h Distance 8.73 km</desc>
<time>2013-07-23T15:21:43.55</time>
<name>4306</name>
<sym>Dot</sym>
</trkpt>
<trkpt lat="48.900948" lon="20.037862">
<ele>1534.5</ele>
<desc>Speed 7.2 km/h Distance 8.73 km</desc>
<time>2013-07-23T15:21:44.54</time>
<name>4307</name>
<sym>Dot</sym>
</trkpt>
<trkpt lat="48.900948" lon="20.037838">
<ele>1534.0</ele>
<desc>Speed 6.2 km/h Distance 8.73 km</desc>
<time>2013-07-23T15:21:45.54</time>
<name>4308</name>
<sym>Dot</sym>
</trkpt>
<trkpt lat="48.900950" lon="20.037815">
<ele>1534.0</ele>
<desc>Speed 5.1 km/h Distance 8.73 km</desc>
<time>2013-07-23T15:21:46.53</time>
<name>4309</name>
<sym>Dot</sym>
</trkpt>
<trkpt lat="48.900955" lon="20.037793">
<ele>1533.5</ele>
<desc>Speed 6.0 km/h Distance 8.74 km</desc>
<time>2013-07-23T15:21:47.52</time>
<name>4310</name>
<sym>Dot</sym>
</trkpt>
<trkpt lat="48.900960" lon="20.037772">
<ele>1533.0</ele>
<desc>Speed 5.7 km/h Distance 8.74 km</desc>
<time>2013-07-23T15:21:48.52</time>
<name>4311</name>
<sym>Dot</sym>
</trkpt>
<trkpt lat="48.900962" lon="20.037748">
<ele>1532.5</ele>
<desc>Speed 6.2 km/h Distance 8.74 km</desc>
<time>2013-07-23T15:21:49.52</time>
<name>4312</name>
<sym>Dot</sym>
</trkpt>
<trkpt lat="48.900962" lon="20.037722">
<ele>1532.5</ele>
<desc>Speed 6.2 km/h Distance 8.74 km</desc>
<time>2013-07-23T15:21:50.51</time>
<name>4313</name>
<sym>Dot</sym>
</trkpt>
<trkpt lat="48.900955" lon="20.037697">
<ele>1532.0</ele>
<desc>Speed 6.8 km/h Distance 8.74 km</desc>
<time>2013-07-23T15:21:51.51</time>
<name>4314</name>
<sym>Dot</sym>
</trkpt>
<trkpt lat="48.900952" lon="20.037667">
<ele>1531.0</ele>
<desc>Speed 7.2 km/h Distance 8.75 km</desc>
<time>2013-07-23T15:21:52.51</time>
<name>4315</name>
<sym>Dot</sym>
</trkpt>
<trkpt lat="48.900948" lon="20.037637">
<ele>1531.0</ele>
<desc>Speed 6.7 km/h Distance 8.75 km</desc>
<time>2013-07-23T15:21:53.51</time>
<name>4316</name>
<sym>Dot</sym>
</trkpt>
<trkpt lat="48.900943" lon="20.037603">
<ele>1530.5</ele>
<desc>Speed 7.5 km/h Distance 8.75 km</desc>
<time>2013-07-23T15:21:54.51</time>
<name>4317</name>
<sym>Dot</sym>
</trkpt>
<trkpt lat="48.900938" lon="20.037573">
<ele>1530.5</ele>
<desc>Speed 7.1 km/h Distance 8.75 km</desc>
<time>2013-07-23T15:21:55.50</time>
<name>4318</name>
<sym>Dot</sym>
</trkpt>
<trkpt lat="48.900932" lon="20.037542">
<ele>1530.0</ele>
<desc>Speed 7.7 km/h Distance 8.76 km</desc>
<time>2013-07-23T15:21:56.50</time>
<name>4319</name>
<sym>Dot</sym>
</trkpt>
<trkpt lat="48.900925" lon="20.037507">
<ele>1529.5</ele>
<desc>Speed 7.8 km/h Distance 8.76 km</desc>
<time>2013-07-23T15:21:57.50</time>
<name>4320</name>
<sym>Dot</sym>
</trkpt>
<trkpt lat="48.900918" lon="20.037473">
<ele>1529.0</ele>
<desc>Speed 7.5 km/h Distance 8.76 km</desc>
<time>2013-07-23T15:21:58.49</time>
<name>4321</name>
<sym>Dot</sym>
</trkpt>
<trkpt lat="48.900913" lon="20.037440">
<ele>1528.5</ele>
<desc>Speed 7.4 km/h Distance 8.76 km</desc>
<time>2013-07-23T15:21:59.49</time>
<name>4322</name>
<sym>Dot</sym>
</trkpt>
<trkpt lat="48.900910" lon="20.037413">
<ele>1528.5</ele>
<desc>Speed 7.1 km/h Distance 8.76 km</desc>
<time>2013-07-23T15:22:00.48</time>
<name>4323</name>
<sym>Dot</sym>
</trkpt>
<trkpt lat="48.900910" lon="20.037388">
<ele>1529.0</ele>
<desc>Speed 6.3 km/h Distance 8.77 km</desc>
<time>2013-07-23T15:22:01.48</time>
<name>4324</name>
<sym>Dot</sym>
</trkpt>
<trkpt lat="48.900913" lon="20.037365">
<ele>1529.0</ele>
<desc>Speed 5.8 km/h Distance 8.77 km</desc>
<time>2013-07-23T15:22:02.48</time>
<name>4325</name>
<sym>Dot</sym>
</trkpt>
<trkpt lat="48.900913" lon="20.037337">
<ele>1528.5</ele>
<desc>Speed 6.7 km/h Distance 8.77 km</desc>
<time>2013-07-23T15:22:03.47</time>
<name>4326</name>
<sym>Dot</sym>
</trkpt>
<trkpt lat="48.900912" lon="20.037307">
<ele>1528.5</ele>
<desc>Speed 7.4 km/h Distance 8.77 km</desc>
<time>2013-07-23T15:22:04.47</time>
<name>4327</name>
<sym>Dot</sym>
</trkpt>
<trkpt lat="48.900907" lon="20.037277">
<ele>1528.5</ele>
<desc>Speed 7.5 km/h Distance 8.77 km</desc>
<time>2013-07-23T15:22:05.77</time>
<name>4328</name>
<sym>Dot</sym>
</trkpt>
<trkpt lat="48.900905" lon="20.037247">
<ele>1528.5</ele>
<desc>Speed 7.1 km/h Distance 8.78 km</desc>
<time>2013-07-23T15:22:06.46</time>
<name>4329</name>
<sym>Dot</sym>
</trkpt>
<trkpt lat="48.900912" lon="20.037220">
<ele>1528.5</ele>
<desc>Speed 5.9 km/h Distance 8.78 km</desc>
<time>2013-07-23T15:22:07.46</time>
<name>4330</name>
<sym>Dot</sym>
</trkpt>
<trkpt lat="48.900910" lon="20.037193">
<ele>1528.0</ele>
<desc>Speed 6.2 km/h Distance 8.78 km</desc>
<time>2013-07-23T15:22:08.45</time>
<name>4331</name>
<sym>Dot</sym>
</trkpt>
<trkpt lat="48.900908" lon="20.037173">
<ele>1528.0</ele>
<desc>Speed 4.1 km/h Distance 8.78 km</desc>
<time>2013-07-23T15:22:09.45</time>
<name>4332</name>
<sym>Dot</sym>
</trkpt>
<trkpt lat="48.900907" lon="20.037150">
<ele>1527.5</ele>
<desc>Speed 4.6 km/h Distance 8.78 km</desc>
<time>2013-07-23T15:22:10.45</time>
<name>4333</name>
<sym>Dot</sym>
</trkpt>
<trkpt lat="48.900908" lon="20.037125">
<ele>1527.0</ele>
<desc>Speed 5.5 km/h Distance 8.79 km</desc>
<time>2013-07-23T15:22:11.44</time>
<name>4334</name>
<sym>Dot</sym>
</trkpt>
<trkpt lat="48.900910" lon="20.037100">
<ele>1527.0</ele>
<desc>Speed 5.3 km/h Distance 8.79 km</desc>
<time>2013-07-23T15:22:12.44</time>
<name>4335</name>
<sym>Dot</sym>
</trkpt>
<trkpt lat="48.900908" lon="20.037077">
<ele>1527.0</ele>
<desc>Speed 4.8 km/h Distance 8.79 km</desc>
<time>2013-07-23T15:22:13.43</time>
<name>4336</name>
<sym>Dot</sym>
</trkpt>
<trkpt lat="48.900908" lon="20.037057">
<ele>1526.5</ele>
<desc>Speed 4.9 km/h Distance 8.79 km</desc>
<time>2013-07-23T15:22:14.43</time>
<name>4337</name>
<sym>Dot</sym>
</trkpt>
<trkpt lat="48.900908" lon="20.037038">
<ele>1526.5</ele>
<desc>Speed 3.7 km/h Distance 8.79 km</desc>
<time>2013-07-23T15:22:15.43</time>
<name>4338</name>
<sym>Dot</sym>
</trkpt>
<trkpt lat="48.900908" lon="20.037025">
<ele>1526.5</ele>
<desc>Speed 2.5 km/h Distance 8.79 km</desc>
<time>2013-07-23T15:22:16.42</time>
<name>4339</name>
<sym>Dot</sym>
</trkpt>
<trkpt lat="48.900912" lon="20.037007">
<ele>1527.0</ele>
<desc>Speed 4.0 km/h Distance 8.79 km</desc>
<time>2013-07-23T15:22:17.42</time>
<name>4340</name>
<sym>Dot</sym>
</trkpt>
<trkpt lat="48.900912" lon="20.036985">
<ele>1527.5</ele>
<desc>Speed 5.6 km/h Distance 8.80 km</desc>
<time>2013-07-23T15:22:18.44</time>
<name>4341</name>
<sym>Dot</sym>
</trkpt>
<trkpt lat="48.900908" lon="20.036963">
<ele>1527.0</ele>
<desc>Speed 5.1 km/h Distance 8.80 km</desc>
<time>2013-07-23T15:22:19.41</time>
<name>4342</name>
<sym>Dot</sym>
</trkpt>
<trkpt lat="48.900905" lon="20.036943">
<ele>1527.0</ele>
<desc>Speed 4.9 km/h Distance 8.80 km</desc>
<time>2013-07-23T15:22:20.41</time>
<name>4343</name>
<sym>Dot</sym>
</trkpt>
<trkpt lat="48.900887" lon="20.036932">
<ele>1526.5</ele>
<desc>Speed 8.1 km/h Distance 8.80 km</desc>
<time>2013-07-23T15:22:21.40</time>
<name>4344</name>
<sym>Dot</sym>
</trkpt>
<trkpt lat="48.900890" lon="20.036913">
<ele>1528.0</ele>
<desc>Speed 4.0 km/h Distance 8.80 km</desc>
<time>2013-07-23T15:22:22.40</time>
<name>4345</name>
<sym>Dot</sym>
</trkpt>
<trkpt lat="48.900882" lon="20.036897">
<ele>1527.5</ele>
<desc>Speed 5.5 km/h Distance 8.80 km</desc>
<time>2013-07-23T15:22:23.39</time>
<name>4346</name>
<sym>Dot</sym>
</trkpt>
<trkpt lat="48.900882" lon="20.036882">
<ele>1527.5</ele>
<desc>Speed 3.5 km/h Distance 8.81 km</desc>
<time>2013-07-23T15:22:24.39</time>
<name>4347</name>
<sym>Dot</sym>
</trkpt>
<trkpt lat="48.900890" lon="20.036865">
<ele>1528.0</ele>
<desc>Speed 4.8 km/h Distance 8.81 km</desc>
<time>2013-07-23T15:22:25.50</time>
<name>4348</name>
<sym>Dot</sym>
</trkpt>
<trkpt lat="48.900893" lon="20.036847">
<ele>1528.5</ele>
<desc>Speed 5.0 km/h Distance 8.81 km</desc>
<time>2013-07-23T15:22:26.38</time>
<name>4349</name>
<sym>Dot</sym>
</trkpt>
<trkpt lat="48.900898" lon="20.036825">
<ele>1529.0</ele>
<desc>Speed 5.1 km/h Distance 8.81 km</desc>
<time>2013-07-23T15:22:27.38</time>
<name>4350</name>
<sym>Dot</sym>
</trkpt>
<trkpt lat="48.900898" lon="20.036803">
<ele>1529.5</ele>
<desc>Speed 5.1 km/h Distance 8.81 km</desc>
<time>2013-07-23T15:22:28.46</time>
<name>4351</name>
<sym>Dot</sym>
</trkpt>
<trkpt lat="48.900898" lon="20.036780">
<ele>1529.0</ele>
<desc>Speed 5.4 km/h Distance 8.81 km</desc>
<time>2013-07-23T15:22:29.38</time>
<name>4352</name>
<sym>Dot</sym>
</trkpt>
<trkpt lat="48.900893" lon="20.036755">
<ele>1529.0</ele>
<desc>Speed 6.3 km/h Distance 8.82 km</desc>
<time>2013-07-23T15:22:30.38</time>
<name>4353</name>
<sym>Dot</sym>
</trkpt>
<trkpt lat="48.900890" lon="20.036732">
<ele>1529.0</ele>
<desc>Speed 5.9 km/h Distance 8.82 km</desc>
<time>2013-07-23T15:22:31.37</time>
<name>4354</name>
<sym>Dot</sym>
</trkpt>
<trkpt lat="48.900888" lon="20.036708">
<ele>1529.5</ele>
<desc>Speed 5.9 km/h Distance 8.82 km</desc>
<time>2013-07-23T15:22:32.37</time>
<name>4355</name>
<sym>Dot</sym>
</trkpt>
<trkpt lat="48.900887" lon="20.036688">
<ele>1530.0</ele>
<desc>Speed 5.3 km/h Distance 8.82 km</desc>
<time>2013-07-23T15:22:33.37</time>
<name>4356</name>
<sym>Dot</sym>
</trkpt>
<trkpt lat="48.900887" lon="20.036670">
<ele>1530.5</ele>
<desc>Speed 4.6 km/h Distance 8.82 km</desc>
<time>2013-07-23T15:22:34.37</time>
<name>4357</name>
<sym>Dot</sym>
</trkpt>
<trkpt lat="48.900890" lon="20.036647">
<ele>1531.0</ele>
<desc>Speed 5.5 km/h Distance 8.82 km</desc>
<time>2013-07-23T15:22:35.37</time>
<name>4358</name>
<sym>Dot</sym>
</trkpt>
<trkpt lat="48.900892" lon="20.036628">
<ele>1532.0</ele>
<desc>Speed 4.5 km/h Distance 8.83 km</desc>
<time>2013-07-23T15:22:36.37</time>
<name>4359</name>
<sym>Dot</sym>
</trkpt>
<trkpt lat="48.900893" lon="20.036607">
<ele>1532.5</ele>
<desc>Speed 4.9 km/h Distance 8.83 km</desc>
<time>2013-07-23T15:22:37.37</time>
<name>4360</name>
<sym>Dot</sym>
</trkpt>
<trkpt lat="48.900895" lon="20.036592">
<ele>1533.0</ele>
<desc>Speed 4.0 km/h Distance 8.83 km</desc>
<time>2013-07-23T15:22:38.37</time>
<name>4361</name>
<sym>Dot</sym>
</trkpt>
<trkpt lat="48.900893" lon="20.036583">
<ele>1533.0</ele>
<desc>Speed 2.7 km/h Distance 8.83 km</desc>
<time>2013-07-23T15:22:39.36</time>
<name>4362</name>
<sym>Dot</sym>
</trkpt>
<trkpt lat="48.900890" lon="20.036552">
<ele>1534.5</ele>
<desc>Speed 3.7 km/h Distance 8.83 km</desc>
<time>2013-07-23T15:22:59.36</time>
<name>4363</name>
<sym>Dot</sym>
</trkpt>
<trkpt lat="48.900890" lon="20.036537">
<ele>1534.0</ele>
<desc>Speed 3.2 km/h Distance 8.83 km</desc>
<time>2013-07-23T15:23:00.36</time>
<name>4364</name>
<sym>Dot</sym>
</trkpt>
<trkpt lat="48.900887" lon="20.036520">
<ele>1534.0</ele>
<desc>Speed 3.4 km/h Distance 8.83 km</desc>
<time>2013-07-23T15:23:01.43</time>
<name>4365</name>
<sym>Dot</sym>
</trkpt>
<trkpt lat="48.900885" lon="20.036507">
<ele>1534.0</ele>
<desc>Speed 2.7 km/h Distance 8.83 km</desc>
<time>2013-07-23T15:23:02.35</time>
<name>4366</name>
<sym>Dot</sym>
</trkpt>
<trkpt lat="48.900888" lon="20.036497">
<ele>1534.5</ele>
<desc>Speed 2.5 km/h Distance 8.84 km</desc>
<time>2013-07-23T15:23:03.35</time>
<name>4367</name>
<sym>Dot</sym>
</trkpt>
<trkpt lat="48.900872" lon="20.036472">
<ele>1533.0</ele>
<desc>Speed 9.5 km/h Distance 8.84 km</desc>
<time>2013-07-23T15:23:04.35</time>
<name>4368</name>
<sym>Dot</sym>
</trkpt>
<trkpt lat="48.900870" lon="20.036463">
<ele>1533.0</ele>
<desc>Speed 2.7 km/h Distance 8.84 km</desc>
<time>2013-07-23T15:23:05.35</time>
<name>4369</name>
<sym>Dot</sym>
</trkpt>
<trkpt lat="48.900868" lon="20.036455">
<ele>1533.0</ele>
<desc>Speed 2.2 km/h Distance 8.84 km</desc>
<time>2013-07-23T15:23:06.38</time>
<name>4370</name>
<sym>Dot</sym>
</trkpt>
<trkpt lat="48.900867" lon="20.036443">
<ele>1533.5</ele>
<desc>Speed 2.6 km/h Distance 8.84 km</desc>
<time>2013-07-23T15:23:07.34</time>
<name>4371</name>
<sym>Dot</sym>
</trkpt>
<trkpt lat="48.900862" lon="20.036430">
<ele>1533.5</ele>
<desc>Speed 4.2 km/h Distance 8.84 km</desc>
<time>2013-07-23T15:23:08.34</time>
<name>4372</name>
<sym>Dot</sym>
</trkpt>
<trkpt lat="48.900858" lon="20.036417">
<ele>1533.0</ele>
<desc>Speed 3.4 km/h Distance 8.84 km</desc>
<time>2013-07-23T15:23:09.34</time>
<name>4373</name>
<sym>Dot</sym>
</trkpt>
<trkpt lat="48.900862" lon="20.036405">
<ele>1533.0</ele>
<desc>Speed 2.5 km/h Distance 8.84 km</desc>
<time>2013-07-23T15:23:10.33</time>
<name>4374</name>
<sym>Dot</sym>
</trkpt>
<trkpt lat="48.900855" lon="20.036388">
<ele>1533.0</ele>
<desc>Speed 4.9 km/h Distance 8.84 km</desc>
<time>2013-07-23T15:23:11.32</time>
<name>4375</name>
<sym>Dot</sym>
</trkpt>
<trkpt lat="48.900853" lon="20.036373">
<ele>1533.5</ele>
<desc>Speed 3.3 km/h Distance 8.85 km</desc>
<time>2013-07-23T15:23:12.31</time>
<name>4376</name>
<sym>Dot</sym>
</trkpt>
<trkpt lat="48.900852" lon="20.036357">
<ele>1533.5</ele>
<desc>Speed 3.4 km/h Distance 8.85 km</desc>
<time>2013-07-23T15:23:13.31</time>
<name>4377</name>
<sym>Dot</sym>
</trkpt>
<trkpt lat="48.900855" lon="20.036345">
<ele>1533.0</ele>
<desc>Speed 3.1 km/h Distance 8.85 km</desc>
<time>2013-07-23T15:23:14.31</time>
<name>4378</name>
<sym>Dot</sym>
</trkpt>
<trkpt lat="48.900857" lon="20.036330">
<ele>1533.0</ele>
<desc>Speed 3.3 km/h Distance 8.85 km</desc>
<time>2013-07-23T15:23:15.30</time>
<name>4379</name>
<sym>Dot</sym>
</trkpt>
<trkpt lat="48.900860" lon="20.036317">
<ele>1532.5</ele>
<desc>Speed 3.6 km/h Distance 8.85 km</desc>
<time>2013-07-23T15:23:16.30</time>
<name>4380</name>
<sym>Dot</sym>
</trkpt>
<trkpt lat="48.900863" lon="20.036303">
<ele>1533.0</ele>
<desc>Speed 3.1 km/h Distance 8.85 km</desc>
<time>2013-07-23T15:23:17.29</time>
<name>4381</name>
<sym>Dot</sym>
</trkpt>
<trkpt lat="48.900865" lon="20.036297">
<ele>1533.5</ele>
<desc>Speed 2.4 km/h Distance 8.85 km</desc>
<time>2013-07-23T15:23:18.46</time>
<name>4382</name>
<sym>Dot</sym>
</trkpt>
<trkpt lat="48.900865" lon="20.036285">
<ele>1533.5</ele>
<desc>Speed 2.7 km/h Distance 8.85 km</desc>
<time>2013-07-23T15:23:19.29</time>
<name>4383</name>
<sym>Dot</sym>
</trkpt>
<trkpt lat="48.900868" lon="20.036270">
<ele>1534.0</ele>
<desc>Speed 3.4 km/h Distance 8.85 km</desc>
<time>2013-07-23T15:23:20.29</time>
<name>4384</name>
<sym>Dot</sym>
</trkpt>
<trkpt lat="48.900867" lon="20.036257">
<ele>1534.5</ele>
<desc>Speed 4.1 km/h Distance 8.85 km</desc>
<time>2013-07-23T15:23:21.29</time>
<name>4385</name>
<sym>Dot</sym>
</trkpt>
<trkpt lat="48.900868" lon="20.036242">
<ele>1534.5</ele>
<desc>Speed 4.2 km/h Distance 8.86 km</desc>
<time>2013-07-23T15:23:22.59</time>
<name>4386</name>
<sym>Dot</sym>
</trkpt>
<trkpt lat="48.900865" lon="20.036227">
<ele>1535.0</ele>
<desc>Speed 3.9 km/h Distance 8.86 km</desc>
<time>2013-07-23T15:23:23.28</time>
<name>4387</name>
<sym>Dot</sym>
</trkpt>
<trkpt lat="48.900865" lon="20.036208">
<ele>1535.0</ele>
<desc>Speed 4.3 km/h Distance 8.86 km</desc>
<time>2013-07-23T15:23:24.27</time>
<name>4388</name>
<sym>Dot</sym>
</trkpt>
<trkpt lat="48.900863" lon="20.036192">
<ele>1535.5</ele>
<desc>Speed 4.0 km/h Distance 8.86 km</desc>
<time>2013-07-23T15:23:25.26</time>
<name>4389</name>
<sym>Dot</sym>
</trkpt>
<trkpt lat="48.900862" lon="20.036173">
<ele>1535.5</ele>
<desc>Speed 4.1 km/h Distance 8.86 km</desc>
<time>2013-07-23T15:23:26.25</time>
<name>4390</name>
<sym>Dot</sym>
</trkpt>
<trkpt lat="48.900860" lon="20.036158">
<ele>1535.0</ele>
<desc>Speed 4.0 km/h Distance 8.86 km</desc>
<time>2013-07-23T15:23:27.25</time>
<name>4391</name>
<sym>Dot</sym>
</trkpt>
<trkpt lat="48.900855" lon="20.036142">
<ele>1535.0</ele>
<desc>Speed 4.4 km/h Distance 8.86 km</desc>
<time>2013-07-23T15:23:28.24</time>
<name>4392</name>
<sym>Dot</sym>
</trkpt>
<trkpt lat="48.900850" lon="20.036128">
<ele>1535.0</ele>
<desc>Speed 3.9 km/h Distance 8.86 km</desc>
<time>2013-07-23T15:23:29.24</time>
<name>4393</name>
<sym>Dot</sym>
</trkpt>
<trkpt lat="48.900843" lon="20.036113">
<ele>1535.0</ele>
<desc>Speed 4.0 km/h Distance 8.87 km</desc>
<time>2013-07-23T15:23:30.24</time>
<name>4394</name>
<sym>Dot</sym>
</trkpt>
<trkpt lat="48.900840" lon="20.036098">
<ele>1535.0</ele>
<desc>Speed 3.6 km/h Distance 8.87 km</desc>
<time>2013-07-23T15:23:31.24</time>
<name>4395</name>
<sym>Dot</sym>
</trkpt>
<trkpt lat="48.900837" lon="20.036083">
<ele>1535.0</ele>
<desc>Speed 3.3 km/h Distance 8.87 km</desc>
<time>2013-07-23T15:23:32.23</time>
<name>4396</name>
<sym>Dot</sym>
</trkpt>
<trkpt lat="48.900835" lon="20.036070">
<ele>1535.0</ele>
<desc>Speed 3.4 km/h Distance 8.87 km</desc>
<time>2013-07-23T15:23:33.23</time>
<name>4397</name>
<sym>Dot</sym>
</trkpt>
<trkpt lat="48.900835" lon="20.036058">
<ele>1535.0</ele>
<desc>Speed 2.2 km/h Distance 8.87 km</desc>
<time>2013-07-23T15:23:34.23</time>
<name>4398</name>
<sym>Dot</sym>
</trkpt>
<trkpt lat="48.900830" lon="20.036045">
<ele>1535.0</ele>
<desc>Speed 4.2 km/h Distance 8.87 km</desc>
<time>2013-07-23T15:23:35.23</time>
<name>4399</name>
<sym>Dot</sym>
</trkpt>
<trkpt lat="48.900828" lon="20.036033">
<ele>1535.0</ele>
<desc>Speed 3.3 km/h Distance 8.87 km</desc>
<time>2013-07-23T15:23:36.22</time>
<name>4400</name>
<sym>Dot</sym>
</trkpt>
<trkpt lat="48.900827" lon="20.036023">
<ele>1535.5</ele>
<desc>Speed 3.0 km/h Distance 8.87 km</desc>
<time>2013-07-23T15:23:37.36</time>
<name>4401</name>
<sym>Dot</sym>
</trkpt>
<trkpt lat="48.900827" lon="20.036013">
<ele>1536.0</ele>
<desc>Speed 3.3 km/h Distance 8.87 km</desc>
<time>2013-07-23T15:23:38.22</time>
<name>4402</name>
<sym>Dot</sym>
</trkpt>
<trkpt lat="48.900827" lon="20.035998">
<ele>1536.0</ele>
<desc>Speed 3.9 km/h Distance 8.87 km</desc>
<time>2013-07-23T15:23:39.21</time>
<name>4403</name>
<sym>Dot</sym>
</trkpt>
<trkpt lat="48.900827" lon="20.035983">
<ele>1536.0</ele>
<desc>Speed 3.7 km/h Distance 8.88 km</desc>
<time>2013-07-23T15:23:40.21</time>
<name>4404</name>
<sym>Dot</sym>
</trkpt>
<trkpt lat="48.900823" lon="20.035963">
<ele>1535.5</ele>
<desc>Speed 4.7 km/h Distance 8.88 km</desc>
<time>2013-07-23T15:23:41.21</time>
<name>4405</name>
<sym>Dot</sym>
</trkpt>
<trkpt lat="48.900822" lon="20.035942">
<ele>1534.5</ele>
<desc>Speed 4.7 km/h Distance 8.88 km</desc>
<time>2013-07-23T15:23:42.29</time>
<name>4406</name>
<sym>Dot</sym>
</trkpt>
<trkpt lat="48.900822" lon="20.035927">
<ele>1534.5</ele>
<desc>Speed 3.9 km/h Distance 8.88 km</desc>
<time>2013-07-23T15:23:43.20</time>
<name>4407</name>
<sym>Dot</sym>
</trkpt>
<trkpt lat="48.900823" lon="20.035910">
<ele>1534.5</ele>
<desc>Speed 4.0 km/h Distance 8.88 km</desc>
<time>2013-07-23T15:23:44.20</time>
<name>4408</name>
<sym>Dot</sym>
</trkpt>
<trkpt lat="48.900822" lon="20.035890">
<ele>1534.0</ele>
<desc>Speed 4.5 km/h Distance 8.88 km</desc>
<time>2013-07-23T15:23:45.20</time>
<name>4409</name>
<sym>Dot</sym>
</trkpt>
<trkpt lat="48.900818" lon="20.035867">
<ele>1533.0</ele>
<desc>Speed 4.6 km/h Distance 8.88 km</desc>
<time>2013-07-23T15:23:46.20</time>
<name>4410</name>
<sym>Dot</sym>
</trkpt>
<trkpt lat="48.900818" lon="20.035848">
<ele>1533.0</ele>
<desc>Speed 4.2 km/h Distance 8.89 km</desc>
<time>2013-07-23T15:23:47.19</time>
<name>4411</name>
<sym>Dot</sym>
</trkpt>
<trkpt lat="48.900818" lon="20.035833">
<ele>1532.5</ele>
<desc>Speed 4.0 km/h Distance 8.89 km</desc>
<time>2013-07-23T15:23:48.34</time>
<name>4412</name>
<sym>Dot</sym>
</trkpt>
<trkpt lat="48.900818" lon="20.035818">
<ele>1532.5</ele>
<desc>Speed 3.7 km/h Distance 8.89 km</desc>
<time>2013-07-23T15:23:49.17</time>
<name>4413</name>
<sym>Dot</sym>
</trkpt>
<trkpt lat="48.900817" lon="20.035803">
<ele>1532.5</ele>
<desc>Speed 4.0 km/h Distance 8.89 km</desc>
<time>2013-07-23T15:23:50.17</time>
<name>4414</name>
<sym>Dot</sym>
</trkpt>
<trkpt lat="48.900817" lon="20.035787">
<ele>1532.5</ele>
<desc>Speed 4.0 km/h Distance 8.89 km</desc>
<time>2013-07-23T15:23:51.17</time>
<name>4415</name>
<sym>Dot</sym>
</trkpt>
<trkpt lat="48.900818" lon="20.035772">
<ele>1532.5</ele>
<desc>Speed 3.5 km/h Distance 8.89 km</desc>
<time>2013-07-23T15:23:52.16</time>
<name>4416</name>
<sym>Dot</sym>
</trkpt>
<trkpt lat="48.900815" lon="20.035757">
<ele>1532.5</ele>
<desc>Speed 3.8 km/h Distance 8.89 km</desc>
<time>2013-07-23T15:23:53.16</time>
<name>4417</name>
<sym>Dot</sym>
</trkpt>
<trkpt lat="48.900815" lon="20.035742">
<ele>1532.5</ele>
<desc>Speed 3.8 km/h Distance 8.89 km</desc>
<time>2013-07-23T15:23:54.44</time>
<name>4418</name>
<sym>Dot</sym>
</trkpt>
<trkpt lat="48.900817" lon="20.035727">
<ele>1533.0</ele>
<desc>Speed 3.5 km/h Distance 8.89 km</desc>
<time>2013-07-23T15:23:55.16</time>
<name>4419</name>
<sym>Dot</sym>
</trkpt>
<trkpt lat="48.900817" lon="20.035713">
<ele>1533.0</ele>
<desc>Speed 3.6 km/h Distance 8.90 km</desc>
<time>2013-07-23T15:23:56.16</time>
<name>4420</name>
<sym>Dot</sym>
</trkpt>
<trkpt lat="48.900818" lon="20.035698">
<ele>1533.0</ele>
<desc>Speed 4.1 km/h Distance 8.90 km</desc>
<time>2013-07-23T15:23:57.16</time>
<name>4421</name>
<sym>Dot</sym>
</trkpt>
<trkpt lat="48.900818" lon="20.035682">
<ele>1533.0</ele>
<desc>Speed 4.5 km/h Distance 8.90 km</desc>
<time>2013-07-23T15:23:58.16</time>
<name>4422</name>
<sym>Dot</sym>
</trkpt>
<trkpt lat="48.900820" lon="20.035665">
<ele>1533.5</ele>
<desc>Speed 4.4 km/h Distance 8.90 km</desc>
<time>2013-07-23T15:23:59.39</time>
<name>4423</name>
<sym>Dot</sym>
</trkpt>
<trkpt lat="48.900820" lon="20.035653">
<ele>1533.5</ele>
<desc>Speed 3.6 km/h Distance 8.90 km</desc>
<time>2013-07-23T15:24:00.15</time>
<name>4424</name>
<sym>Dot</sym>
</trkpt>
<trkpt lat="48.900822" lon="20.035638">
<ele>1534.0</ele>
<desc>Speed 4.2 km/h Distance 8.90 km</desc>
<time>2013-07-23T15:24:01.15</time>
<name>4425</name>
<sym>Dot</sym>
</trkpt>
<trkpt lat="48.900823" lon="20.035623">
<ele>1534.5</ele>
<desc>Speed 4.1 km/h Distance 8.90 km</desc>
<time>2013-07-23T15:24:02.15</time>
<name>4426</name>
<sym>Dot</sym>
</trkpt>
<trkpt lat="48.900823" lon="20.035610">
<ele>1535.0</ele>
<desc>Speed 3.7 km/h Distance 8.90 km</desc>
<time>2013-07-23T15:24:03.15</time>
<name>4427</name>
<sym>Dot</sym>
</trkpt>
<trkpt lat="48.900823" lon="20.035593">
<ele>1535.0</ele>
<desc>Speed 4.2 km/h Distance 8.90 km</desc>
<time>2013-07-23T15:24:04.26</time>
<name>4428</name>
<sym>Dot</sym>
</trkpt>
<trkpt lat="48.900823" lon="20.035583">
<ele>1535.5</ele>
<desc>Speed 2.5 km/h Distance 8.90 km</desc>
<time>2013-07-23T15:24:05.14</time>
<name>4429</name>
<sym>Dot</sym>
</trkpt>
<trkpt lat="48.900815" lon="20.035583">
<ele>1538.0</ele>
<desc>Speed 2.2 km/h Distance 8.91 km</desc>
<time>2013-07-23T15:24:19.14</time>
<name>4430</name>
<sym>Dot</sym>
</trkpt>
<trkpt lat="48.900822" lon="20.035582">
<ele>1540.0</ele>
<desc>Speed 2.7 km/h Distance 8.91 km</desc>
<time>2013-07-23T15:24:23.14</time>
<name>4431</name>
<sym>Dot</sym>
</trkpt>
<trkpt lat="48.900825" lon="20.035567">
<ele>1540.0</ele>
<desc>Speed 4.0 km/h Distance 8.91 km</desc>
<time>2013-07-23T15:24:24.13</time>
<name>4432</name>
<sym>Dot</sym>
</trkpt>
<trkpt lat="48.900828" lon="20.035553">
<ele>1540.5</ele>
<desc>Speed 3.5 km/h Distance 8.91 km</desc>
<time>2013-07-23T15:24:25.31</time>
<name>4433</name>
<sym>Dot</sym>
</trkpt>
<trkpt lat="48.900833" lon="20.035540">
<ele>1540.5</ele>
<desc>Speed 3.5 km/h Distance 8.91 km</desc>
<time>2013-07-23T15:24:26.12</time>
<name>4434</name>
<sym>Dot</sym>
</trkpt>
<trkpt lat="48.900837" lon="20.035528">
<ele>1541.0</ele>
<desc>Speed 3.6 km/h Distance 8.91 km</desc>
<time>2013-07-23T15:24:27.12</time>
<name>4435</name>
<sym>Dot</sym>
</trkpt>
<trkpt lat="48.900842" lon="20.035517">
<ele>1541.5</ele>
<desc>Speed 3.3 km/h Distance 8.91 km</desc>
<time>2013-07-23T15:24:28.12</time>
<name>4436</name>
<sym>Dot</sym>
</trkpt>
<trkpt lat="48.900845" lon="20.035502">
<ele>1541.5</ele>
<desc>Speed 3.9 km/h Distance 8.91 km</desc>
<time>2013-07-23T15:24:29.12</time>
<name>4437</name>
<sym>Dot</sym>
</trkpt>
<trkpt lat="48.900847" lon="20.035487">
<ele>1542.0</ele>
<desc>Speed 3.7 km/h Distance 8.91 km</desc>
<time>2013-07-23T15:24:30.29</time>
<name>4438</name>
<sym>Dot</sym>
</trkpt>
<trkpt lat="48.900845" lon="20.035472">
<ele>1541.5</ele>
<desc>Speed 4.0 km/h Distance 8.92 km</desc>
<time>2013-07-23T15:24:31.10</time>
<name>4439</name>
<sym>Dot</sym>
</trkpt>
<trkpt lat="48.900845" lon="20.035458">
<ele>1542.0</ele>
<desc>Speed 3.3 km/h Distance 8.92 km</desc>
<time>2013-07-23T15:24:32.10</time>
<name>4440</name>
<sym>Dot</sym>
</trkpt>
<trkpt lat="48.900842" lon="20.035440">
<ele>1542.0</ele>
<desc>Speed 3.9 km/h Distance 8.92 km</desc>
<time>2013-07-23T15:24:33.10</time>
<name>4441</name>
<sym>Dot</sym>
</trkpt>
<trkpt lat="48.900837" lon="20.035425">
<ele>1542.0</ele>
<desc>Speed 4.1 km/h Distance 8.92 km</desc>
<time>2013-07-23T15:24:34.10</time>
<name>4442</name>
<sym>Dot</sym>
</trkpt>
<trkpt lat="48.900832" lon="20.035408">
<ele>1542.0</ele>
<desc>Speed 4.0 km/h Distance 8.92 km</desc>
<time>2013-07-23T15:24:35.19</time>
<name>4443</name>
<sym>Dot</sym>
</trkpt>
<trkpt lat="48.900828" lon="20.035392">
<ele>1542.0</ele>
<desc>Speed 4.3 km/h Distance 8.92 km</desc>
<time>2013-07-23T15:24:36.08</time>
<name>4444</name>
<sym>Dot</sym>
</trkpt>
<trkpt lat="48.900825" lon="20.035378">
<ele>1542.5</ele>
<desc>Speed 3.7 km/h Distance 8.92 km</desc>
<time>2013-07-23T15:24:37.08</time>
<name>4445</name>
<sym>Dot</sym>
</trkpt>
<trkpt lat="48.900823" lon="20.035363">
<ele>1542.0</ele>
<desc>Speed 3.6 km/h Distance 8.92 km</desc>
<time>2013-07-23T15:24:38.08</time>
<name>4446</name>
<sym>Dot</sym>
</trkpt>
<trkpt lat="48.900822" lon="20.035352">
<ele>1542.5</ele>
<desc>Speed 3.3 km/h Distance 8.92 km</desc>
<time>2013-07-23T15:24:39.07</time>
<name>4447</name>
<sym>Dot</sym>
</trkpt>
<trkpt lat="48.900833" lon="20.035335">
<ele>1544.0</ele>
<desc>Speed 6.1 km/h Distance 8.93 km</desc>
<time>2013-07-23T15:24:40.07</time>
<name>4448</name>
<sym>Dot</sym>
</trkpt>
<trkpt lat="48.900833" lon="20.035322">
<ele>1544.0</ele>
<desc>Speed 3.6 km/h Distance 8.93 km</desc>
<time>2013-07-23T15:24:41.36</time>
<name>4449</name>
<sym>Dot</sym>
</trkpt>
<trkpt lat="48.900833" lon="20.035312">
<ele>1544.5</ele>
<desc>Speed 2.6 km/h Distance 8.93 km</desc>
<time>2013-07-23T15:24:42.06</time>
<name>4450</name>
<sym>Dot</sym>
</trkpt>
<trkpt lat="48.900832" lon="20.035298">
<ele>1544.5</ele>
<desc>Speed 3.6 km/h Distance 8.93 km</desc>
<time>2013-07-23T15:24:43.05</time>
<name>4451</name>
<sym>Dot</sym>
</trkpt>
<trkpt lat="48.900827" lon="20.035285">
<ele>1544.0</ele>
<desc>Speed 3.9 km/h Distance 8.93 km</desc>
<time>2013-07-23T15:24:44.05</time>
<name>4452</name>
<sym>Dot</sym>
</trkpt>
<trkpt lat="48.900823" lon="20.035272">
<ele>1544.0</ele>
<desc>Speed 3.9 km/h Distance 8.93 km</desc>
<time>2013-07-23T15:24:45.10</time>
<name>4453</name>
<sym>Dot</sym>
</trkpt>
<trkpt lat="48.900820" lon="20.035257">
<ele>1544.0</ele>
<desc>Speed 3.9 km/h Distance 8.93 km</desc>
<time>2013-07-23T15:24:46.05</time>
<name>4454</name>
<sym>Dot</sym>
</trkpt>
<trkpt lat="48.900817" lon="20.035240">
<ele>1544.0</ele>
<desc>Speed 3.9 km/h Distance 8.93 km</desc>
<time>2013-07-23T15:24:47.05</time>
<name>4455</name>
<sym>Dot</sym>
</trkpt>
<trkpt lat="48.900815" lon="20.035225">
<ele>1544.0</ele>
<desc>Speed 3.6 km/h Distance 8.93 km</desc>
<time>2013-07-23T15:24:48.04</time>
<name>4456</name>
<sym>Dot</sym>
</trkpt>
<trkpt lat="48.900812" lon="20.035210">
<ele>1544.0</ele>
<desc>Speed 3.7 km/h Distance 8.94 km</desc>
<time>2013-07-23T15:24:49.03</time>
<name>4457</name>
<sym>Dot</sym>
</trkpt>
<trkpt lat="48.900810" lon="20.035192">
<ele>1544.0</ele>
<desc>Speed 4.9 km/h Distance 8.94 km</desc>
<time>2013-07-23T15:24:50.03</time>
<name>4458</name>
<sym>Dot</sym>
</trkpt>
<trkpt lat="48.900807" lon="20.035175">
<ele>1544.0</ele>
<desc>Speed 3.9 km/h Distance 8.94 km</desc>
<time>2013-07-23T15:24:51.04</time>
<name>4459</name>
<sym>Dot</sym>
</trkpt>
<trkpt lat="48.900805" lon="20.035158">
<ele>1544.0</ele>
<desc>Speed 4.1 km/h Distance 8.94 km</desc>
<time>2013-07-23T15:24:52.08</time>
<name>4460</name>
<sym>Dot</sym>
</trkpt>
<trkpt lat="48.900803" lon="20.035143">
<ele>1544.0</ele>
<desc>Speed 4.1 km/h Distance 8.94 km</desc>
<time>2013-07-23T15:24:53.20</time>
<name>4461</name>
<sym>Dot</sym>
</trkpt>
<trkpt lat="48.900802" lon="20.035128">
<ele>1544.0</ele>
<desc>Speed 4.3 km/h Distance 8.94 km</desc>
<time>2013-07-23T15:24:54.01</time>
<name>4462</name>
<sym>Dot</sym>
</trkpt>
<trkpt lat="48.900802" lon="20.035115">
<ele>1544.0</ele>
<desc>Speed 3.3 km/h Distance 8.94 km</desc>
<time>2013-07-23T15:24:55.01</time>
<name>4463</name>
<sym>Dot</sym>
</trkpt>
<trkpt lat="48.900802" lon="20.035098">
<ele>1543.5</ele>
<desc>Speed 3.8 km/h Distance 8.94 km</desc>
<time>2013-07-23T15:24:56.01</time>
<name>4464</name>
<sym>Dot</sym>
</trkpt>
<trkpt lat="48.900805" lon="20.035077">
<ele>1543.5</ele>
<desc>Speed 4.7 km/h Distance 8.95 km</desc>
<time>2013-07-23T15:24:57.01</time>
<name>4465</name>
<sym>Dot</sym>
</trkpt>
<trkpt lat="48.900807" lon="20.035058">
<ele>1543.5</ele>
<desc>Speed 3.9 km/h Distance 8.95 km</desc>
<time>2013-07-23T15:24:58.01</time>
<name>4466</name>
<sym>Dot</sym>
</trkpt>
<trkpt lat="48.900808" lon="20.035040">
<ele>1543.0</ele>
<desc>Speed 3.6 km/h Distance 8.95 km</desc>
<time>2013-07-23T15:24:58.99</time>
<name>4467</name>
<sym>Dot</sym>
</trkpt>
<trkpt lat="48.900808" lon="20.035025">
<ele>1543.0</ele>
<desc>Speed 2.4 km/h Distance 8.95 km</desc>
<time>2013-07-23T15:25:00.16</time>
<name>4468</name>
<sym>Dot</sym>
</trkpt>
<trkpt lat="48.900812" lon="20.034997">
<ele>1542.5</ele>
<desc>Speed 3.3 km/h Distance 8.95 km</desc>
<time>2013-07-23T15:25:04.98</time>
<name>4469</name>
<sym>Dot</sym>
</trkpt>
<trkpt lat="48.900800" lon="20.034972">
<ele>1542.0</ele>
<desc>Speed 7.4 km/h Distance 8.95 km</desc>
<time>2013-07-23T15:25:05.97</time>
<name>4470</name>
<sym>Dot</sym>
</trkpt>
<trkpt lat="48.900802" lon="20.034952">
<ele>1542.0</ele>
<desc>Speed 4.1 km/h Distance 8.96 km</desc>
<time>2013-07-23T15:25:06.97</time>
<name>4471</name>
<sym>Dot</sym>
</trkpt>
<trkpt lat="48.900803" lon="20.034933">
<ele>1542.0</ele>
<desc>Speed 3.8 km/h Distance 8.96 km</desc>
<time>2013-07-23T15:25:07.97</time>
<name>4472</name>
<sym>Dot</sym>
</trkpt>
<trkpt lat="48.900805" lon="20.034920">
<ele>1542.0</ele>
<desc>Speed 3.2 km/h Distance 8.96 km</desc>
<time>2013-07-23T15:25:08.96</time>
<name>4473</name>
<sym>Dot</sym>
</trkpt>
<trkpt lat="48.900805" lon="20.034907">
<ele>1541.5</ele>
<desc>Speed 3.5 km/h Distance 8.96 km</desc>
<time>2013-07-23T15:25:10.09</time>
<name>4474</name>
<sym>Dot</sym>
</trkpt>
<trkpt lat="48.900802" lon="20.034893">
<ele>1541.5</ele>
<desc>Speed 3.3 km/h Distance 8.96 km</desc>
<time>2013-07-23T15:25:10.95</time>
<name>4475</name>
<sym>Dot</sym>
</trkpt>
<trkpt lat="48.900812" lon="20.034873">
<ele>1542.5</ele>
<desc>Speed 2.3 km/h Distance 8.96 km</desc>
<time>2013-07-23T15:25:18.94</time>
<name>4476</name>
<sym>Dot</sym>
</trkpt>
<trkpt lat="48.900810" lon="20.034860">
<ele>1542.0</ele>
<desc>Speed 3.6 km/h Distance 8.96 km</desc>
<time>2013-07-23T15:25:19.94</time>
<name>4477</name>
<sym>Dot</sym>
</trkpt>
<trkpt lat="48.900810" lon="20.034840">
<ele>1542.0</ele>
<desc>Speed 5.1 km/h Distance 8.96 km</desc>
<time>2013-07-23T15:25:20.93</time>
<name>4478</name>
<sym>Dot</sym>
</trkpt>
<trkpt lat="48.900810" lon="20.034823">
<ele>1542.0</ele>
<desc>Speed 4.1 km/h Distance 8.97 km</desc>
<time>2013-07-23T15:25:21.92</time>
<name>4479</name>
<sym>Dot</sym>
</trkpt>
<trkpt lat="48.900812" lon="20.034803">
<ele>1542.0</ele>
<desc>Speed 5.7 km/h Distance 8.97 km</desc>
<time>2013-07-23T15:25:22.92</time>
<name>4480</name>
<sym>Dot</sym>
</trkpt>
<trkpt lat="48.900813" lon="20.034780">
<ele>1542.5</ele>
<desc>Speed 6.6 km/h Distance 8.97 km</desc>
<time>2013-07-23T15:25:23.92</time>
<name>4481</name>
<sym>Dot</sym>
</trkpt>
<trkpt lat="48.900817" lon="20.034755">
<ele>1542.5</ele>
<desc>Speed 6.3 km/h Distance 8.97 km</desc>
<time>2013-07-23T15:25:24.91</time>
<name>4482</name>
<sym>Dot</sym>
</trkpt>
<trkpt lat="48.900820" lon="20.034730">
<ele>1543.0</ele>
<desc>Speed 6.3 km/h Distance 8.97 km</desc>
<time>2013-07-23T15:25:25.91</time>
<name>4483</name>
<sym>Dot</sym>
</trkpt>
<trkpt lat="48.900823" lon="20.034703">
<ele>1543.0</ele>
<desc>Speed 6.4 km/h Distance 8.97 km</desc>
<time>2013-07-23T15:25:26.90</time>
<name>4484</name>
<sym>Dot</sym>
</trkpt>
<trkpt lat="48.900825" lon="20.034678">
<ele>1543.0</ele>
<desc>Speed 6.4 km/h Distance 8.98 km</desc>
<time>2013-07-23T15:25:27.90</time>
<name>4485</name>
<sym>Dot</sym>
</trkpt>
<trkpt lat="48.900828" lon="20.034653">
<ele>1543.0</ele>
<desc>Speed 6.1 km/h Distance 8.98 km</desc>
<time>2013-07-23T15:25:28.90</time>
<name>4486</name>
<sym>Dot</sym>
</trkpt>
<trkpt lat="48.900832" lon="20.034628">
<ele>1543.5</ele>
<desc>Speed 6.7 km/h Distance 8.98 km</desc>
<time>2013-07-23T15:25:29.89</time>
<name>4487</name>
<sym>Dot</sym>
</trkpt>
<trkpt lat="48.900833" lon="20.034602">
<ele>1543.5</ele>
<desc>Speed 6.9 km/h Distance 8.98 km</desc>
<time>2013-07-23T15:25:30.89</time>
<name>4488</name>
<sym>Dot</sym>
</trkpt>
<trkpt lat="48.900833" lon="20.034575">
<ele>1543.5</ele>
<desc>Speed 6.7 km/h Distance 8.98 km</desc>
<time>2013-07-23T15:25:31.89</time>
<name>4489</name>
<sym>Dot</sym>
</trkpt>
<trkpt lat="48.900835" lon="20.034548">
<ele>1543.5</ele>
<desc>Speed 6.7 km/h Distance 8.99 km</desc>
<time>2013-07-23T15:25:33.07</time>
<name>4490</name>
<sym>Dot</sym>
</trkpt>
<trkpt lat="48.900833" lon="20.034522">
<ele>1543.0</ele>
<desc>Speed 6.7 km/h Distance 8.99 km</desc>
<time>2013-07-23T15:25:33.88</time>
<name>4491</name>
<sym>Dot</sym>
</trkpt>
<trkpt lat="48.900833" lon="20.034493">
<ele>1543.0</ele>
<desc>Speed 6.6 km/h Distance 8.99 km</desc>
<time>2013-07-23T15:25:34.88</time>
<name>4492</name>
<sym>Dot</sym>
</trkpt>
<trkpt lat="48.900833" lon="20.034470">
<ele>1543.0</ele>
<desc>Speed 5.7 km/h Distance 8.99 km</desc>
<time>2013-07-23T15:25:35.88</time>
<name>4493</name>
<sym>Dot</sym>
</trkpt>
<trkpt lat="48.900835" lon="20.034447">
<ele>1543.5</ele>
<desc>Speed 6.2 km/h Distance 8.99 km</desc>
<time>2013-07-23T15:25:36.87</time>
<name>4494</name>
<sym>Dot</sym>
</trkpt>
<trkpt lat="48.900835" lon="20.034422">
<ele>1543.5</ele>
<desc>Speed 6.4 km/h Distance 8.99 km</desc>
<time>2013-07-23T15:25:37.87</time>
<name>4495</name>
<sym>Dot</sym>
</trkpt>
<trkpt lat="48.900838" lon="20.034395">
<ele>1544.0</ele>
<desc>Speed 6.3 km/h Distance 9.00 km</desc>
<time>2013-07-23T15:25:38.87</time>
<name>4496</name>
<sym>Dot</sym>
</trkpt>
<trkpt lat="48.900840" lon="20.034370">
<ele>1544.0</ele>
<desc>Speed 6.3 km/h Distance 9.00 km</desc>
<time>2013-07-23T15:25:39.86</time>
<name>4497</name>
<sym>Dot</sym>
</trkpt>
<trkpt lat="48.900843" lon="20.034343">
<ele>1544.0</ele>
<desc>Speed 6.4 km/h Distance 9.00 km</desc>
<time>2013-07-23T15:25:40.86</time>
<name>4498</name>
<sym>Dot</sym>
</trkpt>
<trkpt lat="48.900845" lon="20.034318">
<ele>1544.0</ele>
<desc>Speed 6.4 km/h Distance 9.00 km</desc>
<time>2013-07-23T15:25:41.86</time>
<name>4499</name>
<sym>Dot</sym>
</trkpt>
<trkpt lat="48.900845" lon="20.034293">
<ele>1544.0</ele>
<desc>Speed 5.9 km/h Distance 9.00 km</desc>
<time>2013-07-23T15:25:42.86</time>
<name>4500</name>
<sym>Dot</sym>
</trkpt>
<trkpt lat="48.900845" lon="20.034273">
<ele>1544.0</ele>
<desc>Speed 4.5 km/h Distance 9.01 km</desc>
<time>2013-07-23T15:25:43.86</time>
<name>4501</name>
<sym>Dot</sym>
</trkpt>
<trkpt lat="48.900847" lon="20.034258">
<ele>1544.5</ele>
<desc>Speed 3.9 km/h Distance 9.01 km</desc>
<time>2013-07-23T15:25:44.86</time>
<name>4502</name>
<sym>Dot</sym>
</trkpt>
<trkpt lat="48.900847" lon="20.034245">
<ele>1544.5</ele>
<desc>Speed 3.5 km/h Distance 9.01 km</desc>
<time>2013-07-23T15:25:45.85</time>
<name>4503</name>
<sym>Dot</sym>
</trkpt>
<trkpt lat="48.900847" lon="20.034230">
<ele>1545.0</ele>
<desc>Speed 3.7 km/h Distance 9.01 km</desc>
<time>2013-07-23T15:25:46.85</time>
<name>4504</name>
<sym>Dot</sym>
</trkpt>
<trkpt lat="48.900843" lon="20.034212">
<ele>1544.5</ele>
<desc>Speed 4.6 km/h Distance 9.01 km</desc>
<time>2013-07-23T15:25:47.85</time>
<name>4505</name>
<sym>Dot</sym>
</trkpt>
<trkpt lat="48.900838" lon="20.034195">
<ele>1544.5</ele>
<desc>Speed 4.5 km/h Distance 9.01 km</desc>
<time>2013-07-23T15:25:48.84</time>
<name>4506</name>
<sym>Dot</sym>
</trkpt>
<trkpt lat="48.900840" lon="20.034182">
<ele>1544.5</ele>
<desc>Speed 3.1 km/h Distance 9.01 km</desc>
<time>2013-07-23T15:25:49.83</time>
<name>4507</name>
<sym>Dot</sym>
</trkpt>
<trkpt lat="48.900843" lon="20.034165">
<ele>1545.0</ele>
<desc>Speed 4.2 km/h Distance 9.01 km</desc>
<time>2013-07-23T15:25:50.84</time>
<name>4508</name>
<sym>Dot</sym>
</trkpt>
<trkpt lat="48.900847" lon="20.034143">
<ele>1545.0</ele>
<desc>Speed 4.8 km/h Distance 9.02 km</desc>
<time>2013-07-23T15:25:51.83</time>
<name>4509</name>
<sym>Dot</sym>
</trkpt>
<trkpt lat="48.900845" lon="20.034123">
<ele>1545.0</ele>
<desc>Speed 4.9 km/h Distance 9.02 km</desc>
<time>2013-07-23T15:25:52.83</time>
<name>4510</name>
<sym>Dot</sym>
</trkpt>
<trkpt lat="48.900845" lon="20.034105">
<ele>1545.5</ele>
<desc>Speed 4.8 km/h Distance 9.02 km</desc>
<time>2013-07-23T15:25:53.83</time>
<name>4511</name>
<sym>Dot</sym>
</trkpt>
<trkpt lat="48.900845" lon="20.034088">
<ele>1545.5</ele>
<desc>Speed 4.1 km/h Distance 9.02 km</desc>
<time>2013-07-23T15:25:54.83</time>
<name>4512</name>
<sym>Dot</sym>
</trkpt>
<trkpt lat="48.900847" lon="20.034072">
<ele>1546.0</ele>
<desc>Speed 4.5 km/h Distance 9.02 km</desc>
<time>2013-07-23T15:25:55.82</time>
<name>4513</name>
<sym>Dot</sym>
</trkpt>
<trkpt lat="48.900847" lon="20.034052">
<ele>1545.5</ele>
<desc>Speed 5.0 km/h Distance 9.02 km</desc>
<time>2013-07-23T15:25:56.82</time>
<name>4514</name>
<sym>Dot</sym>
</trkpt>
<trkpt lat="48.900843" lon="20.034032">
<ele>1545.5</ele>
<desc>Speed 4.9 km/h Distance 9.02 km</desc>
<time>2013-07-23T15:25:57.81</time>
<name>4515</name>
<sym>Dot</sym>
</trkpt>
<trkpt lat="48.900842" lon="20.034013">
<ele>1546.0</ele>
<desc>Speed 5.0 km/h Distance 9.03 km</desc>
<time>2013-07-23T15:25:58.81</time>
<name>4516</name>
<sym>Dot</sym>
</trkpt>
<trkpt lat="48.900842" lon="20.033995">
<ele>1546.5</ele>
<desc>Speed 4.9 km/h Distance 9.03 km</desc>
<time>2013-07-23T15:25:59.84</time>
<name>4517</name>
<sym>Dot</sym>
</trkpt>
<trkpt lat="48.900840" lon="20.033975">
<ele>1546.5</ele>
<desc>Speed 4.9 km/h Distance 9.03 km</desc>
<time>2013-07-23T15:26:00.80</time>
<name>4518</name>
<sym>Dot</sym>
</trkpt>
<trkpt lat="48.900840" lon="20.033957">
<ele>1546.5</ele>
<desc>Speed 4.5 km/h Distance 9.03 km</desc>
<time>2013-07-23T15:26:01.79</time>
<name>4519</name>
<sym>Dot</sym>
</trkpt>
<trkpt lat="48.900842" lon="20.033947">
<ele>1546.5</ele>
<desc>Speed 2.2 km/h Distance 9.03 km</desc>
<time>2013-07-23T15:26:02.79</time>
<name>4520</name>
<sym>Dot</sym>
</trkpt>
<trkpt lat="48.900857" lon="20.033917">
<ele>1545.5</ele>
<desc>Speed 3.2 km/h Distance 9.03 km</desc>
<time>2013-07-23T15:26:34.90</time>
<name>4521</name>
<sym>Dot</sym>
</trkpt>
<trkpt lat="48.900860" lon="20.033898">
<ele>1545.5</ele>
<desc>Speed 4.1 km/h Distance 9.03 km</desc>
<time>2013-07-23T15:26:35.90</time>
<name>4522</name>
<sym>Dot</sym>
</trkpt>
<trkpt lat="48.900862" lon="20.033880">
<ele>1545.5</ele>
<desc>Speed 4.1 km/h Distance 9.04 km</desc>
<time>2013-07-23T15:26:36.77</time>
<name>4523</name>
<sym>Dot</sym>
</trkpt>
<trkpt lat="48.900865" lon="20.033862">
<ele>1546.0</ele>
<desc>Speed 5.0 km/h Distance 9.04 km</desc>
<time>2013-07-23T15:26:37.77</time>
<name>4524</name>
<sym>Dot</sym>
</trkpt>
<trkpt lat="48.900867" lon="20.033843">
<ele>1546.0</ele>
<desc>Speed 5.0 km/h Distance 9.04 km</desc>
<time>2013-07-23T15:26:38.76</time>
<name>4525</name>
<sym>Dot</sym>
</trkpt>
<trkpt lat="48.900868" lon="20.033822">
<ele>1546.0</ele>
<desc>Speed 5.3 km/h Distance 9.04 km</desc>
<time>2013-07-23T15:26:39.75</time>
<name>4526</name>
<sym>Dot</sym>
</trkpt>
<trkpt lat="48.900868" lon="20.033798">
<ele>1546.5</ele>
<desc>Speed 5.9 km/h Distance 9.04 km</desc>
<time>2013-07-23T15:26:40.75</time>
<name>4527</name>
<sym>Dot</sym>
</trkpt>
<trkpt lat="48.900868" lon="20.033775">
<ele>1546.5</ele>
<desc>Speed 5.8 km/h Distance 9.04 km</desc>
<time>2013-07-23T15:26:41.83</time>
<name>4528</name>
<sym>Dot</sym>
</trkpt>
<trkpt lat="48.900870" lon="20.033753">
<ele>1546.5</ele>
<desc>Speed 5.5 km/h Distance 9.04 km</desc>
<time>2013-07-23T15:26:42.74</time>
<name>4529</name>
<sym>Dot</sym>
</trkpt>
<trkpt lat="48.900870" lon="20.033730">
<ele>1546.5</ele>
<desc>Speed 5.6 km/h Distance 9.05 km</desc>
<time>2013-07-23T15:26:43.74</time>
<name>4530</name>
<sym>Dot</sym>
</trkpt>
<trkpt lat="48.900873" lon="20.033705">
<ele>1546.5</ele>
<desc>Speed 5.8 km/h Distance 9.05 km</desc>
<time>2013-07-23T15:26:44.74</time>
<name>4531</name>
<sym>Dot</sym>
</trkpt>
<trkpt lat="48.900875" lon="20.033683">
<ele>1547.0</ele>
<desc>Speed 4.9 km/h Distance 9.05 km</desc>
<time>2013-07-23T15:26:45.73</time>
<name>4532</name>
<sym>Dot</sym>
</trkpt>
<trkpt lat="48.900877" lon="20.033665">
<ele>1547.0</ele>
<desc>Speed 4.6 km/h Distance 9.05 km</desc>
<time>2013-07-23T15:26:46.73</time>
<name>4533</name>
<sym>Dot</sym>
</trkpt>
<trkpt lat="48.900878" lon="20.033647">
<ele>1547.5</ele>
<desc>Speed 4.6 km/h Distance 9.05 km</desc>
<time>2013-07-23T15:26:47.72</time>
<name>4534</name>
<sym>Dot</sym>
</trkpt>
<trkpt lat="48.900882" lon="20.033627">
<ele>1547.0</ele>
<desc>Speed 5.5 km/h Distance 9.05 km</desc>
<time>2013-07-23T15:26:48.85</time>
<name>4535</name>
<sym>Dot</sym>
</trkpt>
<trkpt lat="48.900883" lon="20.033605">
<ele>1547.5</ele>
<desc>Speed 5.4 km/h Distance 9.06 km</desc>
<time>2013-07-23T15:26:49.72</time>
<name>4536</name>
<sym>Dot</sym>
</trkpt>
<trkpt lat="48.900883" lon="20.033585">
<ele>1547.5</ele>
<desc>Speed 5.4 km/h Distance 9.06 km</desc>
<time>2013-07-23T15:26:50.71</time>
<name>4537</name>
<sym>Dot</sym>
</trkpt>
<trkpt lat="48.900883" lon="20.033562">
<ele>1547.5</ele>
<desc>Speed 5.7 km/h Distance 9.06 km</desc>
<time>2013-07-23T15:26:51.70</time>
<name>4538</name>
<sym>Dot</sym>
</trkpt>
<trkpt lat="48.900883" lon="20.033540">
<ele>1547.5</ele>
<desc>Speed 5.5 km/h Distance 9.06 km</desc>
<time>2013-07-23T15:26:52.70</time>
<name>4539</name>
<sym>Dot</sym>
</trkpt>
<trkpt lat="48.900885" lon="20.033517">
<ele>1547.5</ele>
<desc>Speed 5.9 km/h Distance 9.06 km</desc>
<time>2013-07-23T15:26:53.69</time>
<name>4540</name>
<sym>Dot</sym>
</trkpt>
<trkpt lat="48.900882" lon="20.033495">
<ele>1547.5</ele>
<desc>Speed 6.0 km/h Distance 9.06 km</desc>
<time>2013-07-23T15:26:54.69</time>
<name>4541</name>
<sym>Dot</sym>
</trkpt>
<trkpt lat="48.900883" lon="20.033472">
<ele>1547.5</ele>
<desc>Speed 5.7 km/h Distance 9.07 km</desc>
<time>2013-07-23T15:26:55.71</time>
<name>4542</name>
<sym>Dot</sym>
</trkpt>
<trkpt lat="48.900883" lon="20.033448">
<ele>1547.5</ele>
<desc>Speed 6.0 km/h Distance 9.07 km</desc>
<time>2013-07-23T15:26:56.68</time>
<name>4543</name>
<sym>Dot</sym>
</trkpt>
<trkpt lat="48.900885" lon="20.033425">
<ele>1547.5</ele>
<desc>Speed 5.8 km/h Distance 9.07 km</desc>
<time>2013-07-23T15:26:57.68</time>
<name>4544</name>
<sym>Dot</sym>
</trkpt>
<trkpt lat="48.900885" lon="20.033405">
<ele>1548.0</ele>
<desc>Speed 5.4 km/h Distance 9.07 km</desc>
<time>2013-07-23T15:26:58.67</time>
<name>4545</name>
<sym>Dot</sym>
</trkpt>
<trkpt lat="48.900883" lon="20.033385">
<ele>1548.0</ele>
<desc>Speed 4.9 km/h Distance 9.07 km</desc>
<time>2013-07-23T15:26:59.67</time>
<name>4546</name>
<sym>Dot</sym>
</trkpt>
<trkpt lat="48.900883" lon="20.033365">
<ele>1548.0</ele>
<desc>Speed 5.4 km/h Distance 9.07 km</desc>
<time>2013-07-23T15:27:00.67</time>
<name>4547</name>
<sym>Dot</sym>
</trkpt>
<trkpt lat="48.900885" lon="20.033345">
<ele>1548.0</ele>
<desc>Speed 4.7 km/h Distance 9.08 km</desc>
<time>2013-07-23T15:27:01.67</time>
<name>4548</name>
<sym>Dot</sym>
</trkpt>
<trkpt lat="48.900885" lon="20.033325">
<ele>1548.0</ele>
<desc>Speed 4.6 km/h Distance 9.08 km</desc>
<time>2013-07-23T15:27:02.66</time>
<name>4549</name>
<sym>Dot</sym>
</trkpt>
<trkpt lat="48.900885" lon="20.033302">
<ele>1548.0</ele>
<desc>Speed 6.2 km/h Distance 9.08 km</desc>
<time>2013-07-23T15:27:03.66</time>
<name>4550</name>
<sym>Dot</sym>
</trkpt>
<trkpt lat="48.900883" lon="20.033283">
<ele>1548.5</ele>
<desc>Speed 4.5 km/h Distance 9.08 km</desc>
<time>2013-07-23T15:27:04.65</time>
<name>4551</name>
<sym>Dot</sym>
</trkpt>
<trkpt lat="48.900900" lon="20.033267">
<ele>1549.5</ele>
<desc>Speed 3.6 km/h Distance 9.08 km</desc>
<time>2013-07-23T15:27:13.65</time>
<name>4552</name>
<sym>Dot</sym>
</trkpt>
<trkpt lat="48.900902" lon="20.033253">
<ele>1549.0</ele>
<desc>Speed 3.5 km/h Distance 9.08 km</desc>
<time>2013-07-23T15:27:18.65</time>
<name>4553</name>
<sym>Dot</sym>
</trkpt>
<trkpt lat="48.900905" lon="20.033243">
<ele>1549.5</ele>
<desc>Speed 2.9 km/h Distance 9.08 km</desc>
<time>2013-07-23T15:27:19.65</time>
<name>4554</name>
<sym>Dot</sym>
</trkpt>
<trkpt lat="48.900905" lon="20.033233">
<ele>1549.0</ele>
<desc>Speed 2.2 km/h Distance 9.08 km</desc>
<time>2013-07-23T15:27:20.64</time>
<name>4555</name>
<sym>Dot</sym>
</trkpt>
<trkpt lat="48.900908" lon="20.033218">
<ele>1549.0</ele>
<desc>Speed 3.5 km/h Distance 9.09 km</desc>
<time>2013-07-23T15:27:21.64</time>
<name>4556</name>
<sym>Dot</sym>
</trkpt>
<trkpt lat="48.900907" lon="20.033193">
<ele>1548.5</ele>
<desc>Speed 6.1 km/h Distance 9.09 km</desc>
<time>2013-07-23T15:27:22.63</time>
<name>4557</name>
<sym>Dot</sym>
</trkpt>
<trkpt lat="48.900905" lon="20.033172">
<ele>1548.5</ele>
<desc>Speed 5.6 km/h Distance 9.09 km</desc>
<time>2013-07-23T15:27:23.63</time>
<name>4558</name>
<sym>Dot</sym>
</trkpt>
<trkpt lat="48.900907" lon="20.033155">
<ele>1549.0</ele>
<desc>Speed 3.8 km/h Distance 9.09 km</desc>
<time>2013-07-23T15:27:24.62</time>
<name>4559</name>
<sym>Dot</sym>
</trkpt>
<trkpt lat="48.900907" lon="20.033132">
<ele>1548.5</ele>
<desc>Speed 5.8 km/h Distance 9.09 km</desc>
<time>2013-07-23T15:27:25.62</time>
<name>4560</name>
<sym>Dot</sym>
</trkpt>
<trkpt lat="48.900908" lon="20.033108">
<ele>1548.5</ele>
<desc>Speed 5.8 km/h Distance 9.09 km</desc>
<time>2013-07-23T15:27:26.62</time>
<name>4561</name>
<sym>Dot</sym>
</trkpt>
<trkpt lat="48.900913" lon="20.033087">
<ele>1549.0</ele>
<desc>Speed 4.9 km/h Distance 9.10 km</desc>
<time>2013-07-23T15:27:27.62</time>
<name>4562</name>
<sym>Dot</sym>
</trkpt>
<trkpt lat="48.900912" lon="20.033063">
<ele>1549.0</ele>
<desc>Speed 5.6 km/h Distance 9.10 km</desc>
<time>2013-07-23T15:27:28.62</time>
<name>4563</name>
<sym>Dot</sym>
</trkpt>
<trkpt lat="48.900910" lon="20.033037">
<ele>1549.0</ele>
<desc>Speed 6.6 km/h Distance 9.10 km</desc>
<time>2013-07-23T15:27:29.62</time>
<name>4564</name>
<sym>Dot</sym>
</trkpt>
<trkpt lat="48.900915" lon="20.033012">
<ele>1549.5</ele>
<desc>Speed 6.3 km/h Distance 9.10 km</desc>
<time>2013-07-23T15:27:30.62</time>
<name>4565</name>
<sym>Dot</sym>
</trkpt>
<trkpt lat="48.900920" lon="20.032992">
<ele>1550.5</ele>
<desc>Speed 5.4 km/h Distance 9.10 km</desc>
<time>2013-07-23T15:27:31.63</time>
<name>4566</name>
<sym>Dot</sym>
</trkpt>
<trkpt lat="48.900927" lon="20.032970">
<ele>1551.0</ele>
<desc>Speed 5.5 km/h Distance 9.10 km</desc>
<time>2013-07-23T15:27:32.62</time>
<name>4567</name>
<sym>Dot</sym>
</trkpt>
<trkpt lat="48.900930" lon="20.032947">
<ele>1551.0</ele>
<desc>Speed 6.2 km/h Distance 9.11 km</desc>
<time>2013-07-23T15:27:33.62</time>
<name>4568</name>
<sym>Dot</sym>
</trkpt>
<trkpt lat="48.900932" lon="20.032920">
<ele>1551.5</ele>
<desc>Speed 6.4 km/h Distance 9.11 km</desc>
<time>2013-07-23T15:27:34.61</time>
<name>4569</name>
<sym>Dot</sym>
</trkpt>
<trkpt lat="48.900933" lon="20.032897">
<ele>1551.5</ele>
<desc>Speed 5.9 km/h Distance 9.11 km</desc>
<time>2013-07-23T15:27:35.61</time>
<name>4570</name>
<sym>Dot</sym>
</trkpt>
<trkpt lat="48.900935" lon="20.032875">
<ele>1552.5</ele>
<desc>Speed 5.9 km/h Distance 9.11 km</desc>
<time>2013-07-23T15:27:36.61</time>
<name>4571</name>
<sym>Dot</sym>
</trkpt>
<trkpt lat="48.900935" lon="20.032850">
<ele>1553.0</ele>
<desc>Speed 6.4 km/h Distance 9.11 km</desc>
<time>2013-07-23T15:27:37.61</time>
<name>4572</name>
<sym>Dot</sym>
</trkpt>
<trkpt lat="48.900933" lon="20.032825">
<ele>1553.0</ele>
<desc>Speed 6.5 km/h Distance 9.11 km</desc>
<time>2013-07-23T15:27:38.60</time>
<name>4573</name>
<sym>Dot</sym>
</trkpt>
<trkpt lat="48.900933" lon="20.032802">
<ele>1553.5</ele>
<desc>Speed 6.0 km/h Distance 9.12 km</desc>
<time>2013-07-23T15:27:39.60</time>
<name>4574</name>
<sym>Dot</sym>
</trkpt>
<trkpt lat="48.900935" lon="20.032778">
<ele>1554.0</ele>
<desc>Speed 6.0 km/h Distance 9.12 km</desc>
<time>2013-07-23T15:27:40.59</time>
<name>4575</name>
<sym>Dot</sym>
</trkpt>
<trkpt lat="48.900937" lon="20.032753">
<ele>1554.0</ele>
<desc>Speed 6.2 km/h Distance 9.12 km</desc>
<time>2013-07-23T15:27:41.59</time>
<name>4576</name>
<sym>Dot</sym>
</trkpt>
<trkpt lat="48.900938" lon="20.032728">
<ele>1554.5</ele>
<desc>Speed 6.0 km/h Distance 9.12 km</desc>
<time>2013-07-23T15:27:42.58</time>
<name>4577</name>
<sym>Dot</sym>
</trkpt>
<trkpt lat="48.900937" lon="20.032703">
<ele>1554.5</ele>
<desc>Speed 6.3 km/h Distance 9.12 km</desc>
<time>2013-07-23T15:27:43.58</time>
<name>4578</name>
<sym>Dot</sym>
</trkpt>
<trkpt lat="48.900937" lon="20.032680">
<ele>1555.0</ele>
<desc>Speed 5.9 km/h Distance 9.13 km</desc>
<time>2013-07-23T15:27:44.57</time>
<name>4579</name>
<sym>Dot</sym>
</trkpt>
<trkpt lat="48.900937" lon="20.032657">
<ele>1555.0</ele>
<desc>Speed 6.1 km/h Distance 9.13 km</desc>
<time>2013-07-23T15:27:45.57</time>
<name>4580</name>
<sym>Dot</sym>
</trkpt>
<trkpt lat="48.900938" lon="20.032630">
<ele>1555.5</ele>
<desc>Speed 6.7 km/h Distance 9.13 km</desc>
<time>2013-07-23T15:27:46.57</time>
<name>4581</name>
<sym>Dot</sym>
</trkpt>
<trkpt lat="48.900937" lon="20.032603">
<ele>1555.5</ele>
<desc>Speed 6.9 km/h Distance 9.13 km</desc>
<time>2013-07-23T15:27:47.57</time>
<name>4582</name>
<sym>Dot</sym>
</trkpt>
<trkpt lat="48.900937" lon="20.032575">
<ele>1555.5</ele>
<desc>Speed 6.8 km/h Distance 9.13 km</desc>
<time>2013-07-23T15:27:48.56</time>
<name>4583</name>
<sym>Dot</sym>
</trkpt>
<trkpt lat="48.900935" lon="20.032547">
<ele>1555.5</ele>
<desc>Speed 6.8 km/h Distance 9.14 km</desc>
<time>2013-07-23T15:27:49.55</time>
<name>4584</name>
<sym>Dot</sym>
</trkpt>
<trkpt lat="48.900932" lon="20.032523">
<ele>1555.5</ele>
<desc>Speed 6.1 km/h Distance 9.14 km</desc>
<time>2013-07-23T15:27:50.57</time>
<name>4585</name>
<sym>Dot</sym>
</trkpt>
<trkpt lat="48.900930" lon="20.032498">
<ele>1555.5</ele>
<desc>Speed 6.4 km/h Distance 9.14 km</desc>
<time>2013-07-23T15:27:51.58</time>
<name>4586</name>
<sym>Dot</sym>
</trkpt>
<trkpt lat="48.900928" lon="20.032472">
<ele>1555.5</ele>
<desc>Speed 6.7 km/h Distance 9.14 km</desc>
<time>2013-07-23T15:27:52.54</time>
<name>4587</name>
<sym>Dot</sym>
</trkpt>
<trkpt lat="48.900927" lon="20.032443">
<ele>1555.5</ele>
<desc>Speed 6.7 km/h Distance 9.14 km</desc>
<time>2013-07-23T15:27:53.54</time>
<name>4588</name>
<sym>Dot</sym>
</trkpt>
<trkpt lat="48.900927" lon="20.032420">
<ele>1556.0</ele>
<desc>Speed 6.2 km/h Distance 9.14 km</desc>
<time>2013-07-23T15:27:54.54</time>
<name>4589</name>
<sym>Dot</sym>
</trkpt>
<trkpt lat="48.900927" lon="20.032398">
<ele>1556.5</ele>
<desc>Speed 5.7 km/h Distance 9.15 km</desc>
<time>2013-07-23T15:27:55.53</time>
<name>4590</name>
<sym>Dot</sym>
</trkpt>
<trkpt lat="48.900927" lon="20.032372">
<ele>1556.0</ele>
<desc>Speed 6.6 km/h Distance 9.15 km</desc>
<time>2013-07-23T15:27:56.52</time>
<name>4591</name>
<sym>Dot</sym>
</trkpt>
<trkpt lat="48.900925" lon="20.032345">
<ele>1556.0</ele>
<desc>Speed 6.6 km/h Distance 9.15 km</desc>
<time>2013-07-23T15:27:57.52</time>
<name>4592</name>
<sym>Dot</sym>
</trkpt>
<trkpt lat="48.900923" lon="20.032317">
<ele>1556.0</ele>
<desc>Speed 6.7 km/h Distance 9.15 km</desc>
<time>2013-07-23T15:27:58.52</time>
<name>4593</name>
<sym>Dot</sym>
</trkpt>
<trkpt lat="48.900923" lon="20.032293">
<ele>1556.0</ele>
<desc>Speed 6.2 km/h Distance 9.15 km</desc>
<time>2013-07-23T15:27:59.51</time>
<name>4594</name>
<sym>Dot</sym>
</trkpt>
<trkpt lat="48.900922" lon="20.032270">
<ele>1556.0</ele>
<desc>Speed 6.0 km/h Distance 9.16 km</desc>
<time>2013-07-23T15:28:00.51</time>
<name>4595</name>
<sym>Dot</sym>
</trkpt>
<trkpt lat="48.900923" lon="20.032248">
<ele>1556.0</ele>
<desc>Speed 5.0 km/h Distance 9.16 km</desc>
<time>2013-07-23T15:28:01.51</time>
<name>4596</name>
<sym>Dot</sym>
</trkpt>
<trkpt lat="48.900927" lon="20.032227">
<ele>1556.0</ele>
<desc>Speed 5.5 km/h Distance 9.16 km</desc>
<time>2013-07-23T15:28:02.51</time>
<name>4597</name>
<sym>Dot</sym>
</trkpt>
<trkpt lat="48.900927" lon="20.032200">
<ele>1556.5</ele>
<desc>Speed 6.1 km/h Distance 9.16 km</desc>
<time>2013-07-23T15:28:03.50</time>
<name>4598</name>
<sym>Dot</sym>
</trkpt>
<trkpt lat="48.900925" lon="20.032177">
<ele>1556.0</ele>
<desc>Speed 6.2 km/h Distance 9.16 km</desc>
<time>2013-07-23T15:28:04.50</time>
<name>4599</name>
<sym>Dot</sym>
</trkpt>
<trkpt lat="48.900927" lon="20.032152">
<ele>1556.0</ele>
<desc>Speed 5.9 km/h Distance 9.16 km</desc>
<time>2013-07-23T15:28:05.50</time>
<name>4600</name>
<sym>Dot</sym>
</trkpt>
<trkpt lat="48.900928" lon="20.032128">
<ele>1556.5</ele>
<desc>Speed 6.3 km/h Distance 9.17 km</desc>
<time>2013-07-23T15:28:06.49</time>
<name>4601</name>
<sym>Dot</sym>
</trkpt>
<trkpt lat="48.900930" lon="20.032105">
<ele>1557.0</ele>
<desc>Speed 5.9 km/h Distance 9.17 km</desc>
<time>2013-07-23T15:28:07.49</time>
<name>4602</name>
<sym>Dot</sym>
</trkpt>
<trkpt lat="48.900932" lon="20.032080">
<ele>1557.5</ele>
<desc>Speed 6.3 km/h Distance 9.17 km</desc>
<time>2013-07-23T15:28:08.48</time>
<name>4603</name>
<sym>Dot</sym>
</trkpt>
<trkpt lat="48.900930" lon="20.032055">
<ele>1557.5</ele>
<desc>Speed 6.6 km/h Distance 9.17 km</desc>
<time>2013-07-23T15:28:09.48</time>
<name>4604</name>
<sym>Dot</sym>
</trkpt>
<trkpt lat="48.900927" lon="20.032028">
<ele>1557.0</ele>
<desc>Speed 6.8 km/h Distance 9.17 km</desc>
<time>2013-07-23T15:28:10.47</time>
<name>4605</name>
<sym>Dot</sym>
</trkpt>
<trkpt lat="48.900923" lon="20.032002">
<ele>1556.5</ele>
<desc>Speed 6.4 km/h Distance 9.18 km</desc>
<time>2013-07-23T15:28:11.47</time>
<name>4606</name>
<sym>Dot</sym>
</trkpt>
<trkpt lat="48.900918" lon="20.031975">
<ele>1556.0</ele>
<desc>Speed 6.8 km/h Distance 9.18 km</desc>
<time>2013-07-23T15:28:12.47</time>
<name>4607</name>
<sym>Dot</sym>
</trkpt>
<trkpt lat="48.900912" lon="20.031950">
<ele>1555.5</ele>
<desc>Speed 6.8 km/h Distance 9.18 km</desc>
<time>2013-07-23T15:28:13.58</time>
<name>4608</name>
<sym>Dot</sym>
</trkpt>
<trkpt lat="48.900903" lon="20.031927">
<ele>1555.0</ele>
<desc>Speed 7.2 km/h Distance 9.18 km</desc>
<time>2013-07-23T15:28:14.47</time>
<name>4609</name>
<sym>Dot</sym>
</trkpt>
<trkpt lat="48.900895" lon="20.031902">
<ele>1554.0</ele>
<desc>Speed 7.2 km/h Distance 9.18 km</desc>
<time>2013-07-23T15:28:15.46</time>
<name>4610</name>
<sym>Dot</sym>
</trkpt>
<trkpt lat="48.900887" lon="20.031878">
<ele>1553.5</ele>
<desc>Speed 6.6 km/h Distance 9.19 km</desc>
<time>2013-07-23T15:28:16.46</time>
<name>4611</name>
<sym>Dot</sym>
</trkpt>
<trkpt lat="48.900885" lon="20.031855">
<ele>1554.5</ele>
<desc>Speed 5.8 km/h Distance 9.19 km</desc>
<time>2013-07-23T15:28:17.46</time>
<name>4612</name>
<sym>Dot</sym>
</trkpt>
<trkpt lat="48.900863" lon="20.031845">
<ele>1554.0</ele>
<desc>Speed 9.5 km/h Distance 9.19 km</desc>
<time>2013-07-23T15:28:18.45</time>
<name>4613</name>
<sym>Dot</sym>
</trkpt>
<trkpt lat="48.900850" lon="20.031825">
<ele>1552.5</ele>
<desc>Speed 7.4 km/h Distance 9.19 km</desc>
<time>2013-07-23T15:28:19.46</time>
<name>4614</name>
<sym>Dot</sym>
</trkpt>
<trkpt lat="48.900840" lon="20.031803">
<ele>1552.0</ele>
<desc>Speed 6.8 km/h Distance 9.19 km</desc>
<time>2013-07-23T15:28:20.44</time>
<name>4615</name>
<sym>Dot</sym>
</trkpt>
<trkpt lat="48.900835" lon="20.031783">
<ele>1551.5</ele>
<desc>Speed 5.8 km/h Distance 9.20 km</desc>
<time>2013-07-23T15:28:21.44</time>
<name>4616</name>
<sym>Dot</sym>
</trkpt>
<trkpt lat="48.900823" lon="20.031763">
<ele>1551.0</ele>
<desc>Speed 6.8 km/h Distance 9.20 km</desc>
<time>2013-07-23T15:28:22.44</time>
<name>4617</name>
<sym>Dot</sym>
</trkpt>
<trkpt lat="48.900823" lon="20.031738">
<ele>1550.5</ele>
<desc>Speed 6.0 km/h Distance 9.20 km</desc>
<time>2013-07-23T15:28:23.44</time>
<name>4618</name>
<sym>Dot</sym>
</trkpt>
<trkpt lat="48.900817" lon="20.031715">
<ele>1550.5</ele>
<desc>Speed 6.5 km/h Distance 9.20 km</desc>
<time>2013-07-23T15:28:24.44</time>
<name>4619</name>
<sym>Dot</sym>
</trkpt>
<trkpt lat="48.900813" lon="20.031692">
<ele>1550.0</ele>
<desc>Speed 6.1 km/h Distance 9.20 km</desc>
<time>2013-07-23T15:28:25.44</time>
<name>4620</name>
<sym>Dot</sym>
</trkpt>
<trkpt lat="48.900813" lon="20.031668">
<ele>1550.0</ele>
<desc>Speed 5.9 km/h Distance 9.20 km</desc>
<time>2013-07-23T15:28:26.43</time>
<name>4621</name>
<sym>Dot</sym>
</trkpt>
<trkpt lat="48.900813" lon="20.031648">
<ele>1550.5</ele>
<desc>Speed 5.3 km/h Distance 9.21 km</desc>
<time>2013-07-23T15:28:27.49</time>
<name>4622</name>
<sym>Dot</sym>
</trkpt>
<trkpt lat="48.900812" lon="20.031627">
<ele>1550.5</ele>
<desc>Speed 5.5 km/h Distance 9.21 km</desc>
<time>2013-07-23T15:28:28.58</time>
<name>4623</name>
<sym>Dot</sym>
</trkpt>
<trkpt lat="48.900805" lon="20.031583">
<ele>1550.5</ele>
<desc>Speed 5.5 km/h Distance 9.21 km</desc>
<time>2013-07-23T15:28:30.41</time>
<name>4624</name>
<sym>Dot</sym>
</trkpt>
<trkpt lat="48.900800" lon="20.031560">
<ele>1550.5</ele>
<desc>Speed 6.2 km/h Distance 9.21 km</desc>
<time>2013-07-23T15:28:31.40</time>
<name>4625</name>
<sym>Dot</sym>
</trkpt>
<trkpt lat="48.900798" lon="20.031535">
<ele>1550.0</ele>
<desc>Speed 6.0 km/h Distance 9.21 km</desc>
<time>2013-07-23T15:28:32.40</time>
<name>4626</name>
<sym>Dot</sym>
</trkpt>
<trkpt lat="48.900795" lon="20.031510">
<ele>1550.0</ele>
<desc>Speed 5.8 km/h Distance 9.22 km</desc>
<time>2013-07-23T15:28:33.40</time>
<name>4627</name>
<sym>Dot</sym>
</trkpt>
<trkpt lat="48.900788" lon="20.031487">
<ele>1549.5</ele>
<desc>Speed 6.0 km/h Distance 9.22 km</desc>
<time>2013-07-23T15:28:34.39</time>
<name>4628</name>
<sym>Dot</sym>
</trkpt>
<trkpt lat="48.900785" lon="20.031467">
<ele>1549.0</ele>
<desc>Speed 5.0 km/h Distance 9.22 km</desc>
<time>2013-07-23T15:28:35.38</time>
<name>4629</name>
<sym>Dot</sym>
</trkpt>
<trkpt lat="48.900782" lon="20.031443">
<ele>1549.0</ele>
<desc>Speed 5.4 km/h Distance 9.22 km</desc>
<time>2013-07-23T15:28:36.38</time>
<name>4630</name>
<sym>Dot</sym>
</trkpt>
<trkpt lat="48.900780" lon="20.031420">
<ele>1548.5</ele>
<desc>Speed 5.8 km/h Distance 9.22 km</desc>
<time>2013-07-23T15:28:37.37</time>
<name>4631</name>
<sym>Dot</sym>
</trkpt>
<trkpt lat="48.900777" lon="20.031393">
<ele>1548.0</ele>
<desc>Speed 6.3 km/h Distance 9.22 km</desc>
<time>2013-07-23T15:28:38.52</time>
<name>4632</name>
<sym>Dot</sym>
</trkpt>
<trkpt lat="48.900777" lon="20.031365">
<ele>1548.5</ele>
<desc>Speed 6.4 km/h Distance 9.23 km</desc>
<time>2013-07-23T15:28:39.55</time>
<name>4633</name>
<sym>Dot</sym>
</trkpt>
<trkpt lat="48.900772" lon="20.031340">
<ele>1547.5</ele>
<desc>Speed 5.7 km/h Distance 9.23 km</desc>
<time>2013-07-23T15:28:40.35</time>
<name>4634</name>
<sym>Dot</sym>
</trkpt>
<trkpt lat="48.900768" lon="20.031317">
<ele>1547.0</ele>
<desc>Speed 5.2 km/h Distance 9.23 km</desc>
<time>2013-07-23T15:28:41.35</time>
<name>4635</name>
<sym>Dot</sym>
</trkpt>
<trkpt lat="48.900770" lon="20.031292">
<ele>1548.0</ele>
<desc>Speed 5.6 km/h Distance 9.23 km</desc>
<time>2013-07-23T15:28:42.35</time>
<name>4636</name>
<sym>Dot</sym>
</trkpt>
<trkpt lat="48.900767" lon="20.031267">
<ele>1548.0</ele>
<desc>Speed 6.3 km/h Distance 9.23 km</desc>
<time>2013-07-23T15:28:43.35</time>
<name>4637</name>
<sym>Dot</sym>
</trkpt>
<trkpt lat="48.900765" lon="20.031238">
<ele>1547.5</ele>
<desc>Speed 6.7 km/h Distance 9.24 km</desc>
<time>2013-07-23T15:28:44.34</time>
<name>4638</name>
<sym>Dot</sym>
</trkpt>
<trkpt lat="48.900768" lon="20.031215">
<ele>1548.5</ele>
<desc>Speed 6.2 km/h Distance 9.24 km</desc>
<time>2013-07-23T15:28:45.34</time>
<name>4639</name>
<sym>Dot</sym>
</trkpt>
<trkpt lat="48.900768" lon="20.031193">
<ele>1549.0</ele>
<desc>Speed 5.3 km/h Distance 9.24 km</desc>
<time>2013-07-23T15:28:46.34</time>
<name>4640</name>
<sym>Dot</sym>
</trkpt>
<trkpt lat="48.900762" lon="20.031175">
<ele>1549.0</ele>
<desc>Speed 5.4 km/h Distance 9.24 km</desc>
<time>2013-07-23T15:28:47.34</time>
<name>4641</name>
<sym>Dot</sym>
</trkpt>
<trkpt lat="48.900757" lon="20.031155">
<ele>1549.0</ele>
<desc>Speed 5.3 km/h Distance 9.24 km</desc>
<time>2013-07-23T15:28:48.34</time>
<name>4642</name>
<sym>Dot</sym>
</trkpt>
<trkpt lat="48.900753" lon="20.031135">
<ele>1549.0</ele>
<desc>Speed 4.8 km/h Distance 9.24 km</desc>
<time>2013-07-23T15:28:49.33</time>
<name>4643</name>
<sym>Dot</sym>
</trkpt>
<trkpt lat="48.900752" lon="20.031115">
<ele>1548.5</ele>
<desc>Speed 4.7 km/h Distance 9.25 km</desc>
<time>2013-07-23T15:28:50.34</time>
<name>4644</name>
<sym>Dot</sym>
</trkpt>
<trkpt lat="48.900752" lon="20.031095">
<ele>1548.5</ele>
<desc>Speed 4.8 km/h Distance 9.25 km</desc>
<time>2013-07-23T15:28:51.32</time>
<name>4645</name>
<sym>Dot</sym>
</trkpt>
<trkpt lat="48.900753" lon="20.031073">
<ele>1548.5</ele>
<desc>Speed 5.3 km/h Distance 9.25 km</desc>
<time>2013-07-23T15:28:52.32</time>
<name>4646</name>
<sym>Dot</sym>
</trkpt>
<trkpt lat="48.900750" lon="20.031050">
<ele>1548.5</ele>
<desc>Speed 6.1 km/h Distance 9.25 km</desc>
<time>2013-07-23T15:28:53.32</time>
<name>4647</name>
<sym>Dot</sym>
</trkpt>
<trkpt lat="48.900747" lon="20.031027">
<ele>1548.0</ele>
<desc>Speed 6.1 km/h Distance 9.25 km</desc>
<time>2013-07-23T15:28:54.32</time>
<name>4648</name>
<sym>Dot</sym>
</trkpt>
<trkpt lat="48.900743" lon="20.030998">
<ele>1548.0</ele>
<desc>Speed 7.1 km/h Distance 9.25 km</desc>
<time>2013-07-23T15:28:55.32</time>
<name>4649</name>
<sym>Dot</sym>
</trkpt>
<trkpt lat="48.900738" lon="20.030973">
<ele>1548.0</ele>
<desc>Speed 6.6 km/h Distance 9.26 km</desc>
<time>2013-07-23T15:28:56.32</time>
<name>4650</name>
<sym>Dot</sym>
</trkpt>
<trkpt lat="48.900740" lon="20.030948">
<ele>1548.5</ele>
<desc>Speed 6.2 km/h Distance 9.26 km</desc>
<time>2013-07-23T15:28:57.32</time>
<name>4651</name>
<sym>Dot</sym>
</trkpt>
<trkpt lat="48.900738" lon="20.030923">
<ele>1549.5</ele>
<desc>Speed 6.6 km/h Distance 9.26 km</desc>
<time>2013-07-23T15:28:58.32</time>
<name>4652</name>
<sym>Dot</sym>
</trkpt>
<trkpt lat="48.900738" lon="20.030898">
<ele>1550.0</ele>
<desc>Speed 6.7 km/h Distance 9.26 km</desc>
<time>2013-07-23T15:28:59.43</time>
<name>4653</name>
<sym>Dot</sym>
</trkpt>
<trkpt lat="48.900735" lon="20.030875">
<ele>1550.5</ele>
<desc>Speed 6.7 km/h Distance 9.26 km</desc>
<time>2013-07-23T15:29:00.31</time>
<name>4654</name>
<sym>Dot</sym>
</trkpt>
<trkpt lat="48.900727" lon="20.030853">
<ele>1550.5</ele>
<desc>Speed 6.7 km/h Distance 9.27 km</desc>
<time>2013-07-23T15:29:01.30</time>
<name>4655</name>
<sym>Dot</sym>
</trkpt>
<trkpt lat="48.900720" lon="20.030828">
<ele>1550.5</ele>
<desc>Speed 7.2 km/h Distance 9.27 km</desc>
<time>2013-07-23T15:29:02.30</time>
<name>4656</name>
<sym>Dot</sym>
</trkpt>
<trkpt lat="48.900710" lon="20.030805">
<ele>1550.0</ele>
<desc>Speed 7.2 km/h Distance 9.27 km</desc>
<time>2013-07-23T15:29:03.30</time>
<name>4657</name>
<sym>Dot</sym>
</trkpt>
<trkpt lat="48.900703" lon="20.030780">
<ele>1550.0</ele>
<desc>Speed 6.7 km/h Distance 9.27 km</desc>
<time>2013-07-23T15:29:04.36</time>
<name>4658</name>
<sym>Dot</sym>
</trkpt>
<trkpt lat="48.900702" lon="20.030757">
<ele>1550.0</ele>
<desc>Speed 5.7 km/h Distance 9.27 km</desc>
<time>2013-07-23T15:29:05.39</time>
<name>4659</name>
<sym>Dot</sym>
</trkpt>
<trkpt lat="48.900697" lon="20.030732">
<ele>1550.0</ele>
<desc>Speed 6.7 km/h Distance 9.28 km</desc>
<time>2013-07-23T15:29:06.29</time>
<name>4660</name>
<sym>Dot</sym>
</trkpt>
<trkpt lat="48.900692" lon="20.030700">
<ele>1550.0</ele>
<desc>Speed 8.1 km/h Distance 9.28 km</desc>
<time>2013-07-23T15:29:07.29</time>
<name>4661</name>
<sym>Dot</sym>
</trkpt>
<trkpt lat="48.900683" lon="20.030670">
<ele>1549.5</ele>
<desc>Speed 8.7 km/h Distance 9.28 km</desc>
<time>2013-07-23T15:29:08.29</time>
<name>4662</name>
<sym>Dot</sym>
</trkpt>
<trkpt lat="48.900675" lon="20.030635">
<ele>1549.0</ele>
<desc>Speed 9.6 km/h Distance 9.28 km</desc>
<time>2013-07-23T15:29:09.29</time>
<name>4663</name>
<sym>Dot</sym>
</trkpt>
<trkpt lat="48.900667" lon="20.030603">
<ele>1549.0</ele>
<desc>Speed 9.1 km/h Distance 9.29 km</desc>
<time>2013-07-23T15:29:10.29</time>
<name>4664</name>
<sym>Dot</sym>
</trkpt>
<trkpt lat="48.900657" lon="20.030567">
<ele>1549.0</ele>
<desc>Speed 11.0 km/h Distance 9.29 km</desc>
<time>2013-07-23T15:29:11.31</time>
<name>4665</name>
<sym>Dot</sym>
</trkpt>
<trkpt lat="48.900645" lon="20.030532">
<ele>1549.0</ele>
<desc>Speed 11.7 km/h Distance 9.29 km</desc>
<time>2013-07-23T15:29:12.48</time>
<name>4666</name>
<sym>Dot</sym>
</trkpt>
<trkpt lat="48.900638" lon="20.030493">
<ele>1549.5</ele>
<desc>Speed 10.6 km/h Distance 9.29 km</desc>
<time>2013-07-23T15:29:13.28</time>
<name>4667</name>
<sym>Dot</sym>
</trkpt>
<trkpt lat="48.900625" lon="20.030455">
<ele>1549.0</ele>
<desc>Speed 10.9 km/h Distance 9.30 km</desc>
<time>2013-07-23T15:29:14.28</time>
<name>4668</name>
<sym>Dot</sym>
</trkpt>
<trkpt lat="48.900615" lon="20.030413">
<ele>1548.5</ele>
<desc>Speed 11.3 km/h Distance 9.30 km</desc>
<time>2013-07-23T15:29:15.27</time>
<name>4669</name>
<sym>Dot</sym>
</trkpt>
<trkpt lat="48.900608" lon="20.030377">
<ele>1548.5</ele>
<desc>Speed 10.4 km/h Distance 9.30 km</desc>
<time>2013-07-23T15:29:16.27</time>
<name>4670</name>
<sym>Dot</sym>
</trkpt>
<trkpt lat="48.900605" lon="20.030340">
<ele>1548.5</ele>
<desc>Speed 9.8 km/h Distance 9.31 km</desc>
<time>2013-07-23T15:29:17.27</time>
<name>4671</name>
<sym>Dot</sym>
</trkpt>
<trkpt lat="48.900600" lon="20.030302">
<ele>1548.5</ele>
<desc>Speed 10.4 km/h Distance 9.31 km</desc>
<time>2013-07-23T15:29:18.27</time>
<name>4672</name>
<sym>Dot</sym>
</trkpt>
<trkpt lat="48.900588" lon="20.030262">
<ele>1548.0</ele>
<desc>Speed 11.7 km/h Distance 9.31 km</desc>
<time>2013-07-23T15:29:19.27</time>
<name>4673</name>
<sym>Dot</sym>
</trkpt>
<trkpt lat="48.900570" lon="20.030218">
<ele>1546.5</ele>
<desc>Speed 13.4 km/h Distance 9.32 km</desc>
<time>2013-07-23T15:29:20.26</time>
<name>4674</name>
<sym>Dot</sym>
</trkpt>
<trkpt lat="48.900562" lon="20.030172">
<ele>1546.0</ele>
<desc>Speed 12.7 km/h Distance 9.32 km</desc>
<time>2013-07-23T15:29:21.25</time>
<name>4675</name>
<sym>Dot</sym>
</trkpt>
<trkpt lat="48.900577" lon="20.030148">
<ele>1546.0</ele>
<desc>Speed 8.1 km/h Distance 9.32 km</desc>
<time>2013-07-23T15:29:22.35</time>
<name>4676</name>
<sym>Dot</sym>
</trkpt>
<trkpt lat="48.900562" lon="20.030117">
<ele>1546.0</ele>
<desc>Speed 10.1 km/h Distance 9.32 km</desc>
<time>2013-07-23T15:29:23.39</time>
<name>4677</name>
<sym>Dot</sym>
</trkpt>
<trkpt lat="48.900550" lon="20.030090">
<ele>1546.0</ele>
<desc>Speed 8.5 km/h Distance 9.33 km</desc>
<time>2013-07-23T15:29:24.24</time>
<name>4678</name>
<sym>Dot</sym>
</trkpt>
<trkpt lat="48.900540" lon="20.030060">
<ele>1545.5</ele>
<desc>Speed 9.3 km/h Distance 9.33 km</desc>
<time>2013-07-23T15:29:25.23</time>
<name>4679</name>
<sym>Dot</sym>
</trkpt>
<trkpt lat="48.900523" lon="20.030030">
<ele>1545.5</ele>
<desc>Speed 9.8 km/h Distance 9.33 km</desc>
<time>2013-07-23T15:29:26.31</time>
<name>4680</name>
<sym>Dot</sym>
</trkpt>
<trkpt lat="48.900500" lon="20.030005">
<ele>1545.0</ele>
<desc>Speed 11.8 km/h Distance 9.34 km</desc>
<time>2013-07-23T15:29:27.23</time>
<name>4681</name>
<sym>Dot</sym>
</trkpt>
<trkpt lat="48.900470" lon="20.029973">
<ele>1543.5</ele>
<desc>Speed 14.5 km/h Distance 9.34 km</desc>
<time>2013-07-23T15:29:28.22</time>
<name>4682</name>
<sym>Dot</sym>
</trkpt>
<trkpt lat="48.900468" lon="20.029935">
<ele>1543.5</ele>
<desc>Speed 9.0 km/h Distance 9.34 km</desc>
<time>2013-07-23T15:29:29.21</time>
<name>4683</name>
<sym>Dot</sym>
</trkpt>
<trkpt lat="48.900457" lon="20.029905">
<ele>1543.0</ele>
<desc>Speed 9.0 km/h Distance 9.34 km</desc>
<time>2013-07-23T15:29:30.27</time>
<name>4684</name>
<sym>Dot</sym>
</trkpt>
<trkpt lat="48.900453" lon="20.029875">
<ele>1542.5</ele>
<desc>Speed 7.5 km/h Distance 9.35 km</desc>
<time>2013-07-23T15:29:31.21</time>
<name>4685</name>
<sym>Dot</sym>
</trkpt>
<trkpt lat="48.900445" lon="20.029843">
<ele>1542.5</ele>
<desc>Speed 8.6 km/h Distance 9.35 km</desc>
<time>2013-07-23T15:29:32.21</time>
<name>4686</name>
<sym>Dot</sym>
</trkpt>
<trkpt lat="48.900438" lon="20.029810">
<ele>1542.0</ele>
<desc>Speed 8.8 km/h Distance 9.35 km</desc>
<time>2013-07-23T15:29:33.25</time>
<name>4687</name>
<sym>Dot</sym>
</trkpt>
<trkpt lat="48.900432" lon="20.029778">
<ele>1541.5</ele>
<desc>Speed 8.9 km/h Distance 9.35 km</desc>
<time>2013-07-23T15:29:34.19</time>
<name>4688</name>
<sym>Dot</sym>
</trkpt>
<trkpt lat="48.900425" lon="20.029747">
<ele>1541.5</ele>
<desc>Speed 8.0 km/h Distance 9.36 km</desc>
<time>2013-07-23T15:29:35.19</time>
<name>4689</name>
<sym>Dot</sym>
</trkpt>
<trkpt lat="48.900410" lon="20.029707">
<ele>1540.0</ele>
<desc>Speed 11.7 km/h Distance 9.36 km</desc>
<time>2013-07-23T15:29:36.19</time>
<name>4690</name>
<sym>Dot</sym>
</trkpt>
<trkpt lat="48.900392" lon="20.029670">
<ele>1538.5</ele>
<desc>Speed 11.7 km/h Distance 9.36 km</desc>
<time>2013-07-23T15:29:37.19</time>
<name>4691</name>
<sym>Dot</sym>
</trkpt>
<trkpt lat="48.900388" lon="20.029633">
<ele>1538.5</ele>
<desc>Speed 9.1 km/h Distance 9.37 km</desc>
<time>2013-07-23T15:29:38.18</time>
<name>4692</name>
<sym>Dot</sym>
</trkpt>
<trkpt lat="48.900388" lon="20.029588">
<ele>1538.5</ele>
<desc>Speed 10.5 km/h Distance 9.37 km</desc>
<time>2013-07-23T15:29:39.39</time>
<name>4693</name>
<sym>Dot</sym>
</trkpt>
<trkpt lat="48.900405" lon="20.029565">
<ele>1538.5</ele>
<desc>Speed 9.4 km/h Distance 9.37 km</desc>
<time>2013-07-23T15:29:40.16</time>
<name>4694</name>
<sym>Dot</sym>
</trkpt>
<trkpt lat="48.900413" lon="20.029543">
<ele>1537.5</ele>
<desc>Speed 6.2 km/h Distance 9.37 km</desc>
<time>2013-07-23T15:29:41.16</time>
<name>4695</name>
<sym>Dot</sym>
</trkpt>
<trkpt lat="48.900410" lon="20.029515">
<ele>1537.5</ele>
<desc>Speed 7.3 km/h Distance 9.38 km</desc>
<time>2013-07-23T15:29:42.15</time>
<name>4696</name>
<sym>Dot</sym>
</trkpt>
<trkpt lat="48.900407" lon="20.029487">
<ele>1537.0</ele>
<desc>Speed 7.3 km/h Distance 9.38 km</desc>
<time>2013-07-23T15:29:43.14</time>
<name>4697</name>
<sym>Dot</sym>
</trkpt>
<trkpt lat="48.900412" lon="20.029453">
<ele>1537.0</ele>
<desc>Speed 7.3 km/h Distance 9.38 km</desc>
<time>2013-07-23T15:29:44.13</time>
<name>4698</name>
<sym>Dot</sym>
</trkpt>
<trkpt lat="48.900460" lon="20.029380">
<ele>1537.0</ele>
<desc>Speed 11.7 km/h Distance 9.39 km</desc>
<time>2013-07-23T15:29:46.13</time>
<name>4699</name>
<sym>Dot</sym>
</trkpt>
<trkpt lat="48.900462" lon="20.029343">
<ele>1536.0</ele>
<desc>Speed 6.0 km/h Distance 9.39 km</desc>
<time>2013-07-23T15:29:47.13</time>
<name>4700</name>
<sym>Dot</sym>
</trkpt>
<trkpt lat="48.900487" lon="20.029272">
<ele>1535.5</ele>
<desc>Speed 8.8 km/h Distance 9.40 km</desc>
<time>2013-07-23T15:29:49.12</time>
<name>4701</name>
<sym>Dot</sym>
</trkpt>
<trkpt lat="48.900485" lon="20.029242">
<ele>1535.5</ele>
<desc>Speed 7.2 km/h Distance 9.40 km</desc>
<time>2013-07-23T15:29:50.11</time>
<name>4702</name>
<sym>Dot</sym>
</trkpt>
<trkpt lat="48.900500" lon="20.029212">
<ele>1537.0</ele>
<desc>Speed 6.6 km/h Distance 9.40 km</desc>
<time>2013-07-23T15:29:51.11</time>
<name>4703</name>
<sym>Dot</sym>
</trkpt>
<trkpt lat="48.900508" lon="20.029187">
<ele>1537.0</ele>
<desc>Speed 6.6 km/h Distance 9.40 km</desc>
<time>2013-07-23T15:29:52.10</time>
<name>4704</name>
<sym>Dot</sym>
</trkpt>
<trkpt lat="48.900492" lon="20.029155">
<ele>1537.0</ele>
<desc>Speed 10.6 km/h Distance 9.41 km</desc>
<time>2013-07-23T15:29:53.09</time>
<name>4705</name>
<sym>Dot</sym>
</trkpt>
<trkpt lat="48.900480" lon="20.029128">
<ele>1537.0</ele>
<desc>Speed 10.6 km/h Distance 9.41 km</desc>
<time>2013-07-23T15:29:54.10</time>
<name>4706</name>
<sym>Dot</sym>
</trkpt>
<trkpt lat="48.900512" lon="20.029103">
<ele>1536.5</ele>
<desc>Speed 8.7 km/h Distance 9.41 km</desc>
<time>2013-07-23T15:29:55.09</time>
<name>4707</name>
<sym>Dot</sym>
</trkpt>
<trkpt lat="48.900505" lon="20.029062">
<ele>1536.0</ele>
<desc>Speed 9.4 km/h Distance 9.42 km</desc>
<time>2013-07-23T15:29:56.08</time>
<name>4708</name>
<sym>Dot</sym>
</trkpt>
<trkpt lat="48.900493" lon="20.029030">
<ele>1536.0</ele>
<desc>Speed 9.6 km/h Distance 9.42 km</desc>
<time>2013-07-23T15:29:57.08</time>
<name>4709</name>
<sym>Dot</sym>
</trkpt>
<trkpt lat="48.900480" lon="20.029002">
<ele>1535.0</ele>
<desc>Speed 7.4 km/h Distance 9.42 km</desc>
<time>2013-07-23T15:29:58.08</time>
<name>4710</name>
<sym>Dot</sym>
</trkpt>
<trkpt lat="48.900463" lon="20.028963">
<ele>1535.5</ele>
<desc>Speed 11.0 km/h Distance 9.42 km</desc>
<time>2013-07-23T15:29:59.07</time>
<name>4711</name>
<sym>Dot</sym>
</trkpt>
<trkpt lat="48.900455" lon="20.028925">
<ele>1533.5</ele>
<desc>Speed 10.4 km/h Distance 9.43 km</desc>
<time>2013-07-23T15:30:00.07</time>
<name>4712</name>
<sym>Dot</sym>
</trkpt>
<trkpt lat="48.900468" lon="20.028882">
<ele>1533.5</ele>
<desc>Speed 10.0 km/h Distance 9.43 km</desc>
<time>2013-07-23T15:30:01.07</time>
<name>4713</name>
<sym>Dot</sym>
</trkpt>
<trkpt lat="48.900473" lon="20.028845">
<ele>1534.0</ele>
<desc>Speed 9.1 km/h Distance 9.43 km</desc>
<time>2013-07-23T15:30:02.06</time>
<name>4714</name>
<sym>Dot</sym>
</trkpt>
<trkpt lat="48.900478" lon="20.028813">
<ele>1534.0</ele>
<desc>Speed 9.1 km/h Distance 9.44 km</desc>
<time>2013-07-23T15:30:03.05</time>
<name>4715</name>
<sym>Dot</sym>
</trkpt>
<trkpt lat="48.900473" lon="20.028773">
<ele>1534.0</ele>
<desc>Speed 9.1 km/h Distance 9.44 km</desc>
<time>2013-07-23T15:30:04.05</time>
<name>4716</name>
<sym>Dot</sym>
</trkpt>
<trkpt lat="48.900473" lon="20.028735">
<ele>1534.0</ele>
<desc>Speed 9.1 km/h Distance 9.44 km</desc>
<time>2013-07-23T15:30:05.04</time>
<name>4717</name>
<sym>Dot</sym>
</trkpt>
<trkpt lat="48.900458" lon="20.028692">
<ele>1534.0</ele>
<desc>Speed 9.6 km/h Distance 9.45 km</desc>
<time>2013-07-23T15:30:06.04</time>
<name>4718</name>
<sym>Dot</sym>
</trkpt>
<trkpt lat="48.900460" lon="20.028655">
<ele>1534.0</ele>
<desc>Speed 8.3 km/h Distance 9.45 km</desc>
<time>2013-07-23T15:30:07.03</time>
<name>4719</name>
<sym>Dot</sym>
</trkpt>
<trkpt lat="48.900453" lon="20.028627">
<ele>1533.5</ele>
<desc>Speed 6.8 km/h Distance 9.45 km</desc>
<time>2013-07-23T15:30:08.04</time>
<name>4720</name>
<sym>Dot</sym>
</trkpt>
<trkpt lat="48.900452" lon="20.028602">
<ele>1533.5</ele>
<desc>Speed 6.8 km/h Distance 9.45 km</desc>
<time>2013-07-23T15:30:09.03</time>
<name>4721</name>
<sym>Dot</sym>
</trkpt>
<trkpt lat="48.900442" lon="20.028562">
<ele>1533.5</ele>
<desc>Speed 10.2 km/h Distance 9.46 km</desc>
<time>2013-07-23T15:30:10.03</time>
<name>4722</name>
<sym>Dot</sym>
</trkpt>
<trkpt lat="48.900440" lon="20.028527">
<ele>1534.0</ele>
<desc>Speed 6.6 km/h Distance 9.46 km</desc>
<time>2013-07-23T15:30:11.02</time>
<name>4723</name>
<sym>Dot</sym>
</trkpt>
<trkpt lat="48.900267" lon="20.028352">
<ele>1534.5</ele>
<desc>Speed 19.0 km/h Distance 9.48 km</desc>
<time>2013-07-23T15:30:17.34</time>
<name>4724</name>
<sym>Dot</sym>
</trkpt>
<trkpt lat="48.900233" lon="20.028280">
<ele>1534.5</ele>
<desc>Speed 23.2 km/h Distance 9.49 km</desc>
<time>2013-07-23T15:30:19.33</time>
<name>4725</name>
<sym>Dot</sym>
</trkpt>
<trkpt lat="48.900300" lon="20.028260">
<ele>1535.5</ele>
<desc>Speed 9.1 km/h Distance 9.50 km</desc>
<time>2013-07-23T15:30:21.32</time>
<name>4726</name>
<sym>Dot</sym>
</trkpt>
<trkpt lat="48.900300" lon="20.028237">
<ele>1535.5</ele>
<desc>Speed 6.5 km/h Distance 9.50 km</desc>
<time>2013-07-23T15:30:22.33</time>
<name>4727</name>
<sym>Dot</sym>
</trkpt>
<trkpt lat="48.900302" lon="20.028223">
<ele>1535.5</ele>
<desc>Speed 4.4 km/h Distance 9.50 km</desc>
<time>2013-07-23T15:30:23.32</time>
<name>4728</name>
<sym>Dot</sym>
</trkpt>
<trkpt lat="48.900210" lon="20.028060">
<ele>1535.0</ele>
<desc>Speed 9.5 km/h Distance 9.51 km</desc>
<time>2013-07-23T15:30:27.44</time>
<name>4729</name>
<sym>Dot</sym>
</trkpt>
<trkpt lat="48.900238" lon="20.028030">
<ele>1535.0</ele>
<desc>Speed 9.5 km/h Distance 9.52 km</desc>
<time>2013-07-23T15:30:28.32</time>
<name>4730</name>
<sym>Dot</sym>
</trkpt>
<trkpt lat="48.900263" lon="20.028010">
<ele>1535.0</ele>
<desc>Speed 7.8 km/h Distance 9.52 km</desc>
<time>2013-07-23T15:30:29.51</time>
<name>4731</name>
<sym>Dot</sym>
</trkpt>
<trkpt lat="48.900277" lon="20.027983">
<ele>1535.0</ele>
<desc>Speed 7.6 km/h Distance 9.52 km</desc>
<time>2013-07-23T15:30:30.31</time>
<name>4732</name>
<sym>Dot</sym>
</trkpt>
<trkpt lat="48.900285" lon="20.027962">
<ele>1534.0</ele>
<desc>Speed 7.3 km/h Distance 9.53 km</desc>
<time>2013-07-23T15:30:31.31</time>
<name>4733</name>
<sym>Dot</sym>
</trkpt>
<trkpt lat="48.900288" lon="20.027930">
<ele>1534.0</ele>
<desc>Speed 6.7 km/h Distance 9.53 km</desc>
<time>2013-07-23T15:30:32.31</time>
<name>4734</name>
<sym>Dot</sym>
</trkpt>
<trkpt lat="48.900293" lon="20.027900">
<ele>1534.0</ele>
<desc>Speed 7.3 km/h Distance 9.53 km</desc>
<time>2013-07-23T15:30:33.30</time>
<name>4735</name>
<sym>Dot</sym>
</trkpt>
<trkpt lat="48.900300" lon="20.027870">
<ele>1534.5</ele>
<desc>Speed 6.6 km/h Distance 9.53 km</desc>
<time>2013-07-23T15:30:34.30</time>
<name>4736</name>
<sym>Dot</sym>
</trkpt>
<trkpt lat="48.900298" lon="20.027835">
<ele>1534.5</ele>
<desc>Speed 8.3 km/h Distance 9.53 km</desc>
<time>2013-07-23T15:30:35.30</time>
<name>4737</name>
<sym>Dot</sym>
</trkpt>
<trkpt lat="48.900292" lon="20.027795">
<ele>1534.5</ele>
<desc>Speed 10.7 km/h Distance 9.54 km</desc>
<time>2013-07-23T15:30:36.29</time>
<name>4738</name>
<sym>Dot</sym>
</trkpt>
<trkpt lat="48.900300" lon="20.027755">
<ele>1535.0</ele>
<desc>Speed 8.9 km/h Distance 9.54 km</desc>
<time>2013-07-23T15:30:37.29</time>
<name>4739</name>
<sym>Dot</sym>
</trkpt>
<trkpt lat="48.900290" lon="20.027718">
<ele>1534.5</ele>
<desc>Speed 10.5 km/h Distance 9.54 km</desc>
<time>2013-07-23T15:30:38.29</time>
<name>4740</name>
<sym>Dot</sym>
</trkpt>
<trkpt lat="48.900292" lon="20.027682">
<ele>1533.5</ele>
<desc>Speed 9.7 km/h Distance 9.55 km</desc>
<time>2013-07-23T15:30:39.28</time>
<name>4741</name>
<sym>Dot</sym>
</trkpt>
<trkpt lat="48.900295" lon="20.027648">
<ele>1534.0</ele>
<desc>Speed 8.2 km/h Distance 9.55 km</desc>
<time>2013-07-23T15:30:40.28</time>
<name>4742</name>
<sym>Dot</sym>
</trkpt>
<trkpt lat="48.900292" lon="20.027613">
<ele>1532.5</ele>
<desc>Speed 8.6 km/h Distance 9.55 km</desc>
<time>2013-07-23T15:30:41.27</time>
<name>4743</name>
<sym>Dot</sym>
</trkpt>
<trkpt lat="48.900290" lon="20.027580">
<ele>1532.5</ele>
<desc>Speed 8.1 km/h Distance 9.55 km</desc>
<time>2013-07-23T15:30:42.27</time>
<name>4744</name>
<sym>Dot</sym>
</trkpt>
<trkpt lat="48.900285" lon="20.027543">
<ele>1532.5</ele>
<desc>Speed 8.6 km/h Distance 9.56 km</desc>
<time>2013-07-23T15:30:43.26</time>
<name>4745</name>
<sym>Dot</sym>
</trkpt>
<trkpt lat="48.900285" lon="20.027523">
<ele>1532.5</ele>
<desc>Speed 3.7 km/h Distance 9.56 km</desc>
<time>2013-07-23T15:30:44.26</time>
<name>4746</name>
<sym>Dot</sym>
</trkpt>
<trkpt lat="48.900280" lon="20.027507">
<ele>1532.0</ele>
<desc>Speed 4.4 km/h Distance 9.56 km</desc>
<time>2013-07-23T15:30:45.26</time>
<name>4747</name>
<sym>Dot</sym>
</trkpt>
<trkpt lat="48.900277" lon="20.027477">
<ele>1531.5</ele>
<desc>Speed 7.1 km/h Distance 9.56 km</desc>
<time>2013-07-23T15:30:46.38</time>
<name>4748</name>
<sym>Dot</sym>
</trkpt>
<trkpt lat="48.900268" lon="20.027445">
<ele>1531.0</ele>
<desc>Speed 8.0 km/h Distance 9.56 km</desc>
<time>2013-07-23T15:30:47.25</time>
<name>4749</name>
<sym>Dot</sym>
</trkpt>
<trkpt lat="48.900268" lon="20.027425">
<ele>1531.0</ele>
<desc>Speed 4.9 km/h Distance 9.57 km</desc>
<time>2013-07-23T15:30:48.25</time>
<name>4750</name>
<sym>Dot</sym>
</trkpt>
<trkpt lat="48.900273" lon="20.027402">
<ele>1531.0</ele>
<desc>Speed 5.4 km/h Distance 9.57 km</desc>
<time>2013-07-23T15:30:49.24</time>
<name>4751</name>
<sym>Dot</sym>
</trkpt>
<trkpt lat="48.900272" lon="20.027378">
<ele>1530.5</ele>
<desc>Speed 5.8 km/h Distance 9.57 km</desc>
<time>2013-07-23T15:30:50.24</time>
<name>4752</name>
<sym>Dot</sym>
</trkpt>
<trkpt lat="48.900270" lon="20.027355">
<ele>1529.5</ele>
<desc>Speed 6.4 km/h Distance 9.57 km</desc>
<time>2013-07-23T15:30:51.24</time>
<name>4753</name>
<sym>Dot</sym>
</trkpt>
<trkpt lat="48.900265" lon="20.027337">
<ele>1529.0</ele>
<desc>Speed 5.3 km/h Distance 9.57 km</desc>
<time>2013-07-23T15:30:52.24</time>
<name>4754</name>
<sym>Dot</sym>
</trkpt>
<trkpt lat="48.900247" lon="20.027257">
<ele>1529.0</ele>
<desc>Speed 10.6 km/h Distance 9.58 km</desc>
<time>2013-07-23T15:30:54.24</time>
<name>4755</name>
<sym>Dot</sym>
</trkpt>
<trkpt lat="48.900237" lon="20.027215">
<ele>1529.0</ele>
<desc>Speed 11.3 km/h Distance 9.58 km</desc>
<time>2013-07-23T15:30:55.23</time>
<name>4756</name>
<sym>Dot</sym>
</trkpt>
<trkpt lat="48.900227" lon="20.027172">
<ele>1528.5</ele>
<desc>Speed 11.4 km/h Distance 9.58 km</desc>
<time>2013-07-23T15:30:56.29</time>
<name>4757</name>
<sym>Dot</sym>
</trkpt>
<trkpt lat="48.900210" lon="20.027133">
<ele>1528.5</ele>
<desc>Speed 11.8 km/h Distance 9.59 km</desc>
<time>2013-07-23T15:30:57.23</time>
<name>4758</name>
<sym>Dot</sym>
</trkpt>
<trkpt lat="48.900198" lon="20.027103">
<ele>1528.0</ele>
<desc>Speed 9.5 km/h Distance 9.59 km</desc>
<time>2013-07-23T15:30:58.22</time>
<name>4759</name>
<sym>Dot</sym>
</trkpt>
<trkpt lat="48.900187" lon="20.027080">
<ele>1527.5</ele>
<desc>Speed 9.1 km/h Distance 9.59 km</desc>
<time>2013-07-23T15:30:59.21</time>
<name>4760</name>
<sym>Dot</sym>
</trkpt>
<trkpt lat="48.900197" lon="20.027075">
<ele>1526.5</ele>
<desc>Speed 2.3 km/h Distance 9.59 km</desc>
<time>2013-07-23T15:31:00.21</time>
<name>4761</name>
<sym>Dot</sym>
</trkpt>
<trkpt lat="48.900192" lon="20.027078">
<ele>1526.0</ele>
<desc>Speed 7.5 km/h Distance 9.59 km</desc>
<time>2013-07-23T15:31:07.21</time>
<name>4762</name>
<sym>Dot</sym>
</trkpt>
<trkpt lat="48.900202" lon="20.027072">
<ele>1525.5</ele>
<desc>Speed 2.5 km/h Distance 9.60 km</desc>
<time>2013-07-23T15:31:09.20</time>
<name>4763</name>
<sym>Dot</sym>
</trkpt>
<trkpt lat="48.900240" lon="20.027015">
<ele>1524.0</ele>
<desc>Speed 3.4 km/h Distance 9.60 km</desc>
<time>2013-07-23T15:31:30.19</time>
<name>4764</name>
<sym>Dot</sym>
</trkpt>
<trkpt lat="48.900247" lon="20.027000">
<ele>1523.0</ele>
<desc>Speed 3.1 km/h Distance 9.60 km</desc>
<time>2013-07-23T15:31:31.19</time>
<name>4765</name>
<sym>Dot</sym>
</trkpt>
<trkpt lat="48.900213" lon="20.026942">
<ele>1524.5</ele>
<desc>Speed 11.9 km/h Distance 9.61 km</desc>
<time>2013-07-23T15:31:33.19</time>
<name>4766</name>
<sym>Dot</sym>
</trkpt>
<trkpt lat="48.900185" lon="20.026908">
<ele>1525.0</ele>
<desc>Speed 14.2 km/h Distance 9.61 km</desc>
<time>2013-07-23T15:31:34.19</time>
<name>4767</name>
<sym>Dot</sym>
</trkpt>
<trkpt lat="48.900178" lon="20.026880">
<ele>1525.0</ele>
<desc>Speed 7.5 km/h Distance 9.62 km</desc>
<time>2013-07-23T15:31:35.18</time>
<name>4768</name>
<sym>Dot</sym>
</trkpt>
<trkpt lat="48.900095" lon="20.026768">
<ele>1525.5</ele>
<desc>Speed 10.5 km/h Distance 9.63 km</desc>
<time>2013-07-23T15:31:38.33</time>
<name>4769</name>
<sym>Dot</sym>
</trkpt>
<trkpt lat="48.900168" lon="20.026742">
<ele>1526.5</ele>
<desc>Speed 6.7 km/h Distance 9.64 km</desc>
<time>2013-07-23T15:31:40.32</time>
<name>4770</name>
<sym>Dot</sym>
</trkpt>
<trkpt lat="48.900168" lon="20.026715">
<ele>1526.5</ele>
<desc>Speed 9.0 km/h Distance 9.64 km</desc>
<time>2013-07-23T15:31:41.32</time>
<name>4771</name>
<sym>Dot</sym>
</trkpt>
<trkpt lat="48.900143" lon="20.026678">
<ele>1526.5</ele>
<desc>Speed 15.6 km/h Distance 9.64 km</desc>
<time>2013-07-23T15:31:42.32</time>
<name>4772</name>
<sym>Dot</sym>
</trkpt>
<trkpt lat="48.900127" lon="20.026652">
<ele>1526.5</ele>
<desc>Speed 10.0 km/h Distance 9.64 km</desc>
<time>2013-07-23T15:31:43.33</time>
<name>4773</name>
<sym>Dot</sym>
</trkpt>
<trkpt lat="48.900118" lon="20.026630">
<ele>1526.5</ele>
<desc>Speed 6.6 km/h Distance 9.65 km</desc>
<time>2013-07-23T15:31:44.32</time>
<name>4774</name>
<sym>Dot</sym>
</trkpt>
<trkpt lat="48.900098" lon="20.026602">
<ele>1527.0</ele>
<desc>Speed 11.2 km/h Distance 9.65 km</desc>
<time>2013-07-23T15:31:45.32</time>
<name>4775</name>
<sym>Dot</sym>
</trkpt>
<trkpt lat="48.900075" lon="20.026577">
<ele>1527.0</ele>
<desc>Speed 11.6 km/h Distance 9.65 km</desc>
<time>2013-07-23T15:31:46.32</time>
<name>4776</name>
<sym>Dot</sym>
</trkpt>
<trkpt lat="48.900058" lon="20.026533">
<ele>1526.5</ele>
<desc>Speed 9.4 km/h Distance 9.66 km</desc>
<time>2013-07-23T15:31:48.30</time>
<name>4777</name>
<sym>Dot</sym>
</trkpt>
<trkpt lat="48.900052" lon="20.026510">
<ele>1526.5</ele>
<desc>Speed 5.8 km/h Distance 9.66 km</desc>
<time>2013-07-23T15:31:49.31</time>
<name>4778</name>
<sym>Dot</sym>
</trkpt>
<trkpt lat="48.900052" lon="20.026455">
<ele>1526.5</ele>
<desc>Speed 6.3 km/h Distance 9.66 km</desc>
<time>2013-07-23T15:31:51.41</time>
<name>4779</name>
<sym>Dot</sym>
</trkpt>
<trkpt lat="48.900058" lon="20.026435">
<ele>1526.5</ele>
<desc>Speed 8.5 km/h Distance 9.66 km</desc>
<time>2013-07-23T15:31:52.29</time>
<name>4780</name>
<sym>Dot</sym>
</trkpt>
<trkpt lat="48.900067" lon="20.026415">
<ele>1526.0</ele>
<desc>Speed 6.0 km/h Distance 9.67 km</desc>
<time>2013-07-23T15:31:53.29</time>
<name>4781</name>
<sym>Dot</sym>
</trkpt>
<trkpt lat="48.900065" lon="20.026388">
<ele>1526.0</ele>
<desc>Speed 7.3 km/h Distance 9.67 km</desc>
<time>2013-07-23T15:31:54.28</time>
<name>4782</name>
<sym>Dot</sym>
</trkpt>
<trkpt lat="48.900073" lon="20.026370">
<ele>1526.0</ele>
<desc>Speed 9.1 km/h Distance 9.67 km</desc>
<time>2013-07-23T15:31:55.28</time>
<name>4783</name>
<sym>Dot</sym>
</trkpt>
<trkpt lat="48.900063" lon="20.026335">
<ele>1526.0</ele>
<desc>Speed 13.4 km/h Distance 9.67 km</desc>
<time>2013-07-23T15:31:56.27</time>
<name>4784</name>
<sym>Dot</sym>
</trkpt>
<trkpt lat="48.900078" lon="20.026310">
<ele>1525.5</ele>
<desc>Speed 7.1 km/h Distance 9.67 km</desc>
<time>2013-07-23T15:31:57.27</time>
<name>4785</name>
<sym>Dot</sym>
</trkpt>
<trkpt lat="48.900095" lon="20.026285">
<ele>1525.5</ele>
<desc>Speed 7.7 km/h Distance 9.68 km</desc>
<time>2013-07-23T15:31:58.27</time>
<name>4786</name>
<sym>Dot</sym>
</trkpt>
<trkpt lat="48.900102" lon="20.026263">
<ele>1525.5</ele>
<desc>Speed 5.1 km/h Distance 9.68 km</desc>
<time>2013-07-23T15:31:59.27</time>
<name>4787</name>
<sym>Dot</sym>
</trkpt>
<trkpt lat="48.900155" lon="20.026242">
<ele>1525.0</ele>
<desc>Speed 10.0 km/h Distance 9.68 km</desc>
<time>2013-07-23T15:32:01.26</time>
<name>4788</name>
<sym>Dot</sym>
</trkpt>
<trkpt lat="48.900183" lon="20.026225">
<ele>1524.5</ele>
<desc>Speed 9.0 km/h Distance 9.69 km</desc>
<time>2013-07-23T15:32:02.26</time>
<name>4789</name>
<sym>Dot</sym>
</trkpt>
<trkpt lat="48.900133" lon="20.026142">
<ele>1524.5</ele>
<desc>Speed 13.2 km/h Distance 9.70 km</desc>
<time>2013-07-23T15:32:04.36</time>
<name>4790</name>
<sym>Dot</sym>
</trkpt>
<trkpt lat="48.900135" lon="20.026113">
<ele>1524.0</ele>
<desc>Speed 9.3 km/h Distance 9.70 km</desc>
<time>2013-07-23T15:32:05.25</time>
<name>4791</name>
<sym>Dot</sym>
</trkpt>
<trkpt lat="48.900133" lon="20.026092">
<ele>1523.5</ele>
<desc>Speed 6.1 km/h Distance 9.70 km</desc>
<time>2013-07-23T15:32:06.24</time>
<name>4792</name>
<sym>Dot</sym>
</trkpt>
<trkpt lat="48.900153" lon="20.026082">
<ele>1523.0</ele>
<desc>Speed 5.1 km/h Distance 9.70 km</desc>
<time>2013-07-23T15:32:07.24</time>
<name>4793</name>
<sym>Dot</sym>
</trkpt>
<trkpt lat="48.900163" lon="20.026065">
<ele>1522.5</ele>
<desc>Speed 7.9 km/h Distance 9.70 km</desc>
<time>2013-07-23T15:32:08.29</time>
<name>4794</name>
<sym>Dot</sym>
</trkpt>
<trkpt lat="48.900170" lon="20.026045">
<ele>1522.5</ele>
<desc>Speed 8.1 km/h Distance 9.71 km</desc>
<time>2013-07-23T15:32:09.23</time>
<name>4795</name>
<sym>Dot</sym>
</trkpt>
<trkpt lat="48.900178" lon="20.026020">
<ele>1522.0</ele>
<desc>Speed 7.2 km/h Distance 9.71 km</desc>
<time>2013-07-23T15:32:10.22</time>
<name>4796</name>
<sym>Dot</sym>
</trkpt>
<trkpt lat="48.900187" lon="20.025995">
<ele>1521.5</ele>
<desc>Speed 7.0 km/h Distance 9.71 km</desc>
<time>2013-07-23T15:32:11.22</time>
<name>4797</name>
<sym>Dot</sym>
</trkpt>
<trkpt lat="48.900175" lon="20.025967">
<ele>1521.0</ele>
<desc>Speed 9.5 km/h Distance 9.71 km</desc>
<time>2013-07-23T15:32:12.26</time>
<name>4798</name>
<sym>Dot</sym>
</trkpt>
<trkpt lat="48.900175" lon="20.025942">
<ele>1521.0</ele>
<desc>Speed 7.0 km/h Distance 9.71 km</desc>
<time>2013-07-23T15:32:13.21</time>
<name>4799</name>
<sym>Dot</sym>
</trkpt>
<trkpt lat="48.900190" lon="20.025903">
<ele>1520.5</ele>
<desc>Speed 11.0 km/h Distance 9.72 km</desc>
<time>2013-07-23T15:32:14.21</time>
<name>4800</name>
<sym>Dot</sym>
</trkpt>
<trkpt lat="48.900173" lon="20.025860">
<ele>1520.0</ele>
<desc>Speed 13.4 km/h Distance 9.72 km</desc>
<time>2013-07-23T15:32:15.22</time>
<name>4801</name>
<sym>Dot</sym>
</trkpt>
<trkpt lat="48.900177" lon="20.025827">
<ele>1520.0</ele>
<desc>Speed 8.6 km/h Distance 9.72 km</desc>
<time>2013-07-23T15:32:16.41</time>
<name>4802</name>
<sym>Dot</sym>
</trkpt>
<trkpt lat="48.900172" lon="20.025740">
<ele>1519.0</ele>
<desc>Speed 14.7 km/h Distance 9.73 km</desc>
<time>2013-07-23T15:32:18.21</time>
<name>4803</name>
<sym>Dot</sym>
</trkpt>
<trkpt lat="48.900188" lon="20.025688">
<ele>1519.0</ele>
<desc>Speed 7.2 km/h Distance 9.73 km</desc>
<time>2013-07-23T15:32:20.20</time>
<name>4804</name>
<sym>Dot</sym>
</trkpt>
<trkpt lat="48.900212" lon="20.025655">
<ele>1518.5</ele>
<desc>Speed 10.3 km/h Distance 9.74 km</desc>
<time>2013-07-23T15:32:21.19</time>
<name>4805</name>
<sym>Dot</sym>
</trkpt>
<trkpt lat="48.900218" lon="20.025620">
<ele>1518.0</ele>
<desc>Speed 8.9 km/h Distance 9.74 km</desc>
<time>2013-07-23T15:32:22.19</time>
<name>4806</name>
<sym>Dot</sym>
</trkpt>
<trkpt lat="48.900198" lon="20.025577">
<ele>1518.0</ele>
<desc>Speed 14.9 km/h Distance 9.74 km</desc>
<time>2013-07-23T15:32:23.19</time>
<name>4807</name>
<sym>Dot</sym>
</trkpt>
<trkpt lat="48.900167" lon="20.025522">
<ele>1517.5</ele>
<desc>Speed 19.2 km/h Distance 9.75 km</desc>
<time>2013-07-23T15:32:24.18</time>
<name>4808</name>
<sym>Dot</sym>
</trkpt>
<trkpt lat="48.900163" lon="20.025448">
<ele>1517.0</ele>
<desc>Speed 10.5 km/h Distance 9.75 km</desc>
<time>2013-07-23T15:32:26.18</time>
<name>4809</name>
<sym>Dot</sym>
</trkpt>
<trkpt lat="48.900183" lon="20.025418">
<ele>1517.0</ele>
<desc>Speed 9.8 km/h Distance 9.76 km</desc>
<time>2013-07-23T15:32:27.16</time>
<name>4810</name>
<sym>Dot</sym>
</trkpt>
<trkpt lat="48.900182" lon="20.025373">
<ele>1517.0</ele>
<desc>Speed 12.1 km/h Distance 9.76 km</desc>
<time>2013-07-23T15:32:28.16</time>
<name>4811</name>
<sym>Dot</sym>
</trkpt>
<trkpt lat="48.900185" lon="20.025327">
<ele>1516.5</ele>
<desc>Speed 11.7 km/h Distance 9.76 km</desc>
<time>2013-07-23T15:32:29.16</time>
<name>4812</name>
<sym>Dot</sym>
</trkpt>
<trkpt lat="48.900188" lon="20.025280">
<ele>1516.5</ele>
<desc>Speed 11.2 km/h Distance 9.77 km</desc>
<time>2013-07-23T15:32:30.15</time>
<name>4813</name>
<sym>Dot</sym>
</trkpt>
<trkpt lat="48.900222" lon="20.025247">
<ele>1516.0</ele>
<desc>Speed 10.8 km/h Distance 9.77 km</desc>
<time>2013-07-23T15:32:31.15</time>
<name>4814</name>
<sym>Dot</sym>
</trkpt>
<trkpt lat="48.900318" lon="20.025197">
<ele>1515.5</ele>
<desc>Speed 11.1 km/h Distance 9.78 km</desc>
<time>2013-07-23T15:32:33.15</time>
<name>4815</name>
<sym>Dot</sym>
</trkpt>
<trkpt lat="48.900320" lon="20.025160">
<ele>1515.0</ele>
<desc>Speed 12.2 km/h Distance 9.79 km</desc>
<time>2013-07-23T15:32:34.14</time>
<name>4816</name>
<sym>Dot</sym>
</trkpt>
<trkpt lat="48.900358" lon="20.025142">
<ele>1515.0</ele>
<desc>Speed 8.1 km/h Distance 9.79 km</desc>
<time>2013-07-23T15:32:35.15</time>
<name>4817</name>
<sym>Dot</sym>
</trkpt>
<trkpt lat="48.900383" lon="20.025127">
<ele>1515.0</ele>
<desc>Speed 7.2 km/h Distance 9.79 km</desc>
<time>2013-07-23T15:32:36.21</time>
<name>4818</name>
<sym>Dot</sym>
</trkpt>
<trkpt lat="48.900412" lon="20.025123">
<ele>1514.5</ele>
<desc>Speed 4.0 km/h Distance 9.80 km</desc>
<time>2013-07-23T15:32:37.12</time>
<name>4819</name>
<sym>Dot</sym>
</trkpt>
<trkpt lat="48.900433" lon="20.025122">
<ele>1513.5</ele>
<desc>Speed 4.8 km/h Distance 9.80 km</desc>
<time>2013-07-23T15:32:43.12</time>
<name>4820</name>
<sym>Dot</sym>
</trkpt>
<trkpt lat="48.900465" lon="20.025098">
<ele>1512.0</ele>
<desc>Speed 2.5 km/h Distance 9.80 km</desc>
<time>2013-07-23T15:32:57.11</time>
<name>4821</name>
<sym>Dot</sym>
</trkpt>
<trkpt lat="48.900468" lon="20.025073">
<ele>1512.0</ele>
<desc>Speed 6.2 km/h Distance 9.81 km</desc>
<time>2013-07-23T15:32:58.10</time>
<name>4822</name>
<sym>Dot</sym>
</trkpt>
<trkpt lat="48.900483" lon="20.025030">
<ele>1512.0</ele>
<desc>Speed 10.9 km/h Distance 9.81 km</desc>
<time>2013-07-23T15:32:59.09</time>
<name>4823</name>
<sym>Dot</sym>
</trkpt>
<trkpt lat="48.900502" lon="20.024977">
<ele>1512.0</ele>
<desc>Speed 12.6 km/h Distance 9.81 km</desc>
<time>2013-07-23T15:33:00.08</time>
<name>4824</name>
<sym>Dot</sym>
</trkpt>
<trkpt lat="48.900518" lon="20.024928">
<ele>1511.5</ele>
<desc>Speed 12.0 km/h Distance 9.82 km</desc>
<time>2013-07-23T15:33:01.13</time>
<name>4825</name>
<sym>Dot</sym>
</trkpt>
<trkpt lat="48.900528" lon="20.024887">
<ele>1511.5</ele>
<desc>Speed 9.6 km/h Distance 9.82 km</desc>
<time>2013-07-23T15:33:02.07</time>
<name>4826</name>
<sym>Dot</sym>
</trkpt>
<trkpt lat="48.900528" lon="20.024867">
<ele>1511.5</ele>
<desc>Speed 5.4 km/h Distance 9.82 km</desc>
<time>2013-07-23T15:33:03.07</time>
<name>4827</name>
<sym>Dot</sym>
</trkpt>
<trkpt lat="48.900523" lon="20.024840">
<ele>1511.5</ele>
<desc>Speed 7.5 km/h Distance 9.82 km</desc>
<time>2013-07-23T15:33:04.08</time>
<name>4828</name>
<sym>Dot</sym>
</trkpt>
<trkpt lat="48.900518" lon="20.024805">
<ele>1511.0</ele>
<desc>Speed 9.5 km/h Distance 9.83 km</desc>
<time>2013-07-23T15:33:05.06</time>
<name>4829</name>
<sym>Dot</sym>
</trkpt>
<trkpt lat="48.900522" lon="20.024768">
<ele>1510.5</ele>
<desc>Speed 9.1 km/h Distance 9.83 km</desc>
<time>2013-07-23T15:33:06.06</time>
<name>4830</name>
<sym>Dot</sym>
</trkpt>
<trkpt lat="48.900532" lon="20.024735">
<ele>1510.5</ele>
<desc>Speed 7.7 km/h Distance 9.83 km</desc>
<time>2013-07-23T15:33:07.06</time>
<name>4831</name>
<sym>Dot</sym>
</trkpt>
<trkpt lat="48.900528" lon="20.024713">
<ele>1510.0</ele>
<desc>Speed 6.4 km/h Distance 9.83 km</desc>
<time>2013-07-23T15:33:08.05</time>
<name>4832</name>
<sym>Dot</sym>
</trkpt>
<trkpt lat="48.900522" lon="20.024683">
<ele>1510.0</ele>
<desc>Speed 8.1 km/h Distance 9.84 km</desc>
<time>2013-07-23T15:33:09.04</time>
<name>4833</name>
<sym>Dot</sym>
</trkpt>
<trkpt lat="48.900527" lon="20.024643">
<ele>1510.0</ele>
<desc>Speed 10.1 km/h Distance 9.84 km</desc>
<time>2013-07-23T15:33:10.04</time>
<name>4834</name>
<sym>Dot</sym>
</trkpt>
<trkpt lat="48.900528" lon="20.024613">
<ele>1509.5</ele>
<desc>Speed 8.3 km/h Distance 9.84 km</desc>
<time>2013-07-23T15:33:11.03</time>
<name>4835</name>
<sym>Dot</sym>
</trkpt>
<trkpt lat="48.900537" lon="20.024580">
<ele>1509.5</ele>
<desc>Speed 8.8 km/h Distance 9.84 km</desc>
<time>2013-07-23T15:33:12.02</time>
<name>4836</name>
<sym>Dot</sym>
</trkpt>
<trkpt lat="48.900525" lon="20.024535">
<ele>1509.0</ele>
<desc>Speed 12.4 km/h Distance 9.85 km</desc>
<time>2013-07-23T15:33:13.02</time>
<name>4837</name>
<sym>Dot</sym>
</trkpt>
<trkpt lat="48.900512" lon="20.024488">
<ele>1508.5</ele>
<desc>Speed 13.1 km/h Distance 9.85 km</desc>
<time>2013-07-23T15:33:14.02</time>
<name>4838</name>
<sym>Dot</sym>
</trkpt>
<trkpt lat="48.900505" lon="20.024440">
<ele>1508.0</ele>
<desc>Speed 12.8 km/h Distance 9.85 km</desc>
<time>2013-07-23T15:33:15.01</time>
<name>4839</name>
<sym>Dot</sym>
</trkpt>
<trkpt lat="48.900503" lon="20.024390">
<ele>1508.0</ele>
<desc>Speed 13.2 km/h Distance 9.86 km</desc>
<time>2013-07-23T15:33:16.01</time>
<name>4840</name>
<sym>Dot</sym>
</trkpt>
<trkpt lat="48.900508" lon="20.024350">
<ele>1508.0</ele>
<desc>Speed 11.3 km/h Distance 9.86 km</desc>
<time>2013-07-23T15:33:17.00</time>
<name>4841</name>
<sym>Dot</sym>
</trkpt>
<trkpt lat="48.900507" lon="20.024312">
<ele>1507.5</ele>
<desc>Speed 10.2 km/h Distance 9.86 km</desc>
<time>2013-07-23T15:33:17.99</time>
<name>4842</name>
<sym>Dot</sym>
</trkpt>
<trkpt lat="48.900515" lon="20.024270">
<ele>1507.5</ele>
<desc>Speed 11.1 km/h Distance 9.87 km</desc>
<time>2013-07-23T15:33:18.99</time>
<name>4843</name>
<sym>Dot</sym>
</trkpt>
<trkpt lat="48.900522" lon="20.024222">
<ele>1507.0</ele>
<desc>Speed 13.2 km/h Distance 9.87 km</desc>
<time>2013-07-23T15:33:19.98</time>
<name>4844</name>
<sym>Dot</sym>
</trkpt>
<trkpt lat="48.900530" lon="20.024170">
<ele>1506.0</ele>
<desc>Speed 13.2 km/h Distance 9.88 km</desc>
<time>2013-07-23T15:33:20.98</time>
<name>4845</name>
<sym>Dot</sym>
</trkpt>
<trkpt lat="48.900532" lon="20.024120">
<ele>1506.0</ele>
<desc>Speed 13.4 km/h Distance 9.88 km</desc>
<time>2013-07-23T15:33:22.07</time>
<name>4846</name>
<sym>Dot</sym>
</trkpt>
<trkpt lat="48.900530" lon="20.024070">
<ele>1505.5</ele>
<desc>Speed 12.9 km/h Distance 9.88 km</desc>
<time>2013-07-23T15:33:22.97</time>
<name>4847</name>
<sym>Dot</sym>
</trkpt>
<trkpt lat="48.900527" lon="20.024020">
<ele>1505.0</ele>
<desc>Speed 13.1 km/h Distance 9.89 km</desc>
<time>2013-07-23T15:33:23.96</time>
<name>4848</name>
<sym>Dot</sym>
</trkpt>
<trkpt lat="48.900523" lon="20.023973">
<ele>1504.5</ele>
<desc>Speed 12.5 km/h Distance 9.89 km</desc>
<time>2013-07-23T15:33:24.96</time>
<name>4849</name>
<sym>Dot</sym>
</trkpt>
<trkpt lat="48.900527" lon="20.023935">
<ele>1503.5</ele>
<desc>Speed 10.5 km/h Distance 9.89 km</desc>
<time>2013-07-23T15:33:25.96</time>
<name>4850</name>
<sym>Dot</sym>
</trkpt>
<trkpt lat="48.900528" lon="20.023902">
<ele>1502.5</ele>
<desc>Speed 8.8 km/h Distance 9.89 km</desc>
<time>2013-07-23T15:33:26.95</time>
<name>4851</name>
<sym>Dot</sym>
</trkpt>
<trkpt lat="48.900528" lon="20.023868">
<ele>1501.5</ele>
<desc>Speed 8.4 km/h Distance 9.90 km</desc>
<time>2013-07-23T15:33:27.95</time>
<name>4852</name>
<sym>Dot</sym>
</trkpt>
<trkpt lat="48.900532" lon="20.023830">
<ele>1501.0</ele>
<desc>Speed 8.6 km/h Distance 9.90 km</desc>
<time>2013-07-23T15:33:28.94</time>
<name>4853</name>
<sym>Dot</sym>
</trkpt>
<trkpt lat="48.900537" lon="20.023803">
<ele>1500.0</ele>
<desc>Speed 8.1 km/h Distance 9.90 km</desc>
<time>2013-07-23T15:33:29.94</time>
<name>4854</name>
<sym>Dot</sym>
</trkpt>
<trkpt lat="48.900535" lon="20.023780">
<ele>1499.0</ele>
<desc>Speed 6.6 km/h Distance 9.90 km</desc>
<time>2013-07-23T15:33:30.94</time>
<name>4855</name>
<sym>Dot</sym>
</trkpt>
<trkpt lat="48.900528" lon="20.023762">
<ele>1498.5</ele>
<desc>Speed 4.5 km/h Distance 9.91 km</desc>
<time>2013-07-23T15:33:31.94</time>
<name>4856</name>
<sym>Dot</sym>
</trkpt>
<trkpt lat="48.900527" lon="20.023745">
<ele>1498.0</ele>
<desc>Speed 4.4 km/h Distance 9.91 km</desc>
<time>2013-07-23T15:33:32.94</time>
<name>4857</name>
<sym>Dot</sym>
</trkpt>
<trkpt lat="48.900527" lon="20.023710">
<ele>1494.0</ele>
<desc>Speed 2.3 km/h Distance 9.91 km</desc>
<time>2013-07-23T15:34:24.94</time>
<name>4858</name>
<sym>Dot</sym>
</trkpt>
<trkpt lat="48.900527" lon="20.023698">
<ele>1493.0</ele>
<desc>Speed 2.9 km/h Distance 9.91 km</desc>
<time>2013-07-23T15:34:25.94</time>
<name>4859</name>
<sym>Dot</sym>
</trkpt>
<trkpt lat="48.900532" lon="20.023683">
<ele>1493.0</ele>
<desc>Speed 4.6 km/h Distance 9.91 km</desc>
<time>2013-07-23T15:34:26.93</time>
<name>4860</name>
<sym>Dot</sym>
</trkpt>
<trkpt lat="48.900540" lon="20.023667">
<ele>1492.5</ele>
<desc>Speed 5.4 km/h Distance 9.91 km</desc>
<time>2013-07-23T15:34:27.93</time>
<name>4861</name>
<sym>Dot</sym>
</trkpt>
<trkpt lat="48.900532" lon="20.023632">
<ele>1492.0</ele>
<desc>Speed 9.5 km/h Distance 9.92 km</desc>
<time>2013-07-23T15:34:28.93</time>
<name>4862</name>
<sym>Dot</sym>
</trkpt>
<trkpt lat="48.900533" lon="20.023592">
<ele>1491.5</ele>
<desc>Speed 10.2 km/h Distance 9.92 km</desc>
<time>2013-07-23T15:34:30.04</time>
<name>4863</name>
<sym>Dot</sym>
</trkpt>
<trkpt lat="48.900537" lon="20.023538">
<ele>1491.0</ele>
<desc>Speed 13.5 km/h Distance 9.92 km</desc>
<time>2013-07-23T15:34:30.92</time>
<name>4864</name>
<sym>Dot</sym>
</trkpt>
<trkpt lat="48.900538" lon="20.023480">
<ele>1490.0</ele>
<desc>Speed 15.2 km/h Distance 9.93 km</desc>
<time>2013-07-23T15:34:31.92</time>
<name>4865</name>
<sym>Dot</sym>
</trkpt>
<trkpt lat="48.900542" lon="20.023418">
<ele>1489.0</ele>
<desc>Speed 15.8 km/h Distance 9.93 km</desc>
<time>2013-07-23T15:34:32.92</time>
<name>4866</name>
<sym>Dot</sym>
</trkpt>
<trkpt lat="48.900550" lon="20.023357">
<ele>1488.0</ele>
<desc>Speed 15.9 km/h Distance 9.94 km</desc>
<time>2013-07-23T15:34:33.99</time>
<name>4867</name>
<sym>Dot</sym>
</trkpt>
<trkpt lat="48.900558" lon="20.023295">
<ele>1487.5</ele>
<desc>Speed 16.1 km/h Distance 9.94 km</desc>
<time>2013-07-23T15:34:34.91</time>
<name>4868</name>
<sym>Dot</sym>
</trkpt>
<trkpt lat="48.900567" lon="20.023232">
<ele>1486.5</ele>
<desc>Speed 15.4 km/h Distance 9.95 km</desc>
<time>2013-07-23T15:34:35.90</time>
<name>4869</name>
<sym>Dot</sym>
</trkpt>
<trkpt lat="48.900578" lon="20.023173">
<ele>1485.0</ele>
<desc>Speed 14.3 km/h Distance 9.95 km</desc>
<time>2013-07-23T15:34:37.10</time>
<name>4870</name>
<sym>Dot</sym>
</trkpt>
<trkpt lat="48.900588" lon="20.023118">
<ele>1484.0</ele>
<desc>Speed 13.6 km/h Distance 9.95 km</desc>
<time>2013-07-23T15:34:37.89</time>
<name>4871</name>
<sym>Dot</sym>
</trkpt>
<trkpt lat="48.900597" lon="20.023067">
<ele>1483.5</ele>
<desc>Speed 12.9 km/h Distance 9.96 km</desc>
<time>2013-07-23T15:34:38.88</time>
<name>4872</name>
<sym>Dot</sym>
</trkpt>
<trkpt lat="48.900603" lon="20.023025">
<ele>1483.0</ele>
<desc>Speed 10.5 km/h Distance 9.96 km</desc>
<time>2013-07-23T15:34:39.88</time>
<name>4873</name>
<sym>Dot</sym>
</trkpt>
<trkpt lat="48.900610" lon="20.022998">
<ele>1482.5</ele>
<desc>Speed 6.8 km/h Distance 9.96 km</desc>
<time>2013-07-23T15:34:40.87</time>
<name>4874</name>
<sym>Dot</sym>
</trkpt>
<trkpt lat="48.900618" lon="20.022985">
<ele>1482.5</ele>
<desc>Speed 3.9 km/h Distance 9.96 km</desc>
<time>2013-07-23T15:34:41.87</time>
<name>4875</name>
<sym>Dot</sym>
</trkpt>
<trkpt lat="48.900617" lon="20.022975">
<ele>1481.0</ele>
<desc>Speed 2.5 km/h Distance 9.96 km</desc>
<time>2013-07-23T15:34:42.86</time>
<name>4876</name>
<sym>Dot</sym>
</trkpt>
<trkpt lat="48.900627" lon="20.022950">
<ele>1479.5</ele>
<desc>Speed 2.7 km/h Distance 9.97 km</desc>
<time>2013-07-23T15:35:01.86</time>
<name>4877</name>
<sym>Dot</sym>
</trkpt>
<trkpt lat="48.900628" lon="20.022928">
<ele>1479.0</ele>
<desc>Speed 4.4 km/h Distance 9.97 km</desc>
<time>2013-07-23T15:35:02.85</time>
<name>4878</name>
<sym>Dot</sym>
</trkpt>
<trkpt lat="48.900623" lon="20.022898">
<ele>1478.5</ele>
<desc>Speed 5.4 km/h Distance 9.97 km</desc>
<time>2013-07-23T15:35:03.85</time>
<name>4879</name>
<sym>Dot</sym>
</trkpt>
<trkpt lat="48.900612" lon="20.022872">
<ele>1478.0</ele>
<desc>Speed 8.0 km/h Distance 9.97 km</desc>
<time>2013-07-23T15:35:04.84</time>
<name>4880</name>
<sym>Dot</sym>
</trkpt>
<trkpt lat="48.900595" lon="20.022870">
<ele>1477.0</ele>
<desc>Speed 3.6 km/h Distance 9.98 km</desc>
<time>2013-07-23T15:35:19.83</time>
<name>4881</name>
<sym>Dot</sym>
</trkpt>
<trkpt lat="48.900587" lon="20.022850">
<ele>1475.0</ele>
<desc>Speed 2.2 km/h Distance 9.98 km</desc>
<time>2013-07-23T15:35:23.82</time>
<name>4882</name>
<sym>Dot</sym>
</trkpt>
<trkpt lat="48.900583" lon="20.022828">
<ele>1474.5</ele>
<desc>Speed 4.7 km/h Distance 9.98 km</desc>
<time>2013-07-23T15:35:24.82</time>
<name>4883</name>
<sym>Dot</sym>
</trkpt>
<trkpt lat="48.900583" lon="20.022797">
<ele>1474.0</ele>
<desc>Speed 6.7 km/h Distance 9.98 km</desc>
<time>2013-07-23T15:35:25.89</time>
<name>4884</name>
<sym>Dot</sym>
</trkpt>
<trkpt lat="48.900578" lon="20.022765">
<ele>1474.0</ele>
<desc>Speed 7.9 km/h Distance 9.98 km</desc>
<time>2013-07-23T15:35:26.81</time>
<name>4885</name>
<sym>Dot</sym>
</trkpt>
<trkpt lat="48.900590" lon="20.022737">
<ele>1473.5</ele>
<desc>Speed 8.4 km/h Distance 9.99 km</desc>
<time>2013-07-23T15:35:27.80</time>
<name>4886</name>
<sym>Dot</sym>
</trkpt>
<trkpt lat="48.900595" lon="20.022702">
<ele>1473.0</ele>
<desc>Speed 9.1 km/h Distance 9.99 km</desc>
<time>2013-07-23T15:35:28.80</time>
<name>4887</name>
<sym>Dot</sym>
</trkpt>
<trkpt lat="48.900597" lon="20.022662">
<ele>1473.0</ele>
<desc>Speed 10.0 km/h Distance 9.99 km</desc>
<time>2013-07-23T15:35:29.79</time>
<name>4888</name>
<sym>Dot</sym>
</trkpt>
<trkpt lat="48.900583" lon="20.022608">
<ele>1472.5</ele>
<desc>Speed 14.0 km/h Distance 10.00 km</desc>
<time>2013-07-23T15:35:30.79</time>
<name>4889</name>
<sym>Dot</sym>
</trkpt>
<trkpt lat="48.900577" lon="20.022557">
<ele>1472.5</ele>
<desc>Speed 12.6 km/h Distance 10.00 km</desc>
<time>2013-07-23T15:35:31.78</time>
<name>4890</name>
<sym>Dot</sym>
</trkpt>
<trkpt lat="48.900598" lon="20.022528">
<ele>1472.0</ele>
<desc>Speed 9.8 km/h Distance 10.00 km</desc>
<time>2013-07-23T15:35:32.78</time>
<name>4891</name>
<sym>Dot</sym>
</trkpt>
<trkpt lat="48.900623" lon="20.022508">
<ele>1472.0</ele>
<desc>Speed 9.0 km/h Distance 10.01 km</desc>
<time>2013-07-23T15:35:33.77</time>
<name>4892</name>
<sym>Dot</sym>
</trkpt>
<trkpt lat="48.900643" lon="20.022482">
<ele>1472.0</ele>
<desc>Speed 9.1 km/h Distance 10.01 km</desc>
<time>2013-07-23T15:35:34.77</time>
<name>4893</name>
<sym>Dot</sym>
</trkpt>
<trkpt lat="48.900647" lon="20.022442">
<ele>1472.0</ele>
<desc>Speed 10.2 km/h Distance 10.01 km</desc>
<time>2013-07-23T15:35:35.76</time>
<name>4894</name>
<sym>Dot</sym>
</trkpt>
<trkpt lat="48.900660" lon="20.022405">
<ele>1471.5</ele>
<desc>Speed 10.7 km/h Distance 10.01 km</desc>
<time>2013-07-23T15:35:36.75</time>
<name>4895</name>
<sym>Dot</sym>
</trkpt>
<trkpt lat="48.900670" lon="20.022363">
<ele>1471.5</ele>
<desc>Speed 10.8 km/h Distance 10.02 km</desc>
<time>2013-07-23T15:35:37.75</time>
<name>4896</name>
<sym>Dot</sym>
</trkpt>
<trkpt lat="48.900680" lon="20.022325">
<ele>1471.0</ele>
<desc>Speed 10.8 km/h Distance 10.02 km</desc>
<time>2013-07-23T15:35:38.75</time>
<name>4897</name>
<sym>Dot</sym>
</trkpt>
<trkpt lat="48.900673" lon="20.022278">
<ele>1471.0</ele>
<desc>Speed 10.5 km/h Distance 10.02 km</desc>
<time>2013-07-23T15:35:39.75</time>
<name>4898</name>
<sym>Dot</sym>
</trkpt>
<trkpt lat="48.900683" lon="20.022243">
<ele>1471.0</ele>
<desc>Speed 10.1 km/h Distance 10.03 km</desc>
<time>2013-07-23T15:35:40.78</time>
<name>4899</name>
<sym>Dot</sym>
</trkpt>
<trkpt lat="48.900710" lon="20.022222">
<ele>1471.0</ele>
<desc>Speed 8.9 km/h Distance 10.03 km</desc>
<time>2013-07-23T15:35:41.92</time>
<name>4900</name>
<sym>Dot</sym>
</trkpt>
<trkpt lat="48.900727" lon="20.022197">
<ele>1470.5</ele>
<desc>Speed 8.5 km/h Distance 10.03 km</desc>
<time>2013-07-23T15:35:42.75</time>
<name>4901</name>
<sym>Dot</sym>
</trkpt>
<trkpt lat="48.900737" lon="20.022172">
<ele>1470.5</ele>
<desc>Speed 6.8 km/h Distance 10.04 km</desc>
<time>2013-07-23T15:35:43.74</time>
<name>4902</name>
<sym>Dot</sym>
</trkpt>
<trkpt lat="48.900755" lon="20.022155">
<ele>1470.0</ele>
<desc>Speed 6.8 km/h Distance 10.04 km</desc>
<time>2013-07-23T15:35:44.73</time>
<name>4903</name>
<sym>Dot</sym>
</trkpt>
<trkpt lat="48.900775" lon="20.022145">
<ele>1470.0</ele>
<desc>Speed 6.2 km/h Distance 10.04 km</desc>
<time>2013-07-23T15:35:45.73</time>
<name>4904</name>
<sym>Dot</sym>
</trkpt>
<trkpt lat="48.900795" lon="20.022135">
<ele>1470.0</ele>
<desc>Speed 8.1 km/h Distance 10.04 km</desc>
<time>2013-07-23T15:35:46.73</time>
<name>4905</name>
<sym>Dot</sym>
</trkpt>
<trkpt lat="48.900790" lon="20.022115">
<ele>1471.0</ele>
<desc>Speed 6.7 km/h Distance 10.04 km</desc>
<time>2013-07-23T15:35:47.72</time>
<name>4906</name>
<sym>Dot</sym>
</trkpt>
<trkpt lat="48.900820" lon="20.022110">
<ele>1470.5</ele>
<desc>Speed 11.0 km/h Distance 10.05 km</desc>
<time>2013-07-23T15:35:48.71</time>
<name>4907</name>
<sym>Dot</sym>
</trkpt>
<trkpt lat="48.900835" lon="20.022097">
<ele>1470.5</ele>
<desc>Speed 7.1 km/h Distance 10.05 km</desc>
<time>2013-07-23T15:35:49.70</time>
<name>4908</name>
<sym>Dot</sym>
</trkpt>
<trkpt lat="48.900847" lon="20.022090">
<ele>1470.5</ele>
<desc>Speed 4.3 km/h Distance 10.05 km</desc>
<time>2013-07-23T15:35:50.70</time>
<name>4909</name>
<sym>Dot</sym>
</trkpt>
<trkpt lat="48.900862" lon="20.022083">
<ele>1470.0</ele>
<desc>Speed 4.0 km/h Distance 10.05 km</desc>
<time>2013-07-23T15:35:51.70</time>
<name>4910</name>
<sym>Dot</sym>
</trkpt>
<trkpt lat="48.900870" lon="20.022078">
<ele>1470.0</ele>
<desc>Speed 3.3 km/h Distance 10.05 km</desc>
<time>2013-07-23T15:35:52.70</time>
<name>4911</name>
<sym>Dot</sym>
</trkpt>
<trkpt lat="48.900877" lon="20.022070">
<ele>1469.5</ele>
<desc>Speed 3.1 km/h Distance 10.05 km</desc>
<time>2013-07-23T15:35:53.69</time>
<name>4912</name>
<sym>Dot</sym>
</trkpt>
<trkpt lat="48.900915" lon="20.022098">
<ele>1467.0</ele>
<desc>Speed 3.3 km/h Distance 10.06 km</desc>
<time>2013-07-23T15:36:30.69</time>
<name>4913</name>
<sym>Dot</sym>
</trkpt>
<trkpt lat="48.900913" lon="20.022118">
<ele>1466.5</ele>
<desc>Speed 5.4 km/h Distance 10.06 km</desc>
<time>2013-07-23T15:36:31.69</time>
<name>4914</name>
<sym>Dot</sym>
</trkpt>
<trkpt lat="48.900923" lon="20.022152">
<ele>1466.5</ele>
<desc>Speed 9.7 km/h Distance 10.06 km</desc>
<time>2013-07-23T15:36:32.67</time>
<name>4915</name>
<sym>Dot</sym>
</trkpt>
<trkpt lat="48.900938" lon="20.022195">
<ele>1466.5</ele>
<desc>Speed 13.6 km/h Distance 10.07 km</desc>
<time>2013-07-23T15:36:33.66</time>
<name>4916</name>
<sym>Dot</sym>
</trkpt>
<trkpt lat="48.900958" lon="20.022237">
<ele>1467.0</ele>
<desc>Speed 14.1 km/h Distance 10.07 km</desc>
<time>2013-07-23T15:36:34.65</time>
<name>4917</name>
<sym>Dot</sym>
</trkpt>
<trkpt lat="48.900980" lon="20.022262">
<ele>1467.0</ele>
<desc>Speed 11.3 km/h Distance 10.07 km</desc>
<time>2013-07-23T15:36:35.66</time>
<name>4918</name>
<sym>Dot</sym>
</trkpt>
<trkpt lat="48.900992" lon="20.022315">
<ele>1467.0</ele>
<desc>Speed 14.9 km/h Distance 10.08 km</desc>
<time>2013-07-23T15:36:36.66</time>
<name>4919</name>
<sym>Dot</sym>
</trkpt>
<trkpt lat="48.901008" lon="20.022362">
<ele>1467.0</ele>
<desc>Speed 14.0 km/h Distance 10.08 km</desc>
<time>2013-07-23T15:36:37.65</time>
<name>4920</name>
<sym>Dot</sym>
</trkpt>
<trkpt lat="48.901037" lon="20.022412">
<ele>1468.5</ele>
<desc>Speed 18.3 km/h Distance 10.09 km</desc>
<time>2013-07-23T15:36:38.65</time>
<name>4921</name>
<sym>Dot</sym>
</trkpt>
<trkpt lat="48.901052" lon="20.022472">
<ele>1468.0</ele>
<desc>Speed 16.6 km/h Distance 10.09 km</desc>
<time>2013-07-23T15:36:39.63</time>
<name>4922</name>
<sym>Dot</sym>
</trkpt>
<trkpt lat="48.901065" lon="20.022517">
<ele>1468.0</ele>
<desc>Speed 13.5 km/h Distance 10.09 km</desc>
<time>2013-07-23T15:36:40.63</time>
<name>4923</name>
<sym>Dot</sym>
</trkpt>
<trkpt lat="48.901075" lon="20.022572">
<ele>1468.0</ele>
<desc>Speed 14.3 km/h Distance 10.10 km</desc>
<time>2013-07-23T15:36:41.62</time>
<name>4924</name>
<sym>Dot</sym>
</trkpt>
<trkpt lat="48.901083" lon="20.022615">
<ele>1467.0</ele>
<desc>Speed 11.7 km/h Distance 10.10 km</desc>
<time>2013-07-23T15:36:42.62</time>
<name>4925</name>
<sym>Dot</sym>
</trkpt>
<trkpt lat="48.901095" lon="20.022663">
<ele>1466.5</ele>
<desc>Speed 12.9 km/h Distance 10.11 km</desc>
<time>2013-07-23T15:36:44.68</time>
<name>4926</name>
<sym>Dot</sym>
</trkpt>
<trkpt lat="48.901150" lon="20.022747">
<ele>1468.0</ele>
<desc>Speed 13.5 km/h Distance 10.11 km</desc>
<time>2013-07-23T15:36:45.62</time>
<name>4927</name>
<sym>Dot</sym>
</trkpt>
<trkpt lat="48.901183" lon="20.022800">
<ele>1470.0</ele>
<desc>Speed 19.4 km/h Distance 10.12 km</desc>
<time>2013-07-23T15:36:46.61</time>
<name>4928</name>
<sym>Dot</sym>
</trkpt>
<trkpt lat="48.901215" lon="20.022832">
<ele>1470.5</ele>
<desc>Speed 16.2 km/h Distance 10.12 km</desc>
<time>2013-07-23T15:36:47.60</time>
<name>4929</name>
<sym>Dot</sym>
</trkpt>
<trkpt lat="48.901233" lon="20.022857">
<ele>1469.5</ele>
<desc>Speed 10.7 km/h Distance 10.13 km</desc>
<time>2013-07-23T15:36:48.60</time>
<name>4930</name>
<sym>Dot</sym>
</trkpt>
<trkpt lat="48.901250" lon="20.022877">
<ele>1468.5</ele>
<desc>Speed 9.5 km/h Distance 10.13 km</desc>
<time>2013-07-23T15:36:49.58</time>
<name>4931</name>
<sym>Dot</sym>
</trkpt>
<trkpt lat="48.901270" lon="20.022898">
<ele>1468.0</ele>
<desc>Speed 11.3 km/h Distance 10.13 km</desc>
<time>2013-07-23T15:36:50.58</time>
<name>4932</name>
<sym>Dot</sym>
</trkpt>
<trkpt lat="48.901300" lon="20.022920">
<ele>1469.0</ele>
<desc>Speed 14.3 km/h Distance 10.14 km</desc>
<time>2013-07-23T15:36:51.57</time>
<name>4933</name>
<sym>Dot</sym>
</trkpt>
<trkpt lat="48.901323" lon="20.022943">
<ele>1468.5</ele>
<desc>Speed 11.6 km/h Distance 10.14 km</desc>
<time>2013-07-23T15:36:52.57</time>
<name>4934</name>
<sym>Dot</sym>
</trkpt>
<trkpt lat="48.901352" lon="20.022968">
<ele>1469.0</ele>
<desc>Speed 13.4 km/h Distance 10.14 km</desc>
<time>2013-07-23T15:36:53.57</time>
<name>4935</name>
<sym>Dot</sym>
</trkpt>
<trkpt lat="48.901375" lon="20.022995">
<ele>1468.5</ele>
<desc>Speed 11.9 km/h Distance 10.15 km</desc>
<time>2013-07-23T15:36:54.56</time>
<name>4936</name>
<sym>Dot</sym>
</trkpt>
<trkpt lat="48.901403" lon="20.023012">
<ele>1469.0</ele>
<desc>Speed 12.5 km/h Distance 10.15 km</desc>
<time>2013-07-23T15:36:55.56</time>
<name>4937</name>
<sym>Dot</sym>
</trkpt>
<trkpt lat="48.901432" lon="20.023028">
<ele>1469.0</ele>
<desc>Speed 12.3 km/h Distance 10.15 km</desc>
<time>2013-07-23T15:36:56.55</time>
<name>4938</name>
<sym>Dot</sym>
</trkpt>
<trkpt lat="48.901455" lon="20.023053">
<ele>1469.0</ele>
<desc>Speed 12.2 km/h Distance 10.16 km</desc>
<time>2013-07-23T15:36:57.55</time>
<name>4939</name>
<sym>Dot</sym>
</trkpt>
<trkpt lat="48.901472" lon="20.023077">
<ele>1468.5</ele>
<desc>Speed 9.5 km/h Distance 10.16 km</desc>
<time>2013-07-23T15:36:58.54</time>
<name>4940</name>
<sym>Dot</sym>
</trkpt>
<trkpt lat="48.901488" lon="20.023102">
<ele>1468.5</ele>
<desc>Speed 10.3 km/h Distance 10.16 km</desc>
<time>2013-07-23T15:36:59.54</time>
<name>4941</name>
<sym>Dot</sym>
</trkpt>
<trkpt lat="48.901500" lon="20.023133">
<ele>1468.5</ele>
<desc>Speed 9.1 km/h Distance 10.16 km</desc>
<time>2013-07-23T15:37:00.53</time>
<name>4942</name>
<sym>Dot</sym>
</trkpt>
<trkpt lat="48.901507" lon="20.023158">
<ele>1468.0</ele>
<desc>Speed 7.1 km/h Distance 10.17 km</desc>
<time>2013-07-23T15:37:01.53</time>
<name>4943</name>
<sym>Dot</sym>
</trkpt>
<trkpt lat="48.901508" lon="20.023175">
<ele>1468.0</ele>
<desc>Speed 4.5 km/h Distance 10.17 km</desc>
<time>2013-07-23T15:37:02.53</time>
<name>4944</name>
<sym>Dot</sym>
</trkpt>
<trkpt lat="48.901495" lon="20.023168">
<ele>1467.5</ele>
<desc>Speed 4.6 km/h Distance 10.17 km</desc>
<time>2013-07-23T15:37:04.52</time>
<name>4945</name>
<sym>Dot</sym>
</trkpt>
<trkpt lat="48.901512" lon="20.023187">
<ele>1462.0</ele>
<desc>Speed 4.3 km/h Distance 10.17 km</desc>
<time>2013-07-23T15:37:19.51</time>
<name>4946</name>
<sym>Dot</sym>
</trkpt>
<trkpt lat="48.901478" lon="20.023177">
<ele>1461.5</ele>
<desc>Speed 2.7 km/h Distance 10.17 km</desc>
<time>2013-07-23T15:37:22.62</time>
<name>4947</name>
<sym>Dot</sym>
</trkpt>
<trkpt lat="48.901460" lon="20.023163">
<ele>1461.5</ele>
<desc>Speed 7.7 km/h Distance 10.18 km</desc>
<time>2013-07-23T15:37:23.50</time>
<name>4948</name>
<sym>Dot</sym>
</trkpt>
<trkpt lat="48.901470" lon="20.023162">
<ele>1461.5</ele>
<desc>Speed 3.7 km/h Distance 10.18 km</desc>
<time>2013-07-23T15:37:24.50</time>
<name>4949</name>
<sym>Dot</sym>
</trkpt>
<trkpt lat="48.901407" lon="20.023135">
<ele>1462.0</ele>
<desc>Speed 4.1 km/h Distance 10.18 km</desc>
<time>2013-07-23T15:37:28.50</time>
<name>4950</name>
<sym>Dot</sym>
</trkpt>
<trkpt lat="48.901400" lon="20.023120">
<ele>1462.5</ele>
<desc>Speed 4.1 km/h Distance 10.19 km</desc>
<time>2013-07-23T15:37:29.49</time>
<name>4951</name>
<sym>Dot</sym>
</trkpt>
<trkpt lat="48.901350" lon="20.023153">
<ele>1464.5</ele>
<desc>Speed 4.1 km/h Distance 10.19 km</desc>
<time>2013-07-23T15:37:38.49</time>
<name>4952</name>
<sym>Dot</sym>
</trkpt>
<trkpt lat="48.901347" lon="20.023153">
<ele>1465.0</ele>
<desc>Speed 4.1 km/h Distance 10.19 km</desc>
<time>2013-07-23T15:37:39.49</time>
<name>4953</name>
<sym>Dot</sym>
</trkpt>
<trkpt lat="48.901345" lon="20.023152">
<ele>1465.0</ele>
<desc>Speed 4.1 km/h Distance 10.19 km</desc>
<time>2013-07-23T15:37:40.48</time>
<name>4954</name>
<sym>Dot</sym>
</trkpt>
<trkpt lat="48.901338" lon="20.023147">
<ele>1465.0</ele>
<desc>Speed 4.1 km/h Distance 10.19 km</desc>
<time>2013-07-23T15:37:41.47</time>
<name>4955</name>
<sym>Dot</sym>
</trkpt>
<trkpt lat="48.901335" lon="20.023140">
<ele>1465.0</ele>
<desc>Speed 4.1 km/h Distance 10.19 km</desc>
<time>2013-07-23T15:37:42.47</time>
<name>4956</name>
<sym>Dot</sym>
</trkpt>
<trkpt lat="48.901332" lon="20.023135">
<ele>1465.5</ele>
<desc>Speed 4.1 km/h Distance 10.19 km</desc>
<time>2013-07-23T15:37:43.46</time>
<name>4957</name>
<sym>Dot</sym>
</trkpt>
<trkpt lat="48.901330" lon="20.023130">
<ele>1465.5</ele>
<desc>Speed 4.1 km/h Distance 10.20 km</desc>
<time>2013-07-23T15:37:44.46</time>
<name>4958</name>
<sym>Dot</sym>
</trkpt>
<trkpt lat="48.901328" lon="20.023127">
<ele>1465.5</ele>
<desc>Speed 4.1 km/h Distance 10.20 km</desc>
<time>2013-07-23T15:37:45.45</time>
<name>4959</name>
<sym>Dot</sym>
</trkpt>
<trkpt lat="48.901248" lon="20.023117">
<ele>1465.5</ele>
<desc>Speed 8.9 km/h Distance 10.20 km</desc>
<time>2013-07-23T15:37:47.45</time>
<name>4960</name>
<sym>Dot</sym>
</trkpt>
<trkpt lat="48.901238" lon="20.023120">
<ele>1465.5</ele>
<desc>Speed 8.9 km/h Distance 10.21 km</desc>
<time>2013-07-23T15:37:48.45</time>
<name>4961</name>
<sym>Dot</sym>
</trkpt>
<trkpt lat="48.901230" lon="20.023120">
<ele>1466.0</ele>
<desc>Speed 8.9 km/h Distance 10.21 km</desc>
<time>2013-07-23T15:37:49.44</time>
<name>4962</name>
<sym>Dot</sym>
</trkpt>
<trkpt lat="48.901228" lon="20.023128">
<ele>1466.0</ele>
<desc>Speed 8.9 km/h Distance 10.21 km</desc>
<time>2013-07-23T15:37:51.47</time>
<name>4963</name>
<sym>Dot</sym>
</trkpt>
<trkpt lat="48.901237" lon="20.023130">
<ele>1466.0</ele>
<desc>Speed 8.9 km/h Distance 10.21 km</desc>
<time>2013-07-23T15:37:53.43</time>
<name>4964</name>
<sym>Dot</sym>
</trkpt>
<trkpt lat="48.901242" lon="20.023132">
<ele>1466.0</ele>
<desc>Speed 8.9 km/h Distance 10.21 km</desc>
<time>2013-07-23T15:37:54.42</time>
<name>4965</name>
<sym>Dot</sym>
</trkpt>
<trkpt lat="48.901255" lon="20.023137">
<ele>1466.0</ele>
<desc>Speed 8.9 km/h Distance 10.21 km</desc>
<time>2013-07-23T15:37:55.42</time>
<name>4966</name>
<sym>Dot</sym>
</trkpt>
<trkpt lat="48.901278" lon="20.023135">
<ele>1466.0</ele>
<desc>Speed 8.9 km/h Distance 10.21 km</desc>
<time>2013-07-23T15:37:56.41</time>
<name>4967</name>
<sym>Dot</sym>
</trkpt>
<trkpt lat="48.901357" lon="20.023160">
<ele>1466.0</ele>
<desc>Speed 4.2 km/h Distance 10.22 km</desc>
<time>2013-07-23T15:38:02.41</time>
<name>4968</name>
<sym>Dot</sym>
</trkpt>
<trkpt lat="48.901372" lon="20.023175">
<ele>1465.5</ele>
<desc>Speed 4.0 km/h Distance 10.22 km</desc>
<time>2013-07-23T15:38:03.40</time>
<name>4969</name>
<sym>Dot</sym>
</trkpt>
<trkpt lat="48.901405" lon="20.023248">
<ele>1465.5</ele>
<desc>Speed 2.3 km/h Distance 10.23 km</desc>
<time>2013-07-23T15:38:07.40</time>
<name>4970</name>
<sym>Dot</sym>
</trkpt>
<trkpt lat="48.901422" lon="20.023238">
<ele>1465.0</ele>
<desc>Speed 3.6 km/h Distance 10.23 km</desc>
<time>2013-07-23T15:38:09.40</time>
<name>4971</name>
<sym>Dot</sym>
</trkpt>
<trkpt lat="48.901443" lon="20.023237">
<ele>1464.5</ele>
<desc>Speed 5.7 km/h Distance 10.23 km</desc>
<time>2013-07-23T15:38:10.40</time>
<name>4972</name>
<sym>Dot</sym>
</trkpt>
<trkpt lat="48.901460" lon="20.023238">
<ele>1464.5</ele>
<desc>Speed 5.0 km/h Distance 10.24 km</desc>
<time>2013-07-23T15:38:11.39</time>
<name>4973</name>
<sym>Dot</sym>
</trkpt>
<trkpt lat="48.901468" lon="20.023203">
<ele>1464.0</ele>
<desc>Speed 5.4 km/h Distance 10.24 km</desc>
<time>2013-07-23T15:38:13.38</time>
<name>4974</name>
<sym>Dot</sym>
</trkpt>
<trkpt lat="48.901472" lon="20.023195">
<ele>1464.0</ele>
<desc>Speed 3.0 km/h Distance 10.24 km</desc>
<time>2013-07-23T15:38:14.38</time>
<name>4975</name>
<sym>Dot</sym>
</trkpt>
<trkpt lat="48.901453" lon="20.023178">
<ele>1464.0</ele>
<desc>Speed 8.9 km/h Distance 10.24 km</desc>
<time>2013-07-23T15:38:16.37</time>
<name>4976</name>
<sym>Dot</sym>
</trkpt>
<trkpt lat="48.901470" lon="20.023155">
<ele>1464.0</ele>
<desc>Speed 3.7 km/h Distance 10.24 km</desc>
<time>2013-07-23T15:38:21.38</time>
<name>4977</name>
<sym>Dot</sym>
</trkpt>
<trkpt lat="48.901472" lon="20.023145">
<ele>1464.0</ele>
<desc>Speed 2.8 km/h Distance 10.25 km</desc>
<time>2013-07-23T15:38:22.37</time>
<name>4978</name>
<sym>Dot</sym>
</trkpt>
<trkpt lat="48.901475" lon="20.023132">
<ele>1464.0</ele>
<desc>Speed 3.9 km/h Distance 10.25 km</desc>
<time>2013-07-23T15:38:23.36</time>
<name>4979</name>
<sym>Dot</sym>
</trkpt>
<trkpt lat="48.901485" lon="20.023118">
<ele>1464.5</ele>
<desc>Speed 3.3 km/h Distance 10.25 km</desc>
<time>2013-07-23T15:38:24.36</time>
<name>4980</name>
<sym>Dot</sym>
</trkpt>
<trkpt lat="48.901493" lon="20.023107">
<ele>1464.0</ele>
<desc>Speed 3.0 km/h Distance 10.25 km</desc>
<time>2013-07-23T15:38:25.36</time>
<name>4981</name>
<sym>Dot</sym>
</trkpt>
<trkpt lat="48.901500" lon="20.023098">
<ele>1464.0</ele>
<desc>Speed 3.0 km/h Distance 10.25 km</desc>
<time>2013-07-23T15:38:26.36</time>
<name>4982</name>
<sym>Dot</sym>
</trkpt>
<trkpt lat="48.901505" lon="20.023088">
<ele>1463.5</ele>
<desc>Speed 3.7 km/h Distance 10.25 km</desc>
<time>2013-07-23T15:38:27.36</time>
<name>4983</name>
<sym>Dot</sym>
</trkpt>
<trkpt lat="48.901513" lon="20.023077">
<ele>1463.0</ele>
<desc>Speed 4.1 km/h Distance 10.25 km</desc>
<time>2013-07-23T15:38:28.35</time>
<name>4984</name>
<sym>Dot</sym>
</trkpt>
<trkpt lat="48.901508" lon="20.023067">
<ele>1462.5</ele>
<desc>Speed 4.0 km/h Distance 10.25 km</desc>
<time>2013-07-23T15:38:29.35</time>
<name>4985</name>
<sym>Dot</sym>
</trkpt>
<trkpt lat="48.901503" lon="20.023063">
<ele>1462.0</ele>
<desc>Speed 3.0 km/h Distance 10.25 km</desc>
<time>2013-07-23T15:38:30.34</time>
<name>4986</name>
<sym>Dot</sym>
</trkpt>
<trkpt lat="48.901517" lon="20.023023">
<ele>1460.5</ele>
<desc>Speed 4.1 km/h Distance 10.26 km</desc>
<time>2013-07-23T15:38:40.34</time>
<name>4987</name>
<sym>Dot</sym>
</trkpt>
<trkpt lat="48.901520" lon="20.023023">
<ele>1460.5</ele>
<desc>Speed 2.5 km/h Distance 10.26 km</desc>
<time>2013-07-23T15:38:42.33</time>
<name>4988</name>
<sym>Dot</sym>
</trkpt>
<trkpt lat="48.901477" lon="20.023043">
<ele>1458.0</ele>
<desc>Speed 5.7 km/h Distance 10.26 km</desc>
<time>2013-07-23T15:38:52.32</time>
<name>4989</name>
<sym>Dot</sym>
</trkpt>
<trkpt lat="48.901492" lon="20.023047">
<ele>1458.0</ele>
<desc>Speed 2.5 km/h Distance 10.26 km</desc>
<time>2013-07-23T15:38:57.33</time>
<name>4990</name>
<sym>Dot</sym>
</trkpt>
<trkpt lat="48.901492" lon="20.023065">
<ele>1458.0</ele>
<desc>Speed 2.6 km/h Distance 10.27 km</desc>
<time>2013-07-23T15:39:00.32</time>
<name>4991</name>
<sym>Dot</sym>
</trkpt>
<trkpt lat="48.901492" lon="20.023085">
<ele>1458.0</ele>
<desc>Speed 3.2 km/h Distance 10.27 km</desc>
<time>2013-07-23T15:39:02.32</time>
<name>4992</name>
<sym>Dot</sym>
</trkpt>
<trkpt lat="48.901492" lon="20.023097">
<ele>1458.5</ele>
<desc>Speed 3.0 km/h Distance 10.27 km</desc>
<time>2013-07-23T15:39:03.32</time>
<name>4993</name>
<sym>Dot</sym>
</trkpt>
<trkpt lat="48.901488" lon="20.023110">
<ele>1458.0</ele>
<desc>Speed 4.2 km/h Distance 10.27 km</desc>
<time>2013-07-23T15:39:04.32</time>
<name>4994</name>
<sym>Dot</sym>
</trkpt>
<trkpt lat="48.901502" lon="20.023105">
<ele>1459.5</ele>
<desc>Speed 4.5 km/h Distance 10.27 km</desc>
<time>2013-07-23T15:39:05.32</time>
<name>4995</name>
<sym>Dot</sym>
</trkpt>
<trkpt lat="48.901508" lon="20.023123">
<ele>1459.0</ele>
<desc>Speed 2.3 km/h Distance 10.27 km</desc>
<time>2013-07-23T15:39:14.31</time>
<name>4996</name>
<sym>Dot</sym>
</trkpt>
<trkpt lat="48.901505" lon="20.023140">
<ele>1459.5</ele>
<desc>Speed 2.4 km/h Distance 10.27 km</desc>
<time>2013-07-23T15:39:16.32</time>
<name>4997</name>
<sym>Dot</sym>
</trkpt>
<trkpt lat="48.901505" lon="20.023152">
<ele>1460.0</ele>
<desc>Speed 3.3 km/h Distance 10.27 km</desc>
<time>2013-07-23T15:39:18.21</time>
<name>4998</name>
<sym>Dot</sym>
</trkpt>
<trkpt lat="48.901503" lon="20.023180">
<ele>1460.0</ele>
<desc>Speed 4.2 km/h Distance 10.28 km</desc>
<time>2013-07-23T15:39:19.31</time>
<name>4999</name>
<sym>Dot</sym>
</trkpt>
<trkpt lat="48.901503" lon="20.023193">
<ele>1460.0</ele>
<desc>Speed 3.2 km/h Distance 10.28 km</desc>
<time>2013-07-23T15:39:20.30</time>
<name>5000</name>
<sym>Dot</sym>
</trkpt>
<trkpt lat="48.901503" lon="20.023223">
<ele>1461.5</ele>
<desc>Speed 8.8 km/h Distance 10.28 km</desc>
<time>2013-07-23T15:39:21.30</time>
<name>5001</name>
<sym>Dot</sym>
</trkpt>
<trkpt lat="48.901508" lon="20.023215">
<ele>1460.5</ele>
<desc>Speed 3.6 km/h Distance 10.28 km</desc>
<time>2013-07-23T15:39:23.42</time>
<name>5002</name>
<sym>Dot</sym>
</trkpt>
<trkpt lat="48.901478" lon="20.023207">
<ele>1459.5</ele>
<desc>Speed 3.0 km/h Distance 10.28 km</desc>
<time>2013-07-23T15:39:25.29</time>
<name>5003</name>
<sym>Dot</sym>
</trkpt>
<trkpt lat="48.901467" lon="20.023212">
<ele>1459.0</ele>
<desc>Speed 4.7 km/h Distance 10.29 km</desc>
<time>2013-07-23T15:39:30.29</time>
<name>5004</name>
<sym>Dot</sym>
</trkpt>
<trkpt lat="48.901460" lon="20.023203">
<ele>1459.0</ele>
<desc>Speed 2.9 km/h Distance 10.29 km</desc>
<time>2013-07-23T15:39:31.29</time>
<name>5005</name>
<sym>Dot</sym>
</trkpt>
<trkpt lat="48.901415" lon="20.023182">
<ele>1459.5</ele>
<desc>Speed 3.0 km/h Distance 10.29 km</desc>
<time>2013-07-23T15:39:42.28</time>
<name>5006</name>
<sym>Dot</sym>
</trkpt>
<trkpt lat="48.901405" lon="20.023182">
<ele>1460.0</ele>
<desc>Speed 4.0 km/h Distance 10.29 km</desc>
<time>2013-07-23T15:39:43.27</time>
<name>5007</name>
<sym>Dot</sym>
</trkpt>
<trkpt lat="48.901423" lon="20.023222">
<ele>1462.0</ele>
<desc>Speed 2.3 km/h Distance 10.30 km</desc>
<time>2013-07-23T15:39:51.45</time>
<name>5008</name>
<sym>Dot</sym>
</trkpt>
<trkpt lat="48.901435" lon="20.023235">
<ele>1462.5</ele>
<desc>Speed 2.7 km/h Distance 10.30 km</desc>
<time>2013-07-23T15:39:52.26</time>
<name>5009</name>
<sym>Dot</sym>
</trkpt>
<trkpt lat="48.901457" lon="20.023242">
<ele>1463.0</ele>
<desc>Speed 3.3 km/h Distance 10.30 km</desc>
<time>2013-07-23T15:39:57.26</time>
<name>5010</name>
<sym>Dot</sym>
</trkpt>
<trkpt lat="48.901447" lon="20.023243">
<ele>1463.0</ele>
<desc>Speed 3.4 km/h Distance 10.30 km</desc>
<time>2013-07-23T15:39:58.26</time>
<name>5011</name>
<sym>Dot</sym>
</trkpt>
<trkpt lat="48.901437" lon="20.023238">
<ele>1463.0</ele>
<desc>Speed 4.6 km/h Distance 10.30 km</desc>
<time>2013-07-23T15:39:59.25</time>
<name>5012</name>
<sym>Dot</sym>
</trkpt>
<trkpt lat="48.901460" lon="20.023238">
<ele>1462.0</ele>
<desc>Speed 2.6 km/h Distance 10.31 km</desc>
<time>2013-07-23T15:40:00.25</time>
<name>5013</name>
<sym>Dot</sym>
</trkpt>
<trkpt lat="48.901465" lon="20.023213">
<ele>1463.0</ele>
<desc>Speed 5.6 km/h Distance 10.31 km</desc>
<time>2013-07-23T15:40:33.25</time>
<name>5014</name>
<sym>Dot</sym>
</trkpt>
<trkpt lat="48.901452" lon="20.023197">
<ele>1462.5</ele>
<desc>Speed 5.9 km/h Distance 10.31 km</desc>
<time>2013-07-23T15:40:51.24</time>
<name>5015</name>
<sym>Dot</sym>
</trkpt>
<trkpt lat="48.901460" lon="20.023175">
<ele>1462.0</ele>
<desc>Speed 6.6 km/h Distance 10.31 km</desc>
<time>2013-07-23T15:40:59.23</time>
<name>5016</name>
<sym>Dot</sym>
</trkpt>
<trkpt lat="48.901448" lon="20.023190">
<ele>1460.5</ele>
<desc>Speed 2.8 km/h Distance 10.31 km</desc>
<time>2013-07-23T15:41:07.22</time>
<name>5017</name>
<sym>Dot</sym>
</trkpt>
<trkpt lat="48.901443" lon="20.023185">
<ele>1460.5</ele>
<desc>Speed 4.3 km/h Distance 10.31 km</desc>
<time>2013-07-23T15:41:08.22</time>
<name>5018</name>
<sym>Dot</sym>
</trkpt>
<trkpt lat="48.901438" lon="20.023173">
<ele>1460.5</ele>
<desc>Speed 3.9 km/h Distance 10.31 km</desc>
<time>2013-07-23T15:41:09.21</time>
<name>5019</name>
<sym>Dot</sym>
</trkpt>
<trkpt lat="48.901430" lon="20.023163">
<ele>1461.0</ele>
<desc>Speed 4.6 km/h Distance 10.32 km</desc>
<time>2013-07-23T15:41:10.22</time>
<name>5020</name>
<sym>Dot</sym>
</trkpt>
<trkpt lat="48.901425" lon="20.023147">
<ele>1460.0</ele>
<desc>Speed 6.2 km/h Distance 10.32 km</desc>
<time>2013-07-23T15:41:11.19</time>
<name>5021</name>
<sym>Dot</sym>
</trkpt>
<trkpt lat="48.901413" lon="20.023133">
<ele>1459.5</ele>
<desc>Speed 6.5 km/h Distance 10.32 km</desc>
<time>2013-07-23T15:41:12.19</time>
<name>5022</name>
<sym>Dot</sym>
</trkpt>
<trkpt lat="48.901403" lon="20.023125">
<ele>1459.5</ele>
<desc>Speed 4.9 km/h Distance 10.32 km</desc>
<time>2013-07-23T15:41:13.18</time>
<name>5023</name>
<sym>Dot</sym>
</trkpt>
<trkpt lat="48.901400" lon="20.023117">
<ele>1459.5</ele>
<desc>Speed 3.4 km/h Distance 10.32 km</desc>
<time>2013-07-23T15:41:14.18</time>
<name>5024</name>
<sym>Dot</sym>
</trkpt>
<trkpt lat="48.901393" lon="20.023108">
<ele>1459.5</ele>
<desc>Speed 3.9 km/h Distance 10.32 km</desc>
<time>2013-07-23T15:41:15.18</time>
<name>5025</name>
<sym>Dot</sym>
</trkpt>
<trkpt lat="48.901387" lon="20.023098">
<ele>1459.5</ele>
<desc>Speed 3.8 km/h Distance 10.32 km</desc>
<time>2013-07-23T15:41:16.17</time>
<name>5026</name>
<sym>Dot</sym>
</trkpt>
<trkpt lat="48.901383" lon="20.023090">
<ele>1460.0</ele>
<desc>Speed 3.8 km/h Distance 10.32 km</desc>
<time>2013-07-23T15:41:17.17</time>
<name>5027</name>
<sym>Dot</sym>
</trkpt>
<trkpt lat="48.901377" lon="20.023080">
<ele>1460.0</ele>
<desc>Speed 4.5 km/h Distance 10.32 km</desc>
<time>2013-07-23T15:41:18.17</time>
<name>5028</name>
<sym>Dot</sym>
</trkpt>
<trkpt lat="48.901370" lon="20.023072">
<ele>1460.0</ele>
<desc>Speed 3.9 km/h Distance 10.32 km</desc>
<time>2013-07-23T15:41:19.17</time>
<name>5029</name>
<sym>Dot</sym>
</trkpt>
<trkpt lat="48.901363" lon="20.023063">
<ele>1460.5</ele>
<desc>Speed 3.3 km/h Distance 10.33 km</desc>
<time>2013-07-23T15:41:20.16</time>
<name>5030</name>
<sym>Dot</sym>
</trkpt>
<trkpt lat="48.901357" lon="20.023058">
<ele>1460.5</ele>
<desc>Speed 3.3 km/h Distance 10.33 km</desc>
<time>2013-07-23T15:41:21.16</time>
<name>5031</name>
<sym>Dot</sym>
</trkpt>
<trkpt lat="48.901347" lon="20.023052">
<ele>1460.5</ele>
<desc>Speed 4.4 km/h Distance 10.33 km</desc>
<time>2013-07-23T15:41:22.15</time>
<name>5032</name>
<sym>Dot</sym>
</trkpt>
<trkpt lat="48.901335" lon="20.023043">
<ele>1460.5</ele>
<desc>Speed 4.6 km/h Distance 10.33 km</desc>
<time>2013-07-23T15:41:23.15</time>
<name>5033</name>
<sym>Dot</sym>
</trkpt>
<trkpt lat="48.901317" lon="20.023037">
<ele>1460.0</ele>
<desc>Speed 7.2 km/h Distance 10.33 km</desc>
<time>2013-07-23T15:41:24.14</time>
<name>5034</name>
<sym>Dot</sym>
</trkpt>
<trkpt lat="48.901308" lon="20.023028">
<ele>1460.5</ele>
<desc>Speed 4.6 km/h Distance 10.33 km</desc>
<time>2013-07-23T15:41:25.14</time>
<name>5035</name>
<sym>Dot</sym>
</trkpt>
<trkpt lat="48.901303" lon="20.023023">
<ele>1461.0</ele>
<desc>Speed 3.0 km/h Distance 10.33 km</desc>
<time>2013-07-23T15:41:26.13</time>
<name>5036</name>
<sym>Dot</sym>
</trkpt>
<trkpt lat="48.901298" lon="20.023020">
<ele>1461.5</ele>
<desc>Speed 3.3 km/h Distance 10.33 km</desc>
<time>2013-07-23T15:41:27.13</time>
<name>5037</name>
<sym>Dot</sym>
</trkpt>
<trkpt lat="48.901282" lon="20.023015">
<ele>1461.0</ele>
<desc>Speed 7.2 km/h Distance 10.34 km</desc>
<time>2013-07-23T15:41:28.13</time>
<name>5038</name>
<sym>Dot</sym>
</trkpt>
<trkpt lat="48.901272" lon="20.023007">
<ele>1461.0</ele>
<desc>Speed 4.9 km/h Distance 10.34 km</desc>
<time>2013-07-23T15:41:29.13</time>
<name>5039</name>
<sym>Dot</sym>
</trkpt>
<trkpt lat="48.901268" lon="20.022998">
<ele>1461.5</ele>
<desc>Speed 3.1 km/h Distance 10.34 km</desc>
<time>2013-07-23T15:41:30.13</time>
<name>5040</name>
<sym>Dot</sym>
</trkpt>
<trkpt lat="48.901273" lon="20.022985">
<ele>1462.0</ele>
<desc>Speed 3.1 km/h Distance 10.34 km</desc>
<time>2013-07-23T15:41:31.12</time>
<name>5041</name>
<sym>Dot</sym>
</trkpt>
<trkpt lat="48.901262" lon="20.022978">
<ele>1461.5</ele>
<desc>Speed 5.6 km/h Distance 10.34 km</desc>
<time>2013-07-23T15:41:32.12</time>
<name>5042</name>
<sym>Dot</sym>
</trkpt>
<trkpt lat="48.901255" lon="20.022968">
<ele>1461.5</ele>
<desc>Speed 4.0 km/h Distance 10.34 km</desc>
<time>2013-07-23T15:41:33.12</time>
<name>5043</name>
<sym>Dot</sym>
</trkpt>
<trkpt lat="48.901243" lon="20.022962">
<ele>1461.5</ele>
<desc>Speed 4.8 km/h Distance 10.34 km</desc>
<time>2013-07-23T15:41:34.11</time>
<name>5044</name>
<sym>Dot</sym>
</trkpt>
<trkpt lat="48.901252" lon="20.022950">
<ele>1462.5</ele>
<desc>Speed 3.2 km/h Distance 10.34 km</desc>
<time>2013-07-23T15:41:35.24</time>
<name>5045</name>
<sym>Dot</sym>
</trkpt>
<trkpt lat="48.901242" lon="20.022948">
<ele>1462.5</ele>
<desc>Speed 4.2 km/h Distance 10.35 km</desc>
<time>2013-07-23T15:41:36.09</time>
<name>5046</name>
<sym>Dot</sym>
</trkpt>
<trkpt lat="48.901233" lon="20.022947">
<ele>1462.0</ele>
<desc>Speed 3.6 km/h Distance 10.35 km</desc>
<time>2013-07-23T15:41:37.09</time>
<name>5047</name>
<sym>Dot</sym>
</trkpt>
<trkpt lat="48.901215" lon="20.022942">
<ele>1463.5</ele>
<desc>Speed 2.2 km/h Distance 10.35 km</desc>
<time>2013-07-23T15:42:13.08</time>
<name>5048</name>
<sym>Dot</sym>
</trkpt>
<trkpt lat="48.901208" lon="20.022933">
<ele>1463.5</ele>
<desc>Speed 3.2 km/h Distance 10.35 km</desc>
<time>2013-07-23T15:42:14.08</time>
<name>5049</name>
<sym>Dot</sym>
</trkpt>
<trkpt lat="48.901200" lon="20.022925">
<ele>1463.5</ele>
<desc>Speed 3.8 km/h Distance 10.35 km</desc>
<time>2013-07-23T15:42:15.15</time>
<name>5050</name>
<sym>Dot</sym>
</trkpt>
<trkpt lat="48.901192" lon="20.022917">
<ele>1463.5</ele>
<desc>Speed 4.1 km/h Distance 10.35 km</desc>
<time>2013-07-23T15:42:16.06</time>
<name>5051</name>
<sym>Dot</sym>
</trkpt>
<trkpt lat="48.901180" lon="20.022908">
<ele>1463.0</ele>
<desc>Speed 4.7 km/h Distance 10.35 km</desc>
<time>2013-07-23T15:42:17.06</time>
<name>5052</name>
<sym>Dot</sym>
</trkpt>
<trkpt lat="48.901170" lon="20.022902">
<ele>1463.0</ele>
<desc>Speed 4.0 km/h Distance 10.35 km</desc>
<time>2013-07-23T15:42:18.06</time>
<name>5053</name>
<sym>Dot</sym>
</trkpt>
<trkpt lat="48.901160" lon="20.022893">
<ele>1463.0</ele>
<desc>Speed 4.1 km/h Distance 10.36 km</desc>
<time>2013-07-23T15:42:19.06</time>
<name>5054</name>
<sym>Dot</sym>
</trkpt>
<trkpt lat="48.901152" lon="20.022882">
<ele>1462.5</ele>
<desc>Speed 4.1 km/h Distance 10.36 km</desc>
<time>2013-07-23T15:42:20.06</time>
<name>5055</name>
<sym>Dot</sym>
</trkpt>
<trkpt lat="48.901143" lon="20.022868">
<ele>1462.5</ele>
<desc>Speed 4.8 km/h Distance 10.36 km</desc>
<time>2013-07-23T15:42:21.05</time>
<name>5056</name>
<sym>Dot</sym>
</trkpt>
<trkpt lat="48.901135" lon="20.022857">
<ele>1462.5</ele>
<desc>Speed 4.1 km/h Distance 10.36 km</desc>
<time>2013-07-23T15:42:22.04</time>
<name>5057</name>
<sym>Dot</sym>
</trkpt>
<trkpt lat="48.901128" lon="20.022847">
<ele>1462.5</ele>
<desc>Speed 3.9 km/h Distance 10.36 km</desc>
<time>2013-07-23T15:42:23.04</time>
<name>5058</name>
<sym>Dot</sym>
</trkpt>
<trkpt lat="48.901128" lon="20.022832">
<ele>1463.0</ele>
<desc>Speed 3.7 km/h Distance 10.36 km</desc>
<time>2013-07-23T15:42:24.04</time>
<name>5059</name>
<sym>Dot</sym>
</trkpt>
<trkpt lat="48.901120" lon="20.022820">
<ele>1463.0</ele>
<desc>Speed 4.5 km/h Distance 10.36 km</desc>
<time>2013-07-23T15:42:25.03</time>
<name>5060</name>
<sym>Dot</sym>
</trkpt>
<trkpt lat="48.901113" lon="20.022805">
<ele>1463.0</ele>
<desc>Speed 5.2 km/h Distance 10.36 km</desc>
<time>2013-07-23T15:42:26.02</time>
<name>5061</name>
<sym>Dot</sym>
</trkpt>
<trkpt lat="48.901110" lon="20.022792">
<ele>1463.0</ele>
<desc>Speed 4.4 km/h Distance 10.36 km</desc>
<time>2013-07-23T15:42:27.03</time>
<name>5062</name>
<sym>Dot</sym>
</trkpt>
<trkpt lat="48.901108" lon="20.022780">
<ele>1463.5</ele>
<desc>Speed 4.6 km/h Distance 10.37 km</desc>
<time>2013-07-23T15:42:28.02</time>
<name>5063</name>
<sym>Dot</sym>
</trkpt>
<trkpt lat="48.901098" lon="20.022768">
<ele>1463.0</ele>
<desc>Speed 4.9 km/h Distance 10.37 km</desc>
<time>2013-07-23T15:42:29.02</time>
<name>5064</name>
<sym>Dot</sym>
</trkpt>
<trkpt lat="48.901095" lon="20.022757">
<ele>1463.5</ele>
<desc>Speed 4.0 km/h Distance 10.37 km</desc>
<time>2013-07-23T15:42:30.02</time>
<name>5065</name>
<sym>Dot</sym>
</trkpt>
<trkpt lat="48.901093" lon="20.022743">
<ele>1464.0</ele>
<desc>Speed 4.2 km/h Distance 10.37 km</desc>
<time>2013-07-23T15:42:31.01</time>
<name>5066</name>
<sym>Dot</sym>
</trkpt>
<trkpt lat="48.901087" lon="20.022730">
<ele>1464.0</ele>
<desc>Speed 4.4 km/h Distance 10.37 km</desc>
<time>2013-07-23T15:42:32.01</time>
<name>5067</name>
<sym>Dot</sym>
</trkpt>
<trkpt lat="48.901078" lon="20.022715">
<ele>1464.0</ele>
<desc>Speed 5.0 km/h Distance 10.37 km</desc>
<time>2013-07-23T15:42:33.04</time>
<name>5068</name>
<sym>Dot</sym>
</trkpt>
<trkpt lat="48.901072" lon="20.022702">
<ele>1464.0</ele>
<desc>Speed 4.3 km/h Distance 10.37 km</desc>
<time>2013-07-23T15:42:34.00</time>
<name>5069</name>
<sym>Dot</sym>
</trkpt>
<trkpt lat="48.901065" lon="20.022688">
<ele>1463.5</ele>
<desc>Speed 4.3 km/h Distance 10.37 km</desc>
<time>2013-07-23T15:42:35.00</time>
<name>5070</name>
<sym>Dot</sym>
</trkpt>
<trkpt lat="48.901060" lon="20.022680">
<ele>1463.5</ele>
<desc>Speed 2.8 km/h Distance 10.37 km</desc>
<time>2013-07-23T15:42:36.00</time>
<name>5071</name>
<sym>Dot</sym>
</trkpt>
<trkpt lat="48.901055" lon="20.022667">
<ele>1463.5</ele>
<desc>Speed 4.0 km/h Distance 10.38 km</desc>
<time>2013-07-23T15:42:37.00</time>
<name>5072</name>
<sym>Dot</sym>
</trkpt>
<trkpt lat="48.901050" lon="20.022653">
<ele>1463.5</ele>
<desc>Speed 4.0 km/h Distance 10.38 km</desc>
<time>2013-07-23T15:42:38.09</time>
<name>5073</name>
<sym>Dot</sym>
</trkpt>
<trkpt lat="48.901047" lon="20.022638">
<ele>1463.5</ele>
<desc>Speed 4.3 km/h Distance 10.38 km</desc>
<time>2013-07-23T15:42:38.99</time>
<name>5074</name>
<sym>Dot</sym>
</trkpt>
<trkpt lat="48.901043" lon="20.022623">
<ele>1463.5</ele>
<desc>Speed 4.1 km/h Distance 10.38 km</desc>
<time>2013-07-23T15:42:39.99</time>
<name>5075</name>
<sym>Dot</sym>
</trkpt>
<trkpt lat="48.901040" lon="20.022610">
<ele>1463.5</ele>
<desc>Speed 4.1 km/h Distance 10.38 km</desc>
<time>2013-07-23T15:42:40.99</time>
<name>5076</name>
<sym>Dot</sym>
</trkpt>
<trkpt lat="48.901038" lon="20.022597">
<ele>1464.0</ele>
<desc>Speed 3.7 km/h Distance 10.38 km</desc>
<time>2013-07-23T15:42:41.99</time>
<name>5077</name>
<sym>Dot</sym>
</trkpt>
<trkpt lat="48.901033" lon="20.022583">
<ele>1464.0</ele>
<desc>Speed 4.0 km/h Distance 10.38 km</desc>
<time>2013-07-23T15:42:42.98</time>
<name>5078</name>
<sym>Dot</sym>
</trkpt>
<trkpt lat="48.901028" lon="20.022570">
<ele>1464.0</ele>
<desc>Speed 4.1 km/h Distance 10.38 km</desc>
<time>2013-07-23T15:42:44.05</time>
<name>5079</name>
<sym>Dot</sym>
</trkpt>
<trkpt lat="48.901023" lon="20.022560">
<ele>1464.0</ele>
<desc>Speed 3.3 km/h Distance 10.38 km</desc>
<time>2013-07-23T15:42:44.97</time>
<name>5080</name>
<sym>Dot</sym>
</trkpt>
<trkpt lat="48.901018" lon="20.022548">
<ele>1464.0</ele>
<desc>Speed 3.3 km/h Distance 10.39 km</desc>
<time>2013-07-23T15:42:45.96</time>
<name>5081</name>
<sym>Dot</sym>
</trkpt>
<trkpt lat="48.901020" lon="20.022535">
<ele>1464.0</ele>
<desc>Speed 3.5 km/h Distance 10.39 km</desc>
<time>2013-07-23T15:42:46.96</time>
<name>5082</name>
<sym>Dot</sym>
</trkpt>
<trkpt lat="48.901018" lon="20.022523">
<ele>1465.0</ele>
<desc>Speed 3.1 km/h Distance 10.39 km</desc>
<time>2013-07-23T15:42:47.96</time>
<name>5083</name>
<sym>Dot</sym>
</trkpt>
<trkpt lat="48.901013" lon="20.022508">
<ele>1464.5</ele>
<desc>Speed 4.6 km/h Distance 10.39 km</desc>
<time>2013-07-23T15:42:48.96</time>
<name>5084</name>
<sym>Dot</sym>
</trkpt>
<trkpt lat="48.901008" lon="20.022492">
<ele>1465.0</ele>
<desc>Speed 4.4 km/h Distance 10.39 km</desc>
<time>2013-07-23T15:42:49.95</time>
<name>5085</name>
<sym>Dot</sym>
</trkpt>
<trkpt lat="48.901007" lon="20.022477">
<ele>1465.0</ele>
<desc>Speed 4.3 km/h Distance 10.39 km</desc>
<time>2013-07-23T15:42:50.96</time>
<name>5086</name>
<sym>Dot</sym>
</trkpt>
<trkpt lat="48.901002" lon="20.022462">
<ele>1464.5</ele>
<desc>Speed 4.5 km/h Distance 10.39 km</desc>
<time>2013-07-23T15:42:51.95</time>
<name>5087</name>
<sym>Dot</sym>
</trkpt>
<trkpt lat="48.900995" lon="20.022443">
<ele>1464.5</ele>
<desc>Speed 5.0 km/h Distance 10.39 km</desc>
<time>2013-07-23T15:42:52.95</time>
<name>5088</name>
<sym>Dot</sym>
</trkpt>
<trkpt lat="48.900990" lon="20.022427">
<ele>1464.0</ele>
<desc>Speed 4.8 km/h Distance 10.40 km</desc>
<time>2013-07-23T15:42:53.95</time>
<name>5089</name>
<sym>Dot</sym>
</trkpt>
<trkpt lat="48.900987" lon="20.022412">
<ele>1464.0</ele>
<desc>Speed 4.1 km/h Distance 10.40 km</desc>
<time>2013-07-23T15:42:54.97</time>
<name>5090</name>
<sym>Dot</sym>
</trkpt>
<trkpt lat="48.900982" lon="20.022397">
<ele>1464.0</ele>
<desc>Speed 4.5 km/h Distance 10.40 km</desc>
<time>2013-07-23T15:42:55.94</time>
<name>5091</name>
<sym>Dot</sym>
</trkpt>
<trkpt lat="48.900975" lon="20.022382">
<ele>1464.0</ele>
<desc>Speed 4.1 km/h Distance 10.40 km</desc>
<time>2013-07-23T15:42:56.94</time>
<name>5092</name>
<sym>Dot</sym>
</trkpt>
<trkpt lat="48.900972" lon="20.022370">
<ele>1464.0</ele>
<desc>Speed 3.6 km/h Distance 10.40 km</desc>
<time>2013-07-23T15:42:57.94</time>
<name>5093</name>
<sym>Dot</sym>
</trkpt>
<trkpt lat="48.900968" lon="20.022358">
<ele>1464.0</ele>
<desc>Speed 3.9 km/h Distance 10.40 km</desc>
<time>2013-07-23T15:42:58.94</time>
<name>5094</name>
<sym>Dot</sym>
</trkpt>
<trkpt lat="48.900965" lon="20.022345">
<ele>1464.0</ele>
<desc>Speed 3.4 km/h Distance 10.40 km</desc>
<time>2013-07-23T15:42:59.93</time>
<name>5095</name>
<sym>Dot</sym>
</trkpt>
<trkpt lat="48.900958" lon="20.022332">
<ele>1464.0</ele>
<desc>Speed 4.0 km/h Distance 10.40 km</desc>
<time>2013-07-23T15:43:01.11</time>
<name>5096</name>
<sym>Dot</sym>
</trkpt>
<trkpt lat="48.900953" lon="20.022320">
<ele>1463.5</ele>
<desc>Speed 3.9 km/h Distance 10.40 km</desc>
<time>2013-07-23T15:43:01.92</time>
<name>5097</name>
<sym>Dot</sym>
</trkpt>
<trkpt lat="48.900948" lon="20.022307">
<ele>1463.5</ele>
<desc>Speed 3.6 km/h Distance 10.41 km</desc>
<time>2013-07-23T15:43:02.91</time>
<name>5098</name>
<sym>Dot</sym>
</trkpt>
<trkpt lat="48.900942" lon="20.022293">
<ele>1463.5</ele>
<desc>Speed 4.7 km/h Distance 10.41 km</desc>
<time>2013-07-23T15:43:03.91</time>
<name>5099</name>
<sym>Dot</sym>
</trkpt>
<trkpt lat="48.900935" lon="20.022282">
<ele>1464.0</ele>
<desc>Speed 4.1 km/h Distance 10.41 km</desc>
<time>2013-07-23T15:43:04.91</time>
<name>5100</name>
<sym>Dot</sym>
</trkpt>
<trkpt lat="48.900927" lon="20.022268">
<ele>1463.5</ele>
<desc>Speed 3.9 km/h Distance 10.41 km</desc>
<time>2013-07-23T15:43:05.90</time>
<name>5101</name>
<sym>Dot</sym>
</trkpt>
<trkpt lat="48.900918" lon="20.022257">
<ele>1463.0</ele>
<desc>Speed 4.3 km/h Distance 10.41 km</desc>
<time>2013-07-23T15:43:06.90</time>
<name>5102</name>
<sym>Dot</sym>
</trkpt>
<trkpt lat="48.900913" lon="20.022243">
<ele>1463.0</ele>
<desc>Speed 4.4 km/h Distance 10.41 km</desc>
<time>2013-07-23T15:43:07.90</time>
<name>5103</name>
<sym>Dot</sym>
</trkpt>
<trkpt lat="48.900908" lon="20.022232">
<ele>1463.0</ele>
<desc>Speed 3.7 km/h Distance 10.41 km</desc>
<time>2013-07-23T15:43:08.89</time>
<name>5104</name>
<sym>Dot</sym>
</trkpt>
<trkpt lat="48.900902" lon="20.022220">
<ele>1463.5</ele>
<desc>Speed 4.4 km/h Distance 10.41 km</desc>
<time>2013-07-23T15:43:09.88</time>
<name>5105</name>
<sym>Dot</sym>
</trkpt>
<trkpt lat="48.900893" lon="20.022208">
<ele>1463.5</ele>
<desc>Speed 4.3 km/h Distance 10.41 km</desc>
<time>2013-07-23T15:43:10.88</time>
<name>5106</name>
<sym>Dot</sym>
</trkpt>
<trkpt lat="48.900888" lon="20.022195">
<ele>1463.5</ele>
<desc>Speed 4.1 km/h Distance 10.42 km</desc>
<time>2013-07-23T15:43:11.87</time>
<name>5107</name>
<sym>Dot</sym>
</trkpt>
<trkpt lat="48.900883" lon="20.022182">
<ele>1463.5</ele>
<desc>Speed 3.7 km/h Distance 10.42 km</desc>
<time>2013-07-23T15:43:12.87</time>
<name>5108</name>
<sym>Dot</sym>
</trkpt>
<trkpt lat="48.900878" lon="20.022168">
<ele>1463.0</ele>
<desc>Speed 3.9 km/h Distance 10.42 km</desc>
<time>2013-07-23T15:43:13.87</time>
<name>5109</name>
<sym>Dot</sym>
</trkpt>
<trkpt lat="48.900873" lon="20.022155">
<ele>1463.0</ele>
<desc>Speed 4.0 km/h Distance 10.42 km</desc>
<time>2013-07-23T15:43:14.86</time>
<name>5110</name>
<sym>Dot</sym>
</trkpt>
<trkpt lat="48.900870" lon="20.022145">
<ele>1463.5</ele>
<desc>Speed 3.6 km/h Distance 10.42 km</desc>
<time>2013-07-23T15:43:15.86</time>
<name>5111</name>
<sym>Dot</sym>
</trkpt>
<trkpt lat="48.900865" lon="20.022132">
<ele>1463.5</ele>
<desc>Speed 3.9 km/h Distance 10.42 km</desc>
<time>2013-07-23T15:43:16.85</time>
<name>5112</name>
<sym>Dot</sym>
</trkpt>
<trkpt lat="48.900860" lon="20.022118">
<ele>1464.0</ele>
<desc>Speed 4.1 km/h Distance 10.42 km</desc>
<time>2013-07-23T15:43:17.85</time>
<name>5113</name>
<sym>Dot</sym>
</trkpt>
<trkpt lat="48.900855" lon="20.022107">
<ele>1464.0</ele>
<desc>Speed 4.1 km/h Distance 10.42 km</desc>
<time>2013-07-23T15:43:18.85</time>
<name>5114</name>
<sym>Dot</sym>
</trkpt>
<trkpt lat="48.900850" lon="20.022095">
<ele>1464.5</ele>
<desc>Speed 4.0 km/h Distance 10.42 km</desc>
<time>2013-07-23T15:43:19.85</time>
<name>5115</name>
<sym>Dot</sym>
</trkpt>
<trkpt lat="48.900847" lon="20.022083">
<ele>1465.0</ele>
<desc>Speed 3.4 km/h Distance 10.43 km</desc>
<time>2013-07-23T15:43:21.05</time>
<name>5116</name>
<sym>Dot</sym>
</trkpt>
<trkpt lat="48.900842" lon="20.022073">
<ele>1465.0</ele>
<desc>Speed 3.7 km/h Distance 10.43 km</desc>
<time>2013-07-23T15:43:21.84</time>
<name>5117</name>
<sym>Dot</sym>
</trkpt>
<trkpt lat="48.900835" lon="20.022062">
<ele>1466.0</ele>
<desc>Speed 2.4 km/h Distance 10.43 km</desc>
<time>2013-07-23T15:43:23.83</time>
<name>5118</name>
<sym>Dot</sym>
</trkpt>
<trkpt lat="48.900862" lon="20.022050">
<ele>1468.0</ele>
<desc>Speed 4.9 km/h Distance 10.43 km</desc>
<time>2013-07-23T15:43:42.83</time>
<name>5119</name>
<sym>Dot</sym>
</trkpt>
<trkpt lat="48.900857" lon="20.022017">
<ele>1468.0</ele>
<desc>Speed 3.1 km/h Distance 10.43 km</desc>
<time>2013-07-23T15:43:51.82</time>
<name>5120</name>
<sym>Dot</sym>
</trkpt>
<trkpt lat="48.900852" lon="20.022002">
<ele>1468.0</ele>
<desc>Speed 4.5 km/h Distance 10.43 km</desc>
<time>2013-07-23T15:43:52.82</time>
<name>5121</name>
<sym>Dot</sym>
</trkpt>
<trkpt lat="48.900845" lon="20.021988">
<ele>1468.0</ele>
<desc>Speed 4.0 km/h Distance 10.44 km</desc>
<time>2013-07-23T15:43:53.82</time>
<name>5122</name>
<sym>Dot</sym>
</trkpt>
<trkpt lat="48.900840" lon="20.021975">
<ele>1468.0</ele>
<desc>Speed 4.4 km/h Distance 10.44 km</desc>
<time>2013-07-23T15:43:54.82</time>
<name>5123</name>
<sym>Dot</sym>
</trkpt>
<trkpt lat="48.900835" lon="20.021963">
<ele>1467.5</ele>
<desc>Speed 3.5 km/h Distance 10.44 km</desc>
<time>2013-07-23T15:43:55.82</time>
<name>5124</name>
<sym>Dot</sym>
</trkpt>
<trkpt lat="48.900837" lon="20.021937">
<ele>1467.5</ele>
<desc>Speed 2.4 km/h Distance 10.44 km</desc>
<time>2013-07-23T15:44:00.81</time>
<name>5125</name>
<sym>Dot</sym>
</trkpt>
<trkpt lat="48.900830" lon="20.021922">
<ele>1467.5</ele>
<desc>Speed 4.9 km/h Distance 10.44 km</desc>
<time>2013-07-23T15:44:01.81</time>
<name>5126</name>
<sym>Dot</sym>
</trkpt>
<trkpt lat="48.900823" lon="20.021907">
<ele>1467.0</ele>
<desc>Speed 4.3 km/h Distance 10.44 km</desc>
<time>2013-07-23T15:44:02.81</time>
<name>5127</name>
<sym>Dot</sym>
</trkpt>
<trkpt lat="48.900818" lon="20.021888">
<ele>1467.0</ele>
<desc>Speed 4.9 km/h Distance 10.44 km</desc>
<time>2013-07-23T15:44:03.80</time>
<name>5128</name>
<sym>Dot</sym>
</trkpt>
<trkpt lat="48.900813" lon="20.021865">
<ele>1467.0</ele>
<desc>Speed 5.9 km/h Distance 10.45 km</desc>
<time>2013-07-23T15:44:04.80</time>
<name>5129</name>
<sym>Dot</sym>
</trkpt>
<trkpt lat="48.900808" lon="20.021842">
<ele>1467.0</ele>
<desc>Speed 6.3 km/h Distance 10.45 km</desc>
<time>2013-07-23T15:44:05.79</time>
<name>5130</name>
<sym>Dot</sym>
</trkpt>
<trkpt lat="48.900802" lon="20.021820">
<ele>1466.5</ele>
<desc>Speed 6.2 km/h Distance 10.45 km</desc>
<time>2013-07-23T15:44:06.79</time>
<name>5131</name>
<sym>Dot</sym>
</trkpt>
<trkpt lat="48.900797" lon="20.021797">
<ele>1466.5</ele>
<desc>Speed 6.5 km/h Distance 10.45 km</desc>
<time>2013-07-23T15:44:07.78</time>
<name>5132</name>
<sym>Dot</sym>
</trkpt>
<trkpt lat="48.900790" lon="20.021773">
<ele>1466.5</ele>
<desc>Speed 6.6 km/h Distance 10.45 km</desc>
<time>2013-07-23T15:44:08.78</time>
<name>5133</name>
<sym>Dot</sym>
</trkpt>
<trkpt lat="48.900783" lon="20.021750">
<ele>1467.0</ele>
<desc>Speed 7.0 km/h Distance 10.45 km</desc>
<time>2013-07-23T15:44:09.78</time>
<name>5134</name>
<sym>Dot</sym>
</trkpt>
<trkpt lat="48.900777" lon="20.021727">
<ele>1467.0</ele>
<desc>Speed 6.8 km/h Distance 10.46 km</desc>
<time>2013-07-23T15:44:10.78</time>
<name>5135</name>
<sym>Dot</sym>
</trkpt>
<trkpt lat="48.900770" lon="20.021702">
<ele>1467.0</ele>
<desc>Speed 7.1 km/h Distance 10.46 km</desc>
<time>2013-07-23T15:44:11.78</time>
<name>5136</name>
<sym>Dot</sym>
</trkpt>
<trkpt lat="48.900763" lon="20.021678">
<ele>1467.0</ele>
<desc>Speed 6.9 km/h Distance 10.46 km</desc>
<time>2013-07-23T15:44:12.77</time>
<name>5137</name>
<sym>Dot</sym>
</trkpt>
<trkpt lat="48.900757" lon="20.021652">
<ele>1467.0</ele>
<desc>Speed 7.6 km/h Distance 10.46 km</desc>
<time>2013-07-23T15:44:13.76</time>
<name>5138</name>
<sym>Dot</sym>
</trkpt>
<trkpt lat="48.900750" lon="20.021625">
<ele>1467.5</ele>
<desc>Speed 7.7 km/h Distance 10.46 km</desc>
<time>2013-07-23T15:44:14.76</time>
<name>5139</name>
<sym>Dot</sym>
</trkpt>
<trkpt lat="48.900743" lon="20.021598">
<ele>1467.5</ele>
<desc>Speed 7.7 km/h Distance 10.47 km</desc>
<time>2013-07-23T15:44:15.76</time>
<name>5140</name>
<sym>Dot</sym>
</trkpt>
<trkpt lat="48.900738" lon="20.021575">
<ele>1467.5</ele>
<desc>Speed 6.8 km/h Distance 10.47 km</desc>
<time>2013-07-23T15:44:16.76</time>
<name>5141</name>
<sym>Dot</sym>
</trkpt>
<trkpt lat="48.900735" lon="20.021552">
<ele>1467.5</ele>
<desc>Speed 6.4 km/h Distance 10.47 km</desc>
<time>2013-07-23T15:44:17.76</time>
<name>5142</name>
<sym>Dot</sym>
</trkpt>
<trkpt lat="48.900735" lon="20.021527">
<ele>1468.0</ele>
<desc>Speed 6.4 km/h Distance 10.47 km</desc>
<time>2013-07-23T15:44:18.76</time>
<name>5143</name>
<sym>Dot</sym>
</trkpt>
<trkpt lat="48.900737" lon="20.021502">
<ele>1468.0</ele>
<desc>Speed 6.7 km/h Distance 10.47 km</desc>
<time>2013-07-23T15:44:19.76</time>
<name>5144</name>
<sym>Dot</sym>
</trkpt>
<trkpt lat="48.900742" lon="20.021477">
<ele>1469.0</ele>
<desc>Speed 6.7 km/h Distance 10.48 km</desc>
<time>2013-07-23T15:44:20.76</time>
<name>5145</name>
<sym>Dot</sym>
</trkpt>
<trkpt lat="48.900745" lon="20.021450">
<ele>1469.0</ele>
<desc>Speed 6.9 km/h Distance 10.48 km</desc>
<time>2013-07-23T15:44:21.75</time>
<name>5146</name>
<sym>Dot</sym>
</trkpt>
<trkpt lat="48.900747" lon="20.021425">
<ele>1469.5</ele>
<desc>Speed 6.4 km/h Distance 10.48 km</desc>
<time>2013-07-23T15:44:22.74</time>
<name>5147</name>
<sym>Dot</sym>
</trkpt>
<trkpt lat="48.900748" lon="20.021400">
<ele>1470.0</ele>
<desc>Speed 6.6 km/h Distance 10.48 km</desc>
<time>2013-07-23T15:44:23.74</time>
<name>5148</name>
<sym>Dot</sym>
</trkpt>
<trkpt lat="48.900747" lon="20.021375">
<ele>1470.5</ele>
<desc>Speed 7.2 km/h Distance 10.48 km</desc>
<time>2013-07-23T15:44:24.80</time>
<name>5149</name>
<sym>Dot</sym>
</trkpt>
<trkpt lat="48.900743" lon="20.021350">
<ele>1470.5</ele>
<desc>Speed 7.2 km/h Distance 10.49 km</desc>
<time>2013-07-23T15:44:25.73</time>
<name>5150</name>
<sym>Dot</sym>
</trkpt>
<trkpt lat="48.900740" lon="20.021323">
<ele>1470.5</ele>
<desc>Speed 6.8 km/h Distance 10.49 km</desc>
<time>2013-07-23T15:44:26.73</time>
<name>5151</name>
<sym>Dot</sym>
</trkpt>
<trkpt lat="48.900738" lon="20.021298">
<ele>1471.0</ele>
<desc>Speed 7.0 km/h Distance 10.49 km</desc>
<time>2013-07-23T15:44:27.73</time>
<name>5152</name>
<sym>Dot</sym>
</trkpt>
<trkpt lat="48.900735" lon="20.021273">
<ele>1471.0</ele>
<desc>Speed 6.9 km/h Distance 10.49 km</desc>
<time>2013-07-23T15:44:28.73</time>
<name>5153</name>
<sym>Dot</sym>
</trkpt>
<trkpt lat="48.900733" lon="20.021250">
<ele>1471.0</ele>
<desc>Speed 6.2 km/h Distance 10.49 km</desc>
<time>2013-07-23T15:44:29.73</time>
<name>5154</name>
<sym>Dot</sym>
</trkpt>
<trkpt lat="48.900733" lon="20.021227">
<ele>1471.5</ele>
<desc>Speed 6.1 km/h Distance 10.49 km</desc>
<time>2013-07-23T15:44:30.72</time>
<name>5155</name>
<sym>Dot</sym>
</trkpt>
<trkpt lat="48.900728" lon="20.021205">
<ele>1471.5</ele>
<desc>Speed 6.6 km/h Distance 10.50 km</desc>
<time>2013-07-23T15:44:31.72</time>
<name>5156</name>
<sym>Dot</sym>
</trkpt>
<trkpt lat="48.900727" lon="20.021182">
<ele>1472.0</ele>
<desc>Speed 5.7 km/h Distance 10.50 km</desc>
<time>2013-07-23T15:44:32.72</time>
<name>5157</name>
<sym>Dot</sym>
</trkpt>
<trkpt lat="48.900722" lon="20.021158">
<ele>1471.5</ele>
<desc>Speed 6.0 km/h Distance 10.50 km</desc>
<time>2013-07-23T15:44:33.71</time>
<name>5158</name>
<sym>Dot</sym>
</trkpt>
<trkpt lat="48.900718" lon="20.021135">
<ele>1471.5</ele>
<desc>Speed 5.4 km/h Distance 10.50 km</desc>
<time>2013-07-23T15:44:34.70</time>
<name>5159</name>
<sym>Dot</sym>
</trkpt>
<trkpt lat="48.900715" lon="20.021115">
<ele>1471.5</ele>
<desc>Speed 5.8 km/h Distance 10.50 km</desc>
<time>2013-07-23T15:44:35.69</time>
<name>5160</name>
<sym>Dot</sym>
</trkpt>
<trkpt lat="48.900712" lon="20.021095">
<ele>1471.5</ele>
<desc>Speed 5.0 km/h Distance 10.50 km</desc>
<time>2013-07-23T15:44:36.69</time>
<name>5161</name>
<sym>Dot</sym>
</trkpt>
<trkpt lat="48.900708" lon="20.021078">
<ele>1471.5</ele>
<desc>Speed 4.7 km/h Distance 10.51 km</desc>
<time>2013-07-23T15:44:37.69</time>
<name>5162</name>
<sym>Dot</sym>
</trkpt>
<trkpt lat="48.900707" lon="20.021058">
<ele>1471.5</ele>
<desc>Speed 5.2 km/h Distance 10.51 km</desc>
<time>2013-07-23T15:44:38.68</time>
<name>5163</name>
<sym>Dot</sym>
</trkpt>
<trkpt lat="48.900703" lon="20.021037">
<ele>1471.5</ele>
<desc>Speed 5.9 km/h Distance 10.51 km</desc>
<time>2013-07-23T15:44:39.68</time>
<name>5164</name>
<sym>Dot</sym>
</trkpt>
<trkpt lat="48.900697" lon="20.021013">
<ele>1471.0</ele>
<desc>Speed 6.7 km/h Distance 10.51 km</desc>
<time>2013-07-23T15:44:40.68</time>
<name>5165</name>
<sym>Dot</sym>
</trkpt>
<trkpt lat="48.900693" lon="20.020987">
<ele>1471.5</ele>
<desc>Speed 6.9 km/h Distance 10.51 km</desc>
<time>2013-07-23T15:44:41.68</time>
<name>5166</name>
<sym>Dot</sym>
</trkpt>
<trkpt lat="48.900687" lon="20.020960">
<ele>1471.5</ele>
<desc>Speed 7.5 km/h Distance 10.51 km</desc>
<time>2013-07-23T15:44:42.68</time>
<name>5167</name>
<sym>Dot</sym>
</trkpt>
<trkpt lat="48.900683" lon="20.020935">
<ele>1471.5</ele>
<desc>Speed 6.7 km/h Distance 10.52 km</desc>
<time>2013-07-23T15:44:43.68</time>
<name>5168</name>
<sym>Dot</sym>
</trkpt>
<trkpt lat="48.900665" lon="20.020923">
<ele>1471.5</ele>
<desc>Speed 8.4 km/h Distance 10.52 km</desc>
<time>2013-07-23T15:44:44.68</time>
<name>5169</name>
<sym>Dot</sym>
</trkpt>
<trkpt lat="48.900668" lon="20.020892">
<ele>1472.5</ele>
<desc>Speed 8.4 km/h Distance 10.52 km</desc>
<time>2013-07-23T15:44:45.67</time>
<name>5170</name>
<sym>Dot</sym>
</trkpt>
<trkpt lat="48.900663" lon="20.020862">
<ele>1472.5</ele>
<desc>Speed 7.5 km/h Distance 10.52 km</desc>
<time>2013-07-23T15:44:46.67</time>
<name>5171</name>
<sym>Dot</sym>
</trkpt>
<trkpt lat="48.900662" lon="20.020833">
<ele>1472.0</ele>
<desc>Speed 7.3 km/h Distance 10.53 km</desc>
<time>2013-07-23T15:44:47.67</time>
<name>5172</name>
<sym>Dot</sym>
</trkpt>
<trkpt lat="48.900658" lon="20.020805">
<ele>1471.5</ele>
<desc>Speed 7.5 km/h Distance 10.53 km</desc>
<time>2013-07-23T15:44:48.66</time>
<name>5173</name>
<sym>Dot</sym>
</trkpt>
<trkpt lat="48.900660" lon="20.020770">
<ele>1471.5</ele>
<desc>Speed 8.6 km/h Distance 10.53 km</desc>
<time>2013-07-23T15:44:49.66</time>
<name>5174</name>
<sym>Dot</sym>
</trkpt>
<trkpt lat="48.900662" lon="20.020735">
<ele>1471.5</ele>
<desc>Speed 9.1 km/h Distance 10.53 km</desc>
<time>2013-07-23T15:44:50.65</time>
<name>5175</name>
<sym>Dot</sym>
</trkpt>
<trkpt lat="48.900667" lon="20.020702">
<ele>1471.5</ele>
<desc>Speed 8.6 km/h Distance 10.53 km</desc>
<time>2013-07-23T15:44:51.65</time>
<name>5176</name>
<sym>Dot</sym>
</trkpt>
<trkpt lat="48.900670" lon="20.020668">
<ele>1471.5</ele>
<desc>Speed 8.4 km/h Distance 10.54 km</desc>
<time>2013-07-23T15:44:52.65</time>
<name>5177</name>
<sym>Dot</sym>
</trkpt>
<trkpt lat="48.900670" lon="20.020635">
<ele>1471.5</ele>
<desc>Speed 8.1 km/h Distance 10.54 km</desc>
<time>2013-07-23T15:44:53.65</time>
<name>5178</name>
<sym>Dot</sym>
</trkpt>
<trkpt lat="48.900670" lon="20.020605">
<ele>1471.5</ele>
<desc>Speed 7.8 km/h Distance 10.54 km</desc>
<time>2013-07-23T15:44:54.65</time>
<name>5179</name>
<sym>Dot</sym>
</trkpt>
<trkpt lat="48.900670" lon="20.020577">
<ele>1472.0</ele>
<desc>Speed 7.7 km/h Distance 10.54 km</desc>
<time>2013-07-23T15:44:55.65</time>
<name>5180</name>
<sym>Dot</sym>
</trkpt>
<trkpt lat="48.900668" lon="20.020547">
<ele>1472.0</ele>
<desc>Speed 8.1 km/h Distance 10.55 km</desc>
<time>2013-07-23T15:44:56.64</time>
<name>5181</name>
<sym>Dot</sym>
</trkpt>
<trkpt lat="48.900670" lon="20.020515">
<ele>1472.0</ele>
<desc>Speed 8.2 km/h Distance 10.55 km</desc>
<time>2013-07-23T15:44:57.64</time>
<name>5182</name>
<sym>Dot</sym>
</trkpt>
<trkpt lat="48.900670" lon="20.020478">
<ele>1472.0</ele>
<desc>Speed 9.5 km/h Distance 10.55 km</desc>
<time>2013-07-23T15:44:58.63</time>
<name>5183</name>
<sym>Dot</sym>
</trkpt>
<trkpt lat="48.900668" lon="20.020437">
<ele>1471.5</ele>
<desc>Speed 11.0 km/h Distance 10.55 km</desc>
<time>2013-07-23T15:44:59.65</time>
<name>5184</name>
<sym>Dot</sym>
</trkpt>
<trkpt lat="48.900665" lon="20.020392">
<ele>1471.5</ele>
<desc>Speed 11.7 km/h Distance 10.56 km</desc>
<time>2013-07-23T15:45:00.62</time>
<name>5185</name>
<sym>Dot</sym>
</trkpt>
<trkpt lat="48.900660" lon="20.020342">
<ele>1471.5</ele>
<desc>Speed 12.7 km/h Distance 10.56 km</desc>
<time>2013-07-23T15:45:01.62</time>
<name>5186</name>
<sym>Dot</sym>
</trkpt>
<trkpt lat="48.900657" lon="20.020293">
<ele>1471.0</ele>
<desc>Speed 12.8 km/h Distance 10.56 km</desc>
<time>2013-07-23T15:45:02.62</time>
<name>5187</name>
<sym>Dot</sym>
</trkpt>
<trkpt lat="48.900655" lon="20.020250">
<ele>1471.5</ele>
<desc>Speed 11.6 km/h Distance 10.57 km</desc>
<time>2013-07-23T15:45:03.61</time>
<name>5188</name>
<sym>Dot</sym>
</trkpt>
<trkpt lat="48.900655" lon="20.020212">
<ele>1471.5</ele>
<desc>Speed 9.8 km/h Distance 10.57 km</desc>
<time>2013-07-23T15:45:04.61</time>
<name>5189</name>
<sym>Dot</sym>
</trkpt>
<trkpt lat="48.900653" lon="20.020177">
<ele>1471.5</ele>
<desc>Speed 9.3 km/h Distance 10.57 km</desc>
<time>2013-07-23T15:45:05.61</time>
<name>5190</name>
<sym>Dot</sym>
</trkpt>
<trkpt lat="48.900653" lon="20.020142">
<ele>1472.0</ele>
<desc>Speed 9.0 km/h Distance 10.58 km</desc>
<time>2013-07-23T15:45:06.61</time>
<name>5191</name>
<sym>Dot</sym>
</trkpt>
<trkpt lat="48.900650" lon="20.020110">
<ele>1472.0</ele>
<desc>Speed 9.0 km/h Distance 10.58 km</desc>
<time>2013-07-23T15:45:07.60</time>
<name>5192</name>
<sym>Dot</sym>
</trkpt>
<trkpt lat="48.900647" lon="20.020075">
<ele>1472.5</ele>
<desc>Speed 9.3 km/h Distance 10.58 km</desc>
<time>2013-07-23T15:45:08.68</time>
<name>5193</name>
<sym>Dot</sym>
</trkpt>
<trkpt lat="48.900645" lon="20.020043">
<ele>1473.0</ele>
<desc>Speed 9.0 km/h Distance 10.58 km</desc>
<time>2013-07-23T15:45:09.59</time>
<name>5194</name>
<sym>Dot</sym>
</trkpt>
<trkpt lat="48.900643" lon="20.020008">
<ele>1473.5</ele>
<desc>Speed 9.1 km/h Distance 10.59 km</desc>
<time>2013-07-23T15:45:10.58</time>
<name>5195</name>
<sym>Dot</sym>
</trkpt>
<trkpt lat="48.900642" lon="20.019975">
<ele>1474.0</ele>
<desc>Speed 8.7 km/h Distance 10.59 km</desc>
<time>2013-07-23T15:45:11.58</time>
<name>5196</name>
<sym>Dot</sym>
</trkpt>
<trkpt lat="48.900640" lon="20.019942">
<ele>1474.0</ele>
<desc>Speed 8.5 km/h Distance 10.59 km</desc>
<time>2013-07-23T15:45:12.58</time>
<name>5197</name>
<sym>Dot</sym>
</trkpt>
<trkpt lat="48.900640" lon="20.019908">
<ele>1474.0</ele>
<desc>Speed 8.6 km/h Distance 10.59 km</desc>
<time>2013-07-23T15:45:13.61</time>
<name>5198</name>
<sym>Dot</sym>
</trkpt>
<trkpt lat="48.900653" lon="20.019878">
<ele>1475.5</ele>
<desc>Speed 8.6 km/h Distance 10.60 km</desc>
<time>2013-07-23T15:45:14.56</time>
<name>5199</name>
<sym>Dot</sym>
</trkpt>
<trkpt lat="48.900658" lon="20.019848">
<ele>1475.5</ele>
<desc>Speed 8.0 km/h Distance 10.60 km</desc>
<time>2013-07-23T15:45:15.55</time>
<name>5200</name>
<sym>Dot</sym>
</trkpt>
<trkpt lat="48.900660" lon="20.019817">
<ele>1475.5</ele>
<desc>Speed 8.1 km/h Distance 10.60 km</desc>
<time>2013-07-23T15:45:16.55</time>
<name>5201</name>
<sym>Dot</sym>
</trkpt>
<trkpt lat="48.900662" lon="20.019787">
<ele>1476.0</ele>
<desc>Speed 8.1 km/h Distance 10.60 km</desc>
<time>2013-07-23T15:45:17.55</time>
<name>5202</name>
<sym>Dot</sym>
</trkpt>
<trkpt lat="48.900663" lon="20.019753">
<ele>1476.0</ele>
<desc>Speed 8.1 km/h Distance 10.61 km</desc>
<time>2013-07-23T15:45:18.55</time>
<name>5203</name>
<sym>Dot</sym>
</trkpt>
<trkpt lat="48.900665" lon="20.019720">
<ele>1476.0</ele>
<desc>Speed 8.8 km/h Distance 10.61 km</desc>
<time>2013-07-23T15:45:19.55</time>
<name>5204</name>
<sym>Dot</sym>
</trkpt>
<trkpt lat="48.900665" lon="20.019687">
<ele>1476.0</ele>
<desc>Speed 8.8 km/h Distance 10.61 km</desc>
<time>2013-07-23T15:45:20.55</time>
<name>5205</name>
<sym>Dot</sym>
</trkpt>
<trkpt lat="48.900662" lon="20.019655">
<ele>1476.5</ele>
<desc>Speed 8.5 km/h Distance 10.61 km</desc>
<time>2013-07-23T15:45:21.54</time>
<name>5206</name>
<sym>Dot</sym>
</trkpt>
<trkpt lat="48.900660" lon="20.019620">
<ele>1476.5</ele>
<desc>Speed 8.9 km/h Distance 10.61 km</desc>
<time>2013-07-23T15:45:22.54</time>
<name>5207</name>
<sym>Dot</sym>
</trkpt>
<trkpt lat="48.900657" lon="20.019585">
<ele>1476.5</ele>
<desc>Speed 9.5 km/h Distance 10.62 km</desc>
<time>2013-07-23T15:45:23.54</time>
<name>5208</name>
<sym>Dot</sym>
</trkpt>
<trkpt lat="48.900657" lon="20.019552">
<ele>1476.5</ele>
<desc>Speed 8.9 km/h Distance 10.62 km</desc>
<time>2013-07-23T15:45:24.54</time>
<name>5209</name>
<sym>Dot</sym>
</trkpt>
<trkpt lat="48.900657" lon="20.019520">
<ele>1476.5</ele>
<desc>Speed 8.4 km/h Distance 10.62 km</desc>
<time>2013-07-23T15:45:25.54</time>
<name>5210</name>
<sym>Dot</sym>
</trkpt>
<trkpt lat="48.900657" lon="20.019488">
<ele>1477.0</ele>
<desc>Speed 8.1 km/h Distance 10.62 km</desc>
<time>2013-07-23T15:45:26.53</time>
<name>5211</name>
<sym>Dot</sym>
</trkpt>
<trkpt lat="48.900655" lon="20.019463">
<ele>1477.0</ele>
<desc>Speed 6.7 km/h Distance 10.63 km</desc>
<time>2013-07-23T15:45:27.53</time>
<name>5212</name>
<sym>Dot</sym>
</trkpt>
<trkpt lat="48.900657" lon="20.019437">
<ele>1477.0</ele>
<desc>Speed 6.3 km/h Distance 10.63 km</desc>
<time>2013-07-23T15:45:28.53</time>
<name>5213</name>
<sym>Dot</sym>
</trkpt>
<trkpt lat="48.900660" lon="20.019415">
<ele>1477.0</ele>
<desc>Speed 5.7 km/h Distance 10.63 km</desc>
<time>2013-07-23T15:45:29.52</time>
<name>5214</name>
<sym>Dot</sym>
</trkpt>
<trkpt lat="48.900665" lon="20.019388">
<ele>1477.0</ele>
<desc>Speed 6.7 km/h Distance 10.63 km</desc>
<time>2013-07-23T15:45:30.52</time>
<name>5215</name>
<sym>Dot</sym>
</trkpt>
<trkpt lat="48.900670" lon="20.019358">
<ele>1476.5</ele>
<desc>Speed 7.4 km/h Distance 10.63 km</desc>
<time>2013-07-23T15:45:31.52</time>
<name>5216</name>
<sym>Dot</sym>
</trkpt>
<trkpt lat="48.900677" lon="20.019328">
<ele>1476.5</ele>
<desc>Speed 7.8 km/h Distance 10.64 km</desc>
<time>2013-07-23T15:45:32.51</time>
<name>5217</name>
<sym>Dot</sym>
</trkpt>
<trkpt lat="48.900683" lon="20.019297">
<ele>1476.0</ele>
<desc>Speed 7.7 km/h Distance 10.64 km</desc>
<time>2013-07-23T15:45:33.51</time>
<name>5218</name>
<sym>Dot</sym>
</trkpt>
<trkpt lat="48.900687" lon="20.019265">
<ele>1476.0</ele>
<desc>Speed 8.2 km/h Distance 10.64 km</desc>
<time>2013-07-23T15:45:34.50</time>
<name>5219</name>
<sym>Dot</sym>
</trkpt>
<trkpt lat="48.900692" lon="20.019233">
<ele>1476.0</ele>
<desc>Speed 8.2 km/h Distance 10.64 km</desc>
<time>2013-07-23T15:45:35.49</time>
<name>5220</name>
<sym>Dot</sym>
</trkpt>
<trkpt lat="48.900697" lon="20.019200">
<ele>1476.0</ele>
<desc>Speed 9.0 km/h Distance 10.65 km</desc>
<time>2013-07-23T15:45:36.49</time>
<name>5221</name>
<sym>Dot</sym>
</trkpt>
<trkpt lat="48.900698" lon="20.019163">
<ele>1476.0</ele>
<desc>Speed 9.6 km/h Distance 10.65 km</desc>
<time>2013-07-23T15:45:37.49</time>
<name>5222</name>
<sym>Dot</sym>
</trkpt>
<trkpt lat="48.900700" lon="20.019125">
<ele>1475.5</ele>
<desc>Speed 9.8 km/h Distance 10.65 km</desc>
<time>2013-07-23T15:45:38.49</time>
<name>5223</name>
<sym>Dot</sym>
</trkpt>
<trkpt lat="48.900703" lon="20.019090">
<ele>1476.0</ele>
<desc>Speed 9.3 km/h Distance 10.65 km</desc>
<time>2013-07-23T15:45:39.49</time>
<name>5224</name>
<sym>Dot</sym>
</trkpt>
<trkpt lat="48.900707" lon="20.019060">
<ele>1476.0</ele>
<desc>Speed 7.9 km/h Distance 10.66 km</desc>
<time>2013-07-23T15:45:40.49</time>
<name>5225</name>
<sym>Dot</sym>
</trkpt>
<trkpt lat="48.900710" lon="20.019032">
<ele>1475.5</ele>
<desc>Speed 7.5 km/h Distance 10.66 km</desc>
<time>2013-07-23T15:45:41.48</time>
<name>5226</name>
<sym>Dot</sym>
</trkpt>
<trkpt lat="48.900713" lon="20.019003">
<ele>1475.5</ele>
<desc>Speed 7.3 km/h Distance 10.66 km</desc>
<time>2013-07-23T15:45:42.48</time>
<name>5227</name>
<sym>Dot</sym>
</trkpt>
<trkpt lat="48.900715" lon="20.018977">
<ele>1475.5</ele>
<desc>Speed 7.1 km/h Distance 10.66 km</desc>
<time>2013-07-23T15:45:43.48</time>
<name>5228</name>
<sym>Dot</sym>
</trkpt>
<trkpt lat="48.900718" lon="20.018953">
<ele>1475.5</ele>
<desc>Speed 6.1 km/h Distance 10.66 km</desc>
<time>2013-07-23T15:45:44.48</time>
<name>5229</name>
<sym>Dot</sym>
</trkpt>
<trkpt lat="48.900722" lon="20.018930">
<ele>1475.5</ele>
<desc>Speed 5.8 km/h Distance 10.67 km</desc>
<time>2013-07-23T15:45:45.47</time>
<name>5230</name>
<sym>Dot</sym>
</trkpt>
<trkpt lat="48.900727" lon="20.018910">
<ele>1475.0</ele>
<desc>Speed 5.2 km/h Distance 10.67 km</desc>
<time>2013-07-23T15:45:46.47</time>
<name>5231</name>
<sym>Dot</sym>
</trkpt>
<trkpt lat="48.900728" lon="20.018887">
<ele>1475.0</ele>
<desc>Speed 6.3 km/h Distance 10.67 km</desc>
<time>2013-07-23T15:45:47.46</time>
<name>5232</name>
<sym>Dot</sym>
</trkpt>
<trkpt lat="48.900728" lon="20.018858">
<ele>1475.0</ele>
<desc>Speed 7.1 km/h Distance 10.67 km</desc>
<time>2013-07-23T15:45:48.46</time>
<name>5233</name>
<sym>Dot</sym>
</trkpt>
<trkpt lat="48.900732" lon="20.018833">
<ele>1475.0</ele>
<desc>Speed 6.4 km/h Distance 10.67 km</desc>
<time>2013-07-23T15:45:49.45</time>
<name>5234</name>
<sym>Dot</sym>
</trkpt>
<trkpt lat="48.900737" lon="20.018805">
<ele>1475.0</ele>
<desc>Speed 7.7 km/h Distance 10.68 km</desc>
<time>2013-07-23T15:45:50.45</time>
<name>5235</name>
<sym>Dot</sym>
</trkpt>
<trkpt lat="48.900742" lon="20.018775">
<ele>1475.0</ele>
<desc>Speed 8.2 km/h Distance 10.68 km</desc>
<time>2013-07-23T15:45:51.44</time>
<name>5236</name>
<sym>Dot</sym>
</trkpt>
<trkpt lat="48.900747" lon="20.018742">
<ele>1475.5</ele>
<desc>Speed 8.4 km/h Distance 10.68 km</desc>
<time>2013-07-23T15:45:52.52</time>
<name>5237</name>
<sym>Dot</sym>
</trkpt>
<trkpt lat="48.900752" lon="20.018707">
<ele>1475.0</ele>
<desc>Speed 9.5 km/h Distance 10.68 km</desc>
<time>2013-07-23T15:45:53.43</time>
<name>5238</name>
<sym>Dot</sym>
</trkpt>
<trkpt lat="48.900753" lon="20.018670">
<ele>1475.0</ele>
<desc>Speed 9.6 km/h Distance 10.69 km</desc>
<time>2013-07-23T15:45:54.43</time>
<name>5239</name>
<sym>Dot</sym>
</trkpt>
<trkpt lat="48.900752" lon="20.018633">
<ele>1475.0</ele>
<desc>Speed 9.4 km/h Distance 10.69 km</desc>
<time>2013-07-23T15:45:55.42</time>
<name>5240</name>
<sym>Dot</sym>
</trkpt>
<trkpt lat="48.900748" lon="20.018608">
<ele>1475.0</ele>
<desc>Speed 7.3 km/h Distance 10.69 km</desc>
<time>2013-07-23T15:45:56.48</time>
<name>5241</name>
<sym>Dot</sym>
</trkpt>
<trkpt lat="48.900750" lon="20.018585">
<ele>1475.5</ele>
<desc>Speed 6.3 km/h Distance 10.69 km</desc>
<time>2013-07-23T15:45:57.40</time>
<name>5242</name>
<sym>Dot</sym>
</trkpt>
<trkpt lat="48.900750" lon="20.018557">
<ele>1475.5</ele>
<desc>Speed 7.9 km/h Distance 10.69 km</desc>
<time>2013-07-23T15:45:58.40</time>
<name>5243</name>
<sym>Dot</sym>
</trkpt>
<trkpt lat="48.900753" lon="20.018525">
<ele>1475.0</ele>
<desc>Speed 7.9 km/h Distance 10.70 km</desc>
<time>2013-07-23T15:45:59.40</time>
<name>5244</name>
<sym>Dot</sym>
</trkpt>
<trkpt lat="48.900755" lon="20.018492">
<ele>1474.5</ele>
<desc>Speed 8.3 km/h Distance 10.70 km</desc>
<time>2013-07-23T15:46:00.39</time>
<name>5245</name>
<sym>Dot</sym>
</trkpt>
<trkpt lat="48.900757" lon="20.018462">
<ele>1474.5</ele>
<desc>Speed 7.4 km/h Distance 10.70 km</desc>
<time>2013-07-23T15:46:01.38</time>
<name>5246</name>
<sym>Dot</sym>
</trkpt>
<trkpt lat="48.900755" lon="20.018442">
<ele>1475.0</ele>
<desc>Speed 5.1 km/h Distance 10.70 km</desc>
<time>2013-07-23T15:46:02.38</time>
<name>5247</name>
<sym>Dot</sym>
</trkpt>
<trkpt lat="48.900747" lon="20.018425">
<ele>1475.0</ele>
<desc>Speed 4.8 km/h Distance 10.70 km</desc>
<time>2013-07-23T15:46:03.37</time>
<name>5248</name>
<sym>Dot</sym>
</trkpt>
<trkpt lat="48.900742" lon="20.018402">
<ele>1475.0</ele>
<desc>Speed 6.2 km/h Distance 10.71 km</desc>
<time>2013-07-23T15:46:04.37</time>
<name>5249</name>
<sym>Dot</sym>
</trkpt>
<trkpt lat="48.900717" lon="20.018368">
<ele>1473.0</ele>
<desc>Speed 13.2 km/h Distance 10.71 km</desc>
<time>2013-07-23T15:46:05.37</time>
<name>5250</name>
<sym>Dot</sym>
</trkpt>
<trkpt lat="48.900703" lon="20.018342">
<ele>1472.5</ele>
<desc>Speed 9.0 km/h Distance 10.71 km</desc>
<time>2013-07-23T15:46:06.37</time>
<name>5251</name>
<sym>Dot</sym>
</trkpt>
<trkpt lat="48.900693" lon="20.018313">
<ele>1472.5</ele>
<desc>Speed 8.2 km/h Distance 10.71 km</desc>
<time>2013-07-23T15:46:07.37</time>
<name>5252</name>
<sym>Dot</sym>
</trkpt>
<trkpt lat="48.900690" lon="20.018285">
<ele>1472.5</ele>
<desc>Speed 7.5 km/h Distance 10.72 km</desc>
<time>2013-07-23T15:46:08.37</time>
<name>5253</name>
<sym>Dot</sym>
</trkpt>
<trkpt lat="48.900683" lon="20.018258">
<ele>1473.0</ele>
<desc>Speed 7.7 km/h Distance 10.72 km</desc>
<time>2013-07-23T15:46:09.36</time>
<name>5254</name>
<sym>Dot</sym>
</trkpt>
<trkpt lat="48.900680" lon="20.018232">
<ele>1473.0</ele>
<desc>Speed 7.1 km/h Distance 10.72 km</desc>
<time>2013-07-23T15:46:10.35</time>
<name>5255</name>
<sym>Dot</sym>
</trkpt>
<trkpt lat="48.900673" lon="20.018205">
<ele>1473.0</ele>
<desc>Speed 7.3 km/h Distance 10.72 km</desc>
<time>2013-07-23T15:46:11.35</time>
<name>5256</name>
<sym>Dot</sym>
</trkpt>
<trkpt lat="48.900667" lon="20.018175">
<ele>1473.0</ele>
<desc>Speed 8.6 km/h Distance 10.72 km</desc>
<time>2013-07-23T15:46:12.34</time>
<name>5257</name>
<sym>Dot</sym>
</trkpt>
<trkpt lat="48.900660" lon="20.018148">
<ele>1473.5</ele>
<desc>Speed 7.5 km/h Distance 10.73 km</desc>
<time>2013-07-23T15:46:13.34</time>
<name>5258</name>
<sym>Dot</sym>
</trkpt>
<trkpt lat="48.900653" lon="20.018120">
<ele>1473.0</ele>
<desc>Speed 8.0 km/h Distance 10.73 km</desc>
<time>2013-07-23T15:46:14.33</time>
<name>5259</name>
<sym>Dot</sym>
</trkpt>
<trkpt lat="48.900653" lon="20.018097">
<ele>1473.5</ele>
<desc>Speed 6.0 km/h Distance 10.73 km</desc>
<time>2013-07-23T15:46:15.33</time>
<name>5260</name>
<sym>Dot</sym>
</trkpt>
<trkpt lat="48.900645" lon="20.018067">
<ele>1473.0</ele>
<desc>Speed 8.9 km/h Distance 10.73 km</desc>
<time>2013-07-23T15:46:16.33</time>
<name>5261</name>
<sym>Dot</sym>
</trkpt>
<trkpt lat="48.900645" lon="20.018040">
<ele>1474.0</ele>
<desc>Speed 7.1 km/h Distance 10.74 km</desc>
<time>2013-07-23T15:46:17.33</time>
<name>5262</name>
<sym>Dot</sym>
</trkpt>
<trkpt lat="48.900642" lon="20.018012">
<ele>1474.5</ele>
<desc>Speed 7.2 km/h Distance 10.74 km</desc>
<time>2013-07-23T15:46:18.33</time>
<name>5263</name>
<sym>Dot</sym>
</trkpt>
<trkpt lat="48.900640" lon="20.017983">
<ele>1475.0</ele>
<desc>Speed 7.8 km/h Distance 10.74 km</desc>
<time>2013-07-23T15:46:19.32</time>
<name>5264</name>
<sym>Dot</sym>
</trkpt>
<trkpt lat="48.900637" lon="20.017953">
<ele>1475.5</ele>
<desc>Speed 8.1 km/h Distance 10.74 km</desc>
<time>2013-07-23T15:46:20.33</time>
<name>5265</name>
<sym>Dot</sym>
</trkpt>
<trkpt lat="48.900622" lon="20.017925">
<ele>1476.0</ele>
<desc>Speed 9.6 km/h Distance 10.74 km</desc>
<time>2013-07-23T15:46:21.31</time>
<name>5266</name>
<sym>Dot</sym>
</trkpt>
<trkpt lat="48.900613" lon="20.017900">
<ele>1475.5</ele>
<desc>Speed 7.6 km/h Distance 10.75 km</desc>
<time>2013-07-23T15:46:22.31</time>
<name>5267</name>
<sym>Dot</sym>
</trkpt>
<trkpt lat="48.900612" lon="20.017873">
<ele>1475.5</ele>
<desc>Speed 6.7 km/h Distance 10.75 km</desc>
<time>2013-07-23T15:46:23.31</time>
<name>5268</name>
<sym>Dot</sym>
</trkpt>
<trkpt lat="48.900603" lon="20.017847">
<ele>1475.0</ele>
<desc>Speed 7.4 km/h Distance 10.75 km</desc>
<time>2013-07-23T15:46:24.30</time>
<name>5269</name>
<sym>Dot</sym>
</trkpt>
<trkpt lat="48.900590" lon="20.017820">
<ele>1473.5</ele>
<desc>Speed 9.0 km/h Distance 10.75 km</desc>
<time>2013-07-23T15:46:25.30</time>
<name>5270</name>
<sym>Dot</sym>
</trkpt>
<trkpt lat="48.900582" lon="20.017797">
<ele>1473.5</ele>
<desc>Speed 6.9 km/h Distance 10.75 km</desc>
<time>2013-07-23T15:46:26.30</time>
<name>5271</name>
<sym>Dot</sym>
</trkpt>
<trkpt lat="48.900575" lon="20.017773">
<ele>1473.5</ele>
<desc>Speed 6.4 km/h Distance 10.76 km</desc>
<time>2013-07-23T15:46:27.29</time>
<name>5272</name>
<sym>Dot</sym>
</trkpt>
<trkpt lat="48.900557" lon="20.017775">
<ele>1473.5</ele>
<desc>Speed 7.0 km/h Distance 10.76 km</desc>
<time>2013-07-23T15:46:28.28</time>
<name>5273</name>
<sym>Dot</sym>
</trkpt>
<trkpt lat="48.900548" lon="20.017763">
<ele>1473.5</ele>
<desc>Speed 4.4 km/h Distance 10.76 km</desc>
<time>2013-07-23T15:46:29.28</time>
<name>5274</name>
<sym>Dot</sym>
</trkpt>
<trkpt lat="48.900483" lon="20.017708">
<ele>1470.5</ele>
<desc>Speed 10.8 km/h Distance 10.77 km</desc>
<time>2013-07-23T15:46:31.28</time>
<name>5275</name>
<sym>Dot</sym>
</trkpt>
<trkpt lat="48.900463" lon="20.017690">
<ele>1471.0</ele>
<desc>Speed 10.0 km/h Distance 10.77 km</desc>
<time>2013-07-23T15:46:32.27</time>
<name>5276</name>
<sym>Dot</sym>
</trkpt>
<trkpt lat="48.900450" lon="20.017662">
<ele>1471.0</ele>
<desc>Speed 9.3 km/h Distance 10.77 km</desc>
<time>2013-07-23T15:46:33.28</time>
<name>5277</name>
<sym>Dot</sym>
</trkpt>
<trkpt lat="48.900440" lon="20.017638">
<ele>1470.5</ele>
<desc>Speed 6.8 km/h Distance 10.78 km</desc>
<time>2013-07-23T15:46:34.27</time>
<name>5278</name>
<sym>Dot</sym>
</trkpt>
<trkpt lat="48.900430" lon="20.017607">
<ele>1470.5</ele>
<desc>Speed 9.6 km/h Distance 10.78 km</desc>
<time>2013-07-23T15:46:35.26</time>
<name>5279</name>
<sym>Dot</sym>
</trkpt>
<trkpt lat="48.900427" lon="20.017570">
<ele>1470.5</ele>
<desc>Speed 9.0 km/h Distance 10.78 km</desc>
<time>2013-07-23T15:46:36.26</time>
<name>5280</name>
<sym>Dot</sym>
</trkpt>
<trkpt lat="48.900418" lon="20.017537">
<ele>1470.0</ele>
<desc>Speed 9.2 km/h Distance 10.78 km</desc>
<time>2013-07-23T15:46:37.25</time>
<name>5281</name>
<sym>Dot</sym>
</trkpt>
<trkpt lat="48.900413" lon="20.017502">
<ele>1469.5</ele>
<desc>Speed 9.4 km/h Distance 10.79 km</desc>
<time>2013-07-23T15:46:38.25</time>
<name>5282</name>
<sym>Dot</sym>
</trkpt>
<trkpt lat="48.900440" lon="20.017468">
<ele>1469.5</ele>
<desc>Speed 12.5 km/h Distance 10.79 km</desc>
<time>2013-07-23T15:46:39.25</time>
<name>5283</name>
<sym>Dot</sym>
</trkpt>
<trkpt lat="48.900437" lon="20.017438">
<ele>1469.5</ele>
<desc>Speed 8.5 km/h Distance 10.79 km</desc>
<time>2013-07-23T15:46:40.24</time>
<name>5284</name>
<sym>Dot</sym>
</trkpt>
<trkpt lat="48.900422" lon="20.017412">
<ele>1469.5</ele>
<desc>Speed 9.2 km/h Distance 10.79 km</desc>
<time>2013-07-23T15:46:41.24</time>
<name>5285</name>
<sym>Dot</sym>
</trkpt>
<trkpt lat="48.900408" lon="20.017382">
<ele>1469.5</ele>
<desc>Speed 9.4 km/h Distance 10.80 km</desc>
<time>2013-07-23T15:46:42.23</time>
<name>5286</name>
<sym>Dot</sym>
</trkpt>
<trkpt lat="48.900392" lon="20.017353">
<ele>1469.5</ele>
<desc>Speed 9.5 km/h Distance 10.80 km</desc>
<time>2013-07-23T15:46:43.22</time>
<name>5287</name>
<sym>Dot</sym>
</trkpt>
<trkpt lat="48.900377" lon="20.017322">
<ele>1469.5</ele>
<desc>Speed 9.1 km/h Distance 10.80 km</desc>
<time>2013-07-23T15:46:44.21</time>
<name>5288</name>
<sym>Dot</sym>
</trkpt>
<trkpt lat="48.900360" lon="20.017287">
<ele>1469.5</ele>
<desc>Speed 10.4 km/h Distance 10.81 km</desc>
<time>2013-07-23T15:46:45.21</time>
<name>5289</name>
<sym>Dot</sym>
</trkpt>
<trkpt lat="48.900348" lon="20.017250">
<ele>1469.0</ele>
<desc>Speed 9.8 km/h Distance 10.81 km</desc>
<time>2013-07-23T15:46:46.21</time>
<name>5290</name>
<sym>Dot</sym>
</trkpt>
<trkpt lat="48.900357" lon="20.017213">
<ele>1469.0</ele>
<desc>Speed 8.9 km/h Distance 10.81 km</desc>
<time>2013-07-23T15:46:47.21</time>
<name>5291</name>
<sym>Dot</sym>
</trkpt>
<trkpt lat="48.900362" lon="20.017180">
<ele>1468.5</ele>
<desc>Speed 7.4 km/h Distance 10.81 km</desc>
<time>2013-07-23T15:46:48.20</time>
<name>5292</name>
<sym>Dot</sym>
</trkpt>
<trkpt lat="48.900378" lon="20.017155">
<ele>1468.5</ele>
<desc>Speed 6.7 km/h Distance 10.82 km</desc>
<time>2013-07-23T15:46:49.19</time>
<name>5293</name>
<sym>Dot</sym>
</trkpt>
<trkpt lat="48.900393" lon="20.017133">
<ele>1468.5</ele>
<desc>Speed 6.6 km/h Distance 10.82 km</desc>
<time>2013-07-23T15:46:50.19</time>
<name>5294</name>
<sym>Dot</sym>
</trkpt>
<trkpt lat="48.900410" lon="20.017107">
<ele>1468.5</ele>
<desc>Speed 7.7 km/h Distance 10.82 km</desc>
<time>2013-07-23T15:46:51.24</time>
<name>5295</name>
<sym>Dot</sym>
</trkpt>
<trkpt lat="48.900430" lon="20.017083">
<ele>1468.5</ele>
<desc>Speed 7.4 km/h Distance 10.82 km</desc>
<time>2013-07-23T15:46:52.29</time>
<name>5296</name>
<sym>Dot</sym>
</trkpt>
<trkpt lat="48.900457" lon="20.017055">
<ele>1469.0</ele>
<desc>Speed 7.5 km/h Distance 10.83 km</desc>
<time>2013-07-23T15:46:53.17</time>
<name>5297</name>
<sym>Dot</sym>
</trkpt>
<trkpt lat="48.900475" lon="20.017022">
<ele>1469.5</ele>
<desc>Speed 7.3 km/h Distance 10.83 km</desc>
<time>2013-07-23T15:46:54.16</time>
<name>5298</name>
<sym>Dot</sym>
</trkpt>
<trkpt lat="48.900502" lon="20.016997">
<ele>1470.0</ele>
<desc>Speed 7.5 km/h Distance 10.84 km</desc>
<time>2013-07-23T15:46:55.16</time>
<name>5299</name>
<sym>Dot</sym>
</trkpt>
<trkpt lat="48.900515" lon="20.016970">
<ele>1470.5</ele>
<desc>Speed 7.1 km/h Distance 10.84 km</desc>
<time>2013-07-23T15:46:56.15</time>
<name>5300</name>
<sym>Dot</sym>
</trkpt>
<trkpt lat="48.900528" lon="20.016945">
<ele>1470.5</ele>
<desc>Speed 7.4 km/h Distance 10.84 km</desc>
<time>2013-07-23T15:46:57.15</time>
<name>5301</name>
<sym>Dot</sym>
</trkpt>
<trkpt lat="48.900535" lon="20.016917">
<ele>1471.0</ele>
<desc>Speed 7.4 km/h Distance 10.84 km</desc>
<time>2013-07-23T15:46:58.15</time>
<name>5302</name>
<sym>Dot</sym>
</trkpt>
<trkpt lat="48.900540" lon="20.016905">
<ele>1471.0</ele>
<desc>Speed 2.6 km/h Distance 10.84 km</desc>
<time>2013-07-23T15:46:59.14</time>
<name>5303</name>
<sym>Dot</sym>
</trkpt>
<trkpt lat="48.900558" lon="20.016872">
<ele>1467.5</ele>
<desc>Speed 2.2 km/h Distance 10.85 km</desc>
<time>2013-07-23T15:47:05.43</time>
<name>5304</name>
<sym>Dot</sym>
</trkpt>
<trkpt lat="48.900565" lon="20.016847">
<ele>1465.5</ele>
<desc>Speed 2.2 km/h Distance 10.85 km</desc>
<time>2013-07-23T15:47:16.14</time>
<name>5305</name>
<sym>Dot</sym>
</trkpt>
<trkpt lat="48.900583" lon="20.016862">
<ele>1465.5</ele>
<desc>Speed 3.0 km/h Distance 10.85 km</desc>
<time>2013-07-23T15:47:19.13</time>
<name>5306</name>
<sym>Dot</sym>
</trkpt>
<trkpt lat="48.900587" lon="20.016850">
<ele>1465.0</ele>
<desc>Speed 3.6 km/h Distance 10.85 km</desc>
<time>2013-07-23T15:47:20.13</time>
<name>5307</name>
<sym>Dot</sym>
</trkpt>
<trkpt lat="48.900583" lon="20.016818">
<ele>1464.0</ele>
<desc>Speed 2.2 km/h Distance 10.85 km</desc>
<time>2013-07-23T15:47:22.12</time>
<name>5308</name>
<sym>Dot</sym>
</trkpt>
<trkpt lat="48.900590" lon="20.016817">
<ele>1464.5</ele>
<desc>Speed 2.2 km/h Distance 10.85 km</desc>
<time>2013-07-23T15:47:23.12</time>
<name>5309</name>
<sym>Dot</sym>
</trkpt>
<trkpt lat="48.900598" lon="20.016807">
<ele>1464.5</ele>
<desc>Speed 3.5 km/h Distance 10.86 km</desc>
<time>2013-07-23T15:47:24.11</time>
<name>5310</name>
<sym>Dot</sym>
</trkpt>
<trkpt lat="48.900595" lon="20.016788">
<ele>1464.0</ele>
<desc>Speed 2.4 km/h Distance 10.86 km</desc>
<time>2013-07-23T15:47:25.10</time>
<name>5311</name>
<sym>Dot</sym>
</trkpt>
<trkpt lat="48.900588" lon="20.016783">
<ele>1464.0</ele>
<desc>Speed 3.9 km/h Distance 10.86 km</desc>
<time>2013-07-23T15:47:26.10</time>
<name>5312</name>
<sym>Dot</sym>
</trkpt>
<trkpt lat="48.900603" lon="20.016778">
<ele>1464.5</ele>
<desc>Speed 2.3 km/h Distance 10.86 km</desc>
<time>2013-07-23T15:47:32.11</time>
<name>5313</name>
<sym>Dot</sym>
</trkpt>
<trkpt lat="48.900613" lon="20.016785">
<ele>1466.0</ele>
<desc>Speed 2.2 km/h Distance 10.86 km</desc>
<time>2013-07-23T15:47:36.11</time>
<name>5314</name>
<sym>Dot</sym>
</trkpt>
<trkpt lat="48.900573" lon="20.016795">
<ele>1468.0</ele>
<desc>Speed 4.5 km/h Distance 10.87 km</desc>
<time>2013-07-23T15:48:03.10</time>
<name>5315</name>
<sym>Dot</sym>
</trkpt>
<trkpt lat="48.900582" lon="20.016800">
<ele>1468.0</ele>
<desc>Speed 4.5 km/h Distance 10.87 km</desc>
<time>2013-07-23T15:48:05.10</time>
<name>5316</name>
<sym>Dot</sym>
</trkpt>
<trkpt lat="48.900558" lon="20.016793">
<ele>1471.0</ele>
<desc>Speed 2.2 km/h Distance 10.87 km</desc>
<time>2013-07-23T15:48:11.09</time>
<name>5317</name>
<sym>Dot</sym>
</trkpt>
<trkpt lat="48.900555" lon="20.016782">
<ele>1472.0</ele>
<desc>Speed 3.6 km/h Distance 10.87 km</desc>
<time>2013-07-23T15:48:12.09</time>
<name>5318</name>
<sym>Dot</sym>
</trkpt>
<trkpt lat="48.900578" lon="20.016787">
<ele>1472.0</ele>
<desc>Speed 7.6 km/h Distance 10.87 km</desc>
<time>2013-07-23T15:48:13.08</time>
<name>5319</name>
<sym>Dot</sym>
</trkpt>
<trkpt lat="48.900577" lon="20.016795">
<ele>1472.5</ele>
<desc>Speed 4.5 km/h Distance 10.87 km</desc>
<time>2013-07-23T15:48:15.08</time>
<name>5320</name>
<sym>Dot</sym>
</trkpt>
<trkpt lat="48.900575" lon="20.016802">
<ele>1472.5</ele>
<desc>Speed 2.5 km/h Distance 10.87 km</desc>
<time>2013-07-23T15:48:16.07</time>
<name>5321</name>
<sym>Dot</sym>
</trkpt>
<trkpt lat="48.900582" lon="20.016773">
<ele>1470.0</ele>
<desc>Speed 4.5 km/h Distance 10.88 km</desc>
<time>2013-07-23T15:48:23.06</time>
<name>5322</name>
<sym>Dot</sym>
</trkpt>
<trkpt lat="48.900545" lon="20.016752">
<ele>1472.5</ele>
<desc>Speed 3.7 km/h Distance 10.88 km</desc>
<time>2013-07-23T15:49:29.05</time>
<name>5323</name>
<sym>Dot</sym>
</trkpt>
<trkpt lat="48.900548" lon="20.016748">
<ele>1473.0</ele>
<desc>Speed 2.9 km/h Distance 10.88 km</desc>
<time>2013-07-23T15:50:11.05</time>
<name>5324</name>
<sym>Dot</sym>
</trkpt>
<trkpt lat="48.900528" lon="20.016798">
<ele>1473.5</ele>
<desc>Speed 2.4 km/h Distance 10.89 km</desc>
<time>2013-07-23T15:50:53.03</time>
<name>5325</name>
<sym>Dot</sym>
</trkpt>
<trkpt lat="48.900513" lon="20.016790">
<ele>1474.0</ele>
<desc>Speed 2.7 km/h Distance 10.89 km</desc>
<time>2013-07-23T15:50:54.03</time>
<name>5326</name>
<sym>Dot</sym>
</trkpt>
<trkpt lat="48.900603" lon="20.016782">
<ele>1474.0</ele>
<desc>Speed 4.3 km/h Distance 10.90 km</desc>
<time>2013-07-23T15:51:19.02</time>
<name>5327</name>
<sym>Dot</sym>
</trkpt>
<trkpt lat="48.900567" lon="20.016758">
<ele>1472.5</ele>
<desc>Speed 3.3 km/h Distance 10.90 km</desc>
<time>2013-07-23T15:52:08.01</time>
<name>5328</name>
<sym>Dot</sym>
</trkpt>
<trkpt lat="48.900572" lon="20.016758">
<ele>1471.5</ele>
<desc>Speed 2.3 km/h Distance 10.90 km</desc>
<time>2013-07-23T15:52:12.01</time>
<name>5329</name>
<sym>Dot</sym>
</trkpt>
<trkpt lat="48.900567" lon="20.016755">
<ele>1471.5</ele>
<desc>Speed 2.4 km/h Distance 10.90 km</desc>
<time>2013-07-23T15:52:13.01</time>
<name>5330</name>
<sym>Dot</sym>
</trkpt>
<trkpt lat="48.900563" lon="20.016755">
<ele>1471.5</ele>
<desc>Speed 4.4 km/h Distance 10.90 km</desc>
<time>2013-07-23T15:52:18.00</time>
<name>5331</name>
<sym>Dot</sym>
</trkpt>
<trkpt lat="48.900572" lon="20.016765">
<ele>1471.0</ele>
<desc>Speed 4.6 km/h Distance 10.90 km</desc>
<time>2013-07-23T15:52:37.00</time>
<name>5332</name>
<sym>Dot</sym>
</trkpt>
<trkpt lat="48.900587" lon="20.016752">
<ele>1471.0</ele>
<desc>Speed 6.7 km/h Distance 10.91 km</desc>
<time>2013-07-23T15:52:37.99</time>
<name>5333</name>
<sym>Dot</sym>
</trkpt>
<trkpt lat="48.900598" lon="20.016730">
<ele>1471.0</ele>
<desc>Speed 7.8 km/h Distance 10.91 km</desc>
<time>2013-07-23T15:52:38.99</time>
<name>5334</name>
<sym>Dot</sym>
</trkpt>
<trkpt lat="48.900612" lon="20.016697">
<ele>1471.0</ele>
<desc>Speed 9.5 km/h Distance 10.91 km</desc>
<time>2013-07-23T15:52:39.98</time>
<name>5335</name>
<sym>Dot</sym>
</trkpt>
<trkpt lat="48.900615" lon="20.016653">
<ele>1471.0</ele>
<desc>Speed 11.2 km/h Distance 10.91 km</desc>
<time>2013-07-23T15:52:41.08</time>
<name>5336</name>
<sym>Dot</sym>
</trkpt>
<trkpt lat="48.900617" lon="20.016605">
<ele>1471.5</ele>
<desc>Speed 11.8 km/h Distance 10.92 km</desc>
<time>2013-07-23T15:52:41.97</time>
<name>5337</name>
<sym>Dot</sym>
</trkpt>
<trkpt lat="48.900630" lon="20.016562">
<ele>1471.5</ele>
<desc>Speed 12.3 km/h Distance 10.92 km</desc>
<time>2013-07-23T15:52:42.97</time>
<name>5338</name>
<sym>Dot</sym>
</trkpt>
<trkpt lat="48.900647" lon="20.016518">
<ele>1471.5</ele>
<desc>Speed 12.5 km/h Distance 10.92 km</desc>
<time>2013-07-23T15:52:43.98</time>
<name>5339</name>
<sym>Dot</sym>
</trkpt>
<trkpt lat="48.900663" lon="20.016473">
<ele>1471.5</ele>
<desc>Speed 12.3 km/h Distance 10.93 km</desc>
<time>2013-07-23T15:52:44.96</time>
<name>5340</name>
<sym>Dot</sym>
</trkpt>
<trkpt lat="48.900680" lon="20.016427">
<ele>1471.5</ele>
<desc>Speed 12.6 km/h Distance 10.93 km</desc>
<time>2013-07-23T15:52:45.96</time>
<name>5341</name>
<sym>Dot</sym>
</trkpt>
<trkpt lat="48.900698" lon="20.016380">
<ele>1471.5</ele>
<desc>Speed 12.9 km/h Distance 10.94 km</desc>
<time>2013-07-23T15:52:46.95</time>
<name>5342</name>
<sym>Dot</sym>
</trkpt>
<trkpt lat="48.900718" lon="20.016327">
<ele>1471.5</ele>
<desc>Speed 14.0 km/h Distance 10.94 km</desc>
<time>2013-07-23T15:52:47.95</time>
<name>5343</name>
<sym>Dot</sym>
</trkpt>
<trkpt lat="48.900737" lon="20.016285">
<ele>1471.5</ele>
<desc>Speed 12.9 km/h Distance 10.94 km</desc>
<time>2013-07-23T15:52:48.97</time>
<name>5344</name>
<sym>Dot</sym>
</trkpt>
<trkpt lat="48.900758" lon="20.016240">
<ele>1471.5</ele>
<desc>Speed 13.7 km/h Distance 10.95 km</desc>
<time>2013-07-23T15:52:49.93</time>
<name>5345</name>
<sym>Dot</sym>
</trkpt>
<trkpt lat="48.900777" lon="20.016198">
<ele>1471.5</ele>
<desc>Speed 12.4 km/h Distance 10.95 km</desc>
<time>2013-07-23T15:52:50.92</time>
<name>5346</name>
<sym>Dot</sym>
</trkpt>
<trkpt lat="48.900793" lon="20.016158">
<ele>1471.5</ele>
<desc>Speed 11.5 km/h Distance 10.96 km</desc>
<time>2013-07-23T15:52:51.92</time>
<name>5347</name>
<sym>Dot</sym>
</trkpt>
<trkpt lat="48.900808" lon="20.016118">
<ele>1471.5</ele>
<desc>Speed 11.0 km/h Distance 10.96 km</desc>
<time>2013-07-23T15:52:52.91</time>
<name>5348</name>
<sym>Dot</sym>
</trkpt>
<trkpt lat="48.900822" lon="20.016078">
<ele>1471.5</ele>
<desc>Speed 10.8 km/h Distance 10.96 km</desc>
<time>2013-07-23T15:52:53.90</time>
<name>5349</name>
<sym>Dot</sym>
</trkpt>
<trkpt lat="48.900835" lon="20.016035">
<ele>1471.5</ele>
<desc>Speed 11.8 km/h Distance 10.97 km</desc>
<time>2013-07-23T15:52:54.90</time>
<name>5350</name>
<sym>Dot</sym>
</trkpt>
<trkpt lat="48.900848" lon="20.015990">
<ele>1471.5</ele>
<desc>Speed 12.0 km/h Distance 10.97 km</desc>
<time>2013-07-23T15:52:55.90</time>
<name>5351</name>
<sym>Dot</sym>
</trkpt>
<trkpt lat="48.900857" lon="20.015943">
<ele>1471.5</ele>
<desc>Speed 11.8 km/h Distance 10.97 km</desc>
<time>2013-07-23T15:52:56.90</time>
<name>5352</name>
<sym>Dot</sym>
</trkpt>
<trkpt lat="48.900863" lon="20.015892">
<ele>1471.5</ele>
<desc>Speed 12.7 km/h Distance 10.98 km</desc>
<time>2013-07-23T15:52:57.89</time>
<name>5353</name>
<sym>Dot</sym>
</trkpt>
<trkpt lat="48.900877" lon="20.015843">
<ele>1471.0</ele>
<desc>Speed 13.1 km/h Distance 10.98 km</desc>
<time>2013-07-23T15:52:58.89</time>
<name>5354</name>
<sym>Dot</sym>
</trkpt>
<trkpt lat="48.900895" lon="20.015797">
<ele>1471.0</ele>
<desc>Speed 13.6 km/h Distance 10.98 km</desc>
<time>2013-07-23T15:52:59.89</time>
<name>5355</name>
<sym>Dot</sym>
</trkpt>
<trkpt lat="48.900912" lon="20.015747">
<ele>1471.0</ele>
<desc>Speed 14.3 km/h Distance 10.99 km</desc>
<time>2013-07-23T15:53:00.93</time>
<name>5356</name>
<sym>Dot</sym>
</trkpt>
<trkpt lat="48.900928" lon="20.015698">
<ele>1471.0</ele>
<desc>Speed 14.2 km/h Distance 10.99 km</desc>
<time>2013-07-23T15:53:01.91</time>
<name>5357</name>
<sym>Dot</sym>
</trkpt>
<trkpt lat="48.900945" lon="20.015650">
<ele>1471.0</ele>
<desc>Speed 14.1 km/h Distance 11.00 km</desc>
<time>2013-07-23T15:53:02.87</time>
<name>5358</name>
<sym>Dot</sym>
</trkpt>
<trkpt lat="48.900988" lon="20.015640">
<ele>1471.0</ele>
<desc>Speed 17.8 km/h Distance 11.00 km</desc>
<time>2013-07-23T15:53:03.86</time>
<name>5359</name>
<sym>Dot</sym>
</trkpt>
<trkpt lat="48.901007" lon="20.015605">
<ele>1471.0</ele>
<desc>Speed 11.3 km/h Distance 11.01 km</desc>
<time>2013-07-23T15:53:04.86</time>
<name>5360</name>
<sym>Dot</sym>
</trkpt>
<trkpt lat="48.901023" lon="20.015575">
<ele>1471.0</ele>
<desc>Speed 10.3 km/h Distance 11.01 km</desc>
<time>2013-07-23T15:53:05.85</time>
<name>5361</name>
<sym>Dot</sym>
</trkpt>
<trkpt lat="48.901032" lon="20.015538">
<ele>1471.0</ele>
<desc>Speed 10.0 km/h Distance 11.01 km</desc>
<time>2013-07-23T15:53:06.85</time>
<name>5362</name>
<sym>Dot</sym>
</trkpt>
<trkpt lat="48.901045" lon="20.015503">
<ele>1471.0</ele>
<desc>Speed 10.4 km/h Distance 11.01 km</desc>
<time>2013-07-23T15:53:07.85</time>
<name>5363</name>
<sym>Dot</sym>
</trkpt>
<trkpt lat="48.901082" lon="20.015508">
<ele>1471.0</ele>
<desc>Speed 15.4 km/h Distance 11.02 km</desc>
<time>2013-07-23T15:53:08.84</time>
<name>5364</name>
<sym>Dot</sym>
</trkpt>
<trkpt lat="48.901097" lon="20.015465">
<ele>1471.0</ele>
<desc>Speed 6.3 km/h Distance 11.02 km</desc>
<time>2013-07-23T15:53:10.84</time>
<name>5365</name>
<sym>Dot</sym>
</trkpt>
<trkpt lat="48.901097" lon="20.015438">
<ele>1471.0</ele>
<desc>Speed 6.8 km/h Distance 11.02 km</desc>
<time>2013-07-23T15:53:11.84</time>
<name>5366</name>
<sym>Dot</sym>
</trkpt>
<trkpt lat="48.901093" lon="20.015412">
<ele>1471.0</ele>
<desc>Speed 5.9 km/h Distance 11.03 km</desc>
<time>2013-07-23T15:53:12.83</time>
<name>5367</name>
<sym>Dot</sym>
</trkpt>
<trkpt lat="48.901085" lon="20.015378">
<ele>1471.0</ele>
<desc>Speed 7.4 km/h Distance 11.03 km</desc>
<time>2013-07-23T15:53:13.83</time>
<name>5368</name>
<sym>Dot</sym>
</trkpt>
<trkpt lat="48.901083" lon="20.015350">
<ele>1472.0</ele>
<desc>Speed 6.8 km/h Distance 11.03 km</desc>
<time>2013-07-23T15:53:14.82</time>
<name>5369</name>
<sym>Dot</sym>
</trkpt>
<trkpt lat="48.901082" lon="20.015328">
<ele>1472.5</ele>
<desc>Speed 5.1 km/h Distance 11.03 km</desc>
<time>2013-07-23T15:53:15.82</time>
<name>5370</name>
<sym>Dot</sym>
</trkpt>
<trkpt lat="48.901080" lon="20.015305">
<ele>1472.5</ele>
<desc>Speed 5.7 km/h Distance 11.03 km</desc>
<time>2013-07-23T15:53:16.81</time>
<name>5371</name>
<sym>Dot</sym>
</trkpt>
<trkpt lat="48.901083" lon="20.015283">
<ele>1472.5</ele>
<desc>Speed 5.3 km/h Distance 11.04 km</desc>
<time>2013-07-23T15:53:17.81</time>
<name>5372</name>
<sym>Dot</sym>
</trkpt>
<trkpt lat="48.901087" lon="20.015265">
<ele>1472.5</ele>
<desc>Speed 4.6 km/h Distance 11.04 km</desc>
<time>2013-07-23T15:53:18.80</time>
<name>5373</name>
<sym>Dot</sym>
</trkpt>
<trkpt lat="48.901093" lon="20.015242">
<ele>1472.0</ele>
<desc>Speed 5.8 km/h Distance 11.04 km</desc>
<time>2013-07-23T15:53:19.80</time>
<name>5374</name>
<sym>Dot</sym>
</trkpt>
<trkpt lat="48.901097" lon="20.015220">
<ele>1472.0</ele>
<desc>Speed 5.8 km/h Distance 11.04 km</desc>
<time>2013-07-23T15:53:20.79</time>
<name>5375</name>
<sym>Dot</sym>
</trkpt>
<trkpt lat="48.901103" lon="20.015193">
<ele>1471.5</ele>
<desc>Speed 7.0 km/h Distance 11.04 km</desc>
<time>2013-07-23T15:53:21.79</time>
<name>5376</name>
<sym>Dot</sym>
</trkpt>
<trkpt lat="48.901112" lon="20.015170">
<ele>1471.5</ele>
<desc>Speed 6.8 km/h Distance 11.04 km</desc>
<time>2013-07-23T15:53:22.78</time>
<name>5377</name>
<sym>Dot</sym>
</trkpt>
<trkpt lat="48.901122" lon="20.015145">
<ele>1471.5</ele>
<desc>Speed 6.8 km/h Distance 11.05 km</desc>
<time>2013-07-23T15:53:23.77</time>
<name>5378</name>
<sym>Dot</sym>
</trkpt>
<trkpt lat="48.901137" lon="20.015125">
<ele>1471.0</ele>
<desc>Speed 7.6 km/h Distance 11.05 km</desc>
<time>2013-07-23T15:53:24.77</time>
<name>5379</name>
<sym>Dot</sym>
</trkpt>
<trkpt lat="48.901147" lon="20.015103">
<ele>1471.0</ele>
<desc>Speed 6.7 km/h Distance 11.05 km</desc>
<time>2013-07-23T15:53:25.77</time>
<name>5380</name>
<sym>Dot</sym>
</trkpt>
<trkpt lat="48.901142" lon="20.015065">
<ele>1471.0</ele>
<desc>Speed 10.0 km/h Distance 11.05 km</desc>
<time>2013-07-23T15:53:26.76</time>
<name>5381</name>
<sym>Dot</sym>
</trkpt>
<trkpt lat="48.901155" lon="20.015023">
<ele>1470.5</ele>
<desc>Speed 12.0 km/h Distance 11.06 km</desc>
<time>2013-07-23T15:53:27.75</time>
<name>5382</name>
<sym>Dot</sym>
</trkpt>
<trkpt lat="48.901173" lon="20.014987">
<ele>1470.0</ele>
<desc>Speed 11.9 km/h Distance 11.06 km</desc>
<time>2013-07-23T15:53:28.75</time>
<name>5383</name>
<sym>Dot</sym>
</trkpt>
<trkpt lat="48.901192" lon="20.014942">
<ele>1469.5</ele>
<desc>Speed 13.5 km/h Distance 11.06 km</desc>
<time>2013-07-23T15:53:29.74</time>
<name>5384</name>
<sym>Dot</sym>
</trkpt>
<trkpt lat="48.901212" lon="20.014895">
<ele>1469.0</ele>
<desc>Speed 13.8 km/h Distance 11.07 km</desc>
<time>2013-07-23T15:53:30.73</time>
<name>5385</name>
<sym>Dot</sym>
</trkpt>
<trkpt lat="48.901225" lon="20.014855">
<ele>1469.0</ele>
<desc>Speed 11.6 km/h Distance 11.07 km</desc>
<time>2013-07-23T15:53:31.73</time>
<name>5386</name>
<sym>Dot</sym>
</trkpt>
<trkpt lat="48.901247" lon="20.014807">
<ele>1468.0</ele>
<desc>Speed 14.9 km/h Distance 11.08 km</desc>
<time>2013-07-23T15:53:32.73</time>
<name>5387</name>
<sym>Dot</sym>
</trkpt>
<trkpt lat="48.901262" lon="20.014747">
<ele>1468.0</ele>
<desc>Speed 15.6 km/h Distance 11.08 km</desc>
<time>2013-07-23T15:53:33.73</time>
<name>5388</name>
<sym>Dot</sym>
</trkpt>
<trkpt lat="48.901283" lon="20.014690">
<ele>1467.5</ele>
<desc>Speed 16.2 km/h Distance 11.08 km</desc>
<time>2013-07-23T15:53:34.72</time>
<name>5389</name>
<sym>Dot</sym>
</trkpt>
<trkpt lat="48.901293" lon="20.014637">
<ele>1467.5</ele>
<desc>Speed 14.1 km/h Distance 11.09 km</desc>
<time>2013-07-23T15:53:35.73</time>
<name>5390</name>
<sym>Dot</sym>
</trkpt>
<trkpt lat="48.901315" lon="20.014600">
<ele>1467.5</ele>
<desc>Speed 11.9 km/h Distance 11.09 km</desc>
<time>2013-07-23T15:53:36.71</time>
<name>5391</name>
<sym>Dot</sym>
</trkpt>
<trkpt lat="48.901302" lon="20.014590">
<ele>1469.5</ele>
<desc>Speed 5.8 km/h Distance 11.09 km</desc>
<time>2013-07-23T15:53:37.82</time>
<name>5392</name>
<sym>Dot</sym>
</trkpt>
<trkpt lat="48.901288" lon="20.014593">
<ele>1469.5</ele>
<desc>Speed 5.2 km/h Distance 11.10 km</desc>
<time>2013-07-23T15:53:38.71</time>
<name>5393</name>
<sym>Dot</sym>
</trkpt>
<trkpt lat="48.901297" lon="20.014567">
<ele>1469.5</ele>
<desc>Speed 7.2 km/h Distance 11.10 km</desc>
<time>2013-07-23T15:53:45.70</time>
<name>5394</name>
<sym>Dot</sym>
</trkpt>
<trkpt lat="48.901320" lon="20.014538">
<ele>1469.5</ele>
<desc>Speed 11.4 km/h Distance 11.10 km</desc>
<time>2013-07-23T15:53:46.69</time>
<name>5395</name>
<sym>Dot</sym>
</trkpt>
<trkpt lat="48.901325" lon="20.014498">
<ele>1469.5</ele>
<desc>Speed 10.7 km/h Distance 11.10 km</desc>
<time>2013-07-23T15:53:47.71</time>
<name>5396</name>
<sym>Dot</sym>
</trkpt>
<trkpt lat="48.901345" lon="20.014455">
<ele>1469.0</ele>
<desc>Speed 13.4 km/h Distance 11.11 km</desc>
<time>2013-07-23T15:53:48.68</time>
<name>5397</name>
<sym>Dot</sym>
</trkpt>
<trkpt lat="48.901362" lon="20.014407">
<ele>1468.5</ele>
<desc>Speed 14.1 km/h Distance 11.11 km</desc>
<time>2013-07-23T15:53:49.68</time>
<name>5398</name>
<sym>Dot</sym>
</trkpt>
<trkpt lat="48.901380" lon="20.014357">
<ele>1468.5</ele>
<desc>Speed 14.7 km/h Distance 11.12 km</desc>
<time>2013-07-23T15:53:50.67</time>
<name>5399</name>
<sym>Dot</sym>
</trkpt>
<trkpt lat="48.901398" lon="20.014305">
<ele>1468.0</ele>
<desc>Speed 15.4 km/h Distance 11.12 km</desc>
<time>2013-07-23T15:53:51.66</time>
<name>5400</name>
<sym>Dot</sym>
</trkpt>
<trkpt lat="48.901420" lon="20.014257">
<ele>1468.0</ele>
<desc>Speed 14.9 km/h Distance 11.12 km</desc>
<time>2013-07-23T15:53:52.66</time>
<name>5401</name>
<sym>Dot</sym>
</trkpt>
<trkpt lat="48.901440" lon="20.014207">
<ele>1468.0</ele>
<desc>Speed 15.2 km/h Distance 11.13 km</desc>
<time>2013-07-23T15:53:53.66</time>
<name>5402</name>
<sym>Dot</sym>
</trkpt>
<trkpt lat="48.901462" lon="20.014150">
<ele>1467.5</ele>
<desc>Speed 16.5 km/h Distance 11.13 km</desc>
<time>2013-07-23T15:53:54.65</time>
<name>5403</name>
<sym>Dot</sym>
</trkpt>
<trkpt lat="48.901468" lon="20.014087">
<ele>1468.0</ele>
<desc>Speed 17.0 km/h Distance 11.14 km</desc>
<time>2013-07-23T15:53:55.65</time>
<name>5404</name>
<sym>Dot</sym>
</trkpt>
<trkpt lat="48.901480" lon="20.014037">
<ele>1468.0</ele>
<desc>Speed 13.8 km/h Distance 11.14 km</desc>
<time>2013-07-23T15:53:56.64</time>
<name>5405</name>
<sym>Dot</sym>
</trkpt>
<trkpt lat="48.901515" lon="20.014002">
<ele>1466.5</ele>
<desc>Speed 16.8 km/h Distance 11.15 km</desc>
<time>2013-07-23T15:53:57.75</time>
<name>5406</name>
<sym>Dot</sym>
</trkpt>
<trkpt lat="48.901525" lon="20.013957">
<ele>1466.5</ele>
<desc>Speed 12.2 km/h Distance 11.15 km</desc>
<time>2013-07-23T15:53:58.64</time>
<name>5407</name>
<sym>Dot</sym>
</trkpt>
<trkpt lat="48.901533" lon="20.013918">
<ele>1466.5</ele>
<desc>Speed 10.4 km/h Distance 11.15 km</desc>
<time>2013-07-23T15:53:59.63</time>
<name>5408</name>
<sym>Dot</sym>
</trkpt>
<trkpt lat="48.901540" lon="20.013880">
<ele>1466.5</ele>
<desc>Speed 10.2 km/h Distance 11.16 km</desc>
<time>2013-07-23T15:54:00.62</time>
<name>5409</name>
<sym>Dot</sym>
</trkpt>
<trkpt lat="48.901547" lon="20.013845">
<ele>1466.5</ele>
<desc>Speed 9.6 km/h Distance 11.16 km</desc>
<time>2013-07-23T15:54:01.62</time>
<name>5410</name>
<sym>Dot</sym>
</trkpt>
<trkpt lat="48.901553" lon="20.013820">
<ele>1467.0</ele>
<desc>Speed 7.6 km/h Distance 11.16 km</desc>
<time>2013-07-23T15:54:02.67</time>
<name>5411</name>
<sym>Dot</sym>
</trkpt>
<trkpt lat="48.901557" lon="20.013800">
<ele>1467.0</ele>
<desc>Speed 5.3 km/h Distance 11.16 km</desc>
<time>2013-07-23T15:54:03.60</time>
<name>5412</name>
<sym>Dot</sym>
</trkpt>
<trkpt lat="48.901562" lon="20.013785">
<ele>1466.5</ele>
<desc>Speed 4.1 km/h Distance 11.16 km</desc>
<time>2013-07-23T15:54:04.69</time>
<name>5413</name>
<sym>Dot</sym>
</trkpt>
<trkpt lat="48.901567" lon="20.013772">
<ele>1466.5</ele>
<desc>Speed 3.6 km/h Distance 11.16 km</desc>
<time>2013-07-23T15:54:05.59</time>
<name>5414</name>
<sym>Dot</sym>
</trkpt>
<trkpt lat="48.901565" lon="20.013763">
<ele>1465.0</ele>
<desc>Speed 4.9 km/h Distance 11.17 km</desc>
<time>2013-07-23T15:54:13.59</time>
<name>5415</name>
<sym>Dot</sym>
</trkpt>
<trkpt lat="48.901540" lon="20.013703">
<ele>1464.5</ele>
<desc>Speed 3.5 km/h Distance 11.17 km</desc>
<time>2013-07-23T15:55:16.58</time>
<name>5416</name>
<sym>Dot</sym>
</trkpt>
<trkpt lat="48.901530" lon="20.013705">
<ele>1464.5</ele>
<desc>Speed 3.5 km/h Distance 11.17 km</desc>
<time>2013-07-23T15:55:17.58</time>
<name>5417</name>
<sym>Dot</sym>
</trkpt>
<trkpt lat="48.901522" lon="20.013702">
<ele>1464.5</ele>
<desc>Speed 2.6 km/h Distance 11.17 km</desc>
<time>2013-07-23T15:55:18.58</time>
<name>5418</name>
<sym>Dot</sym>
</trkpt>
<trkpt lat="48.901558" lon="20.013662">
<ele>1464.0</ele>
<desc>Speed 3.5 km/h Distance 11.18 km</desc>
<time>2013-07-23T15:56:12.57</time>
<name>5419</name>
<sym>Dot</sym>
</trkpt>
<trkpt lat="48.901550" lon="20.013670">
<ele>1464.0</ele>
<desc>Speed 4.5 km/h Distance 11.18 km</desc>
<time>2013-07-23T15:56:13.57</time>
<name>5420</name>
<sym>Dot</sym>
</trkpt>
<trkpt lat="48.901575" lon="20.013647">
<ele>1463.0</ele>
<desc>Speed 4.5 km/h Distance 11.18 km</desc>
<time>2013-07-23T15:56:54.56</time>
<name>5421</name>
<sym>Dot</sym>
</trkpt>
<trkpt lat="48.901582" lon="20.013647">
<ele>1463.0</ele>
<desc>Speed 2.4 km/h Distance 11.18 km</desc>
<time>2013-07-23T15:59:03.55</time>
<name>5422</name>
<sym>Dot</sym>
</trkpt>
<trkpt lat="48.901612" lon="20.013657">
<ele>1464.0</ele>
<desc>Speed 2.2 km/h Distance 11.19 km</desc>
<time>2013-07-23T15:59:44.54</time>
<name>5423</name>
<sym>Dot</sym>
</trkpt>
<trkpt lat="48.901635" lon="20.013657">
<ele>1463.5</ele>
<desc>Speed 3.2 km/h Distance 11.19 km</desc>
<time>2013-07-23T16:00:07.53</time>
<name>5424</name>
<sym>Dot</sym>
</trkpt>
<trkpt lat="48.901552" lon="20.013682">
<ele>1460.5</ele>
<desc>Speed 4.4 km/h Distance 11.20 km</desc>
<time>2013-07-23T16:00:16.53</time>
<name>5425</name>
<sym>Dot</sym>
</trkpt>
<trkpt lat="48.901563" lon="20.013687">
<ele>1460.5</ele>
<desc>Speed 4.0 km/h Distance 11.20 km</desc>
<time>2013-07-23T16:00:18.53</time>
<name>5426</name>
<sym>Dot</sym>
</trkpt>
<trkpt lat="48.901553" lon="20.013682">
<ele>1461.5</ele>
<desc>Speed 2.7 km/h Distance 11.20 km</desc>
<time>2013-07-23T16:00:22.53</time>
<name>5427</name>
<sym>Dot</sym>
</trkpt>
<trkpt lat="48.901550" lon="20.013673">
<ele>1462.0</ele>
<desc>Speed 2.7 km/h Distance 11.20 km</desc>
<time>2013-07-23T16:00:23.52</time>
<name>5428</name>
<sym>Dot</sym>
</trkpt>
<trkpt lat="48.901532" lon="20.013668">
<ele>1463.0</ele>
<desc>Speed 3.1 km/h Distance 11.20 km</desc>
<time>2013-07-23T16:00:25.51</time>
<name>5429</name>
<sym>Dot</sym>
</trkpt>
<trkpt lat="48.901545" lon="20.013677">
<ele>1464.0</ele>
<desc>Speed 2.6 km/h Distance 11.21 km</desc>
<time>2013-07-23T16:00:26.51</time>
<name>5430</name>
<sym>Dot</sym>
</trkpt>
<trkpt lat="48.901552" lon="20.013700">
<ele>1465.0</ele>
<desc>Speed 2.5 km/h Distance 11.21 km</desc>
<time>2013-07-23T16:00:27.51</time>
<name>5431</name>
<sym>Dot</sym>
</trkpt>
<trkpt lat="48.901558" lon="20.013710">
<ele>1465.0</ele>
<desc>Speed 3.1 km/h Distance 11.21 km</desc>
<time>2013-07-23T16:00:28.51</time>
<name>5432</name>
<sym>Dot</sym>
</trkpt>
<trkpt lat="48.901568" lon="20.013718">
<ele>1465.5</ele>
<desc>Speed 3.7 km/h Distance 11.21 km</desc>
<time>2013-07-23T16:00:29.50</time>
<name>5433</name>
<sym>Dot</sym>
</trkpt>
<trkpt lat="48.901582" lon="20.013722">
<ele>1466.0</ele>
<desc>Speed 4.3 km/h Distance 11.21 km</desc>
<time>2013-07-23T16:00:30.49</time>
<name>5434</name>
<sym>Dot</sym>
</trkpt>
<trkpt lat="48.901593" lon="20.013720">
<ele>1466.0</ele>
<desc>Speed 3.5 km/h Distance 11.21 km</desc>
<time>2013-07-23T16:00:31.68</time>
<name>5435</name>
<sym>Dot</sym>
</trkpt>
<trkpt lat="48.901605" lon="20.013717">
<ele>1466.0</ele>
<desc>Speed 4.8 km/h Distance 11.21 km</desc>
<time>2013-07-23T16:00:32.49</time>
<name>5436</name>
<sym>Dot</sym>
</trkpt>
<trkpt lat="48.901622" lon="20.013715">
<ele>1466.0</ele>
<desc>Speed 6.2 km/h Distance 11.22 km</desc>
<time>2013-07-23T16:00:33.49</time>
<name>5437</name>
<sym>Dot</sym>
</trkpt>
<trkpt lat="48.901633" lon="20.013707">
<ele>1466.0</ele>
<desc>Speed 5.2 km/h Distance 11.22 km</desc>
<time>2013-07-23T16:00:34.48</time>
<name>5438</name>
<sym>Dot</sym>
</trkpt>
<trkpt lat="48.901647" lon="20.013698">
<ele>1466.5</ele>
<desc>Speed 5.4 km/h Distance 11.22 km</desc>
<time>2013-07-23T16:00:35.48</time>
<name>5439</name>
<sym>Dot</sym>
</trkpt>
<trkpt lat="48.901660" lon="20.013682">
<ele>1466.5</ele>
<desc>Speed 6.1 km/h Distance 11.22 km</desc>
<time>2013-07-23T16:00:36.47</time>
<name>5440</name>
<sym>Dot</sym>
</trkpt>
<trkpt lat="48.901673" lon="20.013668">
<ele>1466.0</ele>
<desc>Speed 7.3 km/h Distance 11.22 km</desc>
<time>2013-07-23T16:00:37.47</time>
<name>5441</name>
<sym>Dot</sym>
</trkpt>
<trkpt lat="48.901680" lon="20.013652">
<ele>1467.0</ele>
<desc>Speed 7.4 km/h Distance 11.22 km</desc>
<time>2013-07-23T16:00:38.47</time>
<name>5442</name>
<sym>Dot</sym>
</trkpt>
<trkpt lat="48.901683" lon="20.013635">
<ele>1468.5</ele>
<desc>Speed 7.5 km/h Distance 11.23 km</desc>
<time>2013-07-23T16:00:39.48</time>
<name>5443</name>
<sym>Dot</sym>
</trkpt>
<trkpt lat="48.901687" lon="20.013620">
<ele>1469.5</ele>
<desc>Speed 6.0 km/h Distance 11.23 km</desc>
<time>2013-07-23T16:00:40.56</time>
<name>5444</name>
<sym>Dot</sym>
</trkpt>
<trkpt lat="48.901695" lon="20.013607">
<ele>1470.0</ele>
<desc>Speed 6.9 km/h Distance 11.23 km</desc>
<time>2013-07-23T16:00:41.45</time>
<name>5445</name>
<sym>Dot</sym>
</trkpt>
<trkpt lat="48.901717" lon="20.013595">
<ele>1468.5</ele>
<desc>Speed 8.1 km/h Distance 11.23 km</desc>
<time>2013-07-23T16:00:42.47</time>
<name>5446</name>
<sym>Dot</sym>
</trkpt>
<trkpt lat="48.901735" lon="20.013580">
<ele>1468.5</ele>
<desc>Speed 7.0 km/h Distance 11.23 km</desc>
<time>2013-07-23T16:00:43.44</time>
<name>5447</name>
<sym>Dot</sym>
</trkpt>
<trkpt lat="48.901752" lon="20.013562">
<ele>1468.0</ele>
<desc>Speed 7.7 km/h Distance 11.23 km</desc>
<time>2013-07-23T16:00:44.44</time>
<name>5448</name>
<sym>Dot</sym>
</trkpt>
<trkpt lat="48.901770" lon="20.013545">
<ele>1468.0</ele>
<desc>Speed 8.0 km/h Distance 11.24 km</desc>
<time>2013-07-23T16:00:45.43</time>
<name>5449</name>
<sym>Dot</sym>
</trkpt>
<trkpt lat="48.901793" lon="20.013532">
<ele>1466.5</ele>
<desc>Speed 9.2 km/h Distance 11.24 km</desc>
<time>2013-07-23T16:00:46.42</time>
<name>5450</name>
<sym>Dot</sym>
</trkpt>
<trkpt lat="48.901805" lon="20.013512">
<ele>1466.5</ele>
<desc>Speed 6.6 km/h Distance 11.24 km</desc>
<time>2013-07-23T16:00:47.42</time>
<name>5451</name>
<sym>Dot</sym>
</trkpt>
<trkpt lat="48.901818" lon="20.013493">
<ele>1466.0</ele>
<desc>Speed 6.7 km/h Distance 11.24 km</desc>
<time>2013-07-23T16:00:48.41</time>
<name>5452</name>
<sym>Dot</sym>
</trkpt>
<trkpt lat="48.901830" lon="20.013473">
<ele>1466.5</ele>
<desc>Speed 7.0 km/h Distance 11.25 km</desc>
<time>2013-07-23T16:00:49.40</time>
<name>5453</name>
<sym>Dot</sym>
</trkpt>
<trkpt lat="48.901843" lon="20.013458">
<ele>1467.5</ele>
<desc>Speed 6.3 km/h Distance 11.25 km</desc>
<time>2013-07-23T16:00:50.39</time>
<name>5454</name>
<sym>Dot</sym>
</trkpt>
<trkpt lat="48.901862" lon="20.013443">
<ele>1468.0</ele>
<desc>Speed 8.0 km/h Distance 11.25 km</desc>
<time>2013-07-23T16:00:51.54</time>
<name>5455</name>
<sym>Dot</sym>
</trkpt>
<trkpt lat="48.901885" lon="20.013435">
<ele>1468.0</ele>
<desc>Speed 8.9 km/h Distance 11.25 km</desc>
<time>2013-07-23T16:00:52.38</time>
<name>5456</name>
<sym>Dot</sym>
</trkpt>
<trkpt lat="48.901908" lon="20.013423">
<ele>1468.0</ele>
<desc>Speed 9.9 km/h Distance 11.26 km</desc>
<time>2013-07-23T16:00:53.37</time>
<name>5457</name>
<sym>Dot</sym>
</trkpt>
<trkpt lat="48.901935" lon="20.013413">
<ele>1467.5</ele>
<desc>Speed 10.5 km/h Distance 11.26 km</desc>
<time>2013-07-23T16:00:54.37</time>
<name>5458</name>
<sym>Dot</sym>
</trkpt>
<trkpt lat="48.901963" lon="20.013402">
<ele>1467.0</ele>
<desc>Speed 12.1 km/h Distance 11.26 km</desc>
<time>2013-07-23T16:00:55.37</time>
<name>5459</name>
<sym>Dot</sym>
</trkpt>
<trkpt lat="48.901990" lon="20.013392">
<ele>1467.5</ele>
<desc>Speed 10.3 km/h Distance 11.26 km</desc>
<time>2013-07-23T16:00:56.37</time>
<name>5460</name>
<sym>Dot</sym>
</trkpt>
<trkpt lat="48.902027" lon="20.013388">
<ele>1465.5</ele>
<desc>Speed 12.4 km/h Distance 11.27 km</desc>
<time>2013-07-23T16:00:57.36</time>
<name>5461</name>
<sym>Dot</sym>
</trkpt>
<trkpt lat="48.902062" lon="20.013382">
<ele>1465.5</ele>
<desc>Speed 13.1 km/h Distance 11.27 km</desc>
<time>2013-07-23T16:00:58.35</time>
<name>5462</name>
<sym>Dot</sym>
</trkpt>
<trkpt lat="48.902097" lon="20.013372">
<ele>1465.0</ele>
<desc>Speed 13.8 km/h Distance 11.28 km</desc>
<time>2013-07-23T16:00:59.36</time>
<name>5463</name>
<sym>Dot</sym>
</trkpt>
<trkpt lat="48.902122" lon="20.013357">
<ele>1463.0</ele>
<desc>Speed 9.3 km/h Distance 11.28 km</desc>
<time>2013-07-23T16:01:00.34</time>
<name>5464</name>
<sym>Dot</sym>
</trkpt>
<trkpt lat="48.902155" lon="20.013348">
<ele>1461.5</ele>
<desc>Speed 13.3 km/h Distance 11.28 km</desc>
<time>2013-07-23T16:01:01.34</time>
<name>5465</name>
<sym>Dot</sym>
</trkpt>
<trkpt lat="48.902190" lon="20.013345">
<ele>1461.5</ele>
<desc>Speed 13.4 km/h Distance 11.29 km</desc>
<time>2013-07-23T16:01:02.34</time>
<name>5466</name>
<sym>Dot</sym>
</trkpt>
<trkpt lat="48.902232" lon="20.013335">
<ele>1460.5</ele>
<desc>Speed 15.0 km/h Distance 11.29 km</desc>
<time>2013-07-23T16:01:03.35</time>
<name>5467</name>
<sym>Dot</sym>
</trkpt>
<trkpt lat="48.902275" lon="20.013320">
<ele>1460.0</ele>
<desc>Speed 15.8 km/h Distance 11.30 km</desc>
<time>2013-07-23T16:01:04.33</time>
<name>5468</name>
<sym>Dot</sym>
</trkpt>
<trkpt lat="48.902318" lon="20.013290">
<ele>1459.5</ele>
<desc>Speed 17.4 km/h Distance 11.30 km</desc>
<time>2013-07-23T16:01:05.33</time>
<name>5469</name>
<sym>Dot</sym>
</trkpt>
<trkpt lat="48.902352" lon="20.013262">
<ele>1459.0</ele>
<desc>Speed 13.5 km/h Distance 11.31 km</desc>
<time>2013-07-23T16:01:06.33</time>
<name>5470</name>
<sym>Dot</sym>
</trkpt>
<trkpt lat="48.902385" lon="20.013230">
<ele>1458.0</ele>
<desc>Speed 14.0 km/h Distance 11.31 km</desc>
<time>2013-07-23T16:01:07.32</time>
<name>5471</name>
<sym>Dot</sym>
</trkpt>
<trkpt lat="48.902425" lon="20.013200">
<ele>1457.0</ele>
<desc>Speed 16.2 km/h Distance 11.32 km</desc>
<time>2013-07-23T16:01:08.32</time>
<name>5472</name>
<sym>Dot</sym>
</trkpt>
<trkpt lat="48.902465" lon="20.013177">
<ele>1456.5</ele>
<desc>Speed 16.1 km/h Distance 11.32 km</desc>
<time>2013-07-23T16:01:09.31</time>
<name>5473</name>
<sym>Dot</sym>
</trkpt>
<trkpt lat="48.902500" lon="20.013152">
<ele>1456.0</ele>
<desc>Speed 14.1 km/h Distance 11.32 km</desc>
<time>2013-07-23T16:01:10.30</time>
<name>5474</name>
<sym>Dot</sym>
</trkpt>
<trkpt lat="48.902535" lon="20.013128">
<ele>1455.0</ele>
<desc>Speed 13.4 km/h Distance 11.33 km</desc>
<time>2013-07-23T16:01:11.30</time>
<name>5475</name>
<sym>Dot</sym>
</trkpt>
<trkpt lat="48.902567" lon="20.013108">
<ele>1454.5</ele>
<desc>Speed 13.5 km/h Distance 11.33 km</desc>
<time>2013-07-23T16:01:12.29</time>
<name>5476</name>
<sym>Dot</sym>
</trkpt>
<trkpt lat="48.902595" lon="20.013067">
<ele>1453.0</ele>
<desc>Speed 15.0 km/h Distance 11.34 km</desc>
<time>2013-07-23T16:01:13.29</time>
<name>5477</name>
<sym>Dot</sym>
</trkpt>
<trkpt lat="48.902632" lon="20.013042">
<ele>1453.0</ele>
<desc>Speed 13.7 km/h Distance 11.34 km</desc>
<time>2013-07-23T16:01:14.29</time>
<name>5478</name>
<sym>Dot</sym>
</trkpt>
<trkpt lat="48.902670" lon="20.013017">
<ele>1452.5</ele>
<desc>Speed 13.8 km/h Distance 11.35 km</desc>
<time>2013-07-23T16:01:15.28</time>
<name>5479</name>
<sym>Dot</sym>
</trkpt>
<trkpt lat="48.902708" lon="20.012995">
<ele>1452.0</ele>
<desc>Speed 13.8 km/h Distance 11.35 km</desc>
<time>2013-07-23T16:01:17.00</time>
<name>5480</name>
<sym>Dot</sym>
</trkpt>
<trkpt lat="48.902777" lon="20.012977">
<ele>1451.5</ele>
<desc>Speed 12.7 km/h Distance 11.36 km</desc>
<time>2013-07-23T16:01:18.27</time>
<name>5481</name>
<sym>Dot</sym>
</trkpt>
<trkpt lat="48.902807" lon="20.012963">
<ele>1451.0</ele>
<desc>Speed 11.7 km/h Distance 11.36 km</desc>
<time>2013-07-23T16:01:19.28</time>
<name>5482</name>
<sym>Dot</sym>
</trkpt>
<trkpt lat="48.902837" lon="20.012943">
<ele>1451.0</ele>
<desc>Speed 11.7 km/h Distance 11.37 km</desc>
<time>2013-07-23T16:01:20.26</time>
<name>5483</name>
<sym>Dot</sym>
</trkpt>
<trkpt lat="48.902868" lon="20.012922">
<ele>1450.5</ele>
<desc>Speed 12.5 km/h Distance 11.37 km</desc>
<time>2013-07-23T16:01:21.26</time>
<name>5484</name>
<sym>Dot</sym>
</trkpt>
<trkpt lat="48.902893" lon="20.012898">
<ele>1450.5</ele>
<desc>Speed 10.7 km/h Distance 11.37 km</desc>
<time>2013-07-23T16:01:22.25</time>
<name>5485</name>
<sym>Dot</sym>
</trkpt>
<trkpt lat="48.902915" lon="20.012883">
<ele>1450.0</ele>
<desc>Speed 8.9 km/h Distance 11.38 km</desc>
<time>2013-07-23T16:01:23.25</time>
<name>5486</name>
<sym>Dot</sym>
</trkpt>
<trkpt lat="48.902940" lon="20.012863">
<ele>1449.5</ele>
<desc>Speed 11.1 km/h Distance 11.38 km</desc>
<time>2013-07-23T16:01:24.24</time>
<name>5487</name>
<sym>Dot</sym>
</trkpt>
<trkpt lat="48.902967" lon="20.012840">
<ele>1449.0</ele>
<desc>Speed 12.0 km/h Distance 11.38 km</desc>
<time>2013-07-23T16:01:25.24</time>
<name>5488</name>
<sym>Dot</sym>
</trkpt>
<trkpt lat="48.902988" lon="20.012818">
<ele>1448.5</ele>
<desc>Speed 10.2 km/h Distance 11.39 km</desc>
<time>2013-07-23T16:01:26.23</time>
<name>5489</name>
<sym>Dot</sym>
</trkpt>
<trkpt lat="48.903008" lon="20.012795">
<ele>1448.0</ele>
<desc>Speed 9.3 km/h Distance 11.39 km</desc>
<time>2013-07-23T16:01:27.23</time>
<name>5490</name>
<sym>Dot</sym>
</trkpt>
<trkpt lat="48.903032" lon="20.012765">
<ele>1447.5</ele>
<desc>Speed 12.0 km/h Distance 11.39 km</desc>
<time>2013-07-23T16:01:28.23</time>
<name>5491</name>
<sym>Dot</sym>
</trkpt>
<trkpt lat="48.903055" lon="20.012735">
<ele>1446.5</ele>
<desc>Speed 11.6 km/h Distance 11.39 km</desc>
<time>2013-07-23T16:01:29.22</time>
<name>5492</name>
<sym>Dot</sym>
</trkpt>
<trkpt lat="48.903078" lon="20.012717">
<ele>1446.5</ele>
<desc>Speed 10.3 km/h Distance 11.40 km</desc>
<time>2013-07-23T16:01:30.22</time>
<name>5493</name>
<sym>Dot</sym>
</trkpt>
<trkpt lat="48.903102" lon="20.012693">
<ele>1446.0</ele>
<desc>Speed 10.6 km/h Distance 11.40 km</desc>
<time>2013-07-23T16:01:31.22</time>
<name>5494</name>
<sym>Dot</sym>
</trkpt>
<trkpt lat="48.903125" lon="20.012665">
<ele>1445.5</ele>
<desc>Speed 11.3 km/h Distance 11.40 km</desc>
<time>2013-07-23T16:01:32.22</time>
<name>5495</name>
<sym>Dot</sym>
</trkpt>
<trkpt lat="48.903150" lon="20.012653">
<ele>1445.5</ele>
<desc>Speed 10.7 km/h Distance 11.41 km</desc>
<time>2013-07-23T16:01:33.21</time>
<name>5496</name>
<sym>Dot</sym>
</trkpt>
<trkpt lat="48.903177" lon="20.012628">
<ele>1445.0</ele>
<desc>Speed 12.1 km/h Distance 11.41 km</desc>
<time>2013-07-23T16:01:34.21</time>
<name>5497</name>
<sym>Dot</sym>
</trkpt>
<trkpt lat="48.903203" lon="20.012595">
<ele>1444.5</ele>
<desc>Speed 13.2 km/h Distance 11.41 km</desc>
<time>2013-07-23T16:01:35.20</time>
<name>5498</name>
<sym>Dot</sym>
</trkpt>
<trkpt lat="48.903225" lon="20.012558">
<ele>1443.5</ele>
<desc>Speed 13.1 km/h Distance 11.42 km</desc>
<time>2013-07-23T16:01:36.20</time>
<name>5499</name>
<sym>Dot</sym>
</trkpt>
<trkpt lat="48.903248" lon="20.012518">
<ele>1443.0</ele>
<desc>Speed 13.5 km/h Distance 11.42 km</desc>
<time>2013-07-23T16:01:37.20</time>
<name>5500</name>
<sym>Dot</sym>
</trkpt>
<trkpt lat="48.903267" lon="20.012480">
<ele>1442.5</ele>
<desc>Speed 12.2 km/h Distance 11.43 km</desc>
<time>2013-07-23T16:01:38.20</time>
<name>5501</name>
<sym>Dot</sym>
</trkpt>
<trkpt lat="48.903285" lon="20.012445">
<ele>1442.5</ele>
<desc>Speed 11.7 km/h Distance 11.43 km</desc>
<time>2013-07-23T16:01:39.20</time>
<name>5502</name>
<sym>Dot</sym>
</trkpt>
<trkpt lat="48.903307" lon="20.012413">
<ele>1441.5</ele>
<desc>Speed 12.3 km/h Distance 11.43 km</desc>
<time>2013-07-23T16:01:40.19</time>
<name>5503</name>
<sym>Dot</sym>
</trkpt>
<trkpt lat="48.903335" lon="20.012377">
<ele>1441.0</ele>
<desc>Speed 14.7 km/h Distance 11.44 km</desc>
<time>2013-07-23T16:01:41.19</time>
<name>5504</name>
<sym>Dot</sym>
</trkpt>
<trkpt lat="48.903362" lon="20.012343">
<ele>1440.5</ele>
<desc>Speed 13.9 km/h Distance 11.44 km</desc>
<time>2013-07-23T16:01:42.18</time>
<name>5505</name>
<sym>Dot</sym>
</trkpt>
<trkpt lat="48.903388" lon="20.012315">
<ele>1440.0</ele>
<desc>Speed 12.8 km/h Distance 11.44 km</desc>
<time>2013-07-23T16:01:43.18</time>
<name>5506</name>
<sym>Dot</sym>
</trkpt>
<trkpt lat="48.903412" lon="20.012285">
<ele>1439.0</ele>
<desc>Speed 12.9 km/h Distance 11.45 km</desc>
<time>2013-07-23T16:01:44.18</time>
<name>5507</name>
<sym>Dot</sym>
</trkpt>
<trkpt lat="48.903438" lon="20.012257">
<ele>1438.5</ele>
<desc>Speed 12.9 km/h Distance 11.45 km</desc>
<time>2013-07-23T16:01:45.18</time>
<name>5508</name>
<sym>Dot</sym>
</trkpt>
<trkpt lat="48.903467" lon="20.012230">
<ele>1438.5</ele>
<desc>Speed 13.7 km/h Distance 11.45 km</desc>
<time>2013-07-23T16:01:46.18</time>
<name>5509</name>
<sym>Dot</sym>
</trkpt>
<trkpt lat="48.903493" lon="20.012202">
<ele>1438.0</ele>
<desc>Speed 13.3 km/h Distance 11.46 km</desc>
<time>2013-07-23T16:01:47.18</time>
<name>5510</name>
<sym>Dot</sym>
</trkpt>
<trkpt lat="48.903522" lon="20.012180">
<ele>1437.5</ele>
<desc>Speed 12.6 km/h Distance 11.46 km</desc>
<time>2013-07-23T16:01:48.18</time>
<name>5511</name>
<sym>Dot</sym>
</trkpt>
<trkpt lat="48.903545" lon="20.012163">
<ele>1437.0</ele>
<desc>Speed 10.5 km/h Distance 11.46 km</desc>
<time>2013-07-23T16:01:49.17</time>
<name>5512</name>
<sym>Dot</sym>
</trkpt>
<trkpt lat="48.903565" lon="20.012148">
<ele>1436.5</ele>
<desc>Speed 9.0 km/h Distance 11.47 km</desc>
<time>2013-07-23T16:01:50.18</time>
<name>5513</name>
<sym>Dot</sym>
</trkpt>
<trkpt lat="48.903588" lon="20.012137">
<ele>1436.0</ele>
<desc>Speed 9.2 km/h Distance 11.47 km</desc>
<time>2013-07-23T16:01:51.16</time>
<name>5514</name>
<sym>Dot</sym>
</trkpt>
<trkpt lat="48.903613" lon="20.012117">
<ele>1435.5</ele>
<desc>Speed 10.9 km/h Distance 11.47 km</desc>
<time>2013-07-23T16:01:52.18</time>
<name>5515</name>
<sym>Dot</sym>
</trkpt>
<trkpt lat="48.903637" lon="20.012092">
<ele>1435.0</ele>
<desc>Speed 11.3 km/h Distance 11.48 km</desc>
<time>2013-07-23T16:01:53.15</time>
<name>5516</name>
<sym>Dot</sym>
</trkpt>
<trkpt lat="48.903660" lon="20.012072">
<ele>1434.5</ele>
<desc>Speed 10.7 km/h Distance 11.48 km</desc>
<time>2013-07-23T16:01:54.15</time>
<name>5517</name>
<sym>Dot</sym>
</trkpt>
<trkpt lat="48.903683" lon="20.012048">
<ele>1434.0</ele>
<desc>Speed 10.9 km/h Distance 11.48 km</desc>
<time>2013-07-23T16:01:55.15</time>
<name>5518</name>
<sym>Dot</sym>
</trkpt>
<trkpt lat="48.903707" lon="20.012032">
<ele>1433.5</ele>
<desc>Speed 9.6 km/h Distance 11.48 km</desc>
<time>2013-07-23T16:01:56.15</time>
<name>5519</name>
<sym>Dot</sym>
</trkpt>
<trkpt lat="48.903723" lon="20.012020">
<ele>1433.0</ele>
<desc>Speed 6.8 km/h Distance 11.49 km</desc>
<time>2013-07-23T16:01:57.15</time>
<name>5520</name>
<sym>Dot</sym>
</trkpt>
<trkpt lat="48.903738" lon="20.012008">
<ele>1432.5</ele>
<desc>Speed 6.3 km/h Distance 11.49 km</desc>
<time>2013-07-23T16:01:58.15</time>
<name>5521</name>
<sym>Dot</sym>
</trkpt>
<trkpt lat="48.903750" lon="20.011993">
<ele>1432.5</ele>
<desc>Speed 5.7 km/h Distance 11.49 km</desc>
<time>2013-07-23T16:01:59.14</time>
<name>5522</name>
<sym>Dot</sym>
</trkpt>
<trkpt lat="48.903763" lon="20.011973">
<ele>1432.0</ele>
<desc>Speed 7.2 km/h Distance 11.49 km</desc>
<time>2013-07-23T16:02:00.14</time>
<name>5523</name>
<sym>Dot</sym>
</trkpt>
<trkpt lat="48.903775" lon="20.011953">
<ele>1432.0</ele>
<desc>Speed 6.8 km/h Distance 11.49 km</desc>
<time>2013-07-23T16:02:01.13</time>
<name>5524</name>
<sym>Dot</sym>
</trkpt>
<trkpt lat="48.903788" lon="20.011940">
<ele>1432.0</ele>
<desc>Speed 6.3 km/h Distance 11.50 km</desc>
<time>2013-07-23T16:02:02.13</time>
<name>5525</name>
<sym>Dot</sym>
</trkpt>
<trkpt lat="48.903802" lon="20.011927">
<ele>1431.5</ele>
<desc>Speed 6.4 km/h Distance 11.50 km</desc>
<time>2013-07-23T16:02:03.13</time>
<name>5526</name>
<sym>Dot</sym>
</trkpt>
<trkpt lat="48.903818" lon="20.011910">
<ele>1431.0</ele>
<desc>Speed 8.1 km/h Distance 11.50 km</desc>
<time>2013-07-23T16:02:04.12</time>
<name>5527</name>
<sym>Dot</sym>
</trkpt>
<trkpt lat="48.903842" lon="20.011890">
<ele>1431.0</ele>
<desc>Speed 10.1 km/h Distance 11.50 km</desc>
<time>2013-07-23T16:02:05.12</time>
<name>5528</name>
<sym>Dot</sym>
</trkpt>
<trkpt lat="48.903863" lon="20.011867">
<ele>1430.5</ele>
<desc>Speed 10.8 km/h Distance 11.51 km</desc>
<time>2013-07-23T16:02:06.12</time>
<name>5529</name>
<sym>Dot</sym>
</trkpt>
<trkpt lat="48.903890" lon="20.011843">
<ele>1430.0</ele>
<desc>Speed 11.7 km/h Distance 11.51 km</desc>
<time>2013-07-23T16:02:07.19</time>
<name>5530</name>
<sym>Dot</sym>
</trkpt>
<trkpt lat="48.903920" lon="20.011830">
<ele>1430.5</ele>
<desc>Speed 12.3 km/h Distance 11.51 km</desc>
<time>2013-07-23T16:02:08.11</time>
<name>5531</name>
<sym>Dot</sym>
</trkpt>
<trkpt lat="48.903947" lon="20.011798">
<ele>1430.0</ele>
<desc>Speed 13.4 km/h Distance 11.52 km</desc>
<time>2013-07-23T16:02:09.10</time>
<name>5532</name>
<sym>Dot</sym>
</trkpt>
<trkpt lat="48.903972" lon="20.011767">
<ele>1429.5</ele>
<desc>Speed 12.6 km/h Distance 11.52 km</desc>
<time>2013-07-23T16:02:10.10</time>
<name>5533</name>
<sym>Dot</sym>
</trkpt>
<trkpt lat="48.903997" lon="20.011737">
<ele>1429.0</ele>
<desc>Speed 12.7 km/h Distance 11.52 km</desc>
<time>2013-07-23T16:02:11.09</time>
<name>5534</name>
<sym>Dot</sym>
</trkpt>
<trkpt lat="48.904020" lon="20.011705">
<ele>1428.5</ele>
<desc>Speed 11.9 km/h Distance 11.53 km</desc>
<time>2013-07-23T16:02:12.09</time>
<name>5535</name>
<sym>Dot</sym>
</trkpt>
<trkpt lat="48.904040" lon="20.011678">
<ele>1428.5</ele>
<desc>Speed 10.6 km/h Distance 11.53 km</desc>
<time>2013-07-23T16:02:13.09</time>
<name>5536</name>
<sym>Dot</sym>
</trkpt>
<trkpt lat="48.904060" lon="20.011653">
<ele>1427.5</ele>
<desc>Speed 10.7 km/h Distance 11.53 km</desc>
<time>2013-07-23T16:02:14.09</time>
<name>5537</name>
<sym>Dot</sym>
</trkpt>
<trkpt lat="48.904083" lon="20.011625">
<ele>1427.0</ele>
<desc>Speed 11.7 km/h Distance 11.54 km</desc>
<time>2013-07-23T16:02:15.09</time>
<name>5538</name>
<sym>Dot</sym>
</trkpt>
<trkpt lat="48.904107" lon="20.011595">
<ele>1426.5</ele>
<desc>Speed 12.5 km/h Distance 11.54 km</desc>
<time>2013-07-23T16:02:16.09</time>
<name>5539</name>
<sym>Dot</sym>
</trkpt>
<trkpt lat="48.904128" lon="20.011563">
<ele>1426.0</ele>
<desc>Speed 11.9 km/h Distance 11.54 km</desc>
<time>2013-07-23T16:02:17.08</time>
<name>5540</name>
<sym>Dot</sym>
</trkpt>
<trkpt lat="48.904150" lon="20.011535">
<ele>1426.0</ele>
<desc>Speed 11.6 km/h Distance 11.55 km</desc>
<time>2013-07-23T16:02:18.08</time>
<name>5541</name>
<sym>Dot</sym>
</trkpt>
<trkpt lat="48.904167" lon="20.011510">
<ele>1425.5</ele>
<desc>Speed 9.9 km/h Distance 11.55 km</desc>
<time>2013-07-23T16:02:19.08</time>
<name>5542</name>
<sym>Dot</sym>
</trkpt>
<trkpt lat="48.904178" lon="20.011492">
<ele>1426.0</ele>
<desc>Speed 7.0 km/h Distance 11.55 km</desc>
<time>2013-07-23T16:02:20.07</time>
<name>5543</name>
<sym>Dot</sym>
</trkpt>
<trkpt lat="48.904180" lon="20.011480">
<ele>1425.5</ele>
<desc>Speed 2.9 km/h Distance 11.55 km</desc>
<time>2013-07-23T16:02:21.07</time>
<name>5544</name>
<sym>Dot</sym>
</trkpt>
<trkpt lat="48.904182" lon="20.011445">
<ele>1422.5</ele>
<desc>Speed 2.7 km/h Distance 11.55 km</desc>
<time>2013-07-23T16:03:01.06</time>
<name>5545</name>
<sym>Dot</sym>
</trkpt>
<trkpt lat="48.904195" lon="20.011432">
<ele>1422.5</ele>
<desc>Speed 5.4 km/h Distance 11.56 km</desc>
<time>2013-07-23T16:03:02.06</time>
<name>5546</name>
<sym>Dot</sym>
</trkpt>
<trkpt lat="48.904218" lon="20.011410">
<ele>1422.0</ele>
<desc>Speed 9.3 km/h Distance 11.56 km</desc>
<time>2013-07-23T16:03:03.12</time>
<name>5547</name>
<sym>Dot</sym>
</trkpt>
<trkpt lat="48.904250" lon="20.011382">
<ele>1421.5</ele>
<desc>Speed 13.4 km/h Distance 11.56 km</desc>
<time>2013-07-23T16:03:04.13</time>
<name>5548</name>
<sym>Dot</sym>
</trkpt>
<trkpt lat="48.904283" lon="20.011350">
<ele>1421.0</ele>
<desc>Speed 14.9 km/h Distance 11.57 km</desc>
<time>2013-07-23T16:03:05.96</time>
<name>5549</name>
<sym>Dot</sym>
</trkpt>
<trkpt lat="48.904335" lon="20.011245">
<ele>1419.5</ele>
<desc>Speed 19.4 km/h Distance 11.58 km</desc>
<time>2013-07-23T16:03:07.03</time>
<name>5550</name>
<sym>Dot</sym>
</trkpt>
<trkpt lat="48.904368" lon="20.011198">
<ele>1419.5</ele>
<desc>Speed 17.6 km/h Distance 11.58 km</desc>
<time>2013-07-23T16:03:08.03</time>
<name>5551</name>
<sym>Dot</sym>
</trkpt>
<trkpt lat="48.904397" lon="20.011170">
<ele>1420.0</ele>
<desc>Speed 13.1 km/h Distance 11.59 km</desc>
<time>2013-07-23T16:03:09.10</time>
<name>5552</name>
<sym>Dot</sym>
</trkpt>
<trkpt lat="48.904422" lon="20.011133">
<ele>1420.0</ele>
<desc>Speed 14.4 km/h Distance 11.59 km</desc>
<time>2013-07-23T16:03:10.02</time>
<name>5553</name>
<sym>Dot</sym>
</trkpt>
<trkpt lat="48.904445" lon="20.011097">
<ele>1419.0</ele>
<desc>Speed 13.0 km/h Distance 11.59 km</desc>
<time>2013-07-23T16:03:11.01</time>
<name>5554</name>
<sym>Dot</sym>
</trkpt>
<trkpt lat="48.904470" lon="20.011060">
<ele>1417.5</ele>
<desc>Speed 13.8 km/h Distance 11.60 km</desc>
<time>2013-07-23T16:03:12.01</time>
<name>5555</name>
<sym>Dot</sym>
</trkpt>
<trkpt lat="48.904497" lon="20.011022">
<ele>1416.5</ele>
<desc>Speed 14.9 km/h Distance 11.60 km</desc>
<time>2013-07-23T16:03:13.01</time>
<name>5556</name>
<sym>Dot</sym>
</trkpt>
<trkpt lat="48.904532" lon="20.010980">
<ele>1416.0</ele>
<desc>Speed 17.4 km/h Distance 11.61 km</desc>
<time>2013-07-23T16:03:14.01</time>
<name>5557</name>
<sym>Dot</sym>
</trkpt>
<trkpt lat="48.904567" lon="20.010937">
<ele>1415.5</ele>
<desc>Speed 17.8 km/h Distance 11.61 km</desc>
<time>2013-07-23T16:03:15.00</time>
<name>5558</name>
<sym>Dot</sym>
</trkpt>
<trkpt lat="48.904603" lon="20.010888">
<ele>1414.5</ele>
<desc>Speed 18.5 km/h Distance 11.62 km</desc>
<time>2013-07-23T16:03:16.00</time>
<name>5559</name>
<sym>Dot</sym>
</trkpt>
<trkpt lat="48.904637" lon="20.010842">
<ele>1414.0</ele>
<desc>Speed 17.8 km/h Distance 11.62 km</desc>
<time>2013-07-23T16:03:16.99</time>
<name>5560</name>
<sym>Dot</sym>
</trkpt>
<trkpt lat="48.904667" lon="20.010793">
<ele>1413.0</ele>
<desc>Speed 17.6 km/h Distance 11.63 km</desc>
<time>2013-07-23T16:03:17.99</time>
<name>5561</name>
<sym>Dot</sym>
</trkpt>
<trkpt lat="48.904697" lon="20.010748">
<ele>1412.5</ele>
<desc>Speed 16.4 km/h Distance 11.63 km</desc>
<time>2013-07-23T16:03:18.99</time>
<name>5562</name>
<sym>Dot</sym>
</trkpt>
<trkpt lat="48.904722" lon="20.010703">
<ele>1412.0</ele>
<desc>Speed 15.7 km/h Distance 11.64 km</desc>
<time>2013-07-23T16:03:19.98</time>
<name>5563</name>
<sym>Dot</sym>
</trkpt>
<trkpt lat="48.904747" lon="20.010655">
<ele>1411.5</ele>
<desc>Speed 16.4 km/h Distance 11.64 km</desc>
<time>2013-07-23T16:03:20.98</time>
<name>5564</name>
<sym>Dot</sym>
</trkpt>
<trkpt lat="48.904772" lon="20.010600">
<ele>1410.5</ele>
<desc>Speed 17.5 km/h Distance 11.65 km</desc>
<time>2013-07-23T16:03:21.97</time>
<name>5565</name>
<sym>Dot</sym>
</trkpt>
<trkpt lat="48.904798" lon="20.010547">
<ele>1410.5</ele>
<desc>Speed 18.0 km/h Distance 11.65 km</desc>
<time>2013-07-23T16:03:22.98</time>
<name>5566</name>
<sym>Dot</sym>
</trkpt>
<trkpt lat="48.904820" lon="20.010497">
<ele>1410.0</ele>
<desc>Speed 16.3 km/h Distance 11.65 km</desc>
<time>2013-07-23T16:03:23.98</time>
<name>5567</name>
<sym>Dot</sym>
</trkpt>
<trkpt lat="48.904838" lon="20.010452">
<ele>1410.0</ele>
<desc>Speed 15.0 km/h Distance 11.66 km</desc>
<time>2013-07-23T16:03:24.97</time>
<name>5568</name>
<sym>Dot</sym>
</trkpt>
<trkpt lat="48.904858" lon="20.010407">
<ele>1409.0</ele>
<desc>Speed 14.1 km/h Distance 11.66 km</desc>
<time>2013-07-23T16:03:25.96</time>
<name>5569</name>
<sym>Dot</sym>
</trkpt>
<trkpt lat="48.904880" lon="20.010358">
<ele>1408.5</ele>
<desc>Speed 15.2 km/h Distance 11.67 km</desc>
<time>2013-07-23T16:03:26.96</time>
<name>5570</name>
<sym>Dot</sym>
</trkpt>
<trkpt lat="48.904900" lon="20.010313">
<ele>1408.0</ele>
<desc>Speed 15.3 km/h Distance 11.67 km</desc>
<time>2013-07-23T16:03:27.96</time>
<name>5571</name>
<sym>Dot</sym>
</trkpt>
<trkpt lat="48.904922" lon="20.010260">
<ele>1407.5</ele>
<desc>Speed 16.7 km/h Distance 11.68 km</desc>
<time>2013-07-23T16:03:28.96</time>
<name>5572</name>
<sym>Dot</sym>
</trkpt>
<trkpt lat="48.904943" lon="20.010205">
<ele>1407.0</ele>
<desc>Speed 16.6 km/h Distance 11.68 km</desc>
<time>2013-07-23T16:03:29.96</time>
<name>5573</name>
<sym>Dot</sym>
</trkpt>
<trkpt lat="48.904965" lon="20.010155">
<ele>1407.0</ele>
<desc>Speed 16.5 km/h Distance 11.68 km</desc>
<time>2013-07-23T16:03:30.96</time>
<name>5574</name>
<sym>Dot</sym>
</trkpt>
<trkpt lat="48.904987" lon="20.010105">
<ele>1406.5</ele>
<desc>Speed 16.6 km/h Distance 11.69 km</desc>
<time>2013-07-23T16:03:31.95</time>
<name>5575</name>
<sym>Dot</sym>
</trkpt>
<trkpt lat="48.905008" lon="20.010063">
<ele>1406.5</ele>
<desc>Speed 14.7 km/h Distance 11.69 km</desc>
<time>2013-07-23T16:03:32.95</time>
<name>5576</name>
<sym>Dot</sym>
</trkpt>
<trkpt lat="48.905033" lon="20.010032">
<ele>1406.5</ele>
<desc>Speed 14.5 km/h Distance 11.70 km</desc>
<time>2013-07-23T16:03:33.94</time>
<name>5577</name>
<sym>Dot</sym>
</trkpt>
<trkpt lat="48.905060" lon="20.009995">
<ele>1406.0</ele>
<desc>Speed 14.4 km/h Distance 11.70 km</desc>
<time>2013-07-23T16:03:34.94</time>
<name>5578</name>
<sym>Dot</sym>
</trkpt>
<trkpt lat="48.905085" lon="20.009953">
<ele>1405.5</ele>
<desc>Speed 14.9 km/h Distance 11.70 km</desc>
<time>2013-07-23T16:03:35.93</time>
<name>5579</name>
<sym>Dot</sym>
</trkpt>
<trkpt lat="48.905107" lon="20.009918">
<ele>1405.5</ele>
<desc>Speed 14.9 km/h Distance 11.71 km</desc>
<time>2013-07-23T16:03:36.93</time>
<name>5580</name>
<sym>Dot</sym>
</trkpt>
<trkpt lat="48.905125" lon="20.009883">
<ele>1405.0</ele>
<desc>Speed 12.3 km/h Distance 11.71 km</desc>
<time>2013-07-23T16:03:37.93</time>
<name>5581</name>
<sym>Dot</sym>
</trkpt>
<trkpt lat="48.905142" lon="20.009858">
<ele>1404.5</ele>
<desc>Speed 9.3 km/h Distance 11.71 km</desc>
<time>2013-07-23T16:03:38.92</time>
<name>5582</name>
<sym>Dot</sym>
</trkpt>
<trkpt lat="48.905152" lon="20.009832">
<ele>1404.5</ele>
<desc>Speed 8.2 km/h Distance 11.72 km</desc>
<time>2013-07-23T16:03:39.92</time>
<name>5583</name>
<sym>Dot</sym>
</trkpt>
<trkpt lat="48.905167" lon="20.009802">
<ele>1404.5</ele>
<desc>Speed 9.1 km/h Distance 11.72 km</desc>
<time>2013-07-23T16:03:40.90</time>
<name>5584</name>
<sym>Dot</sym>
</trkpt>
<trkpt lat="48.905185" lon="20.009765">
<ele>1404.0</ele>
<desc>Speed 12.0 km/h Distance 11.72 km</desc>
<time>2013-07-23T16:03:42.53</time>
<name>5585</name>
<sym>Dot</sym>
</trkpt>
<trkpt lat="48.905207" lon="20.009722">
<ele>1404.0</ele>
<desc>Speed 14.4 km/h Distance 11.73 km</desc>
<time>2013-07-23T16:03:42.90</time>
<name>5586</name>
<sym>Dot</sym>
</trkpt>
<trkpt lat="48.905222" lon="20.009675">
<ele>1404.0</ele>
<desc>Speed 13.4 km/h Distance 11.73 km</desc>
<time>2013-07-23T16:03:43.99</time>
<name>5587</name>
<sym>Dot</sym>
</trkpt>
<trkpt lat="48.905235" lon="20.009628">
<ele>1404.0</ele>
<desc>Speed 13.0 km/h Distance 11.73 km</desc>
<time>2013-07-23T16:03:44.88</time>
<name>5588</name>
<sym>Dot</sym>
</trkpt>
<trkpt lat="48.905250" lon="20.009585">
<ele>1404.0</ele>
<desc>Speed 12.4 km/h Distance 11.74 km</desc>
<time>2013-07-23T16:03:45.88</time>
<name>5589</name>
<sym>Dot</sym>
</trkpt>
<trkpt lat="48.905265" lon="20.009543">
<ele>1403.5</ele>
<desc>Speed 11.9 km/h Distance 11.74 km</desc>
<time>2013-07-23T16:03:46.88</time>
<name>5590</name>
<sym>Dot</sym>
</trkpt>
<trkpt lat="48.905278" lon="20.009498">
<ele>1403.0</ele>
<desc>Speed 11.5 km/h Distance 11.74 km</desc>
<time>2013-07-23T16:03:47.88</time>
<name>5591</name>
<sym>Dot</sym>
</trkpt>
<trkpt lat="48.905290" lon="20.009457">
<ele>1402.5</ele>
<desc>Speed 11.6 km/h Distance 11.75 km</desc>
<time>2013-07-23T16:03:48.87</time>
<name>5592</name>
<sym>Dot</sym>
</trkpt>
<trkpt lat="48.905303" lon="20.009420">
<ele>1402.5</ele>
<desc>Speed 9.6 km/h Distance 11.75 km</desc>
<time>2013-07-23T16:03:49.86</time>
<name>5593</name>
<sym>Dot</sym>
</trkpt>
<trkpt lat="48.905318" lon="20.009388">
<ele>1402.0</ele>
<desc>Speed 8.7 km/h Distance 11.75 km</desc>
<time>2013-07-23T16:03:50.85</time>
<name>5594</name>
<sym>Dot</sym>
</trkpt>
<trkpt lat="48.905337" lon="20.009358">
<ele>1401.0</ele>
<desc>Speed 9.5 km/h Distance 11.76 km</desc>
<time>2013-07-23T16:03:51.85</time>
<name>5595</name>
<sym>Dot</sym>
</trkpt>
<trkpt lat="48.905353" lon="20.009343">
<ele>1400.5</ele>
<desc>Speed 7.6 km/h Distance 11.76 km</desc>
<time>2013-07-23T16:03:52.85</time>
<name>5596</name>
<sym>Dot</sym>
</trkpt>
<trkpt lat="48.905368" lon="20.009337">
<ele>1400.5</ele>
<desc>Speed 5.6 km/h Distance 11.76 km</desc>
<time>2013-07-23T16:03:53.85</time>
<name>5597</name>
<sym>Dot</sym>
</trkpt>
<trkpt lat="48.905375" lon="20.009338">
<ele>1400.0</ele>
<desc>Speed 2.9 km/h Distance 11.76 km</desc>
<time>2013-07-23T16:03:54.86</time>
<name>5598</name>
<sym>Dot</sym>
</trkpt>
<trkpt lat="48.905368" lon="20.009310">
<ele>1397.0</ele>
<desc>Speed 2.7 km/h Distance 11.76 km</desc>
<time>2013-07-23T16:04:27.84</time>
<name>5599</name>
<sym>Dot</sym>
</trkpt>
<trkpt lat="48.905377" lon="20.009312">
<ele>1396.5</ele>
<desc>Speed 3.6 km/h Distance 11.76 km</desc>
<time>2013-07-23T16:04:28.84</time>
<name>5600</name>
<sym>Dot</sym>
</trkpt>
<trkpt lat="48.905387" lon="20.009312">
<ele>1395.5</ele>
<desc>Speed 4.5 km/h Distance 11.77 km</desc>
<time>2013-07-23T16:04:29.98</time>
<name>5601</name>
<sym>Dot</sym>
</trkpt>
<trkpt lat="48.905400" lon="20.009315">
<ele>1394.5</ele>
<desc>Speed 5.4 km/h Distance 11.77 km</desc>
<time>2013-07-23T16:04:30.83</time>
<name>5602</name>
<sym>Dot</sym>
</trkpt>
<trkpt lat="48.905413" lon="20.009323">
<ele>1394.0</ele>
<desc>Speed 6.0 km/h Distance 11.77 km</desc>
<time>2013-07-23T16:04:31.83</time>
<name>5603</name>
<sym>Dot</sym>
</trkpt>
<trkpt lat="48.905422" lon="20.009333">
<ele>1394.0</ele>
<desc>Speed 4.9 km/h Distance 11.77 km</desc>
<time>2013-07-23T16:04:32.82</time>
<name>5604</name>
<sym>Dot</sym>
</trkpt>
<trkpt lat="48.905433" lon="20.009343">
<ele>1393.5</ele>
<desc>Speed 5.8 km/h Distance 11.77 km</desc>
<time>2013-07-23T16:04:33.82</time>
<name>5605</name>
<sym>Dot</sym>
</trkpt>
<trkpt lat="48.905443" lon="20.009358">
<ele>1393.5</ele>
<desc>Speed 5.9 km/h Distance 11.77 km</desc>
<time>2013-07-23T16:04:34.81</time>
<name>5606</name>
<sym>Dot</sym>
</trkpt>
<trkpt lat="48.905452" lon="20.009378">
<ele>1393.0</ele>
<desc>Speed 6.8 km/h Distance 11.77 km</desc>
<time>2013-07-23T16:04:35.80</time>
<name>5607</name>
<sym>Dot</sym>
</trkpt>
<trkpt lat="48.905463" lon="20.009397">
<ele>1393.0</ele>
<desc>Speed 6.9 km/h Distance 11.78 km</desc>
<time>2013-07-23T16:04:36.80</time>
<name>5608</name>
<sym>Dot</sym>
</trkpt>
<trkpt lat="48.905475" lon="20.009415">
<ele>1392.5</ele>
<desc>Speed 7.1 km/h Distance 11.78 km</desc>
<time>2013-07-23T16:04:37.79</time>
<name>5609</name>
<sym>Dot</sym>
</trkpt>
<trkpt lat="48.905485" lon="20.009435">
<ele>1392.5</ele>
<desc>Speed 7.2 km/h Distance 11.78 km</desc>
<time>2013-07-23T16:04:38.78</time>
<name>5610</name>
<sym>Dot</sym>
</trkpt>
<trkpt lat="48.905492" lon="20.009457">
<ele>1392.5</ele>
<desc>Speed 6.8 km/h Distance 11.78 km</desc>
<time>2013-07-23T16:04:39.78</time>
<name>5611</name>
<sym>Dot</sym>
</trkpt>
<trkpt lat="48.905498" lon="20.009480">
<ele>1392.0</ele>
<desc>Speed 7.2 km/h Distance 11.78 km</desc>
<time>2013-07-23T16:04:40.78</time>
<name>5612</name>
<sym>Dot</sym>
</trkpt>
<trkpt lat="48.905508" lon="20.009502">
<ele>1392.0</ele>
<desc>Speed 6.9 km/h Distance 11.79 km</desc>
<time>2013-07-23T16:04:41.78</time>
<name>5613</name>
<sym>Dot</sym>
</trkpt>
<trkpt lat="48.905515" lon="20.009525">
<ele>1392.0</ele>
<desc>Speed 7.0 km/h Distance 11.79 km</desc>
<time>2013-07-23T16:04:42.95</time>
<name>5614</name>
<sym>Dot</sym>
</trkpt>
<trkpt lat="48.905522" lon="20.009550">
<ele>1392.5</ele>
<desc>Speed 7.2 km/h Distance 11.79 km</desc>
<time>2013-07-23T16:04:43.76</time>
<name>5615</name>
<sym>Dot</sym>
</trkpt>
<trkpt lat="48.905530" lon="20.009573">
<ele>1393.0</ele>
<desc>Speed 6.9 km/h Distance 11.79 km</desc>
<time>2013-07-23T16:04:44.86</time>
<name>5616</name>
<sym>Dot</sym>
</trkpt>
<trkpt lat="48.905537" lon="20.009598">
<ele>1393.0</ele>
<desc>Speed 7.2 km/h Distance 11.79 km</desc>
<time>2013-07-23T16:04:45.75</time>
<name>5617</name>
<sym>Dot</sym>
</trkpt>
<trkpt lat="48.905543" lon="20.009620">
<ele>1392.5</ele>
<desc>Speed 6.4 km/h Distance 11.80 km</desc>
<time>2013-07-23T16:04:46.74</time>
<name>5618</name>
<sym>Dot</sym>
</trkpt>
<trkpt lat="48.905547" lon="20.009640">
<ele>1393.0</ele>
<desc>Speed 5.4 km/h Distance 11.80 km</desc>
<time>2013-07-23T16:04:47.74</time>
<name>5619</name>
<sym>Dot</sym>
</trkpt>
<trkpt lat="48.905548" lon="20.009655">
<ele>1393.0</ele>
<desc>Speed 3.9 km/h Distance 11.80 km</desc>
<time>2013-07-23T16:04:48.73</time>
<name>5620</name>
<sym>Dot</sym>
</trkpt>
<trkpt lat="48.905543" lon="20.009662">
<ele>1394.5</ele>
<desc>Speed 2.4 km/h Distance 11.80 km</desc>
<time>2013-07-23T16:05:06.78</time>
<name>5621</name>
<sym>Dot</sym>
</trkpt>
<trkpt lat="48.905545" lon="20.009680">
<ele>1394.5</ele>
<desc>Speed 4.2 km/h Distance 11.80 km</desc>
<time>2013-07-23T16:05:07.72</time>
<name>5622</name>
<sym>Dot</sym>
</trkpt>
<trkpt lat="48.905547" lon="20.009697">
<ele>1394.5</ele>
<desc>Speed 4.8 km/h Distance 11.80 km</desc>
<time>2013-07-23T16:05:08.71</time>
<name>5623</name>
<sym>Dot</sym>
</trkpt>
<trkpt lat="48.905545" lon="20.009725">
<ele>1394.5</ele>
<desc>Speed 7.4 km/h Distance 11.80 km</desc>
<time>2013-07-23T16:05:09.71</time>
<name>5624</name>
<sym>Dot</sym>
</trkpt>
<trkpt lat="48.905532" lon="20.009760">
<ele>1396.5</ele>
<desc>Speed 10.8 km/h Distance 11.81 km</desc>
<time>2013-07-23T16:05:10.71</time>
<name>5625</name>
<sym>Dot</sym>
</trkpt>
<trkpt lat="48.905522" lon="20.009797">
<ele>1398.0</ele>
<desc>Speed 10.6 km/h Distance 11.81 km</desc>
<time>2013-07-23T16:05:11.71</time>
<name>5626</name>
<sym>Dot</sym>
</trkpt>
<trkpt lat="48.905515" lon="20.009835">
<ele>1398.0</ele>
<desc>Speed 10.8 km/h Distance 11.81 km</desc>
<time>2013-07-23T16:05:12.70</time>
<name>5627</name>
<sym>Dot</sym>
</trkpt>
<trkpt lat="48.905505" lon="20.009877">
<ele>1398.0</ele>
<desc>Speed 11.6 km/h Distance 11.82 km</desc>
<time>2013-07-23T16:05:13.70</time>
<name>5628</name>
<sym>Dot</sym>
</trkpt>
<trkpt lat="48.905490" lon="20.009915">
<ele>1398.5</ele>
<desc>Speed 12.1 km/h Distance 11.82 km</desc>
<time>2013-07-23T16:05:14.70</time>
<name>5629</name>
<sym>Dot</sym>
</trkpt>
<trkpt lat="48.905478" lon="20.009957">
<ele>1399.5</ele>
<desc>Speed 12.0 km/h Distance 11.82 km</desc>
<time>2013-07-23T16:05:15.69</time>
<name>5630</name>
<sym>Dot</sym>
</trkpt>
<trkpt lat="48.905473" lon="20.010002">
<ele>1400.0</ele>
<desc>Speed 11.7 km/h Distance 11.83 km</desc>
<time>2013-07-23T16:05:16.79</time>
<name>5631</name>
<sym>Dot</sym>
</trkpt>
<trkpt lat="48.905465" lon="20.010045">
<ele>1401.0</ele>
<desc>Speed 11.6 km/h Distance 11.83 km</desc>
<time>2013-07-23T16:05:17.86</time>
<name>5632</name>
<sym>Dot</sym>
</trkpt>
<trkpt lat="48.905462" lon="20.010092">
<ele>1401.5</ele>
<desc>Speed 12.5 km/h Distance 11.83 km</desc>
<time>2013-07-23T16:05:18.68</time>
<name>5633</name>
<sym>Dot</sym>
</trkpt>
<trkpt lat="48.905450" lon="20.010137">
<ele>1403.5</ele>
<desc>Speed 12.4 km/h Distance 11.84 km</desc>
<time>2013-07-23T16:05:19.66</time>
<name>5634</name>
<sym>Dot</sym>
</trkpt>
<trkpt lat="48.905445" lon="20.010193">
<ele>1404.0</ele>
<desc>Speed 14.7 km/h Distance 11.84 km</desc>
<time>2013-07-23T16:05:20.66</time>
<name>5635</name>
<sym>Dot</sym>
</trkpt>
<trkpt lat="48.905435" lon="20.010252">
<ele>1404.5</ele>
<desc>Speed 15.9 km/h Distance 11.84 km</desc>
<time>2013-07-23T16:05:21.66</time>
<name>5636</name>
<sym>Dot</sym>
</trkpt>
<trkpt lat="48.905422" lon="20.010313">
<ele>1404.5</ele>
<desc>Speed 17.1 km/h Distance 11.85 km</desc>
<time>2013-07-23T16:05:22.65</time>
<name>5637</name>
<sym>Dot</sym>
</trkpt>
<trkpt lat="48.905408" lon="20.010375">
<ele>1404.5</ele>
<desc>Speed 17.0 km/h Distance 11.85 km</desc>
<time>2013-07-23T16:05:23.65</time>
<name>5638</name>
<sym>Dot</sym>
</trkpt>
<trkpt lat="48.905393" lon="20.010445">
<ele>1405.0</ele>
<desc>Speed 19.2 km/h Distance 11.86 km</desc>
<time>2013-07-23T16:05:24.65</time>
<name>5639</name>
<sym>Dot</sym>
</trkpt>
<trkpt lat="48.905380" lon="20.010515">
<ele>1405.0</ele>
<desc>Speed 19.3 km/h Distance 11.86 km</desc>
<time>2013-07-23T16:05:25.64</time>
<name>5640</name>
<sym>Dot</sym>
</trkpt>
<trkpt lat="48.905370" lon="20.010588">
<ele>1404.5</ele>
<desc>Speed 19.6 km/h Distance 11.87 km</desc>
<time>2013-07-23T16:05:26.64</time>
<name>5641</name>
<sym>Dot</sym>
</trkpt>
<trkpt lat="48.905362" lon="20.010663">
<ele>1404.5</ele>
<desc>Speed 19.5 km/h Distance 11.88 km</desc>
<time>2013-07-23T16:05:27.64</time>
<name>5642</name>
<sym>Dot</sym>
</trkpt>
<trkpt lat="48.905355" lon="20.010728">
<ele>1404.5</ele>
<desc>Speed 17.1 km/h Distance 11.88 km</desc>
<time>2013-07-23T16:05:28.63</time>
<name>5643</name>
<sym>Dot</sym>
</trkpt>
<trkpt lat="48.905342" lon="20.010790">
<ele>1405.0</ele>
<desc>Speed 16.8 km/h Distance 11.88 km</desc>
<time>2013-07-23T16:05:29.63</time>
<name>5644</name>
<sym>Dot</sym>
</trkpt>
<trkpt lat="48.905335" lon="20.010857">
<ele>1405.5</ele>
<desc>Speed 17.6 km/h Distance 11.89 km</desc>
<time>2013-07-23T16:05:30.71</time>
<name>5645</name>
<sym>Dot</sym>
</trkpt>
<trkpt lat="48.905332" lon="20.010925">
<ele>1405.5</ele>
<desc>Speed 17.9 km/h Distance 11.89 km</desc>
<time>2013-07-23T16:05:31.63</time>
<name>5646</name>
<sym>Dot</sym>
</trkpt>
<trkpt lat="48.905328" lon="20.010988">
<ele>1406.0</ele>
<desc>Speed 16.7 km/h Distance 11.90 km</desc>
<time>2013-07-23T16:05:32.62</time>
<name>5647</name>
<sym>Dot</sym>
</trkpt>
<trkpt lat="48.905325" lon="20.011047">
<ele>1406.0</ele>
<desc>Speed 15.0 km/h Distance 11.90 km</desc>
<time>2013-07-23T16:05:33.62</time>
<name>5648</name>
<sym>Dot</sym>
</trkpt>
<trkpt lat="48.905322" lon="20.011098">
<ele>1406.5</ele>
<desc>Speed 13.1 km/h Distance 11.91 km</desc>
<time>2013-07-23T16:05:34.62</time>
<name>5649</name>
<sym>Dot</sym>
</trkpt>
<trkpt lat="48.905318" lon="20.011153">
<ele>1406.5</ele>
<desc>Speed 14.6 km/h Distance 11.91 km</desc>
<time>2013-07-23T16:05:35.63</time>
<name>5650</name>
<sym>Dot</sym>
</trkpt>
<trkpt lat="48.905312" lon="20.011223">
<ele>1406.5</ele>
<desc>Speed 18.7 km/h Distance 11.92 km</desc>
<time>2013-07-23T16:05:36.61</time>
<name>5651</name>
<sym>Dot</sym>
</trkpt>
<trkpt lat="48.905302" lon="20.011303">
<ele>1406.5</ele>
<desc>Speed 21.2 km/h Distance 11.92 km</desc>
<time>2013-07-23T16:05:37.92</time>
<name>5652</name>
<sym>Dot</sym>
</trkpt>
<trkpt lat="48.905292" lon="20.011382">
<ele>1406.5</ele>
<desc>Speed 21.2 km/h Distance 11.93 km</desc>
<time>2013-07-23T16:05:38.60</time>
<name>5653</name>
<sym>Dot</sym>
</trkpt>
<trkpt lat="48.905280" lon="20.011442">
<ele>1408.0</ele>
<desc>Speed 16.6 km/h Distance 11.93 km</desc>
<time>2013-07-23T16:05:39.59</time>
<name>5654</name>
<sym>Dot</sym>
</trkpt>
<trkpt lat="48.905278" lon="20.011490">
<ele>1407.5</ele>
<desc>Speed 13.1 km/h Distance 11.94 km</desc>
<time>2013-07-23T16:05:40.59</time>
<name>5655</name>
<sym>Dot</sym>
</trkpt>
<trkpt lat="48.905277" lon="20.011525">
<ele>1407.0</ele>
<desc>Speed 9.1 km/h Distance 11.94 km</desc>
<time>2013-07-23T16:05:41.58</time>
<name>5656</name>
<sym>Dot</sym>
</trkpt>
<trkpt lat="48.905275" lon="20.011555">
<ele>1407.0</ele>
<desc>Speed 8.0 km/h Distance 11.94 km</desc>
<time>2013-07-23T16:05:42.58</time>
<name>5657</name>
<sym>Dot</sym>
</trkpt>
<trkpt lat="48.905270" lon="20.011583">
<ele>1408.5</ele>
<desc>Speed 7.9 km/h Distance 11.94 km</desc>
<time>2013-07-23T16:05:43.57</time>
<name>5658</name>
<sym>Dot</sym>
</trkpt>
<trkpt lat="48.905270" lon="20.011612">
<ele>1408.5</ele>
<desc>Speed 7.6 km/h Distance 11.95 km</desc>
<time>2013-07-23T16:05:44.57</time>
<name>5659</name>
<sym>Dot</sym>
</trkpt>
<trkpt lat="48.905268" lon="20.011625">
<ele>1408.5</ele>
<desc>Speed 3.6 km/h Distance 11.95 km</desc>
<time>2013-07-23T16:05:45.57</time>
<name>5660</name>
<sym>Dot</sym>
</trkpt>
<trkpt lat="48.905273" lon="20.011635">
<ele>1408.0</ele>
<desc>Speed 2.4 km/h Distance 11.95 km</desc>
<time>2013-07-23T16:05:46.57</time>
<name>5661</name>
<sym>Dot</sym>
</trkpt>
<trkpt lat="48.905282" lon="20.011655">
<ele>1406.0</ele>
<desc>Speed 4.9 km/h Distance 11.95 km</desc>
<time>2013-07-23T16:05:47.57</time>
<name>5662</name>
<sym>Dot</sym>
</trkpt>
<trkpt lat="48.905292" lon="20.011670">
<ele>1404.5</ele>
<desc>Speed 5.7 km/h Distance 11.95 km</desc>
<time>2013-07-23T16:05:48.56</time>
<name>5663</name>
<sym>Dot</sym>
</trkpt>
<trkpt lat="48.905295" lon="20.011687">
<ele>1404.5</ele>
<desc>Speed 4.5 km/h Distance 11.95 km</desc>
<time>2013-07-23T16:05:49.55</time>
<name>5664</name>
<sym>Dot</sym>
</trkpt>
<trkpt lat="48.905297" lon="20.011707">
<ele>1404.5</ele>
<desc>Speed 5.0 km/h Distance 11.95 km</desc>
<time>2013-07-23T16:05:50.54</time>
<name>5665</name>
<sym>Dot</sym>
</trkpt>
<trkpt lat="48.905298" lon="20.011725">
<ele>1404.0</ele>
<desc>Speed 4.7 km/h Distance 11.96 km</desc>
<time>2013-07-23T16:05:51.54</time>
<name>5666</name>
<sym>Dot</sym>
</trkpt>
<trkpt lat="48.905292" lon="20.011748">
<ele>1406.0</ele>
<desc>Speed 6.6 km/h Distance 11.96 km</desc>
<time>2013-07-23T16:05:52.54</time>
<name>5667</name>
<sym>Dot</sym>
</trkpt>
<trkpt lat="48.905293" lon="20.011775">
<ele>1406.0</ele>
<desc>Speed 7.0 km/h Distance 11.96 km</desc>
<time>2013-07-23T16:05:53.53</time>
<name>5668</name>
<sym>Dot</sym>
</trkpt>
<trkpt lat="48.905288" lon="20.011813">
<ele>1406.0</ele>
<desc>Speed 10.1 km/h Distance 11.96 km</desc>
<time>2013-07-23T16:05:54.52</time>
<name>5669</name>
<sym>Dot</sym>
</trkpt>
<trkpt lat="48.905283" lon="20.011853">
<ele>1406.0</ele>
<desc>Speed 10.7 km/h Distance 11.96 km</desc>
<time>2013-07-23T16:05:55.53</time>
<name>5670</name>
<sym>Dot</sym>
</trkpt>
<trkpt lat="48.905277" lon="20.011888">
<ele>1407.5</ele>
<desc>Speed 9.6 km/h Distance 11.97 km</desc>
<time>2013-07-23T16:05:56.52</time>
<name>5671</name>
<sym>Dot</sym>
</trkpt>
<trkpt lat="48.905275" lon="20.011920">
<ele>1407.5</ele>
<desc>Speed 8.4 km/h Distance 11.97 km</desc>
<time>2013-07-23T16:05:57.52</time>
<name>5672</name>
<sym>Dot</sym>
</trkpt>
<trkpt lat="48.905273" lon="20.011953">
<ele>1407.0</ele>
<desc>Speed 8.4 km/h Distance 11.97 km</desc>
<time>2013-07-23T16:05:58.51</time>
<name>5673</name>
<sym>Dot</sym>
</trkpt>
<trkpt lat="48.905272" lon="20.011987">
<ele>1407.0</ele>
<desc>Speed 8.9 km/h Distance 11.97 km</desc>
<time>2013-07-23T16:05:59.50</time>
<name>5674</name>
<sym>Dot</sym>
</trkpt>
<trkpt lat="48.905263" lon="20.012028">
<ele>1408.0</ele>
<desc>Speed 11.3 km/h Distance 11.98 km</desc>
<time>2013-07-23T16:06:00.50</time>
<name>5675</name>
<sym>Dot</sym>
</trkpt>
<trkpt lat="48.905262" lon="20.012068">
<ele>1407.5</ele>
<desc>Speed 10.7 km/h Distance 11.98 km</desc>
<time>2013-07-23T16:06:01.49</time>
<name>5676</name>
<sym>Dot</sym>
</trkpt>
<trkpt lat="48.905257" lon="20.012110">
<ele>1407.5</ele>
<desc>Speed 11.2 km/h Distance 11.98 km</desc>
<time>2013-07-23T16:06:02.49</time>
<name>5677</name>
<sym>Dot</sym>
</trkpt>
<trkpt lat="48.905253" lon="20.012152">
<ele>1407.5</ele>
<desc>Speed 10.9 km/h Distance 11.99 km</desc>
<time>2013-07-23T16:06:03.49</time>
<name>5678</name>
<sym>Dot</sym>
</trkpt>
<trkpt lat="48.905248" lon="20.012195">
<ele>1408.0</ele>
<desc>Speed 11.0 km/h Distance 11.99 km</desc>
<time>2013-07-23T16:06:04.48</time>
<name>5679</name>
<sym>Dot</sym>
</trkpt>
<trkpt lat="48.905248" lon="20.012248">
<ele>1408.0</ele>
<desc>Speed 14.0 km/h Distance 11.99 km</desc>
<time>2013-07-23T16:06:05.48</time>
<name>5680</name>
<sym>Dot</sym>
</trkpt>
<trkpt lat="48.905247" lon="20.012297">
<ele>1408.0</ele>
<desc>Speed 12.7 km/h Distance 12.00 km</desc>
<time>2013-07-23T16:06:06.47</time>
<name>5681</name>
<sym>Dot</sym>
</trkpt>
<trkpt lat="48.905252" lon="20.012348">
<ele>1406.0</ele>
<desc>Speed 12.2 km/h Distance 12.00 km</desc>
<time>2013-07-23T16:06:07.47</time>
<name>5682</name>
<sym>Dot</sym>
</trkpt>
<trkpt lat="48.905260" lon="20.012402">
<ele>1403.0</ele>
<desc>Speed 12.3 km/h Distance 12.01 km</desc>
<time>2013-07-23T16:06:08.46</time>
<name>5683</name>
<sym>Dot</sym>
</trkpt>
<trkpt lat="48.905258" lon="20.012438">
<ele>1402.0</ele>
<desc>Speed 9.5 km/h Distance 12.01 km</desc>
<time>2013-07-23T16:06:09.46</time>
<name>5684</name>
<sym>Dot</sym>
</trkpt>
<trkpt lat="48.905255" lon="20.012478">
<ele>1401.0</ele>
<desc>Speed 10.0 km/h Distance 12.01 km</desc>
<time>2013-07-23T16:06:10.45</time>
<name>5685</name>
<sym>Dot</sym>
</trkpt>
<trkpt lat="48.905257" lon="20.012525">
<ele>1399.5</ele>
<desc>Speed 11.7 km/h Distance 12.01 km</desc>
<time>2013-07-23T16:06:11.44</time>
<name>5686</name>
<sym>Dot</sym>
</trkpt>
<trkpt lat="48.905263" lon="20.012587">
<ele>1396.5</ele>
<desc>Speed 14.7 km/h Distance 12.02 km</desc>
<time>2013-07-23T16:06:12.44</time>
<name>5687</name>
<sym>Dot</sym>
</trkpt>
<trkpt lat="48.905268" lon="20.012655">
<ele>1393.5</ele>
<desc>Speed 16.3 km/h Distance 12.02 km</desc>
<time>2013-07-23T16:06:13.44</time>
<name>5688</name>
<sym>Dot</sym>
</trkpt>
<trkpt lat="48.905277" lon="20.012725">
<ele>1390.5</ele>
<desc>Speed 16.9 km/h Distance 12.03 km</desc>
<time>2013-07-23T16:06:14.43</time>
<name>5689</name>
<sym>Dot</sym>
</trkpt>
<trkpt lat="48.905285" lon="20.012798">
<ele>1388.0</ele>
<desc>Speed 18.3 km/h Distance 12.03 km</desc>
<time>2013-07-23T16:06:15.54</time>
<name>5690</name>
<sym>Dot</sym>
</trkpt>
<trkpt lat="48.905287" lon="20.012870">
<ele>1387.0</ele>
<desc>Speed 18.0 km/h Distance 12.04 km</desc>
<time>2013-07-23T16:06:16.43</time>
<name>5691</name>
<sym>Dot</sym>
</trkpt>
<trkpt lat="48.905292" lon="20.012933">
<ele>1384.5</ele>
<desc>Speed 16.0 km/h Distance 12.04 km</desc>
<time>2013-07-23T16:06:17.43</time>
<name>5692</name>
<sym>Dot</sym>
</trkpt>
<trkpt lat="48.905287" lon="20.012987">
<ele>1384.0</ele>
<desc>Speed 13.9 km/h Distance 12.05 km</desc>
<time>2013-07-23T16:06:18.43</time>
<name>5693</name>
<sym>Dot</sym>
</trkpt>
<trkpt lat="48.905277" lon="20.013045">
<ele>1383.5</ele>
<desc>Speed 15.8 km/h Distance 12.05 km</desc>
<time>2013-07-23T16:06:19.48</time>
<name>5694</name>
<sym>Dot</sym>
</trkpt>
<trkpt lat="48.905270" lon="20.013097">
<ele>1383.5</ele>
<desc>Speed 13.8 km/h Distance 12.06 km</desc>
<time>2013-07-23T16:06:20.42</time>
<name>5695</name>
<sym>Dot</sym>
</trkpt>
<trkpt lat="48.905283" lon="20.013153">
<ele>1382.0</ele>
<desc>Speed 15.4 km/h Distance 12.06 km</desc>
<time>2013-07-23T16:06:21.41</time>
<name>5696</name>
<sym>Dot</sym>
</trkpt>
<trkpt lat="48.905285" lon="20.013207">
<ele>1380.5</ele>
<desc>Speed 13.2 km/h Distance 12.07 km</desc>
<time>2013-07-23T16:06:22.41</time>
<name>5697</name>
<sym>Dot</sym>
</trkpt>
<trkpt lat="48.905262" lon="20.013250">
<ele>1379.5</ele>
<desc>Speed 15.7 km/h Distance 12.07 km</desc>
<time>2013-07-23T16:06:23.40</time>
<name>5698</name>
<sym>Dot</sym>
</trkpt>
<trkpt lat="48.905257" lon="20.013298">
<ele>1377.5</ele>
<desc>Speed 12.7 km/h Distance 12.07 km</desc>
<time>2013-07-23T16:06:24.40</time>
<name>5699</name>
<sym>Dot</sym>
</trkpt>
<trkpt lat="48.905257" lon="20.013327">
<ele>1375.5</ele>
<desc>Speed 6.8 km/h Distance 12.07 km</desc>
<time>2013-07-23T16:06:25.60</time>
<name>5700</name>
<sym>Dot</sym>
</trkpt>
<trkpt lat="48.905250" lon="20.013370">
<ele>1374.0</ele>
<desc>Speed 11.3 km/h Distance 12.08 km</desc>
<time>2013-07-23T16:06:26.39</time>
<name>5701</name>
<sym>Dot</sym>
</trkpt>
<trkpt lat="48.905245" lon="20.013407">
<ele>1373.5</ele>
<desc>Speed 9.9 km/h Distance 12.08 km</desc>
<time>2013-07-23T16:06:27.39</time>
<name>5702</name>
<sym>Dot</sym>
</trkpt>
<trkpt lat="48.905243" lon="20.013448">
<ele>1372.5</ele>
<desc>Speed 10.8 km/h Distance 12.08 km</desc>
<time>2013-07-23T16:06:28.39</time>
<name>5703</name>
<sym>Dot</sym>
</trkpt>
<trkpt lat="48.905238" lon="20.013503">
<ele>1371.5</ele>
<desc>Speed 13.8 km/h Distance 12.09 km</desc>
<time>2013-07-23T16:06:29.38</time>
<name>5704</name>
<sym>Dot</sym>
</trkpt>
<trkpt lat="48.905230" lon="20.013547">
<ele>1371.0</ele>
<desc>Speed 12.2 km/h Distance 12.09 km</desc>
<time>2013-07-23T16:06:30.38</time>
<name>5705</name>
<sym>Dot</sym>
</trkpt>
<trkpt lat="48.905225" lon="20.013588">
<ele>1370.0</ele>
<desc>Speed 10.6 km/h Distance 12.09 km</desc>
<time>2013-07-23T16:06:31.38</time>
<name>5706</name>
<sym>Dot</sym>
</trkpt>
<trkpt lat="48.905222" lon="20.013633">
<ele>1369.5</ele>
<desc>Speed 11.4 km/h Distance 12.10 km</desc>
<time>2013-07-23T16:06:32.46</time>
<name>5707</name>
<sym>Dot</sym>
</trkpt>
<trkpt lat="48.905222" lon="20.013680">
<ele>1368.5</ele>
<desc>Speed 11.7 km/h Distance 12.10 km</desc>
<time>2013-07-23T16:06:33.57</time>
<name>5708</name>
<sym>Dot</sym>
</trkpt>
<trkpt lat="48.905220" lon="20.013725">
<ele>1368.0</ele>
<desc>Speed 11.7 km/h Distance 12.10 km</desc>
<time>2013-07-23T16:06:34.36</time>
<name>5709</name>
<sym>Dot</sym>
</trkpt>
<trkpt lat="48.905215" lon="20.013773">
<ele>1367.5</ele>
<desc>Speed 12.4 km/h Distance 12.11 km</desc>
<time>2013-07-23T16:06:35.36</time>
<name>5710</name>
<sym>Dot</sym>
</trkpt>
<trkpt lat="48.905213" lon="20.013810">
<ele>1366.5</ele>
<desc>Speed 9.5 km/h Distance 12.11 km</desc>
<time>2013-07-23T16:06:36.36</time>
<name>5711</name>
<sym>Dot</sym>
</trkpt>
<trkpt lat="48.905208" lon="20.013857">
<ele>1366.5</ele>
<desc>Speed 12.0 km/h Distance 12.11 km</desc>
<time>2013-07-23T16:06:37.35</time>
<name>5712</name>
<sym>Dot</sym>
</trkpt>
<trkpt lat="48.905200" lon="20.013903">
<ele>1366.5</ele>
<desc>Speed 12.6 km/h Distance 12.12 km</desc>
<time>2013-07-23T16:06:38.35</time>
<name>5713</name>
<sym>Dot</sym>
</trkpt>
<trkpt lat="48.905193" lon="20.013942">
<ele>1366.5</ele>
<desc>Speed 10.2 km/h Distance 12.12 km</desc>
<time>2013-07-23T16:06:39.34</time>
<name>5714</name>
<sym>Dot</sym>
</trkpt>
<trkpt lat="48.905187" lon="20.013973">
<ele>1366.5</ele>
<desc>Speed 8.7 km/h Distance 12.12 km</desc>
<time>2013-07-23T16:06:40.34</time>
<name>5715</name>
<sym>Dot</sym>
</trkpt>
<trkpt lat="48.905183" lon="20.014008">
<ele>1366.5</ele>
<desc>Speed 8.9 km/h Distance 12.13 km</desc>
<time>2013-07-23T16:06:41.33</time>
<name>5716</name>
<sym>Dot</sym>
</trkpt>
<trkpt lat="48.905180" lon="20.014043">
<ele>1366.5</ele>
<desc>Speed 8.9 km/h Distance 12.13 km</desc>
<time>2013-07-23T16:06:42.42</time>
<name>5717</name>
<sym>Dot</sym>
</trkpt>
<trkpt lat="48.905173" lon="20.014073">
<ele>1367.0</ele>
<desc>Speed 7.2 km/h Distance 12.13 km</desc>
<time>2013-07-23T16:06:43.33</time>
<name>5718</name>
<sym>Dot</sym>
</trkpt>
<trkpt lat="48.905167" lon="20.014103">
<ele>1367.0</ele>
<desc>Speed 8.4 km/h Distance 12.13 km</desc>
<time>2013-07-23T16:06:44.33</time>
<name>5719</name>
<sym>Dot</sym>
</trkpt>
<trkpt lat="48.905162" lon="20.014147">
<ele>1367.0</ele>
<desc>Speed 11.3 km/h Distance 12.14 km</desc>
<time>2013-07-23T16:06:45.33</time>
<name>5720</name>
<sym>Dot</sym>
</trkpt>
<trkpt lat="48.905150" lon="20.014190">
<ele>1367.5</ele>
<desc>Speed 11.6 km/h Distance 12.14 km</desc>
<time>2013-07-23T16:06:46.32</time>
<name>5721</name>
<sym>Dot</sym>
</trkpt>
<trkpt lat="48.905138" lon="20.014243">
<ele>1368.0</ele>
<desc>Speed 14.2 km/h Distance 12.14 km</desc>
<time>2013-07-23T16:06:47.39</time>
<name>5722</name>
<sym>Dot</sym>
</trkpt>
<trkpt lat="48.905127" lon="20.014307">
<ele>1369.0</ele>
<desc>Speed 16.5 km/h Distance 12.15 km</desc>
<time>2013-07-23T16:06:48.31</time>
<name>5723</name>
<sym>Dot</sym>
</trkpt>
<trkpt lat="48.905117" lon="20.014373">
<ele>1369.0</ele>
<desc>Speed 17.2 km/h Distance 12.15 km</desc>
<time>2013-07-23T16:06:49.37</time>
<name>5724</name>
<sym>Dot</sym>
</trkpt>
<trkpt lat="48.905110" lon="20.014442">
<ele>1369.5</ele>
<desc>Speed 17.1 km/h Distance 12.16 km</desc>
<time>2013-07-23T16:06:50.29</time>
<name>5725</name>
<sym>Dot</sym>
</trkpt>
<trkpt lat="48.905103" lon="20.014512">
<ele>1369.5</ele>
<desc>Speed 17.8 km/h Distance 12.16 km</desc>
<time>2013-07-23T16:06:51.28</time>
<name>5726</name>
<sym>Dot</sym>
</trkpt>
<trkpt lat="48.905097" lon="20.014585">
<ele>1370.0</ele>
<desc>Speed 18.7 km/h Distance 12.17 km</desc>
<time>2013-07-23T16:06:52.27</time>
<name>5727</name>
<sym>Dot</sym>
</trkpt>
<trkpt lat="48.905088" lon="20.014658">
<ele>1370.0</ele>
<desc>Speed 18.0 km/h Distance 12.17 km</desc>
<time>2013-07-23T16:06:53.26</time>
<name>5728</name>
<sym>Dot</sym>
</trkpt>
<trkpt lat="48.905083" lon="20.014725">
<ele>1370.0</ele>
<desc>Speed 17.0 km/h Distance 12.18 km</desc>
<time>2013-07-23T16:06:54.26</time>
<name>5729</name>
<sym>Dot</sym>
</trkpt>
<trkpt lat="48.905080" lon="20.014792">
<ele>1370.5</ele>
<desc>Speed 17.3 km/h Distance 12.18 km</desc>
<time>2013-07-23T16:06:55.26</time>
<name>5730</name>
<sym>Dot</sym>
</trkpt>
<trkpt lat="48.905073" lon="20.014857">
<ele>1371.5</ele>
<desc>Speed 16.7 km/h Distance 12.19 km</desc>
<time>2013-07-23T16:06:56.28</time>
<name>5731</name>
<sym>Dot</sym>
</trkpt>
<trkpt lat="48.905072" lon="20.014923">
<ele>1371.5</ele>
<desc>Speed 17.4 km/h Distance 12.19 km</desc>
<time>2013-07-23T16:06:57.25</time>
<name>5732</name>
<sym>Dot</sym>
</trkpt>
<trkpt lat="48.905072" lon="20.014990">
<ele>1371.5</ele>
<desc>Speed 17.1 km/h Distance 12.20 km</desc>
<time>2013-07-23T16:06:58.50</time>
<name>5733</name>
<sym>Dot</sym>
</trkpt>
<trkpt lat="48.905073" lon="20.015062">
<ele>1371.5</ele>
<desc>Speed 18.2 km/h Distance 12.20 km</desc>
<time>2013-07-23T16:06:59.24</time>
<name>5734</name>
<sym>Dot</sym>
</trkpt>
<trkpt lat="48.905075" lon="20.015135">
<ele>1371.5</ele>
<desc>Speed 18.3 km/h Distance 12.21 km</desc>
<time>2013-07-23T16:07:00.24</time>
<name>5735</name>
<sym>Dot</sym>
</trkpt>
<trkpt lat="48.905080" lon="20.015210">
<ele>1371.5</ele>
<desc>Speed 18.9 km/h Distance 12.22 km</desc>
<time>2013-07-23T16:07:01.24</time>
<name>5736</name>
<sym>Dot</sym>
</trkpt>
<trkpt lat="48.905085" lon="20.015285">
<ele>1371.5</ele>
<desc>Speed 18.8 km/h Distance 12.22 km</desc>
<time>2013-07-23T16:07:02.23</time>
<name>5737</name>
<sym>Dot</sym>
</trkpt>
<trkpt lat="48.905088" lon="20.015355">
<ele>1372.0</ele>
<desc>Speed 18.7 km/h Distance 12.23 km</desc>
<time>2013-07-23T16:07:03.22</time>
<name>5738</name>
<sym>Dot</sym>
</trkpt>
<trkpt lat="48.905098" lon="20.015432">
<ele>1369.5</ele>
<desc>Speed 19.8 km/h Distance 12.23 km</desc>
<time>2013-07-23T16:07:04.22</time>
<name>5739</name>
<sym>Dot</sym>
</trkpt>
<trkpt lat="48.905088" lon="20.015493">
<ele>1369.5</ele>
<desc>Speed 16.0 km/h Distance 12.24 km</desc>
<time>2013-07-23T16:07:05.22</time>
<name>5740</name>
<sym>Dot</sym>
</trkpt>
<trkpt lat="48.905087" lon="20.015550">
<ele>1369.5</ele>
<desc>Speed 14.5 km/h Distance 12.24 km</desc>
<time>2013-07-23T16:07:06.21</time>
<name>5741</name>
<sym>Dot</sym>
</trkpt>
<trkpt lat="48.905088" lon="20.015602">
<ele>1369.5</ele>
<desc>Speed 13.4 km/h Distance 12.24 km</desc>
<time>2013-07-23T16:07:07.21</time>
<name>5742</name>
<sym>Dot</sym>
</trkpt>
<trkpt lat="48.905100" lon="20.015662">
<ele>1369.0</ele>
<desc>Speed 15.8 km/h Distance 12.25 km</desc>
<time>2013-07-23T16:07:08.20</time>
<name>5743</name>
<sym>Dot</sym>
</trkpt>
<trkpt lat="48.905113" lon="20.015708">
<ele>1368.0</ele>
<desc>Speed 11.7 km/h Distance 12.25 km</desc>
<time>2013-07-23T16:07:09.20</time>
<name>5744</name>
<sym>Dot</sym>
</trkpt>
<trkpt lat="48.905125" lon="20.015758">
<ele>1367.0</ele>
<desc>Speed 13.1 km/h Distance 12.26 km</desc>
<time>2013-07-23T16:07:10.19</time>
<name>5745</name>
<sym>Dot</sym>
</trkpt>
<trkpt lat="48.905138" lon="20.015808">
<ele>1365.0</ele>
<desc>Speed 12.6 km/h Distance 12.26 km</desc>
<time>2013-07-23T16:07:11.18</time>
<name>5746</name>
<sym>Dot</sym>
</trkpt>
<trkpt lat="48.905145" lon="20.015860">
<ele>1365.0</ele>
<desc>Speed 13.3 km/h Distance 12.26 km</desc>
<time>2013-07-23T16:07:12.18</time>
<name>5747</name>
<sym>Dot</sym>
</trkpt>
<trkpt lat="48.905158" lon="20.015907">
<ele>1364.5</ele>
<desc>Speed 12.6 km/h Distance 12.27 km</desc>
<time>2013-07-23T16:07:13.18</time>
<name>5748</name>
<sym>Dot</sym>
</trkpt>
<trkpt lat="48.905158" lon="20.015958">
<ele>1363.5</ele>
<desc>Speed 12.4 km/h Distance 12.27 km</desc>
<time>2013-07-23T16:07:14.23</time>
<name>5749</name>
<sym>Dot</sym>
</trkpt>
<trkpt lat="48.905167" lon="20.016008">
<ele>1362.5</ele>
<desc>Speed 12.2 km/h Distance 12.28 km</desc>
<time>2013-07-23T16:07:15.17</time>
<name>5750</name>
<sym>Dot</sym>
</trkpt>
<trkpt lat="48.905168" lon="20.016050">
<ele>1362.0</ele>
<desc>Speed 10.7 km/h Distance 12.28 km</desc>
<time>2013-07-23T16:07:16.17</time>
<name>5751</name>
<sym>Dot</sym>
</trkpt>
<trkpt lat="48.905168" lon="20.016093">
<ele>1362.0</ele>
<desc>Speed 11.0 km/h Distance 12.28 km</desc>
<time>2013-07-23T16:07:17.16</time>
<name>5752</name>
<sym>Dot</sym>
</trkpt>
<trkpt lat="48.905170" lon="20.016132">
<ele>1362.0</ele>
<desc>Speed 10.4 km/h Distance 12.28 km</desc>
<time>2013-07-23T16:07:18.16</time>
<name>5753</name>
<sym>Dot</sym>
</trkpt>
<trkpt lat="48.905172" lon="20.016168">
<ele>1361.5</ele>
<desc>Speed 9.4 km/h Distance 12.29 km</desc>
<time>2013-07-23T16:07:19.20</time>
<name>5754</name>
<sym>Dot</sym>
</trkpt>
<trkpt lat="48.905165" lon="20.016203">
<ele>1361.5</ele>
<desc>Speed 9.8 km/h Distance 12.29 km</desc>
<time>2013-07-23T16:07:20.14</time>
<name>5755</name>
<sym>Dot</sym>
</trkpt>
<trkpt lat="48.905170" lon="20.016242">
<ele>1361.5</ele>
<desc>Speed 9.9 km/h Distance 12.29 km</desc>
<time>2013-07-23T16:07:21.13</time>
<name>5756</name>
<sym>Dot</sym>
</trkpt>
<trkpt lat="48.905162" lon="20.016265">
<ele>1361.0</ele>
<desc>Speed 6.8 km/h Distance 12.29 km</desc>
<time>2013-07-23T16:07:22.13</time>
<name>5757</name>
<sym>Dot</sym>
</trkpt>
<trkpt lat="48.905165" lon="20.016278">
<ele>1361.5</ele>
<desc>Speed 2.9 km/h Distance 12.30 km</desc>
<time>2013-07-23T16:07:23.12</time>
<name>5758</name>
<sym>Dot</sym>
</trkpt>
<trkpt lat="48.905195" lon="20.016318">
<ele>1360.5</ele>
<desc>Speed 3.6 km/h Distance 12.30 km</desc>
<time>2013-07-23T16:07:36.11</time>
<name>5759</name>
<sym>Dot</sym>
</trkpt>
<trkpt lat="48.905202" lon="20.016338">
<ele>1360.5</ele>
<desc>Speed 5.3 km/h Distance 12.30 km</desc>
<time>2013-07-23T16:07:37.11</time>
<name>5760</name>
<sym>Dot</sym>
</trkpt>
<trkpt lat="48.905207" lon="20.016355">
<ele>1360.5</ele>
<desc>Speed 5.0 km/h Distance 12.30 km</desc>
<time>2013-07-23T16:07:38.10</time>
<name>5761</name>
<sym>Dot</sym>
</trkpt>
<trkpt lat="48.905212" lon="20.016377">
<ele>1360.5</ele>
<desc>Speed 6.0 km/h Distance 12.30 km</desc>
<time>2013-07-23T16:07:39.10</time>
<name>5762</name>
<sym>Dot</sym>
</trkpt>
<trkpt lat="48.905220" lon="20.016403">
<ele>1360.5</ele>
<desc>Speed 8.4 km/h Distance 12.31 km</desc>
<time>2013-07-23T16:07:40.10</time>
<name>5763</name>
<sym>Dot</sym>
</trkpt>
<trkpt lat="48.905225" lon="20.016428">
<ele>1360.5</ele>
<desc>Speed 6.7 km/h Distance 12.31 km</desc>
<time>2013-07-23T16:07:41.10</time>
<name>5764</name>
<sym>Dot</sym>
</trkpt>
<trkpt lat="48.905227" lon="20.016450">
<ele>1360.5</ele>
<desc>Speed 5.7 km/h Distance 12.31 km</desc>
<time>2013-07-23T16:07:42.10</time>
<name>5765</name>
<sym>Dot</sym>
</trkpt>
<trkpt lat="48.905227" lon="20.016473">
<ele>1360.5</ele>
<desc>Speed 5.8 km/h Distance 12.31 km</desc>
<time>2013-07-23T16:07:43.10</time>
<name>5766</name>
<sym>Dot</sym>
</trkpt>
<trkpt lat="48.905233" lon="20.016502">
<ele>1361.0</ele>
<desc>Speed 7.3 km/h Distance 12.31 km</desc>
<time>2013-07-23T16:07:44.09</time>
<name>5767</name>
<sym>Dot</sym>
</trkpt>
<trkpt lat="48.905242" lon="20.016535">
<ele>1361.0</ele>
<desc>Speed 8.3 km/h Distance 12.32 km</desc>
<time>2013-07-23T16:07:45.29</time>
<name>5768</name>
<sym>Dot</sym>
</trkpt>
<trkpt lat="48.905252" lon="20.016568">
<ele>1361.0</ele>
<desc>Speed 9.6 km/h Distance 12.32 km</desc>
<time>2013-07-23T16:07:46.09</time>
<name>5769</name>
<sym>Dot</sym>
</trkpt>
<trkpt lat="48.905263" lon="20.016608">
<ele>1361.0</ele>
<desc>Speed 11.3 km/h Distance 12.32 km</desc>
<time>2013-07-23T16:07:47.08</time>
<name>5770</name>
<sym>Dot</sym>
</trkpt>
<trkpt lat="48.905277" lon="20.016657">
<ele>1361.0</ele>
<desc>Speed 12.7 km/h Distance 12.33 km</desc>
<time>2013-07-23T16:07:48.08</time>
<name>5771</name>
<sym>Dot</sym>
</trkpt>
<trkpt lat="48.905278" lon="20.016702">
<ele>1362.5</ele>
<desc>Speed 11.6 km/h Distance 12.33 km</desc>
<time>2013-07-23T16:07:49.07</time>
<name>5772</name>
<sym>Dot</sym>
</trkpt>
<trkpt lat="48.905285" lon="20.016762">
<ele>1362.5</ele>
<desc>Speed 15.0 km/h Distance 12.33 km</desc>
<time>2013-07-23T16:07:50.07</time>
<name>5773</name>
<sym>Dot</sym>
</trkpt>
<trkpt lat="48.905283" lon="20.016822">
<ele>1362.5</ele>
<desc>Speed 15.1 km/h Distance 12.34 km</desc>
<time>2013-07-23T16:07:51.07</time>
<name>5774</name>
<sym>Dot</sym>
</trkpt>
<trkpt lat="48.905300" lon="20.016887">
<ele>1362.5</ele>
<desc>Speed 17.4 km/h Distance 12.34 km</desc>
<time>2013-07-23T16:07:52.07</time>
<name>5775</name>
<sym>Dot</sym>
</trkpt>
<trkpt lat="48.905308" lon="20.016938">
<ele>1362.5</ele>
<desc>Speed 12.4 km/h Distance 12.35 km</desc>
<time>2013-07-23T16:07:53.06</time>
<name>5776</name>
<sym>Dot</sym>
</trkpt>
<trkpt lat="48.905320" lon="20.016988">
<ele>1362.0</ele>
<desc>Speed 11.8 km/h Distance 12.35 km</desc>
<time>2013-07-23T16:07:54.05</time>
<name>5777</name>
<sym>Dot</sym>
</trkpt>
<trkpt lat="48.905332" lon="20.017030">
<ele>1362.0</ele>
<desc>Speed 10.2 km/h Distance 12.35 km</desc>
<time>2013-07-23T16:07:55.04</time>
<name>5778</name>
<sym>Dot</sym>
</trkpt>
<trkpt lat="48.905342" lon="20.017073">
<ele>1361.5</ele>
<desc>Speed 10.9 km/h Distance 12.36 km</desc>
<time>2013-07-23T16:07:56.04</time>
<name>5779</name>
<sym>Dot</sym>
</trkpt>
<trkpt lat="48.905347" lon="20.017112">
<ele>1361.5</ele>
<desc>Speed 10.1 km/h Distance 12.36 km</desc>
<time>2013-07-23T16:07:57.04</time>
<name>5780</name>
<sym>Dot</sym>
</trkpt>
<trkpt lat="48.905353" lon="20.017153">
<ele>1361.5</ele>
<desc>Speed 10.7 km/h Distance 12.36 km</desc>
<time>2013-07-23T16:07:58.03</time>
<name>5781</name>
<sym>Dot</sym>
</trkpt>
<trkpt lat="48.905362" lon="20.017192">
<ele>1361.5</ele>
<desc>Speed 9.8 km/h Distance 12.37 km</desc>
<time>2013-07-23T16:07:59.02</time>
<name>5782</name>
<sym>Dot</sym>
</trkpt>
<trkpt lat="48.905368" lon="20.017233">
<ele>1362.0</ele>
<desc>Speed 10.5 km/h Distance 12.37 km</desc>
<time>2013-07-23T16:08:00.02</time>
<name>5783</name>
<sym>Dot</sym>
</trkpt>
<trkpt lat="48.905378" lon="20.017282">
<ele>1363.0</ele>
<desc>Speed 12.7 km/h Distance 12.37 km</desc>
<time>2013-07-23T16:08:01.02</time>
<name>5784</name>
<sym>Dot</sym>
</trkpt>
<trkpt lat="48.905395" lon="20.017337">
<ele>1363.0</ele>
<desc>Speed 15.2 km/h Distance 12.38 km</desc>
<time>2013-07-23T16:08:02.02</time>
<name>5785</name>
<sym>Dot</sym>
</trkpt>
<trkpt lat="48.905407" lon="20.017395">
<ele>1363.0</ele>
<desc>Speed 15.9 km/h Distance 12.38 km</desc>
<time>2013-07-23T16:08:03.02</time>
<name>5786</name>
<sym>Dot</sym>
</trkpt>
<trkpt lat="48.905417" lon="20.017445">
<ele>1363.0</ele>
<desc>Speed 13.1 km/h Distance 12.39 km</desc>
<time>2013-07-23T16:08:04.01</time>
<name>5787</name>
<sym>Dot</sym>
</trkpt>
<trkpt lat="48.905410" lon="20.017475">
<ele>1362.5</ele>
<desc>Speed 8.5 km/h Distance 12.39 km</desc>
<time>2013-07-23T16:08:05.01</time>
<name>5788</name>
<sym>Dot</sym>
</trkpt>
<trkpt lat="48.905417" lon="20.017518">
<ele>1362.0</ele>
<desc>Speed 11.1 km/h Distance 12.39 km</desc>
<time>2013-07-23T16:08:06.00</time>
<name>5789</name>
<sym>Dot</sym>
</trkpt>
<trkpt lat="48.905430" lon="20.017563">
<ele>1361.0</ele>
<desc>Speed 10.6 km/h Distance 12.40 km</desc>
<time>2013-07-23T16:08:07.00</time>
<name>5790</name>
<sym>Dot</sym>
</trkpt>
<trkpt lat="48.905438" lon="20.017608">
<ele>1360.0</ele>
<desc>Speed 10.2 km/h Distance 12.40 km</desc>
<time>2013-07-23T16:08:07.99</time>
<name>5791</name>
<sym>Dot</sym>
</trkpt>
<trkpt lat="48.905445" lon="20.017637">
<ele>1358.5</ele>
<desc>Speed 6.3 km/h Distance 12.40 km</desc>
<time>2013-07-23T16:08:09.19</time>
<name>5792</name>
<sym>Dot</sym>
</trkpt>
<trkpt lat="48.905452" lon="20.017670">
<ele>1358.0</ele>
<desc>Speed 8.2 km/h Distance 12.40 km</desc>
<time>2013-07-23T16:08:09.98</time>
<name>5793</name>
<sym>Dot</sym>
</trkpt>
<trkpt lat="48.905458" lon="20.017703">
<ele>1358.0</ele>
<desc>Speed 8.9 km/h Distance 12.41 km</desc>
<time>2013-07-23T16:08:10.97</time>
<name>5794</name>
<sym>Dot</sym>
</trkpt>
<trkpt lat="48.905483" lon="20.017837">
<ele>1358.5</ele>
<desc>Speed 14.9 km/h Distance 12.42 km</desc>
<time>2013-07-23T16:08:13.06</time>
<name>5795</name>
<sym>Dot</sym>
</trkpt>
<trkpt lat="48.905493" lon="20.017890">
<ele>1358.5</ele>
<desc>Speed 14.2 km/h Distance 12.42 km</desc>
<time>2013-07-23T16:08:13.96</time>
<name>5796</name>
<sym>Dot</sym>
</trkpt>
<trkpt lat="48.905497" lon="20.017937">
<ele>1358.5</ele>
<desc>Speed 12.4 km/h Distance 12.42 km</desc>
<time>2013-07-23T16:08:14.96</time>
<name>5797</name>
<sym>Dot</sym>
</trkpt>
<trkpt lat="48.905510" lon="20.017978">
<ele>1358.5</ele>
<desc>Speed 11.1 km/h Distance 12.43 km</desc>
<time>2013-07-23T16:08:15.95</time>
<name>5798</name>
<sym>Dot</sym>
</trkpt>
<trkpt lat="48.905535" lon="20.018000">
<ele>1358.5</ele>
<desc>Speed 11.0 km/h Distance 12.43 km</desc>
<time>2013-07-23T16:08:16.95</time>
<name>5799</name>
<sym>Dot</sym>
</trkpt>
<trkpt lat="48.905545" lon="20.018028">
<ele>1359.0</ele>
<desc>Speed 7.8 km/h Distance 12.43 km</desc>
<time>2013-07-23T16:08:17.94</time>
<name>5800</name>
<sym>Dot</sym>
</trkpt>
<trkpt lat="48.905553" lon="20.018065">
<ele>1359.0</ele>
<desc>Speed 9.6 km/h Distance 12.44 km</desc>
<time>2013-07-23T16:08:18.93</time>
<name>5801</name>
<sym>Dot</sym>
</trkpt>
<trkpt lat="48.905563" lon="20.018110">
<ele>1359.0</ele>
<desc>Speed 11.9 km/h Distance 12.44 km</desc>
<time>2013-07-23T16:08:20.13</time>
<name>5802</name>
<sym>Dot</sym>
</trkpt>
<trkpt lat="48.905577" lon="20.018162">
<ele>1359.0</ele>
<desc>Speed 13.8 km/h Distance 12.44 km</desc>
<time>2013-07-23T16:08:20.92</time>
<name>5803</name>
<sym>Dot</sym>
</trkpt>
<trkpt lat="48.905590" lon="20.018215">
<ele>1359.0</ele>
<desc>Speed 14.4 km/h Distance 12.45 km</desc>
<time>2013-07-23T16:08:21.91</time>
<name>5804</name>
<sym>Dot</sym>
</trkpt>
<trkpt lat="48.905602" lon="20.018270">
<ele>1359.0</ele>
<desc>Speed 13.8 km/h Distance 12.45 km</desc>
<time>2013-07-23T16:08:22.90</time>
<name>5805</name>
<sym>Dot</sym>
</trkpt>
<trkpt lat="48.905615" lon="20.018323">
<ele>1358.5</ele>
<desc>Speed 13.6 km/h Distance 12.46 km</desc>
<time>2013-07-23T16:08:23.90</time>
<name>5806</name>
<sym>Dot</sym>
</trkpt>
<trkpt lat="48.905630" lon="20.018378">
<ele>1358.5</ele>
<desc>Speed 14.7 km/h Distance 12.46 km</desc>
<time>2013-07-23T16:08:24.91</time>
<name>5807</name>
<sym>Dot</sym>
</trkpt>
<trkpt lat="48.905645" lon="20.018433">
<ele>1359.0</ele>
<desc>Speed 14.2 km/h Distance 12.46 km</desc>
<time>2013-07-23T16:08:25.90</time>
<name>5808</name>
<sym>Dot</sym>
</trkpt>
<trkpt lat="48.905658" lon="20.018483">
<ele>1358.5</ele>
<desc>Speed 13.2 km/h Distance 12.47 km</desc>
<time>2013-07-23T16:08:26.90</time>
<name>5809</name>
<sym>Dot</sym>
</trkpt>
<trkpt lat="48.905638" lon="20.018552">
<ele>1358.5</ele>
<desc>Speed 18.8 km/h Distance 12.47 km</desc>
<time>2013-07-23T16:08:27.89</time>
<name>5810</name>
<sym>Dot</sym>
</trkpt>
<trkpt lat="48.905663" lon="20.018605">
<ele>1358.5</ele>
<desc>Speed 16.0 km/h Distance 12.48 km</desc>
<time>2013-07-23T16:08:28.93</time>
<name>5811</name>
<sym>Dot</sym>
</trkpt>
<trkpt lat="48.905678" lon="20.018662">
<ele>1358.5</ele>
<desc>Speed 15.1 km/h Distance 12.48 km</desc>
<time>2013-07-23T16:08:29.87</time>
<name>5812</name>
<sym>Dot</sym>
</trkpt>
<trkpt lat="48.905683" lon="20.018705">
<ele>1358.0</ele>
<desc>Speed 10.9 km/h Distance 12.49 km</desc>
<time>2013-07-23T16:08:30.87</time>
<name>5813</name>
<sym>Dot</sym>
</trkpt>
<trkpt lat="48.905692" lon="20.018747">
<ele>1358.0</ele>
<desc>Speed 10.8 km/h Distance 12.49 km</desc>
<time>2013-07-23T16:08:31.87</time>
<name>5814</name>
<sym>Dot</sym>
</trkpt>
<trkpt lat="48.905707" lon="20.018795">
<ele>1358.0</ele>
<desc>Speed 13.1 km/h Distance 12.49 km</desc>
<time>2013-07-23T16:08:32.93</time>
<name>5815</name>
<sym>Dot</sym>
</trkpt>
<trkpt lat="48.905725" lon="20.018845">
<ele>1358.0</ele>
<desc>Speed 13.7 km/h Distance 12.50 km</desc>
<time>2013-07-23T16:08:33.87</time>
<name>5816</name>
<sym>Dot</sym>
</trkpt>
<trkpt lat="48.905747" lon="20.018890">
<ele>1357.5</ele>
<desc>Speed 12.7 km/h Distance 12.50 km</desc>
<time>2013-07-23T16:08:34.87</time>
<name>5817</name>
<sym>Dot</sym>
</trkpt>
<trkpt lat="48.905772" lon="20.018932">
<ele>1356.5</ele>
<desc>Speed 13.1 km/h Distance 12.51 km</desc>
<time>2013-07-23T16:08:35.86</time>
<name>5818</name>
<sym>Dot</sym>
</trkpt>
<trkpt lat="48.905797" lon="20.018975">
<ele>1356.5</ele>
<desc>Speed 13.9 km/h Distance 12.51 km</desc>
<time>2013-07-23T16:08:36.86</time>
<name>5819</name>
<sym>Dot</sym>
</trkpt>
<trkpt lat="48.905820" lon="20.019017">
<ele>1356.0</ele>
<desc>Speed 12.5 km/h Distance 12.51 km</desc>
<time>2013-07-23T16:08:37.86</time>
<name>5820</name>
<sym>Dot</sym>
</trkpt>
<trkpt lat="48.905845" lon="20.019063">
<ele>1356.0</ele>
<desc>Speed 13.2 km/h Distance 12.52 km</desc>
<time>2013-07-23T16:08:38.86</time>
<name>5821</name>
<sym>Dot</sym>
</trkpt>
<trkpt lat="48.905872" lon="20.019113">
<ele>1355.0</ele>
<desc>Speed 12.9 km/h Distance 12.52 km</desc>
<time>2013-07-23T16:08:39.85</time>
<name>5822</name>
<sym>Dot</sym>
</trkpt>
<trkpt lat="48.905900" lon="20.019163">
<ele>1355.0</ele>
<desc>Speed 13.9 km/h Distance 12.53 km</desc>
<time>2013-07-23T16:08:40.84</time>
<name>5823</name>
<sym>Dot</sym>
</trkpt>
<trkpt lat="48.905923" lon="20.019212">
<ele>1355.0</ele>
<desc>Speed 14.1 km/h Distance 12.53 km</desc>
<time>2013-07-23T16:08:41.83</time>
<name>5824</name>
<sym>Dot</sym>
</trkpt>
<trkpt lat="48.905943" lon="20.019270">
<ele>1355.0</ele>
<desc>Speed 16.1 km/h Distance 12.54 km</desc>
<time>2013-07-23T16:08:42.83</time>
<name>5825</name>
<sym>Dot</sym>
</trkpt>
<trkpt lat="48.905967" lon="20.019297">
<ele>1355.0</ele>
<desc>Speed 11.0 km/h Distance 12.54 km</desc>
<time>2013-07-23T16:08:43.82</time>
<name>5826</name>
<sym>Dot</sym>
</trkpt>
<trkpt lat="48.905987" lon="20.019338">
<ele>1355.0</ele>
<desc>Speed 12.4 km/h Distance 12.54 km</desc>
<time>2013-07-23T16:08:44.85</time>
<name>5827</name>
<sym>Dot</sym>
</trkpt>
<trkpt lat="48.905993" lon="20.019382">
<ele>1355.0</ele>
<desc>Speed 10.8 km/h Distance 12.55 km</desc>
<time>2013-07-23T16:08:45.80</time>
<name>5828</name>
<sym>Dot</sym>
</trkpt>
<trkpt lat="48.906007" lon="20.019427">
<ele>1355.0</ele>
<desc>Speed 12.6 km/h Distance 12.55 km</desc>
<time>2013-07-23T16:08:46.80</time>
<name>5829</name>
<sym>Dot</sym>
</trkpt>
<trkpt lat="48.906025" lon="20.019468">
<ele>1355.0</ele>
<desc>Speed 12.9 km/h Distance 12.56 km</desc>
<time>2013-07-23T16:08:47.79</time>
<name>5830</name>
<sym>Dot</sym>
</trkpt>
<trkpt lat="48.906023" lon="20.019510">
<ele>1355.0</ele>
<desc>Speed 10.7 km/h Distance 12.56 km</desc>
<time>2013-07-23T16:08:48.79</time>
<name>5831</name>
<sym>Dot</sym>
</trkpt>
<trkpt lat="48.906043" lon="20.019565">
<ele>1355.0</ele>
<desc>Speed 15.6 km/h Distance 12.56 km</desc>
<time>2013-07-23T16:08:49.78</time>
<name>5832</name>
<sym>Dot</sym>
</trkpt>
<trkpt lat="48.906058" lon="20.019615">
<ele>1357.0</ele>
<desc>Speed 13.4 km/h Distance 12.57 km</desc>
<time>2013-07-23T16:08:50.88</time>
<name>5833</name>
<sym>Dot</sym>
</trkpt>
<trkpt lat="48.906075" lon="20.019667">
<ele>1356.0</ele>
<desc>Speed 13.1 km/h Distance 12.57 km</desc>
<time>2013-07-23T16:08:51.90</time>
<name>5834</name>
<sym>Dot</sym>
</trkpt>
<trkpt lat="48.906092" lon="20.019720">
<ele>1356.0</ele>
<desc>Speed 14.7 km/h Distance 12.58 km</desc>
<time>2013-07-23T16:08:52.75</time>
<name>5835</name>
<sym>Dot</sym>
</trkpt>
<trkpt lat="48.906102" lon="20.019768">
<ele>1356.0</ele>
<desc>Speed 12.9 km/h Distance 12.58 km</desc>
<time>2013-07-23T16:08:53.74</time>
<name>5836</name>
<sym>Dot</sym>
</trkpt>
<trkpt lat="48.906110" lon="20.019817">
<ele>1356.5</ele>
<desc>Speed 12.8 km/h Distance 12.58 km</desc>
<time>2013-07-23T16:08:54.74</time>
<name>5837</name>
<sym>Dot</sym>
</trkpt>
<trkpt lat="48.906127" lon="20.019873">
<ele>1356.5</ele>
<desc>Speed 14.6 km/h Distance 12.59 km</desc>
<time>2013-07-23T16:08:55.73</time>
<name>5838</name>
<sym>Dot</sym>
</trkpt>
<trkpt lat="48.906140" lon="20.019928">
<ele>1356.5</ele>
<desc>Speed 15.6 km/h Distance 12.59 km</desc>
<time>2013-07-23T16:08:56.73</time>
<name>5839</name>
<sym>Dot</sym>
</trkpt>
<trkpt lat="48.906155" lon="20.019987">
<ele>1357.0</ele>
<desc>Speed 16.9 km/h Distance 12.60 km</desc>
<time>2013-07-23T16:08:57.72</time>
<name>5840</name>
<sym>Dot</sym>
</trkpt>
<trkpt lat="48.906223" lon="20.020128">
<ele>1354.0</ele>
<desc>Speed 18.1 km/h Distance 12.61 km</desc>
<time>2013-07-23T16:08:59.72</time>
<name>5841</name>
<sym>Dot</sym>
</trkpt>
<trkpt lat="48.906253" lon="20.020195">
<ele>1353.0</ele>
<desc>Speed 18.8 km/h Distance 12.61 km</desc>
<time>2013-07-23T16:09:00.71</time>
<name>5842</name>
<sym>Dot</sym>
</trkpt>
<trkpt lat="48.906292" lon="20.020267">
<ele>1351.5</ele>
<desc>Speed 20.1 km/h Distance 12.62 km</desc>
<time>2013-07-23T16:09:01.71</time>
<name>5843</name>
<sym>Dot</sym>
</trkpt>
<trkpt lat="48.906333" lon="20.020345">
<ele>1349.5</ele>
<desc>Speed 21.1 km/h Distance 12.63 km</desc>
<time>2013-07-23T16:09:02.70</time>
<name>5844</name>
<sym>Dot</sym>
</trkpt>
<trkpt lat="48.906368" lon="20.020417">
<ele>1347.5</ele>
<desc>Speed 19.4 km/h Distance 12.64 km</desc>
<time>2013-07-23T16:09:03.88</time>
<name>5845</name>
<sym>Dot</sym>
</trkpt>
<trkpt lat="48.906392" lon="20.020473">
<ele>1347.0</ele>
<desc>Speed 16.7 km/h Distance 12.64 km</desc>
<time>2013-07-23T16:09:04.69</time>
<name>5846</name>
<sym>Dot</sym>
</trkpt>
<trkpt lat="48.906413" lon="20.020527">
<ele>1346.5</ele>
<desc>Speed 15.6 km/h Distance 12.65 km</desc>
<time>2013-07-23T16:09:05.69</time>
<name>5847</name>
<sym>Dot</sym>
</trkpt>
<trkpt lat="48.906437" lon="20.020582">
<ele>1346.0</ele>
<desc>Speed 15.6 km/h Distance 12.65 km</desc>
<time>2013-07-23T16:09:06.68</time>
<name>5848</name>
<sym>Dot</sym>
</trkpt>
<trkpt lat="48.906463" lon="20.020637">
<ele>1344.5</ele>
<desc>Speed 15.4 km/h Distance 12.65 km</desc>
<time>2013-07-23T16:09:07.67</time>
<name>5849</name>
<sym>Dot</sym>
</trkpt>
<trkpt lat="48.906487" lon="20.020687">
<ele>1343.0</ele>
<desc>Speed 13.3 km/h Distance 12.66 km</desc>
<time>2013-07-23T16:09:08.67</time>
<name>5850</name>
<sym>Dot</sym>
</trkpt>
<trkpt lat="48.906507" lon="20.020735">
<ele>1341.5</ele>
<desc>Speed 11.6 km/h Distance 12.66 km</desc>
<time>2013-07-23T16:09:09.67</time>
<name>5851</name>
<sym>Dot</sym>
</trkpt>
<trkpt lat="48.906530" lon="20.020777">
<ele>1340.0</ele>
<desc>Speed 10.4 km/h Distance 12.67 km</desc>
<time>2013-07-23T16:09:10.66</time>
<name>5852</name>
<sym>Dot</sym>
</trkpt>
<trkpt lat="48.906553" lon="20.020807">
<ele>1338.5</ele>
<desc>Speed 9.3 km/h Distance 12.67 km</desc>
<time>2013-07-23T16:09:11.66</time>
<name>5853</name>
<sym>Dot</sym>
</trkpt>
<trkpt lat="48.906570" lon="20.020835">
<ele>1337.0</ele>
<desc>Speed 7.5 km/h Distance 12.67 km</desc>
<time>2013-07-23T16:09:12.66</time>
<name>5854</name>
<sym>Dot</sym>
</trkpt>
<trkpt lat="48.906575" lon="20.020850">
<ele>1336.5</ele>
<desc>Speed 3.7 km/h Distance 12.67 km</desc>
<time>2013-07-23T16:09:13.66</time>
<name>5855</name>
<sym>Dot</sym>
</trkpt>
<trkpt lat="48.906612" lon="20.020905">
<ele>1330.0</ele>
<desc>Speed 3.0 km/h Distance 12.68 km</desc>
<time>2013-07-23T16:09:36.65</time>
<name>5856</name>
<sym>Dot</sym>
</trkpt>
<trkpt lat="48.906617" lon="20.020900">
<ele>1329.5</ele>
<desc>Speed 2.2 km/h Distance 12.68 km</desc>
<time>2013-07-23T16:09:37.65</time>
<name>5857</name>
<sym>Dot</sym>
</trkpt>
<trkpt lat="48.906615" lon="20.020913">
<ele>1327.5</ele>
<desc>Speed 3.2 km/h Distance 12.68 km</desc>
<time>2013-07-23T16:09:50.65</time>
<name>5858</name>
<sym>Dot</sym>
</trkpt>
<trkpt lat="48.906625" lon="20.020925">
<ele>1327.5</ele>
<desc>Speed 5.3 km/h Distance 12.68 km</desc>
<time>2013-07-23T16:09:51.74</time>
<name>5859</name>
<sym>Dot</sym>
</trkpt>
<trkpt lat="48.906640" lon="20.020945">
<ele>1327.0</ele>
<desc>Speed 7.7 km/h Distance 12.69 km</desc>
<time>2013-07-23T16:09:52.63</time>
<name>5860</name>
<sym>Dot</sym>
</trkpt>
<trkpt lat="48.906655" lon="20.020972">
<ele>1327.0</ele>
<desc>Speed 9.4 km/h Distance 12.69 km</desc>
<time>2013-07-23T16:09:53.62</time>
<name>5861</name>
<sym>Dot</sym>
</trkpt>
<trkpt lat="48.906675" lon="20.021002">
<ele>1327.0</ele>
<desc>Speed 10.8 km/h Distance 12.69 km</desc>
<time>2013-07-23T16:09:54.62</time>
<name>5862</name>
<sym>Dot</sym>
</trkpt>
<trkpt lat="48.906697" lon="20.021035">
<ele>1326.5</ele>
<desc>Speed 11.9 km/h Distance 12.70 km</desc>
<time>2013-07-23T16:09:55.67</time>
<name>5863</name>
<sym>Dot</sym>
</trkpt>
<trkpt lat="48.906723" lon="20.021068">
<ele>1326.0</ele>
<desc>Speed 12.4 km/h Distance 12.70 km</desc>
<time>2013-07-23T16:09:56.61</time>
<name>5864</name>
<sym>Dot</sym>
</trkpt>
<trkpt lat="48.906755" lon="20.021100">
<ele>1325.0</ele>
<desc>Speed 13.5 km/h Distance 12.70 km</desc>
<time>2013-07-23T16:09:57.61</time>
<name>5865</name>
<sym>Dot</sym>
</trkpt>
<trkpt lat="48.906785" lon="20.021135">
<ele>1324.0</ele>
<desc>Speed 14.3 km/h Distance 12.71 km</desc>
<time>2013-07-23T16:09:58.61</time>
<name>5866</name>
<sym>Dot</sym>
</trkpt>
<trkpt lat="48.906817" lon="20.021173">
<ele>1323.5</ele>
<desc>Speed 16.1 km/h Distance 12.71 km</desc>
<time>2013-07-23T16:09:59.64</time>
<name>5867</name>
<sym>Dot</sym>
</trkpt>
<trkpt lat="48.906850" lon="20.021213">
<ele>1322.5</ele>
<desc>Speed 16.5 km/h Distance 12.72 km</desc>
<time>2013-07-23T16:10:00.60</time>
<name>5868</name>
<sym>Dot</sym>
</trkpt>
<trkpt lat="48.906883" lon="20.021253">
<ele>1322.0</ele>
<desc>Speed 15.8 km/h Distance 12.72 km</desc>
<time>2013-07-23T16:10:01.74</time>
<name>5869</name>
<sym>Dot</sym>
</trkpt>
<trkpt lat="48.906913" lon="20.021298">
<ele>1321.5</ele>
<desc>Speed 16.3 km/h Distance 12.73 km</desc>
<time>2013-07-23T16:10:02.67</time>
<name>5870</name>
<sym>Dot</sym>
</trkpt>
<trkpt lat="48.906943" lon="20.021343">
<ele>1321.0</ele>
<desc>Speed 16.3 km/h Distance 12.73 km</desc>
<time>2013-07-23T16:10:03.60</time>
<name>5871</name>
<sym>Dot</sym>
</trkpt>
<trkpt lat="48.906973" lon="20.021388">
<ele>1321.0</ele>
<desc>Speed 16.1 km/h Distance 12.74 km</desc>
<time>2013-07-23T16:10:04.60</time>
<name>5872</name>
<sym>Dot</sym>
</trkpt>
<trkpt lat="48.907003" lon="20.021433">
<ele>1321.0</ele>
<desc>Speed 16.3 km/h Distance 12.74 km</desc>
<time>2013-07-23T16:10:05.59</time>
<name>5873</name>
<sym>Dot</sym>
</trkpt>
<trkpt lat="48.907032" lon="20.021480">
<ele>1320.5</ele>
<desc>Speed 16.4 km/h Distance 12.74 km</desc>
<time>2013-07-23T16:10:06.58</time>
<name>5874</name>
<sym>Dot</sym>
</trkpt>
<trkpt lat="48.907062" lon="20.021530">
<ele>1320.5</ele>
<desc>Speed 16.4 km/h Distance 12.75 km</desc>
<time>2013-07-23T16:10:07.62</time>
<name>5875</name>
<sym>Dot</sym>
</trkpt>
<trkpt lat="48.907090" lon="20.021578">
<ele>1320.5</ele>
<desc>Speed 16.6 km/h Distance 12.75 km</desc>
<time>2013-07-23T16:10:08.57</time>
<name>5876</name>
<sym>Dot</sym>
</trkpt>
<trkpt lat="48.907122" lon="20.021623">
<ele>1320.0</ele>
<desc>Speed 16.7 km/h Distance 12.76 km</desc>
<time>2013-07-23T16:10:09.56</time>
<name>5877</name>
<sym>Dot</sym>
</trkpt>
<trkpt lat="48.907148" lon="20.021672">
<ele>1320.0</ele>
<desc>Speed 16.3 km/h Distance 12.76 km</desc>
<time>2013-07-23T16:10:10.56</time>
<name>5878</name>
<sym>Dot</sym>
</trkpt>
<trkpt lat="48.907177" lon="20.021720">
<ele>1320.0</ele>
<desc>Speed 16.7 km/h Distance 12.77 km</desc>
<time>2013-07-23T16:10:11.55</time>
<name>5879</name>
<sym>Dot</sym>
</trkpt>
<trkpt lat="48.907207" lon="20.021772">
<ele>1319.5</ele>
<desc>Speed 17.1 km/h Distance 12.77 km</desc>
<time>2013-07-23T16:10:12.55</time>
<name>5880</name>
<sym>Dot</sym>
</trkpt>
<trkpt lat="48.907233" lon="20.021827">
<ele>1319.5</ele>
<desc>Speed 17.8 km/h Distance 12.78 km</desc>
<time>2013-07-23T16:10:13.55</time>
<name>5881</name>
<sym>Dot</sym>
</trkpt>
<trkpt lat="48.907265" lon="20.021880">
<ele>1319.0</ele>
<desc>Speed 18.5 km/h Distance 12.78 km</desc>
<time>2013-07-23T16:10:14.54</time>
<name>5882</name>
<sym>Dot</sym>
</trkpt>
<trkpt lat="48.907297" lon="20.021937">
<ele>1318.5</ele>
<desc>Speed 19.2 km/h Distance 12.79 km</desc>
<time>2013-07-23T16:10:15.54</time>
<name>5883</name>
<sym>Dot</sym>
</trkpt>
<trkpt lat="48.907327" lon="20.021988">
<ele>1318.0</ele>
<desc>Speed 17.7 km/h Distance 12.79 km</desc>
<time>2013-07-23T16:10:16.54</time>
<name>5884</name>
<sym>Dot</sym>
</trkpt>
<trkpt lat="48.907353" lon="20.022037">
<ele>1317.5</ele>
<desc>Speed 16.1 km/h Distance 12.80 km</desc>
<time>2013-07-23T16:10:17.54</time>
<name>5885</name>
<sym>Dot</sym>
</trkpt>
<trkpt lat="48.907382" lon="20.022085">
<ele>1317.0</ele>
<desc>Speed 16.5 km/h Distance 12.80 km</desc>
<time>2013-07-23T16:10:18.53</time>
<name>5886</name>
<sym>Dot</sym>
</trkpt>
<trkpt lat="48.907408" lon="20.022125">
<ele>1316.5</ele>
<desc>Speed 15.1 km/h Distance 12.81 km</desc>
<time>2013-07-23T16:10:19.52</time>
<name>5887</name>
<sym>Dot</sym>
</trkpt>
<trkpt lat="48.907428" lon="20.022172">
<ele>1316.5</ele>
<desc>Speed 14.1 km/h Distance 12.81 km</desc>
<time>2013-07-23T16:10:20.52</time>
<name>5888</name>
<sym>Dot</sym>
</trkpt>
<trkpt lat="48.907448" lon="20.022220">
<ele>1316.0</ele>
<desc>Speed 14.8 km/h Distance 12.82 km</desc>
<time>2013-07-23T16:10:21.52</time>
<name>5889</name>
<sym>Dot</sym>
</trkpt>
<trkpt lat="48.907473" lon="20.022265">
<ele>1316.0</ele>
<desc>Speed 15.6 km/h Distance 12.82 km</desc>
<time>2013-07-23T16:10:22.51</time>
<name>5890</name>
<sym>Dot</sym>
</trkpt>
<trkpt lat="48.907493" lon="20.022312">
<ele>1316.0</ele>
<desc>Speed 14.7 km/h Distance 12.82 km</desc>
<time>2013-07-23T16:10:23.53</time>
<name>5891</name>
<sym>Dot</sym>
</trkpt>
<trkpt lat="48.907517" lon="20.022358">
<ele>1316.0</ele>
<desc>Speed 15.2 km/h Distance 12.83 km</desc>
<time>2013-07-23T16:10:24.55</time>
<name>5892</name>
<sym>Dot</sym>
</trkpt>
<trkpt lat="48.907542" lon="20.022415">
<ele>1316.0</ele>
<desc>Speed 17.2 km/h Distance 12.83 km</desc>
<time>2013-07-23T16:10:25.50</time>
<name>5893</name>
<sym>Dot</sym>
</trkpt>
<trkpt lat="48.907572" lon="20.022473">
<ele>1315.5</ele>
<desc>Speed 19.1 km/h Distance 12.84 km</desc>
<time>2013-07-23T16:10:26.50</time>
<name>5894</name>
<sym>Dot</sym>
</trkpt>
<trkpt lat="48.907600" lon="20.022532">
<ele>1315.5</ele>
<desc>Speed 18.7 km/h Distance 12.84 km</desc>
<time>2013-07-23T16:10:27.49</time>
<name>5895</name>
<sym>Dot</sym>
</trkpt>
<trkpt lat="48.907628" lon="20.022588">
<ele>1315.0</ele>
<desc>Speed 18.0 km/h Distance 12.85 km</desc>
<time>2013-07-23T16:10:28.48</time>
<name>5896</name>
<sym>Dot</sym>
</trkpt>
<trkpt lat="48.907652" lon="20.022638">
<ele>1315.0</ele>
<desc>Speed 15.8 km/h Distance 12.85 km</desc>
<time>2013-07-23T16:10:29.48</time>
<name>5897</name>
<sym>Dot</sym>
</trkpt>
<trkpt lat="48.907668" lon="20.022680">
<ele>1314.5</ele>
<desc>Speed 12.6 km/h Distance 12.86 km</desc>
<time>2013-07-23T16:10:30.54</time>
<name>5898</name>
<sym>Dot</sym>
</trkpt>
<trkpt lat="48.907683" lon="20.022713">
<ele>1314.5</ele>
<desc>Speed 10.2 km/h Distance 12.86 km</desc>
<time>2013-07-23T16:10:31.55</time>
<name>5899</name>
<sym>Dot</sym>
</trkpt>
<trkpt lat="48.907703" lon="20.022750">
<ele>1314.0</ele>
<desc>Speed 11.5 km/h Distance 12.86 km</desc>
<time>2013-07-23T16:10:32.46</time>
<name>5900</name>
<sym>Dot</sym>
</trkpt>
<trkpt lat="48.907725" lon="20.022788">
<ele>1314.0</ele>
<desc>Speed 12.5 km/h Distance 12.87 km</desc>
<time>2013-07-23T16:10:33.45</time>
<name>5901</name>
<sym>Dot</sym>
</trkpt>
<trkpt lat="48.907747" lon="20.022825">
<ele>1313.5</ele>
<desc>Speed 12.9 km/h Distance 12.87 km</desc>
<time>2013-07-23T16:10:34.45</time>
<name>5902</name>
<sym>Dot</sym>
</trkpt>
<trkpt lat="48.907767" lon="20.022872">
<ele>1313.5</ele>
<desc>Speed 14.2 km/h Distance 12.88 km</desc>
<time>2013-07-23T16:10:35.45</time>
<name>5903</name>
<sym>Dot</sym>
</trkpt>
<trkpt lat="48.907788" lon="20.022918">
<ele>1313.5</ele>
<desc>Speed 14.8 km/h Distance 12.88 km</desc>
<time>2013-07-23T16:10:36.44</time>
<name>5904</name>
<sym>Dot</sym>
</trkpt>
<trkpt lat="48.907812" lon="20.022970">
<ele>1313.0</ele>
<desc>Speed 15.8 km/h Distance 12.88 km</desc>
<time>2013-07-23T16:10:37.44</time>
<name>5905</name>
<sym>Dot</sym>
</trkpt>
<trkpt lat="48.907838" lon="20.023025">
<ele>1312.5</ele>
<desc>Speed 17.6 km/h Distance 12.89 km</desc>
<time>2013-07-23T16:10:38.43</time>
<name>5906</name>
<sym>Dot</sym>
</trkpt>
<trkpt lat="48.907868" lon="20.023085">
<ele>1312.5</ele>
<desc>Speed 19.4 km/h Distance 12.89 km</desc>
<time>2013-07-23T16:10:39.42</time>
<name>5907</name>
<sym>Dot</sym>
</trkpt>
<trkpt lat="48.907898" lon="20.023150">
<ele>1312.0</ele>
<desc>Speed 20.3 km/h Distance 12.90 km</desc>
<time>2013-07-23T16:10:40.42</time>
<name>5908</name>
<sym>Dot</sym>
</trkpt>
<trkpt lat="48.907928" lon="20.023215">
<ele>1312.0</ele>
<desc>Speed 20.7 km/h Distance 12.91 km</desc>
<time>2013-07-23T16:10:41.41</time>
<name>5909</name>
<sym>Dot</sym>
</trkpt>
<trkpt lat="48.907960" lon="20.023282">
<ele>1312.0</ele>
<desc>Speed 21.2 km/h Distance 12.91 km</desc>
<time>2013-07-23T16:10:42.41</time>
<name>5910</name>
<sym>Dot</sym>
</trkpt>
<trkpt lat="48.907995" lon="20.023338">
<ele>1312.0</ele>
<desc>Speed 20.1 km/h Distance 12.92 km</desc>
<time>2013-07-23T16:10:43.41</time>
<name>5911</name>
<sym>Dot</sym>
</trkpt>
<trkpt lat="48.908020" lon="20.023410">
<ele>1312.0</ele>
<desc>Speed 21.5 km/h Distance 12.92 km</desc>
<time>2013-07-23T16:10:44.41</time>
<name>5912</name>
<sym>Dot</sym>
</trkpt>
<trkpt lat="48.908048" lon="20.023467">
<ele>1312.0</ele>
<desc>Speed 18.5 km/h Distance 12.93 km</desc>
<time>2013-07-23T16:10:45.40</time>
<name>5913</name>
<sym>Dot</sym>
</trkpt>
<trkpt lat="48.908077" lon="20.023535">
<ele>1311.5</ele>
<desc>Speed 21.2 km/h Distance 12.94 km</desc>
<time>2013-07-23T16:10:46.40</time>
<name>5914</name>
<sym>Dot</sym>
</trkpt>
<trkpt lat="48.908103" lon="20.023610">
<ele>1311.5</ele>
<desc>Speed 22.2 km/h Distance 12.94 km</desc>
<time>2013-07-23T16:10:47.40</time>
<name>5915</name>
<sym>Dot</sym>
</trkpt>
<trkpt lat="48.908127" lon="20.023687">
<ele>1311.5</ele>
<desc>Speed 22.4 km/h Distance 12.95 km</desc>
<time>2013-07-23T16:10:48.40</time>
<name>5916</name>
<sym>Dot</sym>
</trkpt>
<trkpt lat="48.908150" lon="20.023760">
<ele>1311.5</ele>
<desc>Speed 21.3 km/h Distance 12.95 km</desc>
<time>2013-07-23T16:10:49.40</time>
<name>5917</name>
<sym>Dot</sym>
</trkpt>
<trkpt lat="48.908168" lon="20.023837">
<ele>1311.5</ele>
<desc>Speed 21.9 km/h Distance 12.96 km</desc>
<time>2013-07-23T16:10:50.39</time>
<name>5918</name>
<sym>Dot</sym>
</trkpt>
<trkpt lat="48.908193" lon="20.023915">
<ele>1311.5</ele>
<desc>Speed 23.0 km/h Distance 12.97 km</desc>
<time>2013-07-23T16:10:51.39</time>
<name>5919</name>
<sym>Dot</sym>
</trkpt>
<trkpt lat="48.908222" lon="20.023997">
<ele>1311.5</ele>
<desc>Speed 24.6 km/h Distance 12.97 km</desc>
<time>2013-07-23T16:10:52.38</time>
<name>5920</name>
<sym>Dot</sym>
</trkpt>
<trkpt lat="48.908253" lon="20.024072">
<ele>1311.5</ele>
<desc>Speed 23.7 km/h Distance 12.98 km</desc>
<time>2013-07-23T16:10:53.38</time>
<name>5921</name>
<sym>Dot</sym>
</trkpt>
<trkpt lat="48.908290" lon="20.024135">
<ele>1311.5</ele>
<desc>Speed 22.2 km/h Distance 12.99 km</desc>
<time>2013-07-23T16:10:54.38</time>
<name>5922</name>
<sym>Dot</sym>
</trkpt>
<trkpt lat="48.908320" lon="20.024227">
<ele>1311.5</ele>
<desc>Speed 27.2 km/h Distance 12.99 km</desc>
<time>2013-07-23T16:10:55.37</time>
<name>5923</name>
<sym>Dot</sym>
</trkpt>
<trkpt lat="48.908357" lon="20.024298">
<ele>1311.5</ele>
<desc>Speed 23.6 km/h Distance 13.00 km</desc>
<time>2013-07-23T16:10:56.37</time>
<name>5924</name>
<sym>Dot</sym>
</trkpt>
<trkpt lat="48.908390" lon="20.024368">
<ele>1311.5</ele>
<desc>Speed 22.5 km/h Distance 13.01 km</desc>
<time>2013-07-23T16:10:57.36</time>
<name>5925</name>
<sym>Dot</sym>
</trkpt>
<trkpt lat="48.908417" lon="20.024457">
<ele>1311.0</ele>
<desc>Speed 25.7 km/h Distance 13.01 km</desc>
<time>2013-07-23T16:10:58.36</time>
<name>5926</name>
<sym>Dot</sym>
</trkpt>
<trkpt lat="48.908443" lon="20.024547">
<ele>1311.0</ele>
<desc>Speed 25.5 km/h Distance 13.02 km</desc>
<time>2013-07-23T16:10:59.36</time>
<name>5927</name>
<sym>Dot</sym>
</trkpt>
<trkpt lat="48.908472" lon="20.024647">
<ele>1311.0</ele>
<desc>Speed 28.5 km/h Distance 13.03 km</desc>
<time>2013-07-23T16:11:00.35</time>
<name>5928</name>
<sym>Dot</sym>
</trkpt>
<trkpt lat="48.908497" lon="20.024745">
<ele>1311.0</ele>
<desc>Speed 27.0 km/h Distance 13.04 km</desc>
<time>2013-07-23T16:11:01.35</time>
<name>5929</name>
<sym>Dot</sym>
</trkpt>
<trkpt lat="48.908522" lon="20.024843">
<ele>1311.0</ele>
<desc>Speed 27.6 km/h Distance 13.04 km</desc>
<time>2013-07-23T16:11:02.34</time>
<name>5930</name>
<sym>Dot</sym>
</trkpt>
<trkpt lat="48.908547" lon="20.024942">
<ele>1311.0</ele>
<desc>Speed 27.5 km/h Distance 13.05 km</desc>
<time>2013-07-23T16:11:03.34</time>
<name>5931</name>
<sym>Dot</sym>
</trkpt>
<trkpt lat="48.908575" lon="20.025077">
<ele>1311.0</ele>
<desc>Speed 19.3 km/h Distance 13.06 km</desc>
<time>2013-07-23T16:11:05.35</time>
<name>5932</name>
<sym>Dot</sym>
</trkpt>
<trkpt lat="48.908598" lon="20.025160">
<ele>1311.0</ele>
<desc>Speed 23.4 km/h Distance 13.07 km</desc>
<time>2013-07-23T16:11:06.54</time>
<name>5933</name>
<sym>Dot</sym>
</trkpt>
<trkpt lat="48.908620" lon="20.025242">
<ele>1311.0</ele>
<desc>Speed 23.0 km/h Distance 13.07 km</desc>
<time>2013-07-23T16:11:07.32</time>
<name>5934</name>
<sym>Dot</sym>
</trkpt>
<trkpt lat="48.908638" lon="20.025327">
<ele>1311.0</ele>
<desc>Speed 23.4 km/h Distance 13.08 km</desc>
<time>2013-07-23T16:11:08.32</time>
<name>5935</name>
<sym>Dot</sym>
</trkpt>
<trkpt lat="48.908655" lon="20.025417">
<ele>1311.0</ele>
<desc>Speed 24.6 km/h Distance 13.09 km</desc>
<time>2013-07-23T16:11:09.32</time>
<name>5936</name>
<sym>Dot</sym>
</trkpt>
<trkpt lat="48.908673" lon="20.025510">
<ele>1311.0</ele>
<desc>Speed 25.5 km/h Distance 13.10 km</desc>
<time>2013-07-23T16:11:10.32</time>
<name>5937</name>
<sym>Dot</sym>
</trkpt>
<trkpt lat="48.908698" lon="20.025603">
<ele>1311.0</ele>
<desc>Speed 25.7 km/h Distance 13.10 km</desc>
<time>2013-07-23T16:11:11.31</time>
<name>5938</name>
<sym>Dot</sym>
</trkpt>
<trkpt lat="48.908723" lon="20.025692">
<ele>1311.0</ele>
<desc>Speed 24.9 km/h Distance 13.11 km</desc>
<time>2013-07-23T16:11:12.30</time>
<name>5939</name>
<sym>Dot</sym>
</trkpt>
<trkpt lat="48.908740" lon="20.025785">
<ele>1311.5</ele>
<desc>Speed 24.8 km/h Distance 13.12 km</desc>
<time>2013-07-23T16:11:13.30</time>
<name>5940</name>
<sym>Dot</sym>
</trkpt>
<trkpt lat="48.908760" lon="20.025878">
<ele>1311.5</ele>
<desc>Speed 25.4 km/h Distance 13.12 km</desc>
<time>2013-07-23T16:11:14.30</time>
<name>5941</name>
<sym>Dot</sym>
</trkpt>
<trkpt lat="48.908783" lon="20.025968">
<ele>1311.5</ele>
<desc>Speed 24.6 km/h Distance 13.13 km</desc>
<time>2013-07-23T16:11:15.29</time>
<name>5942</name>
<sym>Dot</sym>
</trkpt>
<trkpt lat="48.908812" lon="20.026055">
<ele>1311.5</ele>
<desc>Speed 24.6 km/h Distance 13.14 km</desc>
<time>2013-07-23T16:11:16.29</time>
<name>5943</name>
<sym>Dot</sym>
</trkpt>
<trkpt lat="48.908857" lon="20.026153">
<ele>1311.5</ele>
<desc>Speed 31.0 km/h Distance 13.15 km</desc>
<time>2013-07-23T16:11:17.30</time>
<name>5944</name>
<sym>Dot</sym>
</trkpt>
<trkpt lat="48.908890" lon="20.026260">
<ele>1311.5</ele>
<desc>Speed 30.7 km/h Distance 13.16 km</desc>
<time>2013-07-23T16:11:18.29</time>
<name>5945</name>
<sym>Dot</sym>
</trkpt>
<trkpt lat="48.908925" lon="20.026363">
<ele>1311.5</ele>
<desc>Speed 29.4 km/h Distance 13.16 km</desc>
<time>2013-07-23T16:11:19.28</time>
<name>5946</name>
<sym>Dot</sym>
</trkpt>
<trkpt lat="48.908943" lon="20.026453">
<ele>1311.5</ele>
<desc>Speed 24.4 km/h Distance 13.17 km</desc>
<time>2013-07-23T16:11:20.27</time>
<name>5947</name>
<sym>Dot</sym>
</trkpt>
<trkpt lat="48.908962" lon="20.026527">
<ele>1311.5</ele>
<desc>Speed 19.8 km/h Distance 13.18 km</desc>
<time>2013-07-23T16:11:21.26</time>
<name>5948</name>
<sym>Dot</sym>
</trkpt>
<trkpt lat="48.908987" lon="20.026593">
<ele>1311.5</ele>
<desc>Speed 19.7 km/h Distance 13.18 km</desc>
<time>2013-07-23T16:11:22.25</time>
<name>5949</name>
<sym>Dot</sym>
</trkpt>
<trkpt lat="48.909007" lon="20.026650">
<ele>1311.5</ele>
<desc>Speed 15.5 km/h Distance 13.19 km</desc>
<time>2013-07-23T16:11:23.25</time>
<name>5950</name>
<sym>Dot</sym>
</trkpt>
<trkpt lat="48.909018" lon="20.026705">
<ele>1311.5</ele>
<desc>Speed 14.9 km/h Distance 13.19 km</desc>
<time>2013-07-23T16:11:24.24</time>
<name>5951</name>
<sym>Dot</sym>
</trkpt>
<trkpt lat="48.909038" lon="20.026762">
<ele>1311.0</ele>
<desc>Speed 14.3 km/h Distance 13.20 km</desc>
<time>2013-07-23T16:11:25.24</time>
<name>5952</name>
<sym>Dot</sym>
</trkpt>
<trkpt lat="48.909058" lon="20.026810">
<ele>1311.0</ele>
<desc>Speed 14.1 km/h Distance 13.20 km</desc>
<time>2013-07-23T16:11:26.24</time>
<name>5953</name>
<sym>Dot</sym>
</trkpt>
<trkpt lat="48.909077" lon="20.026857">
<ele>1311.0</ele>
<desc>Speed 13.6 km/h Distance 13.20 km</desc>
<time>2013-07-23T16:11:27.24</time>
<name>5954</name>
<sym>Dot</sym>
</trkpt>
<trkpt lat="48.909092" lon="20.026895">
<ele>1311.0</ele>
<desc>Speed 10.6 km/h Distance 13.21 km</desc>
<time>2013-07-23T16:11:28.23</time>
<name>5955</name>
<sym>Dot</sym>
</trkpt>
<trkpt lat="48.909135" lon="20.026962">
<ele>1307.0</ele>
<desc>Speed 4.5 km/h Distance 13.21 km</desc>
<time>2013-07-23T16:11:53.23</time>
<name>5956</name>
<sym>Dot</sym>
</trkpt>
<trkpt lat="48.909147" lon="20.026992">
<ele>1306.0</ele>
<desc>Speed 7.5 km/h Distance 13.22 km</desc>
<time>2013-07-23T16:11:54.23</time>
<name>5957</name>
<sym>Dot</sym>
</trkpt>
<trkpt lat="48.909163" lon="20.027035">
<ele>1305.5</ele>
<desc>Speed 10.8 km/h Distance 13.22 km</desc>
<time>2013-07-23T16:11:55.23</time>
<name>5958</name>
<sym>Dot</sym>
</trkpt>
<trkpt lat="48.909177" lon="20.027080">
<ele>1305.5</ele>
<desc>Speed 12.9 km/h Distance 13.22 km</desc>
<time>2013-07-23T16:11:56.23</time>
<name>5959</name>
<sym>Dot</sym>
</trkpt>
<trkpt lat="48.909192" lon="20.027132">
<ele>1305.5</ele>
<desc>Speed 14.9 km/h Distance 13.23 km</desc>
<time>2013-07-23T16:11:57.23</time>
<name>5960</name>
<sym>Dot</sym>
</trkpt>
<trkpt lat="48.909212" lon="20.027190">
<ele>1305.0</ele>
<desc>Speed 16.5 km/h Distance 13.23 km</desc>
<time>2013-07-23T16:11:58.22</time>
<name>5961</name>
<sym>Dot</sym>
</trkpt>
<trkpt lat="48.909232" lon="20.027250">
<ele>1305.0</ele>
<desc>Speed 17.6 km/h Distance 13.24 km</desc>
<time>2013-07-23T16:11:59.22</time>
<name>5962</name>
<sym>Dot</sym>
</trkpt>
<trkpt lat="48.909250" lon="20.027307">
<ele>1305.0</ele>
<desc>Speed 16.7 km/h Distance 13.24 km</desc>
<time>2013-07-23T16:12:00.21</time>
<name>5963</name>
<sym>Dot</sym>
</trkpt>
<trkpt lat="48.909268" lon="20.027365">
<ele>1305.0</ele>
<desc>Speed 17.1 km/h Distance 13.25 km</desc>
<time>2013-07-23T16:12:01.21</time>
<name>5964</name>
<sym>Dot</sym>
</trkpt>
<trkpt lat="48.909293" lon="20.027420">
<ele>1304.5</ele>
<desc>Speed 17.1 km/h Distance 13.25 km</desc>
<time>2013-07-23T16:12:02.21</time>
<name>5965</name>
<sym>Dot</sym>
</trkpt>
<trkpt lat="48.909318" lon="20.027478">
<ele>1304.5</ele>
<desc>Speed 17.2 km/h Distance 13.26 km</desc>
<time>2013-07-23T16:12:03.30</time>
<name>5966</name>
<sym>Dot</sym>
</trkpt>
<trkpt lat="48.909338" lon="20.027537">
<ele>1304.5</ele>
<desc>Speed 17.6 km/h Distance 13.26 km</desc>
<time>2013-07-23T16:12:04.20</time>
<name>5967</name>
<sym>Dot</sym>
</trkpt>
<trkpt lat="48.909357" lon="20.027603">
<ele>1304.0</ele>
<desc>Speed 18.9 km/h Distance 13.27 km</desc>
<time>2013-07-23T16:12:05.19</time>
<name>5968</name>
<sym>Dot</sym>
</trkpt>
<trkpt lat="48.909372" lon="20.027673">
<ele>1304.0</ele>
<desc>Speed 19.4 km/h Distance 13.27 km</desc>
<time>2013-07-23T16:12:06.19</time>
<name>5969</name>
<sym>Dot</sym>
</trkpt>
<trkpt lat="48.909392" lon="20.027750">
<ele>1304.0</ele>
<desc>Speed 21.9 km/h Distance 13.28 km</desc>
<time>2013-07-23T16:12:07.19</time>
<name>5970</name>
<sym>Dot</sym>
</trkpt>
<trkpt lat="48.909413" lon="20.027825">
<ele>1304.0</ele>
<desc>Speed 21.6 km/h Distance 13.28 km</desc>
<time>2013-07-23T16:12:08.19</time>
<name>5971</name>
<sym>Dot</sym>
</trkpt>
<trkpt lat="48.909433" lon="20.027900">
<ele>1304.0</ele>
<desc>Speed 21.1 km/h Distance 13.29 km</desc>
<time>2013-07-23T16:12:09.18</time>
<name>5972</name>
<sym>Dot</sym>
</trkpt>
<trkpt lat="48.909445" lon="20.027980">
<ele>1304.0</ele>
<desc>Speed 21.2 km/h Distance 13.30 km</desc>
<time>2013-07-23T16:12:10.18</time>
<name>5973</name>
<sym>Dot</sym>
</trkpt>
<trkpt lat="48.909457" lon="20.028063">
<ele>1303.5</ele>
<desc>Speed 21.6 km/h Distance 13.30 km</desc>
<time>2013-07-23T16:12:11.17</time>
<name>5974</name>
<sym>Dot</sym>
</trkpt>
<trkpt lat="48.909472" lon="20.028147">
<ele>1303.5</ele>
<desc>Speed 21.7 km/h Distance 13.31 km</desc>
<time>2013-07-23T16:12:12.31</time>
<name>5975</name>
<sym>Dot</sym>
</trkpt>
<trkpt lat="48.909493" lon="20.028222">
<ele>1303.0</ele>
<desc>Speed 21.4 km/h Distance 13.32 km</desc>
<time>2013-07-23T16:12:13.16</time>
<name>5976</name>
<sym>Dot</sym>
</trkpt>
<trkpt lat="48.909522" lon="20.028290">
<ele>1303.0</ele>
<desc>Speed 21.2 km/h Distance 13.32 km</desc>
<time>2013-07-23T16:12:14.15</time>
<name>5977</name>
<sym>Dot</sym>
</trkpt>
<trkpt lat="48.909550" lon="20.028360">
<ele>1302.5</ele>
<desc>Speed 20.8 km/h Distance 13.33 km</desc>
<time>2013-07-23T16:12:15.14</time>
<name>5978</name>
<sym>Dot</sym>
</trkpt>
<trkpt lat="48.909573" lon="20.028432">
<ele>1302.5</ele>
<desc>Speed 20.1 km/h Distance 13.33 km</desc>
<time>2013-07-23T16:12:16.13</time>
<name>5979</name>
<sym>Dot</sym>
</trkpt>
<trkpt lat="48.909590" lon="20.028505">
<ele>1302.0</ele>
<desc>Speed 19.0 km/h Distance 13.34 km</desc>
<time>2013-07-23T16:12:17.13</time>
<name>5980</name>
<sym>Dot</sym>
</trkpt>
<trkpt lat="48.909605" lon="20.028570">
<ele>1301.5</ele>
<desc>Speed 17.9 km/h Distance 13.34 km</desc>
<time>2013-07-23T16:12:18.12</time>
<name>5981</name>
<sym>Dot</sym>
</trkpt>
<trkpt lat="48.909618" lon="20.028628">
<ele>1301.5</ele>
<desc>Speed 16.2 km/h Distance 13.35 km</desc>
<time>2013-07-23T16:12:19.11</time>
<name>5982</name>
<sym>Dot</sym>
</trkpt>
<trkpt lat="48.909630" lon="20.028685">
<ele>1301.0</ele>
<desc>Speed 15.2 km/h Distance 13.35 km</desc>
<time>2013-07-23T16:12:20.10</time>
<name>5983</name>
<sym>Dot</sym>
</trkpt>
<trkpt lat="48.909640" lon="20.028743">
<ele>1300.5</ele>
<desc>Speed 15.3 km/h Distance 13.36 km</desc>
<time>2013-07-23T16:12:21.10</time>
<name>5984</name>
<sym>Dot</sym>
</trkpt>
<trkpt lat="48.909650" lon="20.028807">
<ele>1300.0</ele>
<desc>Speed 16.5 km/h Distance 13.36 km</desc>
<time>2013-07-23T16:12:22.09</time>
<name>5985</name>
<sym>Dot</sym>
</trkpt>
<trkpt lat="48.909663" lon="20.028873">
<ele>1299.5</ele>
<desc>Speed 17.5 km/h Distance 13.37 km</desc>
<time>2013-07-23T16:12:23.09</time>
<name>5986</name>
<sym>Dot</sym>
</trkpt>
<trkpt lat="48.909680" lon="20.028942">
<ele>1298.5</ele>
<desc>Speed 17.8 km/h Distance 13.37 km</desc>
<time>2013-07-23T16:12:24.08</time>
<name>5987</name>
<sym>Dot</sym>
</trkpt>
<trkpt lat="48.909690" lon="20.029010">
<ele>1298.5</ele>
<desc>Speed 18.3 km/h Distance 13.38 km</desc>
<time>2013-07-23T16:12:25.07</time>
<name>5988</name>
<sym>Dot</sym>
</trkpt>
<trkpt lat="48.909702" lon="20.029082">
<ele>1298.0</ele>
<desc>Speed 18.9 km/h Distance 13.38 km</desc>
<time>2013-07-23T16:12:26.07</time>
<name>5989</name>
<sym>Dot</sym>
</trkpt>
<trkpt lat="48.909713" lon="20.029153">
<ele>1297.5</ele>
<desc>Speed 19.7 km/h Distance 13.39 km</desc>
<time>2013-07-23T16:12:27.06</time>
<name>5990</name>
<sym>Dot</sym>
</trkpt>
<trkpt lat="48.909725" lon="20.029232">
<ele>1297.5</ele>
<desc>Speed 21.4 km/h Distance 13.39 km</desc>
<time>2013-07-23T16:12:28.05</time>
<name>5991</name>
<sym>Dot</sym>
</trkpt>
<trkpt lat="48.909735" lon="20.029312">
<ele>1297.5</ele>
<desc>Speed 22.1 km/h Distance 13.40 km</desc>
<time>2013-07-23T16:12:29.05</time>
<name>5992</name>
<sym>Dot</sym>
</trkpt>
<trkpt lat="48.909748" lon="20.029395">
<ele>1297.0</ele>
<desc>Speed 22.5 km/h Distance 13.41 km</desc>
<time>2013-07-23T16:12:30.05</time>
<name>5993</name>
<sym>Dot</sym>
</trkpt>
<trkpt lat="48.909763" lon="20.029480">
<ele>1296.5</ele>
<desc>Speed 22.4 km/h Distance 13.41 km</desc>
<time>2013-07-23T16:12:31.05</time>
<name>5994</name>
<sym>Dot</sym>
</trkpt>
<trkpt lat="48.909777" lon="20.029565">
<ele>1296.0</ele>
<desc>Speed 22.6 km/h Distance 13.42 km</desc>
<time>2013-07-23T16:12:32.07</time>
<name>5995</name>
<sym>Dot</sym>
</trkpt>
<trkpt lat="48.909785" lon="20.029648">
<ele>1295.5</ele>
<desc>Speed 22.4 km/h Distance 13.43 km</desc>
<time>2013-07-23T16:12:33.04</time>
<name>5996</name>
<sym>Dot</sym>
</trkpt>
<trkpt lat="48.909790" lon="20.029732">
<ele>1295.5</ele>
<desc>Speed 22.4 km/h Distance 13.43 km</desc>
<time>2013-07-23T16:12:34.04</time>
<name>5997</name>
<sym>Dot</sym>
</trkpt>
<trkpt lat="48.909792" lon="20.029808">
<ele>1295.5</ele>
<desc>Speed 20.7 km/h Distance 13.44 km</desc>
<time>2013-07-23T16:12:35.04</time>
<name>5998</name>
<sym>Dot</sym>
</trkpt>
<trkpt lat="48.909787" lon="20.029880">
<ele>1295.0</ele>
<desc>Speed 19.3 km/h Distance 13.44 km</desc>
<time>2013-07-23T16:12:36.07</time>
<name>5999</name>
<sym>Dot</sym>
</trkpt>
<trkpt lat="48.909783" lon="20.029955">
<ele>1295.0</ele>
<desc>Speed 20.3 km/h Distance 13.45 km</desc>
<time>2013-07-23T16:12:37.03</time>
<name>6000</name>
<sym>Dot</sym>
</trkpt>
<trkpt lat="48.909778" lon="20.030035">
<ele>1295.0</ele>
<desc>Speed 21.4 km/h Distance 13.45 km</desc>
<time>2013-07-23T16:12:38.03</time>
<name>6001</name>
<sym>Dot</sym>
</trkpt>
<trkpt lat="48.909777" lon="20.030115">
<ele>1295.0</ele>
<desc>Speed 21.7 km/h Distance 13.46 km</desc>
<time>2013-07-23T16:12:39.03</time>
<name>6002</name>
<sym>Dot</sym>
</trkpt>
<trkpt lat="48.909773" lon="20.030198">
<ele>1295.0</ele>
<desc>Speed 22.1 km/h Distance 13.47 km</desc>
<time>2013-07-23T16:12:40.02</time>
<name>6003</name>
<sym>Dot</sym>
</trkpt>
<trkpt lat="48.909772" lon="20.030282">
<ele>1294.5</ele>
<desc>Speed 22.4 km/h Distance 13.47 km</desc>
<time>2013-07-23T16:12:41.02</time>
<name>6004</name>
<sym>Dot</sym>
</trkpt>
<trkpt lat="48.909773" lon="20.030368">
<ele>1294.5</ele>
<desc>Speed 23.1 km/h Distance 13.48 km</desc>
<time>2013-07-23T16:12:42.02</time>
<name>6005</name>
<sym>Dot</sym>
</trkpt>
<trkpt lat="48.909778" lon="20.030453">
<ele>1294.5</ele>
<desc>Speed 23.1 km/h Distance 13.48 km</desc>
<time>2013-07-23T16:12:43.02</time>
<name>6006</name>
<sym>Dot</sym>
</trkpt>
<trkpt lat="48.909788" lon="20.030540">
<ele>1294.0</ele>
<desc>Speed 23.6 km/h Distance 13.49 km</desc>
<time>2013-07-23T16:12:44.01</time>
<name>6007</name>
<sym>Dot</sym>
</trkpt>
<trkpt lat="48.909805" lon="20.030625">
<ele>1294.0</ele>
<desc>Speed 23.7 km/h Distance 13.50 km</desc>
<time>2013-07-23T16:12:45.01</time>
<name>6008</name>
<sym>Dot</sym>
</trkpt>
<trkpt lat="48.909823" lon="20.030697">
<ele>1294.0</ele>
<desc>Speed 21.0 km/h Distance 13.50 km</desc>
<time>2013-07-23T16:12:46.00</time>
<name>6009</name>
<sym>Dot</sym>
</trkpt>
<trkpt lat="48.909838" lon="20.030770">
<ele>1294.0</ele>
<desc>Speed 20.1 km/h Distance 13.51 km</desc>
<time>2013-07-23T16:12:47.01</time>
<name>6010</name>
<sym>Dot</sym>
</trkpt>
<trkpt lat="48.909855" lon="20.030843">
<ele>1293.5</ele>
<desc>Speed 20.1 km/h Distance 13.51 km</desc>
<time>2013-07-23T16:12:47.99</time>
<name>6011</name>
<sym>Dot</sym>
</trkpt>
<trkpt lat="48.909868" lon="20.030915">
<ele>1293.5</ele>
<desc>Speed 20.1 km/h Distance 13.52 km</desc>
<time>2013-07-23T16:12:48.99</time>
<name>6012</name>
<sym>Dot</sym>
</trkpt>
<trkpt lat="48.909877" lon="20.030992">
<ele>1293.5</ele>
<desc>Speed 20.8 km/h Distance 13.53 km</desc>
<time>2013-07-23T16:12:49.99</time>
<name>6013</name>
<sym>Dot</sym>
</trkpt>
<trkpt lat="48.909890" lon="20.031070">
<ele>1293.0</ele>
<desc>Speed 21.2 km/h Distance 13.53 km</desc>
<time>2013-07-23T16:12:50.99</time>
<name>6014</name>
<sym>Dot</sym>
</trkpt>
<trkpt lat="48.909907" lon="20.031147">
<ele>1293.0</ele>
<desc>Speed 21.0 km/h Distance 13.54 km</desc>
<time>2013-07-23T16:12:51.99</time>
<name>6015</name>
<sym>Dot</sym>
</trkpt>
<trkpt lat="48.909925" lon="20.031227">
<ele>1292.5</ele>
<desc>Speed 21.5 km/h Distance 13.54 km</desc>
<time>2013-07-23T16:12:52.98</time>
<name>6016</name>
<sym>Dot</sym>
</trkpt>
<trkpt lat="48.909942" lon="20.031307">
<ele>1292.0</ele>
<desc>Speed 21.3 km/h Distance 13.55 km</desc>
<time>2013-07-23T16:12:53.98</time>
<name>6017</name>
<sym>Dot</sym>
</trkpt>
<trkpt lat="48.909953" lon="20.031382">
<ele>1292.0</ele>
<desc>Speed 20.1 km/h Distance 13.56 km</desc>
<time>2013-07-23T16:12:54.98</time>
<name>6018</name>
<sym>Dot</sym>
</trkpt>
<trkpt lat="48.909963" lon="20.031450">
<ele>1291.5</ele>
<desc>Speed 17.6 km/h Distance 13.56 km</desc>
<time>2013-07-23T16:12:55.98</time>
<name>6019</name>
<sym>Dot</sym>
</trkpt>
<trkpt lat="48.909962" lon="20.031497">
<ele>1291.5</ele>
<desc>Speed 12.0 km/h Distance 13.56 km</desc>
<time>2013-07-23T16:12:56.98</time>
<name>6020</name>
<sym>Dot</sym>
</trkpt>
<trkpt lat="48.909955" lon="20.031523">
<ele>1291.5</ele>
<desc>Speed 7.9 km/h Distance 13.57 km</desc>
<time>2013-07-23T16:12:57.97</time>
<name>6021</name>
<sym>Dot</sym>
</trkpt>
<trkpt lat="48.909952" lon="20.031535">
<ele>1291.0</ele>
<desc>Speed 4.0 km/h Distance 13.57 km</desc>
<time>2013-07-23T16:12:58.97</time>
<name>6022</name>
<sym>Dot</sym>
</trkpt>
<trkpt lat="48.909943" lon="20.031538">
<ele>1291.0</ele>
<desc>Speed 3.1 km/h Distance 13.57 km</desc>
<time>2013-07-23T16:12:59.97</time>
<name>6023</name>
<sym>Dot</sym>
</trkpt>
<trkpt lat="48.909953" lon="20.031540">
<ele>1291.0</ele>
<desc>Speed 3.2 km/h Distance 13.57 km</desc>
<time>2013-07-23T16:13:03.97</time>
<name>6024</name>
<sym>Dot</sym>
</trkpt>
<trkpt lat="48.909960" lon="20.031540">
<ele>1291.0</ele>
<desc>Speed 3.2 km/h Distance 13.57 km</desc>
<time>2013-07-23T16:13:04.96</time>
<name>6025</name>
<sym>Dot</sym>
</trkpt>
<trkpt lat="48.909967" lon="20.031543">
<ele>1291.0</ele>
<desc>Speed 2.4 km/h Distance 13.57 km</desc>
<time>2013-07-23T16:13:07.96</time>
<name>6026</name>
<sym>Dot</sym>
</trkpt>
<trkpt lat="48.909968" lon="20.031558">
<ele>1291.0</ele>
<desc>Speed 4.6 km/h Distance 13.57 km</desc>
<time>2013-07-23T16:13:08.96</time>
<name>6027</name>
<sym>Dot</sym>
</trkpt>
<trkpt lat="48.909970" lon="20.031577">
<ele>1291.0</ele>
<desc>Speed 5.5 km/h Distance 13.57 km</desc>
<time>2013-07-23T16:13:09.95</time>
<name>6028</name>
<sym>Dot</sym>
</trkpt>
<trkpt lat="48.909968" lon="20.031593">
<ele>1291.0</ele>
<desc>Speed 5.9 km/h Distance 13.57 km</desc>
<time>2013-07-23T16:13:10.95</time>
<name>6029</name>
<sym>Dot</sym>
</trkpt>
<trkpt lat="48.909960" lon="20.031615">
<ele>1291.0</ele>
<desc>Speed 6.2 km/h Distance 13.58 km</desc>
<time>2013-07-23T16:13:11.95</time>
<name>6030</name>
<sym>Dot</sym>
</trkpt>
<trkpt lat="48.909957" lon="20.031642">
<ele>1291.0</ele>
<desc>Speed 7.9 km/h Distance 13.58 km</desc>
<time>2013-07-23T16:13:12.95</time>
<name>6031</name>
<sym>Dot</sym>
</trkpt>
<trkpt lat="48.909952" lon="20.031673">
<ele>1291.0</ele>
<desc>Speed 9.5 km/h Distance 13.58 km</desc>
<time>2013-07-23T16:13:13.95</time>
<name>6032</name>
<sym>Dot</sym>
</trkpt>
<trkpt lat="48.909952" lon="20.031707">
<ele>1291.0</ele>
<desc>Speed 9.7 km/h Distance 13.58 km</desc>
<time>2013-07-23T16:13:15.05</time>
<name>6033</name>
<sym>Dot</sym>
</trkpt>
<trkpt lat="48.909952" lon="20.031740">
<ele>1291.0</ele>
<desc>Speed 9.2 km/h Distance 13.59 km</desc>
<time>2013-07-23T16:13:15.94</time>
<name>6034</name>
<sym>Dot</sym>
</trkpt>
<trkpt lat="48.909950" lon="20.031772">
<ele>1291.0</ele>
<desc>Speed 9.2 km/h Distance 13.59 km</desc>
<time>2013-07-23T16:13:16.94</time>
<name>6035</name>
<sym>Dot</sym>
</trkpt>
<trkpt lat="48.909943" lon="20.031805">
<ele>1291.0</ele>
<desc>Speed 9.9 km/h Distance 13.59 km</desc>
<time>2013-07-23T16:13:17.93</time>
<name>6036</name>
<sym>Dot</sym>
</trkpt>
<trkpt lat="48.909935" lon="20.031840">
<ele>1291.0</ele>
<desc>Speed 10.0 km/h Distance 13.59 km</desc>
<time>2013-07-23T16:13:18.92</time>
<name>6037</name>
<sym>Dot</sym>
</trkpt>
<trkpt lat="48.909928" lon="20.031875">
<ele>1291.0</ele>
<desc>Speed 10.6 km/h Distance 13.60 km</desc>
<time>2013-07-23T16:13:19.91</time>
<name>6038</name>
<sym>Dot</sym>
</trkpt>
<trkpt lat="48.909922" lon="20.031913">
<ele>1291.0</ele>
<desc>Speed 10.8 km/h Distance 13.60 km</desc>
<time>2013-07-23T16:13:20.91</time>
<name>6039</name>
<sym>Dot</sym>
</trkpt>
<trkpt lat="48.909922" lon="20.031955">
<ele>1291.0</ele>
<desc>Speed 11.2 km/h Distance 13.60 km</desc>
<time>2013-07-23T16:13:21.91</time>
<name>6040</name>
<sym>Dot</sym>
</trkpt>
<trkpt lat="48.909920" lon="20.031997">
<ele>1291.0</ele>
<desc>Speed 11.2 km/h Distance 13.60 km</desc>
<time>2013-07-23T16:13:22.90</time>
<name>6041</name>
<sym>Dot</sym>
</trkpt>
<trkpt lat="48.909917" lon="20.032042">
<ele>1291.0</ele>
<desc>Speed 11.8 km/h Distance 13.61 km</desc>
<time>2013-07-23T16:13:23.90</time>
<name>6042</name>
<sym>Dot</sym>
</trkpt>
<trkpt lat="48.909912" lon="20.032087">
<ele>1291.0</ele>
<desc>Speed 12.3 km/h Distance 13.61 km</desc>
<time>2013-07-23T16:13:24.90</time>
<name>6043</name>
<sym>Dot</sym>
</trkpt>
<trkpt lat="48.909907" lon="20.032132">
<ele>1291.0</ele>
<desc>Speed 12.3 km/h Distance 13.61 km</desc>
<time>2013-07-23T16:13:25.89</time>
<name>6044</name>
<sym>Dot</sym>
</trkpt>
<trkpt lat="48.909902" lon="20.032180">
<ele>1291.0</ele>
<desc>Speed 12.7 km/h Distance 13.62 km</desc>
<time>2013-07-23T16:13:26.89</time>
<name>6045</name>
<sym>Dot</sym>
</trkpt>
<trkpt lat="48.909900" lon="20.032230">
<ele>1291.0</ele>
<desc>Speed 13.1 km/h Distance 13.62 km</desc>
<time>2013-07-23T16:13:27.88</time>
<name>6046</name>
<sym>Dot</sym>
</trkpt>
<trkpt lat="48.909900" lon="20.032282">
<ele>1291.0</ele>
<desc>Speed 13.6 km/h Distance 13.63 km</desc>
<time>2013-07-23T16:13:28.88</time>
<name>6047</name>
<sym>Dot</sym>
</trkpt>
<trkpt lat="48.909895" lon="20.032335">
<ele>1291.0</ele>
<desc>Speed 14.8 km/h Distance 13.63 km</desc>
<time>2013-07-23T16:13:29.87</time>
<name>6048</name>
<sym>Dot</sym>
</trkpt>
<trkpt lat="48.909892" lon="20.032397">
<ele>1291.0</ele>
<desc>Speed 16.3 km/h Distance 13.63 km</desc>
<time>2013-07-23T16:13:30.87</time>
<name>6049</name>
<sym>Dot</sym>
</trkpt>
<trkpt lat="48.909887" lon="20.032462">
<ele>1291.0</ele>
<desc>Speed 17.6 km/h Distance 13.64 km</desc>
<time>2013-07-23T16:13:31.87</time>
<name>6050</name>
<sym>Dot</sym>
</trkpt>
<trkpt lat="48.909880" lon="20.032532">
<ele>1291.0</ele>
<desc>Speed 18.4 km/h Distance 13.64 km</desc>
<time>2013-07-23T16:13:32.87</time>
<name>6051</name>
<sym>Dot</sym>
</trkpt>
<trkpt lat="48.909873" lon="20.032598">
<ele>1291.0</ele>
<desc>Speed 18.2 km/h Distance 13.65 km</desc>
<time>2013-07-23T16:13:33.87</time>
<name>6052</name>
<sym>Dot</sym>
</trkpt>
<trkpt lat="48.909865" lon="20.032665">
<ele>1290.5</ele>
<desc>Speed 17.9 km/h Distance 13.65 km</desc>
<time>2013-07-23T16:13:34.86</time>
<name>6053</name>
<sym>Dot</sym>
</trkpt>
<trkpt lat="48.909852" lon="20.032728">
<ele>1290.5</ele>
<desc>Speed 17.0 km/h Distance 13.66 km</desc>
<time>2013-07-23T16:13:35.87</time>
<name>6054</name>
<sym>Dot</sym>
</trkpt>
<trkpt lat="48.909840" lon="20.032790">
<ele>1290.5</ele>
<desc>Speed 16.9 km/h Distance 13.66 km</desc>
<time>2013-07-23T16:13:36.86</time>
<name>6055</name>
<sym>Dot</sym>
</trkpt>
<trkpt lat="48.909830" lon="20.032848">
<ele>1290.5</ele>
<desc>Speed 16.0 km/h Distance 13.67 km</desc>
<time>2013-07-23T16:13:37.85</time>
<name>6056</name>
<sym>Dot</sym>
</trkpt>
<trkpt lat="48.909823" lon="20.032905">
<ele>1290.5</ele>
<desc>Speed 15.1 km/h Distance 13.67 km</desc>
<time>2013-07-23T16:13:38.85</time>
<name>6057</name>
<sym>Dot</sym>
</trkpt>
<trkpt lat="48.909813" lon="20.032958">
<ele>1290.5</ele>
<desc>Speed 14.4 km/h Distance 13.68 km</desc>
<time>2013-07-23T16:13:39.84</time>
<name>6058</name>
<sym>Dot</sym>
</trkpt>
<trkpt lat="48.909808" lon="20.033010">
<ele>1290.5</ele>
<desc>Speed 13.8 km/h Distance 13.68 km</desc>
<time>2013-07-23T16:13:40.84</time>
<name>6059</name>
<sym>Dot</sym>
</trkpt>
<trkpt lat="48.909802" lon="20.033062">
<ele>1290.5</ele>
<desc>Speed 13.6 km/h Distance 13.68 km</desc>
<time>2013-07-23T16:13:41.84</time>
<name>6060</name>
<sym>Dot</sym>
</trkpt>
<trkpt lat="48.909798" lon="20.033112">
<ele>1290.5</ele>
<desc>Speed 13.4 km/h Distance 13.69 km</desc>
<time>2013-07-23T16:13:42.84</time>
<name>6061</name>
<sym>Dot</sym>
</trkpt>
<trkpt lat="48.909793" lon="20.033162">
<ele>1290.5</ele>
<desc>Speed 13.3 km/h Distance 13.69 km</desc>
<time>2013-07-23T16:13:43.84</time>
<name>6062</name>
<sym>Dot</sym>
</trkpt>
<trkpt lat="48.909788" lon="20.033215">
<ele>1290.5</ele>
<desc>Speed 14.5 km/h Distance 13.69 km</desc>
<time>2013-07-23T16:13:44.83</time>
<name>6063</name>
<sym>Dot</sym>
</trkpt>
<trkpt lat="48.909785" lon="20.033275">
<ele>1290.5</ele>
<desc>Speed 15.4 km/h Distance 13.70 km</desc>
<time>2013-07-23T16:13:45.82</time>
<name>6064</name>
<sym>Dot</sym>
</trkpt>
<trkpt lat="48.909782" lon="20.033337">
<ele>1290.5</ele>
<desc>Speed 16.2 km/h Distance 13.70 km</desc>
<time>2013-07-23T16:13:46.82</time>
<name>6065</name>
<sym>Dot</sym>
</trkpt>
<trkpt lat="48.909780" lon="20.033402">
<ele>1290.5</ele>
<desc>Speed 16.9 km/h Distance 13.71 km</desc>
<time>2013-07-23T16:13:47.83</time>
<name>6066</name>
<sym>Dot</sym>
</trkpt>
<trkpt lat="48.909775" lon="20.033470">
<ele>1290.5</ele>
<desc>Speed 18.0 km/h Distance 13.71 km</desc>
<time>2013-07-23T16:13:48.82</time>
<name>6067</name>
<sym>Dot</sym>
</trkpt>
<trkpt lat="48.909770" lon="20.033535">
<ele>1290.5</ele>
<desc>Speed 17.6 km/h Distance 13.72 km</desc>
<time>2013-07-23T16:13:49.81</time>
<name>6068</name>
<sym>Dot</sym>
</trkpt>
<trkpt lat="48.909765" lon="20.033603">
<ele>1290.5</ele>
<desc>Speed 17.8 km/h Distance 13.72 km</desc>
<time>2013-07-23T16:13:50.80</time>
<name>6069</name>
<sym>Dot</sym>
</trkpt>
<trkpt lat="48.909758" lon="20.033672">
<ele>1290.5</ele>
<desc>Speed 18.2 km/h Distance 13.73 km</desc>
<time>2013-07-23T16:13:51.80</time>
<name>6070</name>
<sym>Dot</sym>
</trkpt>
<trkpt lat="48.909753" lon="20.033737">
<ele>1290.0</ele>
<desc>Speed 17.8 km/h Distance 13.73 km</desc>
<time>2013-07-23T16:13:52.80</time>
<name>6071</name>
<sym>Dot</sym>
</trkpt>
<trkpt lat="48.909753" lon="20.033805">
<ele>1290.0</ele>
<desc>Speed 17.9 km/h Distance 13.74 km</desc>
<time>2013-07-23T16:13:53.80</time>
<name>6072</name>
<sym>Dot</sym>
</trkpt>
<trkpt lat="48.909748" lon="20.033877">
<ele>1290.0</ele>
<desc>Speed 18.9 km/h Distance 13.74 km</desc>
<time>2013-07-23T16:13:54.79</time>
<name>6073</name>
<sym>Dot</sym>
</trkpt>
<trkpt lat="48.909747" lon="20.033955">
<ele>1290.0</ele>
<desc>Speed 20.6 km/h Distance 13.75 km</desc>
<time>2013-07-23T16:13:55.79</time>
<name>6074</name>
<sym>Dot</sym>
</trkpt>
<trkpt lat="48.909747" lon="20.034035">
<ele>1290.0</ele>
<desc>Speed 21.2 km/h Distance 13.76 km</desc>
<time>2013-07-23T16:13:56.79</time>
<name>6075</name>
<sym>Dot</sym>
</trkpt>
<trkpt lat="48.909747" lon="20.034115">
<ele>1290.0</ele>
<desc>Speed 21.1 km/h Distance 13.76 km</desc>
<time>2013-07-23T16:13:57.79</time>
<name>6076</name>
<sym>Dot</sym>
</trkpt>
<trkpt lat="48.909747" lon="20.034197">
<ele>1290.0</ele>
<desc>Speed 21.4 km/h Distance 13.77 km</desc>
<time>2013-07-23T16:13:58.79</time>
<name>6077</name>
<sym>Dot</sym>
</trkpt>
<trkpt lat="48.909747" lon="20.034277">
<ele>1290.0</ele>
<desc>Speed 20.8 km/h Distance 13.77 km</desc>
<time>2013-07-23T16:13:59.78</time>
<name>6078</name>
<sym>Dot</sym>
</trkpt>
<trkpt lat="48.909738" lon="20.034342">
<ele>1290.0</ele>
<desc>Speed 17.2 km/h Distance 13.78 km</desc>
<time>2013-07-23T16:14:00.78</time>
<name>6079</name>
<sym>Dot</sym>
</trkpt>
<trkpt lat="48.909733" lon="20.034415">
<ele>1290.0</ele>
<desc>Speed 19.4 km/h Distance 13.78 km</desc>
<time>2013-07-23T16:14:01.78</time>
<name>6080</name>
<sym>Dot</sym>
</trkpt>
<trkpt lat="48.909732" lon="20.034478">
<ele>1290.0</ele>
<desc>Speed 16.5 km/h Distance 13.79 km</desc>
<time>2013-07-23T16:14:02.77</time>
<name>6081</name>
<sym>Dot</sym>
</trkpt>
<trkpt lat="48.909732" lon="20.034542">
<ele>1290.0</ele>
<desc>Speed 16.7 km/h Distance 13.79 km</desc>
<time>2013-07-23T16:14:03.77</time>
<name>6082</name>
<sym>Dot</sym>
</trkpt>
<trkpt lat="48.909732" lon="20.034615">
<ele>1289.5</ele>
<desc>Speed 18.9 km/h Distance 13.80 km</desc>
<time>2013-07-23T16:14:04.80</time>
<name>6083</name>
<sym>Dot</sym>
</trkpt>
<trkpt lat="48.909733" lon="20.034697">
<ele>1289.5</ele>
<desc>Speed 20.8 km/h Distance 13.80 km</desc>
<time>2013-07-23T16:14:05.77</time>
<name>6084</name>
<sym>Dot</sym>
</trkpt>
<trkpt lat="48.909733" lon="20.034777">
<ele>1289.5</ele>
<desc>Speed 21.2 km/h Distance 13.81 km</desc>
<time>2013-07-23T16:14:06.77</time>
<name>6085</name>
<sym>Dot</sym>
</trkpt>
<trkpt lat="48.909733" lon="20.034860">
<ele>1289.5</ele>
<desc>Speed 21.6 km/h Distance 13.82 km</desc>
<time>2013-07-23T16:14:07.77</time>
<name>6086</name>
<sym>Dot</sym>
</trkpt>
<trkpt lat="48.909738" lon="20.034942">
<ele>1289.5</ele>
<desc>Speed 21.8 km/h Distance 13.82 km</desc>
<time>2013-07-23T16:14:08.77</time>
<name>6087</name>
<sym>Dot</sym>
</trkpt>
<trkpt lat="48.909748" lon="20.035025">
<ele>1289.5</ele>
<desc>Speed 22.1 km/h Distance 13.83 km</desc>
<time>2013-07-23T16:14:09.76</time>
<name>6088</name>
<sym>Dot</sym>
</trkpt>
<trkpt lat="48.909760" lon="20.035110">
<ele>1289.5</ele>
<desc>Speed 22.1 km/h Distance 13.83 km</desc>
<time>2013-07-23T16:14:10.76</time>
<name>6089</name>
<sym>Dot</sym>
</trkpt>
<trkpt lat="48.909775" lon="20.035193">
<ele>1289.0</ele>
<desc>Speed 22.4 km/h Distance 13.84 km</desc>
<time>2013-07-23T16:14:11.76</time>
<name>6090</name>
<sym>Dot</sym>
</trkpt>
<trkpt lat="48.909790" lon="20.035275">
<ele>1289.0</ele>
<desc>Speed 20.9 km/h Distance 13.85 km</desc>
<time>2013-07-23T16:14:12.75</time>
<name>6091</name>
<sym>Dot</sym>
</trkpt>
<trkpt lat="48.909800" lon="20.035348">
<ele>1289.0</ele>
<desc>Speed 19.5 km/h Distance 13.85 km</desc>
<time>2013-07-23T16:14:13.75</time>
<name>6092</name>
<sym>Dot</sym>
</trkpt>
<trkpt lat="48.909812" lon="20.035413">
<ele>1289.0</ele>
<desc>Speed 18.0 km/h Distance 13.86 km</desc>
<time>2013-07-23T16:14:14.75</time>
<name>6093</name>
<sym>Dot</sym>
</trkpt>
<trkpt lat="48.909825" lon="20.035475">
<ele>1289.0</ele>
<desc>Speed 16.8 km/h Distance 13.86 km</desc>
<time>2013-07-23T16:14:15.75</time>
<name>6094</name>
<sym>Dot</sym>
</trkpt>
<trkpt lat="48.909835" lon="20.035532">
<ele>1289.0</ele>
<desc>Speed 15.5 km/h Distance 13.87 km</desc>
<time>2013-07-23T16:14:16.74</time>
<name>6095</name>
<sym>Dot</sym>
</trkpt>
<trkpt lat="48.909842" lon="20.035590">
<ele>1289.0</ele>
<desc>Speed 15.5 km/h Distance 13.87 km</desc>
<time>2013-07-23T16:14:17.82</time>
<name>6096</name>
<sym>Dot</sym>
</trkpt>
<trkpt lat="48.909850" lon="20.035652">
<ele>1289.0</ele>
<desc>Speed 16.3 km/h Distance 13.88 km</desc>
<time>2013-07-23T16:14:18.73</time>
<name>6097</name>
<sym>Dot</sym>
</trkpt>
<trkpt lat="48.909862" lon="20.035715">
<ele>1289.0</ele>
<desc>Speed 17.0 km/h Distance 13.88 km</desc>
<time>2013-07-23T16:14:19.72</time>
<name>6098</name>
<sym>Dot</sym>
</trkpt>
<trkpt lat="48.909875" lon="20.035778">
<ele>1288.5</ele>
<desc>Speed 17.1 km/h Distance 13.88 km</desc>
<time>2013-07-23T16:14:20.72</time>
<name>6099</name>
<sym>Dot</sym>
</trkpt>
<trkpt lat="48.909893" lon="20.035842">
<ele>1288.5</ele>
<desc>Speed 17.4 km/h Distance 13.89 km</desc>
<time>2013-07-23T16:14:21.71</time>
<name>6100</name>
<sym>Dot</sym>
</trkpt>
<trkpt lat="48.909910" lon="20.035898">
<ele>1288.5</ele>
<desc>Speed 14.7 km/h Distance 13.89 km</desc>
<time>2013-07-23T16:14:22.71</time>
<name>6101</name>
<sym>Dot</sym>
</trkpt>
<trkpt lat="48.909927" lon="20.035942">
<ele>1288.0</ele>
<desc>Speed 10.3 km/h Distance 13.90 km</desc>
<time>2013-07-23T16:14:23.71</time>
<name>6102</name>
<sym>Dot</sym>
</trkpt>
<trkpt lat="48.909940" lon="20.035978">
<ele>1287.5</ele>
<desc>Speed 7.9 km/h Distance 13.90 km</desc>
<time>2013-07-23T16:14:24.70</time>
<name>6103</name>
<sym>Dot</sym>
</trkpt>
<trkpt lat="48.909950" lon="20.036002">
<ele>1287.0</ele>
<desc>Speed 4.8 km/h Distance 13.90 km</desc>
<time>2013-07-23T16:14:25.70</time>
<name>6104</name>
<sym>Dot</sym>
</trkpt>
<trkpt lat="48.909960" lon="20.036022">
<ele>1286.5</ele>
<desc>Speed 4.0 km/h Distance 13.91 km</desc>
<time>2013-07-23T16:14:27.69</time>
<name>6105</name>
<sym>Dot</sym>
</trkpt>
<trkpt lat="48.910005" lon="20.036080">
<ele>1285.5</ele>
<desc>Speed 6.9 km/h Distance 13.91 km</desc>
<time>2013-07-23T16:14:41.68</time>
<name>6106</name>
<sym>Dot</sym>
</trkpt>
<trkpt lat="48.910023" lon="20.036093">
<ele>1285.0</ele>
<desc>Speed 3.6 km/h Distance 13.91 km</desc>
<time>2013-07-23T16:14:43.68</time>
<name>6107</name>
<sym>Dot</sym>
</trkpt>
<trkpt lat="48.910033" lon="20.036108">
<ele>1285.0</ele>
<desc>Speed 4.5 km/h Distance 13.92 km</desc>
<time>2013-07-23T16:14:44.67</time>
<name>6108</name>
<sym>Dot</sym>
</trkpt>
<trkpt lat="48.910047" lon="20.036128">
<ele>1285.0</ele>
<desc>Speed 6.3 km/h Distance 13.92 km</desc>
<time>2013-07-23T16:14:45.67</time>
<name>6109</name>
<sym>Dot</sym>
</trkpt>
<trkpt lat="48.910055" lon="20.036157">
<ele>1285.0</ele>
<desc>Speed 7.2 km/h Distance 13.92 km</desc>
<time>2013-07-23T16:14:46.67</time>
<name>6110</name>
<sym>Dot</sym>
</trkpt>
<trkpt lat="48.910063" lon="20.036190">
<ele>1285.0</ele>
<desc>Speed 8.4 km/h Distance 13.92 km</desc>
<time>2013-07-23T16:14:47.75</time>
<name>6111</name>
<sym>Dot</sym>
</trkpt>
<trkpt lat="48.910068" lon="20.036225">
<ele>1284.5</ele>
<desc>Speed 9.3 km/h Distance 13.93 km</desc>
<time>2013-07-23T16:14:48.67</time>
<name>6112</name>
<sym>Dot</sym>
</trkpt>
<trkpt lat="48.910077" lon="20.036262">
<ele>1284.5</ele>
<desc>Speed 10.8 km/h Distance 13.93 km</desc>
<time>2013-07-23T16:14:49.67</time>
<name>6113</name>
<sym>Dot</sym>
</trkpt>
<trkpt lat="48.910088" lon="20.036303">
<ele>1284.5</ele>
<desc>Speed 10.9 km/h Distance 13.93 km</desc>
<time>2013-07-23T16:14:50.67</time>
<name>6114</name>
<sym>Dot</sym>
</trkpt>
<trkpt lat="48.910100" lon="20.036347">
<ele>1284.5</ele>
<desc>Speed 11.4 km/h Distance 13.93 km</desc>
<time>2013-07-23T16:14:51.67</time>
<name>6115</name>
<sym>Dot</sym>
</trkpt>
<trkpt lat="48.910105" lon="20.036392">
<ele>1284.5</ele>
<desc>Speed 12.3 km/h Distance 13.94 km</desc>
<time>2013-07-23T16:14:52.66</time>
<name>6116</name>
<sym>Dot</sym>
</trkpt>
<trkpt lat="48.910113" lon="20.036432">
<ele>1284.0</ele>
<desc>Speed 11.3 km/h Distance 13.94 km</desc>
<time>2013-07-23T16:14:53.66</time>
<name>6117</name>
<sym>Dot</sym>
</trkpt>
<trkpt lat="48.910123" lon="20.036472">
<ele>1284.0</ele>
<desc>Speed 12.5 km/h Distance 13.94 km</desc>
<time>2013-07-23T16:14:54.66</time>
<name>6118</name>
<sym>Dot</sym>
</trkpt>
<trkpt lat="48.910133" lon="20.036513">
<ele>1284.0</ele>
<desc>Speed 12.6 km/h Distance 13.95 km</desc>
<time>2013-07-23T16:14:55.66</time>
<name>6119</name>
<sym>Dot</sym>
</trkpt>
<trkpt lat="48.910145" lon="20.036552">
<ele>1284.0</ele>
<desc>Speed 12.9 km/h Distance 13.95 km</desc>
<time>2013-07-23T16:14:56.66</time>
<name>6120</name>
<sym>Dot</sym>
</trkpt>
<trkpt lat="48.910155" lon="20.036590">
<ele>1284.0</ele>
<desc>Speed 13.1 km/h Distance 13.95 km</desc>
<time>2013-07-23T16:14:57.66</time>
<name>6121</name>
<sym>Dot</sym>
</trkpt>
<trkpt lat="48.910162" lon="20.036635">
<ele>1284.0</ele>
<desc>Speed 12.9 km/h Distance 13.96 km</desc>
<time>2013-07-23T16:14:58.65</time>
<name>6122</name>
<sym>Dot</sym>
</trkpt>
<trkpt lat="48.910175" lon="20.036687">
<ele>1284.0</ele>
<desc>Speed 14.5 km/h Distance 13.96 km</desc>
<time>2013-07-23T16:14:59.65</time>
<name>6123</name>
<sym>Dot</sym>
</trkpt>
<trkpt lat="48.910192" lon="20.036737">
<ele>1284.0</ele>
<desc>Speed 15.0 km/h Distance 13.97 km</desc>
<time>2013-07-23T16:15:00.73</time>
<name>6124</name>
<sym>Dot</sym>
</trkpt>
<trkpt lat="48.910207" lon="20.036788">
<ele>1283.5</ele>
<desc>Speed 14.8 km/h Distance 13.97 km</desc>
<time>2013-07-23T16:15:01.64</time>
<name>6125</name>
<sym>Dot</sym>
</trkpt>
<trkpt lat="48.910223" lon="20.036838">
<ele>1283.5</ele>
<desc>Speed 15.0 km/h Distance 13.97 km</desc>
<time>2013-07-23T16:15:02.64</time>
<name>6126</name>
<sym>Dot</sym>
</trkpt>
<trkpt lat="48.910238" lon="20.036888">
<ele>1283.5</ele>
<desc>Speed 14.8 km/h Distance 13.98 km</desc>
<time>2013-07-23T16:15:03.63</time>
<name>6127</name>
<sym>Dot</sym>
</trkpt>
<trkpt lat="48.910253" lon="20.036935">
<ele>1283.5</ele>
<desc>Speed 14.1 km/h Distance 13.98 km</desc>
<time>2013-07-23T16:15:04.62</time>
<name>6128</name>
<sym>Dot</sym>
</trkpt>
<trkpt lat="48.910270" lon="20.036982">
<ele>1283.5</ele>
<desc>Speed 13.6 km/h Distance 13.98 km</desc>
<time>2013-07-23T16:15:05.62</time>
<name>6129</name>
<sym>Dot</sym>
</trkpt>
<trkpt lat="48.910288" lon="20.037032">
<ele>1283.5</ele>
<desc>Speed 14.6 km/h Distance 13.99 km</desc>
<time>2013-07-23T16:15:06.61</time>
<name>6130</name>
<sym>Dot</sym>
</trkpt>
<trkpt lat="48.910303" lon="20.037083">
<ele>1283.5</ele>
<desc>Speed 14.8 km/h Distance 13.99 km</desc>
<time>2013-07-23T16:15:07.62</time>
<name>6131</name>
<sym>Dot</sym>
</trkpt>
<trkpt lat="48.910325" lon="20.037137">
<ele>1283.0</ele>
<desc>Speed 16.2 km/h Distance 14.00 km</desc>
<time>2013-07-23T16:15:08.62</time>
<name>6132</name>
<sym>Dot</sym>
</trkpt>
<trkpt lat="48.910353" lon="20.037202">
<ele>1283.0</ele>
<desc>Speed 19.2 km/h Distance 14.00 km</desc>
<time>2013-07-23T16:15:09.61</time>
<name>6133</name>
<sym>Dot</sym>
</trkpt>
<trkpt lat="48.910377" lon="20.037262">
<ele>1283.0</ele>
<desc>Speed 17.2 km/h Distance 14.01 km</desc>
<time>2013-07-23T16:15:10.61</time>
<name>6134</name>
<sym>Dot</sym>
</trkpt>
<trkpt lat="48.910405" lon="20.037325">
<ele>1282.5</ele>
<desc>Speed 17.4 km/h Distance 14.01 km</desc>
<time>2013-07-23T16:15:11.60</time>
<name>6135</name>
<sym>Dot</sym>
</trkpt>
<trkpt lat="48.910423" lon="20.037383">
<ele>1282.5</ele>
<desc>Speed 17.4 km/h Distance 14.02 km</desc>
<time>2013-07-23T16:15:12.60</time>
<name>6136</name>
<sym>Dot</sym>
</trkpt>
<trkpt lat="48.910443" lon="20.037443">
<ele>1282.5</ele>
<desc>Speed 17.9 km/h Distance 14.02 km</desc>
<time>2013-07-23T16:15:13.60</time>
<name>6137</name>
<sym>Dot</sym>
</trkpt>
<trkpt lat="48.910455" lon="20.037500">
<ele>1282.5</ele>
<desc>Speed 15.9 km/h Distance 14.03 km</desc>
<time>2013-07-23T16:15:14.59</time>
<name>6138</name>
<sym>Dot</sym>
</trkpt>
<trkpt lat="48.910477" lon="20.037568">
<ele>1282.5</ele>
<desc>Speed 20.1 km/h Distance 14.03 km</desc>
<time>2013-07-23T16:15:15.59</time>
<name>6139</name>
<sym>Dot</sym>
</trkpt>
<trkpt lat="48.910492" lon="20.037635">
<ele>1282.5</ele>
<desc>Speed 18.5 km/h Distance 14.04 km</desc>
<time>2013-07-23T16:15:16.59</time>
<name>6140</name>
<sym>Dot</sym>
</trkpt>
<trkpt lat="48.910503" lon="20.037695">
<ele>1282.5</ele>
<desc>Speed 16.5 km/h Distance 14.04 km</desc>
<time>2013-07-23T16:15:17.58</time>
<name>6141</name>
<sym>Dot</sym>
</trkpt>
<trkpt lat="48.910523" lon="20.037760">
<ele>1282.5</ele>
<desc>Speed 18.2 km/h Distance 14.05 km</desc>
<time>2013-07-23T16:15:18.57</time>
<name>6142</name>
<sym>Dot</sym>
</trkpt>
<trkpt lat="48.910533" lon="20.037815">
<ele>1282.5</ele>
<desc>Speed 14.8 km/h Distance 14.05 km</desc>
<time>2013-07-23T16:15:19.58</time>
<name>6143</name>
<sym>Dot</sym>
</trkpt>
<trkpt lat="48.910557" lon="20.037882">
<ele>1282.5</ele>
<desc>Speed 19.5 km/h Distance 14.06 km</desc>
<time>2013-07-23T16:15:20.56</time>
<name>6144</name>
<sym>Dot</sym>
</trkpt>
<trkpt lat="48.910583" lon="20.037952">
<ele>1282.5</ele>
<desc>Speed 20.5 km/h Distance 14.06 km</desc>
<time>2013-07-23T16:15:21.55</time>
<name>6145</name>
<sym>Dot</sym>
</trkpt>
<trkpt lat="48.910608" lon="20.038025">
<ele>1282.5</ele>
<desc>Speed 21.6 km/h Distance 14.07 km</desc>
<time>2013-07-23T16:15:22.55</time>
<name>6146</name>
<sym>Dot</sym>
</trkpt>
<trkpt lat="48.910633" lon="20.038098">
<ele>1282.0</ele>
<desc>Speed 21.0 km/h Distance 14.08 km</desc>
<time>2013-07-23T16:15:23.55</time>
<name>6147</name>
<sym>Dot</sym>
</trkpt>
<trkpt lat="48.910662" lon="20.038172">
<ele>1282.0</ele>
<desc>Speed 21.9 km/h Distance 14.08 km</desc>
<time>2013-07-23T16:15:24.54</time>
<name>6148</name>
<sym>Dot</sym>
</trkpt>
<trkpt lat="48.910690" lon="20.038243">
<ele>1282.0</ele>
<desc>Speed 21.7 km/h Distance 14.09 km</desc>
<time>2013-07-23T16:15:25.54</time>
<name>6149</name>
<sym>Dot</sym>
</trkpt>
<trkpt lat="48.910720" lon="20.038315">
<ele>1282.0</ele>
<desc>Speed 22.0 km/h Distance 14.10 km</desc>
<time>2013-07-23T16:15:26.53</time>
<name>6150</name>
<sym>Dot</sym>
</trkpt>
<trkpt lat="48.910753" lon="20.038385">
<ele>1282.0</ele>
<desc>Speed 22.1 km/h Distance 14.10 km</desc>
<time>2013-07-23T16:15:27.53</time>
<name>6151</name>
<sym>Dot</sym>
</trkpt>
<trkpt lat="48.910788" lon="20.038452">
<ele>1282.0</ele>
<desc>Speed 22.4 km/h Distance 14.11 km</desc>
<time>2013-07-23T16:15:28.52</time>
<name>6152</name>
<sym>Dot</sym>
</trkpt>
<trkpt lat="48.910823" lon="20.038522">
<ele>1282.0</ele>
<desc>Speed 22.8 km/h Distance 14.11 km</desc>
<time>2013-07-23T16:15:29.52</time>
<name>6153</name>
<sym>Dot</sym>
</trkpt>
<trkpt lat="48.910858" lon="20.038595">
<ele>1282.0</ele>
<desc>Speed 24.1 km/h Distance 14.12 km</desc>
<time>2013-07-23T16:15:30.52</time>
<name>6154</name>
<sym>Dot</sym>
</trkpt>
<trkpt lat="48.910893" lon="20.038672">
<ele>1282.0</ele>
<desc>Speed 24.6 km/h Distance 14.13 km</desc>
<time>2013-07-23T16:15:31.51</time>
<name>6155</name>
<sym>Dot</sym>
</trkpt>
<trkpt lat="48.910930" lon="20.038750">
<ele>1282.0</ele>
<desc>Speed 24.7 km/h Distance 14.13 km</desc>
<time>2013-07-23T16:15:32.50</time>
<name>6156</name>
<sym>Dot</sym>
</trkpt>
<trkpt lat="48.910962" lon="20.038823">
<ele>1282.0</ele>
<desc>Speed 23.3 km/h Distance 14.14 km</desc>
<time>2013-07-23T16:15:33.49</time>
<name>6157</name>
<sym>Dot</sym>
</trkpt>
<trkpt lat="48.910992" lon="20.038900">
<ele>1281.5</ele>
<desc>Speed 23.6 km/h Distance 14.15 km</desc>
<time>2013-07-23T16:15:34.56</time>
<name>6158</name>
<sym>Dot</sym>
</trkpt>
<trkpt lat="48.911023" lon="20.038963">
<ele>1281.5</ele>
<desc>Speed 20.6 km/h Distance 14.15 km</desc>
<time>2013-07-23T16:15:35.48</time>
<name>6159</name>
<sym>Dot</sym>
</trkpt>
<trkpt lat="48.911053" lon="20.039042">
<ele>1281.5</ele>
<desc>Speed 23.6 km/h Distance 14.16 km</desc>
<time>2013-07-23T16:15:36.47</time>
<name>6160</name>
<sym>Dot</sym>
</trkpt>
<trkpt lat="48.911078" lon="20.039123">
<ele>1281.5</ele>
<desc>Speed 23.9 km/h Distance 14.17 km</desc>
<time>2013-07-23T16:15:37.47</time>
<name>6161</name>
<sym>Dot</sym>
</trkpt>
<trkpt lat="48.911103" lon="20.039210">
<ele>1281.5</ele>
<desc>Speed 24.7 km/h Distance 14.17 km</desc>
<time>2013-07-23T16:15:38.47</time>
<name>6162</name>
<sym>Dot</sym>
</trkpt>
<trkpt lat="48.911132" lon="20.039293">
<ele>1281.0</ele>
<desc>Speed 24.1 km/h Distance 14.18 km</desc>
<time>2013-07-23T16:15:39.47</time>
<name>6163</name>
<sym>Dot</sym>
</trkpt>
<trkpt lat="48.911160" lon="20.039373">
<ele>1281.0</ele>
<desc>Speed 23.2 km/h Distance 14.19 km</desc>
<time>2013-07-23T16:15:40.46</time>
<name>6164</name>
<sym>Dot</sym>
</trkpt>
<trkpt lat="48.911190" lon="20.039448">
<ele>1281.0</ele>
<desc>Speed 23.4 km/h Distance 14.19 km</desc>
<time>2013-07-23T16:15:41.45</time>
<name>6165</name>
<sym>Dot</sym>
</trkpt>
<trkpt lat="48.911220" lon="20.039527">
<ele>1281.0</ele>
<desc>Speed 23.1 km/h Distance 14.20 km</desc>
<time>2013-07-23T16:15:42.45</time>
<name>6166</name>
<sym>Dot</sym>
</trkpt>
<trkpt lat="48.911245" lon="20.039607">
<ele>1280.5</ele>
<desc>Speed 22.1 km/h Distance 14.21 km</desc>
<time>2013-07-23T16:15:43.44</time>
<name>6167</name>
<sym>Dot</sym>
</trkpt>
<trkpt lat="48.911272" lon="20.039688">
<ele>1280.5</ele>
<desc>Speed 22.4 km/h Distance 14.21 km</desc>
<time>2013-07-23T16:15:44.43</time>
<name>6168</name>
<sym>Dot</sym>
</trkpt>
<trkpt lat="48.911290" lon="20.039770">
<ele>1280.0</ele>
<desc>Speed 20.5 km/h Distance 14.22 km</desc>
<time>2013-07-23T16:15:45.43</time>
<name>6169</name>
<sym>Dot</sym>
</trkpt>
<trkpt lat="48.911297" lon="20.039840">
<ele>1280.0</ele>
<desc>Speed 18.3 km/h Distance 14.22 km</desc>
<time>2013-07-23T16:15:46.43</time>
<name>6170</name>
<sym>Dot</sym>
</trkpt>
<trkpt lat="48.911308" lon="20.039913">
<ele>1280.0</ele>
<desc>Speed 19.0 km/h Distance 14.23 km</desc>
<time>2013-07-23T16:15:47.43</time>
<name>6171</name>
<sym>Dot</sym>
</trkpt>
<trkpt lat="48.911323" lon="20.039985">
<ele>1279.5</ele>
<desc>Speed 18.5 km/h Distance 14.24 km</desc>
<time>2013-07-23T16:15:48.43</time>
<name>6172</name>
<sym>Dot</sym>
</trkpt>
<trkpt lat="48.911333" lon="20.040053">
<ele>1279.5</ele>
<desc>Speed 18.2 km/h Distance 14.24 km</desc>
<time>2013-07-23T16:15:49.43</time>
<name>6173</name>
<sym>Dot</sym>
</trkpt>
<trkpt lat="48.911337" lon="20.040112">
<ele>1279.5</ele>
<desc>Speed 16.0 km/h Distance 14.25 km</desc>
<time>2013-07-23T16:15:50.42</time>
<name>6174</name>
<sym>Dot</sym>
</trkpt>
<trkpt lat="48.911360" lon="20.040188">
<ele>1279.5</ele>
<desc>Speed 21.9 km/h Distance 14.25 km</desc>
<time>2013-07-23T16:15:51.41</time>
<name>6175</name>
<sym>Dot</sym>
</trkpt>
<trkpt lat="48.911377" lon="20.040262">
<ele>1279.0</ele>
<desc>Speed 19.8 km/h Distance 14.26 km</desc>
<time>2013-07-23T16:15:52.41</time>
<name>6176</name>
<sym>Dot</sym>
</trkpt>
<trkpt lat="48.911395" lon="20.040338">
<ele>1279.0</ele>
<desc>Speed 21.0 km/h Distance 14.26 km</desc>
<time>2013-07-23T16:15:53.41</time>
<name>6177</name>
<sym>Dot</sym>
</trkpt>
<trkpt lat="48.911408" lon="20.040417">
<ele>1279.0</ele>
<desc>Speed 21.6 km/h Distance 14.27 km</desc>
<time>2013-07-23T16:15:54.40</time>
<name>6178</name>
<sym>Dot</sym>
</trkpt>
<trkpt lat="48.911423" lon="20.040503">
<ele>1279.0</ele>
<desc>Speed 24.0 km/h Distance 14.28 km</desc>
<time>2013-07-23T16:15:55.40</time>
<name>6179</name>
<sym>Dot</sym>
</trkpt>
<trkpt lat="48.911447" lon="20.040597">
<ele>1279.0</ele>
<desc>Speed 24.2 km/h Distance 14.28 km</desc>
<time>2013-07-23T16:15:56.39</time>
<name>6180</name>
<sym>Dot</sym>
</trkpt>
<trkpt lat="48.911468" lon="20.040688">
<ele>1278.5</ele>
<desc>Speed 23.8 km/h Distance 14.29 km</desc>
<time>2013-07-23T16:15:57.39</time>
<name>6181</name>
<sym>Dot</sym>
</trkpt>
<trkpt lat="48.911480" lon="20.040768">
<ele>1278.0</ele>
<desc>Speed 19.2 km/h Distance 14.30 km</desc>
<time>2013-07-23T16:15:58.38</time>
<name>6182</name>
<sym>Dot</sym>
</trkpt>
<trkpt lat="48.911493" lon="20.040843">
<ele>1278.0</ele>
<desc>Speed 17.0 km/h Distance 14.30 km</desc>
<time>2013-07-23T16:15:59.38</time>
<name>6183</name>
<sym>Dot</sym>
</trkpt>
<trkpt lat="48.911515" lon="20.040912">
<ele>1277.5</ele>
<desc>Speed 19.4 km/h Distance 14.31 km</desc>
<time>2013-07-23T16:16:00.38</time>
<name>6184</name>
<sym>Dot</sym>
</trkpt>
<trkpt lat="48.911522" lon="20.040982">
<ele>1277.5</ele>
<desc>Speed 18.3 km/h Distance 14.31 km</desc>
<time>2013-07-23T16:16:01.38</time>
<name>6185</name>
<sym>Dot</sym>
</trkpt>
<trkpt lat="48.911530" lon="20.041055">
<ele>1277.5</ele>
<desc>Speed 19.1 km/h Distance 14.32 km</desc>
<time>2013-07-23T16:16:02.38</time>
<name>6186</name>
<sym>Dot</sym>
</trkpt>
<trkpt lat="48.911533" lon="20.041130">
<ele>1277.5</ele>
<desc>Speed 19.8 km/h Distance 14.32 km</desc>
<time>2013-07-23T16:16:03.37</time>
<name>6187</name>
<sym>Dot</sym>
</trkpt>
<trkpt lat="48.911522" lon="20.041202">
<ele>1277.0</ele>
<desc>Speed 20.0 km/h Distance 14.33 km</desc>
<time>2013-07-23T16:16:04.37</time>
<name>6188</name>
<sym>Dot</sym>
</trkpt>
<trkpt lat="48.911520" lon="20.041287">
<ele>1277.0</ele>
<desc>Speed 22.9 km/h Distance 14.33 km</desc>
<time>2013-07-23T16:16:05.36</time>
<name>6189</name>
<sym>Dot</sym>
</trkpt>
<trkpt lat="48.911518" lon="20.041370">
<ele>1277.0</ele>
<desc>Speed 22.5 km/h Distance 14.34 km</desc>
<time>2013-07-23T16:16:06.36</time>
<name>6190</name>
<sym>Dot</sym>
</trkpt>
<trkpt lat="48.911517" lon="20.041453">
<ele>1277.0</ele>
<desc>Speed 23.3 km/h Distance 14.35 km</desc>
<time>2013-07-23T16:16:07.35</time>
<name>6191</name>
<sym>Dot</sym>
</trkpt>
<trkpt lat="48.911515" lon="20.041538">
<ele>1277.0</ele>
<desc>Speed 23.1 km/h Distance 14.35 km</desc>
<time>2013-07-23T16:16:08.35</time>
<name>6192</name>
<sym>Dot</sym>
</trkpt>
<trkpt lat="48.911518" lon="20.041623">
<ele>1277.0</ele>
<desc>Speed 22.8 km/h Distance 14.36 km</desc>
<time>2013-07-23T16:16:09.35</time>
<name>6193</name>
<sym>Dot</sym>
</trkpt>
<trkpt lat="48.911520" lon="20.041710">
<ele>1277.0</ele>
<desc>Speed 22.9 km/h Distance 14.37 km</desc>
<time>2013-07-23T16:16:10.34</time>
<name>6194</name>
<sym>Dot</sym>
</trkpt>
<trkpt lat="48.911525" lon="20.041800">
<ele>1277.0</ele>
<desc>Speed 23.9 km/h Distance 14.37 km</desc>
<time>2013-07-23T16:16:11.34</time>
<name>6195</name>
<sym>Dot</sym>
</trkpt>
<trkpt lat="48.911518" lon="20.041892">
<ele>1277.0</ele>
<desc>Speed 24.5 km/h Distance 14.38 km</desc>
<time>2013-07-23T16:16:12.34</time>
<name>6196</name>
<sym>Dot</sym>
</trkpt>
<trkpt lat="48.911520" lon="20.041988">
<ele>1277.0</ele>
<desc>Speed 26.1 km/h Distance 14.39 km</desc>
<time>2013-07-23T16:16:13.33</time>
<name>6197</name>
<sym>Dot</sym>
</trkpt>
<trkpt lat="48.911518" lon="20.042088">
<ele>1277.0</ele>
<desc>Speed 26.1 km/h Distance 14.39 km</desc>
<time>2013-07-23T16:16:14.33</time>
<name>6198</name>
<sym>Dot</sym>
</trkpt>
<trkpt lat="48.911537" lon="20.042158">
<ele>1277.0</ele>
<desc>Speed 20.3 km/h Distance 14.40 km</desc>
<time>2013-07-23T16:16:15.33</time>
<name>6199</name>
<sym>Dot</sym>
</trkpt>
<trkpt lat="48.911488" lon="20.042347">
<ele>1277.0</ele>
<desc>Speed 29.8 km/h Distance 14.41 km</desc>
<time>2013-07-23T16:16:17.32</time>
<name>6200</name>
<sym>Dot</sym>
</trkpt>
<trkpt lat="48.911500" lon="20.042457">
<ele>1277.0</ele>
<desc>Speed 29.4 km/h Distance 14.42 km</desc>
<time>2013-07-23T16:16:18.32</time>
<name>6201</name>
<sym>Dot</sym>
</trkpt>
<trkpt lat="48.911512" lon="20.042570">
<ele>1277.0</ele>
<desc>Speed 29.9 km/h Distance 14.43 km</desc>
<time>2013-07-23T16:16:19.32</time>
<name>6202</name>
<sym>Dot</sym>
</trkpt>
<trkpt lat="48.911522" lon="20.042680">
<ele>1277.0</ele>
<desc>Speed 29.2 km/h Distance 14.44 km</desc>
<time>2013-07-23T16:16:20.31</time>
<name>6203</name>
<sym>Dot</sym>
</trkpt>
<trkpt lat="48.911527" lon="20.042787">
<ele>1277.0</ele>
<desc>Speed 28.3 km/h Distance 14.45 km</desc>
<time>2013-07-23T16:16:21.31</time>
<name>6204</name>
<sym>Dot</sym>
</trkpt>
<trkpt lat="48.911532" lon="20.042890">
<ele>1277.0</ele>
<desc>Speed 26.7 km/h Distance 14.45 km</desc>
<time>2013-07-23T16:16:22.30</time>
<name>6205</name>
<sym>Dot</sym>
</trkpt>
<trkpt lat="48.911535" lon="20.042987">
<ele>1277.0</ele>
<desc>Speed 25.5 km/h Distance 14.46 km</desc>
<time>2013-07-23T16:16:23.29</time>
<name>6206</name>
<sym>Dot</sym>
</trkpt>
<trkpt lat="48.911537" lon="20.043078">
<ele>1277.0</ele>
<desc>Speed 23.4 km/h Distance 14.47 km</desc>
<time>2013-07-23T16:16:24.28</time>
<name>6207</name>
<sym>Dot</sym>
</trkpt>
<trkpt lat="48.911537" lon="20.043158">
<ele>1277.0</ele>
<desc>Speed 20.7 km/h Distance 14.47 km</desc>
<time>2013-07-23T16:16:25.38</time>
<name>6208</name>
<sym>Dot</sym>
</trkpt>
<trkpt lat="48.911560" lon="20.043212">
<ele>1277.0</ele>
<desc>Speed 16.2 km/h Distance 14.48 km</desc>
<time>2013-07-23T16:16:26.28</time>
<name>6209</name>
<sym>Dot</sym>
</trkpt>
<trkpt lat="48.911570" lon="20.043283">
<ele>1277.0</ele>
<desc>Speed 18.6 km/h Distance 14.48 km</desc>
<time>2013-07-23T16:16:27.27</time>
<name>6210</name>
<sym>Dot</sym>
</trkpt>
<trkpt lat="48.911573" lon="20.043365">
<ele>1277.0</ele>
<desc>Speed 20.7 km/h Distance 14.49 km</desc>
<time>2013-07-23T16:16:28.27</time>
<name>6211</name>
<sym>Dot</sym>
</trkpt>
<trkpt lat="48.911577" lon="20.043452">
<ele>1277.0</ele>
<desc>Speed 21.3 km/h Distance 14.50 km</desc>
<time>2013-07-23T16:16:29.26</time>
<name>6212</name>
<sym>Dot</sym>
</trkpt>
<trkpt lat="48.911575" lon="20.043538">
<ele>1277.0</ele>
<desc>Speed 21.4 km/h Distance 14.50 km</desc>
<time>2013-07-23T16:16:30.25</time>
<name>6213</name>
<sym>Dot</sym>
</trkpt>
<trkpt lat="48.911570" lon="20.043622">
<ele>1277.0</ele>
<desc>Speed 20.9 km/h Distance 14.51 km</desc>
<time>2013-07-23T16:16:31.25</time>
<name>6214</name>
<sym>Dot</sym>
</trkpt>
<trkpt lat="48.911570" lon="20.043712">
<ele>1277.0</ele>
<desc>Speed 22.1 km/h Distance 14.52 km</desc>
<time>2013-07-23T16:16:32.25</time>
<name>6215</name>
<sym>Dot</sym>
</trkpt>
<trkpt lat="48.911570" lon="20.043800">
<ele>1277.0</ele>
<desc>Speed 22.7 km/h Distance 14.52 km</desc>
<time>2013-07-23T16:16:33.24</time>
<name>6216</name>
<sym>Dot</sym>
</trkpt>
<trkpt lat="48.911577" lon="20.043887">
<ele>1277.0</ele>
<desc>Speed 22.6 km/h Distance 14.53 km</desc>
<time>2013-07-23T16:16:34.31</time>
<name>6217</name>
<sym>Dot</sym>
</trkpt>
<trkpt lat="48.911587" lon="20.043975">
<ele>1277.0</ele>
<desc>Speed 23.0 km/h Distance 14.53 km</desc>
<time>2013-07-23T16:16:35.24</time>
<name>6218</name>
<sym>Dot</sym>
</trkpt>
<trkpt lat="48.911593" lon="20.044063">
<ele>1277.0</ele>
<desc>Speed 22.4 km/h Distance 14.54 km</desc>
<time>2013-07-23T16:16:36.24</time>
<name>6219</name>
<sym>Dot</sym>
</trkpt>
<trkpt lat="48.911597" lon="20.044147">
<ele>1277.0</ele>
<desc>Speed 21.4 km/h Distance 14.55 km</desc>
<time>2013-07-23T16:16:37.24</time>
<name>6220</name>
<sym>Dot</sym>
</trkpt>
<trkpt lat="48.911608" lon="20.044223">
<ele>1277.0</ele>
<desc>Speed 20.4 km/h Distance 14.55 km</desc>
<time>2013-07-23T16:16:38.23</time>
<name>6221</name>
<sym>Dot</sym>
</trkpt>
<trkpt lat="48.911612" lon="20.044305">
<ele>1277.0</ele>
<desc>Speed 21.0 km/h Distance 14.56 km</desc>
<time>2013-07-23T16:16:39.22</time>
<name>6222</name>
<sym>Dot</sym>
</trkpt>
<trkpt lat="48.911613" lon="20.044385">
<ele>1277.0</ele>
<desc>Speed 20.6 km/h Distance 14.56 km</desc>
<time>2013-07-23T16:16:40.22</time>
<name>6223</name>
<sym>Dot</sym>
</trkpt>
<trkpt lat="48.911612" lon="20.044462">
<ele>1277.0</ele>
<desc>Speed 19.7 km/h Distance 14.57 km</desc>
<time>2013-07-23T16:16:41.22</time>
<name>6224</name>
<sym>Dot</sym>
</trkpt>
<trkpt lat="48.911617" lon="20.044540">
<ele>1277.0</ele>
<desc>Speed 19.8 km/h Distance 14.58 km</desc>
<time>2013-07-23T16:16:42.21</time>
<name>6225</name>
<sym>Dot</sym>
</trkpt>
<trkpt lat="48.911622" lon="20.044617">
<ele>1277.0</ele>
<desc>Speed 20.3 km/h Distance 14.58 km</desc>
<time>2013-07-23T16:16:43.21</time>
<name>6226</name>
<sym>Dot</sym>
</trkpt>
<trkpt lat="48.911623" lon="20.044698">
<ele>1277.0</ele>
<desc>Speed 21.3 km/h Distance 14.59 km</desc>
<time>2013-07-23T16:16:44.21</time>
<name>6227</name>
<sym>Dot</sym>
</trkpt>
<trkpt lat="48.911622" lon="20.044788">
<ele>1277.0</ele>
<desc>Speed 22.8 km/h Distance 14.59 km</desc>
<time>2013-07-23T16:16:45.21</time>
<name>6228</name>
<sym>Dot</sym>
</trkpt>
<trkpt lat="48.911623" lon="20.044880">
<ele>1277.0</ele>
<desc>Speed 23.5 km/h Distance 14.60 km</desc>
<time>2013-07-23T16:16:46.20</time>
<name>6229</name>
<sym>Dot</sym>
</trkpt>
<trkpt lat="48.911628" lon="20.044973">
<ele>1277.0</ele>
<desc>Speed 24.4 km/h Distance 14.61 km</desc>
<time>2013-07-23T16:16:47.19</time>
<name>6230</name>
<sym>Dot</sym>
</trkpt>
<trkpt lat="48.911635" lon="20.045070">
<ele>1277.0</ele>
<desc>Speed 25.1 km/h Distance 14.61 km</desc>
<time>2013-07-23T16:16:48.23</time>
<name>6231</name>
<sym>Dot</sym>
</trkpt>
<trkpt lat="48.911627" lon="20.045178">
<ele>1277.0</ele>
<desc>Speed 27.8 km/h Distance 14.62 km</desc>
<time>2013-07-23T16:16:49.19</time>
<name>6232</name>
<sym>Dot</sym>
</trkpt>
<trkpt lat="48.911642" lon="20.045265">
<ele>1277.0</ele>
<desc>Speed 23.0 km/h Distance 14.63 km</desc>
<time>2013-07-23T16:16:50.18</time>
<name>6233</name>
<sym>Dot</sym>
</trkpt>
<trkpt lat="48.911658" lon="20.045352">
<ele>1277.0</ele>
<desc>Speed 23.5 km/h Distance 14.64 km</desc>
<time>2013-07-23T16:16:51.23</time>
<name>6234</name>
<sym>Dot</sym>
</trkpt>
<trkpt lat="48.911673" lon="20.045442">
<ele>1277.0</ele>
<desc>Speed 24.3 km/h Distance 14.64 km</desc>
<time>2013-07-23T16:16:52.17</time>
<name>6235</name>
<sym>Dot</sym>
</trkpt>
<trkpt lat="48.911698" lon="20.045530">
<ele>1277.0</ele>
<desc>Speed 25.3 km/h Distance 14.65 km</desc>
<time>2013-07-23T16:16:53.17</time>
<name>6236</name>
<sym>Dot</sym>
</trkpt>
<trkpt lat="48.911720" lon="20.045627">
<ele>1277.0</ele>
<desc>Speed 26.4 km/h Distance 14.66 km</desc>
<time>2013-07-23T16:16:54.16</time>
<name>6237</name>
<sym>Dot</sym>
</trkpt>
<trkpt lat="48.911772" lon="20.045695">
<ele>1277.0</ele>
<desc>Speed 27.5 km/h Distance 14.67 km</desc>
<time>2013-07-23T16:16:55.16</time>
<name>6238</name>
<sym>Dot</sym>
</trkpt>
<trkpt lat="48.911813" lon="20.045752">
<ele>1277.0</ele>
<desc>Speed 27.5 km/h Distance 14.67 km</desc>
<time>2013-07-23T16:16:56.15</time>
<name>6239</name>
<sym>Dot</sym>
</trkpt>
<trkpt lat="48.911822" lon="20.045857">
<ele>1277.0</ele>
<desc>Speed 26.6 km/h Distance 14.68 km</desc>
<time>2013-07-23T16:16:57.15</time>
<name>6240</name>
<sym>Dot</sym>
</trkpt>
<trkpt lat="48.911845" lon="20.045952">
<ele>1277.0</ele>
<desc>Speed 25.5 km/h Distance 14.69 km</desc>
<time>2013-07-23T16:16:58.14</time>
<name>6241</name>
<sym>Dot</sym>
</trkpt>
<trkpt lat="48.911902" lon="20.046020">
<ele>1277.0</ele>
<desc>Speed 28.2 km/h Distance 14.69 km</desc>
<time>2013-07-23T16:16:59.14</time>
<name>6242</name>
<sym>Dot</sym>
</trkpt>
<trkpt lat="48.911918" lon="20.046118">
<ele>1277.0</ele>
<desc>Speed 25.5 km/h Distance 14.70 km</desc>
<time>2013-07-23T16:17:00.14</time>
<name>6243</name>
<sym>Dot</sym>
</trkpt>
<trkpt lat="48.911967" lon="20.046185">
<ele>1277.0</ele>
<desc>Speed 26.4 km/h Distance 14.71 km</desc>
<time>2013-07-23T16:17:01.13</time>
<name>6244</name>
<sym>Dot</sym>
</trkpt>
<trkpt lat="48.911983" lon="20.046270">
<ele>1277.0</ele>
<desc>Speed 23.0 km/h Distance 14.72 km</desc>
<time>2013-07-23T16:17:02.12</time>
<name>6245</name>
<sym>Dot</sym>
</trkpt>
<trkpt lat="48.911985" lon="20.046367">
<ele>1277.0</ele>
<desc>Speed 24.1 km/h Distance 14.72 km</desc>
<time>2013-07-23T16:17:03.12</time>
<name>6246</name>
<sym>Dot</sym>
</trkpt>
<trkpt lat="48.911977" lon="20.046475">
<ele>1277.0</ele>
<desc>Speed 26.0 km/h Distance 14.73 km</desc>
<time>2013-07-23T16:17:04.12</time>
<name>6247</name>
<sym>Dot</sym>
</trkpt>
<trkpt lat="48.911958" lon="20.046588">
<ele>1277.0</ele>
<desc>Speed 27.3 km/h Distance 14.74 km</desc>
<time>2013-07-23T16:17:05.11</time>
<name>6248</name>
<sym>Dot</sym>
</trkpt>
<trkpt lat="48.911940" lon="20.046703">
<ele>1277.0</ele>
<desc>Speed 28.7 km/h Distance 14.75 km</desc>
<time>2013-07-23T16:17:06.11</time>
<name>6249</name>
<sym>Dot</sym>
</trkpt>
<trkpt lat="48.911927" lon="20.046822">
<ele>1277.0</ele>
<desc>Speed 30.4 km/h Distance 14.76 km</desc>
<time>2013-07-23T16:17:07.11</time>
<name>6250</name>
<sym>Dot</sym>
</trkpt>
<trkpt lat="48.911912" lon="20.046938">
<ele>1277.0</ele>
<desc>Speed 30.0 km/h Distance 14.77 km</desc>
<time>2013-07-23T16:17:08.10</time>
<name>6251</name>
<sym>Dot</sym>
</trkpt>
<trkpt lat="48.911898" lon="20.047048">
<ele>1277.0</ele>
<desc>Speed 27.8 km/h Distance 14.77 km</desc>
<time>2013-07-23T16:17:09.10</time>
<name>6252</name>
<sym>Dot</sym>
</trkpt>
<trkpt lat="48.911883" lon="20.047153">
<ele>1277.0</ele>
<desc>Speed 26.0 km/h Distance 14.78 km</desc>
<time>2013-07-23T16:17:10.10</time>
<name>6253</name>
<sym>Dot</sym>
</trkpt>
<trkpt lat="48.911872" lon="20.047257">
<ele>1277.0</ele>
<desc>Speed 26.5 km/h Distance 14.79 km</desc>
<time>2013-07-23T16:17:11.09</time>
<name>6254</name>
<sym>Dot</sym>
</trkpt>
<trkpt lat="48.911867" lon="20.047362">
<ele>1277.0</ele>
<desc>Speed 26.3 km/h Distance 14.80 km</desc>
<time>2013-07-23T16:17:12.08</time>
<name>6255</name>
<sym>Dot</sym>
</trkpt>
<trkpt lat="48.911857" lon="20.047465">
<ele>1277.0</ele>
<desc>Speed 27.0 km/h Distance 14.80 km</desc>
<time>2013-07-23T16:17:13.08</time>
<name>6256</name>
<sym>Dot</sym>
</trkpt>
<trkpt lat="48.911848" lon="20.047567">
<ele>1277.0</ele>
<desc>Speed 26.5 km/h Distance 14.81 km</desc>
<time>2013-07-23T16:17:14.08</time>
<name>6257</name>
<sym>Dot</sym>
</trkpt>
<trkpt lat="48.911838" lon="20.047670">
<ele>1277.0</ele>
<desc>Speed 26.6 km/h Distance 14.82 km</desc>
<time>2013-07-23T16:17:15.08</time>
<name>6258</name>
<sym>Dot</sym>
</trkpt>
<trkpt lat="48.911830" lon="20.047773">
<ele>1277.0</ele>
<desc>Speed 26.9 km/h Distance 14.83 km</desc>
<time>2013-07-23T16:17:16.08</time>
<name>6259</name>
<sym>Dot</sym>
</trkpt>
<trkpt lat="48.911817" lon="20.047878">
<ele>1277.0</ele>
<desc>Speed 27.3 km/h Distance 14.83 km</desc>
<time>2013-07-23T16:17:17.07</time>
<name>6260</name>
<sym>Dot</sym>
</trkpt>
<trkpt lat="48.911805" lon="20.047987">
<ele>1277.0</ele>
<desc>Speed 28.0 km/h Distance 14.84 km</desc>
<time>2013-07-23T16:17:18.06</time>
<name>6261</name>
<sym>Dot</sym>
</trkpt>
<trkpt lat="48.911792" lon="20.048095">
<ele>1277.0</ele>
<desc>Speed 28.4 km/h Distance 14.85 km</desc>
<time>2013-07-23T16:17:19.06</time>
<name>6262</name>
<sym>Dot</sym>
</trkpt>
<trkpt lat="48.911780" lon="20.048202">
<ele>1277.0</ele>
<desc>Speed 28.0 km/h Distance 14.86 km</desc>
<time>2013-07-23T16:17:20.05</time>
<name>6263</name>
<sym>Dot</sym>
</trkpt>
<trkpt lat="48.911768" lon="20.048308">
<ele>1277.0</ele>
<desc>Speed 28.0 km/h Distance 14.87 km</desc>
<time>2013-07-23T16:17:21.05</time>
<name>6264</name>
<sym>Dot</sym>
</trkpt>
<trkpt lat="48.911753" lon="20.048413">
<ele>1277.0</ele>
<desc>Speed 27.9 km/h Distance 14.87 km</desc>
<time>2013-07-23T16:17:22.04</time>
<name>6265</name>
<sym>Dot</sym>
</trkpt>
<trkpt lat="48.911742" lon="20.048512">
<ele>1277.0</ele>
<desc>Speed 26.2 km/h Distance 14.88 km</desc>
<time>2013-07-23T16:17:23.08</time>
<name>6266</name>
<sym>Dot</sym>
</trkpt>
<trkpt lat="48.911727" lon="20.048608">
<ele>1277.0</ele>
<desc>Speed 26.0 km/h Distance 14.89 km</desc>
<time>2013-07-23T16:17:24.04</time>
<name>6267</name>
<sym>Dot</sym>
</trkpt>
<trkpt lat="48.911712" lon="20.048707">
<ele>1277.0</ele>
<desc>Speed 26.6 km/h Distance 14.90 km</desc>
<time>2013-07-23T16:17:25.03</time>
<name>6268</name>
<sym>Dot</sym>
</trkpt>
<trkpt lat="48.911700" lon="20.048787">
<ele>1277.0</ele>
<desc>Speed 26.6 km/h Distance 14.90 km</desc>
<time>2013-07-23T16:17:26.02</time>
<name>6269</name>
<sym>Dot</sym>
</trkpt>
<trkpt lat="48.911683" lon="20.048902">
<ele>1277.0</ele>
<desc>Speed 26.6 km/h Distance 14.91 km</desc>
<time>2013-07-23T16:17:28.02</time>
<name>6270</name>
<sym>Dot</sym>
</trkpt>
<trkpt lat="48.911675" lon="20.048980">
<ele>1277.0</ele>
<desc>Speed 20.1 km/h Distance 14.92 km</desc>
<time>2013-07-23T16:17:29.01</time>
<name>6271</name>
<sym>Dot</sym>
</trkpt>
<trkpt lat="48.911685" lon="20.049052">
<ele>1277.0</ele>
<desc>Speed 17.5 km/h Distance 14.92 km</desc>
<time>2013-07-23T16:17:30.01</time>
<name>6272</name>
<sym>Dot</sym>
</trkpt>
<trkpt lat="48.911695" lon="20.049105">
<ele>1277.0</ele>
<desc>Speed 14.3 km/h Distance 14.93 km</desc>
<time>2013-07-23T16:17:31.01</time>
<name>6273</name>
<sym>Dot</sym>
</trkpt>
<trkpt lat="48.911702" lon="20.049152">
<ele>1277.0</ele>
<desc>Speed 14.3 km/h Distance 14.93 km</desc>
<time>2013-07-23T16:17:32.00</time>
<name>6274</name>
<sym>Dot</sym>
</trkpt>
<trkpt lat="48.911712" lon="20.049187">
<ele>1277.0</ele>
<desc>Speed 14.3 km/h Distance 14.93 km</desc>
<time>2013-07-23T16:17:33.01</time>
<name>6275</name>
<sym>Dot</sym>
</trkpt>
<trkpt lat="48.911730" lon="20.049262">
<ele>1277.0</ele>
<desc>Speed 20.1 km/h Distance 14.94 km</desc>
<time>2013-07-23T16:17:34.00</time>
<name>6276</name>
<sym>Dot</sym>
</trkpt>
<trkpt lat="48.911763" lon="20.049338">
<ele>1277.0</ele>
<desc>Speed 22.6 km/h Distance 14.95 km</desc>
<time>2013-07-23T16:17:35.00</time>
<name>6277</name>
<sym>Dot</sym>
</trkpt>
<trkpt lat="48.911812" lon="20.049415">
<ele>1277.0</ele>
<desc>Speed 25.7 km/h Distance 14.95 km</desc>
<time>2013-07-23T16:17:35.99</time>
<name>6278</name>
<sym>Dot</sym>
</trkpt>
<trkpt lat="48.911868" lon="20.049487">
<ele>1277.0</ele>
<desc>Speed 26.1 km/h Distance 14.96 km</desc>
<time>2013-07-23T16:17:36.99</time>
<name>6279</name>
<sym>Dot</sym>
</trkpt>
<trkpt lat="48.911925" lon="20.049558">
<ele>1277.0</ele>
<desc>Speed 25.7 km/h Distance 14.97 km</desc>
<time>2013-07-23T16:17:37.98</time>
<name>6280</name>
<sym>Dot</sym>
</trkpt>
<trkpt lat="48.911983" lon="20.049632">
<ele>1277.0</ele>
<desc>Speed 26.5 km/h Distance 14.98 km</desc>
<time>2013-07-23T16:17:38.98</time>
<name>6281</name>
<sym>Dot</sym>
</trkpt>
<trkpt lat="48.912043" lon="20.049710">
<ele>1277.0</ele>
<desc>Speed 28.2 km/h Distance 14.99 km</desc>
<time>2013-07-23T16:17:39.97</time>
<name>6282</name>
<sym>Dot</sym>
</trkpt>
<trkpt lat="48.912095" lon="20.049747">
<ele>1277.0</ele>
<desc>Speed 22.1 km/h Distance 14.99 km</desc>
<time>2013-07-23T16:17:40.97</time>
<name>6283</name>
<sym>Dot</sym>
</trkpt>
<trkpt lat="48.912145" lon="20.049823">
<ele>1277.0</ele>
<desc>Speed 27.0 km/h Distance 15.00 km</desc>
<time>2013-07-23T16:17:41.96</time>
<name>6284</name>
<sym>Dot</sym>
</trkpt>
<trkpt lat="48.912198" lon="20.049922">
<ele>1277.0</ele>
<desc>Speed 31.9 km/h Distance 15.01 km</desc>
<time>2013-07-23T16:17:42.96</time>
<name>6285</name>
<sym>Dot</sym>
</trkpt>
<trkpt lat="48.912252" lon="20.050000">
<ele>1277.0</ele>
<desc>Speed 29.4 km/h Distance 15.02 km</desc>
<time>2013-07-23T16:17:43.96</time>
<name>6286</name>
<sym>Dot</sym>
</trkpt>
<trkpt lat="48.912302" lon="20.050073">
<ele>1277.0</ele>
<desc>Speed 26.6 km/h Distance 15.03 km</desc>
<time>2013-07-23T16:17:44.95</time>
<name>6287</name>
<sym>Dot</sym>
</trkpt>
<trkpt lat="48.912362" lon="20.050152">
<ele>1277.0</ele>
<desc>Speed 29.0 km/h Distance 15.04 km</desc>
<time>2013-07-23T16:17:45.95</time>
<name>6288</name>
<sym>Dot</sym>
</trkpt>
<trkpt lat="48.912407" lon="20.050232">
<ele>1277.0</ele>
<desc>Speed 26.2 km/h Distance 15.04 km</desc>
<time>2013-07-23T16:17:46.94</time>
<name>6289</name>
<sym>Dot</sym>
</trkpt>
<trkpt lat="48.912453" lon="20.050308">
<ele>1277.0</ele>
<desc>Speed 24.1 km/h Distance 15.05 km</desc>
<time>2013-07-23T16:17:47.94</time>
<name>6290</name>
<sym>Dot</sym>
</trkpt>
<trkpt lat="48.912475" lon="20.050415">
<ele>1277.0</ele>
<desc>Speed 26.0 km/h Distance 15.06 km</desc>
<time>2013-07-23T16:17:48.93</time>
<name>6291</name>
<sym>Dot</sym>
</trkpt>
<trkpt lat="48.912515" lon="20.050508">
<ele>1277.0</ele>
<desc>Speed 25.5 km/h Distance 15.07 km</desc>
<time>2013-07-23T16:17:49.93</time>
<name>6292</name>
<sym>Dot</sym>
</trkpt>
<trkpt lat="48.912562" lon="20.050592">
<ele>1277.0</ele>
<desc>Speed 24.5 km/h Distance 15.07 km</desc>
<time>2013-07-23T16:17:50.93</time>
<name>6293</name>
<sym>Dot</sym>
</trkpt>
<trkpt lat="48.912602" lon="20.050677">
<ele>1277.0</ele>
<desc>Speed 24.8 km/h Distance 15.08 km</desc>
<time>2013-07-23T16:17:51.92</time>
<name>6294</name>
<sym>Dot</sym>
</trkpt>
<trkpt lat="48.912670" lon="20.050822">
<ele>1277.0</ele>
<desc>Speed 29.0 km/h Distance 15.10 km</desc>
<time>2013-07-23T16:17:53.91</time>
<name>6295</name>
<sym>Dot</sym>
</trkpt>
<trkpt lat="48.912687" lon="20.050915">
<ele>1276.5</ele>
<desc>Speed 24.2 km/h Distance 15.10 km</desc>
<time>2013-07-23T16:17:54.91</time>
<name>6296</name>
<sym>Dot</sym>
</trkpt>
<trkpt lat="48.912710" lon="20.051022">
<ele>1276.5</ele>
<desc>Speed 27.8 km/h Distance 15.11 km</desc>
<time>2013-07-23T16:17:55.91</time>
<name>6297</name>
<sym>Dot</sym>
</trkpt>
<trkpt lat="48.912728" lon="20.051138">
<ele>1276.5</ele>
<desc>Speed 29.8 km/h Distance 15.12 km</desc>
<time>2013-07-23T16:17:56.91</time>
<name>6298</name>
<sym>Dot</sym>
</trkpt>
<trkpt lat="48.912743" lon="20.051260">
<ele>1276.5</ele>
<desc>Speed 30.0 km/h Distance 15.13 km</desc>
<time>2013-07-23T16:17:57.90</time>
<name>6299</name>
<sym>Dot</sym>
</trkpt>
<trkpt lat="48.912762" lon="20.051387">
<ele>1276.5</ele>
<desc>Speed 30.2 km/h Distance 15.14 km</desc>
<time>2013-07-23T16:17:58.90</time>
<name>6300</name>
<sym>Dot</sym>
</trkpt>
<trkpt lat="48.912780" lon="20.051512">
<ele>1276.5</ele>
<desc>Speed 30.5 km/h Distance 15.15 km</desc>
<time>2013-07-23T16:17:59.90</time>
<name>6301</name>
<sym>Dot</sym>
</trkpt>
<trkpt lat="48.912797" lon="20.051633">
<ele>1276.5</ele>
<desc>Speed 30.3 km/h Distance 15.16 km</desc>
<time>2013-07-23T16:18:00.89</time>
<name>6302</name>
<sym>Dot</sym>
</trkpt>
<trkpt lat="48.912805" lon="20.051748">
<ele>1276.5</ele>
<desc>Speed 29.2 km/h Distance 15.17 km</desc>
<time>2013-07-23T16:18:01.89</time>
<name>6303</name>
<sym>Dot</sym>
</trkpt>
<trkpt lat="48.912813" lon="20.051872">
<ele>1276.0</ele>
<desc>Speed 28.8 km/h Distance 15.17 km</desc>
<time>2013-07-23T16:18:02.88</time>
<name>6304</name>
<sym>Dot</sym>
</trkpt>
<trkpt lat="48.912810" lon="20.051985">
<ele>1276.0</ele>
<desc>Speed 29.0 km/h Distance 15.18 km</desc>
<time>2013-07-23T16:18:03.88</time>
<name>6305</name>
<sym>Dot</sym>
</trkpt>
<trkpt lat="48.912813" lon="20.052105">
<ele>1276.0</ele>
<desc>Speed 30.4 km/h Distance 15.19 km</desc>
<time>2013-07-23T16:18:04.88</time>
<name>6306</name>
<sym>Dot</sym>
</trkpt>
<trkpt lat="48.912813" lon="20.052220">
<ele>1276.0</ele>
<desc>Speed 29.2 km/h Distance 15.20 km</desc>
<time>2013-07-23T16:18:05.88</time>
<name>6307</name>
<sym>Dot</sym>
</trkpt>
<trkpt lat="48.912807" lon="20.052323">
<ele>1276.0</ele>
<desc>Speed 25.8 km/h Distance 15.21 km</desc>
<time>2013-07-23T16:18:06.87</time>
<name>6308</name>
<sym>Dot</sym>
</trkpt>
<trkpt lat="48.912793" lon="20.052430">
<ele>1276.0</ele>
<desc>Speed 25.9 km/h Distance 15.22 km</desc>
<time>2013-07-23T16:18:07.87</time>
<name>6309</name>
<sym>Dot</sym>
</trkpt>
<trkpt lat="48.912777" lon="20.052538">
<ele>1276.0</ele>
<desc>Speed 26.4 km/h Distance 15.22 km</desc>
<time>2013-07-23T16:18:08.86</time>
<name>6310</name>
<sym>Dot</sym>
</trkpt>
<trkpt lat="48.912762" lon="20.052642">
<ele>1275.5</ele>
<desc>Speed 26.8 km/h Distance 15.23 km</desc>
<time>2013-07-23T16:18:09.85</time>
<name>6311</name>
<sym>Dot</sym>
</trkpt>
<trkpt lat="48.912747" lon="20.052748">
<ele>1275.5</ele>
<desc>Speed 27.0 km/h Distance 15.24 km</desc>
<time>2013-07-23T16:18:10.85</time>
<name>6312</name>
<sym>Dot</sym>
</trkpt>
<trkpt lat="48.912730" lon="20.052855">
<ele>1275.5</ele>
<desc>Speed 26.9 km/h Distance 15.25 km</desc>
<time>2013-07-23T16:18:11.85</time>
<name>6313</name>
<sym>Dot</sym>
</trkpt>
<trkpt lat="48.912710" lon="20.052958">
<ele>1275.5</ele>
<desc>Speed 27.0 km/h Distance 15.25 km</desc>
<time>2013-07-23T16:18:12.84</time>
<name>6314</name>
<sym>Dot</sym>
</trkpt>
<trkpt lat="48.912692" lon="20.053062">
<ele>1275.5</ele>
<desc>Speed 27.4 km/h Distance 15.26 km</desc>
<time>2013-07-23T16:18:13.83</time>
<name>6315</name>
<sym>Dot</sym>
</trkpt>
<trkpt lat="48.912677" lon="20.053168">
<ele>1275.0</ele>
<desc>Speed 27.4 km/h Distance 15.27 km</desc>
<time>2013-07-23T16:18:14.83</time>
<name>6316</name>
<sym>Dot</sym>
</trkpt>
<trkpt lat="48.912660" lon="20.053275">
<ele>1275.0</ele>
<desc>Speed 27.3 km/h Distance 15.28 km</desc>
<time>2013-07-23T16:18:15.83</time>
<name>6317</name>
<sym>Dot</sym>
</trkpt>
<trkpt lat="48.912642" lon="20.053378">
<ele>1275.0</ele>
<desc>Speed 27.3 km/h Distance 15.29 km</desc>
<time>2013-07-23T16:18:16.87</time>
<name>6318</name>
<sym>Dot</sym>
</trkpt>
<trkpt lat="48.912633" lon="20.053480">
<ele>1275.0</ele>
<desc>Speed 26.2 km/h Distance 15.29 km</desc>
<time>2013-07-23T16:18:17.82</time>
<name>6319</name>
<sym>Dot</sym>
</trkpt>
<trkpt lat="48.912630" lon="20.053580">
<ele>1275.0</ele>
<desc>Speed 26.0 km/h Distance 15.30 km</desc>
<time>2013-07-23T16:18:18.81</time>
<name>6320</name>
<sym>Dot</sym>
</trkpt>
<trkpt lat="48.912632" lon="20.053678">
<ele>1275.0</ele>
<desc>Speed 25.8 km/h Distance 15.31 km</desc>
<time>2013-07-23T16:18:19.80</time>
<name>6321</name>
<sym>Dot</sym>
</trkpt>
<trkpt lat="48.912638" lon="20.053783">
<ele>1274.5</ele>
<desc>Speed 26.0 km/h Distance 15.32 km</desc>
<time>2013-07-23T16:18:20.80</time>
<name>6322</name>
<sym>Dot</sym>
</trkpt>
<trkpt lat="48.912642" lon="20.053887">
<ele>1274.5</ele>
<desc>Speed 26.6 km/h Distance 15.32 km</desc>
<time>2013-07-23T16:18:21.80</time>
<name>6323</name>
<sym>Dot</sym>
</trkpt>
<trkpt lat="48.912643" lon="20.053988">
<ele>1274.5</ele>
<desc>Speed 26.5 km/h Distance 15.33 km</desc>
<time>2013-07-23T16:18:22.79</time>
<name>6324</name>
<sym>Dot</sym>
</trkpt>
<trkpt lat="48.912643" lon="20.054087">
<ele>1274.5</ele>
<desc>Speed 26.1 km/h Distance 15.34 km</desc>
<time>2013-07-23T16:18:23.78</time>
<name>6325</name>
<sym>Dot</sym>
</trkpt>
<trkpt lat="48.912647" lon="20.054187">
<ele>1274.0</ele>
<desc>Speed 26.3 km/h Distance 15.35 km</desc>
<time>2013-07-23T16:18:24.78</time>
<name>6326</name>
<sym>Dot</sym>
</trkpt>
<trkpt lat="48.912655" lon="20.054288">
<ele>1274.0</ele>
<desc>Speed 26.3 km/h Distance 15.35 km</desc>
<time>2013-07-23T16:18:25.77</time>
<name>6327</name>
<sym>Dot</sym>
</trkpt>
<trkpt lat="48.912652" lon="20.054385">
<ele>1274.0</ele>
<desc>Speed 26.0 km/h Distance 15.36 km</desc>
<time>2013-07-23T16:18:26.77</time>
<name>6328</name>
<sym>Dot</sym>
</trkpt>
<trkpt lat="48.912647" lon="20.054482">
<ele>1274.0</ele>
<desc>Speed 25.6 km/h Distance 15.37 km</desc>
<time>2013-07-23T16:18:27.77</time>
<name>6329</name>
<sym>Dot</sym>
</trkpt>
<trkpt lat="48.912647" lon="20.054577">
<ele>1274.0</ele>
<desc>Speed 25.6 km/h Distance 15.37 km</desc>
<time>2013-07-23T16:18:28.76</time>
<name>6330</name>
<sym>Dot</sym>
</trkpt>
<trkpt lat="48.912652" lon="20.054678">
<ele>1273.5</ele>
<desc>Speed 26.0 km/h Distance 15.38 km</desc>
<time>2013-07-23T16:18:29.75</time>
<name>6331</name>
<sym>Dot</sym>
</trkpt>
<trkpt lat="48.912655" lon="20.054778">
<ele>1273.5</ele>
<desc>Speed 26.1 km/h Distance 15.39 km</desc>
<time>2013-07-23T16:18:30.75</time>
<name>6332</name>
<sym>Dot</sym>
</trkpt>
<trkpt lat="48.912657" lon="20.054880">
<ele>1273.5</ele>
<desc>Speed 26.7 km/h Distance 15.40 km</desc>
<time>2013-07-23T16:18:31.75</time>
<name>6333</name>
<sym>Dot</sym>
</trkpt>
<trkpt lat="48.912657" lon="20.054983">
<ele>1273.5</ele>
<desc>Speed 27.1 km/h Distance 15.40 km</desc>
<time>2013-07-23T16:18:32.75</time>
<name>6334</name>
<sym>Dot</sym>
</trkpt>
<trkpt lat="48.912655" lon="20.055087">
<ele>1273.5</ele>
<desc>Speed 27.4 km/h Distance 15.41 km</desc>
<time>2013-07-23T16:18:33.75</time>
<name>6335</name>
<sym>Dot</sym>
</trkpt>
<trkpt lat="48.912655" lon="20.055175">
<ele>1273.5</ele>
<desc>Speed 23.9 km/h Distance 15.42 km</desc>
<time>2013-07-23T16:18:34.73</time>
<name>6336</name>
<sym>Dot</sym>
</trkpt>
<trkpt lat="48.912655" lon="20.055242">
<ele>1273.5</ele>
<desc>Speed 17.5 km/h Distance 15.42 km</desc>
<time>2013-07-23T16:18:35.73</time>
<name>6337</name>
<sym>Dot</sym>
</trkpt>
<trkpt lat="48.912653" lon="20.055302">
<ele>1273.5</ele>
<desc>Speed 16.0 km/h Distance 15.43 km</desc>
<time>2013-07-23T16:18:36.72</time>
<name>6338</name>
<sym>Dot</sym>
</trkpt>
<trkpt lat="48.912652" lon="20.055362">
<ele>1273.5</ele>
<desc>Speed 15.7 km/h Distance 15.43 km</desc>
<time>2013-07-23T16:18:37.72</time>
<name>6339</name>
<sym>Dot</sym>
</trkpt>
<trkpt lat="48.912650" lon="20.055422">
<ele>1273.5</ele>
<desc>Speed 16.0 km/h Distance 15.44 km</desc>
<time>2013-07-23T16:18:38.72</time>
<name>6340</name>
<sym>Dot</sym>
</trkpt>
<trkpt lat="48.912648" lon="20.055473">
<ele>1273.5</ele>
<desc>Speed 13.6 km/h Distance 15.44 km</desc>
<time>2013-07-23T16:18:39.72</time>
<name>6341</name>
<sym>Dot</sym>
</trkpt>
<trkpt lat="48.912652" lon="20.055520">
<ele>1273.5</ele>
<desc>Speed 11.8 km/h Distance 15.44 km</desc>
<time>2013-07-23T16:18:40.71</time>
<name>6342</name>
<sym>Dot</sym>
</trkpt>
<trkpt lat="48.912658" lon="20.055568">
<ele>1273.0</ele>
<desc>Speed 11.8 km/h Distance 15.45 km</desc>
<time>2013-07-23T16:18:41.71</time>
<name>6343</name>
<sym>Dot</sym>
</trkpt>
<trkpt lat="48.912657" lon="20.055613">
<ele>1273.0</ele>
<desc>Speed 11.6 km/h Distance 15.45 km</desc>
<time>2013-07-23T16:18:42.70</time>
<name>6344</name>
<sym>Dot</sym>
</trkpt>
<trkpt lat="48.912657" lon="20.055653">
<ele>1273.0</ele>
<desc>Speed 10.0 km/h Distance 15.45 km</desc>
<time>2013-07-23T16:18:43.69</time>
<name>6345</name>
<sym>Dot</sym>
</trkpt>
<trkpt lat="48.912660" lon="20.055693">
<ele>1272.5</ele>
<desc>Speed 9.4 km/h Distance 15.46 km</desc>
<time>2013-07-23T16:18:44.68</time>
<name>6346</name>
<sym>Dot</sym>
</trkpt>
<trkpt lat="48.912657" lon="20.055725">
<ele>1272.5</ele>
<desc>Speed 8.8 km/h Distance 15.46 km</desc>
<time>2013-07-23T16:18:45.68</time>
<name>6347</name>
<sym>Dot</sym>
</trkpt>
<trkpt lat="48.912657" lon="20.055755">
<ele>1272.5</ele>
<desc>Speed 7.8 km/h Distance 15.46 km</desc>
<time>2013-07-23T16:18:46.79</time>
<name>6348</name>
<sym>Dot</sym>
</trkpt>
<trkpt lat="48.912657" lon="20.055777">
<ele>1272.5</ele>
<desc>Speed 5.6 km/h Distance 15.46 km</desc>
<time>2013-07-23T16:18:47.68</time>
<name>6349</name>
<sym>Dot</sym>
</trkpt>
<trkpt lat="48.912655" lon="20.055795">
<ele>1272.5</ele>
<desc>Speed 4.9 km/h Distance 15.46 km</desc>
<time>2013-07-23T16:18:48.67</time>
<name>6350</name>
<sym>Dot</sym>
</trkpt>
<trkpt lat="48.912655" lon="20.055812">
<ele>1272.5</ele>
<desc>Speed 4.6 km/h Distance 15.47 km</desc>
<time>2013-07-23T16:18:49.66</time>
<name>6351</name>
<sym>Dot</sym>
</trkpt>
<trkpt lat="48.912660" lon="20.055833">
<ele>1272.0</ele>
<desc>Speed 4.7 km/h Distance 15.47 km</desc>
<time>2013-07-23T16:18:50.66</time>
<name>6352</name>
<sym>Dot</sym>
</trkpt>
<trkpt lat="48.912723" lon="20.055877">
<ele>1263.5</ele>
<desc>Speed 2.9 km/h Distance 15.47 km</desc>
<time>2013-07-23T16:18:59.65</time>
<name>6353</name>
<sym>Dot</sym>
</trkpt>
<trkpt lat="48.912812" lon="20.055948">
<ele>1260.0</ele>
<desc>Speed 4.5 km/h Distance 15.49 km</desc>
<time>2013-07-23T16:19:11.65</time>
<name>6354</name>
<sym>Dot</sym>
</trkpt>
<trkpt lat="48.912818" lon="20.055965">
<ele>1260.0</ele>
<desc>Speed 4.8 km/h Distance 15.49 km</desc>
<time>2013-07-23T16:19:12.68</time>
<name>6355</name>
<sym>Dot</sym>
</trkpt>
<trkpt lat="48.912840" lon="20.056003">
<ele>1257.5</ele>
<desc>Speed 5.6 km/h Distance 15.49 km</desc>
<time>2013-07-23T16:19:15.64</time>
<name>6356</name>
<sym>Dot</sym>
</trkpt>
<trkpt lat="48.912845" lon="20.056033">
<ele>1257.0</ele>
<desc>Speed 7.8 km/h Distance 15.49 km</desc>
<time>2013-07-23T16:19:16.62</time>
<name>6357</name>
<sym>Dot</sym>
</trkpt>
<trkpt lat="48.912845" lon="20.056062">
<ele>1256.0</ele>
<desc>Speed 7.7 km/h Distance 15.50 km</desc>
<time>2013-07-23T16:19:17.71</time>
<name>6358</name>
<sym>Dot</sym>
</trkpt>
<trkpt lat="48.912852" lon="20.056083">
<ele>1256.0</ele>
<desc>Speed 6.7 km/h Distance 15.50 km</desc>
<time>2013-07-23T16:19:18.61</time>
<name>6359</name>
<sym>Dot</sym>
</trkpt>
<trkpt lat="48.912862" lon="20.056102">
<ele>1255.5</ele>
<desc>Speed 4.1 km/h Distance 15.50 km</desc>
<time>2013-07-23T16:19:19.61</time>
<name>6360</name>
<sym>Dot</sym>
</trkpt>
<trkpt lat="48.912880" lon="20.056132">
<ele>1253.5</ele>
<desc>Speed 4.5 km/h Distance 15.50 km</desc>
<time>2013-07-23T16:19:20.60</time>
<name>6361</name>
<sym>Dot</sym>
</trkpt>
<trkpt lat="48.912883" lon="20.056220">
<ele>1250.5</ele>
<desc>Speed 9.0 km/h Distance 15.51 km</desc>
<time>2013-07-23T16:19:22.60</time>
<name>6362</name>
<sym>Dot</sym>
</trkpt>
<trkpt lat="48.912892" lon="20.056260">
<ele>1250.0</ele>
<desc>Speed 10.2 km/h Distance 15.51 km</desc>
<time>2013-07-23T16:19:23.68</time>
<name>6363</name>
<sym>Dot</sym>
</trkpt>
<trkpt lat="48.912902" lon="20.056300">
<ele>1249.5</ele>
<desc>Speed 10.2 km/h Distance 15.51 km</desc>
<time>2013-07-23T16:19:24.59</time>
<name>6364</name>
<sym>Dot</sym>
</trkpt>
<trkpt lat="48.912908" lon="20.056340">
<ele>1249.0</ele>
<desc>Speed 10.7 km/h Distance 15.52 km</desc>
<time>2013-07-23T16:19:25.58</time>
<name>6365</name>
<sym>Dot</sym>
</trkpt>
<trkpt lat="48.912923" lon="20.056382">
<ele>1248.0</ele>
<desc>Speed 10.5 km/h Distance 15.52 km</desc>
<time>2013-07-23T16:19:26.58</time>
<name>6366</name>
<sym>Dot</sym>
</trkpt>
<trkpt lat="48.912942" lon="20.056418">
<ele>1246.5</ele>
<desc>Speed 9.9 km/h Distance 15.52 km</desc>
<time>2013-07-23T16:19:27.57</time>
<name>6367</name>
<sym>Dot</sym>
</trkpt>
<trkpt lat="48.912953" lon="20.056453">
<ele>1246.5</ele>
<desc>Speed 10.4 km/h Distance 15.53 km</desc>
<time>2013-07-23T16:19:28.56</time>
<name>6368</name>
<sym>Dot</sym>
</trkpt>
<trkpt lat="48.912970" lon="20.056485">
<ele>1246.0</ele>
<desc>Speed 10.5 km/h Distance 15.53 km</desc>
<time>2013-07-23T16:19:29.57</time>
<name>6369</name>
<sym>Dot</sym>
</trkpt>
<trkpt lat="48.912983" lon="20.056522">
<ele>1245.5</ele>
<desc>Speed 11.2 km/h Distance 15.53 km</desc>
<time>2013-07-23T16:19:30.56</time>
<name>6370</name>
<sym>Dot</sym>
</trkpt>
<trkpt lat="48.912998" lon="20.056563">
<ele>1245.0</ele>
<desc>Speed 12.7 km/h Distance 15.54 km</desc>
<time>2013-07-23T16:19:31.55</time>
<name>6371</name>
<sym>Dot</sym>
</trkpt>
<trkpt lat="48.913015" lon="20.056605">
<ele>1245.0</ele>
<desc>Speed 13.7 km/h Distance 15.54 km</desc>
<time>2013-07-23T16:19:32.55</time>
<name>6372</name>
<sym>Dot</sym>
</trkpt>
<trkpt lat="48.913033" lon="20.056650">
<ele>1244.5</ele>
<desc>Speed 14.9 km/h Distance 15.54 km</desc>
<time>2013-07-23T16:19:33.55</time>
<name>6373</name>
<sym>Dot</sym>
</trkpt>
<trkpt lat="48.913052" lon="20.056695">
<ele>1244.0</ele>
<desc>Speed 15.2 km/h Distance 15.55 km</desc>
<time>2013-07-23T16:19:34.55</time>
<name>6374</name>
<sym>Dot</sym>
</trkpt>
<trkpt lat="48.913072" lon="20.056745">
<ele>1244.0</ele>
<desc>Speed 15.6 km/h Distance 15.55 km</desc>
<time>2013-07-23T16:19:35.55</time>
<name>6375</name>
<sym>Dot</sym>
</trkpt>
<trkpt lat="48.913093" lon="20.056798">
<ele>1243.5</ele>
<desc>Speed 17.1 km/h Distance 15.56 km</desc>
<time>2013-07-23T16:19:36.55</time>
<name>6376</name>
<sym>Dot</sym>
</trkpt>
<trkpt lat="48.913115" lon="20.056857">
<ele>1243.5</ele>
<desc>Speed 17.9 km/h Distance 15.56 km</desc>
<time>2013-07-23T16:19:37.54</time>
<name>6377</name>
<sym>Dot</sym>
</trkpt>
<trkpt lat="48.913142" lon="20.056912">
<ele>1243.5</ele>
<desc>Speed 18.8 km/h Distance 15.57 km</desc>
<time>2013-07-23T16:19:38.53</time>
<name>6378</name>
<sym>Dot</sym>
</trkpt>
<trkpt lat="48.913170" lon="20.056968">
<ele>1244.5</ele>
<desc>Speed 18.7 km/h Distance 15.57 km</desc>
<time>2013-07-23T16:19:39.53</time>
<name>6379</name>
<sym>Dot</sym>
</trkpt>
<trkpt lat="48.913202" lon="20.057023">
<ele>1245.5</ele>
<desc>Speed 18.9 km/h Distance 15.58 km</desc>
<time>2013-07-23T16:19:40.53</time>
<name>6380</name>
<sym>Dot</sym>
</trkpt>
<trkpt lat="48.913233" lon="20.057080">
<ele>1245.0</ele>
<desc>Speed 19.8 km/h Distance 15.58 km</desc>
<time>2013-07-23T16:19:41.52</time>
<name>6381</name>
<sym>Dot</sym>
</trkpt>
<trkpt lat="48.913262" lon="20.057143">
<ele>1244.5</ele>
<desc>Speed 20.6 km/h Distance 15.59 km</desc>
<time>2013-07-23T16:19:42.51</time>
<name>6382</name>
<sym>Dot</sym>
</trkpt>
<trkpt lat="48.913290" lon="20.057208">
<ele>1244.5</ele>
<desc>Speed 20.9 km/h Distance 15.59 km</desc>
<time>2013-07-23T16:19:43.52</time>
<name>6383</name>
<sym>Dot</sym>
</trkpt>
<trkpt lat="48.913322" lon="20.057282">
<ele>1244.5</ele>
<desc>Speed 23.2 km/h Distance 15.60 km</desc>
<time>2013-07-23T16:19:44.51</time>
<name>6384</name>
<sym>Dot</sym>
</trkpt>
<trkpt lat="48.913348" lon="20.057357">
<ele>1244.0</ele>
<desc>Speed 22.9 km/h Distance 15.61 km</desc>
<time>2013-07-23T16:19:45.51</time>
<name>6385</name>
<sym>Dot</sym>
</trkpt>
<trkpt lat="48.913375" lon="20.057430">
<ele>1244.0</ele>
<desc>Speed 22.1 km/h Distance 15.61 km</desc>
<time>2013-07-23T16:19:46.50</time>
<name>6386</name>
<sym>Dot</sym>
</trkpt>
<trkpt lat="48.913402" lon="20.057505">
<ele>1244.0</ele>
<desc>Speed 22.4 km/h Distance 15.62 km</desc>
<time>2013-07-23T16:19:47.49</time>
<name>6387</name>
<sym>Dot</sym>
</trkpt>
<trkpt lat="48.913420" lon="20.057580">
<ele>1244.0</ele>
<desc>Speed 21.5 km/h Distance 15.62 km</desc>
<time>2013-07-23T16:19:48.49</time>
<name>6388</name>
<sym>Dot</sym>
</trkpt>
<trkpt lat="48.913475" lon="20.057638">
<ele>1243.5</ele>
<desc>Speed 26.8 km/h Distance 15.63 km</desc>
<time>2013-07-23T16:19:49.48</time>
<name>6389</name>
<sym>Dot</sym>
</trkpt>
<trkpt lat="48.913525" lon="20.057722">
<ele>1240.0</ele>
<desc>Speed 24.5 km/h Distance 15.64 km</desc>
<time>2013-07-23T16:19:50.48</time>
<name>6390</name>
<sym>Dot</sym>
</trkpt>
<trkpt lat="48.913560" lon="20.057802">
<ele>1239.0</ele>
<desc>Speed 24.5 km/h Distance 15.65 km</desc>
<time>2013-07-23T16:19:51.48</time>
<name>6391</name>
<sym>Dot</sym>
</trkpt>
<trkpt lat="48.913610" lon="20.057882">
<ele>1235.5</ele>
<desc>Speed 23.8 km/h Distance 15.66 km</desc>
<time>2013-07-23T16:19:52.47</time>
<name>6392</name>
<sym>Dot</sym>
</trkpt>
<trkpt lat="48.913650" lon="20.057958">
<ele>1236.0</ele>
<desc>Speed 23.5 km/h Distance 15.66 km</desc>
<time>2013-07-23T16:19:53.47</time>
<name>6393</name>
<sym>Dot</sym>
</trkpt>
<trkpt lat="48.913685" lon="20.058035">
<ele>1236.0</ele>
<desc>Speed 24.8 km/h Distance 15.67 km</desc>
<time>2013-07-23T16:19:54.46</time>
<name>6394</name>
<sym>Dot</sym>
</trkpt>
<trkpt lat="48.913725" lon="20.058102">
<ele>1237.5</ele>
<desc>Speed 23.4 km/h Distance 15.68 km</desc>
<time>2013-07-23T16:19:55.46</time>
<name>6395</name>
<sym>Dot</sym>
</trkpt>
<trkpt lat="48.913768" lon="20.058172">
<ele>1236.5</ele>
<desc>Speed 24.7 km/h Distance 15.68 km</desc>
<time>2013-07-23T16:19:56.45</time>
<name>6396</name>
<sym>Dot</sym>
</trkpt>
<trkpt lat="48.913812" lon="20.058245">
<ele>1234.5</ele>
<desc>Speed 24.4 km/h Distance 15.69 km</desc>
<time>2013-07-23T16:19:57.45</time>
<name>6397</name>
<sym>Dot</sym>
</trkpt>
<trkpt lat="48.913858" lon="20.058318">
<ele>1232.5</ele>
<desc>Speed 24.9 km/h Distance 15.70 km</desc>
<time>2013-07-23T16:19:58.45</time>
<name>6398</name>
<sym>Dot</sym>
</trkpt>
<trkpt lat="48.913978" lon="20.058465">
<ele>1221.0</ele>
<desc>Speed 24.9 km/h Distance 15.72 km</desc>
<time>2013-07-23T16:20:00.45</time>
<name>6399</name>
<sym>Dot</sym>
</trkpt>
<trkpt lat="48.914105" lon="20.058618">
<ele>1213.0</ele>
<desc>Speed 25.7 km/h Distance 15.73 km</desc>
<time>2013-07-23T16:20:02.44</time>
<name>6400</name>
<sym>Dot</sym>
</trkpt>
<trkpt lat="48.914150" lon="20.058692">
<ele>1211.5</ele>
<desc>Speed 26.2 km/h Distance 15.74 km</desc>
<time>2013-07-23T16:20:03.43</time>
<name>6401</name>
<sym>Dot</sym>
</trkpt>
<trkpt lat="48.914197" lon="20.058772">
<ele>1209.5</ele>
<desc>Speed 26.9 km/h Distance 15.75 km</desc>
<time>2013-07-23T16:20:04.43</time>
<name>6402</name>
<sym>Dot</sym>
</trkpt>
<trkpt lat="48.914237" lon="20.058848">
<ele>1209.0</ele>
<desc>Speed 26.4 km/h Distance 15.76 km</desc>
<time>2013-07-23T16:20:05.43</time>
<name>6403</name>
<sym>Dot</sym>
</trkpt>
<trkpt lat="48.914278" lon="20.058920">
<ele>1207.5</ele>
<desc>Speed 24.9 km/h Distance 15.76 km</desc>
<time>2013-07-23T16:20:06.43</time>
<name>6404</name>
<sym>Dot</sym>
</trkpt>
<trkpt lat="48.914322" lon="20.058985">
<ele>1207.0</ele>
<desc>Speed 23.6 km/h Distance 15.77 km</desc>
<time>2013-07-23T16:20:07.42</time>
<name>6405</name>
<sym>Dot</sym>
</trkpt>
<trkpt lat="48.914365" lon="20.059052">
<ele>1205.5</ele>
<desc>Speed 22.9 km/h Distance 15.78 km</desc>
<time>2013-07-23T16:20:08.41</time>
<name>6406</name>
<sym>Dot</sym>
</trkpt>
<trkpt lat="48.914408" lon="20.059118">
<ele>1204.0</ele>
<desc>Speed 22.9 km/h Distance 15.78 km</desc>
<time>2013-07-23T16:20:09.40</time>
<name>6407</name>
<sym>Dot</sym>
</trkpt>
<trkpt lat="48.914453" lon="20.059182">
<ele>1203.0</ele>
<desc>Speed 23.9 km/h Distance 15.79 km</desc>
<time>2013-07-23T16:20:10.40</time>
<name>6408</name>
<sym>Dot</sym>
</trkpt>
<trkpt lat="48.914497" lon="20.059247">
<ele>1202.0</ele>
<desc>Speed 23.9 km/h Distance 15.80 km</desc>
<time>2013-07-23T16:20:11.40</time>
<name>6409</name>
<sym>Dot</sym>
</trkpt>
<trkpt lat="48.914543" lon="20.059310">
<ele>1201.5</ele>
<desc>Speed 24.3 km/h Distance 15.80 km</desc>
<time>2013-07-23T16:20:12.40</time>
<name>6410</name>
<sym>Dot</sym>
</trkpt>
<trkpt lat="48.914590" lon="20.059373">
<ele>1200.5</ele>
<desc>Speed 24.1 km/h Distance 15.81 km</desc>
<time>2013-07-23T16:20:13.40</time>
<name>6411</name>
<sym>Dot</sym>
</trkpt>
<trkpt lat="48.914640" lon="20.059437">
<ele>1199.0</ele>
<desc>Speed 24.7 km/h Distance 15.82 km</desc>
<time>2013-07-23T16:20:14.38</time>
<name>6412</name>
<sym>Dot</sym>
</trkpt>
<trkpt lat="48.914697" lon="20.059495">
<ele>1196.5</ele>
<desc>Speed 25.5 km/h Distance 15.83 km</desc>
<time>2013-07-23T16:20:15.38</time>
<name>6413</name>
<sym>Dot</sym>
</trkpt>
<trkpt lat="48.914757" lon="20.059560">
<ele>1194.5</ele>
<desc>Speed 26.2 km/h Distance 15.83 km</desc>
<time>2013-07-23T16:20:16.37</time>
<name>6414</name>
<sym>Dot</sym>
</trkpt>
<trkpt lat="48.914815" lon="20.059633">
<ele>1192.5</ele>
<desc>Speed 27.0 km/h Distance 15.84 km</desc>
<time>2013-07-23T16:20:17.37</time>
<name>6415</name>
<sym>Dot</sym>
</trkpt>
<trkpt lat="48.914873" lon="20.059708">
<ele>1189.5</ele>
<desc>Speed 27.4 km/h Distance 15.85 km</desc>
<time>2013-07-23T16:20:18.35</time>
<name>6416</name>
<sym>Dot</sym>
</trkpt>
<trkpt lat="48.914935" lon="20.059778">
<ele>1185.5</ele>
<desc>Speed 27.8 km/h Distance 15.86 km</desc>
<time>2013-07-23T16:20:19.35</time>
<name>6417</name>
<sym>Dot</sym>
</trkpt>
<trkpt lat="48.914995" lon="20.059843">
<ele>1183.5</ele>
<desc>Speed 28.6 km/h Distance 15.87 km</desc>
<time>2013-07-23T16:20:20.34</time>
<name>6418</name>
<sym>Dot</sym>
</trkpt>
<trkpt lat="48.915062" lon="20.059905">
<ele>1181.5</ele>
<desc>Speed 29.8 km/h Distance 15.88 km</desc>
<time>2013-07-23T16:20:21.34</time>
<name>6419</name>
<sym>Dot</sym>
</trkpt>
<trkpt lat="48.915133" lon="20.059975">
<ele>1180.5</ele>
<desc>Speed 31.3 km/h Distance 15.89 km</desc>
<time>2013-07-23T16:20:22.33</time>
<name>6420</name>
<sym>Dot</sym>
</trkpt>
<trkpt lat="48.915195" lon="20.060048">
<ele>1179.0</ele>
<desc>Speed 32.3 km/h Distance 15.89 km</desc>
<time>2013-07-23T16:20:23.33</time>
<name>6421</name>
<sym>Dot</sym>
</trkpt>
<trkpt lat="48.915263" lon="20.060130">
<ele>1178.0</ele>
<desc>Speed 33.7 km/h Distance 15.90 km</desc>
<time>2013-07-23T16:20:24.33</time>
<name>6422</name>
<sym>Dot</sym>
</trkpt>
<trkpt lat="48.915332" lon="20.060217">
<ele>1177.0</ele>
<desc>Speed 34.2 km/h Distance 15.91 km</desc>
<time>2013-07-23T16:20:25.32</time>
<name>6423</name>
<sym>Dot</sym>
</trkpt>
<trkpt lat="48.915398" lon="20.060302">
<ele>1175.5</ele>
<desc>Speed 34.8 km/h Distance 15.92 km</desc>
<time>2013-07-23T16:20:26.32</time>
<name>6424</name>
<sym>Dot</sym>
</trkpt>
<trkpt lat="48.915468" lon="20.060387">
<ele>1173.0</ele>
<desc>Speed 35.3 km/h Distance 15.93 km</desc>
<time>2013-07-23T16:20:27.32</time>
<name>6425</name>
<sym>Dot</sym>
</trkpt>
<trkpt lat="48.915540" lon="20.060475">
<ele>1171.0</ele>
<desc>Speed 35.8 km/h Distance 15.94 km</desc>
<time>2013-07-23T16:20:28.31</time>
<name>6426</name>
<sym>Dot</sym>
</trkpt>
<trkpt lat="48.915607" lon="20.060562">
<ele>1169.0</ele>
<desc>Speed 35.6 km/h Distance 15.95 km</desc>
<time>2013-07-23T16:20:29.31</time>
<name>6427</name>
<sym>Dot</sym>
</trkpt>
<trkpt lat="48.915668" lon="20.060650">
<ele>1168.0</ele>
<desc>Speed 33.5 km/h Distance 15.96 km</desc>
<time>2013-07-23T16:20:30.31</time>
<name>6428</name>
<sym>Dot</sym>
</trkpt>
<trkpt lat="48.915730" lon="20.060738">
<ele>1167.0</ele>
<desc>Speed 32.8 km/h Distance 15.97 km</desc>
<time>2013-07-23T16:20:31.31</time>
<name>6429</name>
<sym>Dot</sym>
</trkpt>
<trkpt lat="48.915790" lon="20.060825">
<ele>1166.0</ele>
<desc>Speed 32.7 km/h Distance 15.98 km</desc>
<time>2013-07-23T16:20:32.30</time>
<name>6430</name>
<sym>Dot</sym>
</trkpt>
<trkpt lat="48.915847" lon="20.060910">
<ele>1165.5</ele>
<desc>Speed 31.1 km/h Distance 15.99 km</desc>
<time>2013-07-23T16:20:33.30</time>
<name>6431</name>
<sym>Dot</sym>
</trkpt>
<trkpt lat="48.915905" lon="20.061005">
<ele>1165.0</ele>
<desc>Speed 34.7 km/h Distance 16.00 km</desc>
<time>2013-07-23T16:20:34.29</time>
<name>6432</name>
<sym>Dot</sym>
</trkpt>
<trkpt lat="48.915958" lon="20.061092">
<ele>1164.5</ele>
<desc>Speed 31.0 km/h Distance 16.01 km</desc>
<time>2013-07-23T16:20:35.39</time>
<name>6433</name>
<sym>Dot</sym>
</trkpt>
<trkpt lat="48.916012" lon="20.061177">
<ele>1164.5</ele>
<desc>Speed 31.0 km/h Distance 16.02 km</desc>
<time>2013-07-23T16:20:36.29</time>
<name>6434</name>
<sym>Dot</sym>
</trkpt>
<trkpt lat="48.916060" lon="20.061257">
<ele>1164.5</ele>
<desc>Speed 29.3 km/h Distance 16.02 km</desc>
<time>2013-07-23T16:20:37.29</time>
<name>6435</name>
<sym>Dot</sym>
</trkpt>
<trkpt lat="48.916113" lon="20.061343">
<ele>1163.0</ele>
<desc>Speed 30.6 km/h Distance 16.03 km</desc>
<time>2013-07-23T16:20:38.28</time>
<name>6436</name>
<sym>Dot</sym>
</trkpt>
<trkpt lat="48.916165" lon="20.061433">
<ele>1162.0</ele>
<desc>Speed 31.1 km/h Distance 16.04 km</desc>
<time>2013-07-23T16:20:39.28</time>
<name>6437</name>
<sym>Dot</sym>
</trkpt>
<trkpt lat="48.916220" lon="20.061517">
<ele>1161.0</ele>
<desc>Speed 30.2 km/h Distance 16.05 km</desc>
<time>2013-07-23T16:20:40.28</time>
<name>6438</name>
<sym>Dot</sym>
</trkpt>
<trkpt lat="48.916272" lon="20.061598">
<ele>1161.5</ele>
<desc>Speed 29.6 km/h Distance 16.06 km</desc>
<time>2013-07-23T16:20:41.27</time>
<name>6439</name>
<sym>Dot</sym>
</trkpt>
<trkpt lat="48.916323" lon="20.061672">
<ele>1161.0</ele>
<desc>Speed 28.0 km/h Distance 16.07 km</desc>
<time>2013-07-23T16:20:42.26</time>
<name>6440</name>
<sym>Dot</sym>
</trkpt>
<trkpt lat="48.916375" lon="20.061743">
<ele>1160.5</ele>
<desc>Speed 27.2 km/h Distance 16.08 km</desc>
<time>2013-07-23T16:20:43.42</time>
<name>6441</name>
<sym>Dot</sym>
</trkpt>
<trkpt lat="48.916427" lon="20.061810">
<ele>1159.5</ele>
<desc>Speed 26.6 km/h Distance 16.08 km</desc>
<time>2013-07-23T16:20:44.25</time>
<name>6442</name>
<sym>Dot</sym>
</trkpt>
<trkpt lat="48.916475" lon="20.061883">
<ele>1159.0</ele>
<desc>Speed 27.0 km/h Distance 16.09 km</desc>
<time>2013-07-23T16:20:45.24</time>
<name>6443</name>
<sym>Dot</sym>
</trkpt>
<trkpt lat="48.916523" lon="20.061958">
<ele>1158.5</ele>
<desc>Speed 27.5 km/h Distance 16.10 km</desc>
<time>2013-07-23T16:20:46.23</time>
<name>6444</name>
<sym>Dot</sym>
</trkpt>
<trkpt lat="48.916572" lon="20.062038">
<ele>1158.0</ele>
<desc>Speed 28.8 km/h Distance 16.11 km</desc>
<time>2013-07-23T16:20:47.23</time>
<name>6445</name>
<sym>Dot</sym>
</trkpt>
<trkpt lat="48.916620" lon="20.062117">
<ele>1158.0</ele>
<desc>Speed 28.3 km/h Distance 16.11 km</desc>
<time>2013-07-23T16:20:48.23</time>
<name>6446</name>
<sym>Dot</sym>
</trkpt>
<trkpt lat="48.916663" lon="20.062192">
<ele>1157.5</ele>
<desc>Speed 26.4 km/h Distance 16.12 km</desc>
<time>2013-07-23T16:20:49.22</time>
<name>6447</name>
<sym>Dot</sym>
</trkpt>
<trkpt lat="48.916703" lon="20.062263">
<ele>1156.5</ele>
<desc>Speed 24.6 km/h Distance 16.13 km</desc>
<time>2013-07-23T16:20:50.22</time>
<name>6448</name>
<sym>Dot</sym>
</trkpt>
<trkpt lat="48.916743" lon="20.062333">
<ele>1156.0</ele>
<desc>Speed 23.9 km/h Distance 16.13 km</desc>
<time>2013-07-23T16:20:51.22</time>
<name>6449</name>
<sym>Dot</sym>
</trkpt>
<trkpt lat="48.916785" lon="20.062407">
<ele>1155.5</ele>
<desc>Speed 25.1 km/h Distance 16.14 km</desc>
<time>2013-07-23T16:20:52.21</time>
<name>6450</name>
<sym>Dot</sym>
</trkpt>
<trkpt lat="48.916827" lon="20.062482">
<ele>1155.5</ele>
<desc>Speed 26.0 km/h Distance 16.15 km</desc>
<time>2013-07-23T16:20:53.21</time>
<name>6451</name>
<sym>Dot</sym>
</trkpt>
<trkpt lat="48.916872" lon="20.062558">
<ele>1155.0</ele>
<desc>Speed 27.3 km/h Distance 16.16 km</desc>
<time>2013-07-23T16:20:54.21</time>
<name>6452</name>
<sym>Dot</sym>
</trkpt>
<trkpt lat="48.916912" lon="20.062625">
<ele>1154.5</ele>
<desc>Speed 24.3 km/h Distance 16.16 km</desc>
<time>2013-07-23T16:20:55.21</time>
<name>6453</name>
<sym>Dot</sym>
</trkpt>
<trkpt lat="48.916945" lon="20.062695">
<ele>1154.0</ele>
<desc>Speed 10.6 km/h Distance 16.17 km</desc>
<time>2013-07-23T16:20:57.21</time>
<name>6454</name>
<sym>Dot</sym>
</trkpt>
<trkpt lat="48.916933" lon="20.062680">
<ele>1153.5</ele>
<desc>Speed 5.0 km/h Distance 16.17 km</desc>
<time>2013-07-23T16:20:58.21</time>
<name>6455</name>
<sym>Dot</sym>
</trkpt>
<trkpt lat="48.916933" lon="20.062670">
<ele>1153.5</ele>
<desc>Speed 2.2 km/h Distance 16.17 km</desc>
<time>2013-07-23T16:20:59.21</time>
<name>6456</name>
<sym>Dot</sym>
</trkpt>
<trkpt lat="48.916943" lon="20.062678">
<ele>1153.0</ele>
<desc>Speed 5.5 km/h Distance 16.17 km</desc>
<time>2013-07-23T16:21:07.21</time>
<name>6457</name>
<sym>Dot</sym>
</trkpt>
<trkpt lat="48.916957" lon="20.062697">
<ele>1153.0</ele>
<desc>Speed 7.7 km/h Distance 16.18 km</desc>
<time>2013-07-23T16:21:08.21</time>
<name>6458</name>
<sym>Dot</sym>
</trkpt>
<trkpt lat="48.916977" lon="20.062718">
<ele>1153.0</ele>
<desc>Speed 9.5 km/h Distance 16.18 km</desc>
<time>2013-07-23T16:21:09.21</time>
<name>6459</name>
<sym>Dot</sym>
</trkpt>
<trkpt lat="48.916998" lon="20.062743">
<ele>1153.0</ele>
<desc>Speed 10.8 km/h Distance 16.18 km</desc>
<time>2013-07-23T16:21:10.20</time>
<name>6460</name>
<sym>Dot</sym>
</trkpt>
<trkpt lat="48.917023" lon="20.062772">
<ele>1153.0</ele>
<desc>Speed 12.5 km/h Distance 16.18 km</desc>
<time>2013-07-23T16:21:11.20</time>
<name>6461</name>
<sym>Dot</sym>
</trkpt>
<trkpt lat="48.917055" lon="20.062802">
<ele>1153.0</ele>
<desc>Speed 14.2 km/h Distance 16.19 km</desc>
<time>2013-07-23T16:21:12.20</time>
<name>6462</name>
<sym>Dot</sym>
</trkpt>
<trkpt lat="48.917085" lon="20.062832">
<ele>1153.0</ele>
<desc>Speed 14.4 km/h Distance 16.19 km</desc>
<time>2013-07-23T16:21:13.20</time>
<name>6463</name>
<sym>Dot</sym>
</trkpt>
<trkpt lat="48.917107" lon="20.062852">
<ele>1153.0</ele>
<desc>Speed 10.0 km/h Distance 16.20 km</desc>
<time>2013-07-23T16:21:14.19</time>
<name>6464</name>
<sym>Dot</sym>
</trkpt>
<trkpt lat="48.917117" lon="20.062860">
<ele>1153.0</ele>
<desc>Speed 4.8 km/h Distance 16.20 km</desc>
<time>2013-07-23T16:21:15.19</time>
<name>6465</name>
<sym>Dot</sym>
</trkpt>
<trkpt lat="48.917120" lon="20.062850">
<ele>1153.0</ele>
<desc>Speed 2.2 km/h Distance 16.20 km</desc>
<time>2013-07-23T16:21:17.18</time>
<name>6466</name>
<sym>Dot</sym>
</trkpt>
<trkpt lat="48.917120" lon="20.062873">
<ele>1154.0</ele>
<desc>Speed 3.8 km/h Distance 16.20 km</desc>
<time>2013-07-23T16:21:40.17</time>
<name>6467</name>
<sym>Dot</sym>
</trkpt>
<trkpt lat="48.917132" lon="20.062882">
<ele>1154.0</ele>
<desc>Speed 5.9 km/h Distance 16.20 km</desc>
<time>2013-07-23T16:21:41.17</time>
<name>6468</name>
<sym>Dot</sym>
</trkpt>
<trkpt lat="48.917153" lon="20.062893">
<ele>1154.0</ele>
<desc>Speed 9.4 km/h Distance 16.20 km</desc>
<time>2013-07-23T16:21:42.16</time>
<name>6469</name>
<sym>Dot</sym>
</trkpt>
<trkpt lat="48.917178" lon="20.062903">
<ele>1154.0</ele>
<desc>Speed 11.2 km/h Distance 16.21 km</desc>
<time>2013-07-23T16:21:43.16</time>
<name>6470</name>
<sym>Dot</sym>
</trkpt>
<trkpt lat="48.917208" lon="20.062918">
<ele>1154.0</ele>
<desc>Speed 13.8 km/h Distance 16.21 km</desc>
<time>2013-07-23T16:21:44.15</time>
<name>6471</name>
<sym>Dot</sym>
</trkpt>
<trkpt lat="48.917243" lon="20.062935">
<ele>1154.0</ele>
<desc>Speed 14.7 km/h Distance 16.21 km</desc>
<time>2013-07-23T16:21:45.15</time>
<name>6472</name>
<sym>Dot</sym>
</trkpt>
<trkpt lat="48.917280" lon="20.062953">
<ele>1154.0</ele>
<desc>Speed 15.9 km/h Distance 16.22 km</desc>
<time>2013-07-23T16:21:46.14</time>
<name>6473</name>
<sym>Dot</sym>
</trkpt>
<trkpt lat="48.917320" lon="20.062972">
<ele>1154.0</ele>
<desc>Speed 16.8 km/h Distance 16.22 km</desc>
<time>2013-07-23T16:21:47.14</time>
<name>6474</name>
<sym>Dot</sym>
</trkpt>
<trkpt lat="48.917362" lon="20.062990">
<ele>1154.0</ele>
<desc>Speed 17.9 km/h Distance 16.23 km</desc>
<time>2013-07-23T16:21:48.14</time>
<name>6475</name>
<sym>Dot</sym>
</trkpt>
<trkpt lat="48.917408" lon="20.063002">
<ele>1154.0</ele>
<desc>Speed 18.7 km/h Distance 16.23 km</desc>
<time>2013-07-23T16:21:49.14</time>
<name>6476</name>
<sym>Dot</sym>
</trkpt>
<trkpt lat="48.917455" lon="20.063007">
<ele>1154.0</ele>
<desc>Speed 18.8 km/h Distance 16.24 km</desc>
<time>2013-07-23T16:21:50.14</time>
<name>6477</name>
<sym>Dot</sym>
</trkpt>
<trkpt lat="48.917505" lon="20.063012">
<ele>1154.0</ele>
<desc>Speed 19.9 km/h Distance 16.24 km</desc>
<time>2013-07-23T16:21:51.14</time>
<name>6478</name>
<sym>Dot</sym>
</trkpt>
<trkpt lat="48.917555" lon="20.063010">
<ele>1154.0</ele>
<desc>Speed 19.8 km/h Distance 16.25 km</desc>
<time>2013-07-23T16:21:52.13</time>
<name>6479</name>
<sym>Dot</sym>
</trkpt>
<trkpt lat="48.917608" lon="20.063010">
<ele>1154.0</ele>
<desc>Speed 20.6 km/h Distance 16.25 km</desc>
<time>2013-07-23T16:21:53.13</time>
<name>6480</name>
<sym>Dot</sym>
</trkpt>
<trkpt lat="48.917660" lon="20.063002">
<ele>1154.5</ele>
<desc>Speed 20.7 km/h Distance 16.26 km</desc>
<time>2013-07-23T16:21:54.12</time>
<name>6481</name>
<sym>Dot</sym>
</trkpt>
<trkpt lat="48.917718" lon="20.063012">
<ele>1154.5</ele>
<desc>Speed 21.7 km/h Distance 16.27 km</desc>
<time>2013-07-23T16:21:55.11</time>
<name>6482</name>
<sym>Dot</sym>
</trkpt>
<trkpt lat="48.917772" lon="20.063003">
<ele>1154.5</ele>
<desc>Speed 20.8 km/h Distance 16.27 km</desc>
<time>2013-07-23T16:21:56.10</time>
<name>6483</name>
<sym>Dot</sym>
</trkpt>
<trkpt lat="48.917825" lon="20.063008">
<ele>1154.5</ele>
<desc>Speed 20.7 km/h Distance 16.28 km</desc>
<time>2013-07-23T16:21:57.10</time>
<name>6484</name>
<sym>Dot</sym>
</trkpt>
<trkpt lat="48.917880" lon="20.063018">
<ele>1154.5</ele>
<desc>Speed 21.2 km/h Distance 16.29 km</desc>
<time>2013-07-23T16:21:58.09</time>
<name>6485</name>
<sym>Dot</sym>
</trkpt>
<trkpt lat="48.917933" lon="20.063037">
<ele>1154.5</ele>
<desc>Speed 20.4 km/h Distance 16.29 km</desc>
<time>2013-07-23T16:21:59.08</time>
<name>6486</name>
<sym>Dot</sym>
</trkpt>
<trkpt lat="48.917987" lon="20.063060">
<ele>1154.5</ele>
<desc>Speed 20.1 km/h Distance 16.30 km</desc>
<time>2013-07-23T16:22:00.08</time>
<name>6487</name>
<sym>Dot</sym>
</trkpt>
<trkpt lat="48.918042" lon="20.063090">
<ele>1154.5</ele>
<desc>Speed 20.8 km/h Distance 16.30 km</desc>
<time>2013-07-23T16:22:01.08</time>
<name>6488</name>
<sym>Dot</sym>
</trkpt>
<trkpt lat="48.918097" lon="20.063110">
<ele>1154.5</ele>
<desc>Speed 21.4 km/h Distance 16.31 km</desc>
<time>2013-07-23T16:22:02.08</time>
<name>6489</name>
<sym>Dot</sym>
</trkpt>
<trkpt lat="48.918158" lon="20.063140">
<ele>1154.0</ele>
<desc>Speed 23.0 km/h Distance 16.32 km</desc>
<time>2013-07-23T16:22:03.08</time>
<name>6490</name>
<sym>Dot</sym>
</trkpt>
<trkpt lat="48.918207" lon="20.063202">
<ele>1154.0</ele>
<desc>Speed 23.6 km/h Distance 16.32 km</desc>
<time>2013-07-23T16:22:04.07</time>
<name>6491</name>
<sym>Dot</sym>
</trkpt>
<trkpt lat="48.918258" lon="20.063252">
<ele>1154.5</ele>
<desc>Speed 23.7 km/h Distance 16.33 km</desc>
<time>2013-07-23T16:22:05.06</time>
<name>6492</name>
<sym>Dot</sym>
</trkpt>
<trkpt lat="48.918315" lon="20.063318">
<ele>1154.0</ele>
<desc>Speed 23.9 km/h Distance 16.34 km</desc>
<time>2013-07-23T16:22:06.05</time>
<name>6493</name>
<sym>Dot</sym>
</trkpt>
<trkpt lat="48.918367" lon="20.063375">
<ele>1154.0</ele>
<desc>Speed 25.2 km/h Distance 16.35 km</desc>
<time>2013-07-23T16:22:07.04</time>
<name>6494</name>
<sym>Dot</sym>
</trkpt>
<trkpt lat="48.918422" lon="20.063435">
<ele>1154.0</ele>
<desc>Speed 26.0 km/h Distance 16.35 km</desc>
<time>2013-07-23T16:22:08.04</time>
<name>6495</name>
<sym>Dot</sym>
</trkpt>
<trkpt lat="48.918478" lon="20.063495">
<ele>1154.0</ele>
<desc>Speed 26.6 km/h Distance 16.36 km</desc>
<time>2013-07-23T16:22:09.04</time>
<name>6496</name>
<sym>Dot</sym>
</trkpt>
<trkpt lat="48.918535" lon="20.063557">
<ele>1153.5</ele>
<desc>Speed 26.9 km/h Distance 16.37 km</desc>
<time>2013-07-23T16:22:10.16</time>
<name>6497</name>
<sym>Dot</sym>
</trkpt>
<trkpt lat="48.918593" lon="20.063618">
<ele>1152.5</ele>
<desc>Speed 27.8 km/h Distance 16.38 km</desc>
<time>2013-07-23T16:22:11.03</time>
<name>6498</name>
<sym>Dot</sym>
</trkpt>
<trkpt lat="48.918653" lon="20.063683">
<ele>1152.0</ele>
<desc>Speed 27.9 km/h Distance 16.39 km</desc>
<time>2013-07-23T16:22:12.03</time>
<name>6499</name>
<sym>Dot</sym>
</trkpt>
<trkpt lat="48.918712" lon="20.063742">
<ele>1151.5</ele>
<desc>Speed 27.3 km/h Distance 16.39 km</desc>
<time>2013-07-23T16:22:13.03</time>
<name>6500</name>
<sym>Dot</sym>
</trkpt>
<trkpt lat="48.918775" lon="20.063802">
<ele>1150.5</ele>
<desc>Speed 27.4 km/h Distance 16.40 km</desc>
<time>2013-07-23T16:22:14.03</time>
<name>6501</name>
<sym>Dot</sym>
</trkpt>
<trkpt lat="48.918835" lon="20.063865">
<ele>1150.0</ele>
<desc>Speed 28.4 km/h Distance 16.41 km</desc>
<time>2013-07-23T16:22:15.03</time>
<name>6502</name>
<sym>Dot</sym>
</trkpt>
<trkpt lat="48.918897" lon="20.063928">
<ele>1149.0</ele>
<desc>Speed 28.0 km/h Distance 16.42 km</desc>
<time>2013-07-23T16:22:16.02</time>
<name>6503</name>
<sym>Dot</sym>
</trkpt>
<trkpt lat="48.918962" lon="20.063988">
<ele>1147.5</ele>
<desc>Speed 27.3 km/h Distance 16.43 km</desc>
<time>2013-07-23T16:22:17.01</time>
<name>6504</name>
<sym>Dot</sym>
</trkpt>
<trkpt lat="48.919018" lon="20.064050">
<ele>1147.0</ele>
<desc>Speed 27.5 km/h Distance 16.43 km</desc>
<time>2013-07-23T16:22:18.01</time>
<name>6505</name>
<sym>Dot</sym>
</trkpt>
<trkpt lat="48.919078" lon="20.064102">
<ele>1146.5</ele>
<desc>Speed 27.0 km/h Distance 16.44 km</desc>
<time>2013-07-23T16:22:19.01</time>
<name>6506</name>
<sym>Dot</sym>
</trkpt>
<trkpt lat="48.919138" lon="20.064157">
<ele>1146.0</ele>
<desc>Speed 26.8 km/h Distance 16.45 km</desc>
<time>2013-07-23T16:22:20.01</time>
<name>6507</name>
<sym>Dot</sym>
</trkpt>
<trkpt lat="48.919193" lon="20.064208">
<ele>1145.5</ele>
<desc>Speed 25.1 km/h Distance 16.46 km</desc>
<time>2013-07-23T16:22:21.00</time>
<name>6508</name>
<sym>Dot</sym>
</trkpt>
<trkpt lat="48.919252" lon="20.064237">
<ele>1145.0</ele>
<desc>Speed 25.3 km/h Distance 16.46 km</desc>
<time>2013-07-23T16:22:21.99</time>
<name>6509</name>
<sym>Dot</sym>
</trkpt>
<trkpt lat="48.919305" lon="20.064288">
<ele>1144.5</ele>
<desc>Speed 24.6 km/h Distance 16.47 km</desc>
<time>2013-07-23T16:22:22.99</time>
<name>6510</name>
<sym>Dot</sym>
</trkpt>
<trkpt lat="48.919355" lon="20.064350">
<ele>1144.5</ele>
<desc>Speed 24.5 km/h Distance 16.48 km</desc>
<time>2013-07-23T16:22:24.01</time>
<name>6511</name>
<sym>Dot</sym>
</trkpt>
<trkpt lat="48.919398" lon="20.064410">
<ele>1143.5</ele>
<desc>Speed 22.8 km/h Distance 16.48 km</desc>
<time>2013-07-23T16:22:24.97</time>
<name>6512</name>
<sym>Dot</sym>
</trkpt>
<trkpt lat="48.919442" lon="20.064470">
<ele>1143.0</ele>
<desc>Speed 21.9 km/h Distance 16.49 km</desc>
<time>2013-07-23T16:22:25.96</time>
<name>6513</name>
<sym>Dot</sym>
</trkpt>
<trkpt lat="48.919480" lon="20.064532">
<ele>1142.0</ele>
<desc>Speed 21.4 km/h Distance 16.50 km</desc>
<time>2013-07-23T16:22:26.96</time>
<name>6514</name>
<sym>Dot</sym>
</trkpt>
<trkpt lat="48.919512" lon="20.064590">
<ele>1141.5</ele>
<desc>Speed 18.9 km/h Distance 16.50 km</desc>
<time>2013-07-23T16:22:27.95</time>
<name>6515</name>
<sym>Dot</sym>
</trkpt>
<trkpt lat="48.919543" lon="20.064648">
<ele>1140.5</ele>
<desc>Speed 18.3 km/h Distance 16.51 km</desc>
<time>2013-07-23T16:22:28.95</time>
<name>6516</name>
<sym>Dot</sym>
</trkpt>
<trkpt lat="48.919578" lon="20.064700">
<ele>1140.0</ele>
<desc>Speed 19.4 km/h Distance 16.51 km</desc>
<time>2013-07-23T16:22:29.95</time>
<name>6517</name>
<sym>Dot</sym>
</trkpt>
<trkpt lat="48.919620" lon="20.064747">
<ele>1139.5</ele>
<desc>Speed 20.3 km/h Distance 16.52 km</desc>
<time>2013-07-23T16:22:30.94</time>
<name>6518</name>
<sym>Dot</sym>
</trkpt>
<trkpt lat="48.919668" lon="20.064787">
<ele>1139.0</ele>
<desc>Speed 21.4 km/h Distance 16.53 km</desc>
<time>2013-07-23T16:22:31.94</time>
<name>6519</name>
<sym>Dot</sym>
</trkpt>
<trkpt lat="48.919712" lon="20.064842">
<ele>1139.0</ele>
<desc>Speed 22.5 km/h Distance 16.53 km</desc>
<time>2013-07-23T16:22:32.94</time>
<name>6520</name>
<sym>Dot</sym>
</trkpt>
<trkpt lat="48.919758" lon="20.064897">
<ele>1139.0</ele>
<desc>Speed 23.2 km/h Distance 16.54 km</desc>
<time>2013-07-23T16:22:33.93</time>
<name>6521</name>
<sym>Dot</sym>
</trkpt>
<trkpt lat="48.919802" lon="20.064958">
<ele>1138.5</ele>
<desc>Speed 23.9 km/h Distance 16.54 km</desc>
<time>2013-07-23T16:22:34.93</time>
<name>6522</name>
<sym>Dot</sym>
</trkpt>
<trkpt lat="48.919847" lon="20.065023">
<ele>1138.5</ele>
<desc>Speed 24.6 km/h Distance 16.55 km</desc>
<time>2013-07-23T16:22:35.93</time>
<name>6523</name>
<sym>Dot</sym>
</trkpt>
<trkpt lat="48.919890" lon="20.065095">
<ele>1138.5</ele>
<desc>Speed 25.1 km/h Distance 16.56 km</desc>
<time>2013-07-23T16:22:36.93</time>
<name>6524</name>
<sym>Dot</sym>
</trkpt>
<trkpt lat="48.919932" lon="20.065172">
<ele>1138.0</ele>
<desc>Speed 25.9 km/h Distance 16.57 km</desc>
<time>2013-07-23T16:22:37.92</time>
<name>6525</name>
<sym>Dot</sym>
</trkpt>
<trkpt lat="48.919970" lon="20.065258">
<ele>1138.0</ele>
<desc>Speed 26.7 km/h Distance 16.57 km</desc>
<time>2013-07-23T16:22:38.92</time>
<name>6526</name>
<sym>Dot</sym>
</trkpt>
<trkpt lat="48.920007" lon="20.065308">
<ele>1138.0</ele>
<desc>Speed 20.1 km/h Distance 16.58 km</desc>
<time>2013-07-23T16:22:39.92</time>
<name>6527</name>
<sym>Dot</sym>
</trkpt>
<trkpt lat="48.920040" lon="20.065393">
<ele>1138.0</ele>
<desc>Speed 26.1 km/h Distance 16.59 km</desc>
<time>2013-07-23T16:22:40.92</time>
<name>6528</name>
<sym>Dot</sym>
</trkpt>
<trkpt lat="48.920065" lon="20.065477">
<ele>1137.5</ele>
<desc>Speed 24.2 km/h Distance 16.59 km</desc>
<time>2013-07-23T16:22:41.91</time>
<name>6529</name>
<sym>Dot</sym>
</trkpt>
<trkpt lat="48.920075" lon="20.065582">
<ele>1137.5</ele>
<desc>Speed 28.4 km/h Distance 16.60 km</desc>
<time>2013-07-23T16:22:43.03</time>
<name>6530</name>
<sym>Dot</sym>
</trkpt>
<trkpt lat="48.920090" lon="20.065672">
<ele>1137.5</ele>
<desc>Speed 24.9 km/h Distance 16.61 km</desc>
<time>2013-07-23T16:22:43.90</time>
<name>6531</name>
<sym>Dot</sym>
</trkpt>
<trkpt lat="48.920102" lon="20.065758">
<ele>1137.5</ele>
<desc>Speed 24.9 km/h Distance 16.61 km</desc>
<time>2013-07-23T16:22:44.89</time>
<name>6532</name>
<sym>Dot</sym>
</trkpt>
<trkpt lat="48.920118" lon="20.065848">
<ele>1137.5</ele>
<desc>Speed 25.9 km/h Distance 16.62 km</desc>
<time>2013-07-23T16:22:45.88</time>
<name>6533</name>
<sym>Dot</sym>
</trkpt>
<trkpt lat="48.920127" lon="20.065945">
<ele>1137.0</ele>
<desc>Speed 26.6 km/h Distance 16.63 km</desc>
<time>2013-07-23T16:22:46.87</time>
<name>6534</name>
<sym>Dot</sym>
</trkpt>
<trkpt lat="48.920135" lon="20.066018">
<ele>1137.0</ele>
<desc>Speed 26.6 km/h Distance 16.63 km</desc>
<time>2013-07-23T16:22:47.94</time>
<name>6535</name>
<sym>Dot</sym>
</trkpt>
<trkpt lat="48.920147" lon="20.066117">
<ele>1137.0</ele>
<desc>Speed 28.1 km/h Distance 16.64 km</desc>
<time>2013-07-23T16:22:48.86</time>
<name>6536</name>
<sym>Dot</sym>
</trkpt>
<trkpt lat="48.920177" lon="20.066205">
<ele>1137.0</ele>
<desc>Speed 27.3 km/h Distance 16.65 km</desc>
<time>2013-07-23T16:22:49.86</time>
<name>6537</name>
<sym>Dot</sym>
</trkpt>
<trkpt lat="48.920225" lon="20.066278">
<ele>1136.5</ele>
<desc>Speed 27.8 km/h Distance 16.66 km</desc>
<time>2013-07-23T16:22:50.86</time>
<name>6538</name>
<sym>Dot</sym>
</trkpt>
<trkpt lat="48.920268" lon="20.066350">
<ele>1136.5</ele>
<desc>Speed 26.4 km/h Distance 16.66 km</desc>
<time>2013-07-23T16:22:51.85</time>
<name>6539</name>
<sym>Dot</sym>
</trkpt>
<trkpt lat="48.920327" lon="20.066387">
<ele>1136.5</ele>
<desc>Speed 25.7 km/h Distance 16.67 km</desc>
<time>2013-07-23T16:22:52.85</time>
<name>6540</name>
<sym>Dot</sym>
</trkpt>
<trkpt lat="48.920388" lon="20.066435">
<ele>1136.5</ele>
<desc>Speed 27.5 km/h Distance 16.68 km</desc>
<time>2013-07-23T16:22:53.85</time>
<name>6541</name>
<sym>Dot</sym>
</trkpt>
<trkpt lat="48.920455" lon="20.066472">
<ele>1136.5</ele>
<desc>Speed 29.2 km/h Distance 16.69 km</desc>
<time>2013-07-23T16:22:54.84</time>
<name>6542</name>
<sym>Dot</sym>
</trkpt>
<trkpt lat="48.920532" lon="20.066495">
<ele>1136.5</ele>
<desc>Speed 30.7 km/h Distance 16.69 km</desc>
<time>2013-07-23T16:22:55.83</time>
<name>6543</name>
<sym>Dot</sym>
</trkpt>
<trkpt lat="48.920605" lon="20.066530">
<ele>1136.5</ele>
<desc>Speed 30.1 km/h Distance 16.70 km</desc>
<time>2013-07-23T16:22:56.83</time>
<name>6544</name>
<sym>Dot</sym>
</trkpt>
<trkpt lat="48.920682" lon="20.066558">
<ele>1136.5</ele>
<desc>Speed 30.2 km/h Distance 16.71 km</desc>
<time>2013-07-23T16:22:57.83</time>
<name>6545</name>
<sym>Dot</sym>
</trkpt>
<trkpt lat="48.920753" lon="20.066593">
<ele>1136.5</ele>
<desc>Speed 29.8 km/h Distance 16.72 km</desc>
<time>2013-07-23T16:22:58.83</time>
<name>6546</name>
<sym>Dot</sym>
</trkpt>
<trkpt lat="48.920825" lon="20.066615">
<ele>1136.5</ele>
<desc>Speed 29.6 km/h Distance 16.73 km</desc>
<time>2013-07-23T16:22:59.82</time>
<name>6547</name>
<sym>Dot</sym>
</trkpt>
<trkpt lat="48.920900" lon="20.066630">
<ele>1136.5</ele>
<desc>Speed 29.9 km/h Distance 16.74 km</desc>
<time>2013-07-23T16:23:00.87</time>
<name>6548</name>
<sym>Dot</sym>
</trkpt>
<trkpt lat="48.920973" lon="20.066645">
<ele>1136.5</ele>
<desc>Speed 28.7 km/h Distance 16.74 km</desc>
<time>2013-07-23T16:23:01.81</time>
<name>6549</name>
<sym>Dot</sym>
</trkpt>
<trkpt lat="48.921023" lon="20.066713">
<ele>1136.0</ele>
<desc>Speed 26.3 km/h Distance 16.75 km</desc>
<time>2013-07-23T16:23:02.81</time>
<name>6550</name>
<sym>Dot</sym>
</trkpt>
<trkpt lat="48.921082" lon="20.066740">
<ele>1136.0</ele>
<desc>Speed 22.6 km/h Distance 16.76 km</desc>
<time>2013-07-23T16:23:03.80</time>
<name>6551</name>
<sym>Dot</sym>
</trkpt>
<trkpt lat="48.921137" lon="20.066762">
<ele>1136.0</ele>
<desc>Speed 20.4 km/h Distance 16.77 km</desc>
<time>2013-07-23T16:23:04.79</time>
<name>6552</name>
<sym>Dot</sym>
</trkpt>
<trkpt lat="48.921188" lon="20.066782">
<ele>1135.5</ele>
<desc>Speed 19.9 km/h Distance 16.77 km</desc>
<time>2013-07-23T16:23:05.79</time>
<name>6553</name>
<sym>Dot</sym>
</trkpt>
<trkpt lat="48.921237" lon="20.066808">
<ele>1135.5</ele>
<desc>Speed 19.1 km/h Distance 16.78 km</desc>
<time>2013-07-23T16:23:06.78</time>
<name>6554</name>
<sym>Dot</sym>
</trkpt>
<trkpt lat="48.921285" lon="20.066838">
<ele>1135.5</ele>
<desc>Speed 18.3 km/h Distance 16.78 km</desc>
<time>2013-07-23T16:23:07.78</time>
<name>6555</name>
<sym>Dot</sym>
</trkpt>
<trkpt lat="48.921330" lon="20.066870">
<ele>1135.0</ele>
<desc>Speed 17.4 km/h Distance 16.79 km</desc>
<time>2013-07-23T16:23:08.77</time>
<name>6556</name>
<sym>Dot</sym>
</trkpt>
<trkpt lat="48.921378" lon="20.066903">
<ele>1134.5</ele>
<desc>Speed 17.4 km/h Distance 16.79 km</desc>
<time>2013-07-23T16:23:09.76</time>
<name>6557</name>
<sym>Dot</sym>
</trkpt>
<trkpt lat="48.921423" lon="20.066940">
<ele>1134.0</ele>
<desc>Speed 18.3 km/h Distance 16.80 km</desc>
<time>2013-07-23T16:23:10.75</time>
<name>6558</name>
<sym>Dot</sym>
</trkpt>
<trkpt lat="48.921465" lon="20.066980">
<ele>1134.0</ele>
<desc>Speed 19.7 km/h Distance 16.81 km</desc>
<time>2013-07-23T16:23:11.75</time>
<name>6559</name>
<sym>Dot</sym>
</trkpt>
<trkpt lat="48.921508" lon="20.067025">
<ele>1134.0</ele>
<desc>Speed 20.7 km/h Distance 16.81 km</desc>
<time>2013-07-23T16:23:12.74</time>
<name>6560</name>
<sym>Dot</sym>
</trkpt>
<trkpt lat="48.921555" lon="20.067077">
<ele>1134.0</ele>
<desc>Speed 22.1 km/h Distance 16.82 km</desc>
<time>2013-07-23T16:23:13.74</time>
<name>6561</name>
<sym>Dot</sym>
</trkpt>
<trkpt lat="48.921603" lon="20.067122">
<ele>1134.0</ele>
<desc>Speed 22.4 km/h Distance 16.82 km</desc>
<time>2013-07-23T16:23:14.74</time>
<name>6562</name>
<sym>Dot</sym>
</trkpt>
<trkpt lat="48.921653" lon="20.067167">
<ele>1133.5</ele>
<desc>Speed 23.6 km/h Distance 16.83 km</desc>
<time>2013-07-23T16:23:15.73</time>
<name>6563</name>
<sym>Dot</sym>
</trkpt>
<trkpt lat="48.921705" lon="20.067205">
<ele>1133.5</ele>
<desc>Speed 22.8 km/h Distance 16.84 km</desc>
<time>2013-07-23T16:23:16.73</time>
<name>6564</name>
<sym>Dot</sym>
</trkpt>
<trkpt lat="48.921760" lon="20.067243">
<ele>1133.5</ele>
<desc>Speed 24.1 km/h Distance 16.84 km</desc>
<time>2013-07-23T16:23:17.72</time>
<name>6565</name>
<sym>Dot</sym>
</trkpt>
<trkpt lat="48.921813" lon="20.067285">
<ele>1133.5</ele>
<desc>Speed 24.1 km/h Distance 16.85 km</desc>
<time>2013-07-23T16:23:18.72</time>
<name>6566</name>
<sym>Dot</sym>
</trkpt>
<trkpt lat="48.921867" lon="20.067325">
<ele>1133.5</ele>
<desc>Speed 23.1 km/h Distance 16.86 km</desc>
<time>2013-07-23T16:23:19.72</time>
<name>6567</name>
<sym>Dot</sym>
</trkpt>
<trkpt lat="48.921920" lon="20.067370">
<ele>1133.0</ele>
<desc>Speed 24.3 km/h Distance 16.86 km</desc>
<time>2013-07-23T16:23:20.72</time>
<name>6568</name>
<sym>Dot</sym>
</trkpt>
<trkpt lat="48.921972" lon="20.067418">
<ele>1133.0</ele>
<desc>Speed 24.0 km/h Distance 16.87 km</desc>
<time>2013-07-23T16:23:21.71</time>
<name>6569</name>
<sym>Dot</sym>
</trkpt>
<trkpt lat="48.922022" lon="20.067502">
<ele>1133.0</ele>
<desc>Speed 17.4 km/h Distance 16.88 km</desc>
<time>2013-07-23T16:23:23.70</time>
<name>6570</name>
<sym>Dot</sym>
</trkpt>
<trkpt lat="48.922060" lon="20.067542">
<ele>1133.0</ele>
<desc>Speed 19.1 km/h Distance 16.88 km</desc>
<time>2013-07-23T16:23:24.70</time>
<name>6571</name>
<sym>Dot</sym>
</trkpt>
<trkpt lat="48.922107" lon="20.067585">
<ele>1133.0</ele>
<desc>Speed 21.5 km/h Distance 16.89 km</desc>
<time>2013-07-23T16:23:25.70</time>
<name>6572</name>
<sym>Dot</sym>
</trkpt>
<trkpt lat="48.922150" lon="20.067630">
<ele>1133.0</ele>
<desc>Speed 21.0 km/h Distance 16.90 km</desc>
<time>2013-07-23T16:23:26.70</time>
<name>6573</name>
<sym>Dot</sym>
</trkpt>
<trkpt lat="48.922190" lon="20.067677">
<ele>1132.5</ele>
<desc>Speed 19.9 km/h Distance 16.90 km</desc>
<time>2013-07-23T16:23:27.69</time>
<name>6574</name>
<sym>Dot</sym>
</trkpt>
<trkpt lat="48.922232" lon="20.067725">
<ele>1132.5</ele>
<desc>Speed 20.5 km/h Distance 16.91 km</desc>
<time>2013-07-23T16:23:28.69</time>
<name>6575</name>
<sym>Dot</sym>
</trkpt>
<trkpt lat="48.922280" lon="20.067773">
<ele>1132.5</ele>
<desc>Speed 22.8 km/h Distance 16.91 km</desc>
<time>2013-07-23T16:23:29.68</time>
<name>6576</name>
<sym>Dot</sym>
</trkpt>
<trkpt lat="48.922318" lon="20.067803">
<ele>1132.5</ele>
<desc>Speed 16.5 km/h Distance 16.92 km</desc>
<time>2013-07-23T16:23:30.67</time>
<name>6577</name>
<sym>Dot</sym>
</trkpt>
<trkpt lat="48.922363" lon="20.067860">
<ele>1132.5</ele>
<desc>Speed 22.2 km/h Distance 16.93 km</desc>
<time>2013-07-23T16:23:31.67</time>
<name>6578</name>
<sym>Dot</sym>
</trkpt>
<trkpt lat="48.922408" lon="20.067913">
<ele>1132.5</ele>
<desc>Speed 21.6 km/h Distance 16.93 km</desc>
<time>2013-07-23T16:23:32.66</time>
<name>6579</name>
<sym>Dot</sym>
</trkpt>
<trkpt lat="48.922460" lon="20.067955">
<ele>1132.5</ele>
<desc>Speed 21.9 km/h Distance 16.94 km</desc>
<time>2013-07-23T16:23:33.66</time>
<name>6580</name>
<sym>Dot</sym>
</trkpt>
<trkpt lat="48.922503" lon="20.068022">
<ele>1132.5</ele>
<desc>Speed 23.6 km/h Distance 16.94 km</desc>
<time>2013-07-23T16:23:34.65</time>
<name>6581</name>
<sym>Dot</sym>
</trkpt>
<trkpt lat="48.922547" lon="20.068085">
<ele>1132.5</ele>
<desc>Speed 23.3 km/h Distance 16.95 km</desc>
<time>2013-07-23T16:23:35.65</time>
<name>6582</name>
<sym>Dot</sym>
</trkpt>
<trkpt lat="48.922582" lon="20.068160">
<ele>1132.0</ele>
<desc>Speed 23.3 km/h Distance 16.96 km</desc>
<time>2013-07-23T16:23:36.64</time>
<name>6583</name>
<sym>Dot</sym>
</trkpt>
<trkpt lat="48.922613" lon="20.068235">
<ele>1132.0</ele>
<desc>Speed 22.4 km/h Distance 16.96 km</desc>
<time>2013-07-23T16:23:37.64</time>
<name>6584</name>
<sym>Dot</sym>
</trkpt>
<trkpt lat="48.922642" lon="20.068315">
<ele>1132.0</ele>
<desc>Speed 23.3 km/h Distance 16.97 km</desc>
<time>2013-07-23T16:23:38.64</time>
<name>6585</name>
<sym>Dot</sym>
</trkpt>
<trkpt lat="48.922675" lon="20.068400">
<ele>1131.5</ele>
<desc>Speed 24.0 km/h Distance 16.98 km</desc>
<time>2013-07-23T16:23:39.63</time>
<name>6586</name>
<sym>Dot</sym>
</trkpt>
<trkpt lat="48.922712" lon="20.068488">
<ele>1131.0</ele>
<desc>Speed 24.2 km/h Distance 16.99 km</desc>
<time>2013-07-23T16:23:40.63</time>
<name>6587</name>
<sym>Dot</sym>
</trkpt>
<trkpt lat="48.922745" lon="20.068577">
<ele>1130.5</ele>
<desc>Speed 24.2 km/h Distance 16.99 km</desc>
<time>2013-07-23T16:23:41.62</time>
<name>6588</name>
<sym>Dot</sym>
</trkpt>
<trkpt lat="48.922783" lon="20.068663">
<ele>1129.5</ele>
<desc>Speed 23.5 km/h Distance 17.00 km</desc>
<time>2013-07-23T16:23:42.69</time>
<name>6589</name>
<sym>Dot</sym>
</trkpt>
<trkpt lat="48.922817" lon="20.068742">
<ele>1129.5</ele>
<desc>Speed 23.4 km/h Distance 17.01 km</desc>
<time>2013-07-23T16:23:43.61</time>
<name>6590</name>
<sym>Dot</sym>
</trkpt>
<trkpt lat="48.922852" lon="20.068815">
<ele>1129.0</ele>
<desc>Speed 22.5 km/h Distance 17.01 km</desc>
<time>2013-07-23T16:23:44.61</time>
<name>6591</name>
<sym>Dot</sym>
</trkpt>
<trkpt lat="48.922887" lon="20.068875">
<ele>1128.5</ele>
<desc>Speed 19.0 km/h Distance 17.02 km</desc>
<time>2013-07-23T16:23:45.60</time>
<name>6592</name>
<sym>Dot</sym>
</trkpt>
<trkpt lat="48.922917" lon="20.068933">
<ele>1128.0</ele>
<desc>Speed 17.3 km/h Distance 17.03 km</desc>
<time>2013-07-23T16:23:46.60</time>
<name>6593</name>
<sym>Dot</sym>
</trkpt>
<trkpt lat="48.922940" lon="20.068993">
<ele>1127.5</ele>
<desc>Speed 18.4 km/h Distance 17.03 km</desc>
<time>2013-07-23T16:23:47.60</time>
<name>6594</name>
<sym>Dot</sym>
</trkpt>
<trkpt lat="48.922968" lon="20.069053">
<ele>1127.5</ele>
<desc>Speed 19.4 km/h Distance 17.04 km</desc>
<time>2013-07-23T16:23:48.59</time>
<name>6595</name>
<sym>Dot</sym>
</trkpt>
<trkpt lat="48.923000" lon="20.069120">
<ele>1127.5</ele>
<desc>Speed 20.6 km/h Distance 17.04 km</desc>
<time>2013-07-23T16:23:49.59</time>
<name>6596</name>
<sym>Dot</sym>
</trkpt>
<trkpt lat="48.923032" lon="20.069187">
<ele>1127.0</ele>
<desc>Speed 21.9 km/h Distance 17.05 km</desc>
<time>2013-07-23T16:23:50.58</time>
<name>6597</name>
<sym>Dot</sym>
</trkpt>
<trkpt lat="48.923067" lon="20.069258">
<ele>1127.0</ele>
<desc>Speed 22.7 km/h Distance 17.06 km</desc>
<time>2013-07-23T16:23:51.58</time>
<name>6598</name>
<sym>Dot</sym>
</trkpt>
<trkpt lat="48.923103" lon="20.069337">
<ele>1126.5</ele>
<desc>Speed 23.4 km/h Distance 17.06 km</desc>
<time>2013-07-23T16:23:52.57</time>
<name>6599</name>
<sym>Dot</sym>
</trkpt>
<trkpt lat="48.923140" lon="20.069410">
<ele>1126.0</ele>
<desc>Speed 23.7 km/h Distance 17.07 km</desc>
<time>2013-07-23T16:23:53.57</time>
<name>6600</name>
<sym>Dot</sym>
</trkpt>
<trkpt lat="48.923177" lon="20.069483">
<ele>1126.0</ele>
<desc>Speed 24.2 km/h Distance 17.08 km</desc>
<time>2013-07-23T16:23:54.57</time>
<name>6601</name>
<sym>Dot</sym>
</trkpt>
<trkpt lat="48.923217" lon="20.069560">
<ele>1126.0</ele>
<desc>Speed 25.5 km/h Distance 17.08 km</desc>
<time>2013-07-23T16:23:55.57</time>
<name>6602</name>
<sym>Dot</sym>
</trkpt>
<trkpt lat="48.923277" lon="20.069635">
<ele>1126.0</ele>
<desc>Speed 30.0 km/h Distance 17.09 km</desc>
<time>2013-07-23T16:23:56.57</time>
<name>6603</name>
<sym>Dot</sym>
</trkpt>
<trkpt lat="48.923328" lon="20.069712">
<ele>1125.5</ele>
<desc>Speed 27.9 km/h Distance 17.10 km</desc>
<time>2013-07-23T16:23:57.59</time>
<name>6604</name>
<sym>Dot</sym>
</trkpt>
<trkpt lat="48.923382" lon="20.069792">
<ele>1125.5</ele>
<desc>Speed 28.0 km/h Distance 17.11 km</desc>
<time>2013-07-23T16:23:58.55</time>
<name>6605</name>
<sym>Dot</sym>
</trkpt>
<trkpt lat="48.923435" lon="20.069872">
<ele>1125.0</ele>
<desc>Speed 27.5 km/h Distance 17.12 km</desc>
<time>2013-07-23T16:23:59.55</time>
<name>6606</name>
<sym>Dot</sym>
</trkpt>
<trkpt lat="48.923487" lon="20.069940">
<ele>1124.5</ele>
<desc>Speed 26.9 km/h Distance 17.12 km</desc>
<time>2013-07-23T16:24:00.54</time>
<name>6607</name>
<sym>Dot</sym>
</trkpt>
<trkpt lat="48.923533" lon="20.070012">
<ele>1124.5</ele>
<desc>Speed 27.0 km/h Distance 17.13 km</desc>
<time>2013-07-23T16:24:01.54</time>
<name>6608</name>
<sym>Dot</sym>
</trkpt>
<trkpt lat="48.923570" lon="20.070088">
<ele>1124.5</ele>
<desc>Speed 25.2 km/h Distance 17.14 km</desc>
<time>2013-07-23T16:24:02.53</time>
<name>6609</name>
<sym>Dot</sym>
</trkpt>
<trkpt lat="48.923612" lon="20.070167">
<ele>1124.5</ele>
<desc>Speed 27.3 km/h Distance 17.15 km</desc>
<time>2013-07-23T16:24:03.52</time>
<name>6610</name>
<sym>Dot</sym>
</trkpt>
<trkpt lat="48.923647" lon="20.070245">
<ele>1124.5</ele>
<desc>Speed 25.6 km/h Distance 17.15 km</desc>
<time>2013-07-23T16:24:04.52</time>
<name>6611</name>
<sym>Dot</sym>
</trkpt>
<trkpt lat="48.923680" lon="20.070307">
<ele>1124.5</ele>
<desc>Speed 21.2 km/h Distance 17.16 km</desc>
<time>2013-07-23T16:24:05.51</time>
<name>6612</name>
<sym>Dot</sym>
</trkpt>
<trkpt lat="48.923708" lon="20.070357">
<ele>1124.5</ele>
<desc>Speed 18.0 km/h Distance 17.16 km</desc>
<time>2013-07-23T16:24:06.51</time>
<name>6613</name>
<sym>Dot</sym>
</trkpt>
<trkpt lat="48.923728" lon="20.070398">
<ele>1124.5</ele>
<desc>Speed 13.5 km/h Distance 17.17 km</desc>
<time>2013-07-23T16:24:07.50</time>
<name>6614</name>
<sym>Dot</sym>
</trkpt>
<trkpt lat="48.923750" lon="20.070433">
<ele>1124.5</ele>
<desc>Speed 13.6 km/h Distance 17.17 km</desc>
<time>2013-07-23T16:24:08.50</time>
<name>6615</name>
<sym>Dot</sym>
</trkpt>
<trkpt lat="48.923763" lon="20.070468">
<ele>1124.5</ele>
<desc>Speed 10.5 km/h Distance 17.17 km</desc>
<time>2013-07-23T16:24:09.49</time>
<name>6616</name>
<sym>Dot</sym>
</trkpt>
<trkpt lat="48.923788" lon="20.070468">
<ele>1124.0</ele>
<desc>Speed 10.0 km/h Distance 17.18 km</desc>
<time>2013-07-23T16:24:10.49</time>
<name>6617</name>
<sym>Dot</sym>
</trkpt>
<trkpt lat="48.923800" lon="20.070480">
<ele>1124.0</ele>
<desc>Speed 5.1 km/h Distance 17.18 km</desc>
<time>2013-07-23T16:24:11.49</time>
<name>6618</name>
<sym>Dot</sym>
</trkpt>
<trkpt lat="48.923805" lon="20.070487">
<ele>1124.0</ele>
<desc>Speed 2.2 km/h Distance 17.18 km</desc>
<time>2013-07-23T16:24:12.48</time>
<name>6619</name>
<sym>Dot</sym>
</trkpt>
<trkpt lat="48.923847" lon="20.070512">
<ele>1122.0</ele>
<desc>Speed 2.7 km/h Distance 17.18 km</desc>
<time>2013-07-23T16:24:25.47</time>
<name>6620</name>
<sym>Dot</sym>
</trkpt>
<trkpt lat="48.923902" lon="20.070568">
<ele>1118.0</ele>
<desc>Speed 3.2 km/h Distance 17.19 km</desc>
<time>2013-07-23T16:25:10.47</time>
<name>6621</name>
<sym>Dot</sym>
</trkpt>
<trkpt lat="48.923900" lon="20.070580">
<ele>1118.0</ele>
<desc>Speed 3.0 km/h Distance 17.19 km</desc>
<time>2013-07-23T16:25:11.46</time>
<name>6622</name>
<sym>Dot</sym>
</trkpt>
<trkpt lat="48.923907" lon="20.070588">
<ele>1118.0</ele>
<desc>Speed 3.6 km/h Distance 17.19 km</desc>
<time>2013-07-23T16:25:12.46</time>
<name>6623</name>
<sym>Dot</sym>
</trkpt>
<trkpt lat="48.923915" lon="20.070603">
<ele>1118.0</ele>
<desc>Speed 4.8 km/h Distance 17.19 km</desc>
<time>2013-07-23T16:25:13.45</time>
<name>6624</name>
<sym>Dot</sym>
</trkpt>
<trkpt lat="48.923925" lon="20.070618">
<ele>1118.0</ele>
<desc>Speed 5.4 km/h Distance 17.20 km</desc>
<time>2013-07-23T16:25:14.47</time>
<name>6625</name>
<sym>Dot</sym>
</trkpt>
<trkpt lat="48.923932" lon="20.070633">
<ele>1118.0</ele>
<desc>Speed 6.0 km/h Distance 17.20 km</desc>
<time>2013-07-23T16:25:15.44</time>
<name>6626</name>
<sym>Dot</sym>
</trkpt>
<trkpt lat="48.923930" lon="20.070635">
<ele>1118.0</ele>
<desc>Speed 6.0 km/h Distance 17.20 km</desc>
<time>2013-07-23T16:25:16.44</time>
<name>6627</name>
<sym>Dot</sym>
</trkpt>
<trkpt lat="48.923915" lon="20.070643">
<ele>1118.0</ele>
<desc>Speed 8.9 km/h Distance 17.20 km</desc>
<time>2013-07-23T16:25:17.44</time>
<name>6628</name>
<sym>Dot</sym>
</trkpt>
<trkpt lat="48.923965" lon="20.070668">
<ele>1117.5</ele>
<desc>Speed 6.6 km/h Distance 17.20 km</desc>
<time>2013-07-23T16:25:19.44</time>
<name>6629</name>
<sym>Dot</sym>
</trkpt>
<trkpt lat="48.923977" lon="20.070680">
<ele>1117.5</ele>
<desc>Speed 10.1 km/h Distance 17.21 km</desc>
<time>2013-07-23T16:25:20.44</time>
<name>6630</name>
<sym>Dot</sym>
</trkpt>
<trkpt lat="48.923985" lon="20.070693">
<ele>1117.5</ele>
<desc>Speed 9.0 km/h Distance 17.21 km</desc>
<time>2013-07-23T16:25:21.42</time>
<name>6631</name>
<sym>Dot</sym>
</trkpt>
<trkpt lat="48.924000" lon="20.070728">
<ele>1117.5</ele>
<desc>Speed 10.6 km/h Distance 17.21 km</desc>
<time>2013-07-23T16:25:22.47</time>
<name>6632</name>
<sym>Dot</sym>
</trkpt>
<trkpt lat="48.924072" lon="20.070833">
<ele>1117.5</ele>
<desc>Speed 14.1 km/h Distance 17.22 km</desc>
<time>2013-07-23T16:25:24.41</time>
<name>6633</name>
<sym>Dot</sym>
</trkpt>
<trkpt lat="48.924085" lon="20.070867">
<ele>1117.5</ele>
<desc>Speed 12.3 km/h Distance 17.22 km</desc>
<time>2013-07-23T16:25:25.41</time>
<name>6634</name>
<sym>Dot</sym>
</trkpt>
<trkpt lat="48.924100" lon="20.070908">
<ele>1117.5</ele>
<desc>Speed 10.8 km/h Distance 17.23 km</desc>
<time>2013-07-23T16:25:26.50</time>
<name>6635</name>
<sym>Dot</sym>
</trkpt>
<trkpt lat="48.924145" lon="20.071037">
<ele>1117.0</ele>
<desc>Speed 13.5 km/h Distance 17.24 km</desc>
<time>2013-07-23T16:25:28.39</time>
<name>6636</name>
<sym>Dot</sym>
</trkpt>
<trkpt lat="48.924163" lon="20.071107">
<ele>1117.0</ele>
<desc>Speed 20.0 km/h Distance 17.24 km</desc>
<time>2013-07-23T16:25:29.39</time>
<name>6637</name>
<sym>Dot</sym>
</trkpt>
<trkpt lat="48.924185" lon="20.071182">
<ele>1117.0</ele>
<desc>Speed 22.2 km/h Distance 17.25 km</desc>
<time>2013-07-23T16:25:30.39</time>
<name>6638</name>
<sym>Dot</sym>
</trkpt>
<trkpt lat="48.924202" lon="20.071260">
<ele>1117.0</ele>
<desc>Speed 24.2 km/h Distance 17.26 km</desc>
<time>2013-07-23T16:25:31.39</time>
<name>6639</name>
<sym>Dot</sym>
</trkpt>
<trkpt lat="48.924213" lon="20.071335">
<ele>1117.0</ele>
<desc>Speed 23.7 km/h Distance 17.26 km</desc>
<time>2013-07-23T16:25:32.39</time>
<name>6640</name>
<sym>Dot</sym>
</trkpt>
<trkpt lat="48.924222" lon="20.071405">
<ele>1117.0</ele>
<desc>Speed 21.5 km/h Distance 17.27 km</desc>
<time>2013-07-23T16:25:33.38</time>
<name>6641</name>
<sym>Dot</sym>
</trkpt>
<trkpt lat="48.924240" lon="20.071487">
<ele>1117.0</ele>
<desc>Speed 23.5 km/h Distance 17.27 km</desc>
<time>2013-07-23T16:25:34.38</time>
<name>6642</name>
<sym>Dot</sym>
</trkpt>
<trkpt lat="48.924258" lon="20.071570">
<ele>1117.0</ele>
<desc>Speed 23.4 km/h Distance 17.28 km</desc>
<time>2013-07-23T16:25:35.37</time>
<name>6643</name>
<sym>Dot</sym>
</trkpt>
<trkpt lat="48.924272" lon="20.071653">
<ele>1117.0</ele>
<desc>Speed 23.3 km/h Distance 17.29 km</desc>
<time>2013-07-23T16:25:36.37</time>
<name>6644</name>
<sym>Dot</sym>
</trkpt>
<trkpt lat="48.924270" lon="20.071732">
<ele>1116.5</ele>
<desc>Speed 21.4 km/h Distance 17.29 km</desc>
<time>2013-07-23T16:25:37.36</time>
<name>6645</name>
<sym>Dot</sym>
</trkpt>
<trkpt lat="48.924283" lon="20.071825">
<ele>1116.5</ele>
<desc>Speed 25.1 km/h Distance 17.30 km</desc>
<time>2013-07-23T16:25:38.36</time>
<name>6646</name>
<sym>Dot</sym>
</trkpt>
<trkpt lat="48.924300" lon="20.071913">
<ele>1116.5</ele>
<desc>Speed 24.9 km/h Distance 17.31 km</desc>
<time>2013-07-23T16:25:39.36</time>
<name>6647</name>
<sym>Dot</sym>
</trkpt>
<trkpt lat="48.924315" lon="20.072005">
<ele>1116.5</ele>
<desc>Speed 24.9 km/h Distance 17.31 km</desc>
<time>2013-07-23T16:25:40.35</time>
<name>6648</name>
<sym>Dot</sym>
</trkpt>
<trkpt lat="48.924320" lon="20.072122">
<ele>1116.5</ele>
<desc>Speed 19.0 km/h Distance 17.32 km</desc>
<time>2013-07-23T16:25:42.34</time>
<name>6649</name>
<sym>Dot</sym>
</trkpt>
<trkpt lat="48.924303" lon="20.072167">
<ele>1116.5</ele>
<desc>Speed 14.9 km/h Distance 17.32 km</desc>
<time>2013-07-23T16:25:43.33</time>
<name>6650</name>
<sym>Dot</sym>
</trkpt>
<trkpt lat="48.924287" lon="20.072215">
<ele>1116.5</ele>
<desc>Speed 17.4 km/h Distance 17.33 km</desc>
<time>2013-07-23T16:25:44.33</time>
<name>6651</name>
<sym>Dot</sym>
</trkpt>
<trkpt lat="48.924323" lon="20.072403">
<ele>1116.5</ele>
<desc>Speed 24.8 km/h Distance 17.34 km</desc>
<time>2013-07-23T16:25:46.32</time>
<name>6652</name>
<sym>Dot</sym>
</trkpt>
<trkpt lat="48.924345" lon="20.072498">
<ele>1116.5</ele>
<desc>Speed 26.1 km/h Distance 17.35 km</desc>
<time>2013-07-23T16:25:47.32</time>
<name>6653</name>
<sym>Dot</sym>
</trkpt>
<trkpt lat="48.924365" lon="20.072592">
<ele>1116.5</ele>
<desc>Speed 24.6 km/h Distance 17.36 km</desc>
<time>2013-07-23T16:25:48.31</time>
<name>6654</name>
<sym>Dot</sym>
</trkpt>
<trkpt lat="48.924380" lon="20.072678">
<ele>1116.5</ele>
<desc>Speed 23.6 km/h Distance 17.36 km</desc>
<time>2013-07-23T16:25:49.31</time>
<name>6655</name>
<sym>Dot</sym>
</trkpt>
<trkpt lat="48.924392" lon="20.072752">
<ele>1116.5</ele>
<desc>Speed 20.2 km/h Distance 17.37 km</desc>
<time>2013-07-23T16:25:50.30</time>
<name>6656</name>
<sym>Dot</sym>
</trkpt>
<trkpt lat="48.924402" lon="20.072808">
<ele>1116.5</ele>
<desc>Speed 20.2 km/h Distance 17.37 km</desc>
<time>2013-07-23T16:25:51.28</time>
<name>6657</name>
<sym>Dot</sym>
</trkpt>
<trkpt lat="48.924627" lon="20.073400">
<ele>1116.0</ele>
<desc>Speed 20.2 km/h Distance 17.42 km</desc>
<time>2013-07-23T16:26:05.26</time>
<name>6658</name>
<sym>Dot</sym>
</trkpt>
<trkpt lat="48.924712" lon="20.073605">
<ele>1116.0</ele>
<desc>Speed 20.7 km/h Distance 17.44 km</desc>
<time>2013-07-23T16:26:07.25</time>
<name>6659</name>
<sym>Dot</sym>
</trkpt>
<trkpt lat="48.924717" lon="20.073673">
<ele>1116.0</ele>
<desc>Speed 17.0 km/h Distance 17.45 km</desc>
<time>2013-07-23T16:26:08.25</time>
<name>6660</name>
<sym>Dot</sym>
</trkpt>
<trkpt lat="48.924787" lon="20.073857">
<ele>1116.0</ele>
<desc>Speed 10.7 km/h Distance 17.46 km</desc>
<time>2013-07-23T16:26:10.24</time>
<name>6661</name>
<sym>Dot</sym>
</trkpt>
<trkpt lat="48.924790" lon="20.073885">
<ele>1116.0</ele>
<desc>Speed 7.2 km/h Distance 17.46 km</desc>
<time>2013-07-23T16:26:11.23</time>
<name>6662</name>
<sym>Dot</sym>
</trkpt>
<trkpt lat="48.924802" lon="20.073930">
<ele>1116.0</ele>
<desc>Speed 11.3 km/h Distance 17.47 km</desc>
<time>2013-07-23T16:26:12.23</time>
<name>6663</name>
<sym>Dot</sym>
</trkpt>
<trkpt lat="48.924808" lon="20.073965">
<ele>1116.0</ele>
<desc>Speed 9.3 km/h Distance 17.47 km</desc>
<time>2013-07-23T16:26:13.22</time>
<name>6664</name>
<sym>Dot</sym>
</trkpt>
<trkpt lat="48.924818" lon="20.074008">
<ele>1116.0</ele>
<desc>Speed 11.4 km/h Distance 17.47 km</desc>
<time>2013-07-23T16:26:14.21</time>
<name>6665</name>
<sym>Dot</sym>
</trkpt>
<trkpt lat="48.924828" lon="20.074062">
<ele>1116.0</ele>
<desc>Speed 13.7 km/h Distance 17.48 km</desc>
<time>2013-07-23T16:26:15.27</time>
<name>6666</name>
<sym>Dot</sym>
</trkpt>
<trkpt lat="48.924838" lon="20.074120">
<ele>1116.0</ele>
<desc>Speed 14.5 km/h Distance 17.48 km</desc>
<time>2013-07-23T16:26:16.20</time>
<name>6667</name>
<sym>Dot</sym>
</trkpt>
<trkpt lat="48.924852" lon="20.074188">
<ele>1116.0</ele>
<desc>Speed 18.2 km/h Distance 17.49 km</desc>
<time>2013-07-23T16:26:17.19</time>
<name>6668</name>
<sym>Dot</sym>
</trkpt>
<trkpt lat="48.924867" lon="20.074260">
<ele>1116.0</ele>
<desc>Speed 19.0 km/h Distance 17.49 km</desc>
<time>2013-07-23T16:26:18.19</time>
<name>6669</name>
<sym>Dot</sym>
</trkpt>
<trkpt lat="48.924880" lon="20.074327">
<ele>1116.0</ele>
<desc>Speed 19.2 km/h Distance 17.50 km</desc>
<time>2013-07-23T16:26:19.18</time>
<name>6670</name>
<sym>Dot</sym>
</trkpt>
<trkpt lat="48.924890" lon="20.074393">
<ele>1116.0</ele>
<desc>Speed 19.6 km/h Distance 17.50 km</desc>
<time>2013-07-23T16:26:20.17</time>
<name>6671</name>
<sym>Dot</sym>
</trkpt>
<trkpt lat="48.924902" lon="20.074462">
<ele>1116.0</ele>
<desc>Speed 19.5 km/h Distance 17.51 km</desc>
<time>2013-07-23T16:26:21.16</time>
<name>6672</name>
<sym>Dot</sym>
</trkpt>
<trkpt lat="48.924908" lon="20.074518">
<ele>1116.0</ele>
<desc>Speed 14.2 km/h Distance 17.51 km</desc>
<time>2013-07-23T16:26:22.17</time>
<name>6673</name>
<sym>Dot</sym>
</trkpt>
<trkpt lat="48.924898" lon="20.074587">
<ele>1115.5</ele>
<desc>Speed 12.9 km/h Distance 17.52 km</desc>
<time>2013-07-23T16:26:24.16</time>
<name>6674</name>
<sym>Dot</sym>
</trkpt>
<trkpt lat="48.924908" lon="20.074623">
<ele>1115.5</ele>
<desc>Speed 9.9 km/h Distance 17.52 km</desc>
<time>2013-07-23T16:26:25.15</time>
<name>6675</name>
<sym>Dot</sym>
</trkpt>
<trkpt lat="48.924917" lon="20.074660">
<ele>1115.5</ele>
<desc>Speed 9.6 km/h Distance 17.52 km</desc>
<time>2013-07-23T16:26:26.15</time>
<name>6676</name>
<sym>Dot</sym>
</trkpt>
<trkpt lat="48.924923" lon="20.074697">
<ele>1115.5</ele>
<desc>Speed 9.6 km/h Distance 17.53 km</desc>
<time>2013-07-23T16:26:27.15</time>
<name>6677</name>
<sym>Dot</sym>
</trkpt>
<trkpt lat="48.924937" lon="20.074740">
<ele>1115.5</ele>
<desc>Speed 9.0 km/h Distance 17.53 km</desc>
<time>2013-07-23T16:26:28.14</time>
<name>6678</name>
<sym>Dot</sym>
</trkpt>
<trkpt lat="48.924943" lon="20.074782">
<ele>1115.5</ele>
<desc>Speed 9.9 km/h Distance 17.53 km</desc>
<time>2013-07-23T16:26:29.14</time>
<name>6679</name>
<sym>Dot</sym>
</trkpt>
<trkpt lat="48.924955" lon="20.074825">
<ele>1115.5</ele>
<desc>Speed 10.4 km/h Distance 17.54 km</desc>
<time>2013-07-23T16:26:30.13</time>
<name>6680</name>
<sym>Dot</sym>
</trkpt>
<trkpt lat="48.924968" lon="20.074868">
<ele>1115.5</ele>
<desc>Speed 9.3 km/h Distance 17.54 km</desc>
<time>2013-07-23T16:26:31.13</time>
<name>6681</name>
<sym>Dot</sym>
</trkpt>
<trkpt lat="48.924985" lon="20.074915">
<ele>1115.5</ele>
<desc>Speed 11.0 km/h Distance 17.54 km</desc>
<time>2013-07-23T16:26:32.12</time>
<name>6682</name>
<sym>Dot</sym>
</trkpt>
<trkpt lat="48.924988" lon="20.074953">
<ele>1115.5</ele>
<desc>Speed 10.1 km/h Distance 17.55 km</desc>
<time>2013-07-23T16:26:33.11</time>
<name>6683</name>
<sym>Dot</sym>
</trkpt>
<trkpt lat="48.924993" lon="20.074995">
<ele>1115.5</ele>
<desc>Speed 10.5 km/h Distance 17.55 km</desc>
<time>2013-07-23T16:26:34.11</time>
<name>6684</name>
<sym>Dot</sym>
</trkpt>
<trkpt lat="48.925010" lon="20.075048">
<ele>1115.5</ele>
<desc>Speed 13.8 km/h Distance 17.55 km</desc>
<time>2013-07-23T16:26:35.10</time>
<name>6685</name>
<sym>Dot</sym>
</trkpt>
<trkpt lat="48.925020" lon="20.075100">
<ele>1115.5</ele>
<desc>Speed 11.7 km/h Distance 17.56 km</desc>
<time>2013-07-23T16:26:36.10</time>
<name>6686</name>
<sym>Dot</sym>
</trkpt>
<trkpt lat="48.925033" lon="20.075153">
<ele>1115.5</ele>
<desc>Speed 14.1 km/h Distance 17.56 km</desc>
<time>2013-07-23T16:26:37.10</time>
<name>6687</name>
<sym>Dot</sym>
</trkpt>
<trkpt lat="48.925042" lon="20.075212">
<ele>1115.5</ele>
<desc>Speed 15.0 km/h Distance 17.57 km</desc>
<time>2013-07-23T16:26:38.10</time>
<name>6688</name>
<sym>Dot</sym>
</trkpt>
<trkpt lat="48.925053" lon="20.075267">
<ele>1115.0</ele>
<desc>Speed 14.9 km/h Distance 17.57 km</desc>
<time>2013-07-23T16:26:39.09</time>
<name>6689</name>
<sym>Dot</sym>
</trkpt>
<trkpt lat="48.925062" lon="20.075318">
<ele>1115.0</ele>
<desc>Speed 14.9 km/h Distance 17.57 km</desc>
<time>2013-07-23T16:26:40.08</time>
<name>6690</name>
<sym>Dot</sym>
</trkpt>
<trkpt lat="48.925067" lon="20.075368">
<ele>1115.0</ele>
<desc>Speed 15.1 km/h Distance 17.58 km</desc>
<time>2013-07-23T16:26:41.08</time>
<name>6691</name>
<sym>Dot</sym>
</trkpt>
<trkpt lat="48.925075" lon="20.075427">
<ele>1115.0</ele>
<desc>Speed 16.0 km/h Distance 17.58 km</desc>
<time>2013-07-23T16:26:42.08</time>
<name>6692</name>
<sym>Dot</sym>
</trkpt>
<trkpt lat="48.925080" lon="20.075485">
<ele>1115.0</ele>
<desc>Speed 15.2 km/h Distance 17.59 km</desc>
<time>2013-07-23T16:26:43.07</time>
<name>6693</name>
<sym>Dot</sym>
</trkpt>
<trkpt lat="48.925090" lon="20.075550">
<ele>1115.0</ele>
<desc>Speed 14.9 km/h Distance 17.59 km</desc>
<time>2013-07-23T16:26:44.19</time>
<name>6694</name>
<sym>Dot</sym>
</trkpt>
<trkpt lat="48.925113" lon="20.075625">
<ele>1115.0</ele>
<desc>Speed 17.0 km/h Distance 17.60 km</desc>
<time>2013-07-23T16:26:45.06</time>
<name>6695</name>
<sym>Dot</sym>
</trkpt>
<trkpt lat="48.925137" lon="20.075700">
<ele>1115.0</ele>
<desc>Speed 17.1 km/h Distance 17.60 km</desc>
<time>2013-07-23T16:26:46.05</time>
<name>6696</name>
<sym>Dot</sym>
</trkpt>
<trkpt lat="48.925160" lon="20.075778">
<ele>1115.0</ele>
<desc>Speed 17.2 km/h Distance 17.61 km</desc>
<time>2013-07-23T16:26:47.05</time>
<name>6697</name>
<sym>Dot</sym>
</trkpt>
<trkpt lat="48.925180" lon="20.075852">
<ele>1115.0</ele>
<desc>Speed 17.4 km/h Distance 17.62 km</desc>
<time>2013-07-23T16:26:48.05</time>
<name>6698</name>
<sym>Dot</sym>
</trkpt>
<trkpt lat="48.925195" lon="20.075915">
<ele>1115.0</ele>
<desc>Speed 16.2 km/h Distance 17.62 km</desc>
<time>2013-07-23T16:26:49.05</time>
<name>6699</name>
<sym>Dot</sym>
</trkpt>
<trkpt lat="48.925208" lon="20.075978">
<ele>1115.0</ele>
<desc>Speed 15.8 km/h Distance 17.63 km</desc>
<time>2013-07-23T16:26:50.04</time>
<name>6700</name>
<sym>Dot</sym>
</trkpt>
<trkpt lat="48.925227" lon="20.076042">
<ele>1115.0</ele>
<desc>Speed 15.1 km/h Distance 17.63 km</desc>
<time>2013-07-23T16:26:51.04</time>
<name>6701</name>
<sym>Dot</sym>
</trkpt>
<trkpt lat="48.925237" lon="20.076103">
<ele>1115.0</ele>
<desc>Speed 15.8 km/h Distance 17.64 km</desc>
<time>2013-07-23T16:26:52.04</time>
<name>6702</name>
<sym>Dot</sym>
</trkpt>
<trkpt lat="48.925252" lon="20.076170">
<ele>1114.5</ele>
<desc>Speed 17.9 km/h Distance 17.64 km</desc>
<time>2013-07-23T16:26:53.04</time>
<name>6703</name>
<sym>Dot</sym>
</trkpt>
<trkpt lat="48.925262" lon="20.076238">
<ele>1114.5</ele>
<desc>Speed 18.5 km/h Distance 17.65 km</desc>
<time>2013-07-23T16:26:54.03</time>
<name>6704</name>
<sym>Dot</sym>
</trkpt>
<trkpt lat="48.925275" lon="20.076307">
<ele>1114.5</ele>
<desc>Speed 17.4 km/h Distance 17.65 km</desc>
<time>2013-07-23T16:26:55.02</time>
<name>6705</name>
<sym>Dot</sym>
</trkpt>
<trkpt lat="48.925272" lon="20.076358">
<ele>1114.5</ele>
<desc>Speed 15.1 km/h Distance 17.65 km</desc>
<time>2013-07-23T16:26:56.02</time>
<name>6706</name>
<sym>Dot</sym>
</trkpt>
<trkpt lat="48.925270" lon="20.076412">
<ele>1114.5</ele>
<desc>Speed 18.5 km/h Distance 17.66 km</desc>
<time>2013-07-23T16:26:57.02</time>
<name>6707</name>
<sym>Dot</sym>
</trkpt>
<trkpt lat="48.925253" lon="20.076458">
<ele>1114.5</ele>
<desc>Speed 16.7 km/h Distance 17.66 km</desc>
<time>2013-07-23T16:26:58.01</time>
<name>6708</name>
<sym>Dot</sym>
</trkpt>
<trkpt lat="48.925258" lon="20.076522">
<ele>1114.5</ele>
<desc>Speed 17.4 km/h Distance 17.67 km</desc>
<time>2013-07-23T16:26:59.01</time>
<name>6709</name>
<sym>Dot</sym>
</trkpt>
<trkpt lat="48.925268" lon="20.076588">
<ele>1114.5</ele>
<desc>Speed 16.0 km/h Distance 17.67 km</desc>
<time>2013-07-23T16:27:00.00</time>
<name>6710</name>
<sym>Dot</sym>
</trkpt>
<trkpt lat="48.925290" lon="20.076665">
<ele>1114.5</ele>
<desc>Speed 18.9 km/h Distance 17.68 km</desc>
<time>2013-07-23T16:27:01.00</time>
<name>6711</name>
<sym>Dot</sym>
</trkpt>
<trkpt lat="48.925290" lon="20.076725">
<ele>1114.5</ele>
<desc>Speed 16.5 km/h Distance 17.68 km</desc>
<time>2013-07-23T16:27:01.99</time>
<name>6712</name>
<sym>Dot</sym>
</trkpt>
<trkpt lat="48.925305" lon="20.076790">
<ele>1114.5</ele>
<desc>Speed 18.5 km/h Distance 17.69 km</desc>
<time>2013-07-23T16:27:02.99</time>
<name>6713</name>
<sym>Dot</sym>
</trkpt>
<trkpt lat="48.925360" lon="20.076950">
<ele>1114.5</ele>
<desc>Speed 18.7 km/h Distance 17.70 km</desc>
<time>2013-07-23T16:27:04.99</time>
<name>6714</name>
<sym>Dot</sym>
</trkpt>
<trkpt lat="48.925373" lon="20.077022">
<ele>1114.5</ele>
<desc>Speed 18.9 km/h Distance 17.71 km</desc>
<time>2013-07-23T16:27:05.99</time>
<name>6715</name>
<sym>Dot</sym>
</trkpt>
<trkpt lat="48.925377" lon="20.077087">
<ele>1114.5</ele>
<desc>Speed 18.9 km/h Distance 17.71 km</desc>
<time>2013-07-23T16:27:06.98</time>
<name>6716</name>
<sym>Dot</sym>
</trkpt>
<trkpt lat="48.925392" lon="20.077160">
<ele>1114.5</ele>
<desc>Speed 20.7 km/h Distance 17.72 km</desc>
<time>2013-07-23T16:27:07.98</time>
<name>6717</name>
<sym>Dot</sym>
</trkpt>
<trkpt lat="48.925412" lon="20.077238">
<ele>1114.5</ele>
<desc>Speed 18.6 km/h Distance 17.72 km</desc>
<time>2013-07-23T16:27:08.97</time>
<name>6718</name>
<sym>Dot</sym>
</trkpt>
<trkpt lat="48.925433" lon="20.077312">
<ele>1114.5</ele>
<desc>Speed 20.4 km/h Distance 17.73 km</desc>
<time>2013-07-23T16:27:09.97</time>
<name>6719</name>
<sym>Dot</sym>
</trkpt>
<trkpt lat="48.925450" lon="20.077387">
<ele>1114.5</ele>
<desc>Speed 20.8 km/h Distance 17.73 km</desc>
<time>2013-07-23T16:27:10.97</time>
<name>6720</name>
<sym>Dot</sym>
</trkpt>
<trkpt lat="48.925468" lon="20.077467">
<ele>1114.5</ele>
<desc>Speed 20.1 km/h Distance 17.74 km</desc>
<time>2013-07-23T16:27:11.96</time>
<name>6721</name>
<sym>Dot</sym>
</trkpt>
<trkpt lat="48.925487" lon="20.077547">
<ele>1114.5</ele>
<desc>Speed 20.3 km/h Distance 17.75 km</desc>
<time>2013-07-23T16:27:12.95</time>
<name>6722</name>
<sym>Dot</sym>
</trkpt>
<trkpt lat="48.925508" lon="20.077628">
<ele>1114.5</ele>
<desc>Speed 21.4 km/h Distance 17.75 km</desc>
<time>2013-07-23T16:27:13.95</time>
<name>6723</name>
<sym>Dot</sym>
</trkpt>
<trkpt lat="48.925533" lon="20.077712">
<ele>1114.5</ele>
<desc>Speed 21.5 km/h Distance 17.76 km</desc>
<time>2013-07-23T16:27:14.95</time>
<name>6724</name>
<sym>Dot</sym>
</trkpt>
<trkpt lat="48.925562" lon="20.077800">
<ele>1114.5</ele>
<desc>Speed 21.2 km/h Distance 17.77 km</desc>
<time>2013-07-23T16:27:15.95</time>
<name>6725</name>
<sym>Dot</sym>
</trkpt>
<trkpt lat="48.925572" lon="20.077870">
<ele>1114.5</ele>
<desc>Speed 18.3 km/h Distance 17.77 km</desc>
<time>2013-07-23T16:27:16.94</time>
<name>6726</name>
<sym>Dot</sym>
</trkpt>
<trkpt lat="48.925570" lon="20.077922">
<ele>1114.5</ele>
<desc>Speed 13.4 km/h Distance 17.78 km</desc>
<time>2013-07-23T16:27:17.94</time>
<name>6727</name>
<sym>Dot</sym>
</trkpt>
<trkpt lat="48.925623" lon="20.078090">
<ele>1114.5</ele>
<desc>Speed 21.2 km/h Distance 17.79 km</desc>
<time>2013-07-23T16:27:20.02</time>
<name>6728</name>
<sym>Dot</sym>
</trkpt>
<trkpt lat="48.925643" lon="20.078172">
<ele>1114.5</ele>
<desc>Speed 20.3 km/h Distance 17.80 km</desc>
<time>2013-07-23T16:27:20.93</time>
<name>6729</name>
<sym>Dot</sym>
</trkpt>
<trkpt lat="48.925672" lon="20.078258">
<ele>1114.5</ele>
<desc>Speed 23.3 km/h Distance 17.80 km</desc>
<time>2013-07-23T16:27:21.94</time>
<name>6730</name>
<sym>Dot</sym>
</trkpt>
<trkpt lat="48.925692" lon="20.078340">
<ele>1114.5</ele>
<desc>Speed 22.3 km/h Distance 17.81 km</desc>
<time>2013-07-23T16:27:22.92</time>
<name>6731</name>
<sym>Dot</sym>
</trkpt>
<trkpt lat="48.925708" lon="20.078417">
<ele>1114.5</ele>
<desc>Speed 20.6 km/h Distance 17.82 km</desc>
<time>2013-07-23T16:27:23.91</time>
<name>6732</name>
<sym>Dot</sym>
</trkpt>
<trkpt lat="48.925703" lon="20.078480">
<ele>1114.5</ele>
<desc>Speed 16.7 km/h Distance 17.82 km</desc>
<time>2013-07-23T16:27:24.91</time>
<name>6733</name>
<sym>Dot</sym>
</trkpt>
<trkpt lat="48.925707" lon="20.078530">
<ele>1114.5</ele>
<desc>Speed 14.0 km/h Distance 17.82 km</desc>
<time>2013-07-23T16:27:25.98</time>
<name>6734</name>
<sym>Dot</sym>
</trkpt>
<trkpt lat="48.925707" lon="20.078547">
<ele>1114.5</ele>
<desc>Speed 4.6 km/h Distance 17.83 km</desc>
<time>2013-07-23T16:27:27.90</time>
<name>6735</name>
<sym>Dot</sym>
</trkpt>
<trkpt lat="48.925862" lon="20.078647">
<ele>1114.5</ele>
<desc>Speed 4.2 km/h Distance 17.84 km</desc>
<time>2013-07-23T16:27:41.02</time>
<name>6736</name>
<sym>Dot</sym>
</trkpt>
<trkpt lat="48.925872" lon="20.078702">
<ele>1114.5</ele>
<desc>Speed 2.4 km/h Distance 17.85 km</desc>
<time>2013-07-23T16:28:19.89</time>
<name>6737</name>
<sym>Dot</sym>
</trkpt>
<trkpt lat="48.925870" lon="20.078717">
<ele>1114.5</ele>
<desc>Speed 4.1 km/h Distance 17.85 km</desc>
<time>2013-07-23T16:28:20.88</time>
<name>6738</name>
<sym>Dot</sym>
</trkpt>
<trkpt lat="48.925870" lon="20.078733">
<ele>1114.5</ele>
<desc>Speed 5.6 km/h Distance 17.85 km</desc>
<time>2013-07-23T16:28:21.89</time>
<name>6739</name>
<sym>Dot</sym>
</trkpt>
<trkpt lat="48.925867" lon="20.078760">
<ele>1114.5</ele>
<desc>Speed 6.6 km/h Distance 17.85 km</desc>
<time>2013-07-23T16:28:22.88</time>
<name>6740</name>
<sym>Dot</sym>
</trkpt>
<trkpt lat="48.925867" lon="20.078792">
<ele>1114.5</ele>
<desc>Speed 8.6 km/h Distance 17.86 km</desc>
<time>2013-07-23T16:28:23.88</time>
<name>6741</name>
<sym>Dot</sym>
</trkpt>
<trkpt lat="48.925865" lon="20.078828">
<ele>1114.5</ele>
<desc>Speed 10.2 km/h Distance 17.86 km</desc>
<time>2013-07-23T16:28:24.87</time>
<name>6742</name>
<sym>Dot</sym>
</trkpt>
<trkpt lat="48.925863" lon="20.078868">
<ele>1114.5</ele>
<desc>Speed 11.2 km/h Distance 17.86 km</desc>
<time>2013-07-23T16:28:25.87</time>
<name>6743</name>
<sym>Dot</sym>
</trkpt>
<trkpt lat="48.925870" lon="20.078915">
<ele>1114.5</ele>
<desc>Speed 12.2 km/h Distance 17.86 km</desc>
<time>2013-07-23T16:28:26.86</time>
<name>6744</name>
<sym>Dot</sym>
</trkpt>
<trkpt lat="48.925880" lon="20.078962">
<ele>1114.5</ele>
<desc>Speed 13.5 km/h Distance 17.87 km</desc>
<time>2013-07-23T16:28:28.28</time>
<name>6745</name>
<sym>Dot</sym>
</trkpt>
<trkpt lat="48.925888" lon="20.079013">
<ele>1114.0</ele>
<desc>Speed 13.7 km/h Distance 17.87 km</desc>
<time>2013-07-23T16:28:28.85</time>
<name>6746</name>
<sym>Dot</sym>
</trkpt>
<trkpt lat="48.925897" lon="20.079068">
<ele>1114.0</ele>
<desc>Speed 15.1 km/h Distance 17.88 km</desc>
<time>2013-07-23T16:28:29.85</time>
<name>6747</name>
<sym>Dot</sym>
</trkpt>
<trkpt lat="48.925908" lon="20.079128">
<ele>1114.0</ele>
<desc>Speed 16.3 km/h Distance 17.88 km</desc>
<time>2013-07-23T16:28:30.84</time>
<name>6748</name>
<sym>Dot</sym>
</trkpt>
<trkpt lat="48.925917" lon="20.079193">
<ele>1114.0</ele>
<desc>Speed 17.1 km/h Distance 17.89 km</desc>
<time>2013-07-23T16:28:31.83</time>
<name>6749</name>
<sym>Dot</sym>
</trkpt>
<trkpt lat="48.925923" lon="20.079262">
<ele>1114.0</ele>
<desc>Speed 17.9 km/h Distance 17.89 km</desc>
<time>2013-07-23T16:28:32.99</time>
<name>6750</name>
<sym>Dot</sym>
</trkpt>
<trkpt lat="48.925928" lon="20.079333">
<ele>1114.0</ele>
<desc>Speed 18.6 km/h Distance 17.90 km</desc>
<time>2013-07-23T16:28:33.82</time>
<name>6751</name>
<sym>Dot</sym>
</trkpt>
<trkpt lat="48.925938" lon="20.079405">
<ele>1114.0</ele>
<desc>Speed 19.6 km/h Distance 17.90 km</desc>
<time>2013-07-23T16:28:34.82</time>
<name>6752</name>
<sym>Dot</sym>
</trkpt>
<trkpt lat="48.925948" lon="20.079478">
<ele>1114.0</ele>
<desc>Speed 19.8 km/h Distance 17.91 km</desc>
<time>2013-07-23T16:28:35.82</time>
<name>6753</name>
<sym>Dot</sym>
</trkpt>
<trkpt lat="48.925963" lon="20.079550">
<ele>1114.0</ele>
<desc>Speed 20.1 km/h Distance 17.91 km</desc>
<time>2013-07-23T16:28:36.81</time>
<name>6754</name>
<sym>Dot</sym>
</trkpt>
<trkpt lat="48.925973" lon="20.079627">
<ele>1114.0</ele>
<desc>Speed 20.0 km/h Distance 17.92 km</desc>
<time>2013-07-23T16:28:37.81</time>
<name>6755</name>
<sym>Dot</sym>
</trkpt>
<trkpt lat="48.925987" lon="20.079700">
<ele>1114.0</ele>
<desc>Speed 20.1 km/h Distance 17.92 km</desc>
<time>2013-07-23T16:28:38.81</time>
<name>6756</name>
<sym>Dot</sym>
</trkpt>
<trkpt lat="48.926000" lon="20.079773">
<ele>1114.0</ele>
<desc>Speed 20.2 km/h Distance 17.93 km</desc>
<time>2013-07-23T16:28:39.80</time>
<name>6757</name>
<sym>Dot</sym>
</trkpt>
<trkpt lat="48.926010" lon="20.079848">
<ele>1114.0</ele>
<desc>Speed 20.3 km/h Distance 17.93 km</desc>
<time>2013-07-23T16:28:40.80</time>
<name>6758</name>
<sym>Dot</sym>
</trkpt>
<trkpt lat="48.926022" lon="20.079925">
<ele>1114.0</ele>
<desc>Speed 20.6 km/h Distance 17.94 km</desc>
<time>2013-07-23T16:28:41.79</time>
<name>6759</name>
<sym>Dot</sym>
</trkpt>
<trkpt lat="48.926037" lon="20.079997">
<ele>1114.0</ele>
<desc>Speed 20.1 km/h Distance 17.95 km</desc>
<time>2013-07-23T16:28:42.79</time>
<name>6760</name>
<sym>Dot</sym>
</trkpt>
<trkpt lat="48.926052" lon="20.080070">
<ele>1114.0</ele>
<desc>Speed 20.1 km/h Distance 17.95 km</desc>
<time>2013-07-23T16:28:43.78</time>
<name>6761</name>
<sym>Dot</sym>
</trkpt>
<trkpt lat="48.926065" lon="20.080143">
<ele>1114.0</ele>
<desc>Speed 19.9 km/h Distance 17.96 km</desc>
<time>2013-07-23T16:28:44.78</time>
<name>6762</name>
<sym>Dot</sym>
</trkpt>
<trkpt lat="48.926082" lon="20.080213">
<ele>1114.0</ele>
<desc>Speed 19.4 km/h Distance 17.96 km</desc>
<time>2013-07-23T16:28:45.77</time>
<name>6763</name>
<sym>Dot</sym>
</trkpt>
<trkpt lat="48.926092" lon="20.080282">
<ele>1114.0</ele>
<desc>Speed 17.8 km/h Distance 17.97 km</desc>
<time>2013-07-23T16:28:46.77</time>
<name>6764</name>
<sym>Dot</sym>
</trkpt>
<trkpt lat="48.926108" lon="20.080352">
<ele>1114.0</ele>
<desc>Speed 19.8 km/h Distance 17.97 km</desc>
<time>2013-07-23T16:28:47.76</time>
<name>6765</name>
<sym>Dot</sym>
</trkpt>
<trkpt lat="48.926118" lon="20.080422">
<ele>1114.0</ele>
<desc>Speed 19.0 km/h Distance 17.98 km</desc>
<time>2013-07-23T16:28:48.76</time>
<name>6766</name>
<sym>Dot</sym>
</trkpt>
<trkpt lat="48.926128" lon="20.080492">
<ele>1114.0</ele>
<desc>Speed 18.6 km/h Distance 17.98 km</desc>
<time>2013-07-23T16:28:49.76</time>
<name>6767</name>
<sym>Dot</sym>
</trkpt>
<trkpt lat="48.926137" lon="20.080562">
<ele>1114.0</ele>
<desc>Speed 18.7 km/h Distance 17.99 km</desc>
<time>2013-07-23T16:28:50.75</time>
<name>6768</name>
<sym>Dot</sym>
</trkpt>
<trkpt lat="48.926148" lon="20.080635">
<ele>1114.0</ele>
<desc>Speed 20.3 km/h Distance 17.99 km</desc>
<time>2013-07-23T16:28:51.74</time>
<name>6769</name>
<sym>Dot</sym>
</trkpt>
<trkpt lat="48.926167" lon="20.080708">
<ele>1114.0</ele>
<desc>Speed 20.3 km/h Distance 18.00 km</desc>
<time>2013-07-23T16:28:52.74</time>
<name>6770</name>
<sym>Dot</sym>
</trkpt>
<trkpt lat="48.926182" lon="20.080780">
<ele>1114.0</ele>
<desc>Speed 20.7 km/h Distance 18.01 km</desc>
<time>2013-07-23T16:28:53.74</time>
<name>6771</name>
<sym>Dot</sym>
</trkpt>
<trkpt lat="48.926200" lon="20.080855">
<ele>1114.0</ele>
<desc>Speed 21.4 km/h Distance 18.01 km</desc>
<time>2013-07-23T16:28:54.85</time>
<name>6772</name>
<sym>Dot</sym>
</trkpt>
<trkpt lat="48.926220" lon="20.080927">
<ele>1114.0</ele>
<desc>Speed 21.6 km/h Distance 18.02 km</desc>
<time>2013-07-23T16:28:55.73</time>
<name>6773</name>
<sym>Dot</sym>
</trkpt>
<trkpt lat="48.926242" lon="20.080998">
<ele>1114.0</ele>
<desc>Speed 21.9 km/h Distance 18.02 km</desc>
<time>2013-07-23T16:28:56.81</time>
<name>6774</name>
<sym>Dot</sym>
</trkpt>
<trkpt lat="48.926267" lon="20.081070">
<ele>1114.0</ele>
<desc>Speed 22.4 km/h Distance 18.03 km</desc>
<time>2013-07-23T16:28:57.71</time>
<name>6775</name>
<sym>Dot</sym>
</trkpt>
<trkpt lat="48.926295" lon="20.081138">
<ele>1114.0</ele>
<desc>Speed 22.4 km/h Distance 18.03 km</desc>
<time>2013-07-23T16:28:58.70</time>
<name>6776</name>
<sym>Dot</sym>
</trkpt>
<trkpt lat="48.926320" lon="20.081208">
<ele>1114.0</ele>
<desc>Speed 21.8 km/h Distance 18.04 km</desc>
<time>2013-07-23T16:28:59.70</time>
<name>6777</name>
<sym>Dot</sym>
</trkpt>
<trkpt lat="48.926358" lon="20.081270">
<ele>1114.0</ele>
<desc>Speed 21.7 km/h Distance 18.05 km</desc>
<time>2013-07-23T16:29:00.69</time>
<name>6778</name>
<sym>Dot</sym>
</trkpt>
<trkpt lat="48.926397" lon="20.081330">
<ele>1114.0</ele>
<desc>Speed 21.9 km/h Distance 18.05 km</desc>
<time>2013-07-23T16:29:01.68</time>
<name>6779</name>
<sym>Dot</sym>
</trkpt>
<trkpt lat="48.926433" lon="20.081390">
<ele>1114.0</ele>
<desc>Speed 21.9 km/h Distance 18.06 km</desc>
<time>2013-07-23T16:29:02.68</time>
<name>6780</name>
<sym>Dot</sym>
</trkpt>
<trkpt lat="48.926472" lon="20.081448">
<ele>1114.0</ele>
<desc>Speed 22.4 km/h Distance 18.06 km</desc>
<time>2013-07-23T16:29:03.67</time>
<name>6781</name>
<sym>Dot</sym>
</trkpt>
<trkpt lat="48.926515" lon="20.081507">
<ele>1114.0</ele>
<desc>Speed 22.8 km/h Distance 18.07 km</desc>
<time>2013-07-23T16:29:04.67</time>
<name>6782</name>
<sym>Dot</sym>
</trkpt>
<trkpt lat="48.926557" lon="20.081562">
<ele>1114.0</ele>
<desc>Speed 22.8 km/h Distance 18.08 km</desc>
<time>2013-07-23T16:29:05.66</time>
<name>6783</name>
<sym>Dot</sym>
</trkpt>
<trkpt lat="48.926603" lon="20.081617">
<ele>1114.0</ele>
<desc>Speed 23.3 km/h Distance 18.08 km</desc>
<time>2013-07-23T16:29:06.70</time>
<name>6784</name>
<sym>Dot</sym>
</trkpt>
<trkpt lat="48.926650" lon="20.081672">
<ele>1114.0</ele>
<desc>Speed 23.9 km/h Distance 18.09 km</desc>
<time>2013-07-23T16:29:07.65</time>
<name>6785</name>
<sym>Dot</sym>
</trkpt>
<trkpt lat="48.926695" lon="20.081728">
<ele>1114.0</ele>
<desc>Speed 23.9 km/h Distance 18.10 km</desc>
<time>2013-07-23T16:29:08.65</time>
<name>6786</name>
<sym>Dot</sym>
</trkpt>
<trkpt lat="48.926742" lon="20.081782">
<ele>1114.0</ele>
<desc>Speed 23.4 km/h Distance 18.10 km</desc>
<time>2013-07-23T16:29:09.64</time>
<name>6787</name>
<sym>Dot</sym>
</trkpt>
<trkpt lat="48.926788" lon="20.081832">
<ele>1114.0</ele>
<desc>Speed 23.2 km/h Distance 18.11 km</desc>
<time>2013-07-23T16:29:10.71</time>
<name>6788</name>
<sym>Dot</sym>
</trkpt>
<trkpt lat="48.926832" lon="20.081878">
<ele>1114.0</ele>
<desc>Speed 21.0 km/h Distance 18.12 km</desc>
<time>2013-07-23T16:29:11.63</time>
<name>6789</name>
<sym>Dot</sym>
</trkpt>
<trkpt lat="48.926877" lon="20.081905">
<ele>1114.0</ele>
<desc>Speed 19.7 km/h Distance 18.12 km</desc>
<time>2013-07-23T16:29:12.63</time>
<name>6790</name>
<sym>Dot</sym>
</trkpt>
<trkpt lat="48.926915" lon="20.081953">
<ele>1114.0</ele>
<desc>Speed 20.0 km/h Distance 18.13 km</desc>
<time>2013-07-23T16:29:13.63</time>
<name>6791</name>
<sym>Dot</sym>
</trkpt>
<trkpt lat="48.926957" lon="20.082000">
<ele>1114.0</ele>
<desc>Speed 20.7 km/h Distance 18.13 km</desc>
<time>2013-07-23T16:29:14.63</time>
<name>6792</name>
<sym>Dot</sym>
</trkpt>
<trkpt lat="48.926988" lon="20.082040">
<ele>1114.0</ele>
<desc>Speed 16.8 km/h Distance 18.14 km</desc>
<time>2013-07-23T16:29:15.62</time>
<name>6793</name>
<sym>Dot</sym>
</trkpt>
<trkpt lat="48.927082" lon="20.082145">
<ele>1114.0</ele>
<desc>Speed 22.0 km/h Distance 18.15 km</desc>
<time>2013-07-23T16:29:17.62</time>
<name>6794</name>
<sym>Dot</sym>
</trkpt>
<trkpt lat="48.927125" lon="20.082195">
<ele>1114.0</ele>
<desc>Speed 22.4 km/h Distance 18.16 km</desc>
<time>2013-07-23T16:29:18.62</time>
<name>6795</name>
<sym>Dot</sym>
</trkpt>
<trkpt lat="48.927172" lon="20.082243">
<ele>1114.0</ele>
<desc>Speed 22.3 km/h Distance 18.16 km</desc>
<time>2013-07-23T16:29:19.61</time>
<name>6796</name>
<sym>Dot</sym>
</trkpt>
<trkpt lat="48.927215" lon="20.082292">
<ele>1113.5</ele>
<desc>Speed 21.9 km/h Distance 18.17 km</desc>
<time>2013-07-23T16:29:20.61</time>
<name>6797</name>
<sym>Dot</sym>
</trkpt>
<trkpt lat="48.927258" lon="20.082340">
<ele>1113.5</ele>
<desc>Speed 21.8 km/h Distance 18.17 km</desc>
<time>2013-07-23T16:29:21.61</time>
<name>6798</name>
<sym>Dot</sym>
</trkpt>
<trkpt lat="48.927303" lon="20.082388">
<ele>1113.5</ele>
<desc>Speed 21.6 km/h Distance 18.18 km</desc>
<time>2013-07-23T16:29:22.60</time>
<name>6799</name>
<sym>Dot</sym>
</trkpt>
<trkpt lat="48.927363" lon="20.082440">
<ele>1113.5</ele>
<desc>Speed 21.5 km/h Distance 18.19 km</desc>
<time>2013-07-23T16:29:23.59</time>
<name>6800</name>
<sym>Dot</sym>
</trkpt>
<trkpt lat="48.927410" lon="20.082490">
<ele>1113.5</ele>
<desc>Speed 22.2 km/h Distance 18.19 km</desc>
<time>2013-07-23T16:29:24.59</time>
<name>6801</name>
<sym>Dot</sym>
</trkpt>
<trkpt lat="48.927453" lon="20.082538">
<ele>1113.5</ele>
<desc>Speed 21.9 km/h Distance 18.20 km</desc>
<time>2013-07-23T16:29:25.59</time>
<name>6802</name>
<sym>Dot</sym>
</trkpt>
<trkpt lat="48.927497" lon="20.082590">
<ele>1113.5</ele>
<desc>Speed 21.9 km/h Distance 18.21 km</desc>
<time>2013-07-23T16:29:26.59</time>
<name>6803</name>
<sym>Dot</sym>
</trkpt>
<trkpt lat="48.927540" lon="20.082638">
<ele>1113.5</ele>
<desc>Speed 21.8 km/h Distance 18.21 km</desc>
<time>2013-07-23T16:29:27.58</time>
<name>6804</name>
<sym>Dot</sym>
</trkpt>
<trkpt lat="48.927583" lon="20.082687">
<ele>1113.5</ele>
<desc>Speed 21.5 km/h Distance 18.22 km</desc>
<time>2013-07-23T16:29:28.58</time>
<name>6805</name>
<sym>Dot</sym>
</trkpt>
<trkpt lat="48.927623" lon="20.082737">
<ele>1113.5</ele>
<desc>Speed 21.0 km/h Distance 18.22 km</desc>
<time>2013-07-23T16:29:29.57</time>
<name>6806</name>
<sym>Dot</sym>
</trkpt>
<trkpt lat="48.927665" lon="20.082785">
<ele>1113.5</ele>
<desc>Speed 20.6 km/h Distance 18.23 km</desc>
<time>2013-07-23T16:29:30.57</time>
<name>6807</name>
<sym>Dot</sym>
</trkpt>
<trkpt lat="48.927707" lon="20.082832">
<ele>1113.5</ele>
<desc>Speed 20.6 km/h Distance 18.24 km</desc>
<time>2013-07-23T16:29:31.56</time>
<name>6808</name>
<sym>Dot</sym>
</trkpt>
<trkpt lat="48.927748" lon="20.082883">
<ele>1113.5</ele>
<desc>Speed 21.7 km/h Distance 18.24 km</desc>
<time>2013-07-23T16:29:32.56</time>
<name>6809</name>
<sym>Dot</sym>
</trkpt>
<trkpt lat="48.927795" lon="20.082930">
<ele>1113.5</ele>
<desc>Speed 22.1 km/h Distance 18.25 km</desc>
<time>2013-07-23T16:29:33.56</time>
<name>6810</name>
<sym>Dot</sym>
</trkpt>
<trkpt lat="48.927838" lon="20.082978">
<ele>1113.5</ele>
<desc>Speed 22.0 km/h Distance 18.25 km</desc>
<time>2013-07-23T16:29:34.56</time>
<name>6811</name>
<sym>Dot</sym>
</trkpt>
<trkpt lat="48.927887" lon="20.083033">
<ele>1113.5</ele>
<desc>Speed 22.1 km/h Distance 18.26 km</desc>
<time>2013-07-23T16:29:35.55</time>
<name>6812</name>
<sym>Dot</sym>
</trkpt>
<trkpt lat="48.927932" lon="20.083082">
<ele>1113.5</ele>
<desc>Speed 22.5 km/h Distance 18.27 km</desc>
<time>2013-07-23T16:29:36.55</time>
<name>6813</name>
<sym>Dot</sym>
</trkpt>
<trkpt lat="48.927980" lon="20.083132">
<ele>1113.5</ele>
<desc>Speed 23.3 km/h Distance 18.27 km</desc>
<time>2013-07-23T16:29:37.55</time>
<name>6814</name>
<sym>Dot</sym>
</trkpt>
<trkpt lat="48.928030" lon="20.083180">
<ele>1113.5</ele>
<desc>Speed 24.0 km/h Distance 18.28 km</desc>
<time>2013-07-23T16:29:38.55</time>
<name>6815</name>
<sym>Dot</sym>
</trkpt>
<trkpt lat="48.928080" lon="20.083233">
<ele>1113.5</ele>
<desc>Speed 24.6 km/h Distance 18.29 km</desc>
<time>2013-07-23T16:29:39.55</time>
<name>6816</name>
<sym>Dot</sym>
</trkpt>
<trkpt lat="48.928130" lon="20.083288">
<ele>1113.5</ele>
<desc>Speed 24.8 km/h Distance 18.29 km</desc>
<time>2013-07-23T16:29:40.54</time>
<name>6817</name>
<sym>Dot</sym>
</trkpt>
<trkpt lat="48.928183" lon="20.083343">
<ele>1113.5</ele>
<desc>Speed 25.5 km/h Distance 18.30 km</desc>
<time>2013-07-23T16:29:41.54</time>
<name>6818</name>
<sym>Dot</sym>
</trkpt>
<trkpt lat="48.928235" lon="20.083400">
<ele>1113.5</ele>
<desc>Speed 26.1 km/h Distance 18.31 km</desc>
<time>2013-07-23T16:29:42.54</time>
<name>6819</name>
<sym>Dot</sym>
</trkpt>
<trkpt lat="48.928290" lon="20.083463">
<ele>1113.5</ele>
<desc>Speed 27.3 km/h Distance 18.32 km</desc>
<time>2013-07-23T16:29:43.54</time>
<name>6820</name>
<sym>Dot</sym>
</trkpt>
<trkpt lat="48.928347" lon="20.083523">
<ele>1113.5</ele>
<desc>Speed 27.5 km/h Distance 18.32 km</desc>
<time>2013-07-23T16:29:44.54</time>
<name>6821</name>
<sym>Dot</sym>
</trkpt>
<trkpt lat="48.928403" lon="20.083580">
<ele>1113.5</ele>
<desc>Speed 26.9 km/h Distance 18.33 km</desc>
<time>2013-07-23T16:29:45.53</time>
<name>6822</name>
<sym>Dot</sym>
</trkpt>
<trkpt lat="48.928455" lon="20.083642">
<ele>1113.5</ele>
<desc>Speed 26.7 km/h Distance 18.34 km</desc>
<time>2013-07-23T16:29:46.53</time>
<name>6823</name>
<sym>Dot</sym>
</trkpt>
<trkpt lat="48.928510" lon="20.083702">
<ele>1113.5</ele>
<desc>Speed 27.2 km/h Distance 18.35 km</desc>
<time>2013-07-23T16:29:47.52</time>
<name>6824</name>
<sym>Dot</sym>
</trkpt>
<trkpt lat="48.928562" lon="20.083762">
<ele>1113.5</ele>
<desc>Speed 26.6 km/h Distance 18.35 km</desc>
<time>2013-07-23T16:29:48.51</time>
<name>6825</name>
<sym>Dot</sym>
</trkpt>
<trkpt lat="48.928615" lon="20.083822">
<ele>1113.5</ele>
<desc>Speed 27.0 km/h Distance 18.36 km</desc>
<time>2013-07-23T16:29:49.51</time>
<name>6826</name>
<sym>Dot</sym>
</trkpt>
<trkpt lat="48.928670" lon="20.083878">
<ele>1113.5</ele>
<desc>Speed 26.8 km/h Distance 18.37 km</desc>
<time>2013-07-23T16:29:50.51</time>
<name>6827</name>
<sym>Dot</sym>
</trkpt>
<trkpt lat="48.928723" lon="20.083937">
<ele>1113.5</ele>
<desc>Speed 26.6 km/h Distance 18.37 km</desc>
<time>2013-07-23T16:29:51.51</time>
<name>6828</name>
<sym>Dot</sym>
</trkpt>
<trkpt lat="48.928792" lon="20.083977">
<ele>1113.5</ele>
<desc>Speed 29.7 km/h Distance 18.38 km</desc>
<time>2013-07-23T16:29:52.51</time>
<name>6829</name>
<sym>Dot</sym>
</trkpt>
<trkpt lat="48.928837" lon="20.084042">
<ele>1113.5</ele>
<desc>Speed 24.7 km/h Distance 18.39 km</desc>
<time>2013-07-23T16:29:53.50</time>
<name>6830</name>
<sym>Dot</sym>
</trkpt>
<trkpt lat="48.928897" lon="20.084103">
<ele>1113.0</ele>
<desc>Speed 25.2 km/h Distance 18.40 km</desc>
<time>2013-07-23T16:29:54.50</time>
<name>6831</name>
<sym>Dot</sym>
</trkpt>
<trkpt lat="48.928947" lon="20.084160">
<ele>1113.0</ele>
<desc>Speed 25.1 km/h Distance 18.40 km</desc>
<time>2013-07-23T16:29:55.50</time>
<name>6832</name>
<sym>Dot</sym>
</trkpt>
<trkpt lat="48.928998" lon="20.084215">
<ele>1113.0</ele>
<desc>Speed 24.8 km/h Distance 18.41 km</desc>
<time>2013-07-23T16:29:56.49</time>
<name>6833</name>
<sym>Dot</sym>
</trkpt>
<trkpt lat="48.929047" lon="20.084268">
<ele>1113.0</ele>
<desc>Speed 24.3 km/h Distance 18.42 km</desc>
<time>2013-07-23T16:29:57.49</time>
<name>6834</name>
<sym>Dot</sym>
</trkpt>
<trkpt lat="48.929098" lon="20.084317">
<ele>1113.0</ele>
<desc>Speed 23.9 km/h Distance 18.43 km</desc>
<time>2013-07-23T16:29:58.48</time>
<name>6835</name>
<sym>Dot</sym>
</trkpt>
<trkpt lat="48.929152" lon="20.084375">
<ele>1113.0</ele>
<desc>Speed 23.7 km/h Distance 18.43 km</desc>
<time>2013-07-23T16:29:59.48</time>
<name>6836</name>
<sym>Dot</sym>
</trkpt>
<trkpt lat="48.929202" lon="20.084423">
<ele>1113.0</ele>
<desc>Speed 23.3 km/h Distance 18.44 km</desc>
<time>2013-07-23T16:30:00.58</time>
<name>6837</name>
<sym>Dot</sym>
</trkpt>
<trkpt lat="48.929252" lon="20.084472">
<ele>1113.0</ele>
<desc>Speed 23.2 km/h Distance 18.45 km</desc>
<time>2013-07-23T16:30:01.47</time>
<name>6838</name>
<sym>Dot</sym>
</trkpt>
<trkpt lat="48.929302" lon="20.084520">
<ele>1113.0</ele>
<desc>Speed 24.2 km/h Distance 18.45 km</desc>
<time>2013-07-23T16:30:02.47</time>
<name>6839</name>
<sym>Dot</sym>
</trkpt>
<trkpt lat="48.929345" lon="20.084562">
<ele>1113.0</ele>
<desc>Speed 21.4 km/h Distance 18.46 km</desc>
<time>2013-07-23T16:30:03.47</time>
<name>6840</name>
<sym>Dot</sym>
</trkpt>
<trkpt lat="48.929390" lon="20.084610">
<ele>1113.0</ele>
<desc>Speed 21.3 km/h Distance 18.46 km</desc>
<time>2013-07-23T16:30:04.46</time>
<name>6841</name>
<sym>Dot</sym>
</trkpt>
<trkpt lat="48.929432" lon="20.084653">
<ele>1113.0</ele>
<desc>Speed 19.3 km/h Distance 18.47 km</desc>
<time>2013-07-23T16:30:05.46</time>
<name>6842</name>
<sym>Dot</sym>
</trkpt>
<trkpt lat="48.929482" lon="20.084700">
<ele>1113.0</ele>
<desc>Speed 19.6 km/h Distance 18.48 km</desc>
<time>2013-07-23T16:30:06.45</time>
<name>6843</name>
<sym>Dot</sym>
</trkpt>
<trkpt lat="48.929528" lon="20.084765">
<ele>1113.0</ele>
<desc>Speed 24.6 km/h Distance 18.48 km</desc>
<time>2013-07-23T16:30:07.45</time>
<name>6844</name>
<sym>Dot</sym>
</trkpt>
<trkpt lat="48.929552" lon="20.084842">
<ele>1112.5</ele>
<desc>Speed 21.4 km/h Distance 18.49 km</desc>
<time>2013-07-23T16:30:08.45</time>
<name>6845</name>
<sym>Dot</sym>
</trkpt>
<trkpt lat="48.929593" lon="20.084908">
<ele>1112.5</ele>
<desc>Speed 22.5 km/h Distance 18.50 km</desc>
<time>2013-07-23T16:30:09.45</time>
<name>6846</name>
<sym>Dot</sym>
</trkpt>
<trkpt lat="48.929705" lon="20.085060">
<ele>1112.5</ele>
<desc>Speed 24.6 km/h Distance 18.51 km</desc>
<time>2013-07-23T16:30:11.44</time>
<name>6847</name>
<sym>Dot</sym>
</trkpt>
<trkpt lat="48.929765" lon="20.085107">
<ele>1112.5</ele>
<desc>Speed 22.9 km/h Distance 18.52 km</desc>
<time>2013-07-23T16:30:12.44</time>
<name>6848</name>
<sym>Dot</sym>
</trkpt>
<trkpt lat="48.929817" lon="20.085132">
<ele>1112.5</ele>
<desc>Speed 22.2 km/h Distance 18.53 km</desc>
<time>2013-07-23T16:30:13.43</time>
<name>6849</name>
<sym>Dot</sym>
</trkpt>
<trkpt lat="48.929977" lon="20.085235">
<ele>1112.5</ele>
<desc>Speed 25.6 km/h Distance 18.55 km</desc>
<time>2013-07-23T16:30:15.43</time>
<name>6850</name>
<sym>Dot</sym>
</trkpt>
<trkpt lat="48.930128" lon="20.085335">
<ele>1112.0</ele>
<desc>Speed 26.6 km/h Distance 18.56 km</desc>
<time>2013-07-23T16:30:17.42</time>
<name>6851</name>
<sym>Dot</sym>
</trkpt>
<trkpt lat="48.930188" lon="20.085400">
<ele>1112.0</ele>
<desc>Speed 25.8 km/h Distance 18.57 km</desc>
<time>2013-07-23T16:30:18.41</time>
<name>6852</name>
<sym>Dot</sym>
</trkpt>
<trkpt lat="48.930260" lon="20.085448">
<ele>1111.5</ele>
<desc>Speed 25.7 km/h Distance 18.58 km</desc>
<time>2013-07-23T16:30:19.41</time>
<name>6853</name>
<sym>Dot</sym>
</trkpt>
<trkpt lat="48.930313" lon="20.085487">
<ele>1111.5</ele>
<desc>Speed 25.7 km/h Distance 18.59 km</desc>
<time>2013-07-23T16:30:20.41</time>
<name>6854</name>
<sym>Dot</sym>
</trkpt>
<trkpt lat="48.930365" lon="20.085523">
<ele>1111.5</ele>
<desc>Speed 25.0 km/h Distance 18.59 km</desc>
<time>2013-07-23T16:30:21.41</time>
<name>6855</name>
<sym>Dot</sym>
</trkpt>
<trkpt lat="48.930417" lon="20.085562">
<ele>1111.5</ele>
<desc>Speed 24.6 km/h Distance 18.60 km</desc>
<time>2013-07-23T16:30:22.39</time>
<name>6856</name>
<sym>Dot</sym>
</trkpt>
<trkpt lat="48.930470" lon="20.085583">
<ele>1111.5</ele>
<desc>Speed 23.7 km/h Distance 18.61 km</desc>
<time>2013-07-23T16:30:23.39</time>
<name>6857</name>
<sym>Dot</sym>
</trkpt>
<trkpt lat="48.930522" lon="20.085602">
<ele>1111.5</ele>
<desc>Speed 23.2 km/h Distance 18.61 km</desc>
<time>2013-07-23T16:30:24.39</time>
<name>6858</name>
<sym>Dot</sym>
</trkpt>
<trkpt lat="48.930573" lon="20.085618">
<ele>1111.5</ele>
<desc>Speed 23.0 km/h Distance 18.62 km</desc>
<time>2013-07-23T16:30:25.39</time>
<name>6859</name>
<sym>Dot</sym>
</trkpt>
<trkpt lat="48.930628" lon="20.085632">
<ele>1111.5</ele>
<desc>Speed 23.0 km/h Distance 18.62 km</desc>
<time>2013-07-23T16:30:26.38</time>
<name>6860</name>
<sym>Dot</sym>
</trkpt>
<trkpt lat="48.930687" lon="20.085638">
<ele>1111.5</ele>
<desc>Speed 23.5 km/h Distance 18.63 km</desc>
<time>2013-07-23T16:30:27.37</time>
<name>6861</name>
<sym>Dot</sym>
</trkpt>
<trkpt lat="48.930748" lon="20.085632">
<ele>1111.5</ele>
<desc>Speed 24.0 km/h Distance 18.64 km</desc>
<time>2013-07-23T16:30:28.37</time>
<name>6862</name>
<sym>Dot</sym>
</trkpt>
<trkpt lat="48.930813" lon="20.085647">
<ele>1111.5</ele>
<desc>Speed 24.8 km/h Distance 18.65 km</desc>
<time>2013-07-23T16:30:29.36</time>
<name>6863</name>
<sym>Dot</sym>
</trkpt>
<trkpt lat="48.930873" lon="20.085678">
<ele>1111.5</ele>
<desc>Speed 21.8 km/h Distance 18.65 km</desc>
<time>2013-07-23T16:30:30.35</time>
<name>6864</name>
<sym>Dot</sym>
</trkpt>
<trkpt lat="48.930925" lon="20.085688">
<ele>1111.5</ele>
<desc>Speed 20.1 km/h Distance 18.66 km</desc>
<time>2013-07-23T16:30:31.35</time>
<name>6865</name>
<sym>Dot</sym>
</trkpt>
<trkpt lat="48.930985" lon="20.085708">
<ele>1111.5</ele>
<desc>Speed 24.2 km/h Distance 18.66 km</desc>
<time>2013-07-23T16:30:32.34</time>
<name>6866</name>
<sym>Dot</sym>
</trkpt>
<trkpt lat="48.931042" lon="20.085713">
<ele>1111.5</ele>
<desc>Speed 21.9 km/h Distance 18.67 km</desc>
<time>2013-07-23T16:30:33.34</time>
<name>6867</name>
<sym>Dot</sym>
</trkpt>
<trkpt lat="48.931093" lon="20.085728">
<ele>1111.5</ele>
<desc>Speed 22.0 km/h Distance 18.68 km</desc>
<time>2013-07-23T16:30:34.34</time>
<name>6868</name>
<sym>Dot</sym>
</trkpt>
<trkpt lat="48.931142" lon="20.085743">
<ele>1111.5</ele>
<desc>Speed 20.8 km/h Distance 18.68 km</desc>
<time>2013-07-23T16:30:35.34</time>
<name>6869</name>
<sym>Dot</sym>
</trkpt>
<trkpt lat="48.931188" lon="20.085747">
<ele>1111.5</ele>
<desc>Speed 20.1 km/h Distance 18.69 km</desc>
<time>2013-07-23T16:30:36.33</time>
<name>6870</name>
<sym>Dot</sym>
</trkpt>
<trkpt lat="48.931255" lon="20.085753">
<ele>1111.5</ele>
<desc>Speed 24.1 km/h Distance 18.70 km</desc>
<time>2013-07-23T16:30:37.33</time>
<name>6871</name>
<sym>Dot</sym>
</trkpt>
<trkpt lat="48.931357" lon="20.085757">
<ele>1111.5</ele>
<desc>Speed 21.5 km/h Distance 18.71 km</desc>
<time>2013-07-23T16:30:39.32</time>
<name>6872</name>
<sym>Dot</sym>
</trkpt>
<trkpt lat="48.931415" lon="20.085773">
<ele>1111.0</ele>
<desc>Speed 21.6 km/h Distance 18.71 km</desc>
<time>2013-07-23T16:30:40.31</time>
<name>6873</name>
<sym>Dot</sym>
</trkpt>
<trkpt lat="48.931472" lon="20.085790">
<ele>1111.0</ele>
<desc>Speed 22.2 km/h Distance 18.72 km</desc>
<time>2013-07-23T16:30:41.31</time>
<name>6874</name>
<sym>Dot</sym>
</trkpt>
<trkpt lat="48.931528" lon="20.085815">
<ele>1111.0</ele>
<desc>Speed 22.4 km/h Distance 18.73 km</desc>
<time>2013-07-23T16:30:42.31</time>
<name>6875</name>
<sym>Dot</sym>
</trkpt>
<trkpt lat="48.931582" lon="20.085835">
<ele>1111.0</ele>
<desc>Speed 22.2 km/h Distance 18.73 km</desc>
<time>2013-07-23T16:30:43.30</time>
<name>6876</name>
<sym>Dot</sym>
</trkpt>
<trkpt lat="48.931635" lon="20.085858">
<ele>1111.0</ele>
<desc>Speed 22.5 km/h Distance 18.74 km</desc>
<time>2013-07-23T16:30:44.30</time>
<name>6877</name>
<sym>Dot</sym>
</trkpt>
<trkpt lat="48.931693" lon="20.085887">
<ele>1111.0</ele>
<desc>Speed 22.7 km/h Distance 18.75 km</desc>
<time>2013-07-23T16:30:45.29</time>
<name>6878</name>
<sym>Dot</sym>
</trkpt>
<trkpt lat="48.931753" lon="20.085918">
<ele>1111.0</ele>
<desc>Speed 23.1 km/h Distance 18.75 km</desc>
<time>2013-07-23T16:30:46.29</time>
<name>6879</name>
<sym>Dot</sym>
</trkpt>
<trkpt lat="48.931817" lon="20.085950">
<ele>1110.5</ele>
<desc>Speed 23.5 km/h Distance 18.76 km</desc>
<time>2013-07-23T16:30:47.29</time>
<name>6880</name>
<sym>Dot</sym>
</trkpt>
<trkpt lat="48.931880" lon="20.085987">
<ele>1110.5</ele>
<desc>Speed 23.4 km/h Distance 18.77 km</desc>
<time>2013-07-23T16:30:48.28</time>
<name>6881</name>
<sym>Dot</sym>
</trkpt>
<trkpt lat="48.931938" lon="20.086023">
<ele>1110.5</ele>
<desc>Speed 23.5 km/h Distance 18.77 km</desc>
<time>2013-07-23T16:30:49.33</time>
<name>6882</name>
<sym>Dot</sym>
</trkpt>
<trkpt lat="48.931992" lon="20.086052">
<ele>1110.5</ele>
<desc>Speed 23.3 km/h Distance 18.78 km</desc>
<time>2013-07-23T16:30:50.27</time>
<name>6883</name>
<sym>Dot</sym>
</trkpt>
<trkpt lat="48.932047" lon="20.086078">
<ele>1110.5</ele>
<desc>Speed 22.6 km/h Distance 18.79 km</desc>
<time>2013-07-23T16:30:51.27</time>
<name>6884</name>
<sym>Dot</sym>
</trkpt>
<trkpt lat="48.932108" lon="20.086102">
<ele>1110.0</ele>
<desc>Speed 22.4 km/h Distance 18.79 km</desc>
<time>2013-07-23T16:30:52.27</time>
<name>6885</name>
<sym>Dot</sym>
</trkpt>
<trkpt lat="48.932172" lon="20.086128">
<ele>1110.0</ele>
<desc>Speed 22.4 km/h Distance 18.80 km</desc>
<time>2013-07-23T16:30:53.26</time>
<name>6886</name>
<sym>Dot</sym>
</trkpt>
<trkpt lat="48.932242" lon="20.086155">
<ele>1110.0</ele>
<desc>Speed 22.5 km/h Distance 18.81 km</desc>
<time>2013-07-23T16:30:54.26</time>
<name>6887</name>
<sym>Dot</sym>
</trkpt>
<trkpt lat="48.932300" lon="20.086182">
<ele>1110.0</ele>
<desc>Speed 22.4 km/h Distance 18.82 km</desc>
<time>2013-07-23T16:30:55.41</time>
<name>6888</name>
<sym>Dot</sym>
</trkpt>
<trkpt lat="48.932367" lon="20.086190">
<ele>1110.0</ele>
<desc>Speed 22.8 km/h Distance 18.82 km</desc>
<time>2013-07-23T16:30:56.26</time>
<name>6889</name>
<sym>Dot</sym>
</trkpt>
<trkpt lat="48.932425" lon="20.086215">
<ele>1110.0</ele>
<desc>Speed 22.5 km/h Distance 18.83 km</desc>
<time>2013-07-23T16:30:57.26</time>
<name>6890</name>
<sym>Dot</sym>
</trkpt>
<trkpt lat="48.932483" lon="20.086242">
<ele>1109.5</ele>
<desc>Speed 22.8 km/h Distance 18.84 km</desc>
<time>2013-07-23T16:30:58.24</time>
<name>6891</name>
<sym>Dot</sym>
</trkpt>
<trkpt lat="48.932543" lon="20.086268">
<ele>1109.5</ele>
<desc>Speed 23.3 km/h Distance 18.84 km</desc>
<time>2013-07-23T16:30:59.24</time>
<name>6892</name>
<sym>Dot</sym>
</trkpt>
<trkpt lat="48.932605" lon="20.086300">
<ele>1109.5</ele>
<desc>Speed 23.7 km/h Distance 18.85 km</desc>
<time>2013-07-23T16:31:00.24</time>
<name>6893</name>
<sym>Dot</sym>
</trkpt>
<trkpt lat="48.932663" lon="20.086307">
<ele>1109.5</ele>
<desc>Speed 23.3 km/h Distance 18.86 km</desc>
<time>2013-07-23T16:31:01.23</time>
<name>6894</name>
<sym>Dot</sym>
</trkpt>
<trkpt lat="48.932722" lon="20.086313">
<ele>1109.0</ele>
<desc>Speed 23.3 km/h Distance 18.86 km</desc>
<time>2013-07-23T16:31:02.23</time>
<name>6895</name>
<sym>Dot</sym>
</trkpt>
<trkpt lat="48.932773" lon="20.086338">
<ele>1109.0</ele>
<desc>Speed 22.8 km/h Distance 18.87 km</desc>
<time>2013-07-23T16:31:03.23</time>
<name>6896</name>
<sym>Dot</sym>
</trkpt>
<trkpt lat="48.932832" lon="20.086348">
<ele>1109.0</ele>
<desc>Speed 24.5 km/h Distance 18.88 km</desc>
<time>2013-07-23T16:31:04.23</time>
<name>6897</name>
<sym>Dot</sym>
</trkpt>
<trkpt lat="48.932885" lon="20.086378">
<ele>1109.0</ele>
<desc>Speed 23.3 km/h Distance 18.88 km</desc>
<time>2013-07-23T16:31:05.22</time>
<name>6898</name>
<sym>Dot</sym>
</trkpt>
<trkpt lat="48.932943" lon="20.086400">
<ele>1109.0</ele>
<desc>Speed 24.4 km/h Distance 18.89 km</desc>
<time>2013-07-23T16:31:06.31</time>
<name>6899</name>
<sym>Dot</sym>
</trkpt>
<trkpt lat="48.933000" lon="20.086433">
<ele>1109.0</ele>
<desc>Speed 25.3 km/h Distance 18.90 km</desc>
<time>2013-07-23T16:31:07.20</time>
<name>6900</name>
<sym>Dot</sym>
</trkpt>
<trkpt lat="48.933063" lon="20.086468">
<ele>1109.0</ele>
<desc>Speed 25.3 km/h Distance 18.90 km</desc>
<time>2013-07-23T16:31:08.20</time>
<name>6901</name>
<sym>Dot</sym>
</trkpt>
<trkpt lat="48.933127" lon="20.086500">
<ele>1109.0</ele>
<desc>Speed 25.5 km/h Distance 18.91 km</desc>
<time>2013-07-23T16:31:09.19</time>
<name>6902</name>
<sym>Dot</sym>
</trkpt>
<trkpt lat="48.933190" lon="20.086542">
<ele>1109.0</ele>
<desc>Speed 25.4 km/h Distance 18.92 km</desc>
<time>2013-07-23T16:31:10.18</time>
<name>6903</name>
<sym>Dot</sym>
</trkpt>
<trkpt lat="48.933250" lon="20.086585">
<ele>1108.5</ele>
<desc>Speed 24.8 km/h Distance 18.93 km</desc>
<time>2013-07-23T16:31:11.17</time>
<name>6904</name>
<sym>Dot</sym>
</trkpt>
<trkpt lat="48.933303" lon="20.086627">
<ele>1108.5</ele>
<desc>Speed 24.7 km/h Distance 18.93 km</desc>
<time>2013-07-23T16:31:12.17</time>
<name>6905</name>
<sym>Dot</sym>
</trkpt>
<trkpt lat="48.933357" lon="20.086672">
<ele>1108.5</ele>
<desc>Speed 24.3 km/h Distance 18.94 km</desc>
<time>2013-07-23T16:31:13.20</time>
<name>6906</name>
<sym>Dot</sym>
</trkpt>
<trkpt lat="48.933415" lon="20.086712">
<ele>1108.5</ele>
<desc>Speed 24.1 km/h Distance 18.95 km</desc>
<time>2013-07-23T16:31:14.16</time>
<name>6907</name>
<sym>Dot</sym>
</trkpt>
<trkpt lat="48.933467" lon="20.086750">
<ele>1108.5</ele>
<desc>Speed 24.1 km/h Distance 18.95 km</desc>
<time>2013-07-23T16:31:15.20</time>
<name>6908</name>
<sym>Dot</sym>
</trkpt>
<trkpt lat="48.933520" lon="20.086792">
<ele>1108.5</ele>
<desc>Speed 24.1 km/h Distance 18.96 km</desc>
<time>2013-07-23T16:31:16.16</time>
<name>6909</name>
<sym>Dot</sym>
</trkpt>
<trkpt lat="48.933573" lon="20.086833">
<ele>1108.5</ele>
<desc>Speed 24.3 km/h Distance 18.97 km</desc>
<time>2013-07-23T16:31:17.15</time>
<name>6910</name>
<sym>Dot</sym>
</trkpt>
<trkpt lat="48.933623" lon="20.086868">
<ele>1108.5</ele>
<desc>Speed 22.7 km/h Distance 18.97 km</desc>
<time>2013-07-23T16:31:18.15</time>
<name>6911</name>
<sym>Dot</sym>
</trkpt>
<trkpt lat="48.933687" lon="20.086918">
<ele>1108.5</ele>
<desc>Speed 24.6 km/h Distance 18.98 km</desc>
<time>2013-07-23T16:31:19.15</time>
<name>6912</name>
<sym>Dot</sym>
</trkpt>
<trkpt lat="48.933743" lon="20.086973">
<ele>1108.0</ele>
<desc>Speed 24.2 km/h Distance 18.99 km</desc>
<time>2013-07-23T16:31:20.15</time>
<name>6913</name>
<sym>Dot</sym>
</trkpt>
<trkpt lat="48.933798" lon="20.087028">
<ele>1108.0</ele>
<desc>Speed 24.3 km/h Distance 19.00 km</desc>
<time>2013-07-23T16:31:21.15</time>
<name>6914</name>
<sym>Dot</sym>
</trkpt>
<trkpt lat="48.933853" lon="20.087070">
<ele>1108.0</ele>
<desc>Speed 24.0 km/h Distance 19.00 km</desc>
<time>2013-07-23T16:31:22.14</time>
<name>6915</name>
<sym>Dot</sym>
</trkpt>
<trkpt lat="48.933908" lon="20.087118">
<ele>1108.0</ele>
<desc>Speed 24.4 km/h Distance 19.01 km</desc>
<time>2013-07-23T16:31:23.13</time>
<name>6916</name>
<sym>Dot</sym>
</trkpt>
<trkpt lat="48.933965" lon="20.087163">
<ele>1108.0</ele>
<desc>Speed 24.5 km/h Distance 19.02 km</desc>
<time>2013-07-23T16:31:24.13</time>
<name>6917</name>
<sym>Dot</sym>
</trkpt>
<trkpt lat="48.934018" lon="20.087208">
<ele>1108.0</ele>
<desc>Speed 24.4 km/h Distance 19.02 km</desc>
<time>2013-07-23T16:31:25.12</time>
<name>6918</name>
<sym>Dot</sym>
</trkpt>
<trkpt lat="48.934072" lon="20.087238">
<ele>1107.5</ele>
<desc>Speed 24.2 km/h Distance 19.03 km</desc>
<time>2013-07-23T16:31:26.12</time>
<name>6919</name>
<sym>Dot</sym>
</trkpt>
<trkpt lat="48.934125" lon="20.087275">
<ele>1107.5</ele>
<desc>Speed 24.6 km/h Distance 19.04 km</desc>
<time>2013-07-23T16:31:27.12</time>
<name>6920</name>
<sym>Dot</sym>
</trkpt>
<trkpt lat="48.934180" lon="20.087312">
<ele>1107.5</ele>
<desc>Speed 24.6 km/h Distance 19.04 km</desc>
<time>2013-07-23T16:31:28.11</time>
<name>6921</name>
<sym>Dot</sym>
</trkpt>
<trkpt lat="48.934218" lon="20.087370">
<ele>1107.5</ele>
<desc>Speed 22.6 km/h Distance 19.05 km</desc>
<time>2013-07-23T16:31:29.11</time>
<name>6922</name>
<sym>Dot</sym>
</trkpt>
<trkpt lat="48.934270" lon="20.087418">
<ele>1107.5</ele>
<desc>Speed 24.7 km/h Distance 19.06 km</desc>
<time>2013-07-23T16:31:30.10</time>
<name>6923</name>
<sym>Dot</sym>
</trkpt>
<trkpt lat="48.934323" lon="20.087465">
<ele>1107.5</ele>
<desc>Speed 25.2 km/h Distance 19.06 km</desc>
<time>2013-07-23T16:31:31.10</time>
<name>6924</name>
<sym>Dot</sym>
</trkpt>
<trkpt lat="48.934380" lon="20.087507">
<ele>1107.5</ele>
<desc>Speed 26.0 km/h Distance 19.07 km</desc>
<time>2013-07-23T16:31:32.10</time>
<name>6925</name>
<sym>Dot</sym>
</trkpt>
<trkpt lat="48.934437" lon="20.087553">
<ele>1107.5</ele>
<desc>Speed 26.1 km/h Distance 19.08 km</desc>
<time>2013-07-23T16:31:33.10</time>
<name>6926</name>
<sym>Dot</sym>
</trkpt>
<trkpt lat="48.934493" lon="20.087602">
<ele>1107.5</ele>
<desc>Speed 25.8 km/h Distance 19.08 km</desc>
<time>2013-07-23T16:31:34.09</time>
<name>6927</name>
<sym>Dot</sym>
</trkpt>
<trkpt lat="48.934552" lon="20.087650">
<ele>1107.5</ele>
<desc>Speed 26.0 km/h Distance 19.09 km</desc>
<time>2013-07-23T16:31:35.09</time>
<name>6928</name>
<sym>Dot</sym>
</trkpt>
<trkpt lat="48.934607" lon="20.087712">
<ele>1107.0</ele>
<desc>Speed 26.0 km/h Distance 19.10 km</desc>
<time>2013-07-23T16:31:36.09</time>
<name>6929</name>
<sym>Dot</sym>
</trkpt>
<trkpt lat="48.934657" lon="20.087763">
<ele>1107.0</ele>
<desc>Speed 25.6 km/h Distance 19.11 km</desc>
<time>2013-07-23T16:31:37.09</time>
<name>6930</name>
<sym>Dot</sym>
</trkpt>
<trkpt lat="48.934713" lon="20.087812">
<ele>1107.0</ele>
<desc>Speed 24.8 km/h Distance 19.11 km</desc>
<time>2013-07-23T16:31:38.08</time>
<name>6931</name>
<sym>Dot</sym>
</trkpt>
<trkpt lat="48.934767" lon="20.087863">
<ele>1107.0</ele>
<desc>Speed 24.8 km/h Distance 19.12 km</desc>
<time>2013-07-23T16:31:39.08</time>
<name>6932</name>
<sym>Dot</sym>
</trkpt>
<trkpt lat="48.934822" lon="20.087922">
<ele>1107.0</ele>
<desc>Speed 25.3 km/h Distance 19.13 km</desc>
<time>2013-07-23T16:31:40.08</time>
<name>6933</name>
<sym>Dot</sym>
</trkpt>
<trkpt lat="48.934877" lon="20.087960">
<ele>1107.0</ele>
<desc>Speed 24.1 km/h Distance 19.13 km</desc>
<time>2013-07-23T16:31:41.08</time>
<name>6934</name>
<sym>Dot</sym>
</trkpt>
<trkpt lat="48.934930" lon="20.088007">
<ele>1107.0</ele>
<desc>Speed 24.2 km/h Distance 19.14 km</desc>
<time>2013-07-23T16:31:42.07</time>
<name>6935</name>
<sym>Dot</sym>
</trkpt>
<trkpt lat="48.934975" lon="20.088058">
<ele>1107.0</ele>
<desc>Speed 22.1 km/h Distance 19.15 km</desc>
<time>2013-07-23T16:31:43.06</time>
<name>6936</name>
<sym>Dot</sym>
</trkpt>
<trkpt lat="48.935023" lon="20.088102">
<ele>1107.0</ele>
<desc>Speed 22.8 km/h Distance 19.15 km</desc>
<time>2013-07-23T16:31:44.06</time>
<name>6937</name>
<sym>Dot</sym>
</trkpt>
<trkpt lat="48.935065" lon="20.088152">
<ele>1107.0</ele>
<desc>Speed 22.4 km/h Distance 19.16 km</desc>
<time>2013-07-23T16:31:45.06</time>
<name>6938</name>
<sym>Dot</sym>
</trkpt>
<trkpt lat="48.935123" lon="20.088160">
<ele>1107.0</ele>
<desc>Speed 24.5 km/h Distance 19.17 km</desc>
<time>2013-07-23T16:31:46.06</time>
<name>6939</name>
<sym>Dot</sym>
</trkpt>
<trkpt lat="48.935168" lon="20.088202">
<ele>1107.0</ele>
<desc>Speed 21.3 km/h Distance 19.17 km</desc>
<time>2013-07-23T16:31:47.05</time>
<name>6940</name>
<sym>Dot</sym>
</trkpt>
<trkpt lat="48.935213" lon="20.088235">
<ele>1107.0</ele>
<desc>Speed 21.1 km/h Distance 19.18 km</desc>
<time>2013-07-23T16:31:48.04</time>
<name>6941</name>
<sym>Dot</sym>
</trkpt>
<trkpt lat="48.935252" lon="20.088292">
<ele>1107.0</ele>
<desc>Speed 21.9 km/h Distance 19.18 km</desc>
<time>2013-07-23T16:31:49.04</time>
<name>6942</name>
<sym>Dot</sym>
</trkpt>
<trkpt lat="48.935288" lon="20.088352">
<ele>1106.5</ele>
<desc>Speed 22.1 km/h Distance 19.19 km</desc>
<time>2013-07-23T16:31:50.03</time>
<name>6943</name>
<sym>Dot</sym>
</trkpt>
<trkpt lat="48.935337" lon="20.088383">
<ele>1106.5</ele>
<desc>Speed 21.6 km/h Distance 19.20 km</desc>
<time>2013-07-23T16:31:51.02</time>
<name>6944</name>
<sym>Dot</sym>
</trkpt>
<trkpt lat="48.935378" lon="20.088423">
<ele>1106.5</ele>
<desc>Speed 20.7 km/h Distance 19.20 km</desc>
<time>2013-07-23T16:31:52.01</time>
<name>6945</name>
<sym>Dot</sym>
</trkpt>
<trkpt lat="48.935432" lon="20.088458">
<ele>1106.5</ele>
<desc>Speed 23.0 km/h Distance 19.21 km</desc>
<time>2013-07-23T16:31:53.00</time>
<name>6946</name>
<sym>Dot</sym>
</trkpt>
<trkpt lat="48.935470" lon="20.088515">
<ele>1106.5</ele>
<desc>Speed 22.1 km/h Distance 19.21 km</desc>
<time>2013-07-23T16:31:54.00</time>
<name>6947</name>
<sym>Dot</sym>
</trkpt>
<trkpt lat="48.935518" lon="20.088570">
<ele>1106.5</ele>
<desc>Speed 24.2 km/h Distance 19.22 km</desc>
<time>2013-07-23T16:31:54.99</time>
<name>6948</name>
<sym>Dot</sym>
</trkpt>
<trkpt lat="48.935565" lon="20.088622">
<ele>1106.5</ele>
<desc>Speed 24.0 km/h Distance 19.23 km</desc>
<time>2013-07-23T16:31:55.99</time>
<name>6949</name>
<sym>Dot</sym>
</trkpt>
<trkpt lat="48.935608" lon="20.088687">
<ele>1106.5</ele>
<desc>Speed 25.8 km/h Distance 19.23 km</desc>
<time>2013-07-23T16:31:56.98</time>
<name>6950</name>
<sym>Dot</sym>
</trkpt>
<trkpt lat="48.935698" lon="20.088778">
<ele>1106.5</ele>
<desc>Speed 26.9 km/h Distance 19.25 km</desc>
<time>2013-07-23T16:31:58.97</time>
<name>6951</name>
<sym>Dot</sym>
</trkpt>
<trkpt lat="48.935747" lon="20.088835">
<ele>1106.5</ele>
<desc>Speed 24.3 km/h Distance 19.25 km</desc>
<time>2013-07-23T16:31:59.97</time>
<name>6952</name>
<sym>Dot</sym>
</trkpt>
<trkpt lat="48.935797" lon="20.088893">
<ele>1106.5</ele>
<desc>Speed 25.6 km/h Distance 19.26 km</desc>
<time>2013-07-23T16:32:00.96</time>
<name>6953</name>
<sym>Dot</sym>
</trkpt>
<trkpt lat="48.935845" lon="20.088952">
<ele>1106.5</ele>
<desc>Speed 25.4 km/h Distance 19.27 km</desc>
<time>2013-07-23T16:32:01.96</time>
<name>6954</name>
<sym>Dot</sym>
</trkpt>
<trkpt lat="48.935892" lon="20.089012">
<ele>1106.5</ele>
<desc>Speed 25.1 km/h Distance 19.27 km</desc>
<time>2013-07-23T16:32:02.95</time>
<name>6955</name>
<sym>Dot</sym>
</trkpt>
<trkpt lat="48.935937" lon="20.089063">
<ele>1106.5</ele>
<desc>Speed 23.0 km/h Distance 19.28 km</desc>
<time>2013-07-23T16:32:03.95</time>
<name>6956</name>
<sym>Dot</sym>
</trkpt>
<trkpt lat="48.935977" lon="20.089112">
<ele>1106.5</ele>
<desc>Speed 21.2 km/h Distance 19.28 km</desc>
<time>2013-07-23T16:32:04.94</time>
<name>6957</name>
<sym>Dot</sym>
</trkpt>
<trkpt lat="48.936022" lon="20.089173">
<ele>1106.5</ele>
<desc>Speed 24.3 km/h Distance 19.29 km</desc>
<time>2013-07-23T16:32:05.93</time>
<name>6958</name>
<sym>Dot</sym>
</trkpt>
<trkpt lat="48.936087" lon="20.089228">
<ele>1106.5</ele>
<desc>Speed 28.7 km/h Distance 19.30 km</desc>
<time>2013-07-23T16:32:06.93</time>
<name>6959</name>
<sym>Dot</sym>
</trkpt>
<trkpt lat="48.936135" lon="20.089297">
<ele>1106.5</ele>
<desc>Speed 26.5 km/h Distance 19.31 km</desc>
<time>2013-07-23T16:32:07.93</time>
<name>6960</name>
<sym>Dot</sym>
</trkpt>
<trkpt lat="48.936193" lon="20.089345">
<ele>1106.5</ele>
<desc>Speed 26.1 km/h Distance 19.31 km</desc>
<time>2013-07-23T16:32:08.92</time>
<name>6961</name>
<sym>Dot</sym>
</trkpt>
<trkpt lat="48.936245" lon="20.089413">
<ele>1106.5</ele>
<desc>Speed 27.3 km/h Distance 19.32 km</desc>
<time>2013-07-23T16:32:09.94</time>
<name>6962</name>
<sym>Dot</sym>
</trkpt>
<trkpt lat="48.936302" lon="20.089478">
<ele>1106.5</ele>
<desc>Speed 27.0 km/h Distance 19.33 km</desc>
<time>2013-07-23T16:32:10.91</time>
<name>6963</name>
<sym>Dot</sym>
</trkpt>
<trkpt lat="48.936353" lon="20.089547">
<ele>1106.5</ele>
<desc>Speed 27.3 km/h Distance 19.34 km</desc>
<time>2013-07-23T16:32:11.90</time>
<name>6964</name>
<sym>Dot</sym>
</trkpt>
<trkpt lat="48.936405" lon="20.089617">
<ele>1106.5</ele>
<desc>Speed 27.1 km/h Distance 19.35 km</desc>
<time>2013-07-23T16:32:12.89</time>
<name>6965</name>
<sym>Dot</sym>
</trkpt>
<trkpt lat="48.936457" lon="20.089693">
<ele>1106.5</ele>
<desc>Speed 28.5 km/h Distance 19.35 km</desc>
<time>2013-07-23T16:32:13.89</time>
<name>6966</name>
<sym>Dot</sym>
</trkpt>
<trkpt lat="48.936503" lon="20.089768">
<ele>1106.5</ele>
<desc>Speed 27.6 km/h Distance 19.36 km</desc>
<time>2013-07-23T16:32:14.88</time>
<name>6967</name>
<sym>Dot</sym>
</trkpt>
<trkpt lat="48.936555" lon="20.089850">
<ele>1106.5</ele>
<desc>Speed 27.5 km/h Distance 19.37 km</desc>
<time>2013-07-23T16:32:15.98</time>
<name>6968</name>
<sym>Dot</sym>
</trkpt>
<trkpt lat="48.936597" lon="20.089910">
<ele>1106.5</ele>
<desc>Speed 22.8 km/h Distance 19.38 km</desc>
<time>2013-07-23T16:32:16.88</time>
<name>6969</name>
<sym>Dot</sym>
</trkpt>
<trkpt lat="48.936707" lon="20.090075">
<ele>1106.0</ele>
<desc>Speed 26.5 km/h Distance 19.39 km</desc>
<time>2013-07-23T16:32:18.88</time>
<name>6970</name>
<sym>Dot</sym>
</trkpt>
<trkpt lat="48.936757" lon="20.090152">
<ele>1106.0</ele>
<desc>Speed 26.7 km/h Distance 19.40 km</desc>
<time>2013-07-23T16:32:19.87</time>
<name>6971</name>
<sym>Dot</sym>
</trkpt>
<trkpt lat="48.936807" lon="20.090230">
<ele>1106.0</ele>
<desc>Speed 26.4 km/h Distance 19.41 km</desc>
<time>2013-07-23T16:32:20.87</time>
<name>6972</name>
<sym>Dot</sym>
</trkpt>
<trkpt lat="48.936857" lon="20.090310">
<ele>1106.0</ele>
<desc>Speed 26.6 km/h Distance 19.42 km</desc>
<time>2013-07-23T16:32:21.86</time>
<name>6973</name>
<sym>Dot</sym>
</trkpt>
<trkpt lat="48.936907" lon="20.090378">
<ele>1106.0</ele>
<desc>Speed 26.4 km/h Distance 19.42 km</desc>
<time>2013-07-23T16:32:22.86</time>
<name>6974</name>
<sym>Dot</sym>
</trkpt>
<trkpt lat="48.936953" lon="20.090447">
<ele>1106.0</ele>
<desc>Speed 25.4 km/h Distance 19.43 km</desc>
<time>2013-07-23T16:32:23.85</time>
<name>6975</name>
<sym>Dot</sym>
</trkpt>
<trkpt lat="48.937003" lon="20.090517">
<ele>1106.0</ele>
<desc>Speed 25.1 km/h Distance 19.44 km</desc>
<time>2013-07-23T16:32:24.85</time>
<name>6976</name>
<sym>Dot</sym>
</trkpt>
<trkpt lat="48.937060" lon="20.090588">
<ele>1106.0</ele>
<desc>Speed 25.1 km/h Distance 19.45 km</desc>
<time>2013-07-23T16:32:25.85</time>
<name>6977</name>
<sym>Dot</sym>
</trkpt>
<trkpt lat="48.937112" lon="20.090643">
<ele>1106.0</ele>
<desc>Speed 25.1 km/h Distance 19.45 km</desc>
<time>2013-07-23T16:32:26.84</time>
<name>6978</name>
<sym>Dot</sym>
</trkpt>
<trkpt lat="48.937163" lon="20.090700">
<ele>1106.0</ele>
<desc>Speed 25.5 km/h Distance 19.46 km</desc>
<time>2013-07-23T16:32:27.83</time>
<name>6979</name>
<sym>Dot</sym>
</trkpt>
<trkpt lat="48.937217" lon="20.090747">
<ele>1106.0</ele>
<desc>Speed 25.7 km/h Distance 19.47 km</desc>
<time>2013-07-23T16:32:28.83</time>
<name>6980</name>
<sym>Dot</sym>
</trkpt>
<trkpt lat="48.937280" lon="20.090795">
<ele>1106.0</ele>
<desc>Speed 25.5 km/h Distance 19.48 km</desc>
<time>2013-07-23T16:32:29.82</time>
<name>6981</name>
<sym>Dot</sym>
</trkpt>
<trkpt lat="48.937347" lon="20.090842">
<ele>1106.0</ele>
<desc>Speed 25.1 km/h Distance 19.48 km</desc>
<time>2013-07-23T16:32:30.82</time>
<name>6982</name>
<sym>Dot</sym>
</trkpt>
<trkpt lat="48.937400" lon="20.090880">
<ele>1106.0</ele>
<desc>Speed 24.7 km/h Distance 19.49 km</desc>
<time>2013-07-23T16:32:31.81</time>
<name>6983</name>
<sym>Dot</sym>
</trkpt>
<trkpt lat="48.937455" lon="20.090918">
<ele>1106.0</ele>
<desc>Speed 25.3 km/h Distance 19.50 km</desc>
<time>2013-07-23T16:32:32.81</time>
<name>6984</name>
<sym>Dot</sym>
</trkpt>
<trkpt lat="48.937512" lon="20.090953">
<ele>1106.0</ele>
<desc>Speed 25.4 km/h Distance 19.50 km</desc>
<time>2013-07-23T16:32:33.81</time>
<name>6985</name>
<sym>Dot</sym>
</trkpt>
<trkpt lat="48.937567" lon="20.090993">
<ele>1106.0</ele>
<desc>Speed 25.5 km/h Distance 19.51 km</desc>
<time>2013-07-23T16:32:34.80</time>
<name>6986</name>
<sym>Dot</sym>
</trkpt>
<trkpt lat="48.937625" lon="20.091030">
<ele>1106.0</ele>
<desc>Speed 25.1 km/h Distance 19.52 km</desc>
<time>2013-07-23T16:32:35.79</time>
<name>6987</name>
<sym>Dot</sym>
</trkpt>
<trkpt lat="48.937683" lon="20.091070">
<ele>1106.0</ele>
<desc>Speed 24.6 km/h Distance 19.53 km</desc>
<time>2013-07-23T16:32:36.79</time>
<name>6988</name>
<sym>Dot</sym>
</trkpt>
<trkpt lat="48.937743" lon="20.091110">
<ele>1106.0</ele>
<desc>Speed 24.4 km/h Distance 19.53 km</desc>
<time>2013-07-23T16:32:37.78</time>
<name>6989</name>
<sym>Dot</sym>
</trkpt>
<trkpt lat="48.937805" lon="20.091155">
<ele>1106.0</ele>
<desc>Speed 23.8 km/h Distance 19.54 km</desc>
<time>2013-07-23T16:32:38.77</time>
<name>6990</name>
<sym>Dot</sym>
</trkpt>
<trkpt lat="48.937867" lon="20.091205">
<ele>1106.0</ele>
<desc>Speed 23.4 km/h Distance 19.55 km</desc>
<time>2013-07-23T16:32:39.77</time>
<name>6991</name>
<sym>Dot</sym>
</trkpt>
<trkpt lat="48.937928" lon="20.091263">
<ele>1106.0</ele>
<desc>Speed 23.9 km/h Distance 19.56 km</desc>
<time>2013-07-23T16:32:40.77</time>
<name>6992</name>
<sym>Dot</sym>
</trkpt>
<trkpt lat="48.938058" lon="20.091373">
<ele>1106.0</ele>
<desc>Speed 24.0 km/h Distance 19.57 km</desc>
<time>2013-07-23T16:32:42.77</time>
<name>6993</name>
<sym>Dot</sym>
</trkpt>
<trkpt lat="48.938115" lon="20.091423">
<ele>1106.0</ele>
<desc>Speed 23.9 km/h Distance 19.58 km</desc>
<time>2013-07-23T16:32:43.76</time>
<name>6994</name>
<sym>Dot</sym>
</trkpt>
<trkpt lat="48.938178" lon="20.091468">
<ele>1106.0</ele>
<desc>Speed 23.6 km/h Distance 19.59 km</desc>
<time>2013-07-23T16:32:44.76</time>
<name>6995</name>
<sym>Dot</sym>
</trkpt>
<trkpt lat="48.938233" lon="20.091513">
<ele>1106.0</ele>
<desc>Speed 23.5 km/h Distance 19.59 km</desc>
<time>2013-07-23T16:32:45.76</time>
<name>6996</name>
<sym>Dot</sym>
</trkpt>
<trkpt lat="48.938288" lon="20.091557">
<ele>1106.0</ele>
<desc>Speed 22.8 km/h Distance 19.60 km</desc>
<time>2013-07-23T16:32:46.76</time>
<name>6997</name>
<sym>Dot</sym>
</trkpt>
<trkpt lat="48.938343" lon="20.091597">
<ele>1106.0</ele>
<desc>Speed 22.1 km/h Distance 19.61 km</desc>
<time>2013-07-23T16:32:47.75</time>
<name>6998</name>
<sym>Dot</sym>
</trkpt>
<trkpt lat="48.938390" lon="20.091627">
<ele>1106.0</ele>
<desc>Speed 21.5 km/h Distance 19.61 km</desc>
<time>2013-07-23T16:32:48.74</time>
<name>6999</name>
<sym>Dot</sym>
</trkpt>
<trkpt lat="48.938442" lon="20.091680">
<ele>1106.0</ele>
<desc>Speed 21.8 km/h Distance 19.62 km</desc>
<time>2013-07-23T16:32:49.74</time>
<name>7000</name>
<sym>Dot</sym>
</trkpt>
<trkpt lat="48.938495" lon="20.091732">
<ele>1106.0</ele>
<desc>Speed 21.9 km/h Distance 19.63 km</desc>
<time>2013-07-23T16:32:50.74</time>
<name>7001</name>
<sym>Dot</sym>
</trkpt>
<trkpt lat="48.938547" lon="20.091783">
<ele>1106.0</ele>
<desc>Speed 22.1 km/h Distance 19.63 km</desc>
<time>2013-07-23T16:32:51.74</time>
<name>7002</name>
<sym>Dot</sym>
</trkpt>
<trkpt lat="48.938600" lon="20.091833">
<ele>1106.0</ele>
<desc>Speed 22.1 km/h Distance 19.64 km</desc>
<time>2013-07-23T16:32:52.73</time>
<name>7003</name>
<sym>Dot</sym>
</trkpt>
<trkpt lat="48.938655" lon="20.091887">
<ele>1106.0</ele>
<desc>Speed 22.3 km/h Distance 19.65 km</desc>
<time>2013-07-23T16:32:53.73</time>
<name>7004</name>
<sym>Dot</sym>
</trkpt>
<trkpt lat="48.938705" lon="20.091942">
<ele>1106.0</ele>
<desc>Speed 22.1 km/h Distance 19.66 km</desc>
<time>2013-07-23T16:32:54.72</time>
<name>7005</name>
<sym>Dot</sym>
</trkpt>
<trkpt lat="48.938755" lon="20.091998">
<ele>1106.0</ele>
<desc>Speed 22.4 km/h Distance 19.66 km</desc>
<time>2013-07-23T16:32:55.72</time>
<name>7006</name>
<sym>Dot</sym>
</trkpt>
<trkpt lat="48.938802" lon="20.092058">
<ele>1106.0</ele>
<desc>Speed 22.5 km/h Distance 19.67 km</desc>
<time>2013-07-23T16:32:56.71</time>
<name>7007</name>
<sym>Dot</sym>
</trkpt>
<trkpt lat="48.938845" lon="20.092117">
<ele>1106.0</ele>
<desc>Speed 22.8 km/h Distance 19.68 km</desc>
<time>2013-07-23T16:32:57.71</time>
<name>7008</name>
<sym>Dot</sym>
</trkpt>
<trkpt lat="48.938893" lon="20.092177">
<ele>1106.0</ele>
<desc>Speed 23.7 km/h Distance 19.68 km</desc>
<time>2013-07-23T16:32:58.71</time>
<name>7009</name>
<sym>Dot</sym>
</trkpt>
<trkpt lat="48.938942" lon="20.092228">
<ele>1106.0</ele>
<desc>Speed 23.9 km/h Distance 19.69 km</desc>
<time>2013-07-23T16:32:59.71</time>
<name>7010</name>
<sym>Dot</sym>
</trkpt>
<trkpt lat="48.938990" lon="20.092280">
<ele>1106.0</ele>
<desc>Speed 24.3 km/h Distance 19.70 km</desc>
<time>2013-07-23T16:33:00.70</time>
<name>7011</name>
<sym>Dot</sym>
</trkpt>
<trkpt lat="48.939042" lon="20.092328">
<ele>1106.0</ele>
<desc>Speed 24.5 km/h Distance 19.70 km</desc>
<time>2013-07-23T16:33:01.70</time>
<name>7012</name>
<sym>Dot</sym>
</trkpt>
<trkpt lat="48.939092" lon="20.092372">
<ele>1106.0</ele>
<desc>Speed 24.4 km/h Distance 19.71 km</desc>
<time>2013-07-23T16:33:02.69</time>
<name>7013</name>
<sym>Dot</sym>
</trkpt>
<trkpt lat="48.939145" lon="20.092422">
<ele>1106.0</ele>
<desc>Speed 24.6 km/h Distance 19.72 km</desc>
<time>2013-07-23T16:33:03.69</time>
<name>7014</name>
<sym>Dot</sym>
</trkpt>
<trkpt lat="48.939198" lon="20.092472">
<ele>1106.0</ele>
<desc>Speed 24.8 km/h Distance 19.72 km</desc>
<time>2013-07-23T16:33:04.68</time>
<name>7015</name>
<sym>Dot</sym>
</trkpt>
<trkpt lat="48.939255" lon="20.092528">
<ele>1106.0</ele>
<desc>Speed 25.2 km/h Distance 19.73 km</desc>
<time>2013-07-23T16:33:05.68</time>
<name>7016</name>
<sym>Dot</sym>
</trkpt>
<trkpt lat="48.939307" lon="20.092582">
<ele>1106.0</ele>
<desc>Speed 25.1 km/h Distance 19.74 km</desc>
<time>2013-07-23T16:33:06.68</time>
<name>7017</name>
<sym>Dot</sym>
</trkpt>
<trkpt lat="48.939360" lon="20.092635">
<ele>1106.0</ele>
<desc>Speed 25.2 km/h Distance 19.74 km</desc>
<time>2013-07-23T16:33:07.77</time>
<name>7018</name>
<sym>Dot</sym>
</trkpt>
<trkpt lat="48.939412" lon="20.092688">
<ele>1106.0</ele>
<desc>Speed 25.5 km/h Distance 19.75 km</desc>
<time>2013-07-23T16:33:08.67</time>
<name>7019</name>
<sym>Dot</sym>
</trkpt>
<trkpt lat="48.939467" lon="20.092742">
<ele>1106.0</ele>
<desc>Speed 25.8 km/h Distance 19.76 km</desc>
<time>2013-07-23T16:33:09.73</time>
<name>7020</name>
<sym>Dot</sym>
</trkpt>
<trkpt lat="48.939518" lon="20.092795">
<ele>1106.0</ele>
<desc>Speed 26.0 km/h Distance 19.77 km</desc>
<time>2013-07-23T16:33:10.66</time>
<name>7021</name>
<sym>Dot</sym>
</trkpt>
<trkpt lat="48.939567" lon="20.092855">
<ele>1106.0</ele>
<desc>Speed 26.0 km/h Distance 19.77 km</desc>
<time>2013-07-23T16:33:11.66</time>
<name>7022</name>
<sym>Dot</sym>
</trkpt>
<trkpt lat="48.939617" lon="20.092915">
<ele>1106.0</ele>
<desc>Speed 25.9 km/h Distance 19.78 km</desc>
<time>2013-07-23T16:33:12.66</time>
<name>7023</name>
<sym>Dot</sym>
</trkpt>
<trkpt lat="48.939670" lon="20.092978">
<ele>1106.0</ele>
<desc>Speed 25.5 km/h Distance 19.79 km</desc>
<time>2013-07-23T16:33:13.66</time>
<name>7024</name>
<sym>Dot</sym>
</trkpt>
<trkpt lat="48.939713" lon="20.093035">
<ele>1106.0</ele>
<desc>Speed 24.1 km/h Distance 19.79 km</desc>
<time>2013-07-23T16:33:14.66</time>
<name>7025</name>
<sym>Dot</sym>
</trkpt>
<trkpt lat="48.939765" lon="20.093092">
<ele>1106.0</ele>
<desc>Speed 26.0 km/h Distance 19.80 km</desc>
<time>2013-07-23T16:33:15.66</time>
<name>7026</name>
<sym>Dot</sym>
</trkpt>
<trkpt lat="48.939818" lon="20.093152">
<ele>1106.0</ele>
<desc>Speed 26.4 km/h Distance 19.81 km</desc>
<time>2013-07-23T16:33:16.65</time>
<name>7027</name>
<sym>Dot</sym>
</trkpt>
<trkpt lat="48.939867" lon="20.093203">
<ele>1106.0</ele>
<desc>Speed 25.7 km/h Distance 19.82 km</desc>
<time>2013-07-23T16:33:17.68</time>
<name>7028</name>
<sym>Dot</sym>
</trkpt>
<trkpt lat="48.939915" lon="20.093257">
<ele>1106.0</ele>
<desc>Speed 25.9 km/h Distance 19.82 km</desc>
<time>2013-07-23T16:33:18.65</time>
<name>7029</name>
<sym>Dot</sym>
</trkpt>
<trkpt lat="48.939965" lon="20.093313">
<ele>1106.0</ele>
<desc>Speed 25.6 km/h Distance 19.83 km</desc>
<time>2013-07-23T16:33:19.65</time>
<name>7030</name>
<sym>Dot</sym>
</trkpt>
<trkpt lat="48.940012" lon="20.093365">
<ele>1106.0</ele>
<desc>Speed 24.4 km/h Distance 19.84 km</desc>
<time>2013-07-23T16:33:20.65</time>
<name>7031</name>
<sym>Dot</sym>
</trkpt>
<trkpt lat="48.940063" lon="20.093417">
<ele>1106.0</ele>
<desc>Speed 24.8 km/h Distance 19.84 km</desc>
<time>2013-07-23T16:33:21.64</time>
<name>7032</name>
<sym>Dot</sym>
</trkpt>
<trkpt lat="48.940107" lon="20.093472">
<ele>1106.0</ele>
<desc>Speed 24.2 km/h Distance 19.85 km</desc>
<time>2013-07-23T16:33:22.74</time>
<name>7033</name>
<sym>Dot</sym>
</trkpt>
<trkpt lat="48.940153" lon="20.093532">
<ele>1106.0</ele>
<desc>Speed 24.8 km/h Distance 19.86 km</desc>
<time>2013-07-23T16:33:23.64</time>
<name>7034</name>
<sym>Dot</sym>
</trkpt>
<trkpt lat="48.940195" lon="20.093595">
<ele>1106.0</ele>
<desc>Speed 25.3 km/h Distance 19.86 km</desc>
<time>2013-07-23T16:33:24.63</time>
<name>7035</name>
<sym>Dot</sym>
</trkpt>
<trkpt lat="48.940238" lon="20.093655">
<ele>1106.0</ele>
<desc>Speed 25.7 km/h Distance 19.87 km</desc>
<time>2013-07-23T16:33:25.68</time>
<name>7036</name>
<sym>Dot</sym>
</trkpt>
<trkpt lat="48.940280" lon="20.093715">
<ele>1106.0</ele>
<desc>Speed 25.5 km/h Distance 19.87 km</desc>
<time>2013-07-23T16:33:26.62</time>
<name>7037</name>
<sym>Dot</sym>
</trkpt>
<trkpt lat="48.940315" lon="20.093785">
<ele>1106.0</ele>
<desc>Speed 24.8 km/h Distance 19.88 km</desc>
<time>2013-07-23T16:33:27.62</time>
<name>7038</name>
<sym>Dot</sym>
</trkpt>
<trkpt lat="48.940353" lon="20.093852">
<ele>1106.0</ele>
<desc>Speed 24.5 km/h Distance 19.89 km</desc>
<time>2013-07-23T16:33:28.62</time>
<name>7039</name>
<sym>Dot</sym>
</trkpt>
<trkpt lat="48.940397" lon="20.093923">
<ele>1106.0</ele>
<desc>Speed 25.1 km/h Distance 19.89 km</desc>
<time>2013-07-23T16:33:29.62</time>
<name>7040</name>
<sym>Dot</sym>
</trkpt>
<trkpt lat="48.940440" lon="20.094000">
<ele>1106.0</ele>
<desc>Speed 25.5 km/h Distance 19.90 km</desc>
<time>2013-07-23T16:33:30.61</time>
<name>7041</name>
<sym>Dot</sym>
</trkpt>
<trkpt lat="48.940483" lon="20.094080">
<ele>1106.0</ele>
<desc>Speed 25.2 km/h Distance 19.91 km</desc>
<time>2013-07-23T16:33:31.61</time>
<name>7042</name>
<sym>Dot</sym>
</trkpt>
<trkpt lat="48.940522" lon="20.094158">
<ele>1106.0</ele>
<desc>Speed 25.3 km/h Distance 19.92 km</desc>
<time>2013-07-23T16:33:32.61</time>
<name>7043</name>
<sym>Dot</sym>
</trkpt>
<trkpt lat="48.940553" lon="20.094240">
<ele>1106.0</ele>
<desc>Speed 25.0 km/h Distance 19.92 km</desc>
<time>2013-07-23T16:33:33.60</time>
<name>7044</name>
<sym>Dot</sym>
</trkpt>
<trkpt lat="48.940592" lon="20.094320">
<ele>1106.0</ele>
<desc>Speed 25.7 km/h Distance 19.93 km</desc>
<time>2013-07-23T16:33:34.60</time>
<name>7045</name>
<sym>Dot</sym>
</trkpt>
<trkpt lat="48.940627" lon="20.094400">
<ele>1106.0</ele>
<desc>Speed 25.7 km/h Distance 19.94 km</desc>
<time>2013-07-23T16:33:35.59</time>
<name>7046</name>
<sym>Dot</sym>
</trkpt>
<trkpt lat="48.940677" lon="20.094475">
<ele>1106.0</ele>
<desc>Speed 28.1 km/h Distance 19.95 km</desc>
<time>2013-07-23T16:33:36.59</time>
<name>7047</name>
<sym>Dot</sym>
</trkpt>
<trkpt lat="48.940720" lon="20.094540">
<ele>1106.0</ele>
<desc>Speed 25.6 km/h Distance 19.95 km</desc>
<time>2013-07-23T16:33:37.58</time>
<name>7048</name>
<sym>Dot</sym>
</trkpt>
<trkpt lat="48.940785" lon="20.094582">
<ele>1106.0</ele>
<desc>Speed 29.2 km/h Distance 19.96 km</desc>
<time>2013-07-23T16:33:38.58</time>
<name>7049</name>
<sym>Dot</sym>
</trkpt>
<trkpt lat="48.940823" lon="20.094653">
<ele>1106.0</ele>
<desc>Speed 26.6 km/h Distance 19.97 km</desc>
<time>2013-07-23T16:33:39.57</time>
<name>7050</name>
<sym>Dot</sym>
</trkpt>
<trkpt lat="48.940883" lon="20.094690">
<ele>1106.0</ele>
<desc>Speed 27.8 km/h Distance 19.97 km</desc>
<time>2013-07-23T16:33:40.57</time>
<name>7051</name>
<sym>Dot</sym>
</trkpt>
<trkpt lat="48.940937" lon="20.094738">
<ele>1106.0</ele>
<desc>Speed 26.6 km/h Distance 19.98 km</desc>
<time>2013-07-23T16:33:41.56</time>
<name>7052</name>
<sym>Dot</sym>
</trkpt>
<trkpt lat="48.940988" lon="20.094788">
<ele>1106.0</ele>
<desc>Speed 26.6 km/h Distance 19.99 km</desc>
<time>2013-07-23T16:33:42.56</time>
<name>7053</name>
<sym>Dot</sym>
</trkpt>
<trkpt lat="48.941040" lon="20.094833">
<ele>1106.0</ele>
<desc>Speed 26.1 km/h Distance 19.99 km</desc>
<time>2013-07-23T16:33:43.55</time>
<name>7054</name>
<sym>Dot</sym>
</trkpt>
<trkpt lat="48.941100" lon="20.094867">
<ele>1106.0</ele>
<desc>Speed 26.8 km/h Distance 20.00 km</desc>
<time>2013-07-23T16:33:44.55</time>
<name>7055</name>
<sym>Dot</sym>
</trkpt>
<trkpt lat="48.941167" lon="20.094900">
<ele>1106.0</ele>
<desc>Speed 27.0 km/h Distance 20.01 km</desc>
<time>2013-07-23T16:33:45.55</time>
<name>7056</name>
<sym>Dot</sym>
</trkpt>
<trkpt lat="48.941228" lon="20.094938">
<ele>1106.0</ele>
<desc>Speed 26.9 km/h Distance 20.02 km</desc>
<time>2013-07-23T16:33:46.54</time>
<name>7057</name>
<sym>Dot</sym>
</trkpt>
<trkpt lat="48.941288" lon="20.094977">
<ele>1106.0</ele>
<desc>Speed 26.2 km/h Distance 20.02 km</desc>
<time>2013-07-23T16:33:47.54</time>
<name>7058</name>
<sym>Dot</sym>
</trkpt>
<trkpt lat="48.941338" lon="20.095043">
<ele>1106.0</ele>
<desc>Speed 27.8 km/h Distance 20.03 km</desc>
<time>2013-07-23T16:33:48.54</time>
<name>7059</name>
<sym>Dot</sym>
</trkpt>
<trkpt lat="48.941395" lon="20.095093">
<ele>1106.0</ele>
<desc>Speed 26.8 km/h Distance 20.04 km</desc>
<time>2013-07-23T16:33:49.53</time>
<name>7060</name>
<sym>Dot</sym>
</trkpt>
<trkpt lat="48.941452" lon="20.095140">
<ele>1106.0</ele>
<desc>Speed 26.4 km/h Distance 20.05 km</desc>
<time>2013-07-23T16:33:50.54</time>
<name>7061</name>
<sym>Dot</sym>
</trkpt>
<trkpt lat="48.941502" lon="20.095195">
<ele>1106.0</ele>
<desc>Speed 26.0 km/h Distance 20.05 km</desc>
<time>2013-07-23T16:33:51.53</time>
<name>7062</name>
<sym>Dot</sym>
</trkpt>
<trkpt lat="48.941562" lon="20.095233">
<ele>1106.0</ele>
<desc>Speed 27.1 km/h Distance 20.06 km</desc>
<time>2013-07-23T16:33:52.52</time>
<name>7063</name>
<sym>Dot</sym>
</trkpt>
<trkpt lat="48.941613" lon="20.095275">
<ele>1106.0</ele>
<desc>Speed 25.3 km/h Distance 20.07 km</desc>
<time>2013-07-23T16:33:53.52</time>
<name>7064</name>
<sym>Dot</sym>
</trkpt>
<trkpt lat="48.941662" lon="20.095325">
<ele>1106.0</ele>
<desc>Speed 25.4 km/h Distance 20.07 km</desc>
<time>2013-07-23T16:33:54.50</time>
<name>7065</name>
<sym>Dot</sym>
</trkpt>
<trkpt lat="48.941720" lon="20.095378">
<ele>1106.0</ele>
<desc>Speed 26.4 km/h Distance 20.08 km</desc>
<time>2013-07-23T16:33:55.50</time>
<name>7066</name>
<sym>Dot</sym>
</trkpt>
<trkpt lat="48.941778" lon="20.095430">
<ele>1106.0</ele>
<desc>Speed 26.1 km/h Distance 20.09 km</desc>
<time>2013-07-23T16:33:56.58</time>
<name>7067</name>
<sym>Dot</sym>
</trkpt>
<trkpt lat="48.941837" lon="20.095478">
<ele>1106.0</ele>
<desc>Speed 27.5 km/h Distance 20.10 km</desc>
<time>2013-07-23T16:33:58.97</time>
<name>7068</name>
<sym>Dot</sym>
</trkpt>
<trkpt lat="48.941943" lon="20.095580">
<ele>1106.0</ele>
<desc>Speed 26.7 km/h Distance 20.11 km</desc>
<time>2013-07-23T16:33:59.50</time>
<name>7069</name>
<sym>Dot</sym>
</trkpt>
<trkpt lat="48.941993" lon="20.095638">
<ele>1106.0</ele>
<desc>Speed 26.9 km/h Distance 20.12 km</desc>
<time>2013-07-23T16:34:00.50</time>
<name>7070</name>
<sym>Dot</sym>
</trkpt>
<trkpt lat="48.942042" lon="20.095698">
<ele>1106.0</ele>
<desc>Speed 26.6 km/h Distance 20.12 km</desc>
<time>2013-07-23T16:34:01.49</time>
<name>7071</name>
<sym>Dot</sym>
</trkpt>
<trkpt lat="48.942092" lon="20.095760">
<ele>1106.0</ele>
<desc>Speed 26.8 km/h Distance 20.13 km</desc>
<time>2013-07-23T16:34:02.49</time>
<name>7072</name>
<sym>Dot</sym>
</trkpt>
<trkpt lat="48.942145" lon="20.095823">
<ele>1106.0</ele>
<desc>Speed 26.6 km/h Distance 20.14 km</desc>
<time>2013-07-23T16:34:03.48</time>
<name>7073</name>
<sym>Dot</sym>
</trkpt>
<trkpt lat="48.942197" lon="20.095887">
<ele>1106.0</ele>
<desc>Speed 26.2 km/h Distance 20.15 km</desc>
<time>2013-07-23T16:34:04.50</time>
<name>7074</name>
<sym>Dot</sym>
</trkpt>
<trkpt lat="48.942245" lon="20.095950">
<ele>1106.0</ele>
<desc>Speed 26.0 km/h Distance 20.15 km</desc>
<time>2013-07-23T16:34:05.47</time>
<name>7075</name>
<sym>Dot</sym>
</trkpt>
<trkpt lat="48.942290" lon="20.096007">
<ele>1106.0</ele>
<desc>Speed 22.8 km/h Distance 20.16 km</desc>
<time>2013-07-23T16:34:06.46</time>
<name>7076</name>
<sym>Dot</sym>
</trkpt>
<trkpt lat="48.942330" lon="20.096060">
<ele>1106.0</ele>
<desc>Speed 21.9 km/h Distance 20.17 km</desc>
<time>2013-07-23T16:34:07.46</time>
<name>7077</name>
<sym>Dot</sym>
</trkpt>
<trkpt lat="48.942378" lon="20.096120">
<ele>1106.0</ele>
<desc>Speed 26.5 km/h Distance 20.17 km</desc>
<time>2013-07-23T16:34:08.46</time>
<name>7078</name>
<sym>Dot</sym>
</trkpt>
<trkpt lat="48.942428" lon="20.096180">
<ele>1106.0</ele>
<desc>Speed 27.0 km/h Distance 20.18 km</desc>
<time>2013-07-23T16:34:09.45</time>
<name>7079</name>
<sym>Dot</sym>
</trkpt>
<trkpt lat="48.942478" lon="20.096242">
<ele>1106.0</ele>
<desc>Speed 26.1 km/h Distance 20.19 km</desc>
<time>2013-07-23T16:34:10.45</time>
<name>7080</name>
<sym>Dot</sym>
</trkpt>
<trkpt lat="48.942532" lon="20.096302">
<ele>1106.0</ele>
<desc>Speed 25.7 km/h Distance 20.19 km</desc>
<time>2013-07-23T16:34:11.44</time>
<name>7081</name>
<sym>Dot</sym>
</trkpt>
<trkpt lat="48.942587" lon="20.096363">
<ele>1106.0</ele>
<desc>Speed 25.4 km/h Distance 20.20 km</desc>
<time>2013-07-23T16:34:12.44</time>
<name>7082</name>
<sym>Dot</sym>
</trkpt>
<trkpt lat="48.942627" lon="20.096405">
<ele>1106.0</ele>
<desc>Speed 18.9 km/h Distance 20.21 km</desc>
<time>2013-07-23T16:34:13.44</time>
<name>7083</name>
<sym>Dot</sym>
</trkpt>
<trkpt lat="48.942680" lon="20.096457">
<ele>1106.0</ele>
<desc>Speed 24.8 km/h Distance 20.21 km</desc>
<time>2013-07-23T16:34:14.44</time>
<name>7084</name>
<sym>Dot</sym>
</trkpt>
<trkpt lat="48.942733" lon="20.096510">
<ele>1106.0</ele>
<desc>Speed 25.3 km/h Distance 20.22 km</desc>
<time>2013-07-23T16:34:15.43</time>
<name>7085</name>
<sym>Dot</sym>
</trkpt>
<trkpt lat="48.942785" lon="20.096565">
<ele>1106.0</ele>
<desc>Speed 24.8 km/h Distance 20.23 km</desc>
<time>2013-07-23T16:34:16.42</time>
<name>7086</name>
<sym>Dot</sym>
</trkpt>
<trkpt lat="48.942838" lon="20.096623">
<ele>1106.0</ele>
<desc>Speed 24.5 km/h Distance 20.24 km</desc>
<time>2013-07-23T16:34:17.42</time>
<name>7087</name>
<sym>Dot</sym>
</trkpt>
<trkpt lat="48.942895" lon="20.096683">
<ele>1106.0</ele>
<desc>Speed 24.2 km/h Distance 20.24 km</desc>
<time>2013-07-23T16:34:18.42</time>
<name>7088</name>
<sym>Dot</sym>
</trkpt>
<trkpt lat="48.942947" lon="20.096745">
<ele>1106.0</ele>
<desc>Speed 23.7 km/h Distance 20.25 km</desc>
<time>2013-07-23T16:34:19.41</time>
<name>7089</name>
<sym>Dot</sym>
</trkpt>
<trkpt lat="48.942995" lon="20.096795">
<ele>1106.0</ele>
<desc>Speed 23.7 km/h Distance 20.26 km</desc>
<time>2013-07-23T16:34:20.42</time>
<name>7090</name>
<sym>Dot</sym>
</trkpt>
<trkpt lat="48.943043" lon="20.096845">
<ele>1106.0</ele>
<desc>Speed 23.0 km/h Distance 20.26 km</desc>
<time>2013-07-23T16:34:21.40</time>
<name>7091</name>
<sym>Dot</sym>
</trkpt>
<trkpt lat="48.943102" lon="20.096895">
<ele>1106.0</ele>
<desc>Speed 23.2 km/h Distance 20.27 km</desc>
<time>2013-07-23T16:34:22.40</time>
<name>7092</name>
<sym>Dot</sym>
</trkpt>
<trkpt lat="48.943152" lon="20.096942">
<ele>1106.0</ele>
<desc>Speed 23.3 km/h Distance 20.28 km</desc>
<time>2013-07-23T16:34:23.41</time>
<name>7093</name>
<sym>Dot</sym>
</trkpt>
<trkpt lat="48.943200" lon="20.096990">
<ele>1106.0</ele>
<desc>Speed 23.0 km/h Distance 20.28 km</desc>
<time>2013-07-23T16:34:24.39</time>
<name>7094</name>
<sym>Dot</sym>
</trkpt>
<trkpt lat="48.943255" lon="20.097025">
<ele>1106.0</ele>
<desc>Speed 23.9 km/h Distance 20.29 km</desc>
<time>2013-07-23T16:34:25.38</time>
<name>7095</name>
<sym>Dot</sym>
</trkpt>
<trkpt lat="48.943308" lon="20.097073">
<ele>1106.0</ele>
<desc>Speed 23.9 km/h Distance 20.30 km</desc>
<time>2013-07-23T16:34:26.38</time>
<name>7096</name>
<sym>Dot</sym>
</trkpt>
<trkpt lat="48.943370" lon="20.097118">
<ele>1106.0</ele>
<desc>Speed 24.3 km/h Distance 20.30 km</desc>
<time>2013-07-23T16:34:27.37</time>
<name>7097</name>
<sym>Dot</sym>
</trkpt>
<trkpt lat="48.943432" lon="20.097157">
<ele>1106.0</ele>
<desc>Speed 24.3 km/h Distance 20.31 km</desc>
<time>2013-07-23T16:34:28.37</time>
<name>7098</name>
<sym>Dot</sym>
</trkpt>
<trkpt lat="48.943498" lon="20.097197">
<ele>1106.0</ele>
<desc>Speed 24.6 km/h Distance 20.32 km</desc>
<time>2013-07-23T16:34:29.36</time>
<name>7099</name>
<sym>Dot</sym>
</trkpt>
<trkpt lat="48.943553" lon="20.097222">
<ele>1106.0</ele>
<desc>Speed 24.8 km/h Distance 20.33 km</desc>
<time>2013-07-23T16:34:30.36</time>
<name>7100</name>
<sym>Dot</sym>
</trkpt>
<trkpt lat="48.943600" lon="20.097267">
<ele>1106.0</ele>
<desc>Speed 21.5 km/h Distance 20.33 km</desc>
<time>2013-07-23T16:34:31.36</time>
<name>7101</name>
<sym>Dot</sym>
</trkpt>
<trkpt lat="48.943655" lon="20.097290">
<ele>1106.0</ele>
<desc>Speed 22.5 km/h Distance 20.34 km</desc>
<time>2013-07-23T16:34:32.35</time>
<name>7102</name>
<sym>Dot</sym>
</trkpt>
<trkpt lat="48.943717" lon="20.097313">
<ele>1106.0</ele>
<desc>Speed 24.3 km/h Distance 20.35 km</desc>
<time>2013-07-23T16:34:33.35</time>
<name>7103</name>
<sym>Dot</sym>
</trkpt>
<trkpt lat="48.943775" lon="20.097330">
<ele>1106.0</ele>
<desc>Speed 24.6 km/h Distance 20.35 km</desc>
<time>2013-07-23T16:34:34.40</time>
<name>7104</name>
<sym>Dot</sym>
</trkpt>
<trkpt lat="48.943835" lon="20.097348">
<ele>1106.0</ele>
<desc>Speed 24.0 km/h Distance 20.36 km</desc>
<time>2013-07-23T16:34:35.35</time>
<name>7105</name>
<sym>Dot</sym>
</trkpt>
<trkpt lat="48.943893" lon="20.097375">
<ele>1106.0</ele>
<desc>Speed 23.7 km/h Distance 20.37 km</desc>
<time>2013-07-23T16:34:36.35</time>
<name>7106</name>
<sym>Dot</sym>
</trkpt>
<trkpt lat="48.943952" lon="20.097405">
<ele>1106.0</ele>
<desc>Speed 22.8 km/h Distance 20.37 km</desc>
<time>2013-07-23T16:34:37.34</time>
<name>7107</name>
<sym>Dot</sym>
</trkpt>
<trkpt lat="48.944078" lon="20.097483">
<ele>1106.0</ele>
<desc>Speed 23.3 km/h Distance 20.39 km</desc>
<time>2013-07-23T16:34:39.37</time>
<name>7108</name>
<sym>Dot</sym>
</trkpt>
<trkpt lat="48.944133" lon="20.097523">
<ele>1106.0</ele>
<desc>Speed 23.0 km/h Distance 20.40 km</desc>
<time>2013-07-23T16:34:40.32</time>
<name>7109</name>
<sym>Dot</sym>
</trkpt>
<trkpt lat="48.944190" lon="20.097567">
<ele>1106.0</ele>
<desc>Speed 23.3 km/h Distance 20.40 km</desc>
<time>2013-07-23T16:34:41.31</time>
<name>7110</name>
<sym>Dot</sym>
</trkpt>
<trkpt lat="48.944247" lon="20.097617">
<ele>1106.0</ele>
<desc>Speed 22.8 km/h Distance 20.41 km</desc>
<time>2013-07-23T16:34:42.31</time>
<name>7111</name>
<sym>Dot</sym>
</trkpt>
<trkpt lat="48.944305" lon="20.097672">
<ele>1106.0</ele>
<desc>Speed 22.3 km/h Distance 20.42 km</desc>
<time>2013-07-23T16:34:43.31</time>
<name>7112</name>
<sym>Dot</sym>
</trkpt>
<trkpt lat="48.944365" lon="20.097727">
<ele>1106.0</ele>
<desc>Speed 22.1 km/h Distance 20.43 km</desc>
<time>2013-07-23T16:34:44.31</time>
<name>7113</name>
<sym>Dot</sym>
</trkpt>
<trkpt lat="48.944423" lon="20.097777">
<ele>1106.0</ele>
<desc>Speed 22.1 km/h Distance 20.43 km</desc>
<time>2013-07-23T16:34:45.31</time>
<name>7114</name>
<sym>Dot</sym>
</trkpt>
<trkpt lat="48.944482" lon="20.097832">
<ele>1106.0</ele>
<desc>Speed 22.3 km/h Distance 20.44 km</desc>
<time>2013-07-23T16:34:46.30</time>
<name>7115</name>
<sym>Dot</sym>
</trkpt>
<trkpt lat="48.944627" lon="20.097992">
<ele>1106.0</ele>
<desc>Speed 22.4 km/h Distance 20.46 km</desc>
<time>2013-07-23T16:34:51.25</time>
<name>7116</name>
<sym>Dot</sym>
</trkpt>
<trkpt lat="48.944672" lon="20.098063">
<ele>1106.0</ele>
<desc>Speed 21.8 km/h Distance 20.47 km</desc>
<time>2013-07-23T16:34:52.50</time>
<name>7117</name>
<sym>Dot</sym>
</trkpt>
<trkpt lat="48.944722" lon="20.098133">
<ele>1106.0</ele>
<desc>Speed 21.5 km/h Distance 20.47 km</desc>
<time>2013-07-23T16:34:53.24</time>
<name>7118</name>
<sym>Dot</sym>
</trkpt>
<trkpt lat="48.944772" lon="20.098200">
<ele>1106.0</ele>
<desc>Speed 21.5 km/h Distance 20.48 km</desc>
<time>2013-07-23T16:34:54.23</time>
<name>7119</name>
<sym>Dot</sym>
</trkpt>
<trkpt lat="48.944860" lon="20.098313">
<ele>1106.0</ele>
<desc>Speed 22.1 km/h Distance 20.50 km</desc>
<time>2013-07-23T16:34:56.23</time>
<name>7120</name>
<sym>Dot</sym>
</trkpt>
<trkpt lat="48.944897" lon="20.098375">
<ele>1106.0</ele>
<desc>Speed 22.7 km/h Distance 20.50 km</desc>
<time>2013-07-23T16:34:57.23</time>
<name>7121</name>
<sym>Dot</sym>
</trkpt>
<trkpt lat="48.944935" lon="20.098437">
<ele>1106.0</ele>
<desc>Speed 23.0 km/h Distance 20.51 km</desc>
<time>2013-07-23T16:34:58.22</time>
<name>7122</name>
<sym>Dot</sym>
</trkpt>
<trkpt lat="48.944977" lon="20.098497">
<ele>1106.0</ele>
<desc>Speed 23.4 km/h Distance 20.51 km</desc>
<time>2013-07-23T16:34:59.22</time>
<name>7123</name>
<sym>Dot</sym>
</trkpt>
<trkpt lat="48.945027" lon="20.098555">
<ele>1106.0</ele>
<desc>Speed 23.9 km/h Distance 20.52 km</desc>
<time>2013-07-23T16:35:00.21</time>
<name>7124</name>
<sym>Dot</sym>
</trkpt>
<trkpt lat="48.945083" lon="20.098612">
<ele>1106.0</ele>
<desc>Speed 24.8 km/h Distance 20.53 km</desc>
<time>2013-07-23T16:35:01.20</time>
<name>7125</name>
<sym>Dot</sym>
</trkpt>
<trkpt lat="48.945145" lon="20.098662">
<ele>1106.0</ele>
<desc>Speed 24.8 km/h Distance 20.54 km</desc>
<time>2013-07-23T16:35:02.20</time>
<name>7126</name>
<sym>Dot</sym>
</trkpt>
<trkpt lat="48.945202" lon="20.098697">
<ele>1106.0</ele>
<desc>Speed 20.3 km/h Distance 20.54 km</desc>
<time>2013-07-23T16:35:03.20</time>
<name>7127</name>
<sym>Dot</sym>
</trkpt>
<trkpt lat="48.945235" lon="20.098725">
<ele>1106.0</ele>
<desc>Speed 14.7 km/h Distance 20.55 km</desc>
<time>2013-07-23T16:35:04.20</time>
<name>7128</name>
<sym>Dot</sym>
</trkpt>
<trkpt lat="48.945260" lon="20.098740">
<ele>1106.0</ele>
<desc>Speed 9.6 km/h Distance 20.55 km</desc>
<time>2013-07-23T16:35:05.20</time>
<name>7129</name>
<sym>Dot</sym>
</trkpt>
<trkpt lat="48.945277" lon="20.098748">
<ele>1106.0</ele>
<desc>Speed 7.2 km/h Distance 20.55 km</desc>
<time>2013-07-23T16:35:06.19</time>
<name>7130</name>
<sym>Dot</sym>
</trkpt>
<trkpt lat="48.945280" lon="20.098753">
<ele>1106.0</ele>
<desc>Speed 5.0 km/h Distance 20.55 km</desc>
<time>2013-07-23T16:35:07.19</time>
<name>7131</name>
<sym>Dot</sym>
</trkpt>
<trkpt lat="48.945280" lon="20.098753">
<ele>1106.0</ele>
<desc>Speed 3.7 km/h Distance 20.55 km</desc>
<time>2013-07-23T16:35:08.36</time>
<name>7132</name>
<sym>Dot</sym>
</trkpt>
<trkpt lat="48.945295" lon="20.098750">
<ele>1106.0</ele>
<desc>Speed 3.2 km/h Distance 20.55 km</desc>
<time>2013-07-23T16:35:12.18</time>
<name>7133</name>
<sym>Dot</sym>
</trkpt>
<trkpt lat="48.945293" lon="20.098685">
<ele>1106.0</ele>
<desc>Speed 2.3 km/h Distance 20.56 km</desc>
<time>2013-07-23T16:35:37.18</time>
<name>7134</name>
<sym>Dot</sym>
</trkpt>
<trkpt lat="48.945307" lon="20.098678">
<ele>1106.0</ele>
<desc>Speed 2.3 km/h Distance 20.56 km</desc>
<time>2013-07-23T16:35:38.17</time>
<name>7135</name>
<sym>Dot</sym>
</trkpt>
<trkpt lat="48.945347" lon="20.098528">
<ele>1105.0</ele>
<desc>Speed 2.4 km/h Distance 20.57 km</desc>
<time>2013-07-23T16:35:41.26</time>
<name>7136</name>
<sym>Dot</sym>
</trkpt>
<trkpt lat="48.945507" lon="20.098855">
<ele>1105.0</ele>
<desc>Speed 3.2 km/h Distance 20.60 km</desc>
<time>2013-07-23T16:35:54.25</time>
<name>7137</name>
<sym>Dot</sym>
</trkpt>
<trkpt lat="48.945347" lon="20.098848">
<ele>1105.0</ele>
<desc>Speed 5.3 km/h Distance 20.62 km</desc>
<time>2013-07-23T16:36:13.25</time>
<name>7138</name>
<sym>Dot</sym>
</trkpt>
<trkpt lat="48.945335" lon="20.098718">
<ele>1105.0</ele>
<desc>Speed 4.8 km/h Distance 20.63 km</desc>
<time>2013-07-23T16:36:43.25</time>
<name>7139</name>
<sym>Dot</sym>
</trkpt>
<trkpt lat="48.945345" lon="20.098702">
<ele>1105.0</ele>
<desc>Speed 4.4 km/h Distance 20.63 km</desc>
<time>2013-07-23T16:36:44.24</time>
<name>7140</name>
<sym>Dot</sym>
</trkpt>
<trkpt lat="48.945308" lon="20.098600">
<ele>1105.0</ele>
<desc>Speed 2.4 km/h Distance 20.64 km</desc>
<time>2013-07-23T16:37:12.23</time>
<name>7141</name>
<sym>Dot</sym>
</trkpt>
<trkpt lat="48.945233" lon="20.098580">
<ele>1105.0</ele>
<desc>Speed 4.5 km/h Distance 20.65 km</desc>
<time>2013-07-23T16:37:15.23</time>
<name>7142</name>
<sym>Dot</sym>
</trkpt>
<trkpt lat="48.945253" lon="20.098598">
<ele>1105.0</ele>
<desc>Speed 2.4 km/h Distance 20.65 km</desc>
<time>2013-07-23T16:37:17.23</time>
<name>7143</name>
<sym>Dot</sym>
</trkpt>
<trkpt lat="48.945213" lon="20.098607">
<ele>1105.0</ele>
<desc>Speed 9.4 km/h Distance 20.66 km</desc>
<time>2013-07-23T16:37:19.23</time>
<name>7144</name>
<sym>Dot</sym>
</trkpt>
<trkpt lat="48.945243" lon="20.098508">
<ele>1105.0</ele>
<desc>Speed 6.2 km/h Distance 20.66 km</desc>
<time>2013-07-23T16:37:48.22</time>
<name>7145</name>
<sym>Dot</sym>
</trkpt>
<trkpt lat="48.945253" lon="20.098503">
<ele>1105.0</ele>
<desc>Speed 5.4 km/h Distance 20.66 km</desc>
<time>2013-07-23T16:37:49.22</time>
<name>7146</name>
<sym>Dot</sym>
</trkpt>
<trkpt lat="48.945267" lon="20.098495">
<ele>1105.0</ele>
<desc>Speed 6.6 km/h Distance 20.67 km</desc>
<time>2013-07-23T16:37:50.22</time>
<name>7147</name>
<sym>Dot</sym>
</trkpt>
<trkpt lat="48.945293" lon="20.098500">
<ele>1105.0</ele>
<desc>Speed 7.2 km/h Distance 20.67 km</desc>
<time>2013-07-23T16:37:51.21</time>
<name>7148</name>
<sym>Dot</sym>
</trkpt>
<trkpt lat="48.945317" lon="20.098522">
<ele>1105.0</ele>
<desc>Speed 8.6 km/h Distance 20.67 km</desc>
<time>2013-07-23T16:37:52.21</time>
<name>7149</name>
<sym>Dot</sym>
</trkpt>
<trkpt lat="48.945335" lon="20.098550">
<ele>1105.0</ele>
<desc>Speed 10.7 km/h Distance 20.68 km</desc>
<time>2013-07-23T16:37:53.21</time>
<name>7150</name>
<sym>Dot</sym>
</trkpt>
<trkpt lat="48.945353" lon="20.098582">
<ele>1105.0</ele>
<desc>Speed 12.1 km/h Distance 20.68 km</desc>
<time>2013-07-23T16:37:54.20</time>
<name>7151</name>
<sym>Dot</sym>
</trkpt>
<trkpt lat="48.945372" lon="20.098612">
<ele>1105.0</ele>
<desc>Speed 13.1 km/h Distance 20.68 km</desc>
<time>2013-07-23T16:37:55.20</time>
<name>7152</name>
<sym>Dot</sym>
</trkpt>
<trkpt lat="48.945397" lon="20.098635">
<ele>1105.0</ele>
<desc>Speed 12.8 km/h Distance 20.68 km</desc>
<time>2013-07-23T16:37:56.20</time>
<name>7153</name>
<sym>Dot</sym>
</trkpt>
<trkpt lat="48.945430" lon="20.098663">
<ele>1105.0</ele>
<desc>Speed 14.4 km/h Distance 20.69 km</desc>
<time>2013-07-23T16:37:57.19</time>
<name>7154</name>
<sym>Dot</sym>
</trkpt>
<trkpt lat="48.945460" lon="20.098702">
<ele>1105.0</ele>
<desc>Speed 15.3 km/h Distance 20.69 km</desc>
<time>2013-07-23T16:37:58.19</time>
<name>7155</name>
<sym>Dot</sym>
</trkpt>
<trkpt lat="48.945485" lon="20.098738">
<ele>1105.0</ele>
<desc>Speed 15.7 km/h Distance 20.70 km</desc>
<time>2013-07-23T16:37:59.19</time>
<name>7156</name>
<sym>Dot</sym>
</trkpt>
<trkpt lat="48.945518" lon="20.098773">
<ele>1105.0</ele>
<desc>Speed 15.8 km/h Distance 20.70 km</desc>
<time>2013-07-23T16:38:00.18</time>
<name>7157</name>
<sym>Dot</sym>
</trkpt>
<trkpt lat="48.945550" lon="20.098813">
<ele>1105.0</ele>
<desc>Speed 16.9 km/h Distance 20.71 km</desc>
<time>2013-07-23T16:38:01.17</time>
<name>7158</name>
<sym>Dot</sym>
</trkpt>
<trkpt lat="48.945582" lon="20.098852">
<ele>1105.0</ele>
<desc>Speed 17.5 km/h Distance 20.71 km</desc>
<time>2013-07-23T16:38:02.17</time>
<name>7159</name>
<sym>Dot</sym>
</trkpt>
<trkpt lat="48.945617" lon="20.098902">
<ele>1105.0</ele>
<desc>Speed 17.6 km/h Distance 20.72 km</desc>
<time>2013-07-23T16:38:03.17</time>
<name>7160</name>
<sym>Dot</sym>
</trkpt>
<trkpt lat="48.945653" lon="20.098952">
<ele>1105.0</ele>
<desc>Speed 18.5 km/h Distance 20.72 km</desc>
<time>2013-07-23T16:38:04.16</time>
<name>7161</name>
<sym>Dot</sym>
</trkpt>
<trkpt lat="48.945698" lon="20.099012">
<ele>1105.0</ele>
<desc>Speed 18.8 km/h Distance 20.73 km</desc>
<time>2013-07-23T16:38:05.15</time>
<name>7162</name>
<sym>Dot</sym>
</trkpt>
<trkpt lat="48.945753" lon="20.099057">
<ele>1105.0</ele>
<desc>Speed 20.9 km/h Distance 20.73 km</desc>
<time>2013-07-23T16:38:06.15</time>
<name>7163</name>
<sym>Dot</sym>
</trkpt>
<trkpt lat="48.945797" lon="20.099100">
<ele>1105.0</ele>
<desc>Speed 20.3 km/h Distance 20.74 km</desc>
<time>2013-07-23T16:38:07.14</time>
<name>7164</name>
<sym>Dot</sym>
</trkpt>
<trkpt lat="48.945835" lon="20.099143">
<ele>1105.0</ele>
<desc>Speed 20.9 km/h Distance 20.75 km</desc>
<time>2013-07-23T16:38:08.14</time>
<name>7165</name>
<sym>Dot</sym>
</trkpt>
<trkpt lat="48.945875" lon="20.099180">
<ele>1105.0</ele>
<desc>Speed 20.6 km/h Distance 20.75 km</desc>
<time>2013-07-23T16:38:09.13</time>
<name>7166</name>
<sym>Dot</sym>
</trkpt>
<trkpt lat="48.945912" lon="20.099227">
<ele>1105.0</ele>
<desc>Speed 21.2 km/h Distance 20.76 km</desc>
<time>2013-07-23T16:38:10.13</time>
<name>7167</name>
<sym>Dot</sym>
</trkpt>
<trkpt lat="48.945955" lon="20.099275">
<ele>1105.0</ele>
<desc>Speed 21.3 km/h Distance 20.76 km</desc>
<time>2013-07-23T16:38:11.12</time>
<name>7168</name>
<sym>Dot</sym>
</trkpt>
<trkpt lat="48.945997" lon="20.099333">
<ele>1105.0</ele>
<desc>Speed 21.4 km/h Distance 20.77 km</desc>
<time>2013-07-23T16:38:12.12</time>
<name>7169</name>
<sym>Dot</sym>
</trkpt>
<trkpt lat="48.946035" lon="20.099385">
<ele>1105.0</ele>
<desc>Speed 21.3 km/h Distance 20.77 km</desc>
<time>2013-07-23T16:38:13.31</time>
<name>7170</name>
<sym>Dot</sym>
</trkpt>
<trkpt lat="48.946065" lon="20.099442">
<ele>1105.0</ele>
<desc>Speed 21.2 km/h Distance 20.78 km</desc>
<time>2013-07-23T16:38:14.11</time>
<name>7171</name>
<sym>Dot</sym>
</trkpt>
<trkpt lat="48.946100" lon="20.099493">
<ele>1105.0</ele>
<desc>Speed 22.5 km/h Distance 20.79 km</desc>
<time>2013-07-23T16:38:15.10</time>
<name>7172</name>
<sym>Dot</sym>
</trkpt>
<trkpt lat="48.946145" lon="20.099537">
<ele>1105.0</ele>
<desc>Speed 23.1 km/h Distance 20.79 km</desc>
<time>2013-07-23T16:38:16.10</time>
<name>7173</name>
<sym>Dot</sym>
</trkpt>
<trkpt lat="48.946190" lon="20.099580">
<ele>1105.0</ele>
<desc>Speed 23.3 km/h Distance 20.80 km</desc>
<time>2013-07-23T16:38:17.09</time>
<name>7174</name>
<sym>Dot</sym>
</trkpt>
<trkpt lat="48.946242" lon="20.099620">
<ele>1105.0</ele>
<desc>Speed 23.3 km/h Distance 20.80 km</desc>
<time>2013-07-23T16:38:18.08</time>
<name>7175</name>
<sym>Dot</sym>
</trkpt>
<trkpt lat="48.946295" lon="20.099655">
<ele>1105.0</ele>
<desc>Speed 22.9 km/h Distance 20.81 km</desc>
<time>2013-07-23T16:38:19.08</time>
<name>7176</name>
<sym>Dot</sym>
</trkpt>
<trkpt lat="48.946345" lon="20.099695">
<ele>1105.0</ele>
<desc>Speed 23.1 km/h Distance 20.82 km</desc>
<time>2013-07-23T16:38:20.08</time>
<name>7177</name>
<sym>Dot</sym>
</trkpt>
<trkpt lat="48.946395" lon="20.099735">
<ele>1105.0</ele>
<desc>Speed 23.4 km/h Distance 20.82 km</desc>
<time>2013-07-23T16:38:21.07</time>
<name>7178</name>
<sym>Dot</sym>
</trkpt>
<trkpt lat="48.946452" lon="20.099777">
<ele>1105.0</ele>
<desc>Speed 23.8 km/h Distance 20.83 km</desc>
<time>2013-07-23T16:38:22.07</time>
<name>7179</name>
<sym>Dot</sym>
</trkpt>
<trkpt lat="48.946515" lon="20.099815">
<ele>1105.0</ele>
<desc>Speed 23.5 km/h Distance 20.84 km</desc>
<time>2013-07-23T16:38:23.06</time>
<name>7180</name>
<sym>Dot</sym>
</trkpt>
<trkpt lat="48.946578" lon="20.099857">
<ele>1105.0</ele>
<desc>Speed 23.6 km/h Distance 20.84 km</desc>
<time>2013-07-23T16:38:24.05</time>
<name>7181</name>
<sym>Dot</sym>
</trkpt>
<trkpt lat="48.946635" lon="20.099890">
<ele>1105.0</ele>
<desc>Speed 24.3 km/h Distance 20.85 km</desc>
<time>2013-07-23T16:38:25.05</time>
<name>7182</name>
<sym>Dot</sym>
</trkpt>
<trkpt lat="48.946693" lon="20.099922">
<ele>1105.0</ele>
<desc>Speed 23.7 km/h Distance 20.86 km</desc>
<time>2013-07-23T16:38:26.04</time>
<name>7183</name>
<sym>Dot</sym>
</trkpt>
<trkpt lat="48.946757" lon="20.099953">
<ele>1105.0</ele>
<desc>Speed 23.7 km/h Distance 20.87 km</desc>
<time>2013-07-23T16:38:27.03</time>
<name>7184</name>
<sym>Dot</sym>
</trkpt>
<trkpt lat="48.946827" lon="20.099967">
<ele>1105.0</ele>
<desc>Speed 27.0 km/h Distance 20.87 km</desc>
<time>2013-07-23T16:38:28.03</time>
<name>7185</name>
<sym>Dot</sym>
</trkpt>
<trkpt lat="48.946905" lon="20.099987">
<ele>1105.0</ele>
<desc>Speed 25.9 km/h Distance 20.88 km</desc>
<time>2013-07-23T16:38:29.03</time>
<name>7186</name>
<sym>Dot</sym>
</trkpt>
<trkpt lat="48.946978" lon="20.100013">
<ele>1105.0</ele>
<desc>Speed 23.3 km/h Distance 20.89 km</desc>
<time>2013-07-23T16:38:30.02</time>
<name>7187</name>
<sym>Dot</sym>
</trkpt>
<trkpt lat="48.947045" lon="20.100007">
<ele>1105.0</ele>
<desc>Speed 25.6 km/h Distance 20.90 km</desc>
<time>2013-07-23T16:38:31.01</time>
<name>7188</name>
<sym>Dot</sym>
</trkpt>
<trkpt lat="48.947112" lon="20.100012">
<ele>1105.0</ele>
<desc>Speed 24.9 km/h Distance 20.91 km</desc>
<time>2013-07-23T16:38:32.01</time>
<name>7189</name>
<sym>Dot</sym>
</trkpt>
<trkpt lat="48.947180" lon="20.100028">
<ele>1105.0</ele>
<desc>Speed 25.6 km/h Distance 20.91 km</desc>
<time>2013-07-23T16:38:33.01</time>
<name>7190</name>
<sym>Dot</sym>
</trkpt>
<trkpt lat="48.947252" lon="20.100047">
<ele>1105.0</ele>
<desc>Speed 25.7 km/h Distance 20.92 km</desc>
<time>2013-07-23T16:38:34.00</time>
<name>7191</name>
<sym>Dot</sym>
</trkpt>
<trkpt lat="48.947417" lon="20.100097">
<ele>1105.0</ele>
<desc>Speed 25.7 km/h Distance 20.94 km</desc>
<time>2013-07-23T16:38:36.00</time>
<name>7192</name>
<sym>Dot</sym>
</trkpt>
<trkpt lat="48.947483" lon="20.100127">
<ele>1105.0</ele>
<desc>Speed 25.7 km/h Distance 20.95 km</desc>
<time>2013-07-23T16:38:37.00</time>
<name>7193</name>
<sym>Dot</sym>
</trkpt>
<trkpt lat="48.947545" lon="20.100133">
<ele>1105.0</ele>
<desc>Speed 25.2 km/h Distance 20.96 km</desc>
<time>2013-07-23T16:38:38.04</time>
<name>7194</name>
<sym>Dot</sym>
</trkpt>
<trkpt lat="48.947607" lon="20.100160">
<ele>1105.0</ele>
<desc>Speed 26.7 km/h Distance 20.96 km</desc>
<time>2013-07-23T16:38:38.99</time>
<name>7195</name>
<sym>Dot</sym>
</trkpt>
<trkpt lat="48.947668" lon="20.100185">
<ele>1105.0</ele>
<desc>Speed 26.2 km/h Distance 20.97 km</desc>
<time>2013-07-23T16:38:39.98</time>
<name>7196</name>
<sym>Dot</sym>
</trkpt>
<trkpt lat="48.947735" lon="20.100202">
<ele>1105.0</ele>
<desc>Speed 26.4 km/h Distance 20.98 km</desc>
<time>2013-07-23T16:38:41.06</time>
<name>7197</name>
<sym>Dot</sym>
</trkpt>
<trkpt lat="48.947808" lon="20.100225">
<ele>1105.0</ele>
<desc>Speed 25.6 km/h Distance 20.99 km</desc>
<time>2013-07-23T16:38:42.08</time>
<name>7198</name>
<sym>Dot</sym>
</trkpt>
<trkpt lat="48.947875" lon="20.100248">
<ele>1105.0</ele>
<desc>Speed 26.3 km/h Distance 20.99 km</desc>
<time>2013-07-23T16:38:42.97</time>
<name>7199</name>
<sym>Dot</sym>
</trkpt>
<trkpt lat="48.947935" lon="20.100270">
<ele>1105.0</ele>
<desc>Speed 25.8 km/h Distance 21.00 km</desc>
<time>2013-07-23T16:38:43.96</time>
<name>7200</name>
<sym>Dot</sym>
</trkpt>
<trkpt lat="48.948002" lon="20.100287">
<ele>1105.0</ele>
<desc>Speed 25.9 km/h Distance 21.01 km</desc>
<time>2013-07-23T16:38:44.96</time>
<name>7201</name>
<sym>Dot</sym>
</trkpt>
<trkpt lat="48.948067" lon="20.100297">
<ele>1105.0</ele>
<desc>Speed 26.4 km/h Distance 21.01 km</desc>
<time>2013-07-23T16:38:45.96</time>
<name>7202</name>
<sym>Dot</sym>
</trkpt>
<trkpt lat="48.948128" lon="20.100315">
<ele>1105.0</ele>
<desc>Speed 26.1 km/h Distance 21.02 km</desc>
<time>2013-07-23T16:38:46.96</time>
<name>7203</name>
<sym>Dot</sym>
</trkpt>
<trkpt lat="48.948195" lon="20.100328">
<ele>1105.0</ele>
<desc>Speed 26.4 km/h Distance 21.03 km</desc>
<time>2013-07-23T16:38:47.95</time>
<name>7204</name>
<sym>Dot</sym>
</trkpt>
<trkpt lat="48.948248" lon="20.100362">
<ele>1105.0</ele>
<desc>Speed 21.5 km/h Distance 21.04 km</desc>
<time>2013-07-23T16:38:49.11</time>
<name>7205</name>
<sym>Dot</sym>
</trkpt>
<trkpt lat="48.948313" lon="20.100377">
<ele>1105.0</ele>
<desc>Speed 26.6 km/h Distance 21.04 km</desc>
<time>2013-07-23T16:38:49.95</time>
<name>7206</name>
<sym>Dot</sym>
</trkpt>
<trkpt lat="48.948383" lon="20.100393">
<ele>1105.0</ele>
<desc>Speed 25.7 km/h Distance 21.05 km</desc>
<time>2013-07-23T16:38:50.94</time>
<name>7207</name>
<sym>Dot</sym>
</trkpt>
<trkpt lat="48.948452" lon="20.100413">
<ele>1105.0</ele>
<desc>Speed 26.3 km/h Distance 21.06 km</desc>
<time>2013-07-23T16:38:51.93</time>
<name>7208</name>
<sym>Dot</sym>
</trkpt>
<trkpt lat="48.948515" lon="20.100430">
<ele>1105.0</ele>
<desc>Speed 26.3 km/h Distance 21.07 km</desc>
<time>2013-07-23T16:38:52.93</time>
<name>7209</name>
<sym>Dot</sym>
</trkpt>
<trkpt lat="48.948578" lon="20.100452">
<ele>1105.0</ele>
<desc>Speed 26.4 km/h Distance 21.07 km</desc>
<time>2013-07-23T16:38:53.92</time>
<name>7210</name>
<sym>Dot</sym>
</trkpt>
<trkpt lat="48.948642" lon="20.100477">
<ele>1105.0</ele>
<desc>Speed 26.6 km/h Distance 21.08 km</desc>
<time>2013-07-23T16:38:54.91</time>
<name>7211</name>
<sym>Dot</sym>
</trkpt>
<trkpt lat="48.948702" lon="20.100510">
<ele>1105.0</ele>
<desc>Speed 26.0 km/h Distance 21.09 km</desc>
<time>2013-07-23T16:38:55.94</time>
<name>7212</name>
<sym>Dot</sym>
</trkpt>
<trkpt lat="48.948772" lon="20.100545">
<ele>1105.0</ele>
<desc>Speed 26.7 km/h Distance 21.10 km</desc>
<time>2013-07-23T16:38:56.92</time>
<name>7213</name>
<sym>Dot</sym>
</trkpt>
<trkpt lat="48.948847" lon="20.100572">
<ele>1105.0</ele>
<desc>Speed 27.6 km/h Distance 21.10 km</desc>
<time>2013-07-23T16:38:57.91</time>
<name>7214</name>
<sym>Dot</sym>
</trkpt>
<trkpt lat="48.948922" lon="20.100603">
<ele>1105.0</ele>
<desc>Speed 26.9 km/h Distance 21.11 km</desc>
<time>2013-07-23T16:38:58.91</time>
<name>7215</name>
<sym>Dot</sym>
</trkpt>
<trkpt lat="48.948988" lon="20.100623">
<ele>1105.0</ele>
<desc>Speed 26.7 km/h Distance 21.12 km</desc>
<time>2013-07-23T16:38:59.94</time>
<name>7216</name>
<sym>Dot</sym>
</trkpt>
<trkpt lat="48.949052" lon="20.100647">
<ele>1105.0</ele>
<desc>Speed 27.1 km/h Distance 21.13 km</desc>
<time>2013-07-23T16:39:01.05</time>
<name>7217</name>
<sym>Dot</sym>
</trkpt>
<trkpt lat="48.949115" lon="20.100673">
<ele>1105.0</ele>
<desc>Speed 27.3 km/h Distance 21.13 km</desc>
<time>2013-07-23T16:39:01.89</time>
<name>7218</name>
<sym>Dot</sym>
</trkpt>
<trkpt lat="48.949177" lon="20.100693">
<ele>1105.0</ele>
<desc>Speed 27.4 km/h Distance 21.14 km</desc>
<time>2013-07-23T16:39:02.89</time>
<name>7219</name>
<sym>Dot</sym>
</trkpt>
<trkpt lat="48.949245" lon="20.100710">
<ele>1105.0</ele>
<desc>Speed 26.9 km/h Distance 21.15 km</desc>
<time>2013-07-23T16:39:03.89</time>
<name>7220</name>
<sym>Dot</sym>
</trkpt>
<trkpt lat="48.949325" lon="20.100723">
<ele>1105.0</ele>
<desc>Speed 27.8 km/h Distance 21.16 km</desc>
<time>2013-07-23T16:39:04.88</time>
<name>7221</name>
<sym>Dot</sym>
</trkpt>
<trkpt lat="48.949407" lon="20.100742">
<ele>1105.0</ele>
<desc>Speed 27.3 km/h Distance 21.17 km</desc>
<time>2013-07-23T16:39:05.88</time>
<name>7222</name>
<sym>Dot</sym>
</trkpt>
<trkpt lat="48.949470" lon="20.100765">
<ele>1105.0</ele>
<desc>Speed 27.6 km/h Distance 21.17 km</desc>
<time>2013-07-23T16:39:06.87</time>
<name>7223</name>
<sym>Dot</sym>
</trkpt>
<trkpt lat="48.949538" lon="20.100783">
<ele>1105.0</ele>
<desc>Speed 27.9 km/h Distance 21.18 km</desc>
<time>2013-07-23T16:39:07.87</time>
<name>7224</name>
<sym>Dot</sym>
</trkpt>
<trkpt lat="48.949603" lon="20.100798">
<ele>1105.0</ele>
<desc>Speed 28.8 km/h Distance 21.19 km</desc>
<time>2013-07-23T16:39:08.86</time>
<name>7225</name>
<sym>Dot</sym>
</trkpt>
<trkpt lat="48.949663" lon="20.100820">
<ele>1105.0</ele>
<desc>Speed 27.1 km/h Distance 21.20 km</desc>
<time>2013-07-23T16:39:09.86</time>
<name>7226</name>
<sym>Dot</sym>
</trkpt>
<trkpt lat="48.949730" lon="20.100837">
<ele>1105.0</ele>
<desc>Speed 27.3 km/h Distance 21.20 km</desc>
<time>2013-07-23T16:39:10.86</time>
<name>7227</name>
<sym>Dot</sym>
</trkpt>
<trkpt lat="48.949800" lon="20.100852">
<ele>1105.0</ele>
<desc>Speed 28.2 km/h Distance 21.21 km</desc>
<time>2013-07-23T16:39:11.86</time>
<name>7228</name>
<sym>Dot</sym>
</trkpt>
<trkpt lat="48.949878" lon="20.100862">
<ele>1105.0</ele>
<desc>Speed 28.7 km/h Distance 21.22 km</desc>
<time>2013-07-23T16:39:12.85</time>
<name>7229</name>
<sym>Dot</sym>
</trkpt>
<trkpt lat="48.949943" lon="20.100888">
<ele>1105.0</ele>
<desc>Speed 27.8 km/h Distance 21.23 km</desc>
<time>2013-07-23T16:39:13.85</time>
<name>7230</name>
<sym>Dot</sym>
</trkpt>
<trkpt lat="48.950010" lon="20.100913">
<ele>1105.0</ele>
<desc>Speed 27.8 km/h Distance 21.24 km</desc>
<time>2013-07-23T16:39:14.85</time>
<name>7231</name>
<sym>Dot</sym>
</trkpt>
<trkpt lat="48.950082" lon="20.100935">
<ele>1105.0</ele>
<desc>Speed 27.9 km/h Distance 21.24 km</desc>
<time>2013-07-23T16:39:15.85</time>
<name>7232</name>
<sym>Dot</sym>
</trkpt>
<trkpt lat="48.950150" lon="20.100953">
<ele>1105.0</ele>
<desc>Speed 27.7 km/h Distance 21.25 km</desc>
<time>2013-07-23T16:39:16.84</time>
<name>7233</name>
<sym>Dot</sym>
</trkpt>
<trkpt lat="48.950220" lon="20.100958">
<ele>1105.0</ele>
<desc>Speed 27.8 km/h Distance 21.26 km</desc>
<time>2013-07-23T16:39:17.84</time>
<name>7234</name>
<sym>Dot</sym>
</trkpt>
<trkpt lat="48.950293" lon="20.100967">
<ele>1105.0</ele>
<desc>Speed 27.8 km/h Distance 21.27 km</desc>
<time>2013-07-23T16:39:18.84</time>
<name>7235</name>
<sym>Dot</sym>
</trkpt>
<trkpt lat="48.950367" lon="20.100978">
<ele>1105.0</ele>
<desc>Speed 27.5 km/h Distance 21.28 km</desc>
<time>2013-07-23T16:39:19.83</time>
<name>7236</name>
<sym>Dot</sym>
</trkpt>
<trkpt lat="48.950440" lon="20.100998">
<ele>1105.0</ele>
<desc>Speed 27.8 km/h Distance 21.28 km</desc>
<time>2013-07-23T16:39:20.83</time>
<name>7237</name>
<sym>Dot</sym>
</trkpt>
<trkpt lat="48.950522" lon="20.101020">
<ele>1105.0</ele>
<desc>Speed 27.6 km/h Distance 21.29 km</desc>
<time>2013-07-23T16:39:21.83</time>
<name>7238</name>
<sym>Dot</sym>
</trkpt>
<trkpt lat="48.950603" lon="20.101047">
<ele>1105.0</ele>
<desc>Speed 27.4 km/h Distance 21.30 km</desc>
<time>2013-07-23T16:39:22.82</time>
<name>7239</name>
<sym>Dot</sym>
</trkpt>
<trkpt lat="48.950685" lon="20.101075">
<ele>1105.0</ele>
<desc>Speed 27.8 km/h Distance 21.31 km</desc>
<time>2013-07-23T16:39:23.81</time>
<name>7240</name>
<sym>Dot</sym>
</trkpt>
<trkpt lat="48.950758" lon="20.101075">
<ele>1105.0</ele>
<desc>Speed 30.3 km/h Distance 21.32 km</desc>
<time>2013-07-23T16:39:24.80</time>
<name>7241</name>
<sym>Dot</sym>
</trkpt>
<trkpt lat="48.950825" lon="20.101105">
<ele>1105.0</ele>
<desc>Speed 27.9 km/h Distance 21.33 km</desc>
<time>2013-07-23T16:39:25.80</time>
<name>7242</name>
<sym>Dot</sym>
</trkpt>
<trkpt lat="48.950888" lon="20.101135">
<ele>1105.0</ele>
<desc>Speed 26.9 km/h Distance 21.34 km</desc>
<time>2013-07-23T16:39:26.79</time>
<name>7243</name>
<sym>Dot</sym>
</trkpt>
<trkpt lat="48.950948" lon="20.101160">
<ele>1105.0</ele>
<desc>Speed 28.5 km/h Distance 21.34 km</desc>
<time>2013-07-23T16:39:27.89</time>
<name>7244</name>
<sym>Dot</sym>
</trkpt>
<trkpt lat="48.951012" lon="20.101180">
<ele>1105.0</ele>
<desc>Speed 28.2 km/h Distance 21.35 km</desc>
<time>2013-07-23T16:39:28.78</time>
<name>7245</name>
<sym>Dot</sym>
</trkpt>
<trkpt lat="48.951082" lon="20.101203">
<ele>1105.0</ele>
<desc>Speed 28.0 km/h Distance 21.36 km</desc>
<time>2013-07-23T16:39:29.77</time>
<name>7246</name>
<sym>Dot</sym>
</trkpt>
<trkpt lat="48.951155" lon="20.101225">
<ele>1105.0</ele>
<desc>Speed 28.3 km/h Distance 21.37 km</desc>
<time>2013-07-23T16:39:30.77</time>
<name>7247</name>
<sym>Dot</sym>
</trkpt>
<trkpt lat="48.951228" lon="20.101250">
<ele>1105.0</ele>
<desc>Speed 27.9 km/h Distance 21.37 km</desc>
<time>2013-07-23T16:39:31.77</time>
<name>7248</name>
<sym>Dot</sym>
</trkpt>
<trkpt lat="48.951303" lon="20.101275">
<ele>1105.0</ele>
<desc>Speed 28.2 km/h Distance 21.38 km</desc>
<time>2013-07-23T16:39:32.77</time>
<name>7249</name>
<sym>Dot</sym>
</trkpt>
<trkpt lat="48.951442" lon="20.101330">
<ele>1105.0</ele>
<desc>Speed 27.4 km/h Distance 21.40 km</desc>
<time>2013-07-23T16:39:34.77</time>
<name>7250</name>
<sym>Dot</sym>
</trkpt>
<trkpt lat="48.951520" lon="20.101362">
<ele>1105.0</ele>
<desc>Speed 27.8 km/h Distance 21.41 km</desc>
<time>2013-07-23T16:39:35.76</time>
<name>7251</name>
<sym>Dot</sym>
</trkpt>
<trkpt lat="48.951600" lon="20.101395">
<ele>1105.0</ele>
<desc>Speed 28.4 km/h Distance 21.42 km</desc>
<time>2013-07-23T16:39:36.76</time>
<name>7252</name>
<sym>Dot</sym>
</trkpt>
<trkpt lat="48.951667" lon="20.101428">
<ele>1105.0</ele>
<desc>Speed 28.2 km/h Distance 21.42 km</desc>
<time>2013-07-23T16:39:37.75</time>
<name>7253</name>
<sym>Dot</sym>
</trkpt>
<trkpt lat="48.951730" lon="20.101448">
<ele>1105.0</ele>
<desc>Speed 27.6 km/h Distance 21.43 km</desc>
<time>2013-07-23T16:39:38.75</time>
<name>7254</name>
<sym>Dot</sym>
</trkpt>
<trkpt lat="48.951797" lon="20.101468">
<ele>1105.0</ele>
<desc>Speed 27.5 km/h Distance 21.44 km</desc>
<time>2013-07-23T16:39:39.75</time>
<name>7255</name>
<sym>Dot</sym>
</trkpt>
<trkpt lat="48.951862" lon="20.101497">
<ele>1105.0</ele>
<desc>Speed 27.5 km/h Distance 21.45 km</desc>
<time>2013-07-23T16:39:40.75</time>
<name>7256</name>
<sym>Dot</sym>
</trkpt>
<trkpt lat="48.951918" lon="20.101520">
<ele>1105.0</ele>
<desc>Speed 23.9 km/h Distance 21.45 km</desc>
<time>2013-07-23T16:39:41.74</time>
<name>7257</name>
<sym>Dot</sym>
</trkpt>
<trkpt lat="48.951963" lon="20.101567">
<ele>1105.0</ele>
<desc>Speed 21.4 km/h Distance 21.46 km</desc>
<time>2013-07-23T16:39:42.74</time>
<name>7258</name>
<sym>Dot</sym>
</trkpt>
<trkpt lat="48.952083" lon="20.101602">
<ele>1105.0</ele>
<desc>Speed 26.7 km/h Distance 21.47 km</desc>
<time>2013-07-23T16:39:44.74</time>
<name>7259</name>
<sym>Dot</sym>
</trkpt>
<trkpt lat="48.952150" lon="20.101630">
<ele>1105.0</ele>
<desc>Speed 27.3 km/h Distance 21.48 km</desc>
<time>2013-07-23T16:39:45.73</time>
<name>7260</name>
<sym>Dot</sym>
</trkpt>
<trkpt lat="48.952222" lon="20.101652">
<ele>1105.0</ele>
<desc>Speed 27.1 km/h Distance 21.49 km</desc>
<time>2013-07-23T16:39:46.73</time>
<name>7261</name>
<sym>Dot</sym>
</trkpt>
<trkpt lat="48.952293" lon="20.101680">
<ele>1105.0</ele>
<desc>Speed 26.7 km/h Distance 21.50 km</desc>
<time>2013-07-23T16:39:47.73</time>
<name>7262</name>
<sym>Dot</sym>
</trkpt>
<trkpt lat="48.952367" lon="20.101712">
<ele>1105.0</ele>
<desc>Speed 27.0 km/h Distance 21.51 km</desc>
<time>2013-07-23T16:39:48.73</time>
<name>7263</name>
<sym>Dot</sym>
</trkpt>
<trkpt lat="48.952427" lon="20.101735">
<ele>1105.0</ele>
<desc>Speed 26.6 km/h Distance 21.51 km</desc>
<time>2013-07-23T16:39:49.72</time>
<name>7264</name>
<sym>Dot</sym>
</trkpt>
<trkpt lat="48.952482" lon="20.101753">
<ele>1105.0</ele>
<desc>Speed 23.1 km/h Distance 21.52 km</desc>
<time>2013-07-23T16:39:50.72</time>
<name>7265</name>
<sym>Dot</sym>
</trkpt>
<trkpt lat="48.952538" lon="20.101775">
<ele>1105.0</ele>
<desc>Speed 24.2 km/h Distance 21.53 km</desc>
<time>2013-07-23T16:39:51.71</time>
<name>7266</name>
<sym>Dot</sym>
</trkpt>
<trkpt lat="48.952588" lon="20.101822">
<ele>1105.0</ele>
<desc>Speed 22.3 km/h Distance 21.53 km</desc>
<time>2013-07-23T16:39:52.71</time>
<name>7267</name>
<sym>Dot</sym>
</trkpt>
<trkpt lat="48.952642" lon="20.101855">
<ele>1105.0</ele>
<desc>Speed 24.1 km/h Distance 21.54 km</desc>
<time>2013-07-23T16:39:53.74</time>
<name>7268</name>
<sym>Dot</sym>
</trkpt>
<trkpt lat="48.952707" lon="20.101893">
<ele>1105.0</ele>
<desc>Speed 25.6 km/h Distance 21.55 km</desc>
<time>2013-07-23T16:39:54.70</time>
<name>7269</name>
<sym>Dot</sym>
</trkpt>
<trkpt lat="48.952772" lon="20.101923">
<ele>1105.0</ele>
<desc>Speed 25.5 km/h Distance 21.55 km</desc>
<time>2013-07-23T16:39:55.70</time>
<name>7270</name>
<sym>Dot</sym>
</trkpt>
<trkpt lat="48.952840" lon="20.101950">
<ele>1105.0</ele>
<desc>Speed 27.8 km/h Distance 21.56 km</desc>
<time>2013-07-23T16:39:56.69</time>
<name>7271</name>
<sym>Dot</sym>
</trkpt>
<trkpt lat="48.952905" lon="20.101982">
<ele>1105.0</ele>
<desc>Speed 26.2 km/h Distance 21.57 km</desc>
<time>2013-07-23T16:39:57.69</time>
<name>7272</name>
<sym>Dot</sym>
</trkpt>
<trkpt lat="48.952970" lon="20.102018">
<ele>1105.0</ele>
<desc>Speed 25.3 km/h Distance 21.58 km</desc>
<time>2013-07-23T16:39:58.68</time>
<name>7273</name>
<sym>Dot</sym>
</trkpt>
<trkpt lat="48.953037" lon="20.102057">
<ele>1105.0</ele>
<desc>Speed 25.1 km/h Distance 21.58 km</desc>
<time>2013-07-23T16:39:59.68</time>
<name>7274</name>
<sym>Dot</sym>
</trkpt>
<trkpt lat="48.953102" lon="20.102102">
<ele>1105.0</ele>
<desc>Speed 25.1 km/h Distance 21.59 km</desc>
<time>2013-07-23T16:40:00.68</time>
<name>7275</name>
<sym>Dot</sym>
</trkpt>
<trkpt lat="48.953157" lon="20.102142">
<ele>1105.0</ele>
<desc>Speed 24.9 km/h Distance 21.60 km</desc>
<time>2013-07-23T16:40:01.67</time>
<name>7276</name>
<sym>Dot</sym>
</trkpt>
<trkpt lat="48.953212" lon="20.102182">
<ele>1105.0</ele>
<desc>Speed 25.2 km/h Distance 21.61 km</desc>
<time>2013-07-23T16:40:02.67</time>
<name>7277</name>
<sym>Dot</sym>
</trkpt>
<trkpt lat="48.953263" lon="20.102230">
<ele>1105.0</ele>
<desc>Speed 24.8 km/h Distance 21.61 km</desc>
<time>2013-07-23T16:40:03.68</time>
<name>7278</name>
<sym>Dot</sym>
</trkpt>
<trkpt lat="48.953322" lon="20.102270">
<ele>1105.0</ele>
<desc>Speed 24.3 km/h Distance 21.62 km</desc>
<time>2013-07-23T16:40:04.67</time>
<name>7279</name>
<sym>Dot</sym>
</trkpt>
<trkpt lat="48.953385" lon="20.102310">
<ele>1105.0</ele>
<desc>Speed 24.0 km/h Distance 21.63 km</desc>
<time>2013-07-23T16:40:05.66</time>
<name>7280</name>
<sym>Dot</sym>
</trkpt>
<trkpt lat="48.953448" lon="20.102353">
<ele>1105.0</ele>
<desc>Speed 24.3 km/h Distance 21.64 km</desc>
<time>2013-07-23T16:40:06.65</time>
<name>7281</name>
<sym>Dot</sym>
</trkpt>
<trkpt lat="48.953502" lon="20.102390">
<ele>1105.0</ele>
<desc>Speed 23.9 km/h Distance 21.64 km</desc>
<time>2013-07-23T16:40:07.65</time>
<name>7282</name>
<sym>Dot</sym>
</trkpt>
<trkpt lat="48.953550" lon="20.102422">
<ele>1105.0</ele>
<desc>Speed 23.3 km/h Distance 21.65 km</desc>
<time>2013-07-23T16:40:08.64</time>
<name>7283</name>
<sym>Dot</sym>
</trkpt>
<trkpt lat="48.953602" lon="20.102457">
<ele>1105.0</ele>
<desc>Speed 23.4 km/h Distance 21.65 km</desc>
<time>2013-07-23T16:40:09.64</time>
<name>7284</name>
<sym>Dot</sym>
</trkpt>
<trkpt lat="48.953653" lon="20.102495">
<ele>1105.0</ele>
<desc>Speed 23.2 km/h Distance 21.66 km</desc>
<time>2013-07-23T16:40:10.63</time>
<name>7285</name>
<sym>Dot</sym>
</trkpt>
<trkpt lat="48.953705" lon="20.102533">
<ele>1105.0</ele>
<desc>Speed 23.3 km/h Distance 21.67 km</desc>
<time>2013-07-23T16:40:11.63</time>
<name>7286</name>
<sym>Dot</sym>
</trkpt>
<trkpt lat="48.953752" lon="20.102568">
<ele>1105.0</ele>
<desc>Speed 23.5 km/h Distance 21.67 km</desc>
<time>2013-07-23T16:40:12.63</time>
<name>7287</name>
<sym>Dot</sym>
</trkpt>
<trkpt lat="48.953798" lon="20.102602">
<ele>1105.0</ele>
<desc>Speed 23.6 km/h Distance 21.68 km</desc>
<time>2013-07-23T16:40:13.62</time>
<name>7288</name>
<sym>Dot</sym>
</trkpt>
<trkpt lat="48.953840" lon="20.102648">
<ele>1105.0</ele>
<desc>Speed 23.3 km/h Distance 21.68 km</desc>
<time>2013-07-23T16:40:14.62</time>
<name>7289</name>
<sym>Dot</sym>
</trkpt>
<trkpt lat="48.953883" lon="20.102697">
<ele>1105.0</ele>
<desc>Speed 23.8 km/h Distance 21.69 km</desc>
<time>2013-07-23T16:40:15.62</time>
<name>7290</name>
<sym>Dot</sym>
</trkpt>
<trkpt lat="48.953940" lon="20.102735">
<ele>1105.0</ele>
<desc>Speed 23.7 km/h Distance 21.70 km</desc>
<time>2013-07-23T16:40:16.62</time>
<name>7291</name>
<sym>Dot</sym>
</trkpt>
<trkpt lat="48.953997" lon="20.102780">
<ele>1105.0</ele>
<desc>Speed 23.7 km/h Distance 21.70 km</desc>
<time>2013-07-23T16:40:17.61</time>
<name>7292</name>
<sym>Dot</sym>
</trkpt>
<trkpt lat="48.954055" lon="20.102825">
<ele>1105.0</ele>
<desc>Speed 23.3 km/h Distance 21.71 km</desc>
<time>2013-07-23T16:40:18.61</time>
<name>7293</name>
<sym>Dot</sym>
</trkpt>
<trkpt lat="48.954112" lon="20.102870">
<ele>1105.0</ele>
<desc>Speed 22.9 km/h Distance 21.72 km</desc>
<time>2013-07-23T16:40:19.60</time>
<name>7294</name>
<sym>Dot</sym>
</trkpt>
<trkpt lat="48.954157" lon="20.102912">
<ele>1105.0</ele>
<desc>Speed 22.8 km/h Distance 21.72 km</desc>
<time>2013-07-23T16:40:20.60</time>
<name>7295</name>
<sym>Dot</sym>
</trkpt>
<trkpt lat="48.954207" lon="20.102945">
<ele>1105.0</ele>
<desc>Speed 22.6 km/h Distance 21.73 km</desc>
<time>2013-07-23T16:40:21.60</time>
<name>7296</name>
<sym>Dot</sym>
</trkpt>
<trkpt lat="48.954258" lon="20.102980">
<ele>1105.0</ele>
<desc>Speed 22.1 km/h Distance 21.74 km</desc>
<time>2013-07-23T16:40:22.59</time>
<name>7297</name>
<sym>Dot</sym>
</trkpt>
<trkpt lat="48.954303" lon="20.103018">
<ele>1105.0</ele>
<desc>Speed 22.8 km/h Distance 21.74 km</desc>
<time>2013-07-23T16:40:23.59</time>
<name>7298</name>
<sym>Dot</sym>
</trkpt>
<trkpt lat="48.954352" lon="20.103062">
<ele>1105.0</ele>
<desc>Speed 23.1 km/h Distance 21.75 km</desc>
<time>2013-07-23T16:40:24.59</time>
<name>7299</name>
<sym>Dot</sym>
</trkpt>
<trkpt lat="48.954398" lon="20.103105">
<ele>1105.0</ele>
<desc>Speed 23.1 km/h Distance 21.75 km</desc>
<time>2013-07-23T16:40:25.58</time>
<name>7300</name>
<sym>Dot</sym>
</trkpt>
<trkpt lat="48.954452" lon="20.103143">
<ele>1105.0</ele>
<desc>Speed 22.7 km/h Distance 21.76 km</desc>
<time>2013-07-23T16:40:26.64</time>
<name>7301</name>
<sym>Dot</sym>
</trkpt>
<trkpt lat="48.954502" lon="20.103187">
<ele>1105.0</ele>
<desc>Speed 23.0 km/h Distance 21.77 km</desc>
<time>2013-07-23T16:40:27.57</time>
<name>7302</name>
<sym>Dot</sym>
</trkpt>
<trkpt lat="48.954550" lon="20.103222">
<ele>1105.0</ele>
<desc>Speed 23.0 km/h Distance 21.77 km</desc>
<time>2013-07-23T16:40:28.57</time>
<name>7303</name>
<sym>Dot</sym>
</trkpt>
<trkpt lat="48.954598" lon="20.103258">
<ele>1105.0</ele>
<desc>Speed 23.0 km/h Distance 21.78 km</desc>
<time>2013-07-23T16:40:29.56</time>
<name>7304</name>
<sym>Dot</sym>
</trkpt>
<trkpt lat="48.954648" lon="20.103287">
<ele>1105.0</ele>
<desc>Speed 22.9 km/h Distance 21.79 km</desc>
<time>2013-07-23T16:40:30.56</time>
<name>7305</name>
<sym>Dot</sym>
</trkpt>
<trkpt lat="48.954697" lon="20.103320">
<ele>1105.0</ele>
<desc>Speed 22.2 km/h Distance 21.79 km</desc>
<time>2013-07-23T16:40:31.56</time>
<name>7306</name>
<sym>Dot</sym>
</trkpt>
<trkpt lat="48.954747" lon="20.103362">
<ele>1105.0</ele>
<desc>Speed 22.8 km/h Distance 21.80 km</desc>
<time>2013-07-23T16:40:32.55</time>
<name>7307</name>
<sym>Dot</sym>
</trkpt>
<trkpt lat="48.954803" lon="20.103402">
<ele>1105.0</ele>
<desc>Speed 23.3 km/h Distance 21.81 km</desc>
<time>2013-07-23T16:40:33.55</time>
<name>7308</name>
<sym>Dot</sym>
</trkpt>
<trkpt lat="48.954865" lon="20.103440">
<ele>1105.0</ele>
<desc>Speed 23.3 km/h Distance 21.81 km</desc>
<time>2013-07-23T16:40:34.54</time>
<name>7309</name>
<sym>Dot</sym>
</trkpt>
<trkpt lat="48.954923" lon="20.103483">
<ele>1105.0</ele>
<desc>Speed 23.3 km/h Distance 21.82 km</desc>
<time>2013-07-23T16:40:35.53</time>
<name>7310</name>
<sym>Dot</sym>
</trkpt>
<trkpt lat="48.954985" lon="20.103530">
<ele>1105.0</ele>
<desc>Speed 23.7 km/h Distance 21.83 km</desc>
<time>2013-07-23T16:40:36.53</time>
<name>7311</name>
<sym>Dot</sym>
</trkpt>
<trkpt lat="48.955045" lon="20.103577">
<ele>1105.0</ele>
<desc>Speed 23.6 km/h Distance 21.83 km</desc>
<time>2013-07-23T16:40:37.53</time>
<name>7312</name>
<sym>Dot</sym>
</trkpt>
<trkpt lat="48.955098" lon="20.103613">
<ele>1105.0</ele>
<desc>Speed 23.7 km/h Distance 21.84 km</desc>
<time>2013-07-23T16:40:38.52</time>
<name>7313</name>
<sym>Dot</sym>
</trkpt>
<trkpt lat="48.955152" lon="20.103650">
<ele>1105.0</ele>
<desc>Speed 23.3 km/h Distance 21.85 km</desc>
<time>2013-07-23T16:40:39.52</time>
<name>7314</name>
<sym>Dot</sym>
</trkpt>
<trkpt lat="48.955207" lon="20.103688">
<ele>1105.0</ele>
<desc>Speed 23.4 km/h Distance 21.85 km</desc>
<time>2013-07-23T16:40:40.52</time>
<name>7315</name>
<sym>Dot</sym>
</trkpt>
<trkpt lat="48.955268" lon="20.103723">
<ele>1105.0</ele>
<desc>Speed 23.3 km/h Distance 21.86 km</desc>
<time>2013-07-23T16:40:41.52</time>
<name>7316</name>
<sym>Dot</sym>
</trkpt>
<trkpt lat="48.955318" lon="20.103760">
<ele>1105.0</ele>
<desc>Speed 22.6 km/h Distance 21.87 km</desc>
<time>2013-07-23T16:40:42.51</time>
<name>7317</name>
<sym>Dot</sym>
</trkpt>
<trkpt lat="48.955367" lon="20.103798">
<ele>1105.0</ele>
<desc>Speed 21.9 km/h Distance 21.87 km</desc>
<time>2013-07-23T16:40:43.51</time>
<name>7318</name>
<sym>Dot</sym>
</trkpt>
<trkpt lat="48.955417" lon="20.103835">
<ele>1105.0</ele>
<desc>Speed 22.1 km/h Distance 21.88 km</desc>
<time>2013-07-23T16:40:44.53</time>
<name>7319</name>
<sym>Dot</sym>
</trkpt>
<trkpt lat="48.955472" lon="20.103868">
<ele>1105.0</ele>
<desc>Speed 23.1 km/h Distance 21.89 km</desc>
<time>2013-07-23T16:40:45.50</time>
<name>7320</name>
<sym>Dot</sym>
</trkpt>
<trkpt lat="48.955525" lon="20.103903">
<ele>1105.0</ele>
<desc>Speed 22.8 km/h Distance 21.89 km</desc>
<time>2013-07-23T16:40:46.50</time>
<name>7321</name>
<sym>Dot</sym>
</trkpt>
<trkpt lat="48.955585" lon="20.103938">
<ele>1105.0</ele>
<desc>Speed 22.7 km/h Distance 21.90 km</desc>
<time>2013-07-23T16:40:47.49</time>
<name>7322</name>
<sym>Dot</sym>
</trkpt>
<trkpt lat="48.955640" lon="20.103978">
<ele>1105.0</ele>
<desc>Speed 22.7 km/h Distance 21.91 km</desc>
<time>2013-07-23T16:40:48.49</time>
<name>7323</name>
<sym>Dot</sym>
</trkpt>
<trkpt lat="48.955695" lon="20.104012">
<ele>1105.0</ele>
<desc>Speed 22.1 km/h Distance 21.91 km</desc>
<time>2013-07-23T16:40:49.49</time>
<name>7324</name>
<sym>Dot</sym>
</trkpt>
<trkpt lat="48.955748" lon="20.104045">
<ele>1105.0</ele>
<desc>Speed 21.7 km/h Distance 21.92 km</desc>
<time>2013-07-23T16:40:50.49</time>
<name>7325</name>
<sym>Dot</sym>
</trkpt>
<trkpt lat="48.955805" lon="20.104077">
<ele>1105.0</ele>
<desc>Speed 21.5 km/h Distance 21.93 km</desc>
<time>2013-07-23T16:40:51.48</time>
<name>7326</name>
<sym>Dot</sym>
</trkpt>
<trkpt lat="48.955860" lon="20.104108">
<ele>1105.0</ele>
<desc>Speed 20.9 km/h Distance 21.93 km</desc>
<time>2013-07-23T16:40:52.48</time>
<name>7327</name>
<sym>Dot</sym>
</trkpt>
<trkpt lat="48.955903" lon="20.104142">
<ele>1105.0</ele>
<desc>Speed 20.1 km/h Distance 21.94 km</desc>
<time>2013-07-23T16:40:53.48</time>
<name>7328</name>
<sym>Dot</sym>
</trkpt>
<trkpt lat="48.955947" lon="20.104173">
<ele>1105.0</ele>
<desc>Speed 19.6 km/h Distance 21.94 km</desc>
<time>2013-07-23T16:40:54.51</time>
<name>7329</name>
<sym>Dot</sym>
</trkpt>
<trkpt lat="48.955997" lon="20.104197">
<ele>1105.0</ele>
<desc>Speed 18.6 km/h Distance 21.95 km</desc>
<time>2013-07-23T16:40:55.48</time>
<name>7330</name>
<sym>Dot</sym>
</trkpt>
<trkpt lat="48.956045" lon="20.104220">
<ele>1105.0</ele>
<desc>Speed 18.2 km/h Distance 21.96 km</desc>
<time>2013-07-23T16:40:56.47</time>
<name>7331</name>
<sym>Dot</sym>
</trkpt>
<trkpt lat="48.956092" lon="20.104252">
<ele>1105.0</ele>
<desc>Speed 17.7 km/h Distance 21.96 km</desc>
<time>2013-07-23T16:40:57.47</time>
<name>7332</name>
<sym>Dot</sym>
</trkpt>
<trkpt lat="48.956117" lon="20.104288">
<ele>1105.0</ele>
<desc>Speed 14.1 km/h Distance 21.97 km</desc>
<time>2013-07-23T16:40:58.47</time>
<name>7333</name>
<sym>Dot</sym>
</trkpt>
<trkpt lat="48.956138" lon="20.104322">
<ele>1105.0</ele>
<desc>Speed 11.1 km/h Distance 21.97 km</desc>
<time>2013-07-23T16:40:59.47</time>
<name>7334</name>
<sym>Dot</sym>
</trkpt>
<trkpt lat="48.956142" lon="20.104350">
<ele>1105.0</ele>
<desc>Speed 8.0 km/h Distance 21.97 km</desc>
<time>2013-07-23T16:41:00.46</time>
<name>7335</name>
<sym>Dot</sym>
</trkpt>
<trkpt lat="48.956142" lon="20.104367">
<ele>1105.0</ele>
<desc>Speed 5.4 km/h Distance 21.97 km</desc>
<time>2013-07-23T16:41:01.46</time>
<name>7336</name>
<sym>Dot</sym>
</trkpt>
<trkpt lat="48.956137" lon="20.104373">
<ele>1105.0</ele>
<desc>Speed 4.8 km/h Distance 21.97 km</desc>
<time>2013-07-23T16:41:02.46</time>
<name>7337</name>
<sym>Dot</sym>
</trkpt>
<trkpt lat="48.956132" lon="20.104378">
<ele>1105.0</ele>
<desc>Speed 4.8 km/h Distance 21.97 km</desc>
<time>2013-07-23T16:41:03.46</time>
<name>7338</name>
<sym>Dot</sym>
</trkpt>
<trkpt lat="48.956130" lon="20.104387">
<ele>1105.0</ele>
<desc>Speed 4.4 km/h Distance 21.97 km</desc>
<time>2013-07-23T16:41:04.46</time>
<name>7339</name>
<sym>Dot</sym>
</trkpt>
<trkpt lat="48.956123" lon="20.104382">
<ele>1105.0</ele>
<desc>Speed 3.5 km/h Distance 21.98 km</desc>
<time>2013-07-23T16:41:05.46</time>
<name>7340</name>
<sym>Dot</sym>
</trkpt>
<trkpt lat="48.956252" lon="20.104392">
<ele>1105.0</ele>
<desc>Speed 2.3 km/h Distance 21.99 km</desc>
<time>2013-07-23T16:41:25.46</time>
<name>7341</name>
<sym>Dot</sym>
</trkpt>
<trkpt lat="48.956265" lon="20.104633">
<ele>1105.0</ele>
<desc>Speed 2.4 km/h Distance 22.01 km</desc>
<time>2013-07-23T16:41:52.46</time>
<name>7342</name>
<sym>Dot</sym>
</trkpt>
<trkpt lat="48.956233" lon="20.104748">
<ele>1105.0</ele>
<desc>Speed 3.3 km/h Distance 22.02 km</desc>
<time>2013-07-23T16:41:57.26</time>
<name>7343</name>
<sym>Dot</sym>
</trkpt>
<trkpt lat="48.956237" lon="20.104747">
<ele>1105.0</ele>
<desc>Speed 2.6 km/h Distance 22.02 km</desc>
<time>2013-07-23T16:41:58.84</time>
<name>7344</name>
<sym>Dot</sym>
</trkpt>
<trkpt lat="48.956538" lon="20.104252">
<ele>1105.0</ele>
<desc>Speed 3.4 km/h Distance 22.07 km</desc>
<time>2013-07-23T16:42:12.24</time>
<name>7345</name>
<sym>Dot</sym>
</trkpt>
<trkpt lat="48.956572" lon="20.104240">
<ele>1105.0</ele>
<desc>Speed 4.1 km/h Distance 22.07 km</desc>
<time>2013-07-23T16:42:18.29</time>
<name>7346</name>
<sym>Dot</sym>
</trkpt>
<trkpt lat="48.956562" lon="20.104233">
<ele>1104.5</ele>
<desc>Speed 3.3 km/h Distance 22.07 km</desc>
<time>2013-07-23T16:42:19.37</time>
<name>7347</name>
<sym>Dot</sym>
</trkpt>
<trkpt lat="48.956607" lon="20.104203">
<ele>1104.5</ele>
<desc>Speed 7.3 km/h Distance 22.08 km</desc>
<time>2013-07-23T16:42:23.31</time>
<name>7348</name>
<sym>Dot</sym>
</trkpt>
<trkpt lat="48.956603" lon="20.104190">
<ele>1104.5</ele>
<desc>Speed 7.4 km/h Distance 22.08 km</desc>
<time>2013-07-23T16:42:24.25</time>
<name>7349</name>
<sym>Dot</sym>
</trkpt>
<trkpt lat="48.956598" lon="20.104185">
<ele>1104.5</ele>
<desc>Speed 8.3 km/h Distance 22.08 km</desc>
<time>2013-07-23T16:42:25.25</time>
<name>7350</name>
<sym>Dot</sym>
</trkpt>
<trkpt lat="48.956590" lon="20.104192">
<ele>1104.5</ele>
<desc>Speed 8.8 km/h Distance 22.08 km</desc>
<time>2013-07-23T16:42:26.25</time>
<name>7351</name>
<sym>Dot</sym>
</trkpt>
<trkpt lat="48.956583" lon="20.104205">
<ele>1104.5</ele>
<desc>Speed 9.5 km/h Distance 22.08 km</desc>
<time>2013-07-23T16:42:27.24</time>
<name>7352</name>
<sym>Dot</sym>
</trkpt>
<trkpt lat="48.956588" lon="20.104228">
<ele>1104.0</ele>
<desc>Speed 9.5 km/h Distance 22.08 km</desc>
<time>2013-07-23T16:42:28.24</time>
<name>7353</name>
<sym>Dot</sym>
</trkpt>
<trkpt lat="48.956627" lon="20.104245">
<ele>1104.0</ele>
<desc>Speed 11.7 km/h Distance 22.09 km</desc>
<time>2013-07-23T16:42:30.24</time>
<name>7354</name>
<sym>Dot</sym>
</trkpt>
<trkpt lat="48.956648" lon="20.104263">
<ele>1104.0</ele>
<desc>Speed 13.6 km/h Distance 22.09 km</desc>
<time>2013-07-23T16:42:31.23</time>
<name>7355</name>
<sym>Dot</sym>
</trkpt>
<trkpt lat="48.956678" lon="20.104287">
<ele>1104.0</ele>
<desc>Speed 14.9 km/h Distance 22.09 km</desc>
<time>2013-07-23T16:42:32.23</time>
<name>7356</name>
<sym>Dot</sym>
</trkpt>
<trkpt lat="48.956708" lon="20.104312">
<ele>1103.5</ele>
<desc>Speed 15.8 km/h Distance 22.10 km</desc>
<time>2013-07-23T16:42:33.22</time>
<name>7357</name>
<sym>Dot</sym>
</trkpt>
<trkpt lat="48.956742" lon="20.104338">
<ele>1103.5</ele>
<desc>Speed 16.3 km/h Distance 22.10 km</desc>
<time>2013-07-23T16:42:34.22</time>
<name>7358</name>
<sym>Dot</sym>
</trkpt>
<trkpt lat="48.956765" lon="20.104360">
<ele>1103.5</ele>
<desc>Speed 17.0 km/h Distance 22.10 km</desc>
<time>2013-07-23T16:42:35.21</time>
<name>7359</name>
<sym>Dot</sym>
</trkpt>
<trkpt lat="48.956788" lon="20.104385">
<ele>1103.0</ele>
<desc>Speed 17.6 km/h Distance 22.11 km</desc>
<time>2013-07-23T16:42:36.21</time>
<name>7360</name>
<sym>Dot</sym>
</trkpt>
<trkpt lat="48.956828" lon="20.104413">
<ele>1103.0</ele>
<desc>Speed 18.1 km/h Distance 22.11 km</desc>
<time>2013-07-23T16:42:37.20</time>
<name>7361</name>
<sym>Dot</sym>
</trkpt>
<trkpt lat="48.956872" lon="20.104447">
<ele>1103.0</ele>
<desc>Speed 18.9 km/h Distance 22.12 km</desc>
<time>2013-07-23T16:42:38.20</time>
<name>7362</name>
<sym>Dot</sym>
</trkpt>
<trkpt lat="48.956917" lon="20.104480">
<ele>1102.5</ele>
<desc>Speed 19.7 km/h Distance 22.12 km</desc>
<time>2013-07-23T16:42:39.19</time>
<name>7363</name>
<sym>Dot</sym>
</trkpt>
<trkpt lat="48.956960" lon="20.104513">
<ele>1102.5</ele>
<desc>Speed 19.8 km/h Distance 22.13 km</desc>
<time>2013-07-23T16:42:40.19</time>
<name>7364</name>
<sym>Dot</sym>
</trkpt>
<trkpt lat="48.957008" lon="20.104552">
<ele>1102.5</ele>
<desc>Speed 20.1 km/h Distance 22.13 km</desc>
<time>2013-07-23T16:42:41.18</time>
<name>7365</name>
<sym>Dot</sym>
</trkpt>
<trkpt lat="48.957065" lon="20.104582">
<ele>1102.0</ele>
<desc>Speed 20.4 km/h Distance 22.14 km</desc>
<time>2013-07-23T16:42:42.18</time>
<name>7366</name>
<sym>Dot</sym>
</trkpt>
<trkpt lat="48.957118" lon="20.104615">
<ele>1102.0</ele>
<desc>Speed 20.3 km/h Distance 22.15 km</desc>
<time>2013-07-23T16:42:43.18</time>
<name>7367</name>
<sym>Dot</sym>
</trkpt>
<trkpt lat="48.957162" lon="20.104643">
<ele>1101.5</ele>
<desc>Speed 20.6 km/h Distance 22.15 km</desc>
<time>2013-07-23T16:42:44.17</time>
<name>7368</name>
<sym>Dot</sym>
</trkpt>
<trkpt lat="48.957202" lon="20.104680">
<ele>1101.5</ele>
<desc>Speed 20.3 km/h Distance 22.16 km</desc>
<time>2013-07-23T16:42:45.17</time>
<name>7369</name>
<sym>Dot</sym>
</trkpt>
<trkpt lat="48.957242" lon="20.104718">
<ele>1101.5</ele>
<desc>Speed 20.3 km/h Distance 22.16 km</desc>
<time>2013-07-23T16:42:46.17</time>
<name>7370</name>
<sym>Dot</sym>
</trkpt>
<trkpt lat="48.957285" lon="20.104747">
<ele>1101.5</ele>
<desc>Speed 20.3 km/h Distance 22.17 km</desc>
<time>2013-07-23T16:42:47.17</time>
<name>7371</name>
<sym>Dot</sym>
</trkpt>
<trkpt lat="48.957335" lon="20.104767">
<ele>1101.0</ele>
<desc>Speed 19.9 km/h Distance 22.17 km</desc>
<time>2013-07-23T16:42:48.17</time>
<name>7372</name>
<sym>Dot</sym>
</trkpt>
<trkpt lat="48.957382" lon="20.104788">
<ele>1100.5</ele>
<desc>Speed 19.4 km/h Distance 22.18 km</desc>
<time>2013-07-23T16:42:49.16</time>
<name>7373</name>
<sym>Dot</sym>
</trkpt>
<trkpt lat="48.957428" lon="20.104810">
<ele>1100.5</ele>
<desc>Speed 19.2 km/h Distance 22.19 km</desc>
<time>2013-07-23T16:42:50.16</time>
<name>7374</name>
<sym>Dot</sym>
</trkpt>
<trkpt lat="48.957470" lon="20.104837">
<ele>1100.0</ele>
<desc>Speed 18.5 km/h Distance 22.19 km</desc>
<time>2013-07-23T16:42:51.16</time>
<name>7375</name>
<sym>Dot</sym>
</trkpt>
<trkpt lat="48.957508" lon="20.104865">
<ele>1099.5</ele>
<desc>Speed 18.0 km/h Distance 22.20 km</desc>
<time>2013-07-23T16:42:52.15</time>
<name>7376</name>
<sym>Dot</sym>
</trkpt>
<trkpt lat="48.957553" lon="20.104885">
<ele>1099.0</ele>
<desc>Speed 17.9 km/h Distance 22.20 km</desc>
<time>2013-07-23T16:42:53.15</time>
<name>7377</name>
<sym>Dot</sym>
</trkpt>
<trkpt lat="48.957598" lon="20.104910">
<ele>1098.5</ele>
<desc>Speed 17.8 km/h Distance 22.21 km</desc>
<time>2013-07-23T16:42:54.15</time>
<name>7378</name>
<sym>Dot</sym>
</trkpt>
<trkpt lat="48.957642" lon="20.104937">
<ele>1098.5</ele>
<desc>Speed 17.5 km/h Distance 22.21 km</desc>
<time>2013-07-23T16:42:55.14</time>
<name>7379</name>
<sym>Dot</sym>
</trkpt>
<trkpt lat="48.957687" lon="20.104963">
<ele>1098.0</ele>
<desc>Speed 17.8 km/h Distance 22.22 km</desc>
<time>2013-07-23T16:42:56.14</time>
<name>7380</name>
<sym>Dot</sym>
</trkpt>
<trkpt lat="48.957725" lon="20.104982">
<ele>1097.5</ele>
<desc>Speed 17.5 km/h Distance 22.22 km</desc>
<time>2013-07-23T16:42:57.13</time>
<name>7381</name>
<sym>Dot</sym>
</trkpt>
<trkpt lat="48.957770" lon="20.105003">
<ele>1097.0</ele>
<desc>Speed 17.4 km/h Distance 22.23 km</desc>
<time>2013-07-23T16:42:58.13</time>
<name>7382</name>
<sym>Dot</sym>
</trkpt>
<trkpt lat="48.957812" lon="20.105025">
<ele>1097.0</ele>
<desc>Speed 17.6 km/h Distance 22.23 km</desc>
<time>2013-07-23T16:42:59.13</time>
<name>7383</name>
<sym>Dot</sym>
</trkpt>
<trkpt lat="48.957842" lon="20.105057">
<ele>1096.5</ele>
<desc>Speed 17.6 km/h Distance 22.23 km</desc>
<time>2013-07-23T16:43:00.12</time>
<name>7384</name>
<sym>Dot</sym>
</trkpt>
<trkpt lat="48.957878" lon="20.105077">
<ele>1096.5</ele>
<desc>Speed 16.8 km/h Distance 22.24 km</desc>
<time>2013-07-23T16:43:01.12</time>
<name>7385</name>
<sym>Dot</sym>
</trkpt>
<trkpt lat="48.957913" lon="20.105097">
<ele>1096.0</ele>
<desc>Speed 17.5 km/h Distance 22.24 km</desc>
<time>2013-07-23T16:43:02.12</time>
<name>7386</name>
<sym>Dot</sym>
</trkpt>
<trkpt lat="48.957962" lon="20.105105">
<ele>1096.0</ele>
<desc>Speed 17.7 km/h Distance 22.25 km</desc>
<time>2013-07-23T16:43:03.11</time>
<name>7387</name>
<sym>Dot</sym>
</trkpt>
<trkpt lat="48.958005" lon="20.105115">
<ele>1095.5</ele>
<desc>Speed 17.7 km/h Distance 22.25 km</desc>
<time>2013-07-23T16:43:04.11</time>
<name>7388</name>
<sym>Dot</sym>
</trkpt>
<trkpt lat="48.958052" lon="20.105122">
<ele>1095.5</ele>
<desc>Speed 17.5 km/h Distance 22.26 km</desc>
<time>2013-07-23T16:43:05.10</time>
<name>7389</name>
<sym>Dot</sym>
</trkpt>
<trkpt lat="48.958102" lon="20.105127">
<ele>1095.0</ele>
<desc>Speed 18.0 km/h Distance 22.26 km</desc>
<time>2013-07-23T16:43:06.09</time>
<name>7390</name>
<sym>Dot</sym>
</trkpt>
<trkpt lat="48.958152" lon="20.105123">
<ele>1095.0</ele>
<desc>Speed 18.3 km/h Distance 22.27 km</desc>
<time>2013-07-23T16:43:07.09</time>
<name>7391</name>
<sym>Dot</sym>
</trkpt>
<trkpt lat="48.958203" lon="20.105118">
<ele>1095.0</ele>
<desc>Speed 19.2 km/h Distance 22.28 km</desc>
<time>2013-07-23T16:43:08.11</time>
<name>7392</name>
<sym>Dot</sym>
</trkpt>
<trkpt lat="48.958253" lon="20.105107">
<ele>1094.5</ele>
<desc>Speed 19.4 km/h Distance 22.28 km</desc>
<time>2013-07-23T16:43:09.09</time>
<name>7393</name>
<sym>Dot</sym>
</trkpt>
<trkpt lat="48.958300" lon="20.105088">
<ele>1094.5</ele>
<desc>Speed 19.8 km/h Distance 22.29 km</desc>
<time>2013-07-23T16:43:10.09</time>
<name>7394</name>
<sym>Dot</sym>
</trkpt>
<trkpt lat="48.958342" lon="20.105070">
<ele>1094.0</ele>
<desc>Speed 20.2 km/h Distance 22.29 km</desc>
<time>2013-07-23T16:43:11.08</time>
<name>7395</name>
<sym>Dot</sym>
</trkpt>
<trkpt lat="48.958383" lon="20.105048">
<ele>1093.5</ele>
<desc>Speed 20.5 km/h Distance 22.30 km</desc>
<time>2013-07-23T16:43:12.08</time>
<name>7396</name>
<sym>Dot</sym>
</trkpt>
<trkpt lat="48.958428" lon="20.105025">
<ele>1093.5</ele>
<desc>Speed 19.8 km/h Distance 22.30 km</desc>
<time>2013-07-23T16:43:13.07</time>
<name>7397</name>
<sym>Dot</sym>
</trkpt>
<trkpt lat="48.958563" lon="20.104918">
<ele>1093.0</ele>
<desc>Speed 19.7 km/h Distance 22.32 km</desc>
<time>2013-07-23T16:43:16.27</time>
<name>7398</name>
<sym>Dot</sym>
</trkpt>
<trkpt lat="48.958607" lon="20.104890">
<ele>1093.0</ele>
<desc>Speed 19.7 km/h Distance 22.32 km</desc>
<time>2013-07-23T16:43:17.26</time>
<name>7399</name>
<sym>Dot</sym>
</trkpt>
<trkpt lat="48.958737" lon="20.104783">
<ele>1093.0</ele>
<desc>Speed 20.1 km/h Distance 22.34 km</desc>
<time>2013-07-23T16:43:20.26</time>
<name>7400</name>
<sym>Dot</sym>
</trkpt>
<trkpt lat="48.958775" lon="20.104758">
<ele>1093.0</ele>
<desc>Speed 20.2 km/h Distance 22.35 km</desc>
<time>2013-07-23T16:43:21.25</time>
<name>7401</name>
<sym>Dot</sym>
</trkpt>
<trkpt lat="48.958857" lon="20.104675">
<ele>1093.0</ele>
<desc>Speed 19.8 km/h Distance 22.36 km</desc>
<time>2013-07-23T16:43:23.25</time>
<name>7402</name>
<sym>Dot</sym>
</trkpt>
<trkpt lat="48.958898" lon="20.104637">
<ele>1093.0</ele>
<desc>Speed 19.8 km/h Distance 22.36 km</desc>
<time>2013-07-23T16:43:24.25</time>
<name>7403</name>
<sym>Dot</sym>
</trkpt>
<trkpt lat="48.958942" lon="20.104602">
<ele>1093.0</ele>
<desc>Speed 20.2 km/h Distance 22.37 km</desc>
<time>2013-07-23T16:43:25.24</time>
<name>7404</name>
<sym>Dot</sym>
</trkpt>
<trkpt lat="48.959113" lon="20.104457">
<ele>1093.0</ele>
<desc>Speed 20.6 km/h Distance 22.39 km</desc>
<time>2013-07-23T16:43:29.33</time>
<name>7405</name>
<sym>Dot</sym>
</trkpt>
<trkpt lat="48.959243" lon="20.104350">
<ele>1092.5</ele>
<desc>Speed 21.3 km/h Distance 22.41 km</desc>
<time>2013-07-23T16:43:32.26</time>
<name>7406</name>
<sym>Dot</sym>
</trkpt>
<trkpt lat="48.959518" lon="20.104108">
<ele>1092.5</ele>
<desc>Speed 21.0 km/h Distance 22.44 km</desc>
<time>2013-07-23T16:43:38.26</time>
<name>7407</name>
<sym>Dot</sym>
</trkpt>
<trkpt lat="48.959572" lon="20.104078">
<ele>1092.0</ele>
<desc>Speed 22.4 km/h Distance 22.45 km</desc>
<time>2013-07-23T16:43:39.26</time>
<name>7408</name>
<sym>Dot</sym>
</trkpt>
<trkpt lat="48.959733" lon="20.104008">
<ele>1092.0</ele>
<desc>Speed 23.0 km/h Distance 22.47 km</desc>
<time>2013-07-23T16:43:42.26</time>
<name>7409</name>
<sym>Dot</sym>
</trkpt>
<trkpt lat="48.959788" lon="20.103995">
<ele>1091.5</ele>
<desc>Speed 23.7 km/h Distance 22.47 km</desc>
<time>2013-07-23T16:43:43.25</time>
<name>7410</name>
<sym>Dot</sym>
</trkpt>
<trkpt lat="48.959843" lon="20.103983">
<ele>1091.0</ele>
<desc>Speed 23.9 km/h Distance 22.48 km</desc>
<time>2013-07-23T16:43:44.25</time>
<name>7411</name>
<sym>Dot</sym>
</trkpt>
<trkpt lat="48.959910" lon="20.103962">
<ele>1090.5</ele>
<desc>Speed 23.7 km/h Distance 22.49 km</desc>
<time>2013-07-23T16:43:45.24</time>
<name>7412</name>
<sym>Dot</sym>
</trkpt>
<trkpt lat="48.959968" lon="20.103970">
<ele>1090.0</ele>
<desc>Speed 23.2 km/h Distance 22.49 km</desc>
<time>2013-07-23T16:43:46.28</time>
<name>7413</name>
<sym>Dot</sym>
</trkpt>
<trkpt lat="48.960025" lon="20.103985">
<ele>1089.5</ele>
<desc>Speed 23.3 km/h Distance 22.50 km</desc>
<time>2013-07-23T16:43:47.23</time>
<name>7414</name>
<sym>Dot</sym>
</trkpt>
<trkpt lat="48.960080" lon="20.103998">
<ele>1089.0</ele>
<desc>Speed 23.6 km/h Distance 22.50 km</desc>
<time>2013-07-23T16:43:48.23</time>
<name>7415</name>
<sym>Dot</sym>
</trkpt>
<trkpt lat="48.960138" lon="20.104003">
<ele>1089.0</ele>
<desc>Speed 23.5 km/h Distance 22.51 km</desc>
<time>2013-07-23T16:43:49.22</time>
<name>7416</name>
<sym>Dot</sym>
</trkpt>
<trkpt lat="48.960202" lon="20.104002">
<ele>1088.5</ele>
<desc>Speed 23.3 km/h Distance 22.52 km</desc>
<time>2013-07-23T16:43:50.22</time>
<name>7417</name>
<sym>Dot</sym>
</trkpt>
<trkpt lat="48.960262" lon="20.103987">
<ele>1088.5</ele>
<desc>Speed 22.9 km/h Distance 22.53 km</desc>
<time>2013-07-23T16:43:51.22</time>
<name>7418</name>
<sym>Dot</sym>
</trkpt>
<trkpt lat="48.960320" lon="20.103975">
<ele>1088.5</ele>
<desc>Speed 23.0 km/h Distance 22.53 km</desc>
<time>2013-07-23T16:43:52.21</time>
<name>7419</name>
<sym>Dot</sym>
</trkpt>
<trkpt lat="48.960382" lon="20.103963">
<ele>1088.0</ele>
<desc>Speed 23.3 km/h Distance 22.54 km</desc>
<time>2013-07-23T16:43:53.20</time>
<name>7420</name>
<sym>Dot</sym>
</trkpt>
<trkpt lat="48.960440" lon="20.103940">
<ele>1087.5</ele>
<desc>Speed 23.4 km/h Distance 22.55 km</desc>
<time>2013-07-23T16:43:54.20</time>
<name>7421</name>
<sym>Dot</sym>
</trkpt>
<trkpt lat="48.960500" lon="20.103918">
<ele>1087.0</ele>
<desc>Speed 23.9 km/h Distance 22.55 km</desc>
<time>2013-07-23T16:43:55.19</time>
<name>7422</name>
<sym>Dot</sym>
</trkpt>
<trkpt lat="48.960560" lon="20.103902">
<ele>1086.5</ele>
<desc>Speed 23.6 km/h Distance 22.56 km</desc>
<time>2013-07-23T16:43:56.19</time>
<name>7423</name>
<sym>Dot</sym>
</trkpt>
<trkpt lat="48.960615" lon="20.103893">
<ele>1086.0</ele>
<desc>Speed 22.8 km/h Distance 22.57 km</desc>
<time>2013-07-23T16:43:57.19</time>
<name>7424</name>
<sym>Dot</sym>
</trkpt>
<trkpt lat="48.960665" lon="20.103902">
<ele>1085.5</ele>
<desc>Speed 21.8 km/h Distance 22.57 km</desc>
<time>2013-07-23T16:43:58.18</time>
<name>7425</name>
<sym>Dot</sym>
</trkpt>
<trkpt lat="48.960713" lon="20.103908">
<ele>1085.0</ele>
<desc>Speed 21.0 km/h Distance 22.58 km</desc>
<time>2013-07-23T16:43:59.28</time>
<name>7426</name>
<sym>Dot</sym>
</trkpt>
<trkpt lat="48.960762" lon="20.103918">
<ele>1084.5</ele>
<desc>Speed 20.6 km/h Distance 22.58 km</desc>
<time>2013-07-23T16:44:00.17</time>
<name>7427</name>
<sym>Dot</sym>
</trkpt>
<trkpt lat="48.960813" lon="20.103920">
<ele>1084.0</ele>
<desc>Speed 20.3 km/h Distance 22.59 km</desc>
<time>2013-07-23T16:44:01.17</time>
<name>7428</name>
<sym>Dot</sym>
</trkpt>
<trkpt lat="48.960865" lon="20.103922">
<ele>1083.5</ele>
<desc>Speed 20.0 km/h Distance 22.59 km</desc>
<time>2013-07-23T16:44:02.17</time>
<name>7429</name>
<sym>Dot</sym>
</trkpt>
<trkpt lat="48.960917" lon="20.103923">
<ele>1083.0</ele>
<desc>Speed 20.1 km/h Distance 22.60 km</desc>
<time>2013-07-23T16:44:03.16</time>
<name>7430</name>
<sym>Dot</sym>
</trkpt>
<trkpt lat="48.960962" lon="20.103918">
<ele>1082.5</ele>
<desc>Speed 20.0 km/h Distance 22.60 km</desc>
<time>2013-07-23T16:44:04.16</time>
<name>7431</name>
<sym>Dot</sym>
</trkpt>
<trkpt lat="48.961012" lon="20.103923">
<ele>1082.5</ele>
<desc>Speed 19.8 km/h Distance 22.61 km</desc>
<time>2013-07-23T16:44:05.16</time>
<name>7432</name>
<sym>Dot</sym>
</trkpt>
<trkpt lat="48.961062" lon="20.103925">
<ele>1082.5</ele>
<desc>Speed 19.9 km/h Distance 22.61 km</desc>
<time>2013-07-23T16:44:06.15</time>
<name>7433</name>
<sym>Dot</sym>
</trkpt>
<trkpt lat="48.961118" lon="20.103917">
<ele>1082.0</ele>
<desc>Speed 20.1 km/h Distance 22.62 km</desc>
<time>2013-07-23T16:44:07.15</time>
<name>7434</name>
<sym>Dot</sym>
</trkpt>
<trkpt lat="48.961180" lon="20.103908">
<ele>1081.5</ele>
<desc>Speed 20.4 km/h Distance 22.63 km</desc>
<time>2013-07-23T16:44:08.19</time>
<name>7435</name>
<sym>Dot</sym>
</trkpt>
<trkpt lat="48.961237" lon="20.103903">
<ele>1081.0</ele>
<desc>Speed 20.6 km/h Distance 22.63 km</desc>
<time>2013-07-23T16:44:09.13</time>
<name>7436</name>
<sym>Dot</sym>
</trkpt>
<trkpt lat="48.961292" lon="20.103890">
<ele>1080.5</ele>
<desc>Speed 20.1 km/h Distance 22.64 km</desc>
<time>2013-07-23T16:44:10.13</time>
<name>7437</name>
<sym>Dot</sym>
</trkpt>
<trkpt lat="48.961340" lon="20.103887">
<ele>1080.5</ele>
<desc>Speed 20.3 km/h Distance 22.65 km</desc>
<time>2013-07-23T16:44:11.13</time>
<name>7438</name>
<sym>Dot</sym>
</trkpt>
<trkpt lat="48.961388" lon="20.103888">
<ele>1080.0</ele>
<desc>Speed 20.6 km/h Distance 22.65 km</desc>
<time>2013-07-23T16:44:12.12</time>
<name>7439</name>
<sym>Dot</sym>
</trkpt>
<trkpt lat="48.961435" lon="20.103888">
<ele>1079.5</ele>
<desc>Speed 20.5 km/h Distance 22.66 km</desc>
<time>2013-07-23T16:44:13.12</time>
<name>7440</name>
<sym>Dot</sym>
</trkpt>
<trkpt lat="48.961492" lon="20.103878">
<ele>1079.0</ele>
<desc>Speed 20.3 km/h Distance 22.66 km</desc>
<time>2013-07-23T16:44:14.12</time>
<name>7441</name>
<sym>Dot</sym>
</trkpt>
<trkpt lat="48.961547" lon="20.103882">
<ele>1079.0</ele>
<desc>Speed 20.6 km/h Distance 22.67 km</desc>
<time>2013-07-23T16:44:15.11</time>
<name>7442</name>
<sym>Dot</sym>
</trkpt>
<trkpt lat="48.961600" lon="20.103883">
<ele>1078.5</ele>
<desc>Speed 20.4 km/h Distance 22.68 km</desc>
<time>2013-07-23T16:44:16.10</time>
<name>7443</name>
<sym>Dot</sym>
</trkpt>
<trkpt lat="48.961650" lon="20.103882">
<ele>1078.5</ele>
<desc>Speed 20.3 km/h Distance 22.68 km</desc>
<time>2013-07-23T16:44:17.10</time>
<name>7444</name>
<sym>Dot</sym>
</trkpt>
<trkpt lat="48.961695" lon="20.103887">
<ele>1078.0</ele>
<desc>Speed 20.4 km/h Distance 22.69 km</desc>
<time>2013-07-23T16:44:18.19</time>
<name>7445</name>
<sym>Dot</sym>
</trkpt>
<trkpt lat="48.961737" lon="20.103893">
<ele>1078.0</ele>
<desc>Speed 20.3 km/h Distance 22.69 km</desc>
<time>2013-07-23T16:44:19.09</time>
<name>7446</name>
<sym>Dot</sym>
</trkpt>
<trkpt lat="48.961777" lon="20.103907">
<ele>1077.5</ele>
<desc>Speed 20.1 km/h Distance 22.69 km</desc>
<time>2013-07-23T16:44:20.09</time>
<name>7447</name>
<sym>Dot</sym>
</trkpt>
<trkpt lat="48.961827" lon="20.103908">
<ele>1077.5</ele>
<desc>Speed 20.1 km/h Distance 22.70 km</desc>
<time>2013-07-23T16:44:21.09</time>
<name>7448</name>
<sym>Dot</sym>
</trkpt>
<trkpt lat="48.961882" lon="20.103903">
<ele>1077.5</ele>
<desc>Speed 19.9 km/h Distance 22.71 km</desc>
<time>2013-07-23T16:44:22.09</time>
<name>7449</name>
<sym>Dot</sym>
</trkpt>
<trkpt lat="48.961932" lon="20.103903">
<ele>1077.0</ele>
<desc>Speed 19.7 km/h Distance 22.71 km</desc>
<time>2013-07-23T16:44:23.08</time>
<name>7450</name>
<sym>Dot</sym>
</trkpt>
<trkpt lat="48.961983" lon="20.103902">
<ele>1077.0</ele>
<desc>Speed 20.0 km/h Distance 22.72 km</desc>
<time>2013-07-23T16:44:24.07</time>
<name>7451</name>
<sym>Dot</sym>
</trkpt>
<trkpt lat="48.962032" lon="20.103910">
<ele>1076.5</ele>
<desc>Speed 20.2 km/h Distance 22.72 km</desc>
<time>2013-07-23T16:44:25.07</time>
<name>7452</name>
<sym>Dot</sym>
</trkpt>
<trkpt lat="48.962080" lon="20.103918">
<ele>1076.5</ele>
<desc>Speed 20.1 km/h Distance 22.73 km</desc>
<time>2013-07-23T16:44:26.07</time>
<name>7453</name>
<sym>Dot</sym>
</trkpt>
<trkpt lat="48.962127" lon="20.103923">
<ele>1076.5</ele>
<desc>Speed 20.9 km/h Distance 22.73 km</desc>
<time>2013-07-23T16:44:27.08</time>
<name>7454</name>
<sym>Dot</sym>
</trkpt>
<trkpt lat="48.962177" lon="20.103920">
<ele>1076.5</ele>
<desc>Speed 20.6 km/h Distance 22.74 km</desc>
<time>2013-07-23T16:44:28.07</time>
<name>7455</name>
<sym>Dot</sym>
</trkpt>
<trkpt lat="48.962235" lon="20.103912">
<ele>1076.0</ele>
<desc>Speed 21.0 km/h Distance 22.75 km</desc>
<time>2013-07-23T16:44:29.06</time>
<name>7456</name>
<sym>Dot</sym>
</trkpt>
<trkpt lat="48.962288" lon="20.103908">
<ele>1076.0</ele>
<desc>Speed 21.5 km/h Distance 22.75 km</desc>
<time>2013-07-23T16:44:30.05</time>
<name>7457</name>
<sym>Dot</sym>
</trkpt>
<trkpt lat="48.962345" lon="20.103905">
<ele>1075.5</ele>
<desc>Speed 22.1 km/h Distance 22.76 km</desc>
<time>2013-07-23T16:44:31.05</time>
<name>7458</name>
<sym>Dot</sym>
</trkpt>
<trkpt lat="48.962405" lon="20.103908">
<ele>1075.0</ele>
<desc>Speed 22.5 km/h Distance 22.76 km</desc>
<time>2013-07-23T16:44:32.05</time>
<name>7459</name>
<sym>Dot</sym>
</trkpt>
<trkpt lat="48.962465" lon="20.103912">
<ele>1074.5</ele>
<desc>Speed 22.6 km/h Distance 22.77 km</desc>
<time>2013-07-23T16:44:33.04</time>
<name>7460</name>
<sym>Dot</sym>
</trkpt>
<trkpt lat="48.962522" lon="20.103915">
<ele>1074.5</ele>
<desc>Speed 23.0 km/h Distance 22.78 km</desc>
<time>2013-07-23T16:44:34.04</time>
<name>7461</name>
<sym>Dot</sym>
</trkpt>
<trkpt lat="48.962583" lon="20.103918">
<ele>1074.0</ele>
<desc>Speed 23.4 km/h Distance 22.78 km</desc>
<time>2013-07-23T16:44:35.12</time>
<name>7462</name>
<sym>Dot</sym>
</trkpt>
<trkpt lat="48.962638" lon="20.103918">
<ele>1074.0</ele>
<desc>Speed 23.7 km/h Distance 22.79 km</desc>
<time>2013-07-23T16:44:36.03</time>
<name>7463</name>
<sym>Dot</sym>
</trkpt>
<trkpt lat="48.962695" lon="20.103920">
<ele>1074.0</ele>
<desc>Speed 23.3 km/h Distance 22.80 km</desc>
<time>2013-07-23T16:44:37.02</time>
<name>7464</name>
<sym>Dot</sym>
</trkpt>
<trkpt lat="48.962755" lon="20.103917">
<ele>1074.0</ele>
<desc>Speed 23.3 km/h Distance 22.80 km</desc>
<time>2013-07-23T16:44:38.02</time>
<name>7465</name>
<sym>Dot</sym>
</trkpt>
<trkpt lat="48.962813" lon="20.103920">
<ele>1073.5</ele>
<desc>Speed 23.1 km/h Distance 22.81 km</desc>
<time>2013-07-23T16:44:39.02</time>
<name>7466</name>
<sym>Dot</sym>
</trkpt>
<trkpt lat="48.962873" lon="20.103925">
<ele>1073.5</ele>
<desc>Speed 23.2 km/h Distance 22.82 km</desc>
<time>2013-07-23T16:44:40.02</time>
<name>7467</name>
<sym>Dot</sym>
</trkpt>
<trkpt lat="48.962925" lon="20.103925">
<ele>1073.5</ele>
<desc>Speed 21.7 km/h Distance 22.82 km</desc>
<time>2013-07-23T16:44:41.02</time>
<name>7468</name>
<sym>Dot</sym>
</trkpt>
<trkpt lat="48.962977" lon="20.103922">
<ele>1073.5</ele>
<desc>Speed 21.0 km/h Distance 22.83 km</desc>
<time>2013-07-23T16:44:42.01</time>
<name>7469</name>
<sym>Dot</sym>
</trkpt>
<trkpt lat="48.963032" lon="20.103922">
<ele>1073.0</ele>
<desc>Speed 20.7 km/h Distance 22.83 km</desc>
<time>2013-07-23T16:44:43.00</time>
<name>7470</name>
<sym>Dot</sym>
</trkpt>
<trkpt lat="48.963087" lon="20.103923">
<ele>1073.0</ele>
<desc>Speed 20.6 km/h Distance 22.84 km</desc>
<time>2013-07-23T16:44:44.00</time>
<name>7471</name>
<sym>Dot</sym>
</trkpt>
<trkpt lat="48.963142" lon="20.103928">
<ele>1073.0</ele>
<desc>Speed 21.0 km/h Distance 22.85 km</desc>
<time>2013-07-23T16:44:44.99</time>
<name>7472</name>
<sym>Dot</sym>
</trkpt>
<trkpt lat="48.963195" lon="20.103933">
<ele>1072.5</ele>
<desc>Speed 21.0 km/h Distance 22.85 km</desc>
<time>2013-07-23T16:44:45.99</time>
<name>7473</name>
<sym>Dot</sym>
</trkpt>
<trkpt lat="48.963247" lon="20.103942">
<ele>1072.5</ele>
<desc>Speed 20.7 km/h Distance 22.86 km</desc>
<time>2013-07-23T16:44:46.99</time>
<name>7474</name>
<sym>Dot</sym>
</trkpt>
<trkpt lat="48.963297" lon="20.103945">
<ele>1072.5</ele>
<desc>Speed 20.8 km/h Distance 22.86 km</desc>
<time>2013-07-23T16:44:47.98</time>
<name>7475</name>
<sym>Dot</sym>
</trkpt>
<trkpt lat="48.963350" lon="20.103947">
<ele>1072.0</ele>
<desc>Speed 21.2 km/h Distance 22.87 km</desc>
<time>2013-07-23T16:44:48.98</time>
<name>7476</name>
<sym>Dot</sym>
</trkpt>
<trkpt lat="48.963402" lon="20.103952">
<ele>1072.0</ele>
<desc>Speed 21.5 km/h Distance 22.88 km</desc>
<time>2013-07-23T16:44:49.97</time>
<name>7477</name>
<sym>Dot</sym>
</trkpt>
<trkpt lat="48.963457" lon="20.103957">
<ele>1072.0</ele>
<desc>Speed 21.9 km/h Distance 22.88 km</desc>
<time>2013-07-23T16:44:50.97</time>
<name>7478</name>
<sym>Dot</sym>
</trkpt>
<trkpt lat="48.963512" lon="20.103958">
<ele>1072.0</ele>
<desc>Speed 22.2 km/h Distance 22.89 km</desc>
<time>2013-07-23T16:44:51.97</time>
<name>7479</name>
<sym>Dot</sym>
</trkpt>
<trkpt lat="48.963567" lon="20.103960">
<ele>1072.0</ele>
<desc>Speed 22.1 km/h Distance 22.89 km</desc>
<time>2013-07-23T16:44:52.96</time>
<name>7480</name>
<sym>Dot</sym>
</trkpt>
<trkpt lat="48.963627" lon="20.103953">
<ele>1072.0</ele>
<desc>Speed 22.3 km/h Distance 22.90 km</desc>
<time>2013-07-23T16:44:53.96</time>
<name>7481</name>
<sym>Dot</sym>
</trkpt>
<trkpt lat="48.963687" lon="20.103943">
<ele>1071.5</ele>
<desc>Speed 22.2 km/h Distance 22.91 km</desc>
<time>2013-07-23T16:44:54.96</time>
<name>7482</name>
<sym>Dot</sym>
</trkpt>
<trkpt lat="48.963745" lon="20.103945">
<ele>1071.5</ele>
<desc>Speed 22.6 km/h Distance 22.91 km</desc>
<time>2013-07-23T16:44:55.96</time>
<name>7483</name>
<sym>Dot</sym>
</trkpt>
<trkpt lat="48.963802" lon="20.103950">
<ele>1071.5</ele>
<desc>Speed 23.0 km/h Distance 22.92 km</desc>
<time>2013-07-23T16:44:56.95</time>
<name>7484</name>
<sym>Dot</sym>
</trkpt>
<trkpt lat="48.963857" lon="20.103955">
<ele>1071.5</ele>
<desc>Speed 22.7 km/h Distance 22.93 km</desc>
<time>2013-07-23T16:44:57.95</time>
<name>7485</name>
<sym>Dot</sym>
</trkpt>
<trkpt lat="48.963918" lon="20.103950">
<ele>1071.0</ele>
<desc>Speed 22.2 km/h Distance 22.93 km</desc>
<time>2013-07-23T16:44:58.94</time>
<name>7486</name>
<sym>Dot</sym>
</trkpt>
<trkpt lat="48.963977" lon="20.103953">
<ele>1071.0</ele>
<desc>Speed 21.8 km/h Distance 22.94 km</desc>
<time>2013-07-23T16:44:59.94</time>
<name>7487</name>
<sym>Dot</sym>
</trkpt>
<trkpt lat="48.964027" lon="20.103970">
<ele>1071.0</ele>
<desc>Speed 21.4 km/h Distance 22.95 km</desc>
<time>2013-07-23T16:45:00.94</time>
<name>7488</name>
<sym>Dot</sym>
</trkpt>
<trkpt lat="48.964080" lon="20.103992">
<ele>1071.0</ele>
<desc>Speed 21.4 km/h Distance 22.95 km</desc>
<time>2013-07-23T16:45:01.93</time>
<name>7489</name>
<sym>Dot</sym>
</trkpt>
<trkpt lat="48.964135" lon="20.104020">
<ele>1070.5</ele>
<desc>Speed 21.7 km/h Distance 22.96 km</desc>
<time>2013-07-23T16:45:02.93</time>
<name>7490</name>
<sym>Dot</sym>
</trkpt>
<trkpt lat="48.964185" lon="20.104058">
<ele>1070.5</ele>
<desc>Speed 22.2 km/h Distance 22.96 km</desc>
<time>2013-07-23T16:45:03.93</time>
<name>7491</name>
<sym>Dot</sym>
</trkpt>
<trkpt lat="48.964233" lon="20.104102">
<ele>1070.5</ele>
<desc>Speed 22.6 km/h Distance 22.97 km</desc>
<time>2013-07-23T16:45:04.93</time>
<name>7492</name>
<sym>Dot</sym>
</trkpt>
<trkpt lat="48.964283" lon="20.104142">
<ele>1070.5</ele>
<desc>Speed 22.8 km/h Distance 22.98 km</desc>
<time>2013-07-23T16:45:05.93</time>
<name>7493</name>
<sym>Dot</sym>
</trkpt>
<trkpt lat="48.964337" lon="20.104173">
<ele>1070.5</ele>
<desc>Speed 23.0 km/h Distance 22.98 km</desc>
<time>2013-07-23T16:45:06.92</time>
<name>7494</name>
<sym>Dot</sym>
</trkpt>
<trkpt lat="48.964387" lon="20.104208">
<ele>1070.0</ele>
<desc>Speed 23.3 km/h Distance 22.99 km</desc>
<time>2013-07-23T16:45:07.99</time>
<name>7495</name>
<sym>Dot</sym>
</trkpt>
<trkpt lat="48.964437" lon="20.104248">
<ele>1070.0</ele>
<desc>Speed 23.3 km/h Distance 23.00 km</desc>
<time>2013-07-23T16:45:08.91</time>
<name>7496</name>
<sym>Dot</sym>
</trkpt>
<trkpt lat="48.964488" lon="20.104293">
<ele>1070.0</ele>
<desc>Speed 23.7 km/h Distance 23.00 km</desc>
<time>2013-07-23T16:45:09.91</time>
<name>7497</name>
<sym>Dot</sym>
</trkpt>
<trkpt lat="48.964538" lon="20.104335">
<ele>1070.0</ele>
<desc>Speed 24.0 km/h Distance 23.01 km</desc>
<time>2013-07-23T16:45:10.90</time>
<name>7498</name>
<sym>Dot</sym>
</trkpt>
<trkpt lat="48.964592" lon="20.104380">
<ele>1070.0</ele>
<desc>Speed 23.9 km/h Distance 23.02 km</desc>
<time>2013-07-23T16:45:11.89</time>
<name>7499</name>
<sym>Dot</sym>
</trkpt>
<trkpt lat="48.964645" lon="20.104415">
<ele>1070.0</ele>
<desc>Speed 23.9 km/h Distance 23.02 km</desc>
<time>2013-07-23T16:45:12.89</time>
<name>7500</name>
<sym>Dot</sym>
</trkpt>
<trkpt lat="48.964697" lon="20.104450">
<ele>1070.0</ele>
<desc>Speed 24.1 km/h Distance 23.03 km</desc>
<time>2013-07-23T16:45:13.88</time>
<name>7501</name>
<sym>Dot</sym>
</trkpt>
<trkpt lat="48.964755" lon="20.104482">
<ele>1069.5</ele>
<desc>Speed 23.8 km/h Distance 23.04 km</desc>
<time>2013-07-23T16:45:14.87</time>
<name>7502</name>
<sym>Dot</sym>
</trkpt>
<trkpt lat="48.964813" lon="20.104515">
<ele>1069.5</ele>
<desc>Speed 23.8 km/h Distance 23.04 km</desc>
<time>2013-07-23T16:45:15.87</time>
<name>7503</name>
<sym>Dot</sym>
</trkpt>
<trkpt lat="48.964872" lon="20.104550">
<ele>1069.5</ele>
<desc>Speed 24.4 km/h Distance 23.05 km</desc>
<time>2013-07-23T16:45:16.87</time>
<name>7504</name>
<sym>Dot</sym>
</trkpt>
<trkpt lat="48.964927" lon="20.104597">
<ele>1069.5</ele>
<desc>Speed 24.8 km/h Distance 23.06 km</desc>
<time>2013-07-23T16:45:17.87</time>
<name>7505</name>
<sym>Dot</sym>
</trkpt>
<trkpt lat="48.964985" lon="20.104640">
<ele>1069.5</ele>
<desc>Speed 25.3 km/h Distance 23.06 km</desc>
<time>2013-07-23T16:45:18.86</time>
<name>7506</name>
<sym>Dot</sym>
</trkpt>
<trkpt lat="48.965050" lon="20.104677">
<ele>1069.0</ele>
<desc>Speed 25.1 km/h Distance 23.07 km</desc>
<time>2013-07-23T16:45:19.86</time>
<name>7507</name>
<sym>Dot</sym>
</trkpt>
<trkpt lat="48.965110" lon="20.104713">
<ele>1069.0</ele>
<desc>Speed 25.1 km/h Distance 23.08 km</desc>
<time>2013-07-23T16:45:20.85</time>
<name>7508</name>
<sym>Dot</sym>
</trkpt>
<trkpt lat="48.965168" lon="20.104755">
<ele>1069.0</ele>
<desc>Speed 25.4 km/h Distance 23.09 km</desc>
<time>2013-07-23T16:45:21.85</time>
<name>7509</name>
<sym>Dot</sym>
</trkpt>
<trkpt lat="48.965225" lon="20.104803">
<ele>1069.0</ele>
<desc>Speed 25.6 km/h Distance 23.09 km</desc>
<time>2013-07-23T16:45:22.87</time>
<name>7510</name>
<sym>Dot</sym>
</trkpt>
<trkpt lat="48.965287" lon="20.104840">
<ele>1068.5</ele>
<desc>Speed 25.9 km/h Distance 23.10 km</desc>
<time>2013-07-23T16:45:23.84</time>
<name>7511</name>
<sym>Dot</sym>
</trkpt>
<trkpt lat="48.965340" lon="20.104895">
<ele>1068.5</ele>
<desc>Speed 26.6 km/h Distance 23.11 km</desc>
<time>2013-07-23T16:45:24.83</time>
<name>7512</name>
<sym>Dot</sym>
</trkpt>
<trkpt lat="48.965393" lon="20.104958">
<ele>1068.5</ele>
<desc>Speed 27.1 km/h Distance 23.11 km</desc>
<time>2013-07-23T16:45:25.83</time>
<name>7513</name>
<sym>Dot</sym>
</trkpt>
<trkpt lat="48.965443" lon="20.105028">
<ele>1068.5</ele>
<desc>Speed 27.4 km/h Distance 23.12 km</desc>
<time>2013-07-23T16:45:26.83</time>
<name>7514</name>
<sym>Dot</sym>
</trkpt>
<trkpt lat="48.965487" lon="20.105107">
<ele>1068.5</ele>
<desc>Speed 27.2 km/h Distance 23.13 km</desc>
<time>2013-07-23T16:45:27.83</time>
<name>7515</name>
<sym>Dot</sym>
</trkpt>
<trkpt lat="48.965528" lon="20.105187">
<ele>1068.5</ele>
<desc>Speed 27.0 km/h Distance 23.14 km</desc>
<time>2013-07-23T16:45:28.82</time>
<name>7516</name>
<sym>Dot</sym>
</trkpt>
<trkpt lat="48.965658" lon="20.105413">
<ele>1068.5</ele>
<desc>Speed 27.9 km/h Distance 23.16 km</desc>
<time>2013-07-23T16:45:32.27</time>
<name>7517</name>
<sym>Dot</sym>
</trkpt>
<trkpt lat="48.965695" lon="20.105488">
<ele>1068.5</ele>
<desc>Speed 26.6 km/h Distance 23.17 km</desc>
<time>2013-07-23T16:45:33.25</time>
<name>7518</name>
<sym>Dot</sym>
</trkpt>
<trkpt lat="48.965730" lon="20.105562">
<ele>1068.5</ele>
<desc>Speed 26.0 km/h Distance 23.17 km</desc>
<time>2013-07-23T16:45:34.30</time>
<name>7519</name>
<sym>Dot</sym>
</trkpt>
<trkpt lat="48.965763" lon="20.105630">
<ele>1068.5</ele>
<desc>Speed 25.5 km/h Distance 23.18 km</desc>
<time>2013-07-23T16:45:35.24</time>
<name>7520</name>
<sym>Dot</sym>
</trkpt>
<trkpt lat="48.965812" lon="20.105690">
<ele>1068.5</ele>
<desc>Speed 25.2 km/h Distance 23.19 km</desc>
<time>2013-07-23T16:45:36.25</time>
<name>7521</name>
<sym>Dot</sym>
</trkpt>
<trkpt lat="48.965852" lon="20.105753">
<ele>1068.5</ele>
<desc>Speed 24.3 km/h Distance 23.19 km</desc>
<time>2013-07-23T16:45:37.24</time>
<name>7522</name>
<sym>Dot</sym>
</trkpt>
<trkpt lat="48.965888" lon="20.105818">
<ele>1068.5</ele>
<desc>Speed 24.0 km/h Distance 23.20 km</desc>
<time>2013-07-23T16:45:38.24</time>
<name>7523</name>
<sym>Dot</sym>
</trkpt>
<trkpt lat="48.965928" lon="20.105887">
<ele>1068.5</ele>
<desc>Speed 23.4 km/h Distance 23.21 km</desc>
<time>2013-07-23T16:45:39.23</time>
<name>7524</name>
<sym>Dot</sym>
</trkpt>
<trkpt lat="48.965970" lon="20.105957">
<ele>1068.5</ele>
<desc>Speed 23.5 km/h Distance 23.21 km</desc>
<time>2013-07-23T16:45:40.23</time>
<name>7525</name>
<sym>Dot</sym>
</trkpt>
<trkpt lat="48.966015" lon="20.106028">
<ele>1068.5</ele>
<desc>Speed 23.6 km/h Distance 23.22 km</desc>
<time>2013-07-23T16:45:41.22</time>
<name>7526</name>
<sym>Dot</sym>
</trkpt>
<trkpt lat="48.966062" lon="20.106097">
<ele>1068.5</ele>
<desc>Speed 23.9 km/h Distance 23.23 km</desc>
<time>2013-07-23T16:45:42.22</time>
<name>7527</name>
<sym>Dot</sym>
</trkpt>
<trkpt lat="48.966095" lon="20.106162">
<ele>1068.5</ele>
<desc>Speed 23.7 km/h Distance 23.23 km</desc>
<time>2013-07-23T16:45:43.22</time>
<name>7528</name>
<sym>Dot</sym>
</trkpt>
<trkpt lat="48.966127" lon="20.106233">
<ele>1068.5</ele>
<desc>Speed 23.5 km/h Distance 23.24 km</desc>
<time>2013-07-23T16:45:44.22</time>
<name>7529</name>
<sym>Dot</sym>
</trkpt>
<trkpt lat="48.966158" lon="20.106303">
<ele>1068.5</ele>
<desc>Speed 23.3 km/h Distance 23.25 km</desc>
<time>2013-07-23T16:45:45.21</time>
<name>7530</name>
<sym>Dot</sym>
</trkpt>
<trkpt lat="48.966203" lon="20.106362">
<ele>1068.5</ele>
<desc>Speed 21.5 km/h Distance 23.25 km</desc>
<time>2013-07-23T16:45:46.21</time>
<name>7531</name>
<sym>Dot</sym>
</trkpt>
<trkpt lat="48.966245" lon="20.106428">
<ele>1068.0</ele>
<desc>Speed 21.9 km/h Distance 23.26 km</desc>
<time>2013-07-23T16:45:47.20</time>
<name>7532</name>
<sym>Dot</sym>
</trkpt>
<trkpt lat="48.966280" lon="20.106492">
<ele>1068.0</ele>
<desc>Speed 22.7 km/h Distance 23.26 km</desc>
<time>2013-07-23T16:45:48.19</time>
<name>7533</name>
<sym>Dot</sym>
</trkpt>
<trkpt lat="48.966315" lon="20.106555">
<ele>1068.0</ele>
<desc>Speed 22.8 km/h Distance 23.27 km</desc>
<time>2013-07-23T16:45:49.19</time>
<name>7534</name>
<sym>Dot</sym>
</trkpt>
<trkpt lat="48.966362" lon="20.106603">
<ele>1068.0</ele>
<desc>Speed 22.8 km/h Distance 23.28 km</desc>
<time>2013-07-23T16:45:50.18</time>
<name>7535</name>
<sym>Dot</sym>
</trkpt>
<trkpt lat="48.966405" lon="20.106665">
<ele>1068.0</ele>
<desc>Speed 21.7 km/h Distance 23.28 km</desc>
<time>2013-07-23T16:45:51.18</time>
<name>7536</name>
<sym>Dot</sym>
</trkpt>
<trkpt lat="48.966458" lon="20.106708">
<ele>1068.0</ele>
<desc>Speed 21.5 km/h Distance 23.29 km</desc>
<time>2013-07-23T16:45:52.18</time>
<name>7537</name>
<sym>Dot</sym>
</trkpt>
<trkpt lat="48.966497" lon="20.106773">
<ele>1068.0</ele>
<desc>Speed 22.6 km/h Distance 23.30 km</desc>
<time>2013-07-23T16:45:53.18</time>
<name>7538</name>
<sym>Dot</sym>
</trkpt>
<trkpt lat="48.966532" lon="20.106838">
<ele>1068.0</ele>
<desc>Speed 21.9 km/h Distance 23.30 km</desc>
<time>2013-07-23T16:45:54.17</time>
<name>7539</name>
<sym>Dot</sym>
</trkpt>
<trkpt lat="48.966565" lon="20.106912">
<ele>1068.0</ele>
<desc>Speed 21.9 km/h Distance 23.31 km</desc>
<time>2013-07-23T16:45:55.17</time>
<name>7540</name>
<sym>Dot</sym>
</trkpt>
<trkpt lat="48.966597" lon="20.106978">
<ele>1068.0</ele>
<desc>Speed 22.1 km/h Distance 23.32 km</desc>
<time>2013-07-23T16:45:56.16</time>
<name>7541</name>
<sym>Dot</sym>
</trkpt>
<trkpt lat="48.966630" lon="20.107042">
<ele>1068.0</ele>
<desc>Speed 22.3 km/h Distance 23.32 km</desc>
<time>2013-07-23T16:45:57.21</time>
<name>7542</name>
<sym>Dot</sym>
</trkpt>
<trkpt lat="48.966665" lon="20.107103">
<ele>1068.0</ele>
<desc>Speed 21.1 km/h Distance 23.33 km</desc>
<time>2013-07-23T16:45:58.15</time>
<name>7543</name>
<sym>Dot</sym>
</trkpt>
<trkpt lat="48.966693" lon="20.107177">
<ele>1068.0</ele>
<desc>Speed 21.9 km/h Distance 23.33 km</desc>
<time>2013-07-23T16:45:59.15</time>
<name>7544</name>
<sym>Dot</sym>
</trkpt>
<trkpt lat="48.966722" lon="20.107255">
<ele>1068.0</ele>
<desc>Speed 21.9 km/h Distance 23.34 km</desc>
<time>2013-07-23T16:46:00.14</time>
<name>7545</name>
<sym>Dot</sym>
</trkpt>
<trkpt lat="48.966745" lon="20.107348">
<ele>1068.0</ele>
<desc>Speed 22.6 km/h Distance 23.35 km</desc>
<time>2013-07-23T16:46:01.13</time>
<name>7546</name>
<sym>Dot</sym>
</trkpt>
<trkpt lat="48.966777" lon="20.107427">
<ele>1068.0</ele>
<desc>Speed 21.5 km/h Distance 23.35 km</desc>
<time>2013-07-23T16:46:02.13</time>
<name>7547</name>
<sym>Dot</sym>
</trkpt>
<trkpt lat="48.966800" lon="20.107508">
<ele>1068.0</ele>
<desc>Speed 20.3 km/h Distance 23.36 km</desc>
<time>2013-07-23T16:46:03.13</time>
<name>7548</name>
<sym>Dot</sym>
</trkpt>
<trkpt lat="48.966822" lon="20.107583">
<ele>1068.0</ele>
<desc>Speed 22.3 km/h Distance 23.37 km</desc>
<time>2013-07-23T16:46:04.13</time>
<name>7549</name>
<sym>Dot</sym>
</trkpt>
<trkpt lat="48.966842" lon="20.107658">
<ele>1068.0</ele>
<desc>Speed 22.1 km/h Distance 23.37 km</desc>
<time>2013-07-23T16:46:05.19</time>
<name>7550</name>
<sym>Dot</sym>
</trkpt>
<trkpt lat="48.966865" lon="20.107735">
<ele>1068.0</ele>
<desc>Speed 22.4 km/h Distance 23.38 km</desc>
<time>2013-07-23T16:46:06.11</time>
<name>7551</name>
<sym>Dot</sym>
</trkpt>
<trkpt lat="48.966888" lon="20.107805">
<ele>1068.0</ele>
<desc>Speed 22.4 km/h Distance 23.38 km</desc>
<time>2013-07-23T16:46:07.11</time>
<name>7552</name>
<sym>Dot</sym>
</trkpt>
<trkpt lat="48.966907" lon="20.107872">
<ele>1068.0</ele>
<desc>Speed 21.5 km/h Distance 23.39 km</desc>
<time>2013-07-23T16:46:08.12</time>
<name>7553</name>
<sym>Dot</sym>
</trkpt>
<trkpt lat="48.966923" lon="20.107953">
<ele>1068.0</ele>
<desc>Speed 21.9 km/h Distance 23.40 km</desc>
<time>2013-07-23T16:46:09.11</time>
<name>7554</name>
<sym>Dot</sym>
</trkpt>
<trkpt lat="48.966937" lon="20.108033">
<ele>1068.0</ele>
<desc>Speed 22.0 km/h Distance 23.40 km</desc>
<time>2013-07-23T16:46:10.10</time>
<name>7555</name>
<sym>Dot</sym>
</trkpt>
<trkpt lat="48.966948" lon="20.108108">
<ele>1068.0</ele>
<desc>Speed 21.6 km/h Distance 23.41 km</desc>
<time>2013-07-23T16:46:11.09</time>
<name>7556</name>
<sym>Dot</sym>
</trkpt>
<trkpt lat="48.966968" lon="20.108185">
<ele>1068.0</ele>
<desc>Speed 21.6 km/h Distance 23.41 km</desc>
<time>2013-07-23T16:46:12.08</time>
<name>7557</name>
<sym>Dot</sym>
</trkpt>
<trkpt lat="48.966992" lon="20.108260">
<ele>1068.0</ele>
<desc>Speed 21.0 km/h Distance 23.42 km</desc>
<time>2013-07-23T16:46:13.08</time>
<name>7558</name>
<sym>Dot</sym>
</trkpt>
<trkpt lat="48.967012" lon="20.108330">
<ele>1068.0</ele>
<desc>Speed 20.7 km/h Distance 23.43 km</desc>
<time>2013-07-23T16:46:14.08</time>
<name>7559</name>
<sym>Dot</sym>
</trkpt>
<trkpt lat="48.967040" lon="20.108400">
<ele>1068.0</ele>
<desc>Speed 21.5 km/h Distance 23.43 km</desc>
<time>2013-07-23T16:46:15.10</time>
<name>7560</name>
<sym>Dot</sym>
</trkpt>
<trkpt lat="48.967088" lon="20.108442">
<ele>1068.0</ele>
<desc>Speed 21.9 km/h Distance 23.44 km</desc>
<time>2013-07-23T16:46:16.07</time>
<name>7561</name>
<sym>Dot</sym>
</trkpt>
<trkpt lat="48.967125" lon="20.108492">
<ele>1068.0</ele>
<desc>Speed 20.5 km/h Distance 23.44 km</desc>
<time>2013-07-23T16:46:17.07</time>
<name>7562</name>
<sym>Dot</sym>
</trkpt>
<trkpt lat="48.967160" lon="20.108537">
<ele>1068.0</ele>
<desc>Speed 20.6 km/h Distance 23.45 km</desc>
<time>2013-07-23T16:46:18.07</time>
<name>7563</name>
<sym>Dot</sym>
</trkpt>
<trkpt lat="48.967188" lon="20.108593">
<ele>1068.0</ele>
<desc>Speed 20.6 km/h Distance 23.45 km</desc>
<time>2013-07-23T16:46:19.07</time>
<name>7564</name>
<sym>Dot</sym>
</trkpt>
<trkpt lat="48.967227" lon="20.108643">
<ele>1068.0</ele>
<desc>Speed 20.8 km/h Distance 23.46 km</desc>
<time>2013-07-23T16:46:20.07</time>
<name>7565</name>
<sym>Dot</sym>
</trkpt>
<trkpt lat="48.967303" lon="20.108715">
<ele>1068.0</ele>
<desc>Speed 16.8 km/h Distance 23.47 km</desc>
<time>2013-07-23T16:46:22.07</time>
<name>7566</name>
<sym>Dot</sym>
</trkpt>
<trkpt lat="48.967332" lon="20.108737">
<ele>1068.0</ele>
<desc>Speed 13.7 km/h Distance 23.47 km</desc>
<time>2013-07-23T16:46:23.06</time>
<name>7567</name>
<sym>Dot</sym>
</trkpt>
<trkpt lat="48.967423" lon="20.108712">
<ele>1068.0</ele>
<desc>Speed 18.3 km/h Distance 23.48 km</desc>
<time>2013-07-23T16:46:25.06</time>
<name>7568</name>
<sym>Dot</sym>
</trkpt>
<trkpt lat="48.967470" lon="20.108712">
<ele>1068.0</ele>
<desc>Speed 18.7 km/h Distance 23.49 km</desc>
<time>2013-07-23T16:46:26.06</time>
<name>7569</name>
<sym>Dot</sym>
</trkpt>
<trkpt lat="48.967515" lon="20.108757">
<ele>1068.0</ele>
<desc>Speed 20.7 km/h Distance 23.49 km</desc>
<time>2013-07-23T16:46:27.05</time>
<name>7570</name>
<sym>Dot</sym>
</trkpt>
<trkpt lat="48.967565" lon="20.108813">
<ele>1068.0</ele>
<desc>Speed 22.6 km/h Distance 23.50 km</desc>
<time>2013-07-23T16:46:28.05</time>
<name>7571</name>
<sym>Dot</sym>
</trkpt>
<trkpt lat="48.967613" lon="20.108822">
<ele>1068.0</ele>
<desc>Speed 19.7 km/h Distance 23.51 km</desc>
<time>2013-07-23T16:46:29.04</time>
<name>7572</name>
<sym>Dot</sym>
</trkpt>
<trkpt lat="48.967650" lon="20.108885">
<ele>1068.0</ele>
<desc>Speed 22.3 km/h Distance 23.51 km</desc>
<time>2013-07-23T16:46:30.08</time>
<name>7573</name>
<sym>Dot</sym>
</trkpt>
<trkpt lat="48.967687" lon="20.108947">
<ele>1068.0</ele>
<desc>Speed 23.1 km/h Distance 23.52 km</desc>
<time>2013-07-23T16:46:31.03</time>
<name>7574</name>
<sym>Dot</sym>
</trkpt>
<trkpt lat="48.967733" lon="20.108997">
<ele>1068.0</ele>
<desc>Speed 23.1 km/h Distance 23.52 km</desc>
<time>2013-07-23T16:46:32.03</time>
<name>7575</name>
<sym>Dot</sym>
</trkpt>
<trkpt lat="48.967783" lon="20.109043">
<ele>1068.0</ele>
<desc>Speed 23.7 km/h Distance 23.53 km</desc>
<time>2013-07-23T16:46:33.02</time>
<name>7576</name>
<sym>Dot</sym>
</trkpt>
<trkpt lat="48.967833" lon="20.109092">
<ele>1068.0</ele>
<desc>Speed 23.7 km/h Distance 23.54 km</desc>
<time>2013-07-23T16:46:34.02</time>
<name>7577</name>
<sym>Dot</sym>
</trkpt>
<trkpt lat="48.967882" lon="20.109142">
<ele>1068.0</ele>
<desc>Speed 24.6 km/h Distance 23.54 km</desc>
<time>2013-07-23T16:46:35.01</time>
<name>7578</name>
<sym>Dot</sym>
</trkpt>
<trkpt lat="48.967928" lon="20.109195">
<ele>1068.0</ele>
<desc>Speed 24.6 km/h Distance 23.55 km</desc>
<time>2013-07-23T16:46:35.99</time>
<name>7579</name>
<sym>Dot</sym>
</trkpt>
<trkpt lat="48.967978" lon="20.109245">
<ele>1068.0</ele>
<desc>Speed 25.0 km/h Distance 23.56 km</desc>
<time>2013-07-23T16:46:37.08</time>
<name>7580</name>
<sym>Dot</sym>
</trkpt>
<trkpt lat="48.968037" lon="20.109277">
<ele>1068.0</ele>
<desc>Speed 24.8 km/h Distance 23.56 km</desc>
<time>2013-07-23T16:46:38.00</time>
<name>7581</name>
<sym>Dot</sym>
</trkpt>
<trkpt lat="48.968067" lon="20.109365">
<ele>1068.0</ele>
<desc>Speed 23.9 km/h Distance 23.57 km</desc>
<time>2013-07-23T16:46:39.00</time>
<name>7582</name>
<sym>Dot</sym>
</trkpt>
<trkpt lat="48.968108" lon="20.109428">
<ele>1068.0</ele>
<desc>Speed 23.0 km/h Distance 23.58 km</desc>
<time>2013-07-23T16:46:39.99</time>
<name>7583</name>
<sym>Dot</sym>
</trkpt>
<trkpt lat="48.968178" lon="20.109448">
<ele>1068.0</ele>
<desc>Speed 29.6 km/h Distance 23.59 km</desc>
<time>2013-07-23T16:46:40.98</time>
<name>7584</name>
<sym>Dot</sym>
</trkpt>
<trkpt lat="48.968245" lon="20.109462">
<ele>1068.0</ele>
<desc>Speed 27.5 km/h Distance 23.59 km</desc>
<time>2013-07-23T16:46:42.02</time>
<name>7585</name>
<sym>Dot</sym>
</trkpt>
<trkpt lat="48.968310" lon="20.109480">
<ele>1068.0</ele>
<desc>Speed 28.8 km/h Distance 23.60 km</desc>
<time>2013-07-23T16:46:42.97</time>
<name>7586</name>
<sym>Dot</sym>
</trkpt>
<trkpt lat="48.968378" lon="20.109488">
<ele>1068.0</ele>
<desc>Speed 28.1 km/h Distance 23.61 km</desc>
<time>2013-07-23T16:46:43.97</time>
<name>7587</name>
<sym>Dot</sym>
</trkpt>
<trkpt lat="48.968442" lon="20.109500">
<ele>1068.0</ele>
<desc>Speed 26.4 km/h Distance 23.62 km</desc>
<time>2013-07-23T16:46:44.96</time>
<name>7588</name>
<sym>Dot</sym>
</trkpt>
<trkpt lat="48.968498" lon="20.109510">
<ele>1068.0</ele>
<desc>Speed 24.5 km/h Distance 23.62 km</desc>
<time>2013-07-23T16:46:45.94</time>
<name>7589</name>
<sym>Dot</sym>
</trkpt>
<trkpt lat="48.968555" lon="20.109487">
<ele>1068.0</ele>
<desc>Speed 27.6 km/h Distance 23.63 km</desc>
<time>2013-07-23T16:46:46.95</time>
<name>7590</name>
<sym>Dot</sym>
</trkpt>
<trkpt lat="48.968618" lon="20.109478">
<ele>1068.0</ele>
<desc>Speed 25.9 km/h Distance 23.64 km</desc>
<time>2013-07-23T16:46:47.94</time>
<name>7591</name>
<sym>Dot</sym>
</trkpt>
<trkpt lat="48.968675" lon="20.109468">
<ele>1068.0</ele>
<desc>Speed 24.3 km/h Distance 23.64 km</desc>
<time>2013-07-23T16:46:48.95</time>
<name>7592</name>
<sym>Dot</sym>
</trkpt>
<trkpt lat="48.968722" lon="20.109450">
<ele>1068.0</ele>
<desc>Speed 24.3 km/h Distance 23.65 km</desc>
<time>2013-07-23T16:46:49.94</time>
<name>7593</name>
<sym>Dot</sym>
</trkpt>
<trkpt lat="48.968773" lon="20.109390">
<ele>1068.0</ele>
<desc>Speed 26.4 km/h Distance 23.65 km</desc>
<time>2013-07-23T16:46:50.94</time>
<name>7594</name>
<sym>Dot</sym>
</trkpt>
<trkpt lat="48.968837" lon="20.109327">
<ele>1068.0</ele>
<desc>Speed 13.2 km/h Distance 23.66 km</desc>
<time>2013-07-23T16:46:54.24</time>
<name>7595</name>
<sym>Dot</sym>
</trkpt>
<trkpt lat="48.968853" lon="20.109315">
<ele>1068.0</ele>
<desc>Speed 13.2 km/h Distance 23.67 km</desc>
<time>2013-07-23T16:46:55.24</time>
<name>7596</name>
<sym>Dot</sym>
</trkpt>
<trkpt lat="48.968955" lon="20.109280">
<ele>1068.0</ele>
<desc>Speed 19.3 km/h Distance 23.68 km</desc>
<time>2013-07-23T16:46:57.25</time>
<name>7597</name>
<sym>Dot</sym>
</trkpt>
<trkpt lat="48.969015" lon="20.109243">
<ele>1068.0</ele>
<desc>Speed 25.7 km/h Distance 23.68 km</desc>
<time>2013-07-23T16:46:58.25</time>
<name>7598</name>
<sym>Dot</sym>
</trkpt>
<trkpt lat="48.969075" lon="20.109188">
<ele>1068.0</ele>
<desc>Speed 27.5 km/h Distance 23.69 km</desc>
<time>2013-07-23T16:46:59.24</time>
<name>7599</name>
<sym>Dot</sym>
</trkpt>
<trkpt lat="48.969137" lon="20.109143">
<ele>1068.0</ele>
<desc>Speed 26.8 km/h Distance 23.70 km</desc>
<time>2013-07-23T16:47:00.23</time>
<name>7600</name>
<sym>Dot</sym>
</trkpt>
<trkpt lat="48.969197" lon="20.109105">
<ele>1068.0</ele>
<desc>Speed 25.5 km/h Distance 23.71 km</desc>
<time>2013-07-23T16:47:01.23</time>
<name>7601</name>
<sym>Dot</sym>
</trkpt>
<trkpt lat="48.969297" lon="20.108903">
<ele>1068.0</ele>
<desc>Speed 32.1 km/h Distance 23.73 km</desc>
<time>2013-07-23T16:47:03.22</time>
<name>7602</name>
<sym>Dot</sym>
</trkpt>
<trkpt lat="48.969340" lon="20.108820">
<ele>1068.0</ele>
<desc>Speed 32.1 km/h Distance 23.73 km</desc>
<time>2013-07-23T16:47:04.22</time>
<name>7603</name>
<sym>Dot</sym>
</trkpt>
<trkpt lat="48.969400" lon="20.108743">
<ele>1068.0</ele>
<desc>Speed 26.5 km/h Distance 23.74 km</desc>
<time>2013-07-23T16:47:05.21</time>
<name>7604</name>
<sym>Dot</sym>
</trkpt>
<trkpt lat="48.969455" lon="20.108683">
<ele>1068.0</ele>
<desc>Speed 24.7 km/h Distance 23.75 km</desc>
<time>2013-07-23T16:47:06.21</time>
<name>7605</name>
<sym>Dot</sym>
</trkpt>
<trkpt lat="48.969502" lon="20.108653">
<ele>1068.0</ele>
<desc>Speed 24.7 km/h Distance 23.75 km</desc>
<time>2013-07-23T16:47:07.20</time>
<name>7606</name>
<sym>Dot</sym>
</trkpt>
<trkpt lat="48.969552" lon="20.108562">
<ele>1068.0</ele>
<desc>Speed 30.2 km/h Distance 23.76 km</desc>
<time>2013-07-23T16:47:08.20</time>
<name>7607</name>
<sym>Dot</sym>
</trkpt>
<trkpt lat="48.969605" lon="20.108468">
<ele>1068.0</ele>
<desc>Speed 25.7 km/h Distance 23.77 km</desc>
<time>2013-07-23T16:47:09.19</time>
<name>7608</name>
<sym>Dot</sym>
</trkpt>
<trkpt lat="48.969658" lon="20.108388">
<ele>1068.0</ele>
<desc>Speed 28.6 km/h Distance 23.78 km</desc>
<time>2013-07-23T16:47:10.25</time>
<name>7609</name>
<sym>Dot</sym>
</trkpt>
<trkpt lat="48.969712" lon="20.108337">
<ele>1068.0</ele>
<desc>Speed 23.6 km/h Distance 23.79 km</desc>
<time>2013-07-23T16:47:11.18</time>
<name>7610</name>
<sym>Dot</sym>
</trkpt>
<trkpt lat="48.969805" lon="20.108160">
<ele>1068.0</ele>
<desc>Speed 29.6 km/h Distance 23.80 km</desc>
<time>2013-07-23T16:47:13.18</time>
<name>7611</name>
<sym>Dot</sym>
</trkpt>
<trkpt lat="48.969852" lon="20.108052">
<ele>1068.0</ele>
<desc>Speed 31.1 km/h Distance 23.81 km</desc>
<time>2013-07-23T16:47:14.18</time>
<name>7612</name>
<sym>Dot</sym>
</trkpt>
<trkpt lat="48.969960" lon="20.108003">
<ele>1068.0</ele>
<desc>Speed 25.3 km/h Distance 23.83 km</desc>
<time>2013-07-23T16:47:16.18</time>
<name>7613</name>
<sym>Dot</sym>
</trkpt>
<trkpt lat="48.970012" lon="20.108008">
<ele>1068.0</ele>
<desc>Speed 22.2 km/h Distance 23.83 km</desc>
<time>2013-07-23T16:47:17.17</time>
<name>7614</name>
<sym>Dot</sym>
</trkpt>
<trkpt lat="48.970063" lon="20.108017">
<ele>1068.0</ele>
<desc>Speed 22.5 km/h Distance 23.84 km</desc>
<time>2013-07-23T16:47:18.17</time>
<name>7615</name>
<sym>Dot</sym>
</trkpt>
<trkpt lat="48.970120" lon="20.108003">
<ele>1068.0</ele>
<desc>Speed 23.4 km/h Distance 23.84 km</desc>
<time>2013-07-23T16:47:19.17</time>
<name>7616</name>
<sym>Dot</sym>
</trkpt>
<trkpt lat="48.970168" lon="20.107968">
<ele>1068.0</ele>
<desc>Speed 23.3 km/h Distance 23.85 km</desc>
<time>2013-07-23T16:47:20.16</time>
<name>7617</name>
<sym>Dot</sym>
</trkpt>
<trkpt lat="48.970237" lon="20.107953">
<ele>1068.0</ele>
<desc>Speed 20.3 km/h Distance 23.86 km</desc>
<time>2013-07-23T16:47:21.16</time>
<name>7618</name>
<sym>Dot</sym>
</trkpt>
<trkpt lat="48.970343" lon="20.107870">
<ele>1068.5</ele>
<desc>Speed 17.5 km/h Distance 23.87 km</desc>
<time>2013-07-23T16:47:23.16</time>
<name>7619</name>
<sym>Dot</sym>
</trkpt>
<trkpt lat="48.970390" lon="20.107813">
<ele>1068.5</ele>
<desc>Speed 21.4 km/h Distance 23.88 km</desc>
<time>2013-07-23T16:47:24.15</time>
<name>7620</name>
<sym>Dot</sym>
</trkpt>
<trkpt lat="48.970433" lon="20.107768">
<ele>1068.5</ele>
<desc>Speed 16.8 km/h Distance 23.88 km</desc>
<time>2013-07-23T16:47:25.14</time>
<name>7621</name>
<sym>Dot</sym>
</trkpt>
<trkpt lat="48.970528" lon="20.107658">
<ele>1068.5</ele>
<desc>Speed 20.1 km/h Distance 23.90 km</desc>
<time>2013-07-23T16:47:27.13</time>
<name>7622</name>
<sym>Dot</sym>
</trkpt>
<trkpt lat="48.970593" lon="20.107593">
<ele>1067.5</ele>
<desc>Speed 18.1 km/h Distance 23.91 km</desc>
<time>2013-07-23T16:47:29.14</time>
<name>7623</name>
<sym>Dot</sym>
</trkpt>
<trkpt lat="48.970630" lon="20.107547">
<ele>1067.5</ele>
<desc>Speed 15.8 km/h Distance 23.91 km</desc>
<time>2013-07-23T16:47:30.13</time>
<name>7624</name>
<sym>Dot</sym>
</trkpt>
<trkpt lat="48.970718" lon="20.107408">
<ele>1068.5</ele>
<desc>Speed 18.3 km/h Distance 23.93 km</desc>
<time>2013-07-23T16:47:32.13</time>
<name>7625</name>
<sym>Dot</sym>
</trkpt>
<trkpt lat="48.970808" lon="20.107278">
<ele>1068.5</ele>
<desc>Speed 19.2 km/h Distance 23.94 km</desc>
<time>2013-07-23T16:47:34.12</time>
<name>7626</name>
<sym>Dot</sym>
</trkpt>
<trkpt lat="48.970942" lon="20.107133">
<ele>1069.0</ele>
<desc>Speed 17.1 km/h Distance 23.96 km</desc>
<time>2013-07-23T16:47:36.12</time>
<name>7627</name>
<sym>Dot</sym>
</trkpt>
<trkpt lat="48.970990" lon="20.107092">
<ele>1069.5</ele>
<desc>Speed 17.9 km/h Distance 23.96 km</desc>
<time>2013-07-23T16:47:37.12</time>
<name>7628</name>
<sym>Dot</sym>
</trkpt>
<trkpt lat="48.971075" lon="20.106972">
<ele>1069.0</ele>
<desc>Speed 20.5 km/h Distance 23.98 km</desc>
<time>2013-07-23T16:47:39.11</time>
<name>7629</name>
<sym>Dot</sym>
</trkpt>
<trkpt lat="48.971130" lon="20.106918">
<ele>1068.5</ele>
<desc>Speed 20.6 km/h Distance 23.98 km</desc>
<time>2013-07-23T16:47:40.11</time>
<name>7630</name>
<sym>Dot</sym>
</trkpt>
<trkpt lat="48.971338" lon="20.106710">
<ele>1067.5</ele>
<desc>Speed 20.7 km/h Distance 24.01 km</desc>
<time>2013-07-23T16:47:43.25</time>
<name>7631</name>
<sym>Dot</sym>
</trkpt>
<trkpt lat="48.971612" lon="20.106465">
<ele>1067.0</ele>
<desc>Speed 21.1 km/h Distance 24.05 km</desc>
<time>2013-07-23T16:47:49.25</time>
<name>7632</name>
<sym>Dot</sym>
</trkpt>
<trkpt lat="48.971673" lon="20.106453">
<ele>1066.5</ele>
<desc>Speed 22.1 km/h Distance 24.05 km</desc>
<time>2013-07-23T16:47:50.24</time>
<name>7633</name>
<sym>Dot</sym>
</trkpt>
<trkpt lat="48.972043" lon="20.106208">
<ele>1066.0</ele>
<desc>Speed 23.3 km/h Distance 24.10 km</desc>
<time>2013-07-23T16:47:57.29</time>
<name>7634</name>
<sym>Dot</sym>
</trkpt>
<trkpt lat="48.972108" lon="20.106222">
<ele>1065.5</ele>
<desc>Speed 23.0 km/h Distance 24.11 km</desc>
<time>2013-07-23T16:47:58.25</time>
<name>7635</name>
<sym>Dot</sym>
</trkpt>
<trkpt lat="48.972172" lon="20.106237">
<ele>1065.5</ele>
<desc>Speed 22.5 km/h Distance 24.11 km</desc>
<time>2013-07-23T16:47:59.25</time>
<name>7636</name>
<sym>Dot</sym>
</trkpt>
<trkpt lat="48.972235" lon="20.106243">
<ele>1065.5</ele>
<desc>Speed 22.1 km/h Distance 24.12 km</desc>
<time>2013-07-23T16:48:00.25</time>
<name>7637</name>
<sym>Dot</sym>
</trkpt>
<trkpt lat="48.972287" lon="20.106237">
<ele>1065.0</ele>
<desc>Speed 21.5 km/h Distance 24.13 km</desc>
<time>2013-07-23T16:48:01.25</time>
<name>7638</name>
<sym>Dot</sym>
</trkpt>
<trkpt lat="48.972335" lon="20.106227">
<ele>1065.0</ele>
<desc>Speed 21.4 km/h Distance 24.13 km</desc>
<time>2013-07-23T16:48:02.24</time>
<name>7639</name>
<sym>Dot</sym>
</trkpt>
<trkpt lat="48.972382" lon="20.106213">
<ele>1065.0</ele>
<desc>Speed 21.3 km/h Distance 24.14 km</desc>
<time>2013-07-23T16:48:03.23</time>
<name>7640</name>
<sym>Dot</sym>
</trkpt>
<trkpt lat="48.972417" lon="20.106185">
<ele>1065.0</ele>
<desc>Speed 21.6 km/h Distance 24.14 km</desc>
<time>2013-07-23T16:48:04.23</time>
<name>7641</name>
<sym>Dot</sym>
</trkpt>
<trkpt lat="48.972457" lon="20.106140">
<ele>1065.0</ele>
<desc>Speed 21.5 km/h Distance 24.15 km</desc>
<time>2013-07-23T16:48:05.23</time>
<name>7642</name>
<sym>Dot</sym>
</trkpt>
<trkpt lat="48.972497" lon="20.106100">
<ele>1065.0</ele>
<desc>Speed 22.1 km/h Distance 24.15 km</desc>
<time>2013-07-23T16:48:06.23</time>
<name>7643</name>
<sym>Dot</sym>
</trkpt>
<trkpt lat="48.972538" lon="20.106045">
<ele>1065.0</ele>
<desc>Speed 21.9 km/h Distance 24.16 km</desc>
<time>2013-07-23T16:48:07.22</time>
<name>7644</name>
<sym>Dot</sym>
</trkpt>
<trkpt lat="48.972578" lon="20.105993">
<ele>1064.5</ele>
<desc>Speed 21.8 km/h Distance 24.16 km</desc>
<time>2013-07-23T16:48:08.21</time>
<name>7645</name>
<sym>Dot</sym>
</trkpt>
<trkpt lat="48.972615" lon="20.105937">
<ele>1064.5</ele>
<desc>Speed 22.5 km/h Distance 24.17 km</desc>
<time>2013-07-23T16:48:09.21</time>
<name>7646</name>
<sym>Dot</sym>
</trkpt>
<trkpt lat="48.972705" lon="20.105837">
<ele>1064.5</ele>
<desc>Speed 22.5 km/h Distance 24.18 km</desc>
<time>2013-07-23T16:48:11.20</time>
<name>7647</name>
<sym>Dot</sym>
</trkpt>
<trkpt lat="48.972747" lon="20.105797">
<ele>1064.5</ele>
<desc>Speed 22.0 km/h Distance 24.19 km</desc>
<time>2013-07-23T16:48:12.20</time>
<name>7648</name>
<sym>Dot</sym>
</trkpt>
<trkpt lat="48.972797" lon="20.105753">
<ele>1064.5</ele>
<desc>Speed 22.4 km/h Distance 24.19 km</desc>
<time>2013-07-23T16:48:13.20</time>
<name>7649</name>
<sym>Dot</sym>
</trkpt>
<trkpt lat="48.972837" lon="20.105700">
<ele>1064.5</ele>
<desc>Speed 22.6 km/h Distance 24.20 km</desc>
<time>2013-07-23T16:48:14.19</time>
<name>7650</name>
<sym>Dot</sym>
</trkpt>
<trkpt lat="48.972927" lon="20.105605">
<ele>1064.5</ele>
<desc>Speed 22.2 km/h Distance 24.21 km</desc>
<time>2013-07-23T16:48:16.18</time>
<name>7651</name>
<sym>Dot</sym>
</trkpt>
<trkpt lat="48.972973" lon="20.105560">
<ele>1064.5</ele>
<desc>Speed 22.5 km/h Distance 24.22 km</desc>
<time>2013-07-23T16:48:17.18</time>
<name>7652</name>
<sym>Dot</sym>
</trkpt>
<trkpt lat="48.973022" lon="20.105522">
<ele>1064.0</ele>
<desc>Speed 21.5 km/h Distance 24.22 km</desc>
<time>2013-07-23T16:48:18.18</time>
<name>7653</name>
<sym>Dot</sym>
</trkpt>
<trkpt lat="48.973165" lon="20.105398">
<ele>1064.0</ele>
<desc>Speed 21.4 km/h Distance 24.24 km</desc>
<time>2013-07-23T16:48:21.26</time>
<name>7654</name>
<sym>Dot</sym>
</trkpt>
<trkpt lat="48.973215" lon="20.105350">
<ele>1064.0</ele>
<desc>Speed 21.2 km/h Distance 24.25 km</desc>
<time>2013-07-23T16:48:22.26</time>
<name>7655</name>
<sym>Dot</sym>
</trkpt>
<trkpt lat="48.973260" lon="20.105338">
<ele>1064.0</ele>
<desc>Speed 19.5 km/h Distance 24.25 km</desc>
<time>2013-07-23T16:48:23.25</time>
<name>7656</name>
<sym>Dot</sym>
</trkpt>
<trkpt lat="48.973312" lon="20.105313">
<ele>1063.5</ele>
<desc>Speed 21.1 km/h Distance 24.26 km</desc>
<time>2013-07-23T16:48:24.24</time>
<name>7657</name>
<sym>Dot</sym>
</trkpt>
<trkpt lat="48.973362" lon="20.105282">
<ele>1063.5</ele>
<desc>Speed 21.0 km/h Distance 24.27 km</desc>
<time>2013-07-23T16:48:25.24</time>
<name>7658</name>
<sym>Dot</sym>
</trkpt>
<trkpt lat="48.973408" lon="20.105242">
<ele>1063.5</ele>
<desc>Speed 20.6 km/h Distance 24.27 km</desc>
<time>2013-07-23T16:48:26.23</time>
<name>7659</name>
<sym>Dot</sym>
</trkpt>
<trkpt lat="48.973458" lon="20.105193">
<ele>1063.5</ele>
<desc>Speed 20.8 km/h Distance 24.28 km</desc>
<time>2013-07-23T16:48:27.23</time>
<name>7660</name>
<sym>Dot</sym>
</trkpt>
<trkpt lat="48.973503" lon="20.105148">
<ele>1063.5</ele>
<desc>Speed 20.4 km/h Distance 24.28 km</desc>
<time>2013-07-23T16:48:28.23</time>
<name>7661</name>
<sym>Dot</sym>
</trkpt>
<trkpt lat="48.973548" lon="20.105090">
<ele>1063.5</ele>
<desc>Speed 20.1 km/h Distance 24.29 km</desc>
<time>2013-07-23T16:48:29.23</time>
<name>7662</name>
<sym>Dot</sym>
</trkpt>
<trkpt lat="48.973587" lon="20.105048">
<ele>1063.5</ele>
<desc>Speed 20.0 km/h Distance 24.30 km</desc>
<time>2013-07-23T16:48:30.23</time>
<name>7663</name>
<sym>Dot</sym>
</trkpt>
<trkpt lat="48.973718" lon="20.104938">
<ele>1063.0</ele>
<desc>Speed 19.2 km/h Distance 24.31 km</desc>
<time>2013-07-23T16:48:33.26</time>
<name>7664</name>
<sym>Dot</sym>
</trkpt>
<trkpt lat="48.973767" lon="20.104883">
<ele>1063.0</ele>
<desc>Speed 19.7 km/h Distance 24.32 km</desc>
<time>2013-07-23T16:48:34.25</time>
<name>7665</name>
<sym>Dot</sym>
</trkpt>
<trkpt lat="48.973810" lon="20.104818">
<ele>1063.0</ele>
<desc>Speed 19.4 km/h Distance 24.33 km</desc>
<time>2013-07-23T16:48:35.25</time>
<name>7666</name>
<sym>Dot</sym>
</trkpt>
<trkpt lat="48.973898" lon="20.104697">
<ele>1063.0</ele>
<desc>Speed 18.5 km/h Distance 24.34 km</desc>
<time>2013-07-23T16:48:37.24</time>
<name>7667</name>
<sym>Dot</sym>
</trkpt>
<trkpt lat="48.973943" lon="20.104628">
<ele>1063.0</ele>
<desc>Speed 18.4 km/h Distance 24.35 km</desc>
<time>2013-07-23T16:48:38.24</time>
<name>7668</name>
<sym>Dot</sym>
</trkpt>
<trkpt lat="48.973980" lon="20.104597">
<ele>1063.0</ele>
<desc>Speed 18.8 km/h Distance 24.35 km</desc>
<time>2013-07-23T16:48:39.23</time>
<name>7669</name>
<sym>Dot</sym>
</trkpt>
<trkpt lat="48.974028" lon="20.104563">
<ele>1063.0</ele>
<desc>Speed 18.9 km/h Distance 24.36 km</desc>
<time>2013-07-23T16:48:40.23</time>
<name>7670</name>
<sym>Dot</sym>
</trkpt>
<trkpt lat="48.974073" lon="20.104530">
<ele>1062.5</ele>
<desc>Speed 18.8 km/h Distance 24.36 km</desc>
<time>2013-07-23T16:48:41.22</time>
<name>7671</name>
<sym>Dot</sym>
</trkpt>
<trkpt lat="48.974118" lon="20.104492">
<ele>1062.5</ele>
<desc>Speed 18.8 km/h Distance 24.37 km</desc>
<time>2013-07-23T16:48:42.21</time>
<name>7672</name>
<sym>Dot</sym>
</trkpt>
<trkpt lat="48.974162" lon="20.104445">
<ele>1062.5</ele>
<desc>Speed 18.4 km/h Distance 24.38 km</desc>
<time>2013-07-23T16:48:43.20</time>
<name>7673</name>
<sym>Dot</sym>
</trkpt>
<trkpt lat="48.974205" lon="20.104417">
<ele>1062.5</ele>
<desc>Speed 18.2 km/h Distance 24.38 km</desc>
<time>2013-07-23T16:48:44.20</time>
<name>7674</name>
<sym>Dot</sym>
</trkpt>
<trkpt lat="48.974245" lon="20.104393">
<ele>1062.5</ele>
<desc>Speed 15.6 km/h Distance 24.39 km</desc>
<time>2013-07-23T16:48:45.20</time>
<name>7675</name>
<sym>Dot</sym>
</trkpt>
<trkpt lat="48.974273" lon="20.104360">
<ele>1062.5</ele>
<desc>Speed 12.7 km/h Distance 24.39 km</desc>
<time>2013-07-23T16:48:46.19</time>
<name>7676</name>
<sym>Dot</sym>
</trkpt>
<trkpt lat="48.974293" lon="20.104342">
<ele>1062.0</ele>
<desc>Speed 6.9 km/h Distance 24.39 km</desc>
<time>2013-07-23T16:48:47.19</time>
<name>7677</name>
<sym>Dot</sym>
</trkpt>
<trkpt lat="48.974415" lon="20.104175">
<ele>1059.0</ele>
<desc>Speed 2.4 km/h Distance 24.41 km</desc>
<time>2013-07-23T16:49:24.19</time>
<name>7678</name>
<sym>Dot</sym>
</trkpt>
<trkpt lat="48.974515" lon="20.104165">
<ele>1058.5</ele>
<desc>Speed 3.1 km/h Distance 24.42 km</desc>
<time>2013-07-23T16:49:58.18</time>
<name>7679</name>
<sym>Dot</sym>
</trkpt>
<trkpt lat="48.974520" lon="20.104197">
<ele>1058.5</ele>
<desc>Speed 4.4 km/h Distance 24.42 km</desc>
<time>2013-07-23T16:50:02.18</time>
<name>7680</name>
<sym>Dot</sym>
</trkpt>
<trkpt lat="48.974553" lon="20.104175">
<ele>1058.5</ele>
<desc>Speed 8.0 km/h Distance 24.43 km</desc>
<time>2013-07-23T16:50:05.26</time>
<name>7681</name>
<sym>Dot</sym>
</trkpt>
<trkpt lat="48.974568" lon="20.104182">
<ele>1058.0</ele>
<desc>Speed 9.6 km/h Distance 24.43 km</desc>
<time>2013-07-23T16:50:06.28</time>
<name>7682</name>
<sym>Dot</sym>
</trkpt>
<trkpt lat="48.974593" lon="20.104217">
<ele>1058.0</ele>
<desc>Speed 11.4 km/h Distance 24.43 km</desc>
<time>2013-07-23T16:50:07.25</time>
<name>7683</name>
<sym>Dot</sym>
</trkpt>
<trkpt lat="48.974618" lon="20.104203">
<ele>1058.0</ele>
<desc>Speed 12.0 km/h Distance 24.44 km</desc>
<time>2013-07-23T16:50:08.24</time>
<name>7684</name>
<sym>Dot</sym>
</trkpt>
<trkpt lat="48.974640" lon="20.104187">
<ele>1058.0</ele>
<desc>Speed 12.1 km/h Distance 24.44 km</desc>
<time>2013-07-23T16:50:09.24</time>
<name>7685</name>
<sym>Dot</sym>
</trkpt>
<trkpt lat="48.974697" lon="20.104145">
<ele>1058.0</ele>
<desc>Speed 13.6 km/h Distance 24.45 km</desc>
<time>2013-07-23T16:50:11.23</time>
<name>7686</name>
<sym>Dot</sym>
</trkpt>
<trkpt lat="48.974727" lon="20.104113">
<ele>1058.0</ele>
<desc>Speed 14.6 km/h Distance 24.45 km</desc>
<time>2013-07-23T16:50:12.23</time>
<name>7687</name>
<sym>Dot</sym>
</trkpt>
<trkpt lat="48.974760" lon="20.104080">
<ele>1058.0</ele>
<desc>Speed 14.1 km/h Distance 24.45 km</desc>
<time>2013-07-23T16:50:13.22</time>
<name>7688</name>
<sym>Dot</sym>
</trkpt>
<trkpt lat="48.974795" lon="20.104043">
<ele>1058.0</ele>
<desc>Speed 13.7 km/h Distance 24.46 km</desc>
<time>2013-07-23T16:50:14.22</time>
<name>7689</name>
<sym>Dot</sym>
</trkpt>
<trkpt lat="48.974823" lon="20.104017">
<ele>1058.5</ele>
<desc>Speed 14.3 km/h Distance 24.46 km</desc>
<time>2013-07-23T16:50:15.21</time>
<name>7690</name>
<sym>Dot</sym>
</trkpt>
<trkpt lat="48.974858" lon="20.103965">
<ele>1057.5</ele>
<desc>Speed 19.2 km/h Distance 24.47 km</desc>
<time>2013-07-23T16:50:16.21</time>
<name>7691</name>
<sym>Dot</sym>
</trkpt>
<trkpt lat="48.974892" lon="20.103915">
<ele>1057.5</ele>
<desc>Speed 17.1 km/h Distance 24.47 km</desc>
<time>2013-07-23T16:50:17.21</time>
<name>7692</name>
<sym>Dot</sym>
</trkpt>
<trkpt lat="48.974925" lon="20.103855">
<ele>1057.0</ele>
<desc>Speed 17.4 km/h Distance 24.48 km</desc>
<time>2013-07-23T16:50:18.20</time>
<name>7693</name>
<sym>Dot</sym>
</trkpt>
<trkpt lat="48.974962" lon="20.103790">
<ele>1057.0</ele>
<desc>Speed 17.2 km/h Distance 24.49 km</desc>
<time>2013-07-23T16:50:19.19</time>
<name>7694</name>
<sym>Dot</sym>
</trkpt>
<trkpt lat="48.975045" lon="20.103718">
<ele>1056.5</ele>
<desc>Speed 17.3 km/h Distance 24.50 km</desc>
<time>2013-07-23T16:50:21.19</time>
<name>7695</name>
<sym>Dot</sym>
</trkpt>
<trkpt lat="48.975080" lon="20.103678">
<ele>1056.5</ele>
<desc>Speed 16.5 km/h Distance 24.50 km</desc>
<time>2013-07-23T16:50:22.19</time>
<name>7696</name>
<sym>Dot</sym>
</trkpt>
<trkpt lat="48.975117" lon="20.103623">
<ele>1056.5</ele>
<desc>Speed 16.2 km/h Distance 24.51 km</desc>
<time>2013-07-23T16:50:23.18</time>
<name>7697</name>
<sym>Dot</sym>
</trkpt>
<trkpt lat="48.975158" lon="20.103573">
<ele>1056.5</ele>
<desc>Speed 15.8 km/h Distance 24.51 km</desc>
<time>2013-07-23T16:50:24.18</time>
<name>7698</name>
<sym>Dot</sym>
</trkpt>
<trkpt lat="48.975200" lon="20.103518">
<ele>1056.5</ele>
<desc>Speed 16.0 km/h Distance 24.52 km</desc>
<time>2013-07-23T16:50:25.18</time>
<name>7699</name>
<sym>Dot</sym>
</trkpt>
<trkpt lat="48.975287" lon="20.103398">
<ele>1056.0</ele>
<desc>Speed 15.9 km/h Distance 24.53 km</desc>
<time>2013-07-23T16:50:27.18</time>
<name>7700</name>
<sym>Dot</sym>
</trkpt>
<trkpt lat="48.975320" lon="20.103365">
<ele>1055.5</ele>
<desc>Speed 15.7 km/h Distance 24.54 km</desc>
<time>2013-07-23T16:50:28.18</time>
<name>7701</name>
<sym>Dot</sym>
</trkpt>
<trkpt lat="48.975352" lon="20.103340">
<ele>1055.5</ele>
<desc>Speed 14.4 km/h Distance 24.54 km</desc>
<time>2013-07-23T16:50:29.17</time>
<name>7702</name>
<sym>Dot</sym>
</trkpt>
<trkpt lat="48.975388" lon="20.103315">
<ele>1055.5</ele>
<desc>Speed 14.3 km/h Distance 24.54 km</desc>
<time>2013-07-23T16:50:30.21</time>
<name>7703</name>
<sym>Dot</sym>
</trkpt>
<trkpt lat="48.975427" lon="20.103285">
<ele>1055.0</ele>
<desc>Speed 14.2 km/h Distance 24.55 km</desc>
<time>2013-07-23T16:50:31.17</time>
<name>7704</name>
<sym>Dot</sym>
</trkpt>
<trkpt lat="48.975465" lon="20.103237">
<ele>1054.0</ele>
<desc>Speed 14.9 km/h Distance 24.55 km</desc>
<time>2013-07-23T16:50:32.17</time>
<name>7705</name>
<sym>Dot</sym>
</trkpt>
<trkpt lat="48.975500" lon="20.103193">
<ele>1054.0</ele>
<desc>Speed 15.4 km/h Distance 24.56 km</desc>
<time>2013-07-23T16:50:33.16</time>
<name>7706</name>
<sym>Dot</sym>
</trkpt>
<trkpt lat="48.975535" lon="20.103153">
<ele>1053.5</ele>
<desc>Speed 14.9 km/h Distance 24.56 km</desc>
<time>2013-07-23T16:50:34.16</time>
<name>7707</name>
<sym>Dot</sym>
</trkpt>
<trkpt lat="48.975558" lon="20.103167">
<ele>1053.0</ele>
<desc>Speed 5.9 km/h Distance 24.57 km</desc>
<time>2013-07-23T16:50:36.16</time>
<name>7708</name>
<sym>Dot</sym>
</trkpt>
<trkpt lat="48.975565" lon="20.103177">
<ele>1052.5</ele>
<desc>Speed 2.8 km/h Distance 24.57 km</desc>
<time>2013-07-23T16:50:37.16</time>
<name>7709</name>
<sym>Dot</sym>
</trkpt>
<trkpt lat="48.975587" lon="20.102973">
<ele>1051.0</ele>
<desc>Speed 4.9 km/h Distance 24.58 km</desc>
<time>2013-07-23T16:51:19.15</time>
<name>7710</name>
<sym>Dot</sym>
</trkpt>
<trkpt lat="48.975593" lon="20.102948">
<ele>1050.5</ele>
<desc>Speed 5.8 km/h Distance 24.59 km</desc>
<time>2013-07-23T16:51:20.15</time>
<name>7711</name>
<sym>Dot</sym>
</trkpt>
<trkpt lat="48.975622" lon="20.102910">
<ele>1051.0</ele>
<desc>Speed 9.7 km/h Distance 24.59 km</desc>
<time>2013-07-23T16:51:22.15</time>
<name>7712</name>
<sym>Dot</sym>
</trkpt>
<trkpt lat="48.975632" lon="20.102890">
<ele>1050.5</ele>
<desc>Speed 10.7 km/h Distance 24.59 km</desc>
<time>2013-07-23T16:51:23.14</time>
<name>7713</name>
<sym>Dot</sym>
</trkpt>
<trkpt lat="48.975652" lon="20.102875">
<ele>1050.5</ele>
<desc>Speed 10.2 km/h Distance 24.59 km</desc>
<time>2013-07-23T16:51:24.13</time>
<name>7714</name>
<sym>Dot</sym>
</trkpt>
<trkpt lat="48.975675" lon="20.102857">
<ele>1050.5</ele>
<desc>Speed 13.5 km/h Distance 24.60 km</desc>
<time>2013-07-23T16:51:25.13</time>
<name>7715</name>
<sym>Dot</sym>
</trkpt>
<trkpt lat="48.975702" lon="20.102832">
<ele>1050.5</ele>
<desc>Speed 14.7 km/h Distance 24.60 km</desc>
<time>2013-07-23T16:51:26.13</time>
<name>7716</name>
<sym>Dot</sym>
</trkpt>
<trkpt lat="48.975732" lon="20.102815">
<ele>1050.5</ele>
<desc>Speed 14.1 km/h Distance 24.60 km</desc>
<time>2013-07-23T16:51:27.12</time>
<name>7717</name>
<sym>Dot</sym>
</trkpt>
<trkpt lat="48.975763" lon="20.102792">
<ele>1049.5</ele>
<desc>Speed 14.8 km/h Distance 24.61 km</desc>
<time>2013-07-23T16:51:28.11</time>
<name>7718</name>
<sym>Dot</sym>
</trkpt>
<trkpt lat="48.975782" lon="20.102767">
<ele>1049.0</ele>
<desc>Speed 15.1 km/h Distance 24.61 km</desc>
<time>2013-07-23T16:51:29.11</time>
<name>7719</name>
<sym>Dot</sym>
</trkpt>
<trkpt lat="48.975812" lon="20.102738">
<ele>1049.0</ele>
<desc>Speed 15.8 km/h Distance 24.61 km</desc>
<time>2013-07-23T16:51:30.11</time>
<name>7720</name>
<sym>Dot</sym>
</trkpt>
<trkpt lat="48.975837" lon="20.102705">
<ele>1048.5</ele>
<desc>Speed 15.3 km/h Distance 24.62 km</desc>
<time>2013-07-23T16:51:31.10</time>
<name>7721</name>
<sym>Dot</sym>
</trkpt>
<trkpt lat="48.975862" lon="20.102665">
<ele>1048.5</ele>
<desc>Speed 16.4 km/h Distance 24.62 km</desc>
<time>2013-07-23T16:51:32.10</time>
<name>7722</name>
<sym>Dot</sym>
</trkpt>
<trkpt lat="48.975915" lon="20.102545">
<ele>1048.0</ele>
<desc>Speed 19.4 km/h Distance 24.63 km</desc>
<time>2013-07-23T16:51:34.09</time>
<name>7723</name>
<sym>Dot</sym>
</trkpt>
<trkpt lat="48.975947" lon="20.102493">
<ele>1048.0</ele>
<desc>Speed 19.8 km/h Distance 24.64 km</desc>
<time>2013-07-23T16:51:35.09</time>
<name>7724</name>
<sym>Dot</sym>
</trkpt>
<trkpt lat="48.975977" lon="20.102455">
<ele>1048.0</ele>
<desc>Speed 17.4 km/h Distance 24.64 km</desc>
<time>2013-07-23T16:51:36.09</time>
<name>7725</name>
<sym>Dot</sym>
</trkpt>
<trkpt lat="48.976007" lon="20.102423">
<ele>1048.0</ele>
<desc>Speed 17.3 km/h Distance 24.65 km</desc>
<time>2013-07-23T16:51:37.09</time>
<name>7726</name>
<sym>Dot</sym>
</trkpt>
<trkpt lat="48.976035" lon="20.102373">
<ele>1047.5</ele>
<desc>Speed 18.6 km/h Distance 24.65 km</desc>
<time>2013-07-23T16:51:38.09</time>
<name>7727</name>
<sym>Dot</sym>
</trkpt>
<trkpt lat="48.976065" lon="20.102337">
<ele>1047.5</ele>
<desc>Speed 17.6 km/h Distance 24.66 km</desc>
<time>2013-07-23T16:51:39.08</time>
<name>7728</name>
<sym>Dot</sym>
</trkpt>
<trkpt lat="48.976093" lon="20.102287">
<ele>1047.5</ele>
<desc>Speed 18.4 km/h Distance 24.66 km</desc>
<time>2013-07-23T16:51:40.11</time>
<name>7729</name>
<sym>Dot</sym>
</trkpt>
<trkpt lat="48.976122" lon="20.102247">
<ele>1047.5</ele>
<desc>Speed 21.0 km/h Distance 24.66 km</desc>
<time>2013-07-23T16:51:42.07</time>
<name>7730</name>
<sym>Dot</sym>
</trkpt>
<trkpt lat="48.976153" lon="20.102190">
<ele>1047.5</ele>
<desc>Speed 19.2 km/h Distance 24.67 km</desc>
<time>2013-07-23T16:51:43.07</time>
<name>7731</name>
<sym>Dot</sym>
</trkpt>
<trkpt lat="48.976228" lon="20.102028">
<ele>1047.5</ele>
<desc>Speed 19.7 km/h Distance 24.68 km</desc>
<time>2013-07-23T16:51:45.07</time>
<name>7732</name>
<sym>Dot</sym>
</trkpt>
<trkpt lat="48.976262" lon="20.101995">
<ele>1047.5</ele>
<desc>Speed 19.7 km/h Distance 24.69 km</desc>
<time>2013-07-23T16:51:46.07</time>
<name>7733</name>
<sym>Dot</sym>
</trkpt>
<trkpt lat="48.976300" lon="20.101932">
<ele>1047.5</ele>
<desc>Speed 20.2 km/h Distance 24.70 km</desc>
<time>2013-07-23T16:51:47.06</time>
<name>7734</name>
<sym>Dot</sym>
</trkpt>
<trkpt lat="48.976377" lon="20.101738">
<ele>1047.5</ele>
<desc>Speed 22.6 km/h Distance 24.71 km</desc>
<time>2013-07-23T16:51:49.06</time>
<name>7735</name>
<sym>Dot</sym>
</trkpt>
<trkpt lat="48.976410" lon="20.101665">
<ele>1047.5</ele>
<desc>Speed 21.7 km/h Distance 24.72 km</desc>
<time>2013-07-23T16:51:50.06</time>
<name>7736</name>
<sym>Dot</sym>
</trkpt>
<trkpt lat="48.976438" lon="20.101590">
<ele>1047.5</ele>
<desc>Speed 23.0 km/h Distance 24.72 km</desc>
<time>2013-07-23T16:51:51.06</time>
<name>7737</name>
<sym>Dot</sym>
</trkpt>
<trkpt lat="48.976470" lon="20.101512">
<ele>1047.5</ele>
<desc>Speed 21.8 km/h Distance 24.73 km</desc>
<time>2013-07-23T16:51:52.06</time>
<name>7738</name>
<sym>Dot</sym>
</trkpt>
<trkpt lat="48.976503" lon="20.101437">
<ele>1047.5</ele>
<desc>Speed 20.2 km/h Distance 24.74 km</desc>
<time>2013-07-23T16:51:53.05</time>
<name>7739</name>
<sym>Dot</sym>
</trkpt>
<trkpt lat="48.976532" lon="20.101348">
<ele>1047.5</ele>
<desc>Speed 21.3 km/h Distance 24.75 km</desc>
<time>2013-07-23T16:51:54.05</time>
<name>7740</name>
<sym>Dot</sym>
</trkpt>
<trkpt lat="48.976558" lon="20.101255">
<ele>1047.5</ele>
<desc>Speed 20.7 km/h Distance 24.75 km</desc>
<time>2013-07-23T16:51:55.04</time>
<name>7741</name>
<sym>Dot</sym>
</trkpt>
<trkpt lat="48.976570" lon="20.101187">
<ele>1047.5</ele>
<desc>Speed 20.8 km/h Distance 24.76 km</desc>
<time>2013-07-23T16:51:56.04</time>
<name>7742</name>
<sym>Dot</sym>
</trkpt>
<trkpt lat="48.976603" lon="20.101118">
<ele>1047.5</ele>
<desc>Speed 20.3 km/h Distance 24.76 km</desc>
<time>2013-07-23T16:51:57.04</time>
<name>7743</name>
<sym>Dot</sym>
</trkpt>
<trkpt lat="48.976643" lon="20.101062">
<ele>1047.5</ele>
<desc>Speed 20.5 km/h Distance 24.77 km</desc>
<time>2013-07-23T16:51:58.04</time>
<name>7744</name>
<sym>Dot</sym>
</trkpt>
<trkpt lat="48.976682" lon="20.100988">
<ele>1047.5</ele>
<desc>Speed 21.9 km/h Distance 24.78 km</desc>
<time>2013-07-23T16:51:59.04</time>
<name>7745</name>
<sym>Dot</sym>
</trkpt>
<trkpt lat="48.976715" lon="20.100913">
<ele>1047.5</ele>
<desc>Speed 20.1 km/h Distance 24.78 km</desc>
<time>2013-07-23T16:52:00.03</time>
<name>7746</name>
<sym>Dot</sym>
</trkpt>
<trkpt lat="48.976747" lon="20.100833">
<ele>1047.5</ele>
<desc>Speed 20.1 km/h Distance 24.79 km</desc>
<time>2013-07-23T16:52:01.02</time>
<name>7747</name>
<sym>Dot</sym>
</trkpt>
<trkpt lat="48.976775" lon="20.100752">
<ele>1047.5</ele>
<desc>Speed 20.1 km/h Distance 24.80 km</desc>
<time>2013-07-23T16:52:02.02</time>
<name>7748</name>
<sym>Dot</sym>
</trkpt>
<trkpt lat="48.976803" lon="20.100660">
<ele>1047.5</ele>
<desc>Speed 20.1 km/h Distance 24.80 km</desc>
<time>2013-07-23T16:52:03.02</time>
<name>7749</name>
<sym>Dot</sym>
</trkpt>
<trkpt lat="48.976858" lon="20.100515">
<ele>1047.5</ele>
<desc>Speed 20.6 km/h Distance 24.82 km</desc>
<time>2013-07-23T16:52:05.01</time>
<name>7750</name>
<sym>Dot</sym>
</trkpt>
<trkpt lat="48.976878" lon="20.100425">
<ele>1047.5</ele>
<desc>Speed 20.6 km/h Distance 24.82 km</desc>
<time>2013-07-23T16:52:06.01</time>
<name>7751</name>
<sym>Dot</sym>
</trkpt>
<trkpt lat="48.976903" lon="20.100345">
<ele>1047.5</ele>
<desc>Speed 20.9 km/h Distance 24.83 km</desc>
<time>2013-07-23T16:52:07.01</time>
<name>7752</name>
<sym>Dot</sym>
</trkpt>
<trkpt lat="48.976925" lon="20.100273">
<ele>1047.5</ele>
<desc>Speed 20.6 km/h Distance 24.84 km</desc>
<time>2013-07-23T16:52:08.00</time>
<name>7753</name>
<sym>Dot</sym>
</trkpt>
<trkpt lat="48.976945" lon="20.100205">
<ele>1047.5</ele>
<desc>Speed 20.5 km/h Distance 24.84 km</desc>
<time>2013-07-23T16:52:09.00</time>
<name>7754</name>
<sym>Dot</sym>
</trkpt>
<trkpt lat="48.976960" lon="20.100138">
<ele>1047.5</ele>
<desc>Speed 20.2 km/h Distance 24.85 km</desc>
<time>2013-07-23T16:52:10.08</time>
<name>7755</name>
<sym>Dot</sym>
</trkpt>
<trkpt lat="48.976972" lon="20.100067">
<ele>1047.5</ele>
<desc>Speed 19.9 km/h Distance 24.85 km</desc>
<time>2013-07-23T16:52:10.99</time>
<name>7756</name>
<sym>Dot</sym>
</trkpt>
<trkpt lat="48.976978" lon="20.099993">
<ele>1047.5</ele>
<desc>Speed 19.4 km/h Distance 24.86 km</desc>
<time>2013-07-23T16:52:11.98</time>
<name>7757</name>
<sym>Dot</sym>
</trkpt>
<trkpt lat="48.976982" lon="20.099905">
<ele>1047.5</ele>
<desc>Speed 19.2 km/h Distance 24.86 km</desc>
<time>2013-07-23T16:52:12.97</time>
<name>7758</name>
<sym>Dot</sym>
</trkpt>
<trkpt lat="48.976995" lon="20.099830">
<ele>1047.5</ele>
<desc>Speed 19.8 km/h Distance 24.87 km</desc>
<time>2013-07-23T16:52:13.97</time>
<name>7759</name>
<sym>Dot</sym>
</trkpt>
<trkpt lat="48.977012" lon="20.099755">
<ele>1047.5</ele>
<desc>Speed 19.8 km/h Distance 24.88 km</desc>
<time>2013-07-23T16:52:14.96</time>
<name>7760</name>
<sym>Dot</sym>
</trkpt>
<trkpt lat="48.977027" lon="20.099673">
<ele>1047.5</ele>
<desc>Speed 19.8 km/h Distance 24.88 km</desc>
<time>2013-07-23T16:52:15.96</time>
<name>7761</name>
<sym>Dot</sym>
</trkpt>
<trkpt lat="48.977045" lon="20.099597">
<ele>1047.0</ele>
<desc>Speed 19.5 km/h Distance 24.89 km</desc>
<time>2013-07-23T16:52:16.96</time>
<name>7762</name>
<sym>Dot</sym>
</trkpt>
<trkpt lat="48.977060" lon="20.099507">
<ele>1047.0</ele>
<desc>Speed 19.1 km/h Distance 24.89 km</desc>
<time>2013-07-23T16:52:17.95</time>
<name>7763</name>
<sym>Dot</sym>
</trkpt>
<trkpt lat="48.977067" lon="20.099430">
<ele>1047.0</ele>
<desc>Speed 19.4 km/h Distance 24.90 km</desc>
<time>2013-07-23T16:52:18.94</time>
<name>7764</name>
<sym>Dot</sym>
</trkpt>
<trkpt lat="48.977077" lon="20.099362">
<ele>1047.0</ele>
<desc>Speed 19.4 km/h Distance 24.91 km</desc>
<time>2013-07-23T16:52:19.94</time>
<name>7765</name>
<sym>Dot</sym>
</trkpt>
<trkpt lat="48.977093" lon="20.099293">
<ele>1047.0</ele>
<desc>Speed 19.6 km/h Distance 24.91 km</desc>
<time>2013-07-23T16:52:20.94</time>
<name>7766</name>
<sym>Dot</sym>
</trkpt>
<trkpt lat="48.977080" lon="20.099208">
<ele>1047.0</ele>
<desc>Speed 20.4 km/h Distance 24.92 km</desc>
<time>2013-07-23T16:52:21.95</time>
<name>7767</name>
<sym>Dot</sym>
</trkpt>
<trkpt lat="48.977093" lon="20.099135">
<ele>1046.5</ele>
<desc>Speed 18.6 km/h Distance 24.92 km</desc>
<time>2013-07-23T16:52:22.93</time>
<name>7768</name>
<sym>Dot</sym>
</trkpt>
<trkpt lat="48.977110" lon="20.099073">
<ele>1046.5</ele>
<desc>Speed 18.5 km/h Distance 24.93 km</desc>
<time>2013-07-23T16:52:23.93</time>
<name>7769</name>
<sym>Dot</sym>
</trkpt>
<trkpt lat="48.977128" lon="20.099012">
<ele>1046.5</ele>
<desc>Speed 19.0 km/h Distance 24.93 km</desc>
<time>2013-07-23T16:52:24.93</time>
<name>7770</name>
<sym>Dot</sym>
</trkpt>
<trkpt lat="48.977143" lon="20.098947">
<ele>1046.5</ele>
<desc>Speed 19.5 km/h Distance 24.94 km</desc>
<time>2013-07-23T16:52:26.02</time>
<name>7771</name>
<sym>Dot</sym>
</trkpt>
<trkpt lat="48.977183" lon="20.098892">
<ele>1046.5</ele>
<desc>Speed 19.7 km/h Distance 24.94 km</desc>
<time>2013-07-23T16:52:26.92</time>
<name>7772</name>
<sym>Dot</sym>
</trkpt>
<trkpt lat="48.977227" lon="20.098840">
<ele>1046.5</ele>
<desc>Speed 19.8 km/h Distance 24.95 km</desc>
<time>2013-07-23T16:52:27.91</time>
<name>7773</name>
<sym>Dot</sym>
</trkpt>
<trkpt lat="48.977270" lon="20.098802">
<ele>1046.5</ele>
<desc>Speed 20.4 km/h Distance 24.95 km</desc>
<time>2013-07-23T16:52:28.91</time>
<name>7774</name>
<sym>Dot</sym>
</trkpt>
<trkpt lat="48.977312" lon="20.098785">
<ele>1046.5</ele>
<desc>Speed 16.7 km/h Distance 24.96 km</desc>
<time>2013-07-23T16:52:29.90</time>
<name>7775</name>
<sym>Dot</sym>
</trkpt>
<trkpt lat="48.977358" lon="20.098753">
<ele>1046.5</ele>
<desc>Speed 18.8 km/h Distance 24.97 km</desc>
<time>2013-07-23T16:52:30.90</time>
<name>7776</name>
<sym>Dot</sym>
</trkpt>
<trkpt lat="48.977405" lon="20.098712">
<ele>1046.5</ele>
<desc>Speed 21.9 km/h Distance 24.97 km</desc>
<time>2013-07-23T16:52:31.90</time>
<name>7777</name>
<sym>Dot</sym>
</trkpt>
<trkpt lat="48.977455" lon="20.098692">
<ele>1046.5</ele>
<desc>Speed 21.2 km/h Distance 24.98 km</desc>
<time>2013-07-23T16:52:32.90</time>
<name>7778</name>
<sym>Dot</sym>
</trkpt>
<trkpt lat="48.977507" lon="20.098677">
<ele>1046.5</ele>
<desc>Speed 22.4 km/h Distance 24.98 km</desc>
<time>2013-07-23T16:52:33.89</time>
<name>7779</name>
<sym>Dot</sym>
</trkpt>
<trkpt lat="48.977580" lon="20.098662">
<ele>1046.5</ele>
<desc>Speed 28.7 km/h Distance 24.99 km</desc>
<time>2013-07-23T16:52:34.89</time>
<name>7780</name>
<sym>Dot</sym>
</trkpt>
<trkpt lat="48.977638" lon="20.098652">
<ele>1046.5</ele>
<desc>Speed 25.5 km/h Distance 25.00 km</desc>
<time>2013-07-23T16:52:35.88</time>
<name>7781</name>
<sym>Dot</sym>
</trkpt>
<trkpt lat="48.977695" lon="20.098653">
<ele>1046.5</ele>
<desc>Speed 23.2 km/h Distance 25.00 km</desc>
<time>2013-07-23T16:52:36.88</time>
<name>7782</name>
<sym>Dot</sym>
</trkpt>
<trkpt lat="48.977747" lon="20.098635">
<ele>1046.5</ele>
<desc>Speed 23.9 km/h Distance 25.01 km</desc>
<time>2013-07-23T16:52:37.88</time>
<name>7783</name>
<sym>Dot</sym>
</trkpt>
<trkpt lat="48.977795" lon="20.098638">
<ele>1046.5</ele>
<desc>Speed 22.7 km/h Distance 25.02 km</desc>
<time>2013-07-23T16:52:38.87</time>
<name>7784</name>
<sym>Dot</sym>
</trkpt>
<trkpt lat="48.977843" lon="20.098607">
<ele>1046.5</ele>
<desc>Speed 23.3 km/h Distance 25.02 km</desc>
<time>2013-07-23T16:52:39.87</time>
<name>7785</name>
<sym>Dot</sym>
</trkpt>
<trkpt lat="48.977900" lon="20.098532">
<ele>1046.5</ele>
<desc>Speed 24.3 km/h Distance 25.03 km</desc>
<time>2013-07-23T16:52:40.87</time>
<name>7786</name>
<sym>Dot</sym>
</trkpt>
<trkpt lat="48.978003" lon="20.098297">
<ele>1046.5</ele>
<desc>Speed 23.8 km/h Distance 25.05 km</desc>
<time>2013-07-23T16:52:42.86</time>
<name>7787</name>
<sym>Dot</sym>
</trkpt>
<trkpt lat="48.978048" lon="20.098212">
<ele>1046.5</ele>
<desc>Speed 24.2 km/h Distance 25.06 km</desc>
<time>2013-07-23T16:52:43.86</time>
<name>7788</name>
<sym>Dot</sym>
</trkpt>
<trkpt lat="48.978093" lon="20.098135">
<ele>1046.5</ele>
<desc>Speed 24.8 km/h Distance 25.07 km</desc>
<time>2013-07-23T16:52:44.86</time>
<name>7789</name>
<sym>Dot</sym>
</trkpt>
<trkpt lat="48.978135" lon="20.098057">
<ele>1046.5</ele>
<desc>Speed 22.7 km/h Distance 25.07 km</desc>
<time>2013-07-23T16:52:45.85</time>
<name>7790</name>
<sym>Dot</sym>
</trkpt>
<trkpt lat="48.978173" lon="20.098013">
<ele>1046.5</ele>
<desc>Speed 23.7 km/h Distance 25.08 km</desc>
<time>2013-07-23T16:52:46.85</time>
<name>7791</name>
<sym>Dot</sym>
</trkpt>
<trkpt lat="48.978200" lon="20.097952">
<ele>1046.5</ele>
<desc>Speed 17.8 km/h Distance 25.08 km</desc>
<time>2013-07-23T16:52:47.85</time>
<name>7792</name>
<sym>Dot</sym>
</trkpt>
<trkpt lat="48.978292" lon="20.097837">
<ele>1046.5</ele>
<desc>Speed 25.4 km/h Distance 25.10 km</desc>
<time>2013-07-23T16:52:49.84</time>
<name>7793</name>
<sym>Dot</sym>
</trkpt>
<trkpt lat="48.978330" lon="20.097772">
<ele>1046.5</ele>
<desc>Speed 20.1 km/h Distance 25.10 km</desc>
<time>2013-07-23T16:52:50.84</time>
<name>7794</name>
<sym>Dot</sym>
</trkpt>
<trkpt lat="48.978440" lon="20.097613">
<ele>1046.5</ele>
<desc>Speed 19.4 km/h Distance 25.12 km</desc>
<time>2013-07-23T16:52:52.84</time>
<name>7795</name>
<sym>Dot</sym>
</trkpt>
<trkpt lat="48.978478" lon="20.097548">
<ele>1046.5</ele>
<desc>Speed 18.3 km/h Distance 25.13 km</desc>
<time>2013-07-23T16:52:53.96</time>
<name>7796</name>
<sym>Dot</sym>
</trkpt>
<trkpt lat="48.978508" lon="20.097480">
<ele>1046.5</ele>
<desc>Speed 15.9 km/h Distance 25.13 km</desc>
<time>2013-07-23T16:52:54.84</time>
<name>7797</name>
<sym>Dot</sym>
</trkpt>
<trkpt lat="48.978597" lon="20.097342">
<ele>1046.5</ele>
<desc>Speed 20.6 km/h Distance 25.15 km</desc>
<time>2013-07-23T16:52:56.83</time>
<name>7798</name>
<sym>Dot</sym>
</trkpt>
<trkpt lat="48.978640" lon="20.097288">
<ele>1046.5</ele>
<desc>Speed 18.0 km/h Distance 25.15 km</desc>
<time>2013-07-23T16:52:57.82</time>
<name>7799</name>
<sym>Dot</sym>
</trkpt>
<trkpt lat="48.978667" lon="20.097225">
<ele>1046.5</ele>
<desc>Speed 21.1 km/h Distance 25.16 km</desc>
<time>2013-07-23T16:52:58.86</time>
<name>7800</name>
<sym>Dot</sym>
</trkpt>
<trkpt lat="48.978687" lon="20.097162">
<ele>1046.5</ele>
<desc>Speed 22.5 km/h Distance 25.16 km</desc>
<time>2013-07-23T16:52:59.81</time>
<name>7801</name>
<sym>Dot</sym>
</trkpt>
<trkpt lat="48.978730" lon="20.097073">
<ele>1046.5</ele>
<desc>Speed 18.5 km/h Distance 25.17 km</desc>
<time>2013-07-23T16:53:01.81</time>
<name>7802</name>
<sym>Dot</sym>
</trkpt>
<trkpt lat="48.978780" lon="20.096935">
<ele>1046.5</ele>
<desc>Speed 20.4 km/h Distance 25.18 km</desc>
<time>2013-07-23T16:53:03.81</time>
<name>7803</name>
<sym>Dot</sym>
</trkpt>
<trkpt lat="48.978805" lon="20.096872">
<ele>1046.0</ele>
<desc>Speed 20.0 km/h Distance 25.19 km</desc>
<time>2013-07-23T16:53:04.81</time>
<name>7804</name>
<sym>Dot</sym>
</trkpt>
<trkpt lat="48.978825" lon="20.096818">
<ele>1046.0</ele>
<desc>Speed 20.4 km/h Distance 25.19 km</desc>
<time>2013-07-23T16:53:05.80</time>
<name>7805</name>
<sym>Dot</sym>
</trkpt>
<trkpt lat="48.978848" lon="20.096768">
<ele>1046.0</ele>
<desc>Speed 20.6 km/h Distance 25.20 km</desc>
<time>2013-07-23T16:53:06.80</time>
<name>7806</name>
<sym>Dot</sym>
</trkpt>
<trkpt lat="48.978917" lon="20.096663">
<ele>1046.0</ele>
<desc>Speed 16.6 km/h Distance 25.21 km</desc>
<time>2013-07-23T16:53:10.25</time>
<name>7807</name>
<sym>Dot</sym>
</trkpt>
<trkpt lat="48.978973" lon="20.096533">
<ele>1046.0</ele>
<desc>Speed 20.7 km/h Distance 25.22 km</desc>
<time>2013-07-23T16:53:12.25</time>
<name>7808</name>
<sym>Dot</sym>
</trkpt>
<trkpt lat="48.979017" lon="20.096453">
<ele>1046.0</ele>
<desc>Speed 25.1 km/h Distance 25.23 km</desc>
<time>2013-07-23T16:53:13.25</time>
<name>7809</name>
<sym>Dot</sym>
</trkpt>
<trkpt lat="48.979050" lon="20.096342">
<ele>1046.0</ele>
<desc>Speed 25.2 km/h Distance 25.24 km</desc>
<time>2013-07-23T16:53:14.24</time>
<name>7810</name>
<sym>Dot</sym>
</trkpt>
<trkpt lat="48.979088" lon="20.096255">
<ele>1046.0</ele>
<desc>Speed 23.1 km/h Distance 25.24 km</desc>
<time>2013-07-23T16:53:15.23</time>
<name>7811</name>
<sym>Dot</sym>
</trkpt>
<trkpt lat="48.979132" lon="20.096180">
<ele>1046.0</ele>
<desc>Speed 20.6 km/h Distance 25.25 km</desc>
<time>2013-07-23T16:53:16.23</time>
<name>7812</name>
<sym>Dot</sym>
</trkpt>
<trkpt lat="48.979167" lon="20.096118">
<ele>1046.0</ele>
<desc>Speed 21.0 km/h Distance 25.26 km</desc>
<time>2013-07-23T16:53:17.22</time>
<name>7813</name>
<sym>Dot</sym>
</trkpt>
<trkpt lat="48.979198" lon="20.096073">
<ele>1046.0</ele>
<desc>Speed 18.4 km/h Distance 25.26 km</desc>
<time>2013-07-23T16:53:18.21</time>
<name>7814</name>
<sym>Dot</sym>
</trkpt>
<trkpt lat="48.979250" lon="20.095970">
<ele>1046.0</ele>
<desc>Speed 15.3 km/h Distance 25.27 km</desc>
<time>2013-07-23T16:53:20.21</time>
<name>7815</name>
<sym>Dot</sym>
</trkpt>
<trkpt lat="48.979308" lon="20.095897">
<ele>1046.0</ele>
<desc>Speed 20.3 km/h Distance 25.28 km</desc>
<time>2013-07-23T16:53:22.21</time>
<name>7816</name>
<sym>Dot</sym>
</trkpt>
<trkpt lat="48.979350" lon="20.095817">
<ele>1046.0</ele>
<desc>Speed 16.0 km/h Distance 25.29 km</desc>
<time>2013-07-23T16:53:24.29</time>
<name>7817</name>
<sym>Dot</sym>
</trkpt>
<trkpt lat="48.979425" lon="20.095673">
<ele>1046.0</ele>
<desc>Speed 19.6 km/h Distance 25.30 km</desc>
<time>2013-07-23T16:53:26.19</time>
<name>7818</name>
<sym>Dot</sym>
</trkpt>
<trkpt lat="48.979458" lon="20.095655">
<ele>1046.0</ele>
<desc>Speed 18.2 km/h Distance 25.30 km</desc>
<time>2013-07-23T16:53:27.19</time>
<name>7819</name>
<sym>Dot</sym>
</trkpt>
<trkpt lat="48.979480" lon="20.095608">
<ele>1046.0</ele>
<desc>Speed 18.2 km/h Distance 25.31 km</desc>
<time>2013-07-23T16:53:28.18</time>
<name>7820</name>
<sym>Dot</sym>
</trkpt>
<trkpt lat="48.979512" lon="20.095553">
<ele>1046.0</ele>
<desc>Speed 20.8 km/h Distance 25.31 km</desc>
<time>2013-07-23T16:53:29.17</time>
<name>7821</name>
<sym>Dot</sym>
</trkpt>
<trkpt lat="48.979523" lon="20.095483">
<ele>1046.0</ele>
<desc>Speed 17.1 km/h Distance 25.32 km</desc>
<time>2013-07-23T16:53:30.17</time>
<name>7822</name>
<sym>Dot</sym>
</trkpt>
<trkpt lat="48.979577" lon="20.095293">
<ele>1046.0</ele>
<desc>Speed 18.5 km/h Distance 25.33 km</desc>
<time>2013-07-23T16:53:32.17</time>
<name>7823</name>
<sym>Dot</sym>
</trkpt>
<trkpt lat="48.979587" lon="20.095073">
<ele>1046.0</ele>
<desc>Speed 18.5 km/h Distance 25.35 km</desc>
<time>2013-07-23T16:53:34.16</time>
<name>7824</name>
<sym>Dot</sym>
</trkpt>
<trkpt lat="48.979590" lon="20.094988">
<ele>1046.0</ele>
<desc>Speed 18.3 km/h Distance 25.36 km</desc>
<time>2013-07-23T16:53:35.16</time>
<name>7825</name>
<sym>Dot</sym>
</trkpt>
<trkpt lat="48.979602" lon="20.094895">
<ele>1046.0</ele>
<desc>Speed 17.4 km/h Distance 25.36 km</desc>
<time>2013-07-23T16:53:36.15</time>
<name>7826</name>
<sym>Dot</sym>
</trkpt>
<trkpt lat="48.979600" lon="20.094827">
<ele>1046.0</ele>
<desc>Speed 16.8 km/h Distance 25.37 km</desc>
<time>2013-07-23T16:53:37.15</time>
<name>7827</name>
<sym>Dot</sym>
</trkpt>
<trkpt lat="48.979598" lon="20.094760">
<ele>1046.0</ele>
<desc>Speed 16.3 km/h Distance 25.37 km</desc>
<time>2013-07-23T16:53:38.14</time>
<name>7828</name>
<sym>Dot</sym>
</trkpt>
<trkpt lat="48.979608" lon="20.094697">
<ele>1046.0</ele>
<desc>Speed 16.0 km/h Distance 25.38 km</desc>
<time>2013-07-23T16:53:39.14</time>
<name>7829</name>
<sym>Dot</sym>
</trkpt>
<trkpt lat="48.979592" lon="20.094573">
<ele>1046.0</ele>
<desc>Speed 15.2 km/h Distance 25.39 km</desc>
<time>2013-07-23T16:53:41.14</time>
<name>7830</name>
<sym>Dot</sym>
</trkpt>
<trkpt lat="48.979587" lon="20.094500">
<ele>1046.0</ele>
<desc>Speed 15.6 km/h Distance 25.39 km</desc>
<time>2013-07-23T16:53:42.13</time>
<name>7831</name>
<sym>Dot</sym>
</trkpt>
<trkpt lat="48.979570" lon="20.094438">
<ele>1046.0</ele>
<desc>Speed 15.4 km/h Distance 25.40 km</desc>
<time>2013-07-23T16:53:43.13</time>
<name>7832</name>
<sym>Dot</sym>
</trkpt>
<trkpt lat="48.979547" lon="20.094377">
<ele>1046.0</ele>
<desc>Speed 15.2 km/h Distance 25.40 km</desc>
<time>2013-07-23T16:53:44.12</time>
<name>7833</name>
<sym>Dot</sym>
</trkpt>
<trkpt lat="48.979522" lon="20.094310">
<ele>1046.0</ele>
<desc>Speed 15.6 km/h Distance 25.41 km</desc>
<time>2013-07-23T16:53:45.12</time>
<name>7834</name>
<sym>Dot</sym>
</trkpt>
<trkpt lat="48.979497" lon="20.094242">
<ele>1046.0</ele>
<desc>Speed 15.9 km/h Distance 25.41 km</desc>
<time>2013-07-23T16:53:46.11</time>
<name>7835</name>
<sym>Dot</sym>
</trkpt>
<trkpt lat="48.979473" lon="20.094175">
<ele>1046.0</ele>
<desc>Speed 15.9 km/h Distance 25.42 km</desc>
<time>2013-07-23T16:53:47.25</time>
<name>7836</name>
<sym>Dot</sym>
</trkpt>
<trkpt lat="48.979452" lon="20.094130">
<ele>1046.0</ele>
<desc>Speed 15.8 km/h Distance 25.42 km</desc>
<time>2013-07-23T16:53:48.10</time>
<name>7837</name>
<sym>Dot</sym>
</trkpt>
<trkpt lat="48.979433" lon="20.094083">
<ele>1046.0</ele>
<desc>Speed 15.5 km/h Distance 25.43 km</desc>
<time>2013-07-23T16:53:49.10</time>
<name>7838</name>
<sym>Dot</sym>
</trkpt>
<trkpt lat="48.979410" lon="20.094042">
<ele>1046.0</ele>
<desc>Speed 15.6 km/h Distance 25.43 km</desc>
<time>2013-07-23T16:53:50.10</time>
<name>7839</name>
<sym>Dot</sym>
</trkpt>
<trkpt lat="48.979388" lon="20.094000">
<ele>1046.0</ele>
<desc>Speed 15.0 km/h Distance 25.44 km</desc>
<time>2013-07-23T16:53:51.09</time>
<name>7840</name>
<sym>Dot</sym>
</trkpt>
<trkpt lat="48.979370" lon="20.093955">
<ele>1046.0</ele>
<desc>Speed 14.9 km/h Distance 25.44 km</desc>
<time>2013-07-23T16:53:52.08</time>
<name>7841</name>
<sym>Dot</sym>
</trkpt>
<trkpt lat="48.979357" lon="20.093908">
<ele>1046.0</ele>
<desc>Speed 14.4 km/h Distance 25.44 km</desc>
<time>2013-07-23T16:53:53.08</time>
<name>7842</name>
<sym>Dot</sym>
</trkpt>
<trkpt lat="48.979348" lon="20.093868">
<ele>1046.0</ele>
<desc>Speed 13.0 km/h Distance 25.45 km</desc>
<time>2013-07-23T16:53:54.08</time>
<name>7843</name>
<sym>Dot</sym>
</trkpt>
<trkpt lat="48.979352" lon="20.093823">
<ele>1046.0</ele>
<desc>Speed 11.1 km/h Distance 25.45 km</desc>
<time>2013-07-23T16:53:55.07</time>
<name>7844</name>
<sym>Dot</sym>
</trkpt>
<trkpt lat="48.979360" lon="20.093785">
<ele>1046.0</ele>
<desc>Speed 9.9 km/h Distance 25.45 km</desc>
<time>2013-07-23T16:53:56.07</time>
<name>7845</name>
<sym>Dot</sym>
</trkpt>
<trkpt lat="48.979392" lon="20.093710">
<ele>1046.0</ele>
<desc>Speed 9.4 km/h Distance 25.46 km</desc>
<time>2013-07-23T16:53:58.06</time>
<name>7846</name>
<sym>Dot</sym>
</trkpt>
<trkpt lat="48.979417" lon="20.093670">
<ele>1046.0</ele>
<desc>Speed 9.4 km/h Distance 25.46 km</desc>
<time>2013-07-23T16:53:59.06</time>
<name>7847</name>
<sym>Dot</sym>
</trkpt>
<trkpt lat="48.979442" lon="20.093627">
<ele>1046.0</ele>
<desc>Speed 9.8 km/h Distance 25.47 km</desc>
<time>2013-07-23T16:54:00.05</time>
<name>7848</name>
<sym>Dot</sym>
</trkpt>
<trkpt lat="48.979455" lon="20.093605">
<ele>1046.0</ele>
<desc>Speed 8.1 km/h Distance 25.47 km</desc>
<time>2013-07-23T16:54:01.05</time>
<name>7849</name>
<sym>Dot</sym>
</trkpt>
<trkpt lat="48.979475" lon="20.093593">
<ele>1046.0</ele>
<desc>Speed 9.3 km/h Distance 25.47 km</desc>
<time>2013-07-23T16:54:02.05</time>
<name>7850</name>
<sym>Dot</sym>
</trkpt>
<trkpt lat="48.979508" lon="20.093585">
<ele>1046.0</ele>
<desc>Speed 10.9 km/h Distance 25.48 km</desc>
<time>2013-07-23T16:54:03.04</time>
<name>7851</name>
<sym>Dot</sym>
</trkpt>
<trkpt lat="48.979542" lon="20.093585">
<ele>1046.0</ele>
<desc>Speed 12.3 km/h Distance 25.48 km</desc>
<time>2013-07-23T16:54:04.03</time>
<name>7852</name>
<sym>Dot</sym>
</trkpt>
<trkpt lat="48.979572" lon="20.093580">
<ele>1046.0</ele>
<desc>Speed 12.6 km/h Distance 25.48 km</desc>
<time>2013-07-23T16:54:05.03</time>
<name>7853</name>
<sym>Dot</sym>
</trkpt>
<trkpt lat="48.979597" lon="20.093565">
<ele>1046.0</ele>
<desc>Speed 12.6 km/h Distance 25.49 km</desc>
<time>2013-07-23T16:54:06.03</time>
<name>7854</name>
<sym>Dot</sym>
</trkpt>
<trkpt lat="48.979622" lon="20.093555">
<ele>1046.0</ele>
<desc>Speed 13.2 km/h Distance 25.49 km</desc>
<time>2013-07-23T16:54:07.02</time>
<name>7855</name>
<sym>Dot</sym>
</trkpt>
<trkpt lat="48.979655" lon="20.093550">
<ele>1046.0</ele>
<desc>Speed 13.5 km/h Distance 25.49 km</desc>
<time>2013-07-23T16:54:08.02</time>
<name>7856</name>
<sym>Dot</sym>
</trkpt>
<trkpt lat="48.979685" lon="20.093555">
<ele>1046.0</ele>
<desc>Speed 14.0 km/h Distance 25.50 km</desc>
<time>2013-07-23T16:54:09.02</time>
<name>7857</name>
<sym>Dot</sym>
</trkpt>
<trkpt lat="48.979717" lon="20.093548">
<ele>1046.0</ele>
<desc>Speed 14.5 km/h Distance 25.50 km</desc>
<time>2013-07-23T16:54:10.02</time>
<name>7858</name>
<sym>Dot</sym>
</trkpt>
<trkpt lat="48.979750" lon="20.093537">
<ele>1046.0</ele>
<desc>Speed 15.3 km/h Distance 25.50 km</desc>
<time>2013-07-23T16:54:11.01</time>
<name>7859</name>
<sym>Dot</sym>
</trkpt>
<trkpt lat="48.979785" lon="20.093513">
<ele>1046.0</ele>
<desc>Speed 16.4 km/h Distance 25.51 km</desc>
<time>2013-07-23T16:54:12.02</time>
<name>7860</name>
<sym>Dot</sym>
</trkpt>
<trkpt lat="48.979837" lon="20.093503">
<ele>1045.5</ele>
<desc>Speed 16.0 km/h Distance 25.51 km</desc>
<time>2013-07-23T16:54:14.00</time>
<name>7861</name>
<sym>Dot</sym>
</trkpt>
<trkpt lat="48.979867" lon="20.093498">
<ele>1045.5</ele>
<desc>Speed 15.9 km/h Distance 25.52 km</desc>
<time>2013-07-23T16:54:14.99</time>
<name>7862</name>
<sym>Dot</sym>
</trkpt>
<trkpt lat="48.979905" lon="20.093485">
<ele>1045.5</ele>
<desc>Speed 16.3 km/h Distance 25.52 km</desc>
<time>2013-07-23T16:54:15.99</time>
<name>7863</name>
<sym>Dot</sym>
</trkpt>
<trkpt lat="48.979943" lon="20.093472">
<ele>1045.5</ele>
<desc>Speed 16.5 km/h Distance 25.53 km</desc>
<time>2013-07-23T16:54:16.98</time>
<name>7864</name>
<sym>Dot</sym>
</trkpt>
<trkpt lat="48.979972" lon="20.093453">
<ele>1046.0</ele>
<desc>Speed 16.7 km/h Distance 25.53 km</desc>
<time>2013-07-23T16:54:18.13</time>
<name>7865</name>
<sym>Dot</sym>
</trkpt>
<trkpt lat="48.980007" lon="20.093430">
<ele>1046.0</ele>
<desc>Speed 17.0 km/h Distance 25.53 km</desc>
<time>2013-07-23T16:54:18.97</time>
<name>7866</name>
<sym>Dot</sym>
</trkpt>
<trkpt lat="48.980042" lon="20.093405">
<ele>1046.0</ele>
<desc>Speed 16.7 km/h Distance 25.54 km</desc>
<time>2013-07-23T16:54:19.97</time>
<name>7867</name>
<sym>Dot</sym>
</trkpt>
<trkpt lat="48.980080" lon="20.093382">
<ele>1046.0</ele>
<desc>Speed 16.8 km/h Distance 25.54 km</desc>
<time>2013-07-23T16:54:20.97</time>
<name>7868</name>
<sym>Dot</sym>
</trkpt>
<trkpt lat="48.980112" lon="20.093382">
<ele>1046.0</ele>
<desc>Speed 15.8 km/h Distance 25.55 km</desc>
<time>2013-07-23T16:54:21.98</time>
<name>7869</name>
<sym>Dot</sym>
</trkpt>
<trkpt lat="48.980148" lon="20.093372">
<ele>1046.0</ele>
<desc>Speed 16.6 km/h Distance 25.55 km</desc>
<time>2013-07-23T16:54:22.97</time>
<name>7870</name>
<sym>Dot</sym>
</trkpt>
<trkpt lat="48.980188" lon="20.093370">
<ele>1046.0</ele>
<desc>Speed 16.7 km/h Distance 25.55 km</desc>
<time>2013-07-23T16:54:23.97</time>
<name>7871</name>
<sym>Dot</sym>
</trkpt>
<trkpt lat="48.980228" lon="20.093348">
<ele>1045.5</ele>
<desc>Speed 17.7 km/h Distance 25.56 km</desc>
<time>2013-07-23T16:54:24.96</time>
<name>7872</name>
<sym>Dot</sym>
</trkpt>
<trkpt lat="48.980267" lon="20.093323">
<ele>1045.5</ele>
<desc>Speed 18.0 km/h Distance 25.56 km</desc>
<time>2013-07-23T16:54:25.96</time>
<name>7873</name>
<sym>Dot</sym>
</trkpt>
<trkpt lat="48.980303" lon="20.093303">
<ele>1045.5</ele>
<desc>Speed 17.7 km/h Distance 25.57 km</desc>
<time>2013-07-23T16:54:26.96</time>
<name>7874</name>
<sym>Dot</sym>
</trkpt>
<trkpt lat="48.980342" lon="20.093280">
<ele>1045.5</ele>
<desc>Speed 17.8 km/h Distance 25.57 km</desc>
<time>2013-07-23T16:54:27.99</time>
<name>7875</name>
<sym>Dot</sym>
</trkpt>
<trkpt lat="48.980380" lon="20.093255">
<ele>1045.0</ele>
<desc>Speed 17.9 km/h Distance 25.58 km</desc>
<time>2013-07-23T16:54:28.95</time>
<name>7876</name>
<sym>Dot</sym>
</trkpt>
<trkpt lat="48.980418" lon="20.093253">
<ele>1044.5</ele>
<desc>Speed 19.7 km/h Distance 25.58 km</desc>
<time>2013-07-23T16:54:29.94</time>
<name>7877</name>
<sym>Dot</sym>
</trkpt>
<trkpt lat="48.980505" lon="20.093133">
<ele>1043.5</ele>
<desc>Speed 17.1 km/h Distance 25.59 km</desc>
<time>2013-07-23T16:54:31.94</time>
<name>7878</name>
<sym>Dot</sym>
</trkpt>
<trkpt lat="48.980547" lon="20.093108">
<ele>1042.5</ele>
<desc>Speed 17.0 km/h Distance 25.60 km</desc>
<time>2013-07-23T16:54:33.17</time>
<name>7879</name>
<sym>Dot</sym>
</trkpt>
<trkpt lat="48.980575" lon="20.093105">
<ele>1042.0</ele>
<desc>Speed 17.0 km/h Distance 25.60 km</desc>
<time>2013-07-23T16:54:33.92</time>
<name>7880</name>
<sym>Dot</sym>
</trkpt>
<trkpt lat="48.980657" lon="20.093040">
<ele>1041.5</ele>
<desc>Speed 21.1 km/h Distance 25.61 km</desc>
<time>2013-07-23T16:54:35.92</time>
<name>7881</name>
<sym>Dot</sym>
</trkpt>
<trkpt lat="48.980793" lon="20.092983">
<ele>1040.5</ele>
<desc>Speed 16.1 km/h Distance 25.63 km</desc>
<time>2013-07-23T16:54:40.47</time>
<name>7882</name>
<sym>Dot</sym>
</trkpt>
<trkpt lat="48.980913" lon="20.093135">
<ele>1039.0</ele>
<desc>Speed 15.8 km/h Distance 25.65 km</desc>
<time>2013-07-23T16:54:44.26</time>
<name>7883</name>
<sym>Dot</sym>
</trkpt>
<trkpt lat="48.980977" lon="20.093025">
<ele>1038.5</ele>
<desc>Speed 26.0 km/h Distance 25.66 km</desc>
<time>2013-07-23T16:54:46.25</time>
<name>7884</name>
<sym>Dot</sym>
</trkpt>
<trkpt lat="48.981048" lon="20.092970">
<ele>1038.5</ele>
<desc>Speed 14.5 km/h Distance 25.67 km</desc>
<time>2013-07-23T16:54:48.25</time>
<name>7885</name>
<sym>Dot</sym>
</trkpt>
<trkpt lat="48.981077" lon="20.092928">
<ele>1038.5</ele>
<desc>Speed 13.8 km/h Distance 25.67 km</desc>
<time>2013-07-23T16:54:49.25</time>
<name>7886</name>
<sym>Dot</sym>
</trkpt>
<trkpt lat="48.981105" lon="20.092885">
<ele>1038.5</ele>
<desc>Speed 13.4 km/h Distance 25.67 km</desc>
<time>2013-07-23T16:54:50.25</time>
<name>7887</name>
<sym>Dot</sym>
</trkpt>
<trkpt lat="48.981130" lon="20.092838">
<ele>1038.0</ele>
<desc>Speed 10.0 km/h Distance 25.68 km</desc>
<time>2013-07-23T16:54:51.24</time>
<name>7888</name>
<sym>Dot</sym>
</trkpt>
<trkpt lat="48.981178" lon="20.092723">
<ele>1038.0</ele>
<desc>Speed 6.8 km/h Distance 25.69 km</desc>
<time>2013-07-23T16:54:53.24</time>
<name>7889</name>
<sym>Dot</sym>
</trkpt>
<trkpt lat="48.981547" lon="20.092317">
<ele>1034.5</ele>
<desc>Speed 17.0 km/h Distance 25.74 km</desc>
<time>2013-07-23T16:56:31.23</time>
<name>7890</name>
<sym>Dot</sym>
</trkpt>
<trkpt lat="48.981687" lon="20.092415">
<ele>1033.0</ele>
<desc>Speed 15.8 km/h Distance 25.76 km</desc>
<time>2013-07-23T16:56:34.24</time>
<name>7891</name>
<sym>Dot</sym>
</trkpt>
<trkpt lat="48.981820" lon="20.092125">
<ele>1032.5</ele>
<desc>Speed 16.9 km/h Distance 25.78 km</desc>
<time>2013-07-23T16:56:37.24</time>
<name>7892</name>
<sym>Dot</sym>
</trkpt>
<trkpt lat="48.981858" lon="20.092102">
<ele>1032.0</ele>
<desc>Speed 16.9 km/h Distance 25.79 km</desc>
<time>2013-07-23T16:56:38.24</time>
<name>7893</name>
<sym>Dot</sym>
</trkpt>
<trkpt lat="48.982105" lon="20.091732">
<ele>1031.0</ele>
<desc>Speed 15.3 km/h Distance 25.83 km</desc>
<time>2013-07-23T16:56:42.24</time>
<name>7894</name>
<sym>Dot</sym>
</trkpt>
<trkpt lat="48.982128" lon="20.091683">
<ele>1031.0</ele>
<desc>Speed 14.5 km/h Distance 25.83 km</desc>
<time>2013-07-23T16:56:43.23</time>
<name>7895</name>
<sym>Dot</sym>
</trkpt>
<trkpt lat="48.982138" lon="20.091637">
<ele>1031.0</ele>
<desc>Speed 13.2 km/h Distance 25.83 km</desc>
<time>2013-07-23T16:56:44.22</time>
<name>7896</name>
<sym>Dot</sym>
</trkpt>
<trkpt lat="48.982158" lon="20.091588">
<ele>1031.0</ele>
<desc>Speed 12.8 km/h Distance 25.84 km</desc>
<time>2013-07-23T16:56:46.22</time>
<name>7897</name>
<sym>Dot</sym>
</trkpt>
<trkpt lat="48.982175" lon="20.091563">
<ele>1031.0</ele>
<desc>Speed 11.3 km/h Distance 25.84 km</desc>
<time>2013-07-23T16:56:47.22</time>
<name>7898</name>
<sym>Dot</sym>
</trkpt>
<trkpt lat="48.982180" lon="20.091537">
<ele>1031.0</ele>
<desc>Speed 9.3 km/h Distance 25.84 km</desc>
<time>2013-07-23T16:56:48.22</time>
<name>7899</name>
<sym>Dot</sym>
</trkpt>
<trkpt lat="48.982208" lon="20.091517">
<ele>1031.0</ele>
<desc>Speed 9.5 km/h Distance 25.85 km</desc>
<time>2013-07-23T16:56:49.22</time>
<name>7900</name>
<sym>Dot</sym>
</trkpt>
<trkpt lat="48.982223" lon="20.091520">
<ele>1031.0</ele>
<desc>Speed 5.8 km/h Distance 25.85 km</desc>
<time>2013-07-23T16:56:50.22</time>
<name>7901</name>
<sym>Dot</sym>
</trkpt>
<trkpt lat="48.982230" lon="20.091512">
<ele>1031.0</ele>
<desc>Speed 4.4 km/h Distance 25.85 km</desc>
<time>2013-07-23T16:56:51.21</time>
<name>7902</name>
<sym>Dot</sym>
</trkpt>
<trkpt lat="48.982230" lon="20.091513">
<ele>1031.0</ele>
<desc>Speed 4.4 km/h Distance 25.85 km</desc>
<time>2013-07-23T16:56:52.21</time>
<name>7903</name>
<sym>Dot</sym>
</trkpt>
<trkpt lat="48.982088" lon="20.091347">
<ele>1032.0</ele>
<desc>Speed 2.9 km/h Distance 25.87 km</desc>
<time>2013-07-23T16:57:18.20</time>
<name>7904</name>
<sym>Dot</sym>
</trkpt>
<trkpt lat="48.981987" lon="20.091360">
<ele>1023.5</ele>
<desc>Speed 2.4 km/h Distance 25.88 km</desc>
<time>2013-07-23T16:59:26.19</time>
<name>7905</name>
<sym>Dot</sym>
</trkpt>
<trkpt lat="48.981965" lon="20.091408">
<ele>1023.0</ele>
<desc>Speed 2.2 km/h Distance 25.88 km</desc>
<time>2013-07-23T16:59:29.18</time>
<name>7906</name>
<sym>Dot</sym>
</trkpt>
<trkpt lat="48.981973" lon="20.091402">
<ele>1023.0</ele>
<desc>Speed 4.0 km/h Distance 25.89 km</desc>
<time>2013-07-23T16:59:30.17</time>
<name>7907</name>
<sym>Dot</sym>
</trkpt>
<trkpt lat="48.981972" lon="20.091368">
<ele>1022.5</ele>
<desc>Speed 3.0 km/h Distance 25.89 km</desc>
<time>2013-07-23T16:59:34.17</time>
<name>7908</name>
<sym>Dot</sym>
</trkpt>
<trkpt lat="48.981898" lon="20.091520">
<ele>1021.0</ele>
<desc>Speed 2.4 km/h Distance 25.90 km</desc>
<time>2013-07-23T16:59:46.17</time>
<name>7909</name>
<sym>Dot</sym>
</trkpt>
<trkpt lat="48.981948" lon="20.091320">
<ele>1020.0</ele>
<desc>Speed 2.4 km/h Distance 25.92 km</desc>
<time>2013-07-23T16:59:52.16</time>
<name>7910</name>
<sym>Dot</sym>
</trkpt>
<trkpt lat="48.981932" lon="20.091343">
<ele>1020.0</ele>
<desc>Speed 4.8 km/h Distance 25.92 km</desc>
<time>2013-07-23T16:59:55.16</time>
<name>7911</name>
<sym>Dot</sym>
</trkpt>
<trkpt lat="48.981940" lon="20.091398">
<ele>1019.0</ele>
<desc>Speed 3.7 km/h Distance 25.92 km</desc>
<time>2013-07-23T17:00:00.15</time>
<name>7912</name>
<sym>Dot</sym>
</trkpt>
<trkpt lat="48.981913" lon="20.091247">
<ele>1011.5</ele>
<desc>Speed 4.2 km/h Distance 25.94 km</desc>
<time>2013-07-23T17:01:27.14</time>
<name>7913</name>
<sym>Dot</sym>
</trkpt>
<trkpt lat="48.982363" lon="20.091107">
<ele>1010.5</ele>
<desc>Speed 7.7 km/h Distance 25.99 km</desc>
<time>2013-07-23T17:01:35.24</time>
<name>7914</name>
<sym>Dot</sym>
</trkpt>
<trkpt lat="48.982300" lon="20.091313">
<ele>1010.0</ele>
<desc>Speed 2.4 km/h Distance 26.00 km</desc>
<time>2013-07-23T17:01:50.23</time>
<name>7915</name>
<sym>Dot</sym>
</trkpt>
<trkpt lat="48.982290" lon="20.091315">
<ele>1010.0</ele>
<desc>Speed 2.6 km/h Distance 26.00 km</desc>
<time>2013-07-23T17:01:51.23</time>
<name>7916</name>
<sym>Dot</sym>
</trkpt>
<trkpt lat="48.981975" lon="20.092172">
<ele>1006.5</ele>
<desc>Speed 2.7 km/h Distance 26.08 km</desc>
<time>2013-07-23T17:04:16.22</time>
<name>7917</name>
<sym>Dot</sym>
</trkpt>
<trkpt lat="48.981853" lon="20.091672">
<ele>998.5</ele>
<desc>Speed 3.3 km/h Distance 26.11 km</desc>
<time>2013-07-23T17:05:17.21</time>
<name>7918</name>
<sym>Dot</sym>
</trkpt>
<trkpt lat="48.981843" lon="20.091562">
<ele>994.0</ele>
<desc>Speed 4.6 km/h Distance 26.12 km</desc>
<time>2013-07-23T17:05:53.20</time>
<name>7919</name>
<sym>Dot</sym>
</trkpt>
<trkpt lat="48.981848" lon="20.091578">
<ele>993.5</ele>
<desc>Speed 2.7 km/h Distance 26.12 km</desc>
<time>2013-07-23T17:05:54.20</time>
<name>7920</name>
<sym>Dot</sym>
</trkpt>
<trkpt lat="48.981868" lon="20.091627">
<ele>993.0</ele>
<desc>Speed 3.3 km/h Distance 26.13 km</desc>
<time>2013-07-23T17:05:56.19</time>
<name>7921</name>
<sym>Dot</sym>
</trkpt>
<trkpt lat="48.981893" lon="20.091540">
<ele>992.5</ele>
<desc>Speed 3.6 km/h Distance 26.14 km</desc>
<time>2013-07-23T17:05:58.19</time>
<name>7922</name>
<sym>Dot</sym>
</trkpt>
<trkpt lat="48.981907" lon="20.091512">
<ele>992.0</ele>
<desc>Speed 3.5 km/h Distance 26.14 km</desc>
<time>2013-07-23T17:05:59.18</time>
<name>7923</name>
<sym>Dot</sym>
</trkpt>
<trkpt lat="48.981920" lon="20.091487">
<ele>991.5</ele>
<desc>Speed 4.5 km/h Distance 26.14 km</desc>
<time>2013-07-23T17:06:00.18</time>
<name>7924</name>
<sym>Dot</sym>
</trkpt>
<trkpt lat="48.981940" lon="20.091465">
<ele>991.0</ele>
<desc>Speed 4.4 km/h Distance 26.14 km</desc>
<time>2013-07-23T17:06:01.18</time>
<name>7925</name>
<sym>Dot</sym>
</trkpt>
<trkpt lat="48.981988" lon="20.091363">
<ele>990.0</ele>
<desc>Speed 4.5 km/h Distance 26.15 km</desc>
<time>2013-07-23T17:06:03.17</time>
<name>7926</name>
<sym>Dot</sym>
</trkpt>
<trkpt lat="48.982012" lon="20.091343">
<ele>989.5</ele>
<desc>Speed 8.2 km/h Distance 26.16 km</desc>
<time>2013-07-23T17:06:04.17</time>
<name>7927</name>
<sym>Dot</sym>
</trkpt>
<trkpt lat="48.982072" lon="20.091272">
<ele>988.5</ele>
<desc>Speed 11.1 km/h Distance 26.16 km</desc>
<time>2013-07-23T17:06:06.16</time>
<name>7928</name>
<sym>Dot</sym>
</trkpt>
<trkpt lat="48.982100" lon="20.091248">
<ele>988.0</ele>
<desc>Speed 9.4 km/h Distance 26.17 km</desc>
<time>2013-07-23T17:06:07.16</time>
<name>7929</name>
<sym>Dot</sym>
</trkpt>
<trkpt lat="48.982123" lon="20.091213">
<ele>988.0</ele>
<desc>Speed 10.8 km/h Distance 26.17 km</desc>
<time>2013-07-23T17:06:08.44</time>
<name>7930</name>
<sym>Dot</sym>
</trkpt>
<trkpt lat="48.982150" lon="20.091185">
<ele>988.0</ele>
<desc>Speed 10.5 km/h Distance 26.17 km</desc>
<time>2013-07-23T17:06:09.17</time>
<name>7931</name>
<sym>Dot</sym>
</trkpt>
<trkpt lat="48.982210" lon="20.091122">
<ele>987.0</ele>
<desc>Speed 10.5 km/h Distance 26.18 km</desc>
<time>2013-07-23T17:06:11.15</time>
<name>7932</name>
<sym>Dot</sym>
</trkpt>
<trkpt lat="48.982235" lon="20.091107">
<ele>986.5</ele>
<desc>Speed 9.4 km/h Distance 26.19 km</desc>
<time>2013-07-23T17:06:12.15</time>
<name>7933</name>
<sym>Dot</sym>
</trkpt>
<trkpt lat="48.982255" lon="20.091097">
<ele>986.0</ele>
<desc>Speed 10.0 km/h Distance 26.19 km</desc>
<time>2013-07-23T17:06:13.15</time>
<name>7934</name>
<sym>Dot</sym>
</trkpt>
<trkpt lat="48.982287" lon="20.091068">
<ele>985.5</ele>
<desc>Speed 10.7 km/h Distance 26.19 km</desc>
<time>2013-07-23T17:06:14.14</time>
<name>7935</name>
<sym>Dot</sym>
</trkpt>
<trkpt lat="48.982317" lon="20.091043">
<ele>985.0</ele>
<desc>Speed 14.5 km/h Distance 26.20 km</desc>
<time>2013-07-23T17:06:15.14</time>
<name>7936</name>
<sym>Dot</sym>
</trkpt>
<trkpt lat="48.982343" lon="20.091023">
<ele>985.0</ele>
<desc>Speed 10.8 km/h Distance 26.20 km</desc>
<time>2013-07-23T17:06:16.14</time>
<name>7937</name>
<sym>Dot</sym>
</trkpt>
<trkpt lat="48.982367" lon="20.091010">
<ele>984.5</ele>
<desc>Speed 9.8 km/h Distance 26.20 km</desc>
<time>2013-07-23T17:06:17.13</time>
<name>7938</name>
<sym>Dot</sym>
</trkpt>
<trkpt lat="48.982395" lon="20.090967">
<ele>984.0</ele>
<desc>Speed 11.2 km/h Distance 26.21 km</desc>
<time>2013-07-23T17:06:18.30</time>
<name>7939</name>
<sym>Dot</sym>
</trkpt>
<trkpt lat="48.982423" lon="20.090942">
<ele>983.5</ele>
<desc>Speed 14.0 km/h Distance 26.21 km</desc>
<time>2013-07-23T17:06:19.12</time>
<name>7940</name>
<sym>Dot</sym>
</trkpt>
<trkpt lat="48.982452" lon="20.090913">
<ele>982.5</ele>
<desc>Speed 13.0 km/h Distance 26.21 km</desc>
<time>2013-07-23T17:06:20.12</time>
<name>7941</name>
<sym>Dot</sym>
</trkpt>
<trkpt lat="48.982478" lon="20.090878">
<ele>982.0</ele>
<desc>Speed 14.5 km/h Distance 26.22 km</desc>
<time>2013-07-23T17:06:21.11</time>
<name>7942</name>
<sym>Dot</sym>
</trkpt>
<trkpt lat="48.982505" lon="20.090853">
<ele>982.0</ele>
<desc>Speed 8.7 km/h Distance 26.22 km</desc>
<time>2013-07-23T17:06:22.12</time>
<name>7943</name>
<sym>Dot</sym>
</trkpt>
<trkpt lat="48.982552" lon="20.090780">
<ele>981.5</ele>
<desc>Speed 13.0 km/h Distance 26.23 km</desc>
<time>2013-07-23T17:06:24.11</time>
<name>7944</name>
<sym>Dot</sym>
</trkpt>
<trkpt lat="48.982572" lon="20.090758">
<ele>981.5</ele>
<desc>Speed 13.0 km/h Distance 26.23 km</desc>
<time>2013-07-23T17:06:25.11</time>
<name>7945</name>
<sym>Dot</sym>
</trkpt>
<trkpt lat="48.982587" lon="20.090737">
<ele>981.0</ele>
<desc>Speed 7.5 km/h Distance 26.23 km</desc>
<time>2013-07-23T17:06:26.11</time>
<name>7946</name>
<sym>Dot</sym>
</trkpt>
<trkpt lat="48.982478" lon="20.090632">
<ele>978.0</ele>
<desc>Speed 2.3 km/h Distance 26.25 km</desc>
<time>2013-07-23T17:06:38.10</time>
<name>7947</name>
<sym>Dot</sym>
</trkpt>
<trkpt lat="48.982478" lon="20.090628">
<ele>978.0</ele>
<desc>Speed 2.4 km/h Distance 26.25 km</desc>
<time>2013-07-23T17:06:41.10</time>
<name>7948</name>
<sym>Dot</sym>
</trkpt>
<trkpt lat="48.982457" lon="20.090605">
<ele>978.0</ele>
<desc>Speed 3.3 km/h Distance 26.25 km</desc>
<time>2013-07-23T17:06:44.09</time>
<name>7949</name>
<sym>Dot</sym>
</trkpt>
<trkpt lat="48.982470" lon="20.090610">
<ele>978.0</ele>
<desc>Speed 3.3 km/h Distance 26.25 km</desc>
<time>2013-07-23T17:06:45.09</time>
<name>7950</name>
<sym>Dot</sym>
</trkpt>
<trkpt lat="48.982548" lon="20.090757">
<ele>975.5</ele>
<desc>Speed 2.4 km/h Distance 26.27 km</desc>
<time>2013-07-23T17:07:00.08</time>
<name>7951</name>
<sym>Dot</sym>
</trkpt>
<trkpt lat="48.982565" lon="20.090727">
<ele>974.0</ele>
<desc>Speed 3.6 km/h Distance 26.27 km</desc>
<time>2013-07-23T17:07:10.08</time>
<name>7952</name>
<sym>Dot</sym>
</trkpt>
<trkpt lat="48.982562" lon="20.090712">
<ele>974.0</ele>
<desc>Speed 2.2 km/h Distance 26.27 km</desc>
<time>2013-07-23T17:07:11.08</time>
<name>7953</name>
<sym>Dot</sym>
</trkpt>
<trkpt lat="48.982567" lon="20.090698">
<ele>973.5</ele>
<desc>Speed 2.2 km/h Distance 26.27 km</desc>
<time>2013-07-23T17:07:12.07</time>
<name>7954</name>
<sym>Dot</sym>
</trkpt>
<trkpt lat="48.982573" lon="20.090682">
<ele>973.5</ele>
<desc>Speed 2.2 km/h Distance 26.27 km</desc>
<time>2013-07-23T17:07:13.06</time>
<name>7955</name>
<sym>Dot</sym>
</trkpt>
<trkpt lat="48.982582" lon="20.090685">
<ele>973.5</ele>
<desc>Speed 2.7 km/h Distance 26.27 km</desc>
<time>2013-07-23T17:07:14.06</time>
<name>7956</name>
<sym>Dot</sym>
</trkpt>
<trkpt lat="48.982690" lon="20.090752">
<ele>973.0</ele>
<desc>Speed 3.2 km/h Distance 26.29 km</desc>
<time>2013-07-23T17:07:27.05</time>
<name>7957</name>
<sym>Dot</sym>
</trkpt>
<trkpt lat="48.982695" lon="20.090755">
<ele>973.0</ele>
<desc>Speed 2.2 km/h Distance 26.29 km</desc>
<time>2013-07-23T17:07:30.05</time>
<name>7958</name>
<sym>Dot</sym>
</trkpt>
<trkpt lat="48.982703" lon="20.090745">
<ele>973.0</ele>
<desc>Speed 4.4 km/h Distance 26.29 km</desc>
<time>2013-07-23T17:07:31.05</time>
<name>7959</name>
<sym>Dot</sym>
</trkpt>
<trkpt lat="48.982692" lon="20.090765">
<ele>974.0</ele>
<desc>Speed 2.2 km/h Distance 26.29 km</desc>
<time>2013-07-23T17:07:34.05</time>
<name>7960</name>
<sym>Dot</sym>
</trkpt>
<trkpt lat="48.982698" lon="20.090717">
<ele>971.0</ele>
<desc>Speed 2.4 km/h Distance 26.29 km</desc>
<time>2013-07-23T17:07:47.04</time>
<name>7961</name>
<sym>Dot</sym>
</trkpt>
<trkpt lat="48.982702" lon="20.090712">
<ele>971.0</ele>
<desc>Speed 2.3 km/h Distance 26.29 km</desc>
<time>2013-07-23T17:07:48.04</time>
<name>7962</name>
<sym>Dot</sym>
</trkpt>
<trkpt lat="48.982708" lon="20.090683">
<ele>971.0</ele>
<desc>Speed 8.1 km/h Distance 26.30 km</desc>
<time>2013-07-23T17:07:49.20</time>
<name>7963</name>
<sym>Dot</sym>
</trkpt>
<trkpt lat="48.982722" lon="20.090667">
<ele>971.0</ele>
<desc>Speed 6.6 km/h Distance 26.30 km</desc>
<time>2013-07-23T17:07:50.03</time>
<name>7964</name>
<sym>Dot</sym>
</trkpt>
<trkpt lat="48.982740" lon="20.090640">
<ele>970.0</ele>
<desc>Speed 11.5 km/h Distance 26.30 km</desc>
<time>2013-07-23T17:07:51.02</time>
<name>7965</name>
<sym>Dot</sym>
</trkpt>
<trkpt lat="48.982753" lon="20.090632">
<ele>969.5</ele>
<desc>Speed 8.9 km/h Distance 26.30 km</desc>
<time>2013-07-23T17:07:52.02</time>
<name>7966</name>
<sym>Dot</sym>
</trkpt>
<trkpt lat="48.982760" lon="20.090628">
<ele>968.0</ele>
<desc>Speed 9.9 km/h Distance 26.30 km</desc>
<time>2013-07-23T17:07:53.01</time>
<name>7967</name>
<sym>Dot</sym>
</trkpt>
<trkpt lat="48.982768" lon="20.090615">
<ele>967.5</ele>
<desc>Speed 14.9 km/h Distance 26.31 km</desc>
<time>2013-07-23T17:07:54.01</time>
<name>7968</name>
<sym>Dot</sym>
</trkpt>
<trkpt lat="48.982803" lon="20.090580">
<ele>966.0</ele>
<desc>Speed 13.6 km/h Distance 26.31 km</desc>
<time>2013-07-23T17:07:56.00</time>
<name>7969</name>
<sym>Dot</sym>
</trkpt>
<trkpt lat="48.982827" lon="20.090558">
<ele>965.0</ele>
<desc>Speed 17.2 km/h Distance 26.31 km</desc>
<time>2013-07-23T17:07:57.02</time>
<name>7970</name>
<sym>Dot</sym>
</trkpt>
<trkpt lat="48.982868" lon="20.090467">
<ele>963.0</ele>
<desc>Speed 13.2 km/h Distance 26.32 km</desc>
<time>2013-07-23T17:07:58.99</time>
<name>7971</name>
<sym>Dot</sym>
</trkpt>
<trkpt lat="48.982883" lon="20.090438">
<ele>962.0</ele>
<desc>Speed 12.6 km/h Distance 26.32 km</desc>
<time>2013-07-23T17:07:59.98</time>
<name>7972</name>
<sym>Dot</sym>
</trkpt>
<trkpt lat="48.982898" lon="20.090422">
<ele>961.0</ele>
<desc>Speed 13.9 km/h Distance 26.33 km</desc>
<time>2013-07-23T17:08:00.98</time>
<name>7973</name>
<sym>Dot</sym>
</trkpt>
<trkpt lat="48.982915" lon="20.090418">
<ele>959.5</ele>
<desc>Speed 12.6 km/h Distance 26.33 km</desc>
<time>2013-07-23T17:08:02.02</time>
<name>7974</name>
<sym>Dot</sym>
</trkpt>
<trkpt lat="48.982935" lon="20.090403">
<ele>959.0</ele>
<desc>Speed 14.7 km/h Distance 26.33 km</desc>
<time>2013-07-23T17:08:02.97</time>
<name>7975</name>
<sym>Dot</sym>
</trkpt>
<trkpt lat="48.982950" lon="20.090467">
<ele>958.5</ele>
<desc>Speed 11.8 km/h Distance 26.34 km</desc>
<time>2013-07-23T17:08:03.97</time>
<name>7976</name>
<sym>Dot</sym>
</trkpt>
<trkpt lat="48.982970" lon="20.090470">
<ele>958.0</ele>
<desc>Speed 12.6 km/h Distance 26.34 km</desc>
<time>2013-07-23T17:08:04.97</time>
<name>7977</name>
<sym>Dot</sym>
</trkpt>
<trkpt lat="48.982995" lon="20.090453">
<ele>958.0</ele>
<desc>Speed 13.5 km/h Distance 26.34 km</desc>
<time>2013-07-23T17:08:05.96</time>
<name>7978</name>
<sym>Dot</sym>
</trkpt>
<trkpt lat="48.983045" lon="20.090393">
<ele>958.0</ele>
<desc>Speed 11.7 km/h Distance 26.35 km</desc>
<time>2013-07-23T17:08:08.07</time>
<name>7979</name>
<sym>Dot</sym>
</trkpt>
<trkpt lat="48.983068" lon="20.090382">
<ele>958.0</ele>
<desc>Speed 15.0 km/h Distance 26.35 km</desc>
<time>2013-07-23T17:08:08.96</time>
<name>7980</name>
<sym>Dot</sym>
</trkpt>
<trkpt lat="48.983093" lon="20.090367">
<ele>957.5</ele>
<desc>Speed 13.5 km/h Distance 26.35 km</desc>
<time>2013-07-23T17:08:09.96</time>
<name>7981</name>
<sym>Dot</sym>
</trkpt>
<trkpt lat="48.983122" lon="20.090340">
<ele>957.0</ele>
<desc>Speed 14.7 km/h Distance 26.36 km</desc>
<time>2013-07-23T17:08:10.96</time>
<name>7982</name>
<sym>Dot</sym>
</trkpt>
<trkpt lat="48.983150" lon="20.090318">
<ele>957.0</ele>
<desc>Speed 13.1 km/h Distance 26.36 km</desc>
<time>2013-07-23T17:08:11.95</time>
<name>7983</name>
<sym>Dot</sym>
</trkpt>
<trkpt lat="48.983173" lon="20.090305">
<ele>956.0</ele>
<desc>Speed 13.1 km/h Distance 26.36 km</desc>
<time>2013-07-23T17:08:12.94</time>
<name>7984</name>
<sym>Dot</sym>
</trkpt>
<trkpt lat="48.983192" lon="20.090293">
<ele>956.0</ele>
<desc>Speed 13.1 km/h Distance 26.37 km</desc>
<time>2013-07-23T17:08:13.94</time>
<name>7985</name>
<sym>Dot</sym>
</trkpt>
<trkpt lat="48.983207" lon="20.090280">
<ele>956.0</ele>
<desc>Speed 13.1 km/h Distance 26.37 km</desc>
<time>2013-07-23T17:08:14.93</time>
<name>7986</name>
<sym>Dot</sym>
</trkpt>
<trkpt lat="48.983235" lon="20.090282">
<ele>956.0</ele>
<desc>Speed 13.5 km/h Distance 26.37 km</desc>
<time>2013-07-23T17:08:15.93</time>
<name>7987</name>
<sym>Dot</sym>
</trkpt>
<trkpt lat="48.983263" lon="20.090265">
<ele>956.0</ele>
<desc>Speed 13.5 km/h Distance 26.37 km</desc>
<time>2013-07-23T17:08:16.92</time>
<name>7988</name>
<sym>Dot</sym>
</trkpt>
<trkpt lat="48.983292" lon="20.090252">
<ele>956.0</ele>
<desc>Speed 13.5 km/h Distance 26.38 km</desc>
<time>2013-07-23T17:08:17.92</time>
<name>7989</name>
<sym>Dot</sym>
</trkpt>
<trkpt lat="48.983318" lon="20.090245">
<ele>955.5</ele>
<desc>Speed 13.5 km/h Distance 26.38 km</desc>
<time>2013-07-23T17:08:18.91</time>
<name>7990</name>
<sym>Dot</sym>
</trkpt>
<trkpt lat="48.983352" lon="20.090245">
<ele>955.5</ele>
<desc>Speed 12.1 km/h Distance 26.38 km</desc>
<time>2013-07-23T17:08:19.91</time>
<name>7991</name>
<sym>Dot</sym>
</trkpt>
<trkpt lat="48.983385" lon="20.090238">
<ele>955.5</ele>
<desc>Speed 12.5 km/h Distance 26.39 km</desc>
<time>2013-07-23T17:08:20.90</time>
<name>7992</name>
<sym>Dot</sym>
</trkpt>
<trkpt lat="48.983410" lon="20.090242">
<ele>955.5</ele>
<desc>Speed 12.5 km/h Distance 26.39 km</desc>
<time>2013-07-23T17:08:21.91</time>
<name>7993</name>
<sym>Dot</sym>
</trkpt>
<trkpt lat="48.983427" lon="20.090243">
<ele>955.0</ele>
<desc>Speed 12.5 km/h Distance 26.39 km</desc>
<time>2013-07-23T17:08:22.89</time>
<name>7994</name>
<sym>Dot</sym>
</trkpt>
<trkpt lat="48.983460" lon="20.090230">
<ele>955.0</ele>
<desc>Speed 14.0 km/h Distance 26.40 km</desc>
<time>2013-07-23T17:08:23.89</time>
<name>7995</name>
<sym>Dot</sym>
</trkpt>
<trkpt lat="48.983487" lon="20.090218">
<ele>955.0</ele>
<desc>Speed 14.0 km/h Distance 26.40 km</desc>
<time>2013-07-23T17:08:24.89</time>
<name>7996</name>
<sym>Dot</sym>
</trkpt>
<trkpt lat="48.983505" lon="20.090210">
<ele>955.0</ele>
<desc>Speed 14.0 km/h Distance 26.40 km</desc>
<time>2013-07-23T17:08:25.88</time>
<name>7997</name>
<sym>Dot</sym>
</trkpt>
<trkpt lat="48.983560" lon="20.090193">
<ele>954.5</ele>
<desc>Speed 14.3 km/h Distance 26.41 km</desc>
<time>2013-07-23T17:08:27.88</time>
<name>7998</name>
<sym>Dot</sym>
</trkpt>
<trkpt lat="48.983593" lon="20.090178">
<ele>954.5</ele>
<desc>Speed 14.2 km/h Distance 26.41 km</desc>
<time>2013-07-23T17:08:28.88</time>
<name>7999</name>
<sym>Dot</sym>
</trkpt>
<trkpt lat="48.983683" lon="20.089835">
<ele>954.5</ele>
<desc>Speed 14.4 km/h Distance 26.44 km</desc>
<time>2013-07-23T17:08:32.24</time>
<name>8000</name>
<sym>Dot</sym>
</trkpt>
<trkpt lat="48.983717" lon="20.089802">
<ele>954.5</ele>
<desc>Speed 14.5 km/h Distance 26.44 km</desc>
<time>2013-07-23T17:08:33.23</time>
<name>8001</name>
<sym>Dot</sym>
</trkpt>
<trkpt lat="48.983743" lon="20.089782">
<ele>954.5</ele>
<desc>Speed 14.5 km/h Distance 26.45 km</desc>
<time>2013-07-23T17:08:34.23</time>
<name>8002</name>
<sym>Dot</sym>
</trkpt>
<trkpt lat="48.983778" lon="20.089623">
<ele>954.5</ele>
<desc>Speed 13.7 km/h Distance 26.46 km</desc>
<time>2013-07-23T17:08:36.22</time>
<name>8003</name>
<sym>Dot</sym>
</trkpt>
<trkpt lat="48.983802" lon="20.089585">
<ele>954.5</ele>
<desc>Speed 13.3 km/h Distance 26.46 km</desc>
<time>2013-07-23T17:08:37.22</time>
<name>8004</name>
<sym>Dot</sym>
</trkpt>
<trkpt lat="48.983833" lon="20.089560">
<ele>954.5</ele>
<desc>Speed 13.5 km/h Distance 26.47 km</desc>
<time>2013-07-23T17:08:38.22</time>
<name>8005</name>
<sym>Dot</sym>
</trkpt>
<trkpt lat="48.983860" lon="20.089537">
<ele>954.5</ele>
<desc>Speed 13.5 km/h Distance 26.47 km</desc>
<time>2013-07-23T17:08:39.21</time>
<name>8006</name>
<sym>Dot</sym>
</trkpt>
<trkpt lat="48.983882" lon="20.089515">
<ele>954.5</ele>
<desc>Speed 13.5 km/h Distance 26.47 km</desc>
<time>2013-07-23T17:08:40.21</time>
<name>8007</name>
<sym>Dot</sym>
</trkpt>
<trkpt lat="48.983897" lon="20.089500">
<ele>954.5</ele>
<desc>Speed 13.5 km/h Distance 26.47 km</desc>
<time>2013-07-23T17:08:41.21</time>
<name>8008</name>
<sym>Dot</sym>
</trkpt>
<trkpt lat="48.983922" lon="20.089480">
<ele>954.5</ele>
<desc>Speed 13.5 km/h Distance 26.48 km</desc>
<time>2013-07-23T17:08:43.20</time>
<name>8009</name>
<sym>Dot</sym>
</trkpt>
<trkpt lat="48.983932" lon="20.089457">
<ele>954.5</ele>
<desc>Speed 13.5 km/h Distance 26.48 km</desc>
<time>2013-07-23T17:08:44.20</time>
<name>8010</name>
<sym>Dot</sym>
</trkpt>
<trkpt lat="48.983947" lon="20.089440">
<ele>954.5</ele>
<desc>Speed 13.5 km/h Distance 26.48 km</desc>
<time>2013-07-23T17:08:45.19</time>
<name>8011</name>
<sym>Dot</sym>
</trkpt>
<trkpt lat="48.984023" lon="20.089300">
<ele>954.5</ele>
<desc>Speed 13.5 km/h Distance 26.50 km</desc>
<time>2013-07-23T17:08:47.19</time>
<name>8012</name>
<sym>Dot</sym>
</trkpt>
<trkpt lat="48.984043" lon="20.089287">
<ele>954.5</ele>
<desc>Speed 13.5 km/h Distance 26.50 km</desc>
<time>2013-07-23T17:08:49.19</time>
<name>8013</name>
<sym>Dot</sym>
</trkpt>
<trkpt lat="48.984067" lon="20.089255">
<ele>954.0</ele>
<desc>Speed 13.5 km/h Distance 26.50 km</desc>
<time>2013-07-23T17:08:50.18</time>
<name>8014</name>
<sym>Dot</sym>
</trkpt>
<trkpt lat="48.984260" lon="20.089052">
<ele>953.5</ele>
<desc>Speed 18.1 km/h Distance 26.53 km</desc>
<time>2013-07-23T17:08:53.23</time>
<name>8015</name>
<sym>Dot</sym>
</trkpt>
<trkpt lat="48.984293" lon="20.089018">
<ele>953.5</ele>
<desc>Speed 18.1 km/h Distance 26.53 km</desc>
<time>2013-07-23T17:08:54.23</time>
<name>8016</name>
<sym>Dot</sym>
</trkpt>
<trkpt lat="48.984507" lon="20.088802">
<ele>953.0</ele>
<desc>Speed 22.5 km/h Distance 26.56 km</desc>
<time>2013-07-23T17:08:57.22</time>
<name>8017</name>
<sym>Dot</sym>
</trkpt>
<trkpt lat="48.984683" lon="20.088750">
<ele>952.5</ele>
<desc>Speed 21.9 km/h Distance 26.58 km</desc>
<time>2013-07-23T17:08:59.22</time>
<name>8018</name>
<sym>Dot</sym>
</trkpt>
<trkpt lat="48.984972" lon="20.088607">
<ele>952.0</ele>
<desc>Speed 26.0 km/h Distance 26.61 km</desc>
<time>2013-07-23T17:09:02.22</time>
<name>8019</name>
<sym>Dot</sym>
</trkpt>
<trkpt lat="48.985047" lon="20.088577">
<ele>952.0</ele>
<desc>Speed 25.6 km/h Distance 26.62 km</desc>
<time>2013-07-23T17:09:03.21</time>
<name>8020</name>
<sym>Dot</sym>
</trkpt>
<trkpt lat="48.985207" lon="20.088487">
<ele>951.5</ele>
<desc>Speed 31.7 km/h Distance 26.64 km</desc>
<time>2013-07-23T17:09:05.22</time>
<name>8021</name>
<sym>Dot</sym>
</trkpt>
<trkpt lat="48.985292" lon="20.088455">
<ele>951.5</ele>
<desc>Speed 29.3 km/h Distance 26.65 km</desc>
<time>2013-07-23T17:09:06.21</time>
<name>8022</name>
<sym>Dot</sym>
</trkpt>
<trkpt lat="48.985460" lon="20.088415">
<ele>951.0</ele>
<desc>Speed 28.2 km/h Distance 26.67 km</desc>
<time>2013-07-23T17:09:08.20</time>
<name>8023</name>
<sym>Dot</sym>
</trkpt>
<trkpt lat="48.985535" lon="20.088400">
<ele>951.0</ele>
<desc>Speed 28.3 km/h Distance 26.68 km</desc>
<time>2013-07-23T17:09:09.20</time>
<name>8024</name>
<sym>Dot</sym>
</trkpt>
<trkpt lat="48.985610" lon="20.088352">
<ele>951.0</ele>
<desc>Speed 31.8 km/h Distance 26.69 km</desc>
<time>2013-07-23T17:09:10.19</time>
<name>8025</name>
<sym>Dot</sym>
</trkpt>
<trkpt lat="48.985687" lon="20.088308">
<ele>951.0</ele>
<desc>Speed 31.9 km/h Distance 26.70 km</desc>
<time>2013-07-23T17:09:11.18</time>
<name>8026</name>
<sym>Dot</sym>
</trkpt>
<trkpt lat="48.985763" lon="20.088250">
<ele>951.0</ele>
<desc>Speed 34.2 km/h Distance 26.71 km</desc>
<time>2013-07-23T17:09:12.18</time>
<name>8027</name>
<sym>Dot</sym>
</trkpt>
<trkpt lat="48.985882" lon="20.088220">
<ele>951.0</ele>
<desc>Speed 23.0 km/h Distance 26.72 km</desc>
<time>2013-07-23T17:09:14.18</time>
<name>8028</name>
<sym>Dot</sym>
</trkpt>
<trkpt lat="48.985928" lon="20.088218">
<ele>951.0</ele>
<desc>Speed 23.0 km/h Distance 26.73 km</desc>
<time>2013-07-23T17:09:15.17</time>
<name>8029</name>
<sym>Dot</sym>
</trkpt>
<trkpt lat="48.986098" lon="20.088105">
<ele>950.5</ele>
<desc>Speed 32.0 km/h Distance 26.75 km</desc>
<time>2013-07-23T17:09:17.17</time>
<name>8030</name>
<sym>Dot</sym>
</trkpt>
<trkpt lat="48.986162" lon="20.088052">
<ele>950.5</ele>
<desc>Speed 32.0 km/h Distance 26.75 km</desc>
<time>2013-07-23T17:09:18.16</time>
<name>8031</name>
<sym>Dot</sym>
</trkpt>
<trkpt lat="48.986258" lon="20.087982">
<ele>950.5</ele>
<desc>Speed 32.0 km/h Distance 26.77 km</desc>
<time>2013-07-23T17:09:20.16</time>
<name>8032</name>
<sym>Dot</sym>
</trkpt>
<trkpt lat="48.986323" lon="20.087937">
<ele>950.5</ele>
<desc>Speed 27.0 km/h Distance 26.77 km</desc>
<time>2013-07-23T17:09:21.15</time>
<name>8033</name>
<sym>Dot</sym>
</trkpt>
<trkpt lat="48.986465" lon="20.087822">
<ele>950.0</ele>
<desc>Speed 29.6 km/h Distance 26.79 km</desc>
<time>2013-07-23T17:09:23.15</time>
<name>8034</name>
<sym>Dot</sym>
</trkpt>
<trkpt lat="48.986607" lon="20.087693">
<ele>950.0</ele>
<desc>Speed 24.3 km/h Distance 26.81 km</desc>
<time>2013-07-23T17:09:25.14</time>
<name>8035</name>
<sym>Dot</sym>
</trkpt>
<trkpt lat="48.986760" lon="20.087542">
<ele>950.0</ele>
<desc>Speed 27.9 km/h Distance 26.83 km</desc>
<time>2013-07-23T17:09:27.13</time>
<name>8036</name>
<sym>Dot</sym>
</trkpt>
<trkpt lat="48.986920" lon="20.087390">
<ele>950.0</ele>
<desc>Speed 38.2 km/h Distance 26.85 km</desc>
<time>2013-07-23T17:09:29.13</time>
<name>8037</name>
<sym>Dot</sym>
</trkpt>
<trkpt lat="48.987035" lon="20.087302">
<ele>949.5</ele>
<desc>Speed 38.2 km/h Distance 26.87 km</desc>
<time>2013-07-23T17:09:31.12</time>
<name>8038</name>
<sym>Dot</sym>
</trkpt>
<trkpt lat="48.987185" lon="20.087268">
<ele>949.5</ele>
<desc>Speed 22.1 km/h Distance 26.88 km</desc>
<time>2013-07-23T17:09:34.22</time>
<name>8039</name>
<sym>Dot</sym>
</trkpt>
<trkpt lat="48.987337" lon="20.087167">
<ele>948.5</ele>
<desc>Speed 26.7 km/h Distance 26.90 km</desc>
<time>2013-07-23T17:09:36.36</time>
<name>8040</name>
<sym>Dot</sym>
</trkpt>
<trkpt lat="48.987408" lon="20.087125">
<ele>948.5</ele>
<desc>Speed 26.7 km/h Distance 26.91 km</desc>
<time>2013-07-23T17:09:37.21</time>
<name>8041</name>
<sym>Dot</sym>
</trkpt>
<trkpt lat="48.987470" lon="20.087075">
<ele>946.0</ele>
<desc>Speed 24.3 km/h Distance 26.92 km</desc>
<time>2013-07-23T17:09:38.20</time>
<name>8042</name>
<sym>Dot</sym>
</trkpt>
<trkpt lat="48.987535" lon="20.087023">
<ele>945.5</ele>
<desc>Speed 25.0 km/h Distance 26.93 km</desc>
<time>2013-07-23T17:09:39.20</time>
<name>8043</name>
<sym>Dot</sym>
</trkpt>
<trkpt lat="48.987670" lon="20.086902">
<ele>944.5</ele>
<desc>Speed 28.0 km/h Distance 26.94 km</desc>
<time>2013-07-23T17:09:41.36</time>
<name>8044</name>
<sym>Dot</sym>
</trkpt>
<trkpt lat="48.987737" lon="20.086843">
<ele>944.5</ele>
<desc>Speed 23.1 km/h Distance 26.95 km</desc>
<time>2013-07-23T17:09:42.19</time>
<name>8045</name>
<sym>Dot</sym>
</trkpt>
<trkpt lat="48.987790" lon="20.086802">
<ele>944.5</ele>
<desc>Speed 23.1 km/h Distance 26.96 km</desc>
<time>2013-07-23T17:09:43.18</time>
<name>8046</name>
<sym>Dot</sym>
</trkpt>
<trkpt lat="48.987857" lon="20.086757">
<ele>944.5</ele>
<desc>Speed 26.2 km/h Distance 26.97 km</desc>
<time>2013-07-23T17:09:44.18</time>
<name>8047</name>
<sym>Dot</sym>
</trkpt>
<trkpt lat="48.987910" lon="20.086713">
<ele>944.5</ele>
<desc>Speed 26.2 km/h Distance 26.97 km</desc>
<time>2013-07-23T17:09:45.24</time>
<name>8048</name>
<sym>Dot</sym>
</trkpt>
<trkpt lat="48.987985" lon="20.086658">
<ele>944.5</ele>
<desc>Speed 26.2 km/h Distance 26.98 km</desc>
<time>2013-07-23T17:09:47.16</time>
<name>8049</name>
<sym>Dot</sym>
</trkpt>
<trkpt lat="48.988072" lon="20.086588">
<ele>944.5</ele>
<desc>Speed 18.3 km/h Distance 26.99 km</desc>
<time>2013-07-23T17:09:49.16</time>
<name>8050</name>
<sym>Dot</sym>
</trkpt>
<trkpt lat="48.988188" lon="20.086453">
<ele>943.5</ele>
<desc>Speed 17.1 km/h Distance 27.01 km</desc>
<time>2013-07-23T17:09:51.16</time>
<name>8051</name>
<sym>Dot</sym>
</trkpt>
<trkpt lat="48.988227" lon="20.086468">
<ele>943.0</ele>
<desc>Speed 17.1 km/h Distance 27.01 km</desc>
<time>2013-07-23T17:09:52.16</time>
<name>8052</name>
<sym>Dot</sym>
</trkpt>
<trkpt lat="48.988265" lon="20.086473">
<ele>942.0</ele>
<desc>Speed 17.1 km/h Distance 27.02 km</desc>
<time>2013-07-23T17:09:53.15</time>
<name>8053</name>
<sym>Dot</sym>
</trkpt>
<trkpt lat="48.988290" lon="20.086483">
<ele>941.5</ele>
<desc>Speed 17.1 km/h Distance 27.02 km</desc>
<time>2013-07-23T17:09:54.14</time>
<name>8054</name>
<sym>Dot</sym>
</trkpt>
<trkpt lat="48.988342" lon="20.086477">
<ele>940.5</ele>
<desc>Speed 17.1 km/h Distance 27.03 km</desc>
<time>2013-07-23T17:09:56.27</time>
<name>8055</name>
<sym>Dot</sym>
</trkpt>
<trkpt lat="48.988470" lon="20.086447">
<ele>939.0</ele>
<desc>Speed 22.5 km/h Distance 27.04 km</desc>
<time>2013-07-23T17:09:58.29</time>
<name>8056</name>
<sym>Dot</sym>
</trkpt>
<trkpt lat="48.988528" lon="20.086385">
<ele>937.5</ele>
<desc>Speed 19.6 km/h Distance 27.05 km</desc>
<time>2013-07-23T17:09:59.13</time>
<name>8057</name>
<sym>Dot</sym>
</trkpt>
<trkpt lat="48.988585" lon="20.086352">
<ele>937.5</ele>
<desc>Speed 21.2 km/h Distance 27.06 km</desc>
<time>2013-07-23T17:10:00.12</time>
<name>8058</name>
<sym>Dot</sym>
</trkpt>
<trkpt lat="48.988647" lon="20.086322">
<ele>937.0</ele>
<desc>Speed 22.9 km/h Distance 27.06 km</desc>
<time>2013-07-23T17:10:01.12</time>
<name>8059</name>
<sym>Dot</sym>
</trkpt>
<trkpt lat="48.988703" lon="20.086297">
<ele>936.5</ele>
<desc>Speed 22.9 km/h Distance 27.07 km</desc>
<time>2013-07-23T17:10:02.11</time>
<name>8060</name>
<sym>Dot</sym>
</trkpt>
<trkpt lat="48.988752" lon="20.086288">
<ele>936.5</ele>
<desc>Speed 19.0 km/h Distance 27.08 km</desc>
<time>2013-07-23T17:10:03.13</time>
<name>8061</name>
<sym>Dot</sym>
</trkpt>
<trkpt lat="48.988868" lon="20.086258">
<ele>935.5</ele>
<desc>Speed 17.3 km/h Distance 27.09 km</desc>
<time>2013-07-23T17:10:05.11</time>
<name>8062</name>
<sym>Dot</sym>
</trkpt>
<trkpt lat="48.988977" lon="20.086223">
<ele>934.5</ele>
<desc>Speed 19.2 km/h Distance 27.10 km</desc>
<time>2013-07-23T17:10:07.10</time>
<name>8063</name>
<sym>Dot</sym>
</trkpt>
<trkpt lat="48.989037" lon="20.086213">
<ele>933.5</ele>
<desc>Speed 18.9 km/h Distance 27.11 km</desc>
<time>2013-07-23T17:10:08.10</time>
<name>8064</name>
<sym>Dot</sym>
</trkpt>
<trkpt lat="48.989093" lon="20.086200">
<ele>932.0</ele>
<desc>Speed 17.5 km/h Distance 27.11 km</desc>
<time>2013-07-23T17:10:09.09</time>
<name>8065</name>
<sym>Dot</sym>
</trkpt>
<trkpt lat="48.989153" lon="20.086198">
<ele>932.0</ele>
<desc>Speed 22.4 km/h Distance 27.12 km</desc>
<time>2013-07-23T17:10:10.09</time>
<name>8066</name>
<sym>Dot</sym>
</trkpt>
<trkpt lat="48.989202" lon="20.086178">
<ele>932.0</ele>
<desc>Speed 19.3 km/h Distance 27.13 km</desc>
<time>2013-07-23T17:10:11.09</time>
<name>8067</name>
<sym>Dot</sym>
</trkpt>
<trkpt lat="48.989557" lon="20.085832">
<ele>930.5</ele>
<desc>Speed 21.3 km/h Distance 27.17 km</desc>
<time>2013-07-23T17:10:15.22</time>
<name>8068</name>
<sym>Dot</sym>
</trkpt>
<trkpt lat="48.989625" lon="20.085890">
<ele>930.0</ele>
<desc>Speed 18.0 km/h Distance 27.18 km</desc>
<time>2013-07-23T17:10:17.22</time>
<name>8069</name>
<sym>Dot</sym>
</trkpt>
<trkpt lat="48.989655" lon="20.085923">
<ele>929.5</ele>
<desc>Speed 16.7 km/h Distance 27.19 km</desc>
<time>2013-07-23T17:10:18.21</time>
<name>8070</name>
<sym>Dot</sym>
</trkpt>
<trkpt lat="48.989683" lon="20.085943">
<ele>929.5</ele>
<desc>Speed 16.7 km/h Distance 27.19 km</desc>
<time>2013-07-23T17:10:19.21</time>
<name>8071</name>
<sym>Dot</sym>
</trkpt>
<trkpt lat="48.989728" lon="20.085968">
<ele>929.5</ele>
<desc>Speed 20.4 km/h Distance 27.19 km</desc>
<time>2013-07-23T17:10:20.20</time>
<name>8072</name>
<sym>Dot</sym>
</trkpt>
<trkpt lat="48.989775" lon="20.085958">
<ele>929.0</ele>
<desc>Speed 18.6 km/h Distance 27.20 km</desc>
<time>2013-07-23T17:10:21.20</time>
<name>8073</name>
<sym>Dot</sym>
</trkpt>
<trkpt lat="48.989810" lon="20.085945">
<ele>929.0</ele>
<desc>Speed 18.6 km/h Distance 27.20 km</desc>
<time>2013-07-23T17:10:22.20</time>
<name>8074</name>
<sym>Dot</sym>
</trkpt>
<trkpt lat="48.989942" lon="20.085818">
<ele>927.5</ele>
<desc>Speed 23.8 km/h Distance 27.22 km</desc>
<time>2013-07-23T17:10:24.19</time>
<name>8075</name>
<sym>Dot</sym>
</trkpt>
<trkpt lat="48.990003" lon="20.085773">
<ele>927.0</ele>
<desc>Speed 21.5 km/h Distance 27.23 km</desc>
<time>2013-07-23T17:10:25.18</time>
<name>8076</name>
<sym>Dot</sym>
</trkpt>
<trkpt lat="48.990060" lon="20.085715">
<ele>927.0</ele>
<desc>Speed 24.3 km/h Distance 27.24 km</desc>
<time>2013-07-23T17:10:26.18</time>
<name>8077</name>
<sym>Dot</sym>
</trkpt>
<trkpt lat="48.990110" lon="20.085668">
<ele>926.5</ele>
<desc>Speed 21.9 km/h Distance 27.24 km</desc>
<time>2013-07-23T17:10:27.17</time>
<name>8078</name>
<sym>Dot</sym>
</trkpt>
<trkpt lat="48.990153" lon="20.085628">
<ele>926.0</ele>
<desc>Speed 20.0 km/h Distance 27.25 km</desc>
<time>2013-07-23T17:10:28.17</time>
<name>8079</name>
<sym>Dot</sym>
</trkpt>
<trkpt lat="48.990197" lon="20.085575">
<ele>925.5</ele>
<desc>Speed 16.2 km/h Distance 27.25 km</desc>
<time>2013-07-23T17:10:29.23</time>
<name>8080</name>
<sym>Dot</sym>
</trkpt>
<trkpt lat="48.990242" lon="20.085522">
<ele>925.5</ele>
<desc>Speed 18.4 km/h Distance 27.26 km</desc>
<time>2013-07-23T17:10:30.16</time>
<name>8081</name>
<sym>Dot</sym>
</trkpt>
<trkpt lat="48.990368" lon="20.085388">
<ele>924.5</ele>
<desc>Speed 23.2 km/h Distance 27.28 km</desc>
<time>2013-07-23T17:10:32.15</time>
<name>8082</name>
<sym>Dot</sym>
</trkpt>
<trkpt lat="48.990428" lon="20.085340">
<ele>925.0</ele>
<desc>Speed 20.0 km/h Distance 27.29 km</desc>
<time>2013-07-23T17:10:33.15</time>
<name>8083</name>
<sym>Dot</sym>
</trkpt>
<trkpt lat="48.990475" lon="20.085308">
<ele>925.0</ele>
<desc>Speed 13.2 km/h Distance 27.29 km</desc>
<time>2013-07-23T17:10:34.15</time>
<name>8084</name>
<sym>Dot</sym>
</trkpt>
<trkpt lat="48.990512" lon="20.085278">
<ele>924.5</ele>
<desc>Speed 13.2 km/h Distance 27.30 km</desc>
<time>2013-07-23T17:10:35.14</time>
<name>8085</name>
<sym>Dot</sym>
</trkpt>
<trkpt lat="48.990715" lon="20.085202">
<ele>923.5</ele>
<desc>Speed 24.3 km/h Distance 27.32 km</desc>
<time>2013-07-23T17:10:38.22</time>
<name>8086</name>
<sym>Dot</sym>
</trkpt>
<trkpt lat="48.990770" lon="20.085178">
<ele>922.5</ele>
<desc>Speed 24.3 km/h Distance 27.33 km</desc>
<time>2013-07-23T17:10:39.21</time>
<name>8087</name>
<sym>Dot</sym>
</trkpt>
<trkpt lat="48.990877" lon="20.085147">
<ele>921.5</ele>
<desc>Speed 24.3 km/h Distance 27.34 km</desc>
<time>2013-07-23T17:10:41.21</time>
<name>8088</name>
<sym>Dot</sym>
</trkpt>
<trkpt lat="48.990945" lon="20.085098">
<ele>921.5</ele>
<desc>Speed 25.6 km/h Distance 27.35 km</desc>
<time>2013-07-23T17:10:42.21</time>
<name>8089</name>
<sym>Dot</sym>
</trkpt>
<trkpt lat="48.991003" lon="20.085057">
<ele>920.5</ele>
<desc>Speed 25.6 km/h Distance 27.35 km</desc>
<time>2013-07-23T17:10:43.20</time>
<name>8090</name>
<sym>Dot</sym>
</trkpt>
<trkpt lat="48.991170" lon="20.084930">
<ele>919.0</ele>
<desc>Speed 27.5 km/h Distance 27.37 km</desc>
<time>2013-07-23T17:10:45.19</time>
<name>8091</name>
<sym>Dot</sym>
</trkpt>
<trkpt lat="48.991228" lon="20.084887">
<ele>919.0</ele>
<desc>Speed 27.5 km/h Distance 27.38 km</desc>
<time>2013-07-23T17:10:46.18</time>
<name>8092</name>
<sym>Dot</sym>
</trkpt>
<trkpt lat="48.991277" lon="20.084857">
<ele>919.0</ele>
<desc>Speed 27.5 km/h Distance 27.39 km</desc>
<time>2013-07-23T17:10:47.17</time>
<name>8093</name>
<sym>Dot</sym>
</trkpt>
<trkpt lat="48.991335" lon="20.084807">
<ele>918.5</ele>
<desc>Speed 23.7 km/h Distance 27.39 km</desc>
<time>2013-07-23T17:10:48.17</time>
<name>8094</name>
<sym>Dot</sym>
</trkpt>
<trkpt lat="48.991385" lon="20.084757">
<ele>918.5</ele>
<desc>Speed 21.9 km/h Distance 27.40 km</desc>
<time>2013-07-23T17:10:49.17</time>
<name>8095</name>
<sym>Dot</sym>
</trkpt>
<trkpt lat="48.991428" lon="20.084717">
<ele>918.5</ele>
<desc>Speed 21.9 km/h Distance 27.41 km</desc>
<time>2013-07-23T17:10:50.16</time>
<name>8096</name>
<sym>Dot</sym>
</trkpt>
<trkpt lat="48.991490" lon="20.084665">
<ele>918.5</ele>
<desc>Speed 20.3 km/h Distance 27.41 km</desc>
<time>2013-07-23T17:10:51.17</time>
<name>8097</name>
<sym>Dot</sym>
</trkpt>
<trkpt lat="48.991542" lon="20.084638">
<ele>918.5</ele>
<desc>Speed 16.9 km/h Distance 27.42 km</desc>
<time>2013-07-23T17:10:52.16</time>
<name>8098</name>
<sym>Dot</sym>
</trkpt>
<trkpt lat="48.991592" lon="20.084613">
<ele>918.0</ele>
<desc>Speed 16.9 km/h Distance 27.43 km</desc>
<time>2013-07-23T17:10:53.15</time>
<name>8099</name>
<sym>Dot</sym>
</trkpt>
<trkpt lat="48.991693" lon="20.084518">
<ele>918.0</ele>
<desc>Speed 13.5 km/h Distance 27.44 km</desc>
<time>2013-07-23T17:10:55.15</time>
<name>8100</name>
<sym>Dot</sym>
</trkpt>
<trkpt lat="48.991810" lon="20.084410">
<ele>918.5</ele>
<desc>Speed 25.1 km/h Distance 27.46 km</desc>
<time>2013-07-23T17:10:57.15</time>
<name>8101</name>
<sym>Dot</sym>
</trkpt>
<trkpt lat="48.991872" lon="20.084358">
<ele>918.5</ele>
<desc>Speed 25.1 km/h Distance 27.46 km</desc>
<time>2013-07-23T17:10:58.15</time>
<name>8102</name>
<sym>Dot</sym>
</trkpt>
<trkpt lat="48.991925" lon="20.084315">
<ele>917.5</ele>
<desc>Speed 25.1 km/h Distance 27.47 km</desc>
<time>2013-07-23T17:10:59.14</time>
<name>8103</name>
<sym>Dot</sym>
</trkpt>
<trkpt lat="48.992000" lon="20.084207">
<ele>916.0</ele>
<desc>Speed 18.4 km/h Distance 27.48 km</desc>
<time>2013-07-23T17:11:01.14</time>
<name>8104</name>
<sym>Dot</sym>
</trkpt>
<trkpt lat="48.992055" lon="20.084168">
<ele>916.0</ele>
<desc>Speed 13.7 km/h Distance 27.49 km</desc>
<time>2013-07-23T17:11:03.13</time>
<name>8105</name>
<sym>Dot</sym>
</trkpt>
<trkpt lat="48.992085" lon="20.084158">
<ele>916.0</ele>
<desc>Speed 13.7 km/h Distance 27.49 km</desc>
<time>2013-07-23T17:11:04.13</time>
<name>8106</name>
<sym>Dot</sym>
</trkpt>
<trkpt lat="48.992117" lon="20.084135">
<ele>916.0</ele>
<desc>Speed 13.7 km/h Distance 27.50 km</desc>
<time>2013-07-23T17:11:05.12</time>
<name>8107</name>
<sym>Dot</sym>
</trkpt>
<trkpt lat="48.992152" lon="20.084115">
<ele>916.0</ele>
<desc>Speed 13.7 km/h Distance 27.50 km</desc>
<time>2013-07-23T17:11:06.11</time>
<name>8108</name>
<sym>Dot</sym>
</trkpt>
<trkpt lat="48.992220" lon="20.084038">
<ele>916.5</ele>
<desc>Speed 13.7 km/h Distance 27.51 km</desc>
<time>2013-07-23T17:11:08.11</time>
<name>8109</name>
<sym>Dot</sym>
</trkpt>
<trkpt lat="48.992277" lon="20.083998">
<ele>917.5</ele>
<desc>Speed 13.7 km/h Distance 27.52 km</desc>
<time>2013-07-23T17:11:10.11</time>
<name>8110</name>
<sym>Dot</sym>
</trkpt>
<trkpt lat="48.992318" lon="20.083847">
<ele>918.5</ele>
<desc>Speed 3.5 km/h Distance 27.53 km</desc>
<time>2013-07-23T17:11:12.11</time>
<name>8111</name>
<sym>Dot</sym>
</trkpt>
<trkpt lat="48.992357" lon="20.083755">
<ele>918.0</ele>
<desc>Speed 3.5 km/h Distance 27.54 km</desc>
<time>2013-07-23T17:11:14.10</time>
<name>8112</name>
<sym>Dot</sym>
</trkpt>
<trkpt lat="48.992358" lon="20.083745">
<ele>918.0</ele>
<desc>Speed 3.5 km/h Distance 27.54 km</desc>
<time>2013-07-23T17:11:15.10</time>
<name>8113</name>
<sym>Dot</sym>
</trkpt>
<trkpt lat="48.992358" lon="20.083743">
<ele>918.0</ele>
<desc>Speed 3.5 km/h Distance 27.54 km</desc>
<time>2013-07-23T17:11:16.10</time>
<name>8114</name>
<sym>Dot</sym>
</trkpt>
<trkpt lat="48.992383" lon="20.083745">
<ele>918.0</ele>
<desc>Speed 7.7 km/h Distance 27.54 km</desc>
<time>2013-07-23T17:11:17.09</time>
<name>8115</name>
<sym>Dot</sym>
</trkpt>
<trkpt lat="48.992405" lon="20.083742">
<ele>918.0</ele>
<desc>Speed 7.7 km/h Distance 27.54 km</desc>
<time>2013-07-23T17:11:18.09</time>
<name>8116</name>
<sym>Dot</sym>
</trkpt>
<trkpt lat="48.992428" lon="20.083732">
<ele>918.0</ele>
<desc>Speed 7.7 km/h Distance 27.54 km</desc>
<time>2013-07-23T17:11:19.08</time>
<name>8117</name>
<sym>Dot</sym>
</trkpt>
<trkpt lat="48.992453" lon="20.083712">
<ele>917.5</ele>
<desc>Speed 7.7 km/h Distance 27.55 km</desc>
<time>2013-07-23T17:11:20.08</time>
<name>8118</name>
<sym>Dot</sym>
</trkpt>
<trkpt lat="48.992523" lon="20.083748">
<ele>918.5</ele>
<desc>Speed 7.7 km/h Distance 27.56 km</desc>
<time>2013-07-23T17:11:22.08</time>
<name>8119</name>
<sym>Dot</sym>
</trkpt>
<trkpt lat="48.992547" lon="20.083733">
<ele>919.0</ele>
<desc>Speed 7.7 km/h Distance 27.56 km</desc>
<time>2013-07-23T17:11:23.17</time>
<name>8120</name>
<sym>Dot</sym>
</trkpt>
<trkpt lat="48.992565" lon="20.083718">
<ele>919.0</ele>
<desc>Speed 7.7 km/h Distance 27.56 km</desc>
<time>2013-07-23T17:11:24.06</time>
<name>8121</name>
<sym>Dot</sym>
</trkpt>
<trkpt lat="48.992577" lon="20.083722">
<ele>919.0</ele>
<desc>Speed 7.7 km/h Distance 27.56 km</desc>
<time>2013-07-23T17:11:25.06</time>
<name>8122</name>
<sym>Dot</sym>
</trkpt>
<trkpt lat="48.992595" lon="20.083718">
<ele>919.0</ele>
<desc>Speed 7.7 km/h Distance 27.56 km</desc>
<time>2013-07-23T17:11:26.05</time>
<name>8123</name>
<sym>Dot</sym>
</trkpt>
<trkpt lat="48.992615" lon="20.083713">
<ele>919.0</ele>
<desc>Speed 7.7 km/h Distance 27.57 km</desc>
<time>2013-07-23T17:11:27.05</time>
<name>8124</name>
<sym>Dot</sym>
</trkpt>
<trkpt lat="48.992643" lon="20.083702">
<ele>918.5</ele>
<desc>Speed 7.7 km/h Distance 27.57 km</desc>
<time>2013-07-23T17:11:28.04</time>
<name>8125</name>
<sym>Dot</sym>
</trkpt>
<trkpt lat="48.993193" lon="20.083350">
<ele>917.5</ele>
<desc>Speed 4.9 km/h Distance 27.64 km</desc>
<time>2013-07-23T17:11:34.22</time>
<name>8126</name>
<sym>Dot</sym>
</trkpt>
<trkpt lat="48.993265" lon="20.083317">
<ele>917.5</ele>
<desc>Speed 8.2 km/h Distance 27.64 km</desc>
<time>2013-07-23T17:11:36.22</time>
<name>8127</name>
<sym>Dot</sym>
</trkpt>
<trkpt lat="48.993287" lon="20.083307">
<ele>917.5</ele>
<desc>Speed 8.2 km/h Distance 27.65 km</desc>
<time>2013-07-23T17:11:37.22</time>
<name>8128</name>
<sym>Dot</sym>
</trkpt>
<trkpt lat="48.993553" lon="20.083075">
<ele>918.5</ele>
<desc>Speed 9.8 km/h Distance 27.68 km</desc>
<time>2013-07-23T17:11:41.22</time>
<name>8129</name>
<sym>Dot</sym>
</trkpt>
<trkpt lat="48.993725" lon="20.082712">
<ele>918.5</ele>
<desc>Speed 11.5 km/h Distance 27.71 km</desc>
<time>2013-07-23T17:11:45.22</time>
<name>8130</name>
<sym>Dot</sym>
</trkpt>
<trkpt lat="48.993747" lon="20.082658">
<ele>918.5</ele>
<desc>Speed 12.9 km/h Distance 27.72 km</desc>
<time>2013-07-23T17:11:46.21</time>
<name>8131</name>
<sym>Dot</sym>
</trkpt>
<trkpt lat="48.993882" lon="20.082418">
<ele>920.0</ele>
<desc>Speed 17.7 km/h Distance 27.74 km</desc>
<time>2013-07-23T17:11:49.22</time>
<name>8132</name>
<sym>Dot</sym>
</trkpt>
<trkpt lat="48.994035" lon="20.082090">
<ele>921.0</ele>
<desc>Speed 30.6 km/h Distance 27.77 km</desc>
<time>2013-07-23T17:11:52.22</time>
<name>8133</name>
<sym>Dot</sym>
</trkpt>
<trkpt lat="48.994113" lon="20.081978">
<ele>921.5</ele>
<desc>Speed 12.4 km/h Distance 27.78 km</desc>
<time>2013-07-23T17:11:55.22</time>
<name>8134</name>
<sym>Dot</sym>
</trkpt>
<trkpt lat="48.994130" lon="20.081960">
<ele>921.5</ele>
<desc>Speed 12.4 km/h Distance 27.79 km</desc>
<time>2013-07-23T17:11:56.21</time>
<name>8135</name>
<sym>Dot</sym>
</trkpt>
<trkpt lat="48.994143" lon="20.081945">
<ele>921.5</ele>
<desc>Speed 12.4 km/h Distance 27.79 km</desc>
<time>2013-07-23T17:11:57.21</time>
<name>8136</name>
<sym>Dot</sym>
</trkpt>
<trkpt lat="48.994145" lon="20.081922">
<ele>922.0</ele>
<desc>Speed 12.4 km/h Distance 27.79 km</desc>
<time>2013-07-23T17:11:58.21</time>
<name>8137</name>
<sym>Dot</sym>
</trkpt>
<trkpt lat="48.994288" lon="20.081603">
<ele>924.5</ele>
<desc>Speed 20.3 km/h Distance 27.82 km</desc>
<time>2013-07-23T17:12:01.21</time>
<name>8138</name>
<sym>Dot</sym>
</trkpt>
<trkpt lat="48.994322" lon="20.081532">
<ele>924.5</ele>
<desc>Speed 20.3 km/h Distance 27.82 km</desc>
<time>2013-07-23T17:12:02.21</time>
<name>8139</name>
<sym>Dot</sym>
</trkpt>
<trkpt lat="48.994352" lon="20.081477">
<ele>924.5</ele>
<desc>Speed 20.3 km/h Distance 27.83 km</desc>
<time>2013-07-23T17:12:03.21</time>
<name>8140</name>
<sym>Dot</sym>
</trkpt>
<trkpt lat="48.994375" lon="20.081432">
<ele>924.5</ele>
<desc>Speed 20.3 km/h Distance 27.83 km</desc>
<time>2013-07-23T17:12:04.20</time>
<name>8141</name>
<sym>Dot</sym>
</trkpt>
<trkpt lat="48.994410" lon="20.081355">
<ele>924.5</ele>
<desc>Speed 20.3 km/h Distance 27.84 km</desc>
<time>2013-07-23T17:12:05.20</time>
<name>8142</name>
<sym>Dot</sym>
</trkpt>
<trkpt lat="48.994518" lon="20.081163">
<ele>924.0</ele>
<desc>Speed 21.0 km/h Distance 27.86 km</desc>
<time>2013-07-23T17:12:07.20</time>
<name>8143</name>
<sym>Dot</sym>
</trkpt>
<trkpt lat="48.994540" lon="20.081107">
<ele>923.0</ele>
<desc>Speed 15.2 km/h Distance 27.86 km</desc>
<time>2013-07-23T17:12:08.19</time>
<name>8144</name>
<sym>Dot</sym>
</trkpt>
<trkpt lat="48.994630" lon="20.080720">
<ele>919.5</ele>
<desc>Speed 14.0 km/h Distance 27.89 km</desc>
<time>2013-07-23T17:12:11.22</time>
<name>8145</name>
<sym>Dot</sym>
</trkpt>
<trkpt lat="48.994743" lon="20.080370">
<ele>919.0</ele>
<desc>Speed 23.8 km/h Distance 27.92 km</desc>
<time>2013-07-23T17:12:14.22</time>
<name>8146</name>
<sym>Dot</sym>
</trkpt>
<trkpt lat="48.994893" lon="20.079992">
<ele>920.0</ele>
<desc>Speed 36.2 km/h Distance 27.95 km</desc>
<time>2013-07-23T17:12:17.22</time>
<name>8147</name>
<sym>Dot</sym>
</trkpt>
<trkpt lat="48.994968" lon="20.079782">
<ele>920.5</ele>
<desc>Speed 22.2 km/h Distance 27.97 km</desc>
<time>2013-07-23T17:12:19.21</time>
<name>8148</name>
<sym>Dot</sym>
</trkpt>
<trkpt lat="48.994998" lon="20.079655">
<ele>922.5</ele>
<desc>Speed 21.0 km/h Distance 27.98 km</desc>
<time>2013-07-23T17:12:21.21</time>
<name>8149</name>
<sym>Dot</sym>
</trkpt>
<trkpt lat="48.995177" lon="20.079268">
<ele>922.0</ele>
<desc>Speed 31.6 km/h Distance 28.02 km</desc>
<time>2013-07-23T17:12:24.22</time>
<name>8150</name>
<sym>Dot</sym>
</trkpt>
<trkpt lat="48.995277" lon="20.079037">
<ele>921.0</ele>
<desc>Speed 30.7 km/h Distance 28.04 km</desc>
<time>2013-07-23T17:12:26.21</time>
<name>8151</name>
<sym>Dot</sym>
</trkpt>
<trkpt lat="48.995297" lon="20.078935">
<ele>921.0</ele>
<desc>Speed 30.7 km/h Distance 28.04 km</desc>
<time>2013-07-23T17:12:27.21</time>
<name>8152</name>
<sym>Dot</sym>
</trkpt>
<trkpt lat="48.995350" lon="20.078830">
<ele>921.0</ele>
<desc>Speed 26.1 km/h Distance 28.05 km</desc>
<time>2013-07-23T17:12:28.20</time>
<name>8153</name>
<sym>Dot</sym>
</trkpt>
<trkpt lat="48.995397" lon="20.078742">
<ele>921.0</ele>
<desc>Speed 26.1 km/h Distance 28.06 km</desc>
<time>2013-07-23T17:12:29.20</time>
<name>8154</name>
<sym>Dot</sym>
</trkpt>
<trkpt lat="48.995525" lon="20.078553">
<ele>921.5</ele>
<desc>Speed 33.2 km/h Distance 28.08 km</desc>
<time>2013-07-23T17:12:31.19</time>
<name>8155</name>
<sym>Dot</sym>
</trkpt>
<trkpt lat="48.995643" lon="20.078390">
<ele>921.0</ele>
<desc>Speed 32.3 km/h Distance 28.10 km</desc>
<time>2013-07-23T17:12:33.19</time>
<name>8156</name>
<sym>Dot</sym>
</trkpt>
<trkpt lat="48.995702" lon="20.078312">
<ele>921.0</ele>
<desc>Speed 32.3 km/h Distance 28.11 km</desc>
<time>2013-07-23T17:12:34.18</time>
<name>8157</name>
<sym>Dot</sym>
</trkpt>
<trkpt lat="48.995760" lon="20.078220">
<ele>920.5</ele>
<desc>Speed 32.1 km/h Distance 28.12 km</desc>
<time>2013-07-23T17:12:35.18</time>
<name>8158</name>
<sym>Dot</sym>
</trkpt>
<trkpt lat="48.995893" lon="20.077948">
<ele>919.0</ele>
<desc>Speed 29.6 km/h Distance 28.14 km</desc>
<time>2013-07-23T17:12:37.19</time>
<name>8159</name>
<sym>Dot</sym>
</trkpt>
<trkpt lat="48.995958" lon="20.077857">
<ele>919.5</ele>
<desc>Speed 29.3 km/h Distance 28.15 km</desc>
<time>2013-07-23T17:12:38.17</time>
<name>8160</name>
<sym>Dot</sym>
</trkpt>
<trkpt lat="48.996013" lon="20.077752">
<ele>919.0</ele>
<desc>Speed 36.5 km/h Distance 28.16 km</desc>
<time>2013-07-23T17:12:39.17</time>
<name>8161</name>
<sym>Dot</sym>
</trkpt>
<trkpt lat="48.996065" lon="20.077663">
<ele>918.5</ele>
<desc>Speed 36.5 km/h Distance 28.17 km</desc>
<time>2013-07-23T17:12:40.17</time>
<name>8162</name>
<sym>Dot</sym>
</trkpt>
<trkpt lat="48.996140" lon="20.077610">
<ele>918.5</ele>
<desc>Speed 30.5 km/h Distance 28.18 km</desc>
<time>2013-07-23T17:12:41.17</time>
<name>8163</name>
<sym>Dot</sym>
</trkpt>
<trkpt lat="48.996207" lon="20.077520">
<ele>918.5</ele>
<desc>Speed 30.1 km/h Distance 28.19 km</desc>
<time>2013-07-23T17:12:42.16</time>
<name>8164</name>
<sym>Dot</sym>
</trkpt>
<trkpt lat="48.996265" lon="20.077462">
<ele>918.5</ele>
<desc>Speed 27.4 km/h Distance 28.20 km</desc>
<time>2013-07-23T17:12:43.18</time>
<name>8165</name>
<sym>Dot</sym>
</trkpt>
<trkpt lat="48.996333" lon="20.077412">
<ele>918.5</ele>
<desc>Speed 26.7 km/h Distance 28.21 km</desc>
<time>2013-07-23T17:12:44.15</time>
<name>8166</name>
<sym>Dot</sym>
</trkpt>
<trkpt lat="48.996388" lon="20.077372">
<ele>918.5</ele>
<desc>Speed 26.7 km/h Distance 28.21 km</desc>
<time>2013-07-23T17:12:45.15</time>
<name>8167</name>
<sym>Dot</sym>
</trkpt>
<trkpt lat="48.996462" lon="20.077315">
<ele>919.0</ele>
<desc>Speed 27.5 km/h Distance 28.22 km</desc>
<time>2013-07-23T17:12:46.14</time>
<name>8168</name>
<sym>Dot</sym>
</trkpt>
<trkpt lat="48.996533" lon="20.077308">
<ele>919.0</ele>
<desc>Speed 26.8 km/h Distance 28.23 km</desc>
<time>2013-07-23T17:12:47.14</time>
<name>8169</name>
<sym>Dot</sym>
</trkpt>
<trkpt lat="48.996667" lon="20.077140">
<ele>918.5</ele>
<desc>Speed 25.5 km/h Distance 28.25 km</desc>
<time>2013-07-23T17:12:49.14</time>
<name>8170</name>
<sym>Dot</sym>
</trkpt>
<trkpt lat="48.996728" lon="20.077087">
<ele>918.5</ele>
<desc>Speed 22.5 km/h Distance 28.26 km</desc>
<time>2013-07-23T17:12:50.13</time>
<name>8171</name>
<sym>Dot</sym>
</trkpt>
<trkpt lat="48.996773" lon="20.077065">
<ele>918.5</ele>
<desc>Speed 22.5 km/h Distance 28.26 km</desc>
<time>2013-07-23T17:12:51.13</time>
<name>8172</name>
<sym>Dot</sym>
</trkpt>
<trkpt lat="48.996923" lon="20.076967">
<ele>918.0</ele>
<desc>Speed 30.2 km/h Distance 28.28 km</desc>
<time>2013-07-23T17:12:53.13</time>
<name>8173</name>
<sym>Dot</sym>
</trkpt>
<trkpt lat="48.996982" lon="20.076913">
<ele>917.5</ele>
<desc>Speed 30.2 km/h Distance 28.29 km</desc>
<time>2013-07-23T17:12:54.12</time>
<name>8174</name>
<sym>Dot</sym>
</trkpt>
<trkpt lat="48.997058" lon="20.076858">
<ele>917.5</ele>
<desc>Speed 27.8 km/h Distance 28.30 km</desc>
<time>2013-07-23T17:12:55.12</time>
<name>8175</name>
<sym>Dot</sym>
</trkpt>
<trkpt lat="48.997328" lon="20.076612">
<ele>916.0</ele>
<desc>Speed 22.0 km/h Distance 28.33 km</desc>
<time>2013-07-23T17:12:58.22</time>
<name>8176</name>
<sym>Dot</sym>
</trkpt>
<trkpt lat="48.997377" lon="20.076582">
<ele>916.0</ele>
<desc>Speed 17.1 km/h Distance 28.34 km</desc>
<time>2013-07-23T17:12:59.21</time>
<name>8177</name>
<sym>Dot</sym>
</trkpt>
<trkpt lat="48.997573" lon="20.076407">
<ele>915.0</ele>
<desc>Speed 23.3 km/h Distance 28.36 km</desc>
<time>2013-07-23T17:13:02.22</time>
<name>8178</name>
<sym>Dot</sym>
</trkpt>
<trkpt lat="48.997632" lon="20.076350">
<ele>915.0</ele>
<desc>Speed 23.7 km/h Distance 28.37 km</desc>
<time>2013-07-23T17:13:03.20</time>
<name>8179</name>
<sym>Dot</sym>
</trkpt>
<trkpt lat="48.997790" lon="20.076247">
<ele>914.5</ele>
<desc>Speed 25.0 km/h Distance 28.39 km</desc>
<time>2013-07-23T17:13:05.19</time>
<name>8180</name>
<sym>Dot</sym>
</trkpt>
<trkpt lat="48.997833" lon="20.076187">
<ele>914.5</ele>
<desc>Speed 20.3 km/h Distance 28.40 km</desc>
<time>2013-07-23T17:13:06.20</time>
<name>8181</name>
<sym>Dot</sym>
</trkpt>
<trkpt lat="48.997948" lon="20.076083">
<ele>914.5</ele>
<desc>Speed 22.1 km/h Distance 28.41 km</desc>
<time>2013-07-23T17:13:08.19</time>
<name>8182</name>
<sym>Dot</sym>
</trkpt>
<trkpt lat="48.997992" lon="20.076050">
<ele>914.5</ele>
<desc>Speed 22.1 km/h Distance 28.42 km</desc>
<time>2013-07-23T17:13:09.19</time>
<name>8183</name>
<sym>Dot</sym>
</trkpt>
<trkpt lat="48.998038" lon="20.076015">
<ele>914.0</ele>
<desc>Speed 16.5 km/h Distance 28.42 km</desc>
<time>2013-07-23T17:13:10.19</time>
<name>8184</name>
<sym>Dot</sym>
</trkpt>
<trkpt lat="48.998078" lon="20.075977">
<ele>914.0</ele>
<desc>Speed 16.5 km/h Distance 28.43 km</desc>
<time>2013-07-23T17:13:11.19</time>
<name>8185</name>
<sym>Dot</sym>
</trkpt>
<trkpt lat="48.998163" lon="20.075850">
<ele>914.0</ele>
<desc>Speed 19.8 km/h Distance 28.44 km</desc>
<time>2013-07-23T17:13:13.18</time>
<name>8186</name>
<sym>Dot</sym>
</trkpt>
<trkpt lat="48.998202" lon="20.075810">
<ele>914.0</ele>
<desc>Speed 19.8 km/h Distance 28.45 km</desc>
<time>2013-07-23T17:13:14.18</time>
<name>8187</name>
<sym>Dot</sym>
</trkpt>
<trkpt lat="48.998223" lon="20.075775">
<ele>914.0</ele>
<desc>Speed 19.8 km/h Distance 28.45 km</desc>
<time>2013-07-23T17:13:15.17</time>
<name>8188</name>
<sym>Dot</sym>
</trkpt>
<trkpt lat="48.998252" lon="20.075722">
<ele>913.5</ele>
<desc>Speed 19.8 km/h Distance 28.46 km</desc>
<time>2013-07-23T17:13:17.17</time>
<name>8189</name>
<sym>Dot</sym>
</trkpt>
<trkpt lat="48.998287" lon="20.075665">
<ele>913.5</ele>
<desc>Speed 13.7 km/h Distance 28.46 km</desc>
<time>2013-07-23T17:13:19.16</time>
<name>8190</name>
<sym>Dot</sym>
</trkpt>
<trkpt lat="48.998310" lon="20.075622">
<ele>913.5</ele>
<desc>Speed 10.3 km/h Distance 28.46 km</desc>
<time>2013-07-23T17:13:20.16</time>
<name>8191</name>
<sym>Dot</sym>
</trkpt>
<trkpt lat="48.998342" lon="20.075590">
<ele>913.5</ele>
<desc>Speed 10.9 km/h Distance 28.47 km</desc>
<time>2013-07-23T17:13:21.16</time>
<name>8192</name>
<sym>Dot</sym>
</trkpt>
<trkpt lat="48.998365" lon="20.075570">
<ele>913.5</ele>
<desc>Speed 10.9 km/h Distance 28.47 km</desc>
<time>2013-07-23T17:13:22.16</time>
<name>8193</name>
<sym>Dot</sym>
</trkpt>
<trkpt lat="48.998475" lon="20.075500">
<ele>913.0</ele>
<desc>Speed 19.7 km/h Distance 28.49 km</desc>
<time>2013-07-23T17:13:24.14</time>
<name>8194</name>
<sym>Dot</sym>
</trkpt>
<trkpt lat="48.998523" lon="20.075487">
<ele>913.0</ele>
<desc>Speed 19.7 km/h Distance 28.49 km</desc>
<time>2013-07-23T17:13:25.14</time>
<name>8195</name>
<sym>Dot</sym>
</trkpt>
<trkpt lat="48.998583" lon="20.075450">
<ele>912.0</ele>
<desc>Speed 17.8 km/h Distance 28.50 km</desc>
<time>2013-07-23T17:13:26.13</time>
<name>8196</name>
<sym>Dot</sym>
</trkpt>
<trkpt lat="48.998693" lon="20.075332">
<ele>912.0</ele>
<desc>Speed 17.9 km/h Distance 28.51 km</desc>
<time>2013-07-23T17:13:28.13</time>
<name>8197</name>
<sym>Dot</sym>
</trkpt>
<trkpt lat="48.998732" lon="20.075308">
<ele>911.5</ele>
<desc>Speed 17.9 km/h Distance 28.52 km</desc>
<time>2013-07-23T17:13:29.12</time>
<name>8198</name>
<sym>Dot</sym>
</trkpt>
<trkpt lat="48.998783" lon="20.075288">
<ele>911.5</ele>
<desc>Speed 16.5 km/h Distance 28.52 km</desc>
<time>2013-07-23T17:13:30.12</time>
<name>8199</name>
<sym>Dot</sym>
</trkpt>
<trkpt lat="48.998887" lon="20.075192">
<ele>911.5</ele>
<desc>Speed 19.0 km/h Distance 28.54 km</desc>
<time>2013-07-23T17:13:32.12</time>
<name>8200</name>
<sym>Dot</sym>
</trkpt>
<trkpt lat="48.999147" lon="20.074953">
<ele>913.0</ele>
<desc>Speed 23.8 km/h Distance 28.57 km</desc>
<time>2013-07-23T17:13:35.21</time>
<name>8201</name>
<sym>Dot</sym>
</trkpt>
<trkpt lat="48.999423" lon="20.074732">
<ele>914.5</ele>
<desc>Speed 29.3 km/h Distance 28.61 km</desc>
<time>2013-07-23T17:13:38.21</time>
<name>8202</name>
<sym>Dot</sym>
</trkpt>
<trkpt lat="48.999480" lon="20.074630">
<ele>915.0</ele>
<desc>Speed 24.4 km/h Distance 28.62 km</desc>
<time>2013-07-23T17:13:39.21</time>
<name>8203</name>
<sym>Dot</sym>
</trkpt>
<trkpt lat="48.999533" lon="20.074557">
<ele>916.0</ele>
<desc>Speed 24.4 km/h Distance 28.62 km</desc>
<time>2013-07-23T17:13:40.20</time>
<name>8204</name>
<sym>Dot</sym>
</trkpt>
<trkpt lat="48.999573" lon="20.074503">
<ele>916.0</ele>
<desc>Speed 24.4 km/h Distance 28.63 km</desc>
<time>2013-07-23T17:13:41.19</time>
<name>8205</name>
<sym>Dot</sym>
</trkpt>
<trkpt lat="48.999622" lon="20.074460">
<ele>916.5</ele>
<desc>Speed 24.4 km/h Distance 28.64 km</desc>
<time>2013-07-23T17:13:42.19</time>
<name>8206</name>
<sym>Dot</sym>
</trkpt>
<trkpt lat="48.999770" lon="20.074340">
<ele>913.5</ele>
<desc>Speed 26.2 km/h Distance 28.65 km</desc>
<time>2013-07-23T17:13:44.18</time>
<name>8207</name>
<sym>Dot</sym>
</trkpt>
<trkpt lat="48.999835" lon="20.074267">
<ele>913.0</ele>
<desc>Speed 26.2 km/h Distance 28.66 km</desc>
<time>2013-07-23T17:13:45.17</time>
<name>8208</name>
<sym>Dot</sym>
</trkpt>
<trkpt lat="48.999888" lon="20.074220">
<ele>911.5</ele>
<desc>Speed 26.2 km/h Distance 28.67 km</desc>
<time>2013-07-23T17:13:46.17</time>
<name>8209</name>
<sym>Dot</sym>
</trkpt>
<trkpt lat="48.999950" lon="20.074150">
<ele>911.0</ele>
<desc>Speed 25.7 km/h Distance 28.68 km</desc>
<time>2013-07-23T17:13:47.16</time>
<name>8210</name>
<sym>Dot</sym>
</trkpt>
<trkpt lat="49.000083" lon="20.073982">
<ele>909.5</ele>
<desc>Speed 26.9 km/h Distance 28.70 km</desc>
<time>2013-07-23T17:13:49.16</time>
<name>8211</name>
<sym>Dot</sym>
</trkpt>
<trkpt lat="49.000138" lon="20.073933">
<ele>908.0</ele>
<desc>Speed 21.1 km/h Distance 28.71 km</desc>
<time>2013-07-23T17:13:50.15</time>
<name>8212</name>
<sym>Dot</sym>
</trkpt>
<trkpt lat="49.000192" lon="20.073897">
<ele>908.0</ele>
<desc>Speed 22.5 km/h Distance 28.71 km</desc>
<time>2013-07-23T17:13:51.15</time>
<name>8213</name>
<sym>Dot</sym>
</trkpt>
<trkpt lat="49.000245" lon="20.073843">
<ele>907.5</ele>
<desc>Speed 24.5 km/h Distance 28.72 km</desc>
<time>2013-07-23T17:13:52.15</time>
<name>8214</name>
<sym>Dot</sym>
</trkpt>
<trkpt lat="49.000298" lon="20.073788">
<ele>907.5</ele>
<desc>Speed 24.6 km/h Distance 28.73 km</desc>
<time>2013-07-23T17:13:53.15</time>
<name>8215</name>
<sym>Dot</sym>
</trkpt>
<trkpt lat="49.000352" lon="20.073725">
<ele>907.5</ele>
<desc>Speed 22.4 km/h Distance 28.73 km</desc>
<time>2013-07-23T17:13:54.13</time>
<name>8216</name>
<sym>Dot</sym>
</trkpt>
<trkpt lat="49.000402" lon="20.073677">
<ele>907.0</ele>
<desc>Speed 19.3 km/h Distance 28.74 km</desc>
<time>2013-07-23T17:13:55.13</time>
<name>8217</name>
<sym>Dot</sym>
</trkpt>
<trkpt lat="49.000503" lon="20.073553">
<ele>905.0</ele>
<desc>Speed 20.7 km/h Distance 28.75 km</desc>
<time>2013-07-23T17:13:57.13</time>
<name>8218</name>
<sym>Dot</sym>
</trkpt>
<trkpt lat="49.000593" lon="20.073420">
<ele>904.0</ele>
<desc>Speed 20.4 km/h Distance 28.77 km</desc>
<time>2013-07-23T17:13:59.13</time>
<name>8219</name>
<sym>Dot</sym>
</trkpt>
<trkpt lat="49.000633" lon="20.073375">
<ele>904.0</ele>
<desc>Speed 17.7 km/h Distance 28.77 km</desc>
<time>2013-07-23T17:14:00.12</time>
<name>8220</name>
<sym>Dot</sym>
</trkpt>
<trkpt lat="49.000662" lon="20.073293">
<ele>903.5</ele>
<desc>Speed 19.7 km/h Distance 28.78 km</desc>
<time>2013-07-23T17:14:01.12</time>
<name>8221</name>
<sym>Dot</sym>
</trkpt>
<trkpt lat="49.000693" lon="20.073208">
<ele>902.5</ele>
<desc>Speed 19.3 km/h Distance 28.79 km</desc>
<time>2013-07-23T17:14:02.12</time>
<name>8222</name>
<sym>Dot</sym>
</trkpt>
<trkpt lat="49.000723" lon="20.073163">
<ele>902.0</ele>
<desc>Speed 19.3 km/h Distance 28.79 km</desc>
<time>2013-07-23T17:14:03.11</time>
<name>8223</name>
<sym>Dot</sym>
</trkpt>
<trkpt lat="49.000752" lon="20.073118">
<ele>902.0</ele>
<desc>Speed 14.8 km/h Distance 28.80 km</desc>
<time>2013-07-23T17:14:04.12</time>
<name>8224</name>
<sym>Dot</sym>
</trkpt>
<trkpt lat="49.000780" lon="20.073057">
<ele>901.0</ele>
<desc>Speed 16.5 km/h Distance 28.80 km</desc>
<time>2013-07-23T17:14:05.10</time>
<name>8225</name>
<sym>Dot</sym>
</trkpt>
<trkpt lat="49.000842" lon="20.072955">
<ele>900.5</ele>
<desc>Speed 24.7 km/h Distance 28.81 km</desc>
<time>2013-07-23T17:14:07.10</time>
<name>8226</name>
<sym>Dot</sym>
</trkpt>
<trkpt lat="49.000915" lon="20.072837">
<ele>898.5</ele>
<desc>Speed 19.4 km/h Distance 28.82 km</desc>
<time>2013-07-23T17:14:09.10</time>
<name>8227</name>
<sym>Dot</sym>
</trkpt>
<trkpt lat="49.000940" lon="20.072748">
<ele>898.0</ele>
<desc>Speed 16.4 km/h Distance 28.83 km</desc>
<time>2013-07-23T17:14:10.09</time>
<name>8228</name>
<sym>Dot</sym>
</trkpt>
<trkpt lat="49.001052" lon="20.072672">
<ele>899.0</ele>
<desc>Speed 18.5 km/h Distance 28.85 km</desc>
<time>2013-07-23T17:14:12.09</time>
<name>8229</name>
<sym>Dot</sym>
</trkpt>
<trkpt lat="49.001078" lon="20.072628">
<ele>900.0</ele>
<desc>Speed 16.8 km/h Distance 28.85 km</desc>
<time>2013-07-23T17:14:13.08</time>
<name>8230</name>
<sym>Dot</sym>
</trkpt>
<trkpt lat="49.001098" lon="20.072573">
<ele>900.0</ele>
<desc>Speed 17.4 km/h Distance 28.85 km</desc>
<time>2013-07-23T17:14:14.08</time>
<name>8231</name>
<sym>Dot</sym>
</trkpt>
<trkpt lat="49.001113" lon="20.072508">
<ele>900.0</ele>
<desc>Speed 17.2 km/h Distance 28.86 km</desc>
<time>2013-07-23T17:14:15.08</time>
<name>8232</name>
<sym>Dot</sym>
</trkpt>
<trkpt lat="49.001133" lon="20.072445">
<ele>900.0</ele>
<desc>Speed 17.6 km/h Distance 28.86 km</desc>
<time>2013-07-23T17:14:16.08</time>
<name>8233</name>
<sym>Dot</sym>
</trkpt>
<trkpt lat="49.001158" lon="20.072385">
<ele>900.0</ele>
<desc>Speed 17.4 km/h Distance 28.87 km</desc>
<time>2013-07-23T17:14:17.07</time>
<name>8234</name>
<sym>Dot</sym>
</trkpt>
<trkpt lat="49.001178" lon="20.072330">
<ele>899.5</ele>
<desc>Speed 15.6 km/h Distance 28.87 km</desc>
<time>2013-07-23T17:14:18.06</time>
<name>8235</name>
<sym>Dot</sym>
</trkpt>
<trkpt lat="49.001187" lon="20.072260">
<ele>900.0</ele>
<desc>Speed 17.7 km/h Distance 28.88 km</desc>
<time>2013-07-23T17:14:19.06</time>
<name>8236</name>
<sym>Dot</sym>
</trkpt>
<trkpt lat="49.001210" lon="20.072197">
<ele>900.0</ele>
<desc>Speed 17.6 km/h Distance 28.88 km</desc>
<time>2013-07-23T17:14:20.05</time>
<name>8237</name>
<sym>Dot</sym>
</trkpt>
<trkpt lat="49.001235" lon="20.072128">
<ele>900.0</ele>
<desc>Speed 19.7 km/h Distance 28.89 km</desc>
<time>2013-07-23T17:14:21.05</time>
<name>8238</name>
<sym>Dot</sym>
</trkpt>
<trkpt lat="49.001363" lon="20.072147">
<ele>902.5</ele>
<desc>Speed 18.4 km/h Distance 28.90 km</desc>
<time>2013-07-23T17:14:23.05</time>
<name>8239</name>
<sym>Dot</sym>
</trkpt>
<trkpt lat="49.001377" lon="20.072057">
<ele>902.0</ele>
<desc>Speed 18.4 km/h Distance 28.91 km</desc>
<time>2013-07-23T17:14:24.04</time>
<name>8240</name>
<sym>Dot</sym>
</trkpt>
<trkpt lat="49.001397" lon="20.071992">
<ele>902.0</ele>
<desc>Speed 17.3 km/h Distance 28.92 km</desc>
<time>2013-07-23T17:14:25.04</time>
<name>8241</name>
<sym>Dot</sym>
</trkpt>
<trkpt lat="49.001412" lon="20.071943">
<ele>901.5</ele>
<desc>Speed 12.8 km/h Distance 28.92 km</desc>
<time>2013-07-23T17:14:26.04</time>
<name>8242</name>
<sym>Dot</sym>
</trkpt>
<trkpt lat="49.001452" lon="20.071982">
<ele>902.5</ele>
<desc>Speed 12.8 km/h Distance 28.93 km</desc>
<time>2013-07-23T17:14:27.03</time>
<name>8243</name>
<sym>Dot</sym>
</trkpt>
<trkpt lat="49.001477" lon="20.071965">
<ele>903.5</ele>
<desc>Speed 12.8 km/h Distance 28.93 km</desc>
<time>2013-07-23T17:14:28.03</time>
<name>8244</name>
<sym>Dot</sym>
</trkpt>
<trkpt lat="49.001477" lon="20.071925">
<ele>904.5</ele>
<desc>Speed 12.8 km/h Distance 28.93 km</desc>
<time>2013-07-23T17:14:29.03</time>
<name>8245</name>
<sym>Dot</sym>
</trkpt>
<trkpt lat="49.001467" lon="20.071867">
<ele>905.5</ele>
<desc>Speed 12.8 km/h Distance 28.94 km</desc>
<time>2013-07-23T17:14:30.03</time>
<name>8246</name>
<sym>Dot</sym>
</trkpt>
<trkpt lat="49.001480" lon="20.071800">
<ele>906.0</ele>
<desc>Speed 8.2 km/h Distance 28.94 km</desc>
<time>2013-07-23T17:14:31.02</time>
<name>8247</name>
<sym>Dot</sym>
</trkpt>
<trkpt lat="49.001557" lon="20.071692">
<ele>908.5</ele>
<desc>Speed 17.1 km/h Distance 28.95 km</desc>
<time>2013-07-23T17:14:33.01</time>
<name>8248</name>
<sym>Dot</sym>
</trkpt>
<trkpt lat="49.001612" lon="20.071547">
<ele>908.5</ele>
<desc>Speed 18.9 km/h Distance 28.97 km</desc>
<time>2013-07-23T17:14:35.01</time>
<name>8249</name>
<sym>Dot</sym>
</trkpt>
<trkpt lat="49.001637" lon="20.071463">
<ele>908.0</ele>
<desc>Speed 15.8 km/h Distance 28.97 km</desc>
<time>2013-07-23T17:14:36.00</time>
<name>8250</name>
<sym>Dot</sym>
</trkpt>
<trkpt lat="49.001682" lon="20.071478">
<ele>909.0</ele>
<desc>Speed 19.2 km/h Distance 28.98 km</desc>
<time>2013-07-23T17:14:36.99</time>
<name>8251</name>
<sym>Dot</sym>
</trkpt>
<trkpt lat="49.001703" lon="20.071400">
<ele>909.0</ele>
<desc>Speed 17.2 km/h Distance 28.98 km</desc>
<time>2013-07-23T17:14:37.99</time>
<name>8252</name>
<sym>Dot</sym>
</trkpt>
<trkpt lat="49.001717" lon="20.071353">
<ele>908.5</ele>
<desc>Speed 13.2 km/h Distance 28.99 km</desc>
<time>2013-07-23T17:14:38.98</time>
<name>8253</name>
<sym>Dot</sym>
</trkpt>
<trkpt lat="49.001733" lon="20.071285">
<ele>908.5</ele>
<desc>Speed 17.9 km/h Distance 28.99 km</desc>
<time>2013-07-23T17:14:39.98</time>
<name>8254</name>
<sym>Dot</sym>
</trkpt>
<trkpt lat="49.001747" lon="20.071200">
<ele>908.0</ele>
<desc>Speed 19.4 km/h Distance 29.00 km</desc>
<time>2013-07-23T17:14:40.98</time>
<name>8255</name>
<sym>Dot</sym>
</trkpt>
<trkpt lat="49.001758" lon="20.071113">
<ele>907.5</ele>
<desc>Speed 18.4 km/h Distance 29.01 km</desc>
<time>2013-07-23T17:14:41.97</time>
<name>8256</name>
<sym>Dot</sym>
</trkpt>
<trkpt lat="49.001785" lon="20.071028">
<ele>907.5</ele>
<desc>Speed 19.4 km/h Distance 29.01 km</desc>
<time>2013-07-23T17:14:42.97</time>
<name>8257</name>
<sym>Dot</sym>
</trkpt>
<trkpt lat="49.001810" lon="20.070950">
<ele>907.0</ele>
<desc>Speed 18.0 km/h Distance 29.02 km</desc>
<time>2013-07-23T17:14:43.97</time>
<name>8258</name>
<sym>Dot</sym>
</trkpt>
<trkpt lat="49.001835" lon="20.070868">
<ele>907.0</ele>
<desc>Speed 17.5 km/h Distance 29.02 km</desc>
<time>2013-07-23T17:14:44.96</time>
<name>8259</name>
<sym>Dot</sym>
</trkpt>
<trkpt lat="49.001893" lon="20.070703">
<ele>906.5</ele>
<desc>Speed 18.6 km/h Distance 29.04 km</desc>
<time>2013-07-23T17:14:46.96</time>
<name>8260</name>
<sym>Dot</sym>
</trkpt>
<trkpt lat="49.001920" lon="20.070627">
<ele>906.0</ele>
<desc>Speed 19.2 km/h Distance 29.04 km</desc>
<time>2013-07-23T17:14:47.95</time>
<name>8261</name>
<sym>Dot</sym>
</trkpt>
<trkpt lat="49.002005" lon="20.070507">
<ele>905.5</ele>
<desc>Speed 14.3 km/h Distance 29.06 km</desc>
<time>2013-07-23T17:14:49.94</time>
<name>8262</name>
<sym>Dot</sym>
</trkpt>
<trkpt lat="49.002013" lon="20.070465">
<ele>905.5</ele>
<desc>Speed 16.3 km/h Distance 29.06 km</desc>
<time>2013-07-23T17:14:50.94</time>
<name>8263</name>
<sym>Dot</sym>
</trkpt>
<trkpt lat="49.002138" lon="20.070378">
<ele>905.0</ele>
<desc>Speed 20.3 km/h Distance 29.08 km</desc>
<time>2013-07-23T17:14:52.94</time>
<name>8264</name>
<sym>Dot</sym>
</trkpt>
<trkpt lat="49.002197" lon="20.070143">
<ele>904.5</ele>
<desc>Speed 15.2 km/h Distance 29.09 km</desc>
<time>2013-07-23T17:14:54.93</time>
<name>8265</name>
<sym>Dot</sym>
</trkpt>
<trkpt lat="49.002268" lon="20.069825">
<ele>904.0</ele>
<desc>Speed 20.4 km/h Distance 29.12 km</desc>
<time>2013-07-23T17:14:58.21</time>
<name>8266</name>
<sym>Dot</sym>
</trkpt>
<trkpt lat="49.002282" lon="20.069728">
<ele>904.0</ele>
<desc>Speed 17.6 km/h Distance 29.13 km</desc>
<time>2013-07-23T17:14:59.20</time>
<name>8267</name>
<sym>Dot</sym>
</trkpt>
<trkpt lat="49.002327" lon="20.069562">
<ele>903.5</ele>
<desc>Speed 17.6 km/h Distance 29.14 km</desc>
<time>2013-07-23T17:15:01.20</time>
<name>8268</name>
<sym>Dot</sym>
</trkpt>
<trkpt lat="49.002358" lon="20.069490">
<ele>903.5</ele>
<desc>Speed 18.3 km/h Distance 29.15 km</desc>
<time>2013-07-23T17:15:02.19</time>
<name>8269</name>
<sym>Dot</sym>
</trkpt>
<trkpt lat="49.002368" lon="20.069400">
<ele>903.5</ele>
<desc>Speed 19.3 km/h Distance 29.15 km</desc>
<time>2013-07-23T17:15:03.19</time>
<name>8270</name>
<sym>Dot</sym>
</trkpt>
<trkpt lat="49.002353" lon="20.069193">
<ele>903.5</ele>
<desc>Speed 20.4 km/h Distance 29.17 km</desc>
<time>2013-07-23T17:15:05.19</time>
<name>8271</name>
<sym>Dot</sym>
</trkpt>
<trkpt lat="49.002350" lon="20.069107">
<ele>903.0</ele>
<desc>Speed 20.1 km/h Distance 29.17 km</desc>
<time>2013-07-23T17:15:06.19</time>
<name>8272</name>
<sym>Dot</sym>
</trkpt>
<trkpt lat="49.002342" lon="20.069012">
<ele>903.0</ele>
<desc>Speed 20.7 km/h Distance 29.18 km</desc>
<time>2013-07-23T17:15:07.19</time>
<name>8273</name>
<sym>Dot</sym>
</trkpt>
<trkpt lat="49.002295" lon="20.068802">
<ele>903.0</ele>
<desc>Speed 22.3 km/h Distance 29.20 km</desc>
<time>2013-07-23T17:15:09.18</time>
<name>8274</name>
<sym>Dot</sym>
</trkpt>
<trkpt lat="49.002293" lon="20.068707">
<ele>903.0</ele>
<desc>Speed 21.4 km/h Distance 29.20 km</desc>
<time>2013-07-23T17:15:10.17</time>
<name>8275</name>
<sym>Dot</sym>
</trkpt>
<trkpt lat="49.002312" lon="20.068620">
<ele>903.0</ele>
<desc>Speed 19.9 km/h Distance 29.21 km</desc>
<time>2013-07-23T17:15:11.17</time>
<name>8276</name>
<sym>Dot</sym>
</trkpt>
<trkpt lat="49.002338" lon="20.068557">
<ele>903.0</ele>
<desc>Speed 20.1 km/h Distance 29.22 km</desc>
<time>2013-07-23T17:15:12.16</time>
<name>8277</name>
<sym>Dot</sym>
</trkpt>
<trkpt lat="49.002343" lon="20.068478">
<ele>903.0</ele>
<desc>Speed 19.4 km/h Distance 29.22 km</desc>
<time>2013-07-23T17:15:13.16</time>
<name>8278</name>
<sym>Dot</sym>
</trkpt>
<trkpt lat="49.002348" lon="20.068400">
<ele>903.0</ele>
<desc>Speed 19.4 km/h Distance 29.23 km</desc>
<time>2013-07-23T17:15:14.15</time>
<name>8279</name>
<sym>Dot</sym>
</trkpt>
<trkpt lat="49.002315" lon="20.068333">
<ele>903.0</ele>
<desc>Speed 16.0 km/h Distance 29.23 km</desc>
<time>2013-07-23T17:15:15.15</time>
<name>8280</name>
<sym>Dot</sym>
</trkpt>
<trkpt lat="49.002297" lon="20.068282">
<ele>903.0</ele>
<desc>Speed 16.0 km/h Distance 29.24 km</desc>
<time>2013-07-23T17:15:16.15</time>
<name>8281</name>
<sym>Dot</sym>
</trkpt>
<trkpt lat="49.002307" lon="20.068220">
<ele>903.0</ele>
<desc>Speed 15.2 km/h Distance 29.24 km</desc>
<time>2013-07-23T17:15:17.14</time>
<name>8282</name>
<sym>Dot</sym>
</trkpt>
<trkpt lat="49.002275" lon="20.068017">
<ele>903.0</ele>
<desc>Speed 20.1 km/h Distance 29.26 km</desc>
<time>2013-07-23T17:15:19.14</time>
<name>8283</name>
<sym>Dot</sym>
</trkpt>
<trkpt lat="49.002275" lon="20.067953">
<ele>903.0</ele>
<desc>Speed 20.1 km/h Distance 29.26 km</desc>
<time>2013-07-23T17:15:20.13</time>
<name>8284</name>
<sym>Dot</sym>
</trkpt>
<trkpt lat="49.002298" lon="20.067878">
<ele>903.0</ele>
<desc>Speed 19.7 km/h Distance 29.27 km</desc>
<time>2013-07-23T17:15:21.13</time>
<name>8285</name>
<sym>Dot</sym>
</trkpt>
<trkpt lat="49.002310" lon="20.067797">
<ele>903.0</ele>
<desc>Speed 18.9 km/h Distance 29.27 km</desc>
<time>2013-07-23T17:15:22.13</time>
<name>8286</name>
<sym>Dot</sym>
</trkpt>
<trkpt lat="49.002290" lon="20.067723">
<ele>902.5</ele>
<desc>Speed 14.9 km/h Distance 29.28 km</desc>
<time>2013-07-23T17:15:23.18</time>
<name>8287</name>
<sym>Dot</sym>
</trkpt>
<trkpt lat="49.002303" lon="20.067652">
<ele>902.5</ele>
<desc>Speed 19.3 km/h Distance 29.29 km</desc>
<time>2013-07-23T17:15:24.11</time>
<name>8288</name>
<sym>Dot</sym>
</trkpt>
<trkpt lat="49.002325" lon="20.067578">
<ele>902.5</ele>
<desc>Speed 19.6 km/h Distance 29.29 km</desc>
<time>2013-07-23T17:15:25.11</time>
<name>8289</name>
<sym>Dot</sym>
</trkpt>
<trkpt lat="49.002333" lon="20.067518">
<ele>902.5</ele>
<desc>Speed 19.6 km/h Distance 29.30 km</desc>
<time>2013-07-23T17:15:26.11</time>
<name>8290</name>
<sym>Dot</sym>
</trkpt>
<trkpt lat="49.002297" lon="20.067433">
<ele>902.5</ele>
<desc>Speed 10.9 km/h Distance 29.30 km</desc>
<time>2013-07-23T17:15:28.10</time>
<name>8291</name>
<sym>Dot</sym>
</trkpt>
<trkpt lat="49.002300" lon="20.067405">
<ele>902.5</ele>
<desc>Speed 10.9 km/h Distance 29.31 km</desc>
<time>2013-07-23T17:15:29.09</time>
<name>8292</name>
<sym>Dot</sym>
</trkpt>
<trkpt lat="49.002320" lon="20.067260">
<ele>903.5</ele>
<desc>Speed 16.0 km/h Distance 29.32 km</desc>
<time>2013-07-23T17:15:31.09</time>
<name>8293</name>
<sym>Dot</sym>
</trkpt>
<trkpt lat="49.002335" lon="20.067107">
<ele>903.0</ele>
<desc>Speed 12.6 km/h Distance 29.33 km</desc>
<time>2013-07-23T17:15:33.08</time>
<name>8294</name>
<sym>Dot</sym>
</trkpt>
<trkpt lat="49.002350" lon="20.066942">
<ele>903.5</ele>
<desc>Speed 18.8 km/h Distance 29.34 km</desc>
<time>2013-07-23T17:15:35.08</time>
<name>8295</name>
<sym>Dot</sym>
</trkpt>
<trkpt lat="49.002345" lon="20.066852">
<ele>903.5</ele>
<desc>Speed 20.2 km/h Distance 29.35 km</desc>
<time>2013-07-23T17:15:36.07</time>
<name>8296</name>
<sym>Dot</sym>
</trkpt>
<trkpt lat="49.002355" lon="20.066650">
<ele>903.5</ele>
<desc>Speed 20.6 km/h Distance 29.36 km</desc>
<time>2013-07-23T17:15:38.07</time>
<name>8297</name>
<sym>Dot</sym>
</trkpt>
<trkpt lat="49.002378" lon="20.066562">
<ele>903.5</ele>
<desc>Speed 19.4 km/h Distance 29.37 km</desc>
<time>2013-07-23T17:15:39.06</time>
<name>8298</name>
<sym>Dot</sym>
</trkpt>
<trkpt lat="49.002382" lon="20.066505">
<ele>903.5</ele>
<desc>Speed 13.4 km/h Distance 29.37 km</desc>
<time>2013-07-23T17:15:40.08</time>
<name>8299</name>
<sym>Dot</sym>
</trkpt>
<trkpt lat="49.002388" lon="20.066453">
<ele>904.0</ele>
<desc>Speed 13.4 km/h Distance 29.38 km</desc>
<time>2013-07-23T17:15:41.05</time>
<name>8300</name>
<sym>Dot</sym>
</trkpt>
<trkpt lat="49.002425" lon="20.066263">
<ele>904.5</ele>
<desc>Speed 20.6 km/h Distance 29.39 km</desc>
<time>2013-07-23T17:15:43.04</time>
<name>8301</name>
<sym>Dot</sym>
</trkpt>
<trkpt lat="49.002443" lon="20.066192">
<ele>905.0</ele>
<desc>Speed 20.6 km/h Distance 29.40 km</desc>
<time>2013-07-23T17:15:44.04</time>
<name>8302</name>
<sym>Dot</sym>
</trkpt>
<trkpt lat="49.002455" lon="20.066130">
<ele>905.5</ele>
<desc>Speed 20.6 km/h Distance 29.40 km</desc>
<time>2013-07-23T17:15:45.04</time>
<name>8303</name>
<sym>Dot</sym>
</trkpt>
<trkpt lat="49.002498" lon="20.066110">
<ele>908.5</ele>
<desc>Speed 20.6 km/h Distance 29.41 km</desc>
<time>2013-07-23T17:15:46.04</time>
<name>8304</name>
<sym>Dot</sym>
</trkpt>
<trkpt lat="49.002550" lon="20.066027">
<ele>911.0</ele>
<desc>Speed 17.9 km/h Distance 29.41 km</desc>
<time>2013-07-23T17:15:48.03</time>
<name>8305</name>
<sym>Dot</sym>
</trkpt>
<trkpt lat="49.002643" lon="20.065880">
<ele>913.5</ele>
<desc>Speed 10.8 km/h Distance 29.43 km</desc>
<time>2013-07-23T17:15:50.03</time>
<name>8306</name>
<sym>Dot</sym>
</trkpt>
<trkpt lat="49.002715" lon="20.065748">
<ele>915.0</ele>
<desc>Speed 21.5 km/h Distance 29.44 km</desc>
<time>2013-07-23T17:15:52.03</time>
<name>8307</name>
<sym>Dot</sym>
</trkpt>
<trkpt lat="49.002753" lon="20.065680">
<ele>915.5</ele>
<desc>Speed 18.5 km/h Distance 29.45 km</desc>
<time>2013-07-23T17:15:53.02</time>
<name>8308</name>
<sym>Dot</sym>
</trkpt>
<trkpt lat="49.002713" lon="20.065635">
<ele>910.5</ele>
<desc>Speed 12.2 km/h Distance 29.45 km</desc>
<time>2013-07-23T17:15:54.02</time>
<name>8309</name>
<sym>Dot</sym>
</trkpt>
<trkpt lat="49.002777" lon="20.065480">
<ele>908.5</ele>
<desc>Speed 20.3 km/h Distance 29.47 km</desc>
<time>2013-07-23T17:15:56.01</time>
<name>8310</name>
<sym>Dot</sym>
</trkpt>
<trkpt lat="49.002797" lon="20.065398">
<ele>906.5</ele>
<desc>Speed 22.7 km/h Distance 29.47 km</desc>
<time>2013-07-23T17:15:57.00</time>
<name>8311</name>
<sym>Dot</sym>
</trkpt>
<trkpt lat="49.002857" lon="20.065262">
<ele>903.5</ele>
<desc>Speed 22.4 km/h Distance 29.49 km</desc>
<time>2013-07-23T17:15:58.99</time>
<name>8312</name>
<sym>Dot</sym>
</trkpt>
<trkpt lat="49.002862" lon="20.065187">
<ele>904.5</ele>
<desc>Speed 20.7 km/h Distance 29.49 km</desc>
<time>2013-07-23T17:15:59.99</time>
<name>8313</name>
<sym>Dot</sym>
</trkpt>
<trkpt lat="49.002938" lon="20.064968">
<ele>901.5</ele>
<desc>Speed 17.1 km/h Distance 29.51 km</desc>
<time>2013-07-23T17:16:01.99</time>
<name>8314</name>
<sym>Dot</sym>
</trkpt>
<trkpt lat="49.002965" lon="20.064888">
<ele>901.5</ele>
<desc>Speed 17.1 km/h Distance 29.52 km</desc>
<time>2013-07-23T17:16:02.98</time>
<name>8315</name>
<sym>Dot</sym>
</trkpt>
<trkpt lat="49.003072" lon="20.064800">
<ele>902.5</ele>
<desc>Speed 18.4 km/h Distance 29.53 km</desc>
<time>2013-07-23T17:16:04.98</time>
<name>8316</name>
<sym>Dot</sym>
</trkpt>
<trkpt lat="49.003092" lon="20.064740">
<ele>900.5</ele>
<desc>Speed 23.4 km/h Distance 29.53 km</desc>
<time>2013-07-23T17:16:05.97</time>
<name>8317</name>
<sym>Dot</sym>
</trkpt>
<trkpt lat="49.003115" lon="20.064687">
<ele>899.0</ele>
<desc>Speed 23.4 km/h Distance 29.54 km</desc>
<time>2013-07-23T17:16:06.97</time>
<name>8318</name>
<sym>Dot</sym>
</trkpt>
<trkpt lat="49.003165" lon="20.064635">
<ele>894.5</ele>
<desc>Speed 23.4 km/h Distance 29.55 km</desc>
<time>2013-07-23T17:16:08.97</time>
<name>8319</name>
<sym>Dot</sym>
</trkpt>
<trkpt lat="49.003202" lon="20.064580">
<ele>894.0</ele>
<desc>Speed 23.4 km/h Distance 29.55 km</desc>
<time>2013-07-23T17:16:10.96</time>
<name>8320</name>
<sym>Dot</sym>
</trkpt>
<trkpt lat="49.003238" lon="20.064530">
<ele>894.0</ele>
<desc>Speed 23.4 km/h Distance 29.56 km</desc>
<time>2013-07-23T17:16:12.96</time>
<name>8321</name>
<sym>Dot</sym>
</trkpt>
<trkpt lat="49.003300" lon="20.064430">
<ele>894.0</ele>
<desc>Speed 19.4 km/h Distance 29.57 km</desc>
<time>2013-07-23T17:16:16.21</time>
<name>8322</name>
<sym>Dot</sym>
</trkpt>
<trkpt lat="49.003340" lon="20.064392">
<ele>894.0</ele>
<desc>Speed 19.4 km/h Distance 29.57 km</desc>
<time>2013-07-23T17:16:17.20</time>
<name>8323</name>
<sym>Dot</sym>
</trkpt>
<trkpt lat="49.003555" lon="20.064203">
<ele>899.5</ele>
<desc>Speed 19.4 km/h Distance 29.60 km</desc>
<time>2013-07-23T17:16:20.21</time>
<name>8324</name>
<sym>Dot</sym>
</trkpt>
<trkpt lat="49.003613" lon="20.064142">
<ele>901.0</ele>
<desc>Speed 19.4 km/h Distance 29.61 km</desc>
<time>2013-07-23T17:16:22.22</time>
<name>8325</name>
<sym>Dot</sym>
</trkpt>
<trkpt lat="49.003782" lon="20.063890">
<ele>905.5</ele>
<desc>Speed 21.5 km/h Distance 29.63 km</desc>
<time>2013-07-23T17:16:25.21</time>
<name>8326</name>
<sym>Dot</sym>
</trkpt>
<trkpt lat="49.003897" lon="20.063752">
<ele>903.5</ele>
<desc>Speed 15.6 km/h Distance 29.65 km</desc>
<time>2013-07-23T17:16:27.20</time>
<name>8327</name>
<sym>Dot</sym>
</trkpt>
<trkpt lat="49.003927" lon="20.063700">
<ele>902.5</ele>
<desc>Speed 15.6 km/h Distance 29.66 km</desc>
<time>2013-07-23T17:16:28.20</time>
<name>8328</name>
<sym>Dot</sym>
</trkpt>
<trkpt lat="49.003962" lon="20.063653">
<ele>901.0</ele>
<desc>Speed 15.6 km/h Distance 29.66 km</desc>
<time>2013-07-23T17:16:29.19</time>
<name>8329</name>
<sym>Dot</sym>
</trkpt>
<trkpt lat="49.003982" lon="20.063633">
<ele>900.5</ele>
<desc>Speed 15.6 km/h Distance 29.66 km</desc>
<time>2013-07-23T17:16:30.19</time>
<name>8330</name>
<sym>Dot</sym>
</trkpt>
<trkpt lat="49.004012" lon="20.063590">
<ele>899.5</ele>
<desc>Speed 14.7 km/h Distance 29.67 km</desc>
<time>2013-07-23T17:16:31.19</time>
<name>8331</name>
<sym>Dot</sym>
</trkpt>
<trkpt lat="49.004038" lon="20.063558">
<ele>898.5</ele>
<desc>Speed 14.7 km/h Distance 29.67 km</desc>
<time>2013-07-23T17:16:32.24</time>
<name>8332</name>
<sym>Dot</sym>
</trkpt>
<trkpt lat="49.004075" lon="20.063418">
<ele>898.5</ele>
<desc>Speed 17.0 km/h Distance 29.68 km</desc>
<time>2013-07-23T17:16:34.18</time>
<name>8333</name>
<sym>Dot</sym>
</trkpt>
<trkpt lat="49.004095" lon="20.063340">
<ele>899.0</ele>
<desc>Speed 16.4 km/h Distance 29.69 km</desc>
<time>2013-07-23T17:16:35.18</time>
<name>8334</name>
<sym>Dot</sym>
</trkpt>
<trkpt lat="49.004117" lon="20.063268">
<ele>898.5</ele>
<desc>Speed 16.1 km/h Distance 29.69 km</desc>
<time>2013-07-23T17:16:36.17</time>
<name>8335</name>
<sym>Dot</sym>
</trkpt>
<trkpt lat="49.004147" lon="20.063197">
<ele>898.5</ele>
<desc>Speed 14.3 km/h Distance 29.70 km</desc>
<time>2013-07-23T17:16:37.17</time>
<name>8336</name>
<sym>Dot</sym>
</trkpt>
<trkpt lat="49.004167" lon="20.062993">
<ele>898.5</ele>
<desc>Speed 18.5 km/h Distance 29.72 km</desc>
<time>2013-07-23T17:16:39.16</time>
<name>8337</name>
<sym>Dot</sym>
</trkpt>
<trkpt lat="49.004172" lon="20.062940">
<ele>897.0</ele>
<desc>Speed 12.6 km/h Distance 29.72 km</desc>
<time>2013-07-23T17:16:40.16</time>
<name>8338</name>
<sym>Dot</sym>
</trkpt>
<trkpt lat="49.004313" lon="20.062500">
<ele>888.5</ele>
<desc>Speed 11.4 km/h Distance 29.76 km</desc>
<time>2013-07-23T17:16:44.21</time>
<name>8339</name>
<sym>Dot</sym>
</trkpt>
<trkpt lat="49.004358" lon="20.062322">
<ele>888.0</ele>
<desc>Speed 17.7 km/h Distance 29.77 km</desc>
<time>2013-07-23T17:16:46.20</time>
<name>8340</name>
<sym>Dot</sym>
</trkpt>
<trkpt lat="49.004532" lon="20.061762">
<ele>887.5</ele>
<desc>Speed 24.8 km/h Distance 29.81 km</desc>
<time>2013-07-23T17:16:50.21</time>
<name>8341</name>
<sym>Dot</sym>
</trkpt>
<trkpt lat="49.004590" lon="20.061547">
<ele>884.5</ele>
<desc>Speed 20.1 km/h Distance 29.83 km</desc>
<time>2013-07-23T17:16:52.20</time>
<name>8342</name>
<sym>Dot</sym>
</trkpt>
<trkpt lat="49.004610" lon="20.061478">
<ele>884.0</ele>
<desc>Speed 20.1 km/h Distance 29.84 km</desc>
<time>2013-07-23T17:16:53.20</time>
<name>8343</name>
<sym>Dot</sym>
</trkpt>
<trkpt lat="49.004622" lon="20.061370">
<ele>884.5</ele>
<desc>Speed 6.5 km/h Distance 29.85 km</desc>
<time>2013-07-23T17:16:55.20</time>
<name>8344</name>
<sym>Dot</sym>
</trkpt>
<trkpt lat="49.004905" lon="20.061257">
<ele>895.5</ele>
<desc>Speed 29.9 km/h Distance 29.88 km</desc>
<time>2013-07-23T17:16:59.21</time>
<name>8345</name>
<sym>Dot</sym>
</trkpt>
<trkpt lat="49.004978" lon="20.061212">
<ele>896.5</ele>
<desc>Speed 27.3 km/h Distance 29.89 km</desc>
<time>2013-07-23T17:17:00.21</time>
<name>8346</name>
<sym>Dot</sym>
</trkpt>
<trkpt lat="49.005047" lon="20.061158">
<ele>896.5</ele>
<desc>Speed 27.3 km/h Distance 29.90 km</desc>
<time>2013-07-23T17:17:01.20</time>
<name>8347</name>
<sym>Dot</sym>
</trkpt>
<trkpt lat="49.005098" lon="20.061102">
<ele>896.5</ele>
<desc>Speed 27.3 km/h Distance 29.90 km</desc>
<time>2013-07-23T17:17:02.20</time>
<name>8348</name>
<sym>Dot</sym>
</trkpt>
<trkpt lat="49.005168" lon="20.061062">
<ele>898.0</ele>
<desc>Speed 14.4 km/h Distance 29.91 km</desc>
<time>2013-07-23T17:17:04.19</time>
<name>8349</name>
<sym>Dot</sym>
</trkpt>
<trkpt lat="49.005202" lon="20.061055">
<ele>899.5</ele>
<desc>Speed 14.4 km/h Distance 29.91 km</desc>
<time>2013-07-23T17:17:05.19</time>
<name>8350</name>
<sym>Dot</sym>
</trkpt>
<trkpt lat="49.005242" lon="20.061063">
<ele>900.0</ele>
<desc>Speed 16.2 km/h Distance 29.92 km</desc>
<time>2013-07-23T17:17:06.18</time>
<name>8351</name>
<sym>Dot</sym>
</trkpt>
<trkpt lat="49.005275" lon="20.061070">
<ele>900.0</ele>
<desc>Speed 16.2 km/h Distance 29.92 km</desc>
<time>2013-07-23T17:17:07.18</time>
<name>8352</name>
<sym>Dot</sym>
</trkpt>
<trkpt lat="49.005327" lon="20.061072">
<ele>900.5</ele>
<desc>Speed 19.6 km/h Distance 29.93 km</desc>
<time>2013-07-23T17:17:08.18</time>
<name>8353</name>
<sym>Dot</sym>
</trkpt>
<trkpt lat="49.005370" lon="20.061073">
<ele>901.0</ele>
<desc>Speed 19.6 km/h Distance 29.93 km</desc>
<time>2013-07-23T17:17:09.17</time>
<name>8354</name>
<sym>Dot</sym>
</trkpt>
<trkpt lat="49.005427" lon="20.061090">
<ele>901.5</ele>
<desc>Speed 21.0 km/h Distance 29.94 km</desc>
<time>2013-07-23T17:17:10.26</time>
<name>8355</name>
<sym>Dot</sym>
</trkpt>
<trkpt lat="49.005468" lon="20.061102">
<ele>902.0</ele>
<desc>Speed 21.0 km/h Distance 29.94 km</desc>
<time>2013-07-23T17:17:11.16</time>
<name>8356</name>
<sym>Dot</sym>
</trkpt>
<trkpt lat="49.005525" lon="20.061110">
<ele>902.0</ele>
<desc>Speed 21.0 km/h Distance 29.95 km</desc>
<time>2013-07-23T17:17:13.16</time>
<name>8357</name>
<sym>Dot</sym>
</trkpt>
<trkpt lat="49.005633" lon="20.061193">
<ele>903.0</ele>
<desc>Speed 27.8 km/h Distance 29.96 km</desc>
<time>2013-07-23T17:17:15.16</time>
<name>8358</name>
<sym>Dot</sym>
</trkpt>
<trkpt lat="49.005690" lon="20.061130">
<ele>903.5</ele>
<desc>Speed 7.8 km/h Distance 29.97 km</desc>
<time>2013-07-23T17:17:18.21</time>
<name>8359</name>
<sym>Dot</sym>
</trkpt>
<trkpt lat="49.005832" lon="20.061088">
<ele>902.5</ele>
<desc>Speed 4.5 km/h Distance 29.99 km</desc>
<time>2013-07-23T17:17:21.21</time>
<name>8360</name>
<sym>Dot</sym>
</trkpt>
<trkpt lat="49.005902" lon="20.061063">
<ele>902.0</ele>
<desc>Speed 14.4 km/h Distance 30.00 km</desc>
<time>2013-07-23T17:17:23.21</time>
<name>8361</name>
<sym>Dot</sym>
</trkpt>
<trkpt lat="49.005948" lon="20.061067">
<ele>902.5</ele>
<desc>Speed 14.4 km/h Distance 30.00 km</desc>
<time>2013-07-23T17:17:24.20</time>
<name>8362</name>
<sym>Dot</sym>
</trkpt>
<trkpt lat="49.005990" lon="20.061067">
<ele>902.5</ele>
<desc>Speed 14.4 km/h Distance 30.01 km</desc>
<time>2013-07-23T17:17:25.19</time>
<name>8363</name>
<sym>Dot</sym>
</trkpt>
<trkpt lat="49.006108" lon="20.061027">
<ele>902.0</ele>
<desc>Speed 18.6 km/h Distance 30.02 km</desc>
<time>2013-07-23T17:17:27.19</time>
<name>8364</name>
<sym>Dot</sym>
</trkpt>
<trkpt lat="49.006148" lon="20.060988">
<ele>902.5</ele>
<desc>Speed 18.6 km/h Distance 30.02 km</desc>
<time>2013-07-23T17:17:28.19</time>
<name>8365</name>
<sym>Dot</sym>
</trkpt>
<trkpt lat="49.006205" lon="20.060982">
<ele>902.5</ele>
<desc>Speed 18.6 km/h Distance 30.03 km</desc>
<time>2013-07-23T17:17:29.18</time>
<name>8366</name>
<sym>Dot</sym>
</trkpt>
<trkpt lat="49.006245" lon="20.060932">
<ele>903.0</ele>
<desc>Speed 20.1 km/h Distance 30.04 km</desc>
<time>2013-07-23T17:17:30.18</time>
<name>8367</name>
<sym>Dot</sym>
</trkpt>
<trkpt lat="49.006292" lon="20.060885">
<ele>903.5</ele>
<desc>Speed 20.2 km/h Distance 30.04 km</desc>
<time>2013-07-23T17:17:31.18</time>
<name>8368</name>
<sym>Dot</sym>
</trkpt>
<trkpt lat="49.006338" lon="20.060838">
<ele>904.0</ele>
<desc>Speed 19.4 km/h Distance 30.05 km</desc>
<time>2013-07-23T17:17:32.17</time>
<name>8369</name>
<sym>Dot</sym>
</trkpt>
<trkpt lat="49.006390" lon="20.060798">
<ele>904.5</ele>
<desc>Speed 18.8 km/h Distance 30.06 km</desc>
<time>2013-07-23T17:17:33.16</time>
<name>8370</name>
<sym>Dot</sym>
</trkpt>
<trkpt lat="49.006603" lon="20.060520">
<ele>905.0</ele>
<desc>Speed 23.9 km/h Distance 30.09 km</desc>
<time>2013-07-23T17:17:36.21</time>
<name>8371</name>
<sym>Dot</sym>
</trkpt>
<trkpt lat="49.006702" lon="20.060342">
<ele>905.5</ele>
<desc>Speed 23.3 km/h Distance 30.10 km</desc>
<time>2013-07-23T17:17:38.20</time>
<name>8372</name>
<sym>Dot</sym>
</trkpt>
<trkpt lat="49.006743" lon="20.060280">
<ele>906.0</ele>
<desc>Speed 18.1 km/h Distance 30.11 km</desc>
<time>2013-07-23T17:17:39.19</time>
<name>8373</name>
<sym>Dot</sym>
</trkpt>
<trkpt lat="49.006848" lon="20.060217">
<ele>906.0</ele>
<desc>Speed 21.0 km/h Distance 30.12 km</desc>
<time>2013-07-23T17:17:41.19</time>
<name>8374</name>
<sym>Dot</sym>
</trkpt>
<trkpt lat="49.006880" lon="20.060160">
<ele>906.0</ele>
<desc>Speed 16.6 km/h Distance 30.13 km</desc>
<time>2013-07-23T17:17:42.19</time>
<name>8375</name>
<sym>Dot</sym>
</trkpt>
<trkpt lat="49.006913" lon="20.060095">
<ele>906.0</ele>
<desc>Speed 20.5 km/h Distance 30.13 km</desc>
<time>2013-07-23T17:17:43.18</time>
<name>8376</name>
<sym>Dot</sym>
</trkpt>
<trkpt lat="49.006943" lon="20.060033">
<ele>906.0</ele>
<desc>Speed 17.3 km/h Distance 30.14 km</desc>
<time>2013-07-23T17:17:44.18</time>
<name>8377</name>
<sym>Dot</sym>
</trkpt>
<trkpt lat="49.006970" lon="20.060005">
<ele>906.0</ele>
<desc>Speed 11.4 km/h Distance 30.14 km</desc>
<time>2013-07-23T17:17:45.18</time>
<name>8378</name>
<sym>Dot</sym>
</trkpt>
<trkpt lat="49.007032" lon="20.059860">
<ele>905.5</ele>
<desc>Speed 22.2 km/h Distance 30.16 km</desc>
<time>2013-07-23T17:17:47.18</time>
<name>8379</name>
<sym>Dot</sym>
</trkpt>
<trkpt lat="49.007057" lon="20.059790">
<ele>905.0</ele>
<desc>Speed 22.2 km/h Distance 30.16 km</desc>
<time>2013-07-23T17:17:48.18</time>
<name>8380</name>
<sym>Dot</sym>
</trkpt>
<trkpt lat="49.007077" lon="20.059710">
<ele>905.0</ele>
<desc>Speed 20.2 km/h Distance 30.17 km</desc>
<time>2013-07-23T17:17:49.18</time>
<name>8381</name>
<sym>Dot</sym>
</trkpt>
<trkpt lat="49.007097" lon="20.059637">
<ele>905.0</ele>
<desc>Speed 20.2 km/h Distance 30.17 km</desc>
<time>2013-07-23T17:17:50.17</time>
<name>8382</name>
<sym>Dot</sym>
</trkpt>
<trkpt lat="49.007155" lon="20.059547">
<ele>904.0</ele>
<desc>Speed 9.0 km/h Distance 30.18 km</desc>
<time>2013-07-23T17:17:52.17</time>
<name>8383</name>
<sym>Dot</sym>
</trkpt>
<trkpt lat="49.007435" lon="20.059233">
<ele>901.0</ele>
<desc>Speed 24.2 km/h Distance 30.22 km</desc>
<time>2013-07-23T17:17:56.21</time>
<name>8384</name>
<sym>Dot</sym>
</trkpt>
<trkpt lat="49.007563" lon="20.059130">
<ele>900.0</ele>
<desc>Speed 23.9 km/h Distance 30.24 km</desc>
<time>2013-07-23T17:17:58.20</time>
<name>8385</name>
<sym>Dot</sym>
</trkpt>
<trkpt lat="49.007632" lon="20.058988">
<ele>899.5</ele>
<desc>Speed 14.9 km/h Distance 30.25 km</desc>
<time>2013-07-23T17:18:00.20</time>
<name>8386</name>
<sym>Dot</sym>
</trkpt>
<trkpt lat="49.007720" lon="20.058863">
<ele>899.0</ele>
<desc>Speed 20.4 km/h Distance 30.26 km</desc>
<time>2013-07-23T17:18:02.19</time>
<name>8387</name>
<sym>Dot</sym>
</trkpt>
<trkpt lat="49.007755" lon="20.058783">
<ele>899.0</ele>
<desc>Speed 21.1 km/h Distance 30.27 km</desc>
<time>2013-07-23T17:18:03.18</time>
<name>8388</name>
<sym>Dot</sym>
</trkpt>
<trkpt lat="49.007870" lon="20.058593">
<ele>897.0</ele>
<desc>Speed 20.0 km/h Distance 30.29 km</desc>
<time>2013-07-23T17:18:05.18</time>
<name>8389</name>
<sym>Dot</sym>
</trkpt>
<trkpt lat="49.007912" lon="20.058558">
<ele>897.0</ele>
<desc>Speed 16.3 km/h Distance 30.30 km</desc>
<time>2013-07-23T17:18:06.18</time>
<name>8390</name>
<sym>Dot</sym>
</trkpt>
<trkpt lat="49.007957" lon="20.058513">
<ele>897.0</ele>
<desc>Speed 16.3 km/h Distance 30.30 km</desc>
<time>2013-07-23T17:18:07.17</time>
<name>8391</name>
<sym>Dot</sym>
</trkpt>
<trkpt lat="49.007970" lon="20.058445">
<ele>898.5</ele>
<desc>Speed 3.3 km/h Distance 30.31 km</desc>
<time>2013-07-23T17:18:15.21</time>
<name>8392</name>
<sym>Dot</sym>
</trkpt>
<trkpt lat="49.007968" lon="20.058415">
<ele>897.5</ele>
<desc>Speed 3.0 km/h Distance 30.31 km</desc>
<time>2013-07-23T17:18:16.21</time>
<name>8393</name>
<sym>Dot</sym>
</trkpt>
<trkpt lat="49.007970" lon="20.058418">
<ele>897.5</ele>
<desc>Speed 3.6 km/h Distance 30.31 km</desc>
<time>2013-07-23T17:18:17.21</time>
<name>8394</name>
<sym>Dot</sym>
</trkpt>
<trkpt lat="49.007968" lon="20.058395">
<ele>895.5</ele>
<desc>Speed 3.8 km/h Distance 30.31 km</desc>
<time>2013-07-23T17:18:20.21</time>
<name>8395</name>
<sym>Dot</sym>
</trkpt>
<trkpt lat="49.007965" lon="20.058392">
<ele>894.5</ele>
<desc>Speed 4.0 km/h Distance 30.31 km</desc>
<time>2013-07-23T17:18:21.20</time>
<name>8396</name>
<sym>Dot</sym>
</trkpt>
<trkpt lat="49.007962" lon="20.058390">
<ele>893.5</ele>
<desc>Speed 3.8 km/h Distance 30.31 km</desc>
<time>2013-07-23T17:18:22.20</time>
<name>8397</name>
<sym>Dot</sym>
</trkpt>
<trkpt lat="49.007913" lon="20.058283">
<ele>886.0</ele>
<desc>Speed 2.2 km/h Distance 30.32 km</desc>
<time>2013-07-23T17:18:42.18</time>
<name>8398</name>
<sym>Dot</sym>
</trkpt>
<trkpt lat="49.007918" lon="20.058267">
<ele>885.5</ele>
<desc>Speed 2.5 km/h Distance 30.32 km</desc>
<time>2013-07-23T17:18:43.18</time>
<name>8399</name>
<sym>Dot</sym>
</trkpt>
<trkpt lat="49.007928" lon="20.058252">
<ele>885.0</ele>
<desc>Speed 4.1 km/h Distance 30.32 km</desc>
<time>2013-07-23T17:18:44.18</time>
<name>8400</name>
<sym>Dot</sym>
</trkpt>
<trkpt lat="49.007933" lon="20.058235">
<ele>885.0</ele>
<desc>Speed 2.7 km/h Distance 30.33 km</desc>
<time>2013-07-23T17:18:45.18</time>
<name>8401</name>
<sym>Dot</sym>
</trkpt>
<trkpt lat="49.007925" lon="20.058262">
<ele>884.5</ele>
<desc>Speed 8.1 km/h Distance 30.33 km</desc>
<time>2013-07-23T17:18:46.17</time>
<name>8402</name>
<sym>Dot</sym>
</trkpt>
<trkpt lat="49.007940" lon="20.058240">
<ele>884.5</ele>
<desc>Speed 7.3 km/h Distance 30.33 km</desc>
<time>2013-07-23T17:18:47.17</time>
<name>8403</name>
<sym>Dot</sym>
</trkpt>
<trkpt lat="49.007950" lon="20.058217">
<ele>884.5</ele>
<desc>Speed 6.1 km/h Distance 30.33 km</desc>
<time>2013-07-23T17:18:48.21</time>
<name>8404</name>
<sym>Dot</sym>
</trkpt>
<trkpt lat="49.007970" lon="20.058192">
<ele>884.5</ele>
<desc>Speed 9.5 km/h Distance 30.33 km</desc>
<time>2013-07-23T17:18:49.17</time>
<name>8405</name>
<sym>Dot</sym>
</trkpt>
<trkpt lat="49.007995" lon="20.058155">
<ele>885.0</ele>
<desc>Speed 12.8 km/h Distance 30.34 km</desc>
<time>2013-07-23T17:18:50.16</time>
<name>8406</name>
<sym>Dot</sym>
</trkpt>
<trkpt lat="49.008023" lon="20.058113">
<ele>884.5</ele>
<desc>Speed 14.0 km/h Distance 30.34 km</desc>
<time>2013-07-23T17:18:52.41</time>
<name>8407</name>
<sym>Dot</sym>
</trkpt>
<trkpt lat="49.008088" lon="20.058028">
<ele>885.0</ele>
<desc>Speed 13.6 km/h Distance 30.35 km</desc>
<time>2013-07-23T17:18:53.16</time>
<name>8408</name>
<sym>Dot</sym>
</trkpt>
<trkpt lat="49.008097" lon="20.057968">
<ele>885.0</ele>
<desc>Speed 16.3 km/h Distance 30.36 km</desc>
<time>2013-07-23T17:18:54.17</time>
<name>8409</name>
<sym>Dot</sym>
</trkpt>
<trkpt lat="49.008127" lon="20.057935">
<ele>885.0</ele>
<desc>Speed 13.8 km/h Distance 30.36 km</desc>
<time>2013-07-23T17:18:55.14</time>
<name>8410</name>
<sym>Dot</sym>
</trkpt>
<trkpt lat="49.008152" lon="20.057883">
<ele>884.5</ele>
<desc>Speed 14.0 km/h Distance 30.37 km</desc>
<time>2013-07-23T17:18:56.14</time>
<name>8411</name>
<sym>Dot</sym>
</trkpt>
<trkpt lat="49.008173" lon="20.057840">
<ele>884.5</ele>
<desc>Speed 14.0 km/h Distance 30.37 km</desc>
<time>2013-07-23T17:18:57.12</time>
<name>8412</name>
<sym>Crossing</sym>
</trkpt>
</trkseg>
</trk>
</gpx>
